<?xml version="1.0" encoding="UTF-8" standalone="no" ?>
<gpx xmlns="http://www.topografix.com/GPX/1/1" xmlns:xsi="http://www.w3.org/2001/XMLSchema-instance" xsi:schemaLocation="http://www.topografix.com/GPX/1/1 http://www.topografix.com/GPX/1/1/gpx.xsd" version="1.1" creator="VisuGPX - https://www.visugpx.com">
  <metadata>
    <name>Cyclomontagnarde du Jura 2022</name>
  </metadata>
  <trk>
    <name><![CDATA[13863423-CMJ 2022 off]]></name>
    <extensions>
      <line xmlns="http://www.topografix.com/GPX/gpx_style/0/2">
        <color>0000FF</color>
        <width>4</width>
      </line>
    </extensions>
    <trkseg>
      <trkpt lat="46.67833" lon="5.53366">
        <ele>242</ele>
        <time>2022-04-04T10:10:14Z</time>
      </trkpt>
      <trkpt lat="46.678" lon="5.53468">
        <ele>244</ele>
        <time>2022-04-04T10:10:28Z</time>
      </trkpt>
      <trkpt lat="46.6777" lon="5.53585">
        <ele>243</ele>
        <time>2022-04-04T10:10:43Z</time>
      </trkpt>
      <trkpt lat="46.67757" lon="5.53629">
        <ele>242</ele>
        <time>2022-04-04T10:10:49Z</time>
      </trkpt>
      <trkpt lat="46.67742" lon="5.53668">
        <ele>242</ele>
        <time>2022-04-04T10:10:54Z</time>
      </trkpt>
      <trkpt lat="46.67697" lon="5.53757">
        <ele>242</ele>
        <time>2022-04-04T10:11:08Z</time>
      </trkpt>
      <trkpt lat="46.67689" lon="5.53775">
        <ele>242</ele>
        <time>2022-04-04T10:11:10Z</time>
      </trkpt>
      <trkpt lat="46.67686" lon="5.53774">
        <ele>242</ele>
        <time>2022-04-04T10:11:11Z</time>
      </trkpt>
      <trkpt lat="46.67682" lon="5.53775">
        <ele>242</ele>
        <time>2022-04-04T10:11:12Z</time>
      </trkpt>
      <trkpt lat="46.6768" lon="5.53781">
        <ele>242</ele>
        <time>2022-04-04T10:11:13Z</time>
      </trkpt>
      <trkpt lat="46.67682" lon="5.53788">
        <ele>242</ele>
        <time>2022-04-04T10:11:13Z</time>
      </trkpt>
      <trkpt lat="46.67671" lon="5.53804">
        <ele>242</ele>
        <time>2022-04-04T10:11:16Z</time>
      </trkpt>
      <trkpt lat="46.67665" lon="5.53819">
        <ele>242</ele>
        <time>2022-04-04T10:11:18Z</time>
      </trkpt>
      <trkpt lat="46.67659" lon="5.53841">
        <ele>242</ele>
        <time>2022-04-04T10:11:21Z</time>
      </trkpt>
      <trkpt lat="46.67638" lon="5.53989">
        <ele>243</ele>
        <time>2022-04-04T10:11:40Z</time>
      </trkpt>
      <trkpt lat="46.67631" lon="5.54019">
        <ele>243</ele>
        <time>2022-04-04T10:11:44Z</time>
      </trkpt>
      <trkpt lat="46.67622" lon="5.54046">
        <ele>243</ele>
        <time>2022-04-04T10:11:47Z</time>
      </trkpt>
      <trkpt lat="46.67588" lon="5.54121">
        <ele>244</ele>
        <time>2022-04-04T10:11:58Z</time>
      </trkpt>
      <trkpt lat="46.6758" lon="5.54133">
        <ele>245</ele>
        <time>2022-04-04T10:12:00Z</time>
      </trkpt>
      <trkpt lat="46.67571" lon="5.54135">
        <ele>245</ele>
        <time>2022-04-04T10:12:02Z</time>
      </trkpt>
      <trkpt lat="46.67566" lon="5.54111">
        <ele>244</ele>
        <time>2022-04-04T10:12:05Z</time>
      </trkpt>
      <trkpt lat="46.67567" lon="5.54149">
        <ele>245</ele>
        <time>2022-04-04T10:12:10Z</time>
      </trkpt>
      <trkpt lat="46.67556" lon="5.54185">
        <ele>245</ele>
        <time>2022-04-04T10:12:14Z</time>
      </trkpt>
      <trkpt lat="46.67542" lon="5.54248">
        <ele>246</ele>
        <time>2022-04-04T10:12:22Z</time>
      </trkpt>
      <trkpt lat="46.67543" lon="5.54265">
        <ele>246</ele>
        <time>2022-04-04T10:12:25Z</time>
      </trkpt>
      <trkpt lat="46.67543" lon="5.543">
        <ele>247</ele>
        <time>2022-04-04T10:12:29Z</time>
      </trkpt>
      <trkpt lat="46.67538" lon="5.54308">
        <ele>247</ele>
        <time>2022-04-04T10:12:30Z</time>
      </trkpt>
      <trkpt lat="46.67536" lon="5.54317">
        <ele>247</ele>
        <time>2022-04-04T10:12:31Z</time>
      </trkpt>
      <trkpt lat="46.67536" lon="5.54328">
        <ele>247</ele>
        <time>2022-04-04T10:12:33Z</time>
      </trkpt>
      <trkpt lat="46.6754" lon="5.54336">
        <ele>247</ele>
        <time>2022-04-04T10:12:34Z</time>
      </trkpt>
      <trkpt lat="46.67548" lon="5.54343">
        <ele>247</ele>
        <time>2022-04-04T10:12:35Z</time>
      </trkpt>
      <trkpt lat="46.67558" lon="5.54342">
        <ele>247</ele>
        <time>2022-04-04T10:12:37Z</time>
      </trkpt>
      <trkpt lat="46.67561" lon="5.54364">
        <ele>247</ele>
        <time>2022-04-04T10:12:40Z</time>
      </trkpt>
      <trkpt lat="46.67558" lon="5.54373">
        <ele>247</ele>
        <time>2022-04-04T10:12:41Z</time>
      </trkpt>
      <trkpt lat="46.6751" lon="5.54467">
        <ele>247</ele>
        <time>2022-04-04T10:12:56Z</time>
      </trkpt>
      <trkpt lat="46.67508" lon="5.54479">
        <ele>247</ele>
        <time>2022-04-04T10:12:57Z</time>
      </trkpt>
      <trkpt lat="46.67501" lon="5.5468">
        <ele>249</ele>
        <time>2022-04-04T10:13:22Z</time>
      </trkpt>
      <trkpt lat="46.67502" lon="5.54702">
        <ele>250</ele>
        <time>2022-04-04T10:13:24Z</time>
      </trkpt>
      <trkpt lat="46.67496" lon="5.54706">
        <ele>250</ele>
        <time>2022-04-04T10:13:25Z</time>
      </trkpt>
      <trkpt lat="46.67492" lon="5.54717">
        <ele>250</ele>
        <time>2022-04-04T10:13:27Z</time>
      </trkpt>
      <trkpt lat="46.67494" lon="5.54729">
        <ele>250</ele>
        <time>2022-04-04T10:13:29Z</time>
      </trkpt>
      <trkpt lat="46.67501" lon="5.54738">
        <ele>250</ele>
        <time>2022-04-04T10:13:30Z</time>
      </trkpt>
      <trkpt lat="46.67503" lon="5.54768">
        <ele>251</ele>
        <time>2022-04-04T10:13:34Z</time>
      </trkpt>
      <trkpt lat="46.67503" lon="5.54835">
        <ele>252</ele>
        <time>2022-04-04T10:13:42Z</time>
      </trkpt>
      <trkpt lat="46.67511" lon="5.54887">
        <ele>252</ele>
        <time>2022-04-04T10:13:49Z</time>
      </trkpt>
      <trkpt lat="46.67509" lon="5.5497">
        <ele>251</ele>
        <time>2022-04-04T10:13:59Z</time>
      </trkpt>
      <trkpt lat="46.67516" lon="5.54996">
        <ele>251</ele>
        <time>2022-04-04T10:14:02Z</time>
      </trkpt>
      <trkpt lat="46.67542" lon="5.55061">
        <ele>252</ele>
        <time>2022-04-04T10:14:11Z</time>
      </trkpt>
      <trkpt lat="46.67578" lon="5.55178">
        <ele>253</ele>
        <time>2022-04-04T10:14:27Z</time>
      </trkpt>
      <trkpt lat="46.67569" lon="5.55248">
        <ele>255</ele>
        <time>2022-04-04T10:14:36Z</time>
      </trkpt>
      <trkpt lat="46.6756" lon="5.55307">
        <ele>257</ele>
        <time>2022-04-04T10:14:43Z</time>
      </trkpt>
      <trkpt lat="46.67561" lon="5.55373">
        <ele>259</ele>
        <time>2022-04-04T10:14:51Z</time>
      </trkpt>
      <trkpt lat="46.67563" lon="5.55381">
        <ele>259</ele>
        <time>2022-04-04T10:14:52Z</time>
      </trkpt>
      <trkpt lat="46.67615" lon="5.55376">
        <ele>258</ele>
        <time>2022-04-04T10:15:01Z</time>
      </trkpt>
      <trkpt lat="46.67618" lon="5.5538">
        <ele>258</ele>
        <time>2022-04-04T10:15:02Z</time>
      </trkpt>
      <trkpt lat="46.67622" lon="5.55388">
        <ele>258</ele>
        <time>2022-04-04T10:15:03Z</time>
      </trkpt>
      <trkpt lat="46.67624" lon="5.55405">
        <ele>258</ele>
        <time>2022-04-04T10:15:05Z</time>
      </trkpt>
      <trkpt lat="46.67618" lon="5.55479">
        <ele>260</ele>
        <time>2022-04-04T10:15:14Z</time>
      </trkpt>
      <trkpt lat="46.67622" lon="5.55494">
        <ele>261</ele>
        <time>2022-04-04T10:15:16Z</time>
      </trkpt>
      <trkpt lat="46.6763" lon="5.555">
        <ele>261</ele>
        <time>2022-04-04T10:15:18Z</time>
      </trkpt>
      <trkpt lat="46.67672" lon="5.55509">
        <ele>260</ele>
        <time>2022-04-04T10:15:26Z</time>
      </trkpt>
      <trkpt lat="46.67691" lon="5.5551">
        <ele>259</ele>
        <time>2022-04-04T10:15:29Z</time>
      </trkpt>
      <trkpt lat="46.6775" lon="5.55509">
        <ele>256</ele>
        <time>2022-04-04T10:15:39Z</time>
      </trkpt>
      <trkpt lat="46.67753" lon="5.55565">
        <ele>257</ele>
        <time>2022-04-04T10:15:46Z</time>
      </trkpt>
      <trkpt lat="46.67753" lon="5.55621">
        <ele>257</ele>
        <time>2022-04-04T10:15:53Z</time>
      </trkpt>
      <trkpt lat="46.67751" lon="5.55646">
        <ele>257</ele>
        <time>2022-04-04T10:15:56Z</time>
      </trkpt>
      <trkpt lat="46.67748" lon="5.55664">
        <ele>257</ele>
        <time>2022-04-04T10:15:59Z</time>
      </trkpt>
      <trkpt lat="46.67741" lon="5.55687">
        <ele>258</ele>
        <time>2022-04-04T10:16:02Z</time>
      </trkpt>
      <trkpt lat="46.67736" lon="5.55695">
        <ele>258</ele>
        <time>2022-04-04T10:16:03Z</time>
      </trkpt>
      <trkpt lat="46.67729" lon="5.55693">
        <ele>258</ele>
        <time>2022-04-04T10:16:04Z</time>
      </trkpt>
      <trkpt lat="46.67726" lon="5.55696">
        <ele>259</ele>
        <time>2022-04-04T10:16:05Z</time>
      </trkpt>
      <trkpt lat="46.67723" lon="5.55703">
        <ele>259</ele>
        <time>2022-04-04T10:16:06Z</time>
      </trkpt>
      <trkpt lat="46.67725" lon="5.5571">
        <ele>259</ele>
        <time>2022-04-04T10:16:07Z</time>
      </trkpt>
      <trkpt lat="46.6773" lon="5.55715">
        <ele>259</ele>
        <time>2022-04-04T10:16:08Z</time>
      </trkpt>
      <trkpt lat="46.67735" lon="5.55713">
        <ele>258</ele>
        <time>2022-04-04T10:16:09Z</time>
      </trkpt>
      <trkpt lat="46.67745" lon="5.55726">
        <ele>258</ele>
        <time>2022-04-04T10:16:11Z</time>
      </trkpt>
      <trkpt lat="46.67784" lon="5.55803">
        <ele>260</ele>
        <time>2022-04-04T10:16:23Z</time>
      </trkpt>
      <trkpt lat="46.67794" lon="5.55812">
        <ele>260</ele>
        <time>2022-04-04T10:16:25Z</time>
      </trkpt>
      <trkpt lat="46.67884" lon="5.55877">
        <ele>260</ele>
        <time>2022-04-04T10:16:43Z</time>
      </trkpt>
      <trkpt lat="46.67895" lon="5.55892">
        <ele>261</ele>
        <time>2022-04-04T10:16:45Z</time>
      </trkpt>
      <trkpt lat="46.67988" lon="5.55942">
        <ele>262</ele>
        <time>2022-04-04T10:17:03Z</time>
      </trkpt>
      <trkpt lat="46.67998" lon="5.5595">
        <ele>261</ele>
        <time>2022-04-04T10:17:05Z</time>
      </trkpt>
      <trkpt lat="46.68008" lon="5.55961">
        <ele>261</ele>
        <time>2022-04-04T10:17:07Z</time>
      </trkpt>
      <trkpt lat="46.68037" lon="5.56005">
        <ele>262</ele>
        <time>2022-04-04T10:17:15Z</time>
      </trkpt>
      <trkpt lat="46.68044" lon="5.56019">
        <ele>262</ele>
        <time>2022-04-04T10:17:17Z</time>
      </trkpt>
      <trkpt lat="46.68063" lon="5.56097">
        <ele>263</ele>
        <time>2022-04-04T10:17:27Z</time>
      </trkpt>
      <trkpt lat="46.68072" lon="5.56141">
        <ele>265</ele>
        <time>2022-04-04T10:17:33Z</time>
      </trkpt>
      <trkpt lat="46.68096" lon="5.56227">
        <ele>269</ele>
        <time>2022-04-04T10:17:44Z</time>
      </trkpt>
      <trkpt lat="46.68106" lon="5.56249">
        <ele>269</ele>
        <time>2022-04-04T10:17:47Z</time>
      </trkpt>
      <trkpt lat="46.68143" lon="5.56302">
        <ele>269</ele>
        <time>2022-04-04T10:17:56Z</time>
      </trkpt>
      <trkpt lat="46.68183" lon="5.56366">
        <ele>270</ele>
        <time>2022-04-04T10:18:07Z</time>
      </trkpt>
      <trkpt lat="46.68187" lon="5.56377">
        <ele>270</ele>
        <time>2022-04-04T10:18:09Z</time>
      </trkpt>
      <trkpt lat="46.6822" lon="5.56421">
        <ele>269</ele>
        <time>2022-04-04T10:18:16Z</time>
      </trkpt>
      <trkpt lat="46.68226" lon="5.56425">
        <ele>268</ele>
        <time>2022-04-04T10:18:18Z</time>
      </trkpt>
      <trkpt lat="46.68291" lon="5.5653">
        <ele>269</ele>
        <time>2022-04-04T10:18:35Z</time>
      </trkpt>
      <trkpt lat="46.68289" lon="5.56531">
        <ele>270</ele>
        <time>2022-04-04T10:18:35Z</time>
      </trkpt>
      <trkpt lat="46.68291" lon="5.5653">
        <ele>269</ele>
        <time>2022-04-04T10:18:36Z</time>
      </trkpt>
      <trkpt lat="46.68297" lon="5.5654">
        <ele>270</ele>
        <time>2022-04-04T10:18:37Z</time>
      </trkpt>
      <trkpt lat="46.68299" lon="5.56548">
        <ele>270</ele>
        <time>2022-04-04T10:18:38Z</time>
      </trkpt>
      <trkpt lat="46.68315" lon="5.56582">
        <ele>272</ele>
        <time>2022-04-04T10:18:43Z</time>
      </trkpt>
      <trkpt lat="46.68328" lon="5.56631">
        <ele>274</ele>
        <time>2022-04-04T10:18:50Z</time>
      </trkpt>
      <trkpt lat="46.68363" lon="5.56689">
        <ele>276</ele>
        <time>2022-04-04T10:18:59Z</time>
      </trkpt>
      <trkpt lat="46.68377" lon="5.56725">
        <ele>276</ele>
        <time>2022-04-04T10:19:04Z</time>
      </trkpt>
      <trkpt lat="46.68389" lon="5.56756">
        <ele>276</ele>
        <time>2022-04-04T10:19:09Z</time>
      </trkpt>
      <trkpt lat="46.68409" lon="5.56802">
        <ele>276</ele>
        <time>2022-04-04T10:19:15Z</time>
      </trkpt>
      <trkpt lat="46.68414" lon="5.56824">
        <ele>276</ele>
        <time>2022-04-04T10:19:18Z</time>
      </trkpt>
      <trkpt lat="46.68414" lon="5.56839">
        <ele>276</ele>
        <time>2022-04-04T10:19:20Z</time>
      </trkpt>
      <trkpt lat="46.68407" lon="5.569">
        <ele>277</ele>
        <time>2022-04-04T10:19:27Z</time>
      </trkpt>
      <trkpt lat="46.68407" lon="5.56925">
        <ele>278</ele>
        <time>2022-04-04T10:19:31Z</time>
      </trkpt>
      <trkpt lat="46.68413" lon="5.56949">
        <ele>277</ele>
        <time>2022-04-04T10:19:34Z</time>
      </trkpt>
      <trkpt lat="46.68446" lon="5.57059">
        <ele>274</ele>
        <time>2022-04-04T10:19:48Z</time>
      </trkpt>
      <trkpt lat="46.68451" lon="5.57087">
        <ele>274</ele>
        <time>2022-04-04T10:19:52Z</time>
      </trkpt>
      <trkpt lat="46.68453" lon="5.57126">
        <ele>275</ele>
        <time>2022-04-04T10:19:57Z</time>
      </trkpt>
      <trkpt lat="46.68451" lon="5.57159">
        <ele>277</ele>
        <time>2022-04-04T10:20:01Z</time>
      </trkpt>
      <trkpt lat="46.68448" lon="5.57178">
        <ele>278</ele>
        <time>2022-04-04T10:20:03Z</time>
      </trkpt>
      <trkpt lat="46.68433" lon="5.57246">
        <ele>286</ele>
        <time>2022-04-04T10:20:12Z</time>
      </trkpt>
      <trkpt lat="46.68428" lon="5.57286">
        <ele>288</ele>
        <time>2022-04-04T10:20:17Z</time>
      </trkpt>
      <trkpt lat="46.68425" lon="5.574">
        <ele>290</ele>
        <time>2022-04-04T10:20:31Z</time>
      </trkpt>
      <trkpt lat="46.68415" lon="5.57512">
        <ele>290</ele>
        <time>2022-04-04T10:20:44Z</time>
      </trkpt>
      <trkpt lat="46.6841" lon="5.57532">
        <ele>290</ele>
        <time>2022-04-04T10:20:47Z</time>
      </trkpt>
      <trkpt lat="46.6839" lon="5.57578">
        <ele>291</ele>
        <time>2022-04-04T10:20:54Z</time>
      </trkpt>
      <trkpt lat="46.68371" lon="5.57595">
        <ele>292</ele>
        <time>2022-04-04T10:20:58Z</time>
      </trkpt>
      <trkpt lat="46.68341" lon="5.57613">
        <ele>294</ele>
        <time>2022-04-04T10:21:03Z</time>
      </trkpt>
      <trkpt lat="46.68273" lon="5.57637">
        <ele>296</ele>
        <time>2022-04-04T10:21:16Z</time>
      </trkpt>
      <trkpt lat="46.68336" lon="5.578">
        <ele>301</ele>
        <time>2022-04-04T10:21:39Z</time>
      </trkpt>
      <trkpt lat="46.68342" lon="5.57821">
        <ele>302</ele>
        <time>2022-04-04T10:21:41Z</time>
      </trkpt>
      <trkpt lat="46.68343" lon="5.57834">
        <ele>303</ele>
        <time>2022-04-04T10:21:43Z</time>
      </trkpt>
      <trkpt lat="46.68342" lon="5.57847">
        <ele>303</ele>
        <time>2022-04-04T10:21:45Z</time>
      </trkpt>
      <trkpt lat="46.68338" lon="5.57859">
        <ele>304</ele>
        <time>2022-04-04T10:21:46Z</time>
      </trkpt>
      <trkpt lat="46.68326" lon="5.57888">
        <ele>304</ele>
        <time>2022-04-04T10:21:50Z</time>
      </trkpt>
      <trkpt lat="46.6827" lon="5.5799">
        <ele>307</ele>
        <time>2022-04-04T10:22:06Z</time>
      </trkpt>
      <trkpt lat="46.68256" lon="5.58005">
        <ele>307</ele>
        <time>2022-04-04T10:22:09Z</time>
      </trkpt>
      <trkpt lat="46.68256" lon="5.58013">
        <ele>307</ele>
        <time>2022-04-04T10:22:10Z</time>
      </trkpt>
      <trkpt lat="46.68253" lon="5.58024">
        <ele>308</ele>
        <time>2022-04-04T10:22:12Z</time>
      </trkpt>
      <trkpt lat="46.68238" lon="5.58054">
        <ele>308</ele>
        <time>2022-04-04T10:22:16Z</time>
      </trkpt>
      <trkpt lat="46.68215" lon="5.58104">
        <ele>309</ele>
        <time>2022-04-04T10:22:24Z</time>
      </trkpt>
      <trkpt lat="46.68206" lon="5.58142">
        <ele>310</ele>
        <time>2022-04-04T10:22:29Z</time>
      </trkpt>
      <trkpt lat="46.68197" lon="5.58327">
        <ele>313</ele>
        <time>2022-04-04T10:22:51Z</time>
      </trkpt>
      <trkpt lat="46.68193" lon="5.58338">
        <ele>313</ele>
        <time>2022-04-04T10:22:53Z</time>
      </trkpt>
      <trkpt lat="46.68202" lon="5.58348">
        <ele>313</ele>
        <time>2022-04-04T10:22:55Z</time>
      </trkpt>
      <trkpt lat="46.68223" lon="5.58355">
        <ele>314</ele>
        <time>2022-04-04T10:22:59Z</time>
      </trkpt>
      <trkpt lat="46.68265" lon="5.58363">
        <ele>314</ele>
        <time>2022-04-04T10:23:06Z</time>
      </trkpt>
      <trkpt lat="46.68307" lon="5.58368">
        <ele>315</ele>
        <time>2022-04-04T10:23:14Z</time>
      </trkpt>
      <trkpt lat="46.6861" lon="5.58434">
        <ele>311</ele>
        <time>2022-04-04T10:24:08Z</time>
      </trkpt>
      <trkpt lat="46.68642" lon="5.58439">
        <ele>312</ele>
        <time>2022-04-04T10:24:14Z</time>
      </trkpt>
      <trkpt lat="46.68717" lon="5.58443">
        <ele>313</ele>
        <time>2022-04-04T10:24:27Z</time>
      </trkpt>
      <trkpt lat="46.68717" lon="5.58446">
        <ele>313</ele>
        <time>2022-04-04T10:24:28Z</time>
      </trkpt>
      <trkpt lat="46.68726" lon="5.58461">
        <ele>313</ele>
        <time>2022-04-04T10:24:30Z</time>
      </trkpt>
      <trkpt lat="46.68896" lon="5.58681">
        <ele>316</ele>
        <time>2022-04-04T10:25:11Z</time>
      </trkpt>
      <trkpt lat="46.68931" lon="5.58763">
        <ele>318</ele>
        <time>2022-04-04T10:25:22Z</time>
      </trkpt>
      <trkpt lat="46.68967" lon="5.58828">
        <ele>321</ele>
        <time>2022-04-04T10:25:33Z</time>
      </trkpt>
      <trkpt lat="46.68972" lon="5.58839">
        <ele>322</ele>
        <time>2022-04-04T10:25:34Z</time>
      </trkpt>
      <trkpt lat="46.68982" lon="5.58897">
        <ele>329</ele>
        <time>2022-04-04T10:25:41Z</time>
      </trkpt>
      <trkpt lat="46.68991" lon="5.58929">
        <ele>334</ele>
        <time>2022-04-04T10:25:46Z</time>
      </trkpt>
      <trkpt lat="46.69009" lon="5.58958">
        <ele>338</ele>
        <time>2022-04-04T10:25:50Z</time>
      </trkpt>
      <trkpt lat="46.69098" lon="5.5901">
        <ele>338</ele>
        <time>2022-04-04T10:26:07Z</time>
      </trkpt>
      <trkpt lat="46.69132" lon="5.59053">
        <ele>342</ele>
        <time>2022-04-04T10:26:15Z</time>
      </trkpt>
      <trkpt lat="46.69156" lon="5.59062">
        <ele>341</ele>
        <time>2022-04-04T10:26:20Z</time>
      </trkpt>
      <trkpt lat="46.69214" lon="5.59075">
        <ele>338</ele>
        <time>2022-04-04T10:26:30Z</time>
      </trkpt>
      <trkpt lat="46.69248" lon="5.59088">
        <ele>337</ele>
        <time>2022-04-04T10:26:37Z</time>
      </trkpt>
      <trkpt lat="46.6927" lon="5.59101">
        <ele>339</ele>
        <time>2022-04-04T10:26:41Z</time>
      </trkpt>
      <trkpt lat="46.69379" lon="5.59185">
        <ele>347</ele>
        <time>2022-04-04T10:27:03Z</time>
      </trkpt>
      <trkpt lat="46.69387" lon="5.59201">
        <ele>348</ele>
        <time>2022-04-04T10:27:05Z</time>
      </trkpt>
      <trkpt lat="46.694" lon="5.59256">
        <ele>351</ele>
        <time>2022-04-04T10:27:12Z</time>
      </trkpt>
      <trkpt lat="46.69429" lon="5.593">
        <ele>354</ele>
        <time>2022-04-04T10:27:20Z</time>
      </trkpt>
      <trkpt lat="46.69446" lon="5.59411">
        <ele>357</ele>
        <time>2022-04-04T10:27:34Z</time>
      </trkpt>
      <trkpt lat="46.69452" lon="5.59424">
        <ele>358</ele>
        <time>2022-04-04T10:27:36Z</time>
      </trkpt>
      <trkpt lat="46.695" lon="5.59467">
        <ele>362</ele>
        <time>2022-04-04T10:27:46Z</time>
      </trkpt>
      <trkpt lat="46.69543" lon="5.59562">
        <ele>371</ele>
        <time>2022-04-04T10:27:59Z</time>
      </trkpt>
      <trkpt lat="46.69553" lon="5.59575">
        <ele>372</ele>
        <time>2022-04-04T10:28:02Z</time>
      </trkpt>
      <trkpt lat="46.69587" lon="5.59584">
        <ele>370</ele>
        <time>2022-04-04T10:28:08Z</time>
      </trkpt>
      <trkpt lat="46.69596" lon="5.59593">
        <ele>371</ele>
        <time>2022-04-04T10:28:10Z</time>
      </trkpt>
      <trkpt lat="46.69667" lon="5.59697">
        <ele>383</ele>
        <time>2022-04-04T10:28:28Z</time>
      </trkpt>
      <trkpt lat="46.69669" lon="5.59705">
        <ele>383</ele>
        <time>2022-04-04T10:28:29Z</time>
      </trkpt>
      <trkpt lat="46.69731" lon="5.59746">
        <ele>386</ele>
        <time>2022-04-04T10:28:41Z</time>
      </trkpt>
      <trkpt lat="46.69755" lon="5.59768">
        <ele>387</ele>
        <time>2022-04-04T10:28:46Z</time>
      </trkpt>
      <trkpt lat="46.69788" lon="5.59789">
        <ele>388</ele>
        <time>2022-04-04T10:28:52Z</time>
      </trkpt>
      <trkpt lat="46.69795" lon="5.59806">
        <ele>389</ele>
        <time>2022-04-04T10:28:55Z</time>
      </trkpt>
      <trkpt lat="46.6985" lon="5.59872">
        <ele>389</ele>
        <time>2022-04-04T10:29:07Z</time>
      </trkpt>
      <trkpt lat="46.69875" lon="5.59894">
        <ele>388</ele>
        <time>2022-04-04T10:29:13Z</time>
      </trkpt>
      <trkpt lat="46.69929" lon="5.59934">
        <ele>386</ele>
        <time>2022-04-04T10:29:23Z</time>
      </trkpt>
      <trkpt lat="46.70005" lon="5.5997">
        <ele>378</ele>
        <time>2022-04-04T10:29:38Z</time>
      </trkpt>
      <trkpt lat="46.70018" lon="5.59972">
        <ele>376</ele>
        <time>2022-04-04T10:29:40Z</time>
      </trkpt>
      <trkpt lat="46.70027" lon="5.5997">
        <ele>375</ele>
        <time>2022-04-04T10:29:42Z</time>
      </trkpt>
      <trkpt lat="46.70038" lon="5.59963">
        <ele>375</ele>
        <time>2022-04-04T10:29:44Z</time>
      </trkpt>
      <trkpt lat="46.70052" lon="5.59947">
        <ele>375</ele>
        <time>2022-04-04T10:29:47Z</time>
      </trkpt>
      <trkpt lat="46.70062" lon="5.59928">
        <ele>376</ele>
        <time>2022-04-04T10:29:50Z</time>
      </trkpt>
      <trkpt lat="46.70119" lon="5.59808">
        <ele>371</ele>
        <time>2022-04-04T10:30:08Z</time>
      </trkpt>
      <trkpt lat="46.70178" lon="5.59728">
        <ele>364</ele>
        <time>2022-04-04T10:30:22Z</time>
      </trkpt>
      <trkpt lat="46.70198" lon="5.59691">
        <ele>364</ele>
        <time>2022-04-04T10:30:28Z</time>
      </trkpt>
      <trkpt lat="46.70269" lon="5.59505">
        <ele>355</ele>
        <time>2022-04-04T10:30:54Z</time>
      </trkpt>
      <trkpt lat="46.70302" lon="5.59455">
        <ele>354</ele>
        <time>2022-04-04T10:31:02Z</time>
      </trkpt>
      <trkpt lat="46.70354" lon="5.59391">
        <ele>352</ele>
        <time>2022-04-04T10:31:14Z</time>
      </trkpt>
      <trkpt lat="46.70419" lon="5.59337">
        <ele>348</ele>
        <time>2022-04-04T10:31:28Z</time>
      </trkpt>
      <trkpt lat="46.70474" lon="5.59303">
        <ele>344</ele>
        <time>2022-04-04T10:31:38Z</time>
      </trkpt>
      <trkpt lat="46.7082" lon="5.59302">
        <ele>328</ele>
        <time>2022-04-04T10:32:40Z</time>
      </trkpt>
      <trkpt lat="46.70908" lon="5.59304">
        <ele>324</ele>
        <time>2022-04-04T10:32:55Z</time>
      </trkpt>
      <trkpt lat="46.70941" lon="5.59306">
        <ele>322</ele>
        <time>2022-04-04T10:33:01Z</time>
      </trkpt>
      <trkpt lat="46.71001" lon="5.59315">
        <ele>318</ele>
        <time>2022-04-04T10:33:12Z</time>
      </trkpt>
      <trkpt lat="46.71028" lon="5.5931">
        <ele>316</ele>
        <time>2022-04-04T10:33:17Z</time>
      </trkpt>
      <trkpt lat="46.71116" lon="5.59267">
        <ele>310</ele>
        <time>2022-04-04T10:33:33Z</time>
      </trkpt>
      <trkpt lat="46.71144" lon="5.59257">
        <ele>310</ele>
        <time>2022-04-04T10:33:39Z</time>
      </trkpt>
      <trkpt lat="46.7117" lon="5.59255">
        <ele>309</ele>
        <time>2022-04-04T10:33:43Z</time>
      </trkpt>
      <trkpt lat="46.71188" lon="5.59256">
        <ele>310</ele>
        <time>2022-04-04T10:33:46Z</time>
      </trkpt>
      <trkpt lat="46.71211" lon="5.59264">
        <ele>311</ele>
        <time>2022-04-04T10:33:51Z</time>
      </trkpt>
      <trkpt lat="46.71236" lon="5.59277">
        <ele>312</ele>
        <time>2022-04-04T10:33:55Z</time>
      </trkpt>
      <trkpt lat="46.71257" lon="5.59284">
        <ele>312</ele>
        <time>2022-04-04T10:33:59Z</time>
      </trkpt>
      <trkpt lat="46.71274" lon="5.59288">
        <ele>311</ele>
        <time>2022-04-04T10:34:02Z</time>
      </trkpt>
      <trkpt lat="46.71294" lon="5.59288">
        <ele>311</ele>
        <time>2022-04-04T10:34:06Z</time>
      </trkpt>
      <trkpt lat="46.71327" lon="5.59304">
        <ele>309</ele>
        <time>2022-04-04T10:34:12Z</time>
      </trkpt>
      <trkpt lat="46.71338" lon="5.59317">
        <ele>309</ele>
        <time>2022-04-04T10:34:14Z</time>
      </trkpt>
      <trkpt lat="46.71369" lon="5.59365">
        <ele>309</ele>
        <time>2022-04-04T10:34:23Z</time>
      </trkpt>
      <trkpt lat="46.7138" lon="5.59377">
        <ele>309</ele>
        <time>2022-04-04T10:34:25Z</time>
      </trkpt>
      <trkpt lat="46.71393" lon="5.59385">
        <ele>309</ele>
        <time>2022-04-04T10:34:27Z</time>
      </trkpt>
      <trkpt lat="46.71454" lon="5.59396">
        <ele>309</ele>
        <time>2022-04-04T10:34:38Z</time>
      </trkpt>
      <trkpt lat="46.71486" lon="5.59407">
        <ele>309</ele>
        <time>2022-04-04T10:34:44Z</time>
      </trkpt>
      <trkpt lat="46.71501" lon="5.59416">
        <ele>309</ele>
        <time>2022-04-04T10:34:47Z</time>
      </trkpt>
      <trkpt lat="46.71532" lon="5.59438">
        <ele>308</ele>
        <time>2022-04-04T10:34:53Z</time>
      </trkpt>
      <trkpt lat="46.7154" lon="5.59451">
        <ele>309</ele>
        <time>2022-04-04T10:34:55Z</time>
      </trkpt>
      <trkpt lat="46.71545" lon="5.59466">
        <ele>310</ele>
        <time>2022-04-04T10:34:57Z</time>
      </trkpt>
      <trkpt lat="46.71547" lon="5.59497">
        <ele>311</ele>
        <time>2022-04-04T10:35:01Z</time>
      </trkpt>
      <trkpt lat="46.71548" lon="5.59505">
        <ele>312</ele>
        <time>2022-04-04T10:35:02Z</time>
      </trkpt>
      <trkpt lat="46.71552" lon="5.59514">
        <ele>313</ele>
        <time>2022-04-04T10:35:04Z</time>
      </trkpt>
      <trkpt lat="46.71571" lon="5.59521">
        <ele>314</ele>
        <time>2022-04-04T10:35:07Z</time>
      </trkpt>
      <trkpt lat="46.7159" lon="5.59531">
        <ele>315</ele>
        <time>2022-04-04T10:35:11Z</time>
      </trkpt>
      <trkpt lat="46.71626" lon="5.59555">
        <ele>315</ele>
        <time>2022-04-04T10:35:18Z</time>
      </trkpt>
      <trkpt lat="46.71664" lon="5.59573">
        <ele>314</ele>
        <time>2022-04-04T10:35:25Z</time>
      </trkpt>
      <trkpt lat="46.71677" lon="5.59584">
        <ele>315</ele>
        <time>2022-04-04T10:35:27Z</time>
      </trkpt>
      <trkpt lat="46.71725" lon="5.5962">
        <ele>314</ele>
        <time>2022-04-04T10:35:37Z</time>
      </trkpt>
      <trkpt lat="46.71723" lon="5.59638">
        <ele>316</ele>
        <time>2022-04-04T10:35:39Z</time>
      </trkpt>
      <trkpt lat="46.71692" lon="5.59721">
        <ele>321</ele>
        <time>2022-04-04T10:35:51Z</time>
      </trkpt>
      <trkpt lat="46.71684" lon="5.59746">
        <ele>322</ele>
        <time>2022-04-04T10:35:54Z</time>
      </trkpt>
      <trkpt lat="46.71683" lon="5.59763">
        <ele>323</ele>
        <time>2022-04-04T10:35:56Z</time>
      </trkpt>
      <trkpt lat="46.71684" lon="5.59769">
        <ele>323</ele>
        <time>2022-04-04T10:35:57Z</time>
      </trkpt>
      <trkpt lat="46.71691" lon="5.59779">
        <ele>324</ele>
        <time>2022-04-04T10:35:59Z</time>
      </trkpt>
      <trkpt lat="46.71723" lon="5.59796">
        <ele>323</ele>
        <time>2022-04-04T10:36:05Z</time>
      </trkpt>
      <trkpt lat="46.71778" lon="5.59832">
        <ele>322</ele>
        <time>2022-04-04T10:36:16Z</time>
      </trkpt>
      <trkpt lat="46.71842" lon="5.59882">
        <ele>322</ele>
        <time>2022-04-04T10:36:28Z</time>
      </trkpt>
      <trkpt lat="46.71855" lon="5.5989">
        <ele>322</ele>
        <time>2022-04-04T10:36:31Z</time>
      </trkpt>
      <trkpt lat="46.71937" lon="5.59923">
        <ele>323</ele>
        <time>2022-04-04T10:36:46Z</time>
      </trkpt>
      <trkpt lat="46.71954" lon="5.59934">
        <ele>322</ele>
        <time>2022-04-04T10:36:49Z</time>
      </trkpt>
      <trkpt lat="46.71965" lon="5.59946">
        <ele>322</ele>
        <time>2022-04-04T10:36:52Z</time>
      </trkpt>
      <trkpt lat="46.71976" lon="5.59963">
        <ele>323</ele>
        <time>2022-04-04T10:36:55Z</time>
      </trkpt>
      <trkpt lat="46.72016" lon="5.60028">
        <ele>326</ele>
        <time>2022-04-04T10:37:05Z</time>
      </trkpt>
      <trkpt lat="46.72034" lon="5.60078">
        <ele>330</ele>
        <time>2022-04-04T10:37:12Z</time>
      </trkpt>
      <trkpt lat="46.72066" lon="5.60137">
        <ele>332</ele>
        <time>2022-04-04T10:37:21Z</time>
      </trkpt>
      <trkpt lat="46.72082" lon="5.60156">
        <ele>332</ele>
        <time>2022-04-04T10:37:25Z</time>
      </trkpt>
      <trkpt lat="46.72101" lon="5.60171">
        <ele>335</ele>
        <time>2022-04-04T10:37:29Z</time>
      </trkpt>
      <trkpt lat="46.72117" lon="5.60179">
        <ele>336</ele>
        <time>2022-04-04T10:37:32Z</time>
      </trkpt>
      <trkpt lat="46.72133" lon="5.60183">
        <ele>336</ele>
        <time>2022-04-04T10:37:35Z</time>
      </trkpt>
      <trkpt lat="46.72215" lon="5.60185">
        <ele>336</ele>
        <time>2022-04-04T10:37:49Z</time>
      </trkpt>
      <trkpt lat="46.72245" lon="5.60194">
        <ele>338</ele>
        <time>2022-04-04T10:37:55Z</time>
      </trkpt>
      <trkpt lat="46.72252" lon="5.60199">
        <ele>338</ele>
        <time>2022-04-04T10:37:56Z</time>
      </trkpt>
      <trkpt lat="46.72268" lon="5.60218">
        <ele>339</ele>
        <time>2022-04-04T10:38:00Z</time>
      </trkpt>
      <trkpt lat="46.72252" lon="5.60199">
        <ele>338</ele>
        <time>2022-04-04T10:38:04Z</time>
      </trkpt>
      <trkpt lat="46.72245" lon="5.60194">
        <ele>338</ele>
        <time>2022-04-04T10:38:05Z</time>
      </trkpt>
      <trkpt lat="46.72235" lon="5.6019">
        <ele>337</ele>
        <time>2022-04-04T10:38:07Z</time>
      </trkpt>
      <trkpt lat="46.72255" lon="5.60215">
        <ele>340</ele>
        <time>2022-04-04T10:38:12Z</time>
      </trkpt>
      <trkpt lat="46.72264" lon="5.60228">
        <ele>340</ele>
        <time>2022-04-04T10:38:14Z</time>
      </trkpt>
      <trkpt lat="46.72268" lon="5.6024">
        <ele>341</ele>
        <time>2022-04-04T10:38:15Z</time>
      </trkpt>
      <trkpt lat="46.72268" lon="5.60251">
        <ele>343</ele>
        <time>2022-04-04T10:38:17Z</time>
      </trkpt>
      <trkpt lat="46.72265" lon="5.60263">
        <ele>345</ele>
        <time>2022-04-04T10:38:18Z</time>
      </trkpt>
      <trkpt lat="46.72261" lon="5.6027">
        <ele>346</ele>
        <time>2022-04-04T10:38:19Z</time>
      </trkpt>
      <trkpt lat="46.72249" lon="5.60275">
        <ele>348</ele>
        <time>2022-04-04T10:38:22Z</time>
      </trkpt>
      <trkpt lat="46.72184" lon="5.60285">
        <ele>351</ele>
        <time>2022-04-04T10:38:33Z</time>
      </trkpt>
      <trkpt lat="46.72153" lon="5.60295">
        <ele>353</ele>
        <time>2022-04-04T10:38:39Z</time>
      </trkpt>
      <trkpt lat="46.72079" lon="5.60326">
        <ele>360</ele>
        <time>2022-04-04T10:38:53Z</time>
      </trkpt>
      <trkpt lat="46.72069" lon="5.60324">
        <ele>361</ele>
        <time>2022-04-04T10:38:54Z</time>
      </trkpt>
      <trkpt lat="46.72041" lon="5.6031">
        <ele>364</ele>
        <time>2022-04-04T10:39:00Z</time>
      </trkpt>
      <trkpt lat="46.71952" lon="5.60231">
        <ele>366</ele>
        <time>2022-04-04T10:39:18Z</time>
      </trkpt>
      <trkpt lat="46.71924" lon="5.60213">
        <ele>368</ele>
        <time>2022-04-04T10:39:24Z</time>
      </trkpt>
      <trkpt lat="46.71899" lon="5.60203">
        <ele>369</ele>
        <time>2022-04-04T10:39:28Z</time>
      </trkpt>
      <trkpt lat="46.71878" lon="5.60198">
        <ele>370</ele>
        <time>2022-04-04T10:39:32Z</time>
      </trkpt>
      <trkpt lat="46.71857" lon="5.60197">
        <ele>371</ele>
        <time>2022-04-04T10:39:36Z</time>
      </trkpt>
      <trkpt lat="46.7183" lon="5.60201">
        <ele>374</ele>
        <time>2022-04-04T10:39:41Z</time>
      </trkpt>
      <trkpt lat="46.71773" lon="5.60214">
        <ele>380</ele>
        <time>2022-04-04T10:39:51Z</time>
      </trkpt>
      <trkpt lat="46.71735" lon="5.60226">
        <ele>385</ele>
        <time>2022-04-04T10:39:58Z</time>
      </trkpt>
      <trkpt lat="46.71706" lon="5.60231">
        <ele>388</ele>
        <time>2022-04-04T10:40:03Z</time>
      </trkpt>
      <trkpt lat="46.71649" lon="5.60224">
        <ele>391</ele>
        <time>2022-04-04T10:40:13Z</time>
      </trkpt>
      <trkpt lat="46.71612" lon="5.60224">
        <ele>396</ele>
        <time>2022-04-04T10:40:20Z</time>
      </trkpt>
      <trkpt lat="46.7159" lon="5.6022">
        <ele>398</ele>
        <time>2022-04-04T10:40:24Z</time>
      </trkpt>
      <trkpt lat="46.71573" lon="5.60212">
        <ele>399</ele>
        <time>2022-04-04T10:40:27Z</time>
      </trkpt>
      <trkpt lat="46.71524" lon="5.60176">
        <ele>399</ele>
        <time>2022-04-04T10:40:37Z</time>
      </trkpt>
      <trkpt lat="46.71516" lon="5.60167">
        <ele>397</ele>
        <time>2022-04-04T10:40:38Z</time>
      </trkpt>
      <trkpt lat="46.7151" lon="5.60167">
        <ele>399</ele>
        <time>2022-04-04T10:40:40Z</time>
      </trkpt>
      <trkpt lat="46.71501" lon="5.60164">
        <ele>400</ele>
        <time>2022-04-04T10:40:41Z</time>
      </trkpt>
      <trkpt lat="46.71445" lon="5.60122">
        <ele>404</ele>
        <time>2022-04-04T10:40:52Z</time>
      </trkpt>
      <trkpt lat="46.71421" lon="5.6011">
        <ele>405</ele>
        <time>2022-04-04T10:40:57Z</time>
      </trkpt>
      <trkpt lat="46.71407" lon="5.60098">
        <ele>403</ele>
        <time>2022-04-04T10:41:00Z</time>
      </trkpt>
      <trkpt lat="46.71392" lon="5.60077">
        <ele>399</ele>
        <time>2022-04-04T10:41:03Z</time>
      </trkpt>
      <trkpt lat="46.71379" lon="5.60066">
        <ele>399</ele>
        <time>2022-04-04T10:41:06Z</time>
      </trkpt>
      <trkpt lat="46.7137" lon="5.60069">
        <ele>401</ele>
        <time>2022-04-04T10:41:08Z</time>
      </trkpt>
      <trkpt lat="46.71367" lon="5.60076">
        <ele>403</ele>
        <time>2022-04-04T10:41:09Z</time>
      </trkpt>
      <trkpt lat="46.71367" lon="5.60089">
        <ele>407</ele>
        <time>2022-04-04T10:41:10Z</time>
      </trkpt>
      <trkpt lat="46.71372" lon="5.60098">
        <ele>410</ele>
        <time>2022-04-04T10:41:12Z</time>
      </trkpt>
      <trkpt lat="46.71405" lon="5.60118">
        <ele>411</ele>
        <time>2022-04-04T10:41:18Z</time>
      </trkpt>
      <trkpt lat="46.71427" lon="5.60137">
        <ele>412</ele>
        <time>2022-04-04T10:41:23Z</time>
      </trkpt>
      <trkpt lat="46.71465" lon="5.60178">
        <ele>415</ele>
        <time>2022-04-04T10:41:31Z</time>
      </trkpt>
      <trkpt lat="46.71488" lon="5.60196">
        <ele>414</ele>
        <time>2022-04-04T10:41:36Z</time>
      </trkpt>
      <trkpt lat="46.71508" lon="5.60216">
        <ele>416</ele>
        <time>2022-04-04T10:41:40Z</time>
      </trkpt>
      <trkpt lat="46.71537" lon="5.60251">
        <ele>420</ele>
        <time>2022-04-04T10:41:47Z</time>
      </trkpt>
      <trkpt lat="46.71582" lon="5.60295">
        <ele>426</ele>
        <time>2022-04-04T10:41:56Z</time>
      </trkpt>
      <trkpt lat="46.71604" lon="5.60311">
        <ele>428</ele>
        <time>2022-04-04T10:42:01Z</time>
      </trkpt>
      <trkpt lat="46.71699" lon="5.60357">
        <ele>429</ele>
        <time>2022-04-04T10:42:19Z</time>
      </trkpt>
      <trkpt lat="46.71783" lon="5.60406">
        <ele>432</ele>
        <time>2022-04-04T10:42:35Z</time>
      </trkpt>
      <trkpt lat="46.71797" lon="5.60417">
        <ele>432</ele>
        <time>2022-04-04T10:42:38Z</time>
      </trkpt>
      <trkpt lat="46.71823" lon="5.60444">
        <ele>436</ele>
        <time>2022-04-04T10:42:43Z</time>
      </trkpt>
      <trkpt lat="46.71945" lon="5.60537">
        <ele>442</ele>
        <time>2022-04-04T10:43:08Z</time>
      </trkpt>
      <trkpt lat="46.71966" lon="5.60558">
        <ele>444</ele>
        <time>2022-04-04T10:43:12Z</time>
      </trkpt>
      <trkpt lat="46.72004" lon="5.60601">
        <ele>448</ele>
        <time>2022-04-04T10:43:21Z</time>
      </trkpt>
      <trkpt lat="46.72041" lon="5.60651">
        <ele>452</ele>
        <time>2022-04-04T10:43:30Z</time>
      </trkpt>
      <trkpt lat="46.72056" lon="5.60666">
        <ele>453</ele>
        <time>2022-04-04T10:43:33Z</time>
      </trkpt>
      <trkpt lat="46.72067" lon="5.60679">
        <ele>453</ele>
        <time>2022-04-04T10:43:36Z</time>
      </trkpt>
      <trkpt lat="46.72076" lon="5.60697">
        <ele>454</ele>
        <time>2022-04-04T10:43:38Z</time>
      </trkpt>
      <trkpt lat="46.72083" lon="5.60719">
        <ele>458</ele>
        <time>2022-04-04T10:43:41Z</time>
      </trkpt>
      <trkpt lat="46.72089" lon="5.60727">
        <ele>459</ele>
        <time>2022-04-04T10:43:43Z</time>
      </trkpt>
      <trkpt lat="46.721" lon="5.60734">
        <ele>459</ele>
        <time>2022-04-04T10:43:45Z</time>
      </trkpt>
      <trkpt lat="46.72115" lon="5.60738">
        <ele>459</ele>
        <time>2022-04-04T10:43:47Z</time>
      </trkpt>
      <trkpt lat="46.7213" lon="5.60739">
        <ele>458</ele>
        <time>2022-04-04T10:43:50Z</time>
      </trkpt>
      <trkpt lat="46.72147" lon="5.60744">
        <ele>458</ele>
        <time>2022-04-04T10:43:53Z</time>
      </trkpt>
      <trkpt lat="46.72154" lon="5.60749">
        <ele>459</ele>
        <time>2022-04-04T10:43:55Z</time>
      </trkpt>
      <trkpt lat="46.72159" lon="5.60757">
        <ele>459</ele>
        <time>2022-04-04T10:43:56Z</time>
      </trkpt>
      <trkpt lat="46.7216" lon="5.60773">
        <ele>461</ele>
        <time>2022-04-04T10:43:58Z</time>
      </trkpt>
      <trkpt lat="46.72158" lon="5.6078">
        <ele>462</ele>
        <time>2022-04-04T10:43:59Z</time>
      </trkpt>
      <trkpt lat="46.72153" lon="5.60787">
        <ele>464</ele>
        <time>2022-04-04T10:44:00Z</time>
      </trkpt>
      <trkpt lat="46.72146" lon="5.6079">
        <ele>464</ele>
        <time>2022-04-04T10:44:01Z</time>
      </trkpt>
      <trkpt lat="46.72107" lon="5.6079">
        <ele>466</ele>
        <time>2022-04-04T10:44:08Z</time>
      </trkpt>
      <trkpt lat="46.7209" lon="5.60793">
        <ele>467</ele>
        <time>2022-04-04T10:44:11Z</time>
      </trkpt>
      <trkpt lat="46.72081" lon="5.60797">
        <ele>467</ele>
        <time>2022-04-04T10:44:13Z</time>
      </trkpt>
      <trkpt lat="46.72072" lon="5.60804">
        <ele>468</ele>
        <time>2022-04-04T10:44:15Z</time>
      </trkpt>
      <trkpt lat="46.72067" lon="5.60816">
        <ele>469</ele>
        <time>2022-04-04T10:44:17Z</time>
      </trkpt>
      <trkpt lat="46.72065" lon="5.60829">
        <ele>470</ele>
        <time>2022-04-04T10:44:18Z</time>
      </trkpt>
      <trkpt lat="46.72065" lon="5.60852">
        <ele>470</ele>
        <time>2022-04-04T10:44:21Z</time>
      </trkpt>
      <trkpt lat="46.7207" lon="5.60887">
        <ele>471</ele>
        <time>2022-04-04T10:44:25Z</time>
      </trkpt>
      <trkpt lat="46.72054" lon="5.60914">
        <ele>471</ele>
        <time>2022-04-04T10:44:30Z</time>
      </trkpt>
      <trkpt lat="46.72042" lon="5.60929">
        <ele>470</ele>
        <time>2022-04-04T10:44:33Z</time>
      </trkpt>
      <trkpt lat="46.72022" lon="5.60942">
        <ele>470</ele>
        <time>2022-04-04T10:44:36Z</time>
      </trkpt>
      <trkpt lat="46.72001" lon="5.6095">
        <ele>470</ele>
        <time>2022-04-04T10:44:40Z</time>
      </trkpt>
      <trkpt lat="46.71973" lon="5.60957">
        <ele>470</ele>
        <time>2022-04-04T10:44:45Z</time>
      </trkpt>
      <trkpt lat="46.71962" lon="5.60963">
        <ele>470</ele>
        <time>2022-04-04T10:44:47Z</time>
      </trkpt>
      <trkpt lat="46.71951" lon="5.60979">
        <ele>470</ele>
        <time>2022-04-04T10:44:50Z</time>
      </trkpt>
      <trkpt lat="46.71946" lon="5.60994">
        <ele>470</ele>
        <time>2022-04-04T10:44:52Z</time>
      </trkpt>
      <trkpt lat="46.71939" lon="5.61035">
        <ele>470</ele>
        <time>2022-04-04T10:44:57Z</time>
      </trkpt>
      <trkpt lat="46.71936" lon="5.61054">
        <ele>469</ele>
        <time>2022-04-04T10:45:00Z</time>
      </trkpt>
      <trkpt lat="46.71937" lon="5.61084">
        <ele>469</ele>
        <time>2022-04-04T10:45:03Z</time>
      </trkpt>
      <trkpt lat="46.71934" lon="5.61096">
        <ele>468</ele>
        <time>2022-04-04T10:45:05Z</time>
      </trkpt>
      <trkpt lat="46.7193" lon="5.61106">
        <ele>466</ele>
        <time>2022-04-04T10:45:06Z</time>
      </trkpt>
      <trkpt lat="46.71907" lon="5.61125">
        <ele>465</ele>
        <time>2022-04-04T10:45:11Z</time>
      </trkpt>
      <trkpt lat="46.71879" lon="5.61161">
        <ele>468</ele>
        <time>2022-04-04T10:45:18Z</time>
      </trkpt>
      <trkpt lat="46.7185" lon="5.61203">
        <ele>469</ele>
        <time>2022-04-04T10:45:25Z</time>
      </trkpt>
      <trkpt lat="46.71836" lon="5.61227">
        <ele>467</ele>
        <time>2022-04-04T10:45:29Z</time>
      </trkpt>
      <trkpt lat="46.71831" lon="5.61247">
        <ele>464</ele>
        <time>2022-04-04T10:45:31Z</time>
      </trkpt>
      <trkpt lat="46.718" lon="5.61399">
        <ele>455</ele>
        <time>2022-04-04T10:45:51Z</time>
      </trkpt>
      <trkpt lat="46.7178" lon="5.61465">
        <ele>454</ele>
        <time>2022-04-04T10:46:00Z</time>
      </trkpt>
      <trkpt lat="46.71749" lon="5.61526">
        <ele>455</ele>
        <time>2022-04-04T10:46:09Z</time>
      </trkpt>
      <trkpt lat="46.71744" lon="5.61539">
        <ele>455</ele>
        <time>2022-04-04T10:46:11Z</time>
      </trkpt>
      <trkpt lat="46.7173" lon="5.61616">
        <ele>460</ele>
        <time>2022-04-04T10:46:20Z</time>
      </trkpt>
      <trkpt lat="46.71721" lon="5.61656">
        <ele>462</ele>
        <time>2022-04-04T10:46:26Z</time>
      </trkpt>
      <trkpt lat="46.71683" lon="5.61749">
        <ele>466</ele>
        <time>2022-04-04T10:46:39Z</time>
      </trkpt>
      <trkpt lat="46.71673" lon="5.61779">
        <ele>467</ele>
        <time>2022-04-04T10:46:43Z</time>
      </trkpt>
      <trkpt lat="46.71668" lon="5.618">
        <ele>467</ele>
        <time>2022-04-04T10:46:46Z</time>
      </trkpt>
      <trkpt lat="46.71647" lon="5.61911">
        <ele>472</ele>
        <time>2022-04-04T10:47:00Z</time>
      </trkpt>
      <trkpt lat="46.71632" lon="5.6195">
        <ele>474</ele>
        <time>2022-04-04T10:47:05Z</time>
      </trkpt>
      <trkpt lat="46.71619" lon="5.61975">
        <ele>476</ele>
        <time>2022-04-04T10:47:09Z</time>
      </trkpt>
      <trkpt lat="46.71584" lon="5.62034">
        <ele>481</ele>
        <time>2022-04-04T10:47:18Z</time>
      </trkpt>
      <trkpt lat="46.71544" lon="5.62097">
        <ele>485</ele>
        <time>2022-04-04T10:47:29Z</time>
      </trkpt>
      <trkpt lat="46.71534" lon="5.62106">
        <ele>485</ele>
        <time>2022-04-04T10:47:31Z</time>
      </trkpt>
      <trkpt lat="46.71513" lon="5.62112">
        <ele>483</ele>
        <time>2022-04-04T10:47:35Z</time>
      </trkpt>
      <trkpt lat="46.71502" lon="5.62112">
        <ele>483</ele>
        <time>2022-04-04T10:47:37Z</time>
      </trkpt>
      <trkpt lat="46.7146" lon="5.62095">
        <ele>485</ele>
        <time>2022-04-04T10:47:44Z</time>
      </trkpt>
      <trkpt lat="46.71442" lon="5.62091">
        <ele>485</ele>
        <time>2022-04-04T10:47:48Z</time>
      </trkpt>
      <trkpt lat="46.71418" lon="5.6209">
        <ele>486</ele>
        <time>2022-04-04T10:47:52Z</time>
      </trkpt>
      <trkpt lat="46.71387" lon="5.62095">
        <ele>486</ele>
        <time>2022-04-04T10:47:58Z</time>
      </trkpt>
      <trkpt lat="46.71363" lon="5.62096">
        <ele>488</ele>
        <time>2022-04-04T10:48:02Z</time>
      </trkpt>
      <trkpt lat="46.71341" lon="5.62094">
        <ele>489</ele>
        <time>2022-04-04T10:48:06Z</time>
      </trkpt>
      <trkpt lat="46.7117" lon="5.6207">
        <ele>499</ele>
        <time>2022-04-04T10:48:36Z</time>
      </trkpt>
      <trkpt lat="46.71106" lon="5.62064">
        <ele>506</ele>
        <time>2022-04-04T10:48:48Z</time>
      </trkpt>
      <trkpt lat="46.71069" lon="5.62064">
        <ele>508</ele>
        <time>2022-04-04T10:48:54Z</time>
      </trkpt>
      <trkpt lat="46.71039" lon="5.62067">
        <ele>507</ele>
        <time>2022-04-04T10:49:00Z</time>
      </trkpt>
      <trkpt lat="46.70986" lon="5.62082">
        <ele>507</ele>
        <time>2022-04-04T10:49:09Z</time>
      </trkpt>
      <trkpt lat="46.7094" lon="5.62091">
        <ele>504</ele>
        <time>2022-04-04T10:49:17Z</time>
      </trkpt>
      <trkpt lat="46.70917" lon="5.62092">
        <ele>502</ele>
        <time>2022-04-04T10:49:22Z</time>
      </trkpt>
      <trkpt lat="46.70832" lon="5.62084">
        <ele>502</ele>
        <time>2022-04-04T10:49:37Z</time>
      </trkpt>
      <trkpt lat="46.70814" lon="5.62079">
        <ele>505</ele>
        <time>2022-04-04T10:49:40Z</time>
      </trkpt>
      <trkpt lat="46.70799" lon="5.62072">
        <ele>506</ele>
        <time>2022-04-04T10:49:43Z</time>
      </trkpt>
      <trkpt lat="46.70784" lon="5.62096">
        <ele>508</ele>
        <time>2022-04-04T10:49:47Z</time>
      </trkpt>
      <trkpt lat="46.70761" lon="5.6212">
        <ele>507</ele>
        <time>2022-04-04T10:49:52Z</time>
      </trkpt>
      <trkpt lat="46.70732" lon="5.62144">
        <ele>506</ele>
        <time>2022-04-04T10:49:58Z</time>
      </trkpt>
      <trkpt lat="46.70696" lon="5.62185">
        <ele>501</ele>
        <time>2022-04-04T10:50:06Z</time>
      </trkpt>
      <trkpt lat="46.70689" lon="5.62191">
        <ele>500</ele>
        <time>2022-04-04T10:50:07Z</time>
      </trkpt>
      <trkpt lat="46.70678" lon="5.62196">
        <ele>499</ele>
        <time>2022-04-04T10:50:09Z</time>
      </trkpt>
      <trkpt lat="46.70664" lon="5.62199">
        <ele>500</ele>
        <time>2022-04-04T10:50:12Z</time>
      </trkpt>
      <trkpt lat="46.70597" lon="5.622">
        <ele>498</ele>
        <time>2022-04-04T10:50:24Z</time>
      </trkpt>
      <trkpt lat="46.70558" lon="5.62206">
        <ele>495</ele>
        <time>2022-04-04T10:50:31Z</time>
      </trkpt>
      <trkpt lat="46.70485" lon="5.62223">
        <ele>487</ele>
        <time>2022-04-04T10:50:44Z</time>
      </trkpt>
      <trkpt lat="46.70462" lon="5.62236">
        <ele>484</ele>
        <time>2022-04-04T10:50:48Z</time>
      </trkpt>
      <trkpt lat="46.70419" lon="5.62268">
        <ele>476</ele>
        <time>2022-04-04T10:50:57Z</time>
      </trkpt>
      <trkpt lat="46.70403" lon="5.62275">
        <ele>474</ele>
        <time>2022-04-04T10:51:00Z</time>
      </trkpt>
      <trkpt lat="46.70336" lon="5.62291">
        <ele>470</ele>
        <time>2022-04-04T10:51:12Z</time>
      </trkpt>
      <trkpt lat="46.7027" lon="5.62314">
        <ele>468</ele>
        <time>2022-04-04T10:51:24Z</time>
      </trkpt>
      <trkpt lat="46.70254" lon="5.62321">
        <ele>467</ele>
        <time>2022-04-04T10:51:27Z</time>
      </trkpt>
      <trkpt lat="46.70183" lon="5.62362">
        <ele>458</ele>
        <time>2022-04-04T10:51:41Z</time>
      </trkpt>
      <trkpt lat="46.70101" lon="5.6239">
        <ele>456</ele>
        <time>2022-04-04T10:51:56Z</time>
      </trkpt>
      <trkpt lat="46.70019" lon="5.62434">
        <ele>449</ele>
        <time>2022-04-04T10:52:11Z</time>
      </trkpt>
      <trkpt lat="46.69964" lon="5.62449">
        <ele>448</ele>
        <time>2022-04-04T10:52:21Z</time>
      </trkpt>
      <trkpt lat="46.69953" lon="5.62455">
        <ele>447</ele>
        <time>2022-04-04T10:52:23Z</time>
      </trkpt>
      <trkpt lat="46.69933" lon="5.62471">
        <ele>444</ele>
        <time>2022-04-04T10:52:27Z</time>
      </trkpt>
      <trkpt lat="46.69908" lon="5.62487">
        <ele>442</ele>
        <time>2022-04-04T10:52:32Z</time>
      </trkpt>
      <trkpt lat="46.69883" lon="5.62502">
        <ele>441</ele>
        <time>2022-04-04T10:52:37Z</time>
      </trkpt>
      <trkpt lat="46.69864" lon="5.6252">
        <ele>440</ele>
        <time>2022-04-04T10:52:41Z</time>
      </trkpt>
      <trkpt lat="46.69828" lon="5.62571">
        <ele>433</ele>
        <time>2022-04-04T10:52:50Z</time>
      </trkpt>
      <trkpt lat="46.69804" lon="5.62597">
        <ele>433</ele>
        <time>2022-04-04T10:52:55Z</time>
      </trkpt>
      <trkpt lat="46.69796" lon="5.62611">
        <ele>432</ele>
        <time>2022-04-04T10:52:57Z</time>
      </trkpt>
      <trkpt lat="46.69773" lon="5.62661">
        <ele>429</ele>
        <time>2022-04-04T10:53:05Z</time>
      </trkpt>
      <trkpt lat="46.69765" lon="5.62691">
        <ele>426</ele>
        <time>2022-04-04T10:53:09Z</time>
      </trkpt>
      <trkpt lat="46.6976" lon="5.6273">
        <ele>422</ele>
        <time>2022-04-04T10:53:13Z</time>
      </trkpt>
      <trkpt lat="46.69757" lon="5.62741">
        <ele>421</ele>
        <time>2022-04-04T10:53:15Z</time>
      </trkpt>
      <trkpt lat="46.69734" lon="5.62789">
        <ele>422</ele>
        <time>2022-04-04T10:53:22Z</time>
      </trkpt>
      <trkpt lat="46.69729" lon="5.62806">
        <ele>422</ele>
        <time>2022-04-04T10:53:24Z</time>
      </trkpt>
      <trkpt lat="46.69728" lon="5.62813">
        <ele>422</ele>
        <time>2022-04-04T10:53:25Z</time>
      </trkpt>
      <trkpt lat="46.69734" lon="5.62843">
        <ele>420</ele>
        <time>2022-04-04T10:53:29Z</time>
      </trkpt>
      <trkpt lat="46.69735" lon="5.62864">
        <ele>422</ele>
        <time>2022-04-04T10:53:32Z</time>
      </trkpt>
      <trkpt lat="46.69728" lon="5.6292">
        <ele>428</ele>
        <time>2022-04-04T10:53:39Z</time>
      </trkpt>
      <trkpt lat="46.6973" lon="5.62923">
        <ele>428</ele>
        <time>2022-04-04T10:53:39Z</time>
      </trkpt>
      <trkpt lat="46.69736" lon="5.62924">
        <ele>425</ele>
        <time>2022-04-04T10:53:40Z</time>
      </trkpt>
      <trkpt lat="46.69742" lon="5.62918">
        <ele>422</ele>
        <time>2022-04-04T10:53:41Z</time>
      </trkpt>
      <trkpt lat="46.69752" lon="5.62886">
        <ele>417</ele>
        <time>2022-04-04T10:53:46Z</time>
      </trkpt>
      <trkpt lat="46.69761" lon="5.62869">
        <ele>415</ele>
        <time>2022-04-04T10:53:48Z</time>
      </trkpt>
      <trkpt lat="46.69775" lon="5.62847">
        <ele>412</ele>
        <time>2022-04-04T10:53:52Z</time>
      </trkpt>
      <trkpt lat="46.69784" lon="5.62842">
        <ele>411</ele>
        <time>2022-04-04T10:53:54Z</time>
      </trkpt>
      <trkpt lat="46.69788" lon="5.62841">
        <ele>410</ele>
        <time>2022-04-04T10:53:54Z</time>
      </trkpt>
      <trkpt lat="46.69805" lon="5.62846">
        <ele>408</ele>
        <time>2022-04-04T10:53:58Z</time>
      </trkpt>
      <trkpt lat="46.69816" lon="5.62846">
        <ele>406</ele>
        <time>2022-04-04T10:53:59Z</time>
      </trkpt>
      <trkpt lat="46.69828" lon="5.6284">
        <ele>404</ele>
        <time>2022-04-04T10:54:02Z</time>
      </trkpt>
      <trkpt lat="46.69837" lon="5.62829">
        <ele>404</ele>
        <time>2022-04-04T10:54:04Z</time>
      </trkpt>
      <trkpt lat="46.69862" lon="5.62786">
        <ele>403</ele>
        <time>2022-04-04T10:54:11Z</time>
      </trkpt>
      <trkpt lat="46.69869" lon="5.62777">
        <ele>403</ele>
        <time>2022-04-04T10:54:12Z</time>
      </trkpt>
      <trkpt lat="46.69892" lon="5.62762">
        <ele>401</ele>
        <time>2022-04-04T10:54:17Z</time>
      </trkpt>
      <trkpt lat="46.69913" lon="5.62758">
        <ele>399</ele>
        <time>2022-04-04T10:54:21Z</time>
      </trkpt>
      <trkpt lat="46.69919" lon="5.62759">
        <ele>398</ele>
        <time>2022-04-04T10:54:22Z</time>
      </trkpt>
      <trkpt lat="46.69955" lon="5.6277">
        <ele>395</ele>
        <time>2022-04-04T10:54:28Z</time>
      </trkpt>
      <trkpt lat="46.69963" lon="5.62771">
        <ele>395</ele>
        <time>2022-04-04T10:54:30Z</time>
      </trkpt>
      <trkpt lat="46.6999" lon="5.62764">
        <ele>394</ele>
        <time>2022-04-04T10:54:35Z</time>
      </trkpt>
      <trkpt lat="46.70034" lon="5.6278">
        <ele>389</ele>
        <time>2022-04-04T10:54:43Z</time>
      </trkpt>
      <trkpt lat="46.70065" lon="5.62779">
        <ele>387</ele>
        <time>2022-04-04T10:54:48Z</time>
      </trkpt>
      <trkpt lat="46.70147" lon="5.62794">
        <ele>383</ele>
        <time>2022-04-04T10:55:03Z</time>
      </trkpt>
      <trkpt lat="46.70204" lon="5.62798">
        <ele>383</ele>
        <time>2022-04-04T10:55:13Z</time>
      </trkpt>
      <trkpt lat="46.70213" lon="5.62799">
        <ele>382</ele>
        <time>2022-04-04T10:55:15Z</time>
      </trkpt>
      <trkpt lat="46.70229" lon="5.62807">
        <ele>381</ele>
        <time>2022-04-04T10:55:18Z</time>
      </trkpt>
      <trkpt lat="46.70256" lon="5.62835">
        <ele>373</ele>
        <time>2022-04-04T10:55:23Z</time>
      </trkpt>
      <trkpt lat="46.70267" lon="5.62845">
        <ele>370</ele>
        <time>2022-04-04T10:55:26Z</time>
      </trkpt>
      <trkpt lat="46.70277" lon="5.62848">
        <ele>369</ele>
        <time>2022-04-04T10:55:28Z</time>
      </trkpt>
      <trkpt lat="46.70313" lon="5.6285">
        <ele>366</ele>
        <time>2022-04-04T10:55:34Z</time>
      </trkpt>
      <trkpt lat="46.70327" lon="5.62848">
        <ele>366</ele>
        <time>2022-04-04T10:55:37Z</time>
      </trkpt>
      <trkpt lat="46.7034" lon="5.62842">
        <ele>365</ele>
        <time>2022-04-04T10:55:39Z</time>
      </trkpt>
      <trkpt lat="46.70354" lon="5.62832">
        <ele>364</ele>
        <time>2022-04-04T10:55:42Z</time>
      </trkpt>
      <trkpt lat="46.70364" lon="5.62819">
        <ele>365</ele>
        <time>2022-04-04T10:55:44Z</time>
      </trkpt>
      <trkpt lat="46.70378" lon="5.62798">
        <ele>367</ele>
        <time>2022-04-04T10:55:48Z</time>
      </trkpt>
      <trkpt lat="46.70385" lon="5.62782">
        <ele>370</ele>
        <time>2022-04-04T10:55:50Z</time>
      </trkpt>
      <trkpt lat="46.70391" lon="5.62759">
        <ele>375</ele>
        <time>2022-04-04T10:55:53Z</time>
      </trkpt>
      <trkpt lat="46.70398" lon="5.62752">
        <ele>375</ele>
        <time>2022-04-04T10:55:55Z</time>
      </trkpt>
      <trkpt lat="46.70406" lon="5.6275">
        <ele>374</ele>
        <time>2022-04-04T10:55:56Z</time>
      </trkpt>
      <trkpt lat="46.70416" lon="5.62751">
        <ele>372</ele>
        <time>2022-04-04T10:55:58Z</time>
      </trkpt>
      <trkpt lat="46.70426" lon="5.62756">
        <ele>370</ele>
        <time>2022-04-04T10:56:00Z</time>
      </trkpt>
      <trkpt lat="46.70458" lon="5.62782">
        <ele>363</ele>
        <time>2022-04-04T10:56:06Z</time>
      </trkpt>
      <trkpt lat="46.70491" lon="5.62804">
        <ele>356</ele>
        <time>2022-04-04T10:56:13Z</time>
      </trkpt>
      <trkpt lat="46.7052" lon="5.6283">
        <ele>350</ele>
        <time>2022-04-04T10:56:19Z</time>
      </trkpt>
      <trkpt lat="46.70541" lon="5.62859">
        <ele>346</ele>
        <time>2022-04-04T10:56:24Z</time>
      </trkpt>
      <trkpt lat="46.7056" lon="5.62896">
        <ele>340</ele>
        <time>2022-04-04T10:56:29Z</time>
      </trkpt>
      <trkpt lat="46.7057" lon="5.62907">
        <ele>338</ele>
        <time>2022-04-04T10:56:32Z</time>
      </trkpt>
      <trkpt lat="46.70579" lon="5.62913">
        <ele>338</ele>
        <time>2022-04-04T10:56:33Z</time>
      </trkpt>
      <trkpt lat="46.70612" lon="5.62919">
        <ele>335</ele>
        <time>2022-04-04T10:56:39Z</time>
      </trkpt>
      <trkpt lat="46.70635" lon="5.62917">
        <ele>335</ele>
        <time>2022-04-04T10:56:43Z</time>
      </trkpt>
      <trkpt lat="46.7067" lon="5.62919">
        <ele>333</ele>
        <time>2022-04-04T10:56:50Z</time>
      </trkpt>
      <trkpt lat="46.70715" lon="5.62911">
        <ele>332</ele>
        <time>2022-04-04T10:56:58Z</time>
      </trkpt>
      <trkpt lat="46.70747" lon="5.62896">
        <ele>333</ele>
        <time>2022-04-04T10:57:04Z</time>
      </trkpt>
      <trkpt lat="46.70753" lon="5.62897">
        <ele>333</ele>
        <time>2022-04-04T10:57:05Z</time>
      </trkpt>
      <trkpt lat="46.70759" lon="5.629">
        <ele>332</ele>
        <time>2022-04-04T10:57:06Z</time>
      </trkpt>
      <trkpt lat="46.70771" lon="5.62918">
        <ele>329</ele>
        <time>2022-04-04T10:57:09Z</time>
      </trkpt>
      <trkpt lat="46.70776" lon="5.62924">
        <ele>328</ele>
        <time>2022-04-04T10:57:10Z</time>
      </trkpt>
      <trkpt lat="46.70784" lon="5.62928">
        <ele>328</ele>
        <time>2022-04-04T10:57:12Z</time>
      </trkpt>
      <trkpt lat="46.7083" lon="5.62938">
        <ele>328</ele>
        <time>2022-04-04T10:57:20Z</time>
      </trkpt>
      <trkpt lat="46.70853" lon="5.62948">
        <ele>328</ele>
        <time>2022-04-04T10:57:24Z</time>
      </trkpt>
      <trkpt lat="46.70858" lon="5.62953">
        <ele>328</ele>
        <time>2022-04-04T10:57:25Z</time>
      </trkpt>
      <trkpt lat="46.70864" lon="5.62962">
        <ele>327</ele>
        <time>2022-04-04T10:57:27Z</time>
      </trkpt>
      <trkpt lat="46.70884" lon="5.63001">
        <ele>322</ele>
        <time>2022-04-04T10:57:33Z</time>
      </trkpt>
      <trkpt lat="46.70904" lon="5.63032">
        <ele>318</ele>
        <time>2022-04-04T10:57:38Z</time>
      </trkpt>
      <trkpt lat="46.70919" lon="5.63047">
        <ele>316</ele>
        <time>2022-04-04T10:57:41Z</time>
      </trkpt>
      <trkpt lat="46.70934" lon="5.63056">
        <ele>316</ele>
        <time>2022-04-04T10:57:44Z</time>
      </trkpt>
      <trkpt lat="46.7095" lon="5.63063">
        <ele>315</ele>
        <time>2022-04-04T10:57:47Z</time>
      </trkpt>
      <trkpt lat="46.70961" lon="5.63066">
        <ele>316</ele>
        <time>2022-04-04T10:57:49Z</time>
      </trkpt>
      <trkpt lat="46.70986" lon="5.63067">
        <ele>318</ele>
        <time>2022-04-04T10:57:53Z</time>
      </trkpt>
      <trkpt lat="46.71019" lon="5.63089">
        <ele>313</ele>
        <time>2022-04-04T10:58:00Z</time>
      </trkpt>
      <trkpt lat="46.71077" lon="5.63116">
        <ele>307</ele>
        <time>2022-04-04T10:58:11Z</time>
      </trkpt>
      <trkpt lat="46.71103" lon="5.6313">
        <ele>305</ele>
        <time>2022-04-04T10:58:16Z</time>
      </trkpt>
      <trkpt lat="46.71151" lon="5.63172">
        <ele>300</ele>
        <time>2022-04-04T10:58:26Z</time>
      </trkpt>
      <trkpt lat="46.71191" lon="5.6321">
        <ele>296</ele>
        <time>2022-04-04T10:58:34Z</time>
      </trkpt>
      <trkpt lat="46.712" lon="5.63222">
        <ele>294</ele>
        <time>2022-04-04T10:58:36Z</time>
      </trkpt>
      <trkpt lat="46.71205" lon="5.63238">
        <ele>293</ele>
        <time>2022-04-04T10:58:38Z</time>
      </trkpt>
      <trkpt lat="46.71207" lon="5.6326">
        <ele>292</ele>
        <time>2022-04-04T10:58:41Z</time>
      </trkpt>
      <trkpt lat="46.71207" lon="5.63299">
        <ele>294</ele>
        <time>2022-04-04T10:58:46Z</time>
      </trkpt>
      <trkpt lat="46.71204" lon="5.63326">
        <ele>296</ele>
        <time>2022-04-04T10:58:49Z</time>
      </trkpt>
      <trkpt lat="46.71206" lon="5.63358">
        <ele>297</ele>
        <time>2022-04-04T10:58:53Z</time>
      </trkpt>
      <trkpt lat="46.7122" lon="5.63402">
        <ele>296</ele>
        <time>2022-04-04T10:58:59Z</time>
      </trkpt>
      <trkpt lat="46.71233" lon="5.6343">
        <ele>293</ele>
        <time>2022-04-04T10:59:03Z</time>
      </trkpt>
      <trkpt lat="46.71242" lon="5.63454">
        <ele>291</ele>
        <time>2022-04-04T10:59:07Z</time>
      </trkpt>
      <trkpt lat="46.71244" lon="5.63477">
        <ele>290</ele>
        <time>2022-04-04T10:59:09Z</time>
      </trkpt>
      <trkpt lat="46.71231" lon="5.63576">
        <ele>294</ele>
        <time>2022-04-04T10:59:22Z</time>
      </trkpt>
      <trkpt lat="46.7121" lon="5.63679">
        <ele>299</ele>
        <time>2022-04-04T10:59:35Z</time>
      </trkpt>
      <trkpt lat="46.71201" lon="5.63745">
        <ele>298</ele>
        <time>2022-04-04T10:59:43Z</time>
      </trkpt>
      <trkpt lat="46.71169" lon="5.63813">
        <ele>298</ele>
        <time>2022-04-04T10:59:53Z</time>
      </trkpt>
      <trkpt lat="46.71136" lon="5.63897">
        <ele>309</ele>
        <time>2022-04-04T11:00:05Z</time>
      </trkpt>
      <trkpt lat="46.71132" lon="5.63914">
        <ele>310</ele>
        <time>2022-04-04T11:00:07Z</time>
      </trkpt>
      <trkpt lat="46.71126" lon="5.63952">
        <ele>312</ele>
        <time>2022-04-04T11:00:12Z</time>
      </trkpt>
      <trkpt lat="46.71125" lon="5.63979">
        <ele>312</ele>
        <time>2022-04-04T11:00:15Z</time>
      </trkpt>
      <trkpt lat="46.71134" lon="5.64109">
        <ele>307</ele>
        <time>2022-04-04T11:00:31Z</time>
      </trkpt>
      <trkpt lat="46.71109" lon="5.64269">
        <ele>311</ele>
        <time>2022-04-04T11:00:51Z</time>
      </trkpt>
      <trkpt lat="46.71098" lon="5.64306">
        <ele>311</ele>
        <time>2022-04-04T11:00:56Z</time>
      </trkpt>
      <trkpt lat="46.71031" lon="5.64421">
        <ele>315</ele>
        <time>2022-04-04T11:01:14Z</time>
      </trkpt>
      <trkpt lat="46.71021" lon="5.64434">
        <ele>316</ele>
        <time>2022-04-04T11:01:17Z</time>
      </trkpt>
      <trkpt lat="46.70947" lon="5.64498">
        <ele>312</ele>
        <time>2022-04-04T11:01:32Z</time>
      </trkpt>
      <trkpt lat="46.70905" lon="5.64522">
        <ele>314</ele>
        <time>2022-04-04T11:01:40Z</time>
      </trkpt>
      <trkpt lat="46.70895" lon="5.64534">
        <ele>314</ele>
        <time>2022-04-04T11:01:42Z</time>
      </trkpt>
      <trkpt lat="46.70873" lon="5.64565">
        <ele>311</ele>
        <time>2022-04-04T11:01:48Z</time>
      </trkpt>
      <trkpt lat="46.70852" lon="5.64588">
        <ele>307</ele>
        <time>2022-04-04T11:01:53Z</time>
      </trkpt>
      <trkpt lat="46.70826" lon="5.64605">
        <ele>309</ele>
        <time>2022-04-04T11:01:58Z</time>
      </trkpt>
      <trkpt lat="46.7079" lon="5.64615">
        <ele>312</ele>
        <time>2022-04-04T11:02:04Z</time>
      </trkpt>
      <trkpt lat="46.70767" lon="5.64625">
        <ele>312</ele>
        <time>2022-04-04T11:02:08Z</time>
      </trkpt>
      <trkpt lat="46.70779" lon="5.64686">
        <ele>303</ele>
        <time>2022-04-04T11:02:16Z</time>
      </trkpt>
      <trkpt lat="46.70782" lon="5.64699">
        <ele>304</ele>
        <time>2022-04-04T11:02:18Z</time>
      </trkpt>
      <trkpt lat="46.7078" lon="5.64732">
        <ele>305</ele>
        <time>2022-04-04T11:02:22Z</time>
      </trkpt>
      <trkpt lat="46.70781" lon="5.64744">
        <ele>306</ele>
        <time>2022-04-04T11:02:23Z</time>
      </trkpt>
      <trkpt lat="46.70789" lon="5.64754">
        <ele>308</ele>
        <time>2022-04-04T11:02:25Z</time>
      </trkpt>
      <trkpt lat="46.70795" lon="5.64759">
        <ele>309</ele>
        <time>2022-04-04T11:02:26Z</time>
      </trkpt>
      <trkpt lat="46.70801" lon="5.64761">
        <ele>310</ele>
        <time>2022-04-04T11:02:28Z</time>
      </trkpt>
      <trkpt lat="46.70807" lon="5.64759">
        <ele>310</ele>
        <time>2022-04-04T11:02:29Z</time>
      </trkpt>
      <trkpt lat="46.70842" lon="5.6474">
        <ele>311</ele>
        <time>2022-04-04T11:02:35Z</time>
      </trkpt>
      <trkpt lat="46.70916" lon="5.64705">
        <ele>312</ele>
        <time>2022-04-04T11:02:49Z</time>
      </trkpt>
      <trkpt lat="46.70926" lon="5.64697">
        <ele>312</ele>
        <time>2022-04-04T11:02:51Z</time>
      </trkpt>
      <trkpt lat="46.70931" lon="5.64697">
        <ele>313</ele>
        <time>2022-04-04T11:02:52Z</time>
      </trkpt>
      <trkpt lat="46.70968" lon="5.6467">
        <ele>314</ele>
        <time>2022-04-04T11:02:59Z</time>
      </trkpt>
      <trkpt lat="46.7099" lon="5.64643">
        <ele>314</ele>
        <time>2022-04-04T11:03:05Z</time>
      </trkpt>
      <trkpt lat="46.70999" lon="5.64625">
        <ele>313</ele>
        <time>2022-04-04T11:03:07Z</time>
      </trkpt>
      <trkpt lat="46.71006" lon="5.64596">
        <ele>311</ele>
        <time>2022-04-04T11:03:11Z</time>
      </trkpt>
      <trkpt lat="46.71015" lon="5.64577">
        <ele>311</ele>
        <time>2022-04-04T11:03:14Z</time>
      </trkpt>
      <trkpt lat="46.71062" lon="5.64513">
        <ele>310</ele>
        <time>2022-04-04T11:03:25Z</time>
      </trkpt>
      <trkpt lat="46.71113" lon="5.64449">
        <ele>314</ele>
        <time>2022-04-04T11:03:37Z</time>
      </trkpt>
      <trkpt lat="46.71129" lon="5.64426">
        <ele>313</ele>
        <time>2022-04-04T11:03:41Z</time>
      </trkpt>
      <trkpt lat="46.71159" lon="5.64369">
        <ele>312</ele>
        <time>2022-04-04T11:03:50Z</time>
      </trkpt>
      <trkpt lat="46.71181" lon="5.6431">
        <ele>314</ele>
        <time>2022-04-04T11:03:58Z</time>
      </trkpt>
      <trkpt lat="46.71193" lon="5.64248">
        <ele>312</ele>
        <time>2022-04-04T11:04:06Z</time>
      </trkpt>
      <trkpt lat="46.71196" lon="5.64157">
        <ele>308</ele>
        <time>2022-04-04T11:04:17Z</time>
      </trkpt>
      <trkpt lat="46.71214" lon="5.64005">
        <ele>304</ele>
        <time>2022-04-04T11:04:36Z</time>
      </trkpt>
      <trkpt lat="46.71225" lon="5.63938">
        <ele>301</ele>
        <time>2022-04-04T11:04:44Z</time>
      </trkpt>
      <trkpt lat="46.71239" lon="5.63867">
        <ele>300</ele>
        <time>2022-04-04T11:04:53Z</time>
      </trkpt>
      <trkpt lat="46.71265" lon="5.63771">
        <ele>303</ele>
        <time>2022-04-04T11:05:06Z</time>
      </trkpt>
      <trkpt lat="46.71288" lon="5.63644">
        <ele>297</ele>
        <time>2022-04-04T11:05:22Z</time>
      </trkpt>
      <trkpt lat="46.71298" lon="5.63606">
        <ele>296</ele>
        <time>2022-04-04T11:05:27Z</time>
      </trkpt>
      <trkpt lat="46.71314" lon="5.63571">
        <ele>295</ele>
        <time>2022-04-04T11:05:32Z</time>
      </trkpt>
      <trkpt lat="46.71382" lon="5.63457">
        <ele>293</ele>
        <time>2022-04-04T11:05:51Z</time>
      </trkpt>
      <trkpt lat="46.71417" lon="5.63401">
        <ele>291</ele>
        <time>2022-04-04T11:06:00Z</time>
      </trkpt>
      <trkpt lat="46.71455" lon="5.63344">
        <ele>294</ele>
        <time>2022-04-04T11:06:09Z</time>
      </trkpt>
      <trkpt lat="46.71488" lon="5.63298">
        <ele>294</ele>
        <time>2022-04-04T11:06:18Z</time>
      </trkpt>
      <trkpt lat="46.71526" lon="5.63256">
        <ele>293</ele>
        <time>2022-04-04T11:06:26Z</time>
      </trkpt>
      <trkpt lat="46.71555" lon="5.6323">
        <ele>293</ele>
        <time>2022-04-04T11:06:32Z</time>
      </trkpt>
      <trkpt lat="46.71643" lon="5.63178">
        <ele>291</ele>
        <time>2022-04-04T11:06:49Z</time>
      </trkpt>
      <trkpt lat="46.71663" lon="5.6317">
        <ele>290</ele>
        <time>2022-04-04T11:06:53Z</time>
      </trkpt>
      <trkpt lat="46.7168" lon="5.63167">
        <ele>290</ele>
        <time>2022-04-04T11:06:56Z</time>
      </trkpt>
      <trkpt lat="46.71693" lon="5.63167">
        <ele>290</ele>
        <time>2022-04-04T11:06:58Z</time>
      </trkpt>
      <trkpt lat="46.71712" lon="5.63173">
        <ele>291</ele>
        <time>2022-04-04T11:07:02Z</time>
      </trkpt>
      <trkpt lat="46.7173" lon="5.63183">
        <ele>291</ele>
        <time>2022-04-04T11:07:05Z</time>
      </trkpt>
      <trkpt lat="46.71748" lon="5.632">
        <ele>291</ele>
        <time>2022-04-04T11:07:09Z</time>
      </trkpt>
      <trkpt lat="46.71786" lon="5.63247">
        <ele>291</ele>
        <time>2022-04-04T11:07:18Z</time>
      </trkpt>
      <trkpt lat="46.71804" lon="5.63261">
        <ele>292</ele>
        <time>2022-04-04T11:07:21Z</time>
      </trkpt>
      <trkpt lat="46.71832" lon="5.63278">
        <ele>292</ele>
        <time>2022-04-04T11:07:27Z</time>
      </trkpt>
      <trkpt lat="46.71859" lon="5.63289">
        <ele>293</ele>
        <time>2022-04-04T11:07:32Z</time>
      </trkpt>
      <trkpt lat="46.71877" lon="5.63292">
        <ele>293</ele>
        <time>2022-04-04T11:07:35Z</time>
      </trkpt>
      <trkpt lat="46.71927" lon="5.63291">
        <ele>293</ele>
        <time>2022-04-04T11:07:44Z</time>
      </trkpt>
      <trkpt lat="46.71943" lon="5.63294">
        <ele>293</ele>
        <time>2022-04-04T11:07:47Z</time>
      </trkpt>
      <trkpt lat="46.71961" lon="5.63302">
        <ele>293</ele>
        <time>2022-04-04T11:07:50Z</time>
      </trkpt>
      <trkpt lat="46.71984" lon="5.63316">
        <ele>292</ele>
        <time>2022-04-04T11:07:54Z</time>
      </trkpt>
      <trkpt lat="46.7204" lon="5.6337">
        <ele>297</ele>
        <time>2022-04-04T11:08:06Z</time>
      </trkpt>
      <trkpt lat="46.72057" lon="5.63381">
        <ele>298</ele>
        <time>2022-04-04T11:08:10Z</time>
      </trkpt>
      <trkpt lat="46.72084" lon="5.63393">
        <ele>298</ele>
        <time>2022-04-04T11:08:15Z</time>
      </trkpt>
      <trkpt lat="46.72124" lon="5.63403">
        <ele>295</ele>
        <time>2022-04-04T11:08:22Z</time>
      </trkpt>
      <trkpt lat="46.72159" lon="5.63416">
        <ele>292</ele>
        <time>2022-04-04T11:08:28Z</time>
      </trkpt>
      <trkpt lat="46.72202" lon="5.63447">
        <ele>293</ele>
        <time>2022-04-04T11:08:37Z</time>
      </trkpt>
      <trkpt lat="46.72314" lon="5.63565">
        <ele>294</ele>
        <time>2022-04-04T11:09:01Z</time>
      </trkpt>
      <trkpt lat="46.7235" lon="5.63616">
        <ele>295</ele>
        <time>2022-04-04T11:09:10Z</time>
      </trkpt>
      <trkpt lat="46.72373" lon="5.6364">
        <ele>294</ele>
        <time>2022-04-04T11:09:15Z</time>
      </trkpt>
      <trkpt lat="46.72435" lon="5.63699">
        <ele>294</ele>
        <time>2022-04-04T11:09:29Z</time>
      </trkpt>
      <trkpt lat="46.7247" lon="5.63727">
        <ele>294</ele>
        <time>2022-04-04T11:09:36Z</time>
      </trkpt>
      <trkpt lat="46.72488" lon="5.63737">
        <ele>292</ele>
        <time>2022-04-04T11:09:39Z</time>
      </trkpt>
      <trkpt lat="46.72541" lon="5.63756">
        <ele>288</ele>
        <time>2022-04-04T11:09:49Z</time>
      </trkpt>
      <trkpt lat="46.72633" lon="5.63794">
        <ele>286</ele>
        <time>2022-04-04T11:10:06Z</time>
      </trkpt>
      <trkpt lat="46.72665" lon="5.63804">
        <ele>285</ele>
        <time>2022-04-04T11:10:12Z</time>
      </trkpt>
      <trkpt lat="46.72684" lon="5.63807">
        <ele>285</ele>
        <time>2022-04-04T11:10:15Z</time>
      </trkpt>
      <trkpt lat="46.72704" lon="5.63806">
        <ele>285</ele>
        <time>2022-04-04T11:10:19Z</time>
      </trkpt>
      <trkpt lat="46.7274" lon="5.63797">
        <ele>285</ele>
        <time>2022-04-04T11:10:25Z</time>
      </trkpt>
      <trkpt lat="46.72801" lon="5.63777">
        <ele>285</ele>
        <time>2022-04-04T11:10:36Z</time>
      </trkpt>
      <trkpt lat="46.72831" lon="5.63764">
        <ele>285</ele>
        <time>2022-04-04T11:10:42Z</time>
      </trkpt>
      <trkpt lat="46.7285" lon="5.63754">
        <ele>288</ele>
        <time>2022-04-04T11:10:45Z</time>
      </trkpt>
      <trkpt lat="46.72876" lon="5.6373">
        <ele>289</ele>
        <time>2022-04-04T11:10:51Z</time>
      </trkpt>
      <trkpt lat="46.72915" lon="5.63681">
        <ele>286</ele>
        <time>2022-04-04T11:11:00Z</time>
      </trkpt>
      <trkpt lat="46.72928" lon="5.63668">
        <ele>285</ele>
        <time>2022-04-04T11:11:03Z</time>
      </trkpt>
      <trkpt lat="46.72948" lon="5.63653">
        <ele>284</ele>
        <time>2022-04-04T11:11:07Z</time>
      </trkpt>
      <trkpt lat="46.72969" lon="5.63642">
        <ele>283</ele>
        <time>2022-04-04T11:11:11Z</time>
      </trkpt>
      <trkpt lat="46.72992" lon="5.63634">
        <ele>282</ele>
        <time>2022-04-04T11:11:15Z</time>
      </trkpt>
      <trkpt lat="46.73011" lon="5.63631">
        <ele>281</ele>
        <time>2022-04-04T11:11:18Z</time>
      </trkpt>
      <trkpt lat="46.73028" lon="5.63632">
        <ele>281</ele>
        <time>2022-04-04T11:11:21Z</time>
      </trkpt>
      <trkpt lat="46.73098" lon="5.63651">
        <ele>281</ele>
        <time>2022-04-04T11:11:34Z</time>
      </trkpt>
      <trkpt lat="46.73117" lon="5.63653">
        <ele>281</ele>
        <time>2022-04-04T11:11:38Z</time>
      </trkpt>
      <trkpt lat="46.73248" lon="5.63654">
        <ele>278</ele>
        <time>2022-04-04T11:12:01Z</time>
      </trkpt>
      <trkpt lat="46.73267" lon="5.63652">
        <ele>278</ele>
        <time>2022-04-04T11:12:04Z</time>
      </trkpt>
      <trkpt lat="46.73284" lon="5.63647">
        <ele>278</ele>
        <time>2022-04-04T11:12:07Z</time>
      </trkpt>
      <trkpt lat="46.73305" lon="5.63635">
        <ele>277</ele>
        <time>2022-04-04T11:12:11Z</time>
      </trkpt>
      <trkpt lat="46.73335" lon="5.63608">
        <ele>275</ele>
        <time>2022-04-04T11:12:18Z</time>
      </trkpt>
      <trkpt lat="46.73366" lon="5.63566">
        <ele>274</ele>
        <time>2022-04-04T11:12:25Z</time>
      </trkpt>
      <trkpt lat="46.73388" lon="5.63546">
        <ele>275</ele>
        <time>2022-04-04T11:12:30Z</time>
      </trkpt>
      <trkpt lat="46.73485" lon="5.63477">
        <ele>275</ele>
        <time>2022-04-04T11:12:49Z</time>
      </trkpt>
      <trkpt lat="46.73509" lon="5.63464">
        <ele>275</ele>
        <time>2022-04-04T11:12:54Z</time>
      </trkpt>
      <trkpt lat="46.73525" lon="5.63459">
        <ele>275</ele>
        <time>2022-04-04T11:12:56Z</time>
      </trkpt>
      <trkpt lat="46.73562" lon="5.63458">
        <ele>275</ele>
        <time>2022-04-04T11:13:03Z</time>
      </trkpt>
      <trkpt lat="46.7358" lon="5.63462">
        <ele>275</ele>
        <time>2022-04-04T11:13:06Z</time>
      </trkpt>
      <trkpt lat="46.73614" lon="5.63477">
        <ele>273</ele>
        <time>2022-04-04T11:13:13Z</time>
      </trkpt>
      <trkpt lat="46.73635" lon="5.63482">
        <ele>273</ele>
        <time>2022-04-04T11:13:16Z</time>
      </trkpt>
      <trkpt lat="46.73653" lon="5.63482">
        <ele>272</ele>
        <time>2022-04-04T11:13:20Z</time>
      </trkpt>
      <trkpt lat="46.7369" lon="5.63484">
        <ele>272</ele>
        <time>2022-04-04T11:13:26Z</time>
      </trkpt>
      <trkpt lat="46.73687" lon="5.6353">
        <ele>272</ele>
        <time>2022-04-04T11:13:32Z</time>
      </trkpt>
      <trkpt lat="46.73693" lon="5.63624">
        <ele>274</ele>
        <time>2022-04-04T11:13:43Z</time>
      </trkpt>
      <trkpt lat="46.73696" lon="5.63725">
        <ele>278</ele>
        <time>2022-04-04T11:13:56Z</time>
      </trkpt>
      <trkpt lat="46.73695" lon="5.63773">
        <ele>280</ele>
        <time>2022-04-04T11:14:01Z</time>
      </trkpt>
      <trkpt lat="46.73683" lon="5.6386">
        <ele>281</ele>
        <time>2022-04-04T11:14:12Z</time>
      </trkpt>
      <trkpt lat="46.73674" lon="5.6399">
        <ele>286</ele>
        <time>2022-04-04T11:14:28Z</time>
      </trkpt>
      <trkpt lat="46.7366" lon="5.64057">
        <ele>291</ele>
        <time>2022-04-04T11:14:37Z</time>
      </trkpt>
      <trkpt lat="46.73652" lon="5.64082">
        <ele>293</ele>
        <time>2022-04-04T11:14:40Z</time>
      </trkpt>
      <trkpt lat="46.73644" lon="5.641">
        <ele>295</ele>
        <time>2022-04-04T11:14:43Z</time>
      </trkpt>
      <trkpt lat="46.73622" lon="5.64138">
        <ele>296</ele>
        <time>2022-04-04T11:14:49Z</time>
      </trkpt>
      <trkpt lat="46.73609" lon="5.64185">
        <ele>302</ele>
        <time>2022-04-04T11:14:55Z</time>
      </trkpt>
      <trkpt lat="46.73604" lon="5.64198">
        <ele>304</ele>
        <time>2022-04-04T11:14:57Z</time>
      </trkpt>
      <trkpt lat="46.73596" lon="5.64208">
        <ele>303</ele>
        <time>2022-04-04T11:14:59Z</time>
      </trkpt>
      <trkpt lat="46.73585" lon="5.64216">
        <ele>301</ele>
        <time>2022-04-04T11:15:01Z</time>
      </trkpt>
      <trkpt lat="46.73568" lon="5.64221">
        <ele>299</ele>
        <time>2022-04-04T11:15:04Z</time>
      </trkpt>
      <trkpt lat="46.73548" lon="5.64231">
        <ele>297</ele>
        <time>2022-04-04T11:15:08Z</time>
      </trkpt>
      <trkpt lat="46.73536" lon="5.64241">
        <ele>296</ele>
        <time>2022-04-04T11:15:10Z</time>
      </trkpt>
      <trkpt lat="46.73523" lon="5.64257">
        <ele>295</ele>
        <time>2022-04-04T11:15:13Z</time>
      </trkpt>
      <trkpt lat="46.73504" lon="5.64284">
        <ele>295</ele>
        <time>2022-04-04T11:15:18Z</time>
      </trkpt>
      <trkpt lat="46.73494" lon="5.64303">
        <ele>297</ele>
        <time>2022-04-04T11:15:21Z</time>
      </trkpt>
      <trkpt lat="46.73489" lon="5.6432">
        <ele>298</ele>
        <time>2022-04-04T11:15:23Z</time>
      </trkpt>
      <trkpt lat="46.73487" lon="5.6434">
        <ele>300</ele>
        <time>2022-04-04T11:15:26Z</time>
      </trkpt>
      <trkpt lat="46.73487" lon="5.64353">
        <ele>299</ele>
        <time>2022-04-04T11:15:27Z</time>
      </trkpt>
      <trkpt lat="46.73491" lon="5.64369">
        <ele>300</ele>
        <time>2022-04-04T11:15:29Z</time>
      </trkpt>
      <trkpt lat="46.73536" lon="5.64514">
        <ele>293</ele>
        <time>2022-04-04T11:15:49Z</time>
      </trkpt>
      <trkpt lat="46.73564" lon="5.64582">
        <ele>292</ele>
        <time>2022-04-04T11:15:58Z</time>
      </trkpt>
      <trkpt lat="46.73599" lon="5.64646">
        <ele>292</ele>
        <time>2022-04-04T11:16:08Z</time>
      </trkpt>
      <trkpt lat="46.73626" lon="5.64689">
        <ele>292</ele>
        <time>2022-04-04T11:16:15Z</time>
      </trkpt>
      <trkpt lat="46.73644" lon="5.64711">
        <ele>293</ele>
        <time>2022-04-04T11:16:20Z</time>
      </trkpt>
      <trkpt lat="46.73701" lon="5.64769">
        <ele>295</ele>
        <time>2022-04-04T11:16:32Z</time>
      </trkpt>
      <trkpt lat="46.7372" lon="5.64791">
        <ele>295</ele>
        <time>2022-04-04T11:16:36Z</time>
      </trkpt>
      <trkpt lat="46.73729" lon="5.64804">
        <ele>295</ele>
        <time>2022-04-04T11:16:39Z</time>
      </trkpt>
      <trkpt lat="46.73735" lon="5.64818">
        <ele>294</ele>
        <time>2022-04-04T11:16:41Z</time>
      </trkpt>
      <trkpt lat="46.73751" lon="5.64882">
        <ele>295</ele>
        <time>2022-04-04T11:16:49Z</time>
      </trkpt>
      <trkpt lat="46.73762" lon="5.64916">
        <ele>296</ele>
        <time>2022-04-04T11:16:53Z</time>
      </trkpt>
      <trkpt lat="46.73778" lon="5.64955">
        <ele>297</ele>
        <time>2022-04-04T11:16:59Z</time>
      </trkpt>
      <trkpt lat="46.73812" lon="5.65009">
        <ele>300</ele>
        <time>2022-04-04T11:17:08Z</time>
      </trkpt>
      <trkpt lat="46.73844" lon="5.65081">
        <ele>301</ele>
        <time>2022-04-04T11:17:18Z</time>
      </trkpt>
      <trkpt lat="46.73861" lon="5.6511">
        <ele>303</ele>
        <time>2022-04-04T11:17:23Z</time>
      </trkpt>
      <trkpt lat="46.73891" lon="5.65149">
        <ele>304</ele>
        <time>2022-04-04T11:17:30Z</time>
      </trkpt>
      <trkpt lat="46.73905" lon="5.65164">
        <ele>304</ele>
        <time>2022-04-04T11:17:33Z</time>
      </trkpt>
      <trkpt lat="46.73916" lon="5.65172">
        <ele>304</ele>
        <time>2022-04-04T11:17:35Z</time>
      </trkpt>
      <trkpt lat="46.7393" lon="5.65174">
        <ele>304</ele>
        <time>2022-04-04T11:17:38Z</time>
      </trkpt>
      <trkpt lat="46.7396" lon="5.65174">
        <ele>306</ele>
        <time>2022-04-04T11:17:43Z</time>
      </trkpt>
      <trkpt lat="46.74016" lon="5.65167">
        <ele>310</ele>
        <time>2022-04-04T11:17:53Z</time>
      </trkpt>
      <trkpt lat="46.74028" lon="5.65169">
        <ele>311</ele>
        <time>2022-04-04T11:17:55Z</time>
      </trkpt>
      <trkpt lat="46.74041" lon="5.65176">
        <ele>312</ele>
        <time>2022-04-04T11:17:58Z</time>
      </trkpt>
      <trkpt lat="46.74135" lon="5.65268">
        <ele>313</ele>
        <time>2022-04-04T11:18:18Z</time>
      </trkpt>
      <trkpt lat="46.74323" lon="5.6549">
        <ele>316</ele>
        <time>2022-04-04T11:19:01Z</time>
      </trkpt>
      <trkpt lat="46.7438" lon="5.65547">
        <ele>318</ele>
        <time>2022-04-04T11:19:13Z</time>
      </trkpt>
      <trkpt lat="46.7445" lon="5.6561">
        <ele>318</ele>
        <time>2022-04-04T11:19:28Z</time>
      </trkpt>
      <trkpt lat="46.74468" lon="5.65629">
        <ele>317</ele>
        <time>2022-04-04T11:19:32Z</time>
      </trkpt>
      <trkpt lat="46.74561" lon="5.65743">
        <ele>313</ele>
        <time>2022-04-04T11:19:54Z</time>
      </trkpt>
      <trkpt lat="46.74571" lon="5.65762">
        <ele>312</ele>
        <time>2022-04-04T11:19:57Z</time>
      </trkpt>
      <trkpt lat="46.74603" lon="5.65838">
        <ele>316</ele>
        <time>2022-04-04T11:20:07Z</time>
      </trkpt>
      <trkpt lat="46.74695" lon="5.66014">
        <ele>319</ele>
        <time>2022-04-04T11:20:34Z</time>
      </trkpt>
      <trkpt lat="46.74719" lon="5.66072">
        <ele>321</ele>
        <time>2022-04-04T11:20:43Z</time>
      </trkpt>
      <trkpt lat="46.74738" lon="5.66109">
        <ele>321</ele>
        <time>2022-04-04T11:20:48Z</time>
      </trkpt>
      <trkpt lat="46.74746" lon="5.66131">
        <ele>320</ele>
        <time>2022-04-04T11:20:51Z</time>
      </trkpt>
      <trkpt lat="46.74752" lon="5.66155">
        <ele>319</ele>
        <time>2022-04-04T11:20:54Z</time>
      </trkpt>
      <trkpt lat="46.74756" lon="5.66188">
        <ele>317</ele>
        <time>2022-04-04T11:20:59Z</time>
      </trkpt>
      <trkpt lat="46.74765" lon="5.66277">
        <ele>316</ele>
        <time>2022-04-04T11:21:09Z</time>
      </trkpt>
      <trkpt lat="46.74771" lon="5.66369">
        <ele>320</ele>
        <time>2022-04-04T11:21:21Z</time>
      </trkpt>
      <trkpt lat="46.74768" lon="5.66429">
        <ele>323</ele>
        <time>2022-04-04T11:21:28Z</time>
      </trkpt>
      <trkpt lat="46.74778" lon="5.66502">
        <ele>326</ele>
        <time>2022-04-04T11:21:37Z</time>
      </trkpt>
      <trkpt lat="46.74784" lon="5.66603">
        <ele>322</ele>
        <time>2022-04-04T11:21:50Z</time>
      </trkpt>
      <trkpt lat="46.74787" lon="5.66626">
        <ele>321</ele>
        <time>2022-04-04T11:21:52Z</time>
      </trkpt>
      <trkpt lat="46.74794" lon="5.66647">
        <ele>321</ele>
        <time>2022-04-04T11:21:55Z</time>
      </trkpt>
      <trkpt lat="46.74804" lon="5.66667">
        <ele>321</ele>
        <time>2022-04-04T11:21:58Z</time>
      </trkpt>
      <trkpt lat="46.74843" lon="5.66731">
        <ele>324</ele>
        <time>2022-04-04T11:22:09Z</time>
      </trkpt>
      <trkpt lat="46.7493" lon="5.66884">
        <ele>330</ele>
        <time>2022-04-04T11:22:33Z</time>
      </trkpt>
      <trkpt lat="46.74956" lon="5.66916">
        <ele>331</ele>
        <time>2022-04-04T11:22:39Z</time>
      </trkpt>
      <trkpt lat="46.74967" lon="5.66927">
        <ele>332</ele>
        <time>2022-04-04T11:22:41Z</time>
      </trkpt>
      <trkpt lat="46.74993" lon="5.66945">
        <ele>334</ele>
        <time>2022-04-04T11:22:46Z</time>
      </trkpt>
      <trkpt lat="46.7511" lon="5.67021">
        <ele>339</ele>
        <time>2022-04-04T11:23:09Z</time>
      </trkpt>
      <trkpt lat="46.75124" lon="5.67028">
        <ele>340</ele>
        <time>2022-04-04T11:23:12Z</time>
      </trkpt>
      <trkpt lat="46.75134" lon="5.67031">
        <ele>341</ele>
        <time>2022-04-04T11:23:14Z</time>
      </trkpt>
      <trkpt lat="46.75152" lon="5.67031">
        <ele>343</ele>
        <time>2022-04-04T11:23:17Z</time>
      </trkpt>
      <trkpt lat="46.75216" lon="5.67017">
        <ele>349</ele>
        <time>2022-04-04T11:23:28Z</time>
      </trkpt>
      <trkpt lat="46.75233" lon="5.67017">
        <ele>350</ele>
        <time>2022-04-04T11:23:31Z</time>
      </trkpt>
      <trkpt lat="46.75281" lon="5.6703">
        <ele>352</ele>
        <time>2022-04-04T11:23:40Z</time>
      </trkpt>
      <trkpt lat="46.75308" lon="5.67043">
        <ele>350</ele>
        <time>2022-04-04T11:23:45Z</time>
      </trkpt>
      <trkpt lat="46.75332" lon="5.67062">
        <ele>346</ele>
        <time>2022-04-04T11:23:50Z</time>
      </trkpt>
      <trkpt lat="46.75466" lon="5.67184">
        <ele>350</ele>
        <time>2022-04-04T11:24:18Z</time>
      </trkpt>
      <trkpt lat="46.75485" lon="5.67199">
        <ele>350</ele>
        <time>2022-04-04T11:24:22Z</time>
      </trkpt>
      <trkpt lat="46.75512" lon="5.67209">
        <ele>352</ele>
        <time>2022-04-04T11:24:27Z</time>
      </trkpt>
      <trkpt lat="46.75597" lon="5.67213">
        <ele>361</ele>
        <time>2022-04-04T11:24:42Z</time>
      </trkpt>
      <trkpt lat="46.75606" lon="5.67218">
        <ele>361</ele>
        <time>2022-04-04T11:24:44Z</time>
      </trkpt>
      <trkpt lat="46.75664" lon="5.67263">
        <ele>362</ele>
        <time>2022-04-04T11:24:55Z</time>
      </trkpt>
      <trkpt lat="46.75684" lon="5.67272">
        <ele>363</ele>
        <time>2022-04-04T11:24:59Z</time>
      </trkpt>
      <trkpt lat="46.75711" lon="5.67279">
        <ele>365</ele>
        <time>2022-04-04T11:25:04Z</time>
      </trkpt>
      <trkpt lat="46.75775" lon="5.67293">
        <ele>369</ele>
        <time>2022-04-04T11:25:16Z</time>
      </trkpt>
      <trkpt lat="46.75904" lon="5.67363">
        <ele>370</ele>
        <time>2022-04-04T11:25:40Z</time>
      </trkpt>
      <trkpt lat="46.75946" lon="5.6739">
        <ele>371</ele>
        <time>2022-04-04T11:25:48Z</time>
      </trkpt>
      <trkpt lat="46.76015" lon="5.67451">
        <ele>373</ele>
        <time>2022-04-04T11:26:03Z</time>
      </trkpt>
      <trkpt lat="46.76025" lon="5.67463">
        <ele>373</ele>
        <time>2022-04-04T11:26:05Z</time>
      </trkpt>
      <trkpt lat="46.76033" lon="5.67476">
        <ele>372</ele>
        <time>2022-04-04T11:26:07Z</time>
      </trkpt>
      <trkpt lat="46.76051" lon="5.6752">
        <ele>369</ele>
        <time>2022-04-04T11:26:13Z</time>
      </trkpt>
      <trkpt lat="46.76062" lon="5.67546">
        <ele>368</ele>
        <time>2022-04-04T11:26:17Z</time>
      </trkpt>
      <trkpt lat="46.76103" lon="5.67622">
        <ele>370</ele>
        <time>2022-04-04T11:26:29Z</time>
      </trkpt>
      <trkpt lat="46.76113" lon="5.67648">
        <ele>370</ele>
        <time>2022-04-04T11:26:32Z</time>
      </trkpt>
      <trkpt lat="46.76121" lon="5.67677">
        <ele>370</ele>
        <time>2022-04-04T11:26:36Z</time>
      </trkpt>
      <trkpt lat="46.76128" lon="5.6771">
        <ele>369</ele>
        <time>2022-04-04T11:26:40Z</time>
      </trkpt>
      <trkpt lat="46.76138" lon="5.67776">
        <ele>369</ele>
        <time>2022-04-04T11:26:49Z</time>
      </trkpt>
      <trkpt lat="46.76162" lon="5.67858">
        <ele>371</ele>
        <time>2022-04-04T11:27:00Z</time>
      </trkpt>
      <trkpt lat="46.76166" lon="5.6789">
        <ele>372</ele>
        <time>2022-04-04T11:27:04Z</time>
      </trkpt>
      <trkpt lat="46.76138" lon="5.68051">
        <ele>366</ele>
        <time>2022-04-04T11:27:24Z</time>
      </trkpt>
      <trkpt lat="46.76138" lon="5.68071">
        <ele>366</ele>
        <time>2022-04-04T11:27:26Z</time>
      </trkpt>
      <trkpt lat="46.76138" lon="5.68089">
        <ele>366</ele>
        <time>2022-04-04T11:27:28Z</time>
      </trkpt>
      <trkpt lat="46.76144" lon="5.68116">
        <ele>365</ele>
        <time>2022-04-04T11:27:32Z</time>
      </trkpt>
      <trkpt lat="46.7617" lon="5.68199">
        <ele>364</ele>
        <time>2022-04-04T11:27:43Z</time>
      </trkpt>
      <trkpt lat="46.76178" lon="5.68223">
        <ele>364</ele>
        <time>2022-04-04T11:27:46Z</time>
      </trkpt>
      <trkpt lat="46.7619" lon="5.68295">
        <ele>365</ele>
        <time>2022-04-04T11:27:55Z</time>
      </trkpt>
      <trkpt lat="46.76201" lon="5.68338">
        <ele>367</ele>
        <time>2022-04-04T11:28:01Z</time>
      </trkpt>
      <trkpt lat="46.762" lon="5.68347">
        <ele>368</ele>
        <time>2022-04-04T11:28:02Z</time>
      </trkpt>
      <trkpt lat="46.76191" lon="5.68374">
        <ele>368</ele>
        <time>2022-04-04T11:28:06Z</time>
      </trkpt>
      <trkpt lat="46.76183" lon="5.68391">
        <ele>367</ele>
        <time>2022-04-04T11:28:08Z</time>
      </trkpt>
      <trkpt lat="46.7615" lon="5.68426">
        <ele>364</ele>
        <time>2022-04-04T11:28:15Z</time>
      </trkpt>
      <trkpt lat="46.76145" lon="5.68435">
        <ele>364</ele>
        <time>2022-04-04T11:28:17Z</time>
      </trkpt>
      <trkpt lat="46.76142" lon="5.68447">
        <ele>364</ele>
        <time>2022-04-04T11:28:18Z</time>
      </trkpt>
      <trkpt lat="46.7614" lon="5.68467">
        <ele>365</ele>
        <time>2022-04-04T11:28:21Z</time>
      </trkpt>
      <trkpt lat="46.7614" lon="5.68486">
        <ele>366</ele>
        <time>2022-04-04T11:28:23Z</time>
      </trkpt>
      <trkpt lat="46.76147" lon="5.68519">
        <ele>369</ele>
        <time>2022-04-04T11:28:27Z</time>
      </trkpt>
      <trkpt lat="46.76162" lon="5.68574">
        <ele>373</ele>
        <time>2022-04-04T11:28:35Z</time>
      </trkpt>
      <trkpt lat="46.76165" lon="5.68592">
        <ele>374</ele>
        <time>2022-04-04T11:28:37Z</time>
      </trkpt>
      <trkpt lat="46.76166" lon="5.68608">
        <ele>374</ele>
        <time>2022-04-04T11:28:39Z</time>
      </trkpt>
      <trkpt lat="46.76159" lon="5.68685">
        <ele>374</ele>
        <time>2022-04-04T11:28:48Z</time>
      </trkpt>
      <trkpt lat="46.76159" lon="5.68714">
        <ele>375</ele>
        <time>2022-04-04T11:28:52Z</time>
      </trkpt>
      <trkpt lat="46.76144" lon="5.68809">
        <ele>376</ele>
        <time>2022-04-04T11:29:04Z</time>
      </trkpt>
      <trkpt lat="46.76142" lon="5.68827">
        <ele>376</ele>
        <time>2022-04-04T11:29:06Z</time>
      </trkpt>
      <trkpt lat="46.76143" lon="5.6886">
        <ele>377</ele>
        <time>2022-04-04T11:29:10Z</time>
      </trkpt>
      <trkpt lat="46.76148" lon="5.68885">
        <ele>377</ele>
        <time>2022-04-04T11:29:13Z</time>
      </trkpt>
      <trkpt lat="46.76154" lon="5.68913">
        <ele>378</ele>
        <time>2022-04-04T11:29:17Z</time>
      </trkpt>
      <trkpt lat="46.76154" lon="5.68956">
        <ele>387</ele>
        <time>2022-04-04T11:29:22Z</time>
      </trkpt>
      <trkpt lat="46.76157" lon="5.68973">
        <ele>391</ele>
        <time>2022-04-04T11:29:24Z</time>
      </trkpt>
      <trkpt lat="46.76163" lon="5.68983">
        <ele>394</ele>
        <time>2022-04-04T11:29:26Z</time>
      </trkpt>
      <trkpt lat="46.76271" lon="5.69073">
        <ele>406</ele>
        <time>2022-04-04T11:29:48Z</time>
      </trkpt>
      <trkpt lat="46.76293" lon="5.69097">
        <ele>410</ele>
        <time>2022-04-04T11:29:53Z</time>
      </trkpt>
      <trkpt lat="46.76319" lon="5.69133">
        <ele>416</ele>
        <time>2022-04-04T11:29:59Z</time>
      </trkpt>
      <trkpt lat="46.76392" lon="5.69215">
        <ele>430</ele>
        <time>2022-04-04T11:30:15Z</time>
      </trkpt>
      <trkpt lat="46.76491" lon="5.69305">
        <ele>450</ele>
        <time>2022-04-04T11:30:36Z</time>
      </trkpt>
      <trkpt lat="46.76503" lon="5.69314">
        <ele>452</ele>
        <time>2022-04-04T11:30:39Z</time>
      </trkpt>
      <trkpt lat="46.76537" lon="5.69332">
        <ele>467</ele>
        <time>2022-04-04T11:30:45Z</time>
      </trkpt>
      <trkpt lat="46.76543" lon="5.69331">
        <ele>468</ele>
        <time>2022-04-04T11:30:46Z</time>
      </trkpt>
      <trkpt lat="46.76548" lon="5.69326">
        <ele>468</ele>
        <time>2022-04-04T11:30:47Z</time>
      </trkpt>
      <trkpt lat="46.76558" lon="5.69302">
        <ele>465</ele>
        <time>2022-04-04T11:30:51Z</time>
      </trkpt>
      <trkpt lat="46.7657" lon="5.69268">
        <ele>463</ele>
        <time>2022-04-04T11:30:55Z</time>
      </trkpt>
      <trkpt lat="46.76573" lon="5.69253">
        <ele>462</ele>
        <time>2022-04-04T11:30:57Z</time>
      </trkpt>
      <trkpt lat="46.76575" lon="5.69235">
        <ele>466</ele>
        <time>2022-04-04T11:30:59Z</time>
      </trkpt>
      <trkpt lat="46.76575" lon="5.69207">
        <ele>473</ele>
        <time>2022-04-04T11:31:03Z</time>
      </trkpt>
      <trkpt lat="46.76572" lon="5.69184">
        <ele>476</ele>
        <time>2022-04-04T11:31:06Z</time>
      </trkpt>
      <trkpt lat="46.76554" lon="5.69138">
        <ele>472</ele>
        <time>2022-04-04T11:31:12Z</time>
      </trkpt>
      <trkpt lat="46.76517" lon="5.69071">
        <ele>469</ele>
        <time>2022-04-04T11:31:23Z</time>
      </trkpt>
      <trkpt lat="46.76477" lon="5.69007">
        <ele>472</ele>
        <time>2022-04-04T11:31:33Z</time>
      </trkpt>
      <trkpt lat="46.76435" lon="5.68919">
        <ele>482</ele>
        <time>2022-04-04T11:31:46Z</time>
      </trkpt>
      <trkpt lat="46.7641" lon="5.68877">
        <ele>487</ele>
        <time>2022-04-04T11:31:53Z</time>
      </trkpt>
      <trkpt lat="46.7638" lon="5.68835">
        <ele>487</ele>
        <time>2022-04-04T11:32:00Z</time>
      </trkpt>
      <trkpt lat="46.76359" lon="5.688">
        <ele>484</ele>
        <time>2022-04-04T11:32:06Z</time>
      </trkpt>
      <trkpt lat="46.76326" lon="5.68708">
        <ele>483</ele>
        <time>2022-04-04T11:32:19Z</time>
      </trkpt>
      <trkpt lat="46.76324" lon="5.68683">
        <ele>482</ele>
        <time>2022-04-04T11:32:22Z</time>
      </trkpt>
      <trkpt lat="46.76342" lon="5.6862">
        <ele>482</ele>
        <time>2022-04-04T11:32:30Z</time>
      </trkpt>
      <trkpt lat="46.76351" lon="5.68594">
        <ele>480</ele>
        <time>2022-04-04T11:32:34Z</time>
      </trkpt>
      <trkpt lat="46.76357" lon="5.68584">
        <ele>480</ele>
        <time>2022-04-04T11:32:35Z</time>
      </trkpt>
      <trkpt lat="46.76365" lon="5.68576">
        <ele>482</ele>
        <time>2022-04-04T11:32:37Z</time>
      </trkpt>
      <trkpt lat="46.76371" lon="5.68574">
        <ele>484</ele>
        <time>2022-04-04T11:32:38Z</time>
      </trkpt>
      <trkpt lat="46.76389" lon="5.68575">
        <ele>493</ele>
        <time>2022-04-04T11:32:41Z</time>
      </trkpt>
      <trkpt lat="46.76409" lon="5.68583">
        <ele>505</ele>
        <time>2022-04-04T11:32:45Z</time>
      </trkpt>
      <trkpt lat="46.76449" lon="5.68582">
        <ele>513</ele>
        <time>2022-04-04T11:32:52Z</time>
      </trkpt>
      <trkpt lat="46.76465" lon="5.68579">
        <ele>515</ele>
        <time>2022-04-04T11:32:55Z</time>
      </trkpt>
      <trkpt lat="46.76509" lon="5.68576">
        <ele>520</ele>
        <time>2022-04-04T11:33:03Z</time>
      </trkpt>
      <trkpt lat="46.76524" lon="5.68573">
        <ele>521</ele>
        <time>2022-04-04T11:33:06Z</time>
      </trkpt>
      <trkpt lat="46.76537" lon="5.68564">
        <ele>522</ele>
        <time>2022-04-04T11:33:08Z</time>
      </trkpt>
      <trkpt lat="46.7655" lon="5.68552">
        <ele>523</ele>
        <time>2022-04-04T11:33:11Z</time>
      </trkpt>
      <trkpt lat="46.76566" lon="5.68539">
        <ele>524</ele>
        <time>2022-04-04T11:33:14Z</time>
      </trkpt>
      <trkpt lat="46.7658" lon="5.68531">
        <ele>525</ele>
        <time>2022-04-04T11:33:17Z</time>
      </trkpt>
      <trkpt lat="46.76592" lon="5.6853">
        <ele>526</ele>
        <time>2022-04-04T11:33:19Z</time>
      </trkpt>
      <trkpt lat="46.76612" lon="5.68547">
        <ele>527</ele>
        <time>2022-04-04T11:33:23Z</time>
      </trkpt>
      <trkpt lat="46.76621" lon="5.68551">
        <ele>528</ele>
        <time>2022-04-04T11:33:25Z</time>
      </trkpt>
      <trkpt lat="46.76641" lon="5.68553">
        <ele>528</ele>
        <time>2022-04-04T11:33:28Z</time>
      </trkpt>
      <trkpt lat="46.76641" lon="5.68933">
        <ele>535</ele>
        <time>2022-04-04T11:34:15Z</time>
      </trkpt>
      <trkpt lat="46.76654" lon="5.69093">
        <ele>532</ele>
        <time>2022-04-04T11:34:34Z</time>
      </trkpt>
      <trkpt lat="46.76677" lon="5.6926">
        <ele>529</ele>
        <time>2022-04-04T11:34:55Z</time>
      </trkpt>
      <trkpt lat="46.76685" lon="5.69305">
        <ele>529</ele>
        <time>2022-04-04T11:35:01Z</time>
      </trkpt>
      <trkpt lat="46.76705" lon="5.69382">
        <ele>531</ele>
        <time>2022-04-04T11:35:11Z</time>
      </trkpt>
      <trkpt lat="46.76732" lon="5.6949">
        <ele>530</ele>
        <time>2022-04-04T11:35:25Z</time>
      </trkpt>
      <trkpt lat="46.76738" lon="5.69535">
        <ele>530</ele>
        <time>2022-04-04T11:35:30Z</time>
      </trkpt>
      <trkpt lat="46.76741" lon="5.69627">
        <ele>530</ele>
        <time>2022-04-04T11:35:42Z</time>
      </trkpt>
      <trkpt lat="46.76739" lon="5.69675">
        <ele>530</ele>
        <time>2022-04-04T11:35:47Z</time>
      </trkpt>
      <trkpt lat="46.76719" lon="5.69788">
        <ele>533</ele>
        <time>2022-04-04T11:36:02Z</time>
      </trkpt>
      <trkpt lat="46.76687" lon="5.69945">
        <ele>533</ele>
        <time>2022-04-04T11:36:22Z</time>
      </trkpt>
      <trkpt lat="46.76681" lon="5.69988">
        <ele>532</ele>
        <time>2022-04-04T11:36:27Z</time>
      </trkpt>
      <trkpt lat="46.76631" lon="5.7044">
        <ele>526</ele>
        <time>2022-04-04T11:37:23Z</time>
      </trkpt>
      <trkpt lat="46.76612" lon="5.70575">
        <ele>528</ele>
        <time>2022-04-04T11:37:40Z</time>
      </trkpt>
      <trkpt lat="46.76541" lon="5.70897">
        <ele>530</ele>
        <time>2022-04-04T11:38:21Z</time>
      </trkpt>
      <trkpt lat="46.76524" lon="5.71017">
        <ele>526</ele>
        <time>2022-04-04T11:38:36Z</time>
      </trkpt>
      <trkpt lat="46.76454" lon="5.71654">
        <ele>524</ele>
        <time>2022-04-04T11:39:54Z</time>
      </trkpt>
      <trkpt lat="46.76445" lon="5.71714">
        <ele>524</ele>
        <time>2022-04-04T11:40:02Z</time>
      </trkpt>
      <trkpt lat="46.76435" lon="5.7176">
        <ele>525</ele>
        <time>2022-04-04T11:40:08Z</time>
      </trkpt>
      <trkpt lat="46.76425" lon="5.71795">
        <ele>525</ele>
        <time>2022-04-04T11:40:12Z</time>
      </trkpt>
      <trkpt lat="46.76371" lon="5.71972">
        <ele>526</ele>
        <time>2022-04-04T11:40:36Z</time>
      </trkpt>
      <trkpt lat="46.76363" lon="5.72011">
        <ele>526</ele>
        <time>2022-04-04T11:40:41Z</time>
      </trkpt>
      <trkpt lat="46.76341" lon="5.72142">
        <ele>525</ele>
        <time>2022-04-04T11:40:57Z</time>
      </trkpt>
      <trkpt lat="46.76327" lon="5.72207">
        <ele>525</ele>
        <time>2022-04-04T11:41:06Z</time>
      </trkpt>
      <trkpt lat="46.7631" lon="5.72264">
        <ele>525</ele>
        <time>2022-04-04T11:41:13Z</time>
      </trkpt>
      <trkpt lat="46.75558" lon="5.74447">
        <ele>548</ele>
        <time>2022-04-04T11:46:11Z</time>
      </trkpt>
      <trkpt lat="46.75549" lon="5.74466">
        <ele>549</ele>
        <time>2022-04-04T11:46:14Z</time>
      </trkpt>
      <trkpt lat="46.7554" lon="5.74481">
        <ele>549</ele>
        <time>2022-04-04T11:46:16Z</time>
      </trkpt>
      <trkpt lat="46.75534" lon="5.74484">
        <ele>550</ele>
        <time>2022-04-04T11:46:17Z</time>
      </trkpt>
      <trkpt lat="46.75519" lon="5.74482">
        <ele>550</ele>
        <time>2022-04-04T11:46:20Z</time>
      </trkpt>
      <trkpt lat="46.75457" lon="5.74458">
        <ele>550</ele>
        <time>2022-04-04T11:46:32Z</time>
      </trkpt>
      <trkpt lat="46.75449" lon="5.74457">
        <ele>549</ele>
        <time>2022-04-04T11:46:33Z</time>
      </trkpt>
      <trkpt lat="46.7544" lon="5.74463">
        <ele>549</ele>
        <time>2022-04-04T11:46:35Z</time>
      </trkpt>
      <trkpt lat="46.75434" lon="5.7447">
        <ele>549</ele>
        <time>2022-04-04T11:46:36Z</time>
      </trkpt>
      <trkpt lat="46.75389" lon="5.74549">
        <ele>547</ele>
        <time>2022-04-04T11:46:49Z</time>
      </trkpt>
      <trkpt lat="46.75375" lon="5.74576">
        <ele>547</ele>
        <time>2022-04-04T11:46:53Z</time>
      </trkpt>
      <trkpt lat="46.75367" lon="5.74595">
        <ele>546</ele>
        <time>2022-04-04T11:46:55Z</time>
      </trkpt>
      <trkpt lat="46.75343" lon="5.74675">
        <ele>547</ele>
        <time>2022-04-04T11:47:06Z</time>
      </trkpt>
      <trkpt lat="46.75335" lon="5.7471">
        <ele>548</ele>
        <time>2022-04-04T11:47:11Z</time>
      </trkpt>
      <trkpt lat="46.75329" lon="5.7475">
        <ele>549</ele>
        <time>2022-04-04T11:47:16Z</time>
      </trkpt>
      <trkpt lat="46.75325" lon="5.74792">
        <ele>551</ele>
        <time>2022-04-04T11:47:21Z</time>
      </trkpt>
      <trkpt lat="46.7532" lon="5.74812">
        <ele>552</ele>
        <time>2022-04-04T11:47:23Z</time>
      </trkpt>
      <trkpt lat="46.75232" lon="5.75053">
        <ele>557</ele>
        <time>2022-04-04T11:47:57Z</time>
      </trkpt>
      <trkpt lat="46.75225" lon="5.7508">
        <ele>557</ele>
        <time>2022-04-04T11:48:00Z</time>
      </trkpt>
      <trkpt lat="46.75219" lon="5.75112">
        <ele>558</ele>
        <time>2022-04-04T11:48:04Z</time>
      </trkpt>
      <trkpt lat="46.75187" lon="5.75384">
        <ele>560</ele>
        <time>2022-04-04T11:48:38Z</time>
      </trkpt>
      <trkpt lat="46.7518" lon="5.75426">
        <ele>562</ele>
        <time>2022-04-04T11:48:43Z</time>
      </trkpt>
      <trkpt lat="46.75172" lon="5.75458">
        <ele>564</ele>
        <time>2022-04-04T11:48:47Z</time>
      </trkpt>
      <trkpt lat="46.75163" lon="5.75488">
        <ele>566</ele>
        <time>2022-04-04T11:48:51Z</time>
      </trkpt>
      <trkpt lat="46.75061" lon="5.75741">
        <ele>573</ele>
        <time>2022-04-04T11:49:27Z</time>
      </trkpt>
      <trkpt lat="46.74983" lon="5.75913">
        <ele>573</ele>
        <time>2022-04-04T11:49:52Z</time>
      </trkpt>
      <trkpt lat="46.74933" lon="5.76033">
        <ele>574</ele>
        <time>2022-04-04T11:50:09Z</time>
      </trkpt>
      <trkpt lat="46.74858" lon="5.76282">
        <ele>581</ele>
        <time>2022-04-04T11:50:42Z</time>
      </trkpt>
      <trkpt lat="46.74784" lon="5.76469">
        <ele>581</ele>
        <time>2022-04-04T11:51:09Z</time>
      </trkpt>
      <trkpt lat="46.74763" lon="5.76518">
        <ele>580</ele>
        <time>2022-04-04T11:51:16Z</time>
      </trkpt>
      <trkpt lat="46.74735" lon="5.76569">
        <ele>581</ele>
        <time>2022-04-04T11:51:24Z</time>
      </trkpt>
      <trkpt lat="46.74726" lon="5.76581">
        <ele>581</ele>
        <time>2022-04-04T11:51:26Z</time>
      </trkpt>
      <trkpt lat="46.74677" lon="5.76631">
        <ele>582</ele>
        <time>2022-04-04T11:51:37Z</time>
      </trkpt>
      <trkpt lat="46.74606" lon="5.76715">
        <ele>585</ele>
        <time>2022-04-04T11:51:53Z</time>
      </trkpt>
      <trkpt lat="46.74596" lon="5.7673">
        <ele>585</ele>
        <time>2022-04-04T11:51:55Z</time>
      </trkpt>
      <trkpt lat="46.7459" lon="5.76742">
        <ele>585</ele>
        <time>2022-04-04T11:51:57Z</time>
      </trkpt>
      <trkpt lat="46.74588" lon="5.76753">
        <ele>586</ele>
        <time>2022-04-04T11:51:59Z</time>
      </trkpt>
      <trkpt lat="46.74586" lon="5.76765">
        <ele>586</ele>
        <time>2022-04-04T11:52:00Z</time>
      </trkpt>
      <trkpt lat="46.74589" lon="5.76787">
        <ele>587</ele>
        <time>2022-04-04T11:52:03Z</time>
      </trkpt>
      <trkpt lat="46.74595" lon="5.76798">
        <ele>587</ele>
        <time>2022-04-04T11:52:05Z</time>
      </trkpt>
      <trkpt lat="46.74663" lon="5.76892">
        <ele>585</ele>
        <time>2022-04-04T11:52:21Z</time>
      </trkpt>
      <trkpt lat="46.74674" lon="5.7691">
        <ele>586</ele>
        <time>2022-04-04T11:52:24Z</time>
      </trkpt>
      <trkpt lat="46.74686" lon="5.76938">
        <ele>587</ele>
        <time>2022-04-04T11:52:28Z</time>
      </trkpt>
      <trkpt lat="46.74689" lon="5.76952">
        <ele>587</ele>
        <time>2022-04-04T11:52:30Z</time>
      </trkpt>
      <trkpt lat="46.74691" lon="5.76966">
        <ele>588</ele>
        <time>2022-04-04T11:52:32Z</time>
      </trkpt>
      <trkpt lat="46.74687" lon="5.77018">
        <ele>590</ele>
        <time>2022-04-04T11:52:38Z</time>
      </trkpt>
      <trkpt lat="46.74687" lon="5.7703">
        <ele>591</ele>
        <time>2022-04-04T11:52:40Z</time>
      </trkpt>
      <trkpt lat="46.74693" lon="5.77058">
        <ele>593</ele>
        <time>2022-04-04T11:52:43Z</time>
      </trkpt>
      <trkpt lat="46.747" lon="5.77075">
        <ele>594</ele>
        <time>2022-04-04T11:52:46Z</time>
      </trkpt>
      <trkpt lat="46.74937" lon="5.77476">
        <ele>604</ele>
        <time>2022-04-04T11:53:50Z</time>
      </trkpt>
      <trkpt lat="46.74961" lon="5.77518">
        <ele>605</ele>
        <time>2022-04-04T11:53:57Z</time>
      </trkpt>
      <trkpt lat="46.74984" lon="5.77566">
        <ele>606</ele>
        <time>2022-04-04T11:54:04Z</time>
      </trkpt>
      <trkpt lat="46.75018" lon="5.77597">
        <ele>603</ele>
        <time>2022-04-04T11:54:11Z</time>
      </trkpt>
      <trkpt lat="46.75048" lon="5.77639">
        <ele>602</ele>
        <time>2022-04-04T11:54:18Z</time>
      </trkpt>
      <trkpt lat="46.75078" lon="5.77725">
        <ele>603</ele>
        <time>2022-04-04T11:54:30Z</time>
      </trkpt>
      <trkpt lat="46.75091" lon="5.77759">
        <ele>604</ele>
        <time>2022-04-04T11:54:35Z</time>
      </trkpt>
      <trkpt lat="46.75106" lon="5.77777">
        <ele>603</ele>
        <time>2022-04-04T11:54:38Z</time>
      </trkpt>
      <trkpt lat="46.7514" lon="5.77807">
        <ele>600</ele>
        <time>2022-04-04T11:54:46Z</time>
      </trkpt>
      <trkpt lat="46.75148" lon="5.77817">
        <ele>600</ele>
        <time>2022-04-04T11:54:47Z</time>
      </trkpt>
      <trkpt lat="46.7517" lon="5.77856">
        <ele>600</ele>
        <time>2022-04-04T11:54:54Z</time>
      </trkpt>
      <trkpt lat="46.75213" lon="5.7796">
        <ele>602</ele>
        <time>2022-04-04T11:55:08Z</time>
      </trkpt>
      <trkpt lat="46.75221" lon="5.77987">
        <ele>601</ele>
        <time>2022-04-04T11:55:12Z</time>
      </trkpt>
      <trkpt lat="46.75224" lon="5.78006">
        <ele>602</ele>
        <time>2022-04-04T11:55:14Z</time>
      </trkpt>
      <trkpt lat="46.7522" lon="5.78044">
        <ele>603</ele>
        <time>2022-04-04T11:55:19Z</time>
      </trkpt>
      <trkpt lat="46.75132" lon="5.7832">
        <ele>607</ele>
        <time>2022-04-04T11:55:56Z</time>
      </trkpt>
      <trkpt lat="46.7511" lon="5.78382">
        <ele>611</ele>
        <time>2022-04-04T11:56:05Z</time>
      </trkpt>
      <trkpt lat="46.75101" lon="5.78398">
        <ele>611</ele>
        <time>2022-04-04T11:56:07Z</time>
      </trkpt>
      <trkpt lat="46.7509" lon="5.78411">
        <ele>612</ele>
        <time>2022-04-04T11:56:10Z</time>
      </trkpt>
      <trkpt lat="46.74969" lon="5.78492">
        <ele>613</ele>
        <time>2022-04-04T11:56:33Z</time>
      </trkpt>
      <trkpt lat="46.74934" lon="5.78519">
        <ele>613</ele>
        <time>2022-04-04T11:56:40Z</time>
      </trkpt>
      <trkpt lat="46.74923" lon="5.78531">
        <ele>612</ele>
        <time>2022-04-04T11:56:43Z</time>
      </trkpt>
      <trkpt lat="46.74914" lon="5.78544">
        <ele>611</ele>
        <time>2022-04-04T11:56:45Z</time>
      </trkpt>
      <trkpt lat="46.7488" lon="5.78607">
        <ele>606</ele>
        <time>2022-04-04T11:56:55Z</time>
      </trkpt>
      <trkpt lat="46.74866" lon="5.78621">
        <ele>604</ele>
        <time>2022-04-04T11:56:58Z</time>
      </trkpt>
      <trkpt lat="46.74851" lon="5.78628">
        <ele>603</ele>
        <time>2022-04-04T11:57:01Z</time>
      </trkpt>
      <trkpt lat="46.74817" lon="5.78631">
        <ele>600</ele>
        <time>2022-04-04T11:57:07Z</time>
      </trkpt>
      <trkpt lat="46.74793" lon="5.78625">
        <ele>599</ele>
        <time>2022-04-04T11:57:11Z</time>
      </trkpt>
      <trkpt lat="46.74767" lon="5.78613">
        <ele>599</ele>
        <time>2022-04-04T11:57:16Z</time>
      </trkpt>
      <trkpt lat="46.74701" lon="5.7857">
        <ele>598</ele>
        <time>2022-04-04T11:57:29Z</time>
      </trkpt>
      <trkpt lat="46.7467" lon="5.78553">
        <ele>597</ele>
        <time>2022-04-04T11:57:35Z</time>
      </trkpt>
      <trkpt lat="46.74621" lon="5.78541">
        <ele>593</ele>
        <time>2022-04-04T11:57:44Z</time>
      </trkpt>
      <trkpt lat="46.74581" lon="5.78524">
        <ele>592</ele>
        <time>2022-04-04T11:57:51Z</time>
      </trkpt>
      <trkpt lat="46.74547" lon="5.78507">
        <ele>589</ele>
        <time>2022-04-04T11:57:57Z</time>
      </trkpt>
      <trkpt lat="46.74529" lon="5.78497">
        <ele>588</ele>
        <time>2022-04-04T11:58:01Z</time>
      </trkpt>
      <trkpt lat="46.74456" lon="5.7844">
        <ele>585</ele>
        <time>2022-04-04T11:58:16Z</time>
      </trkpt>
      <trkpt lat="46.74451" lon="5.78439">
        <ele>584</ele>
        <time>2022-04-04T11:58:16Z</time>
      </trkpt>
      <trkpt lat="46.74444" lon="5.78444">
        <ele>582</ele>
        <time>2022-04-04T11:58:18Z</time>
      </trkpt>
      <trkpt lat="46.7443" lon="5.78435">
        <ele>581</ele>
        <time>2022-04-04T11:58:21Z</time>
      </trkpt>
      <trkpt lat="46.74385" lon="5.78425">
        <ele>578</ele>
        <time>2022-04-04T11:58:29Z</time>
      </trkpt>
      <trkpt lat="46.7416" lon="5.78342">
        <ele>563</ele>
        <time>2022-04-04T11:59:10Z</time>
      </trkpt>
      <trkpt lat="46.74045" lon="5.78314">
        <ele>560</ele>
        <time>2022-04-04T11:59:31Z</time>
      </trkpt>
      <trkpt lat="46.73992" lon="5.78308">
        <ele>556</ele>
        <time>2022-04-04T11:59:40Z</time>
      </trkpt>
      <trkpt lat="46.73881" lon="5.78335">
        <ele>546</ele>
        <time>2022-04-04T12:00:00Z</time>
      </trkpt>
      <trkpt lat="46.73824" lon="5.7834">
        <ele>543</ele>
        <time>2022-04-04T12:00:10Z</time>
      </trkpt>
      <trkpt lat="46.73772" lon="5.78338">
        <ele>540</ele>
        <time>2022-04-04T12:00:20Z</time>
      </trkpt>
      <trkpt lat="46.73619" lon="5.78297">
        <ele>533</ele>
        <time>2022-04-04T12:00:47Z</time>
      </trkpt>
      <trkpt lat="46.73566" lon="5.78272">
        <ele>531</ele>
        <time>2022-04-04T12:00:57Z</time>
      </trkpt>
      <trkpt lat="46.73466" lon="5.7821">
        <ele>524</ele>
        <time>2022-04-04T12:01:16Z</time>
      </trkpt>
      <trkpt lat="46.73391" lon="5.78172">
        <ele>518</ele>
        <time>2022-04-04T12:01:31Z</time>
      </trkpt>
      <trkpt lat="46.73342" lon="5.78153">
        <ele>515</ele>
        <time>2022-04-04T12:01:40Z</time>
      </trkpt>
      <trkpt lat="46.73193" lon="5.78078">
        <ele>509</ele>
        <time>2022-04-04T12:02:08Z</time>
      </trkpt>
      <trkpt lat="46.73155" lon="5.78065">
        <ele>508</ele>
        <time>2022-04-04T12:02:15Z</time>
      </trkpt>
      <trkpt lat="46.72934" lon="5.78025">
        <ele>489</ele>
        <time>2022-04-04T12:02:54Z</time>
      </trkpt>
      <trkpt lat="46.72861" lon="5.78017">
        <ele>485</ele>
        <time>2022-04-04T12:03:07Z</time>
      </trkpt>
      <trkpt lat="46.7285" lon="5.78024">
        <ele>484</ele>
        <time>2022-04-04T12:03:09Z</time>
      </trkpt>
      <trkpt lat="46.7281" lon="5.78075">
        <ele>480</ele>
        <time>2022-04-04T12:03:19Z</time>
      </trkpt>
      <trkpt lat="46.72789" lon="5.78093">
        <ele>478</ele>
        <time>2022-04-04T12:03:23Z</time>
      </trkpt>
      <trkpt lat="46.72778" lon="5.78096">
        <ele>478</ele>
        <time>2022-04-04T12:03:25Z</time>
      </trkpt>
      <trkpt lat="46.72763" lon="5.78091">
        <ele>478</ele>
        <time>2022-04-04T12:03:28Z</time>
      </trkpt>
      <trkpt lat="46.72718" lon="5.78064">
        <ele>477</ele>
        <time>2022-04-04T12:03:37Z</time>
      </trkpt>
      <trkpt lat="46.72699" lon="5.78063">
        <ele>476</ele>
        <time>2022-04-04T12:03:40Z</time>
      </trkpt>
      <trkpt lat="46.72683" lon="5.7807">
        <ele>475</ele>
        <time>2022-04-04T12:03:43Z</time>
      </trkpt>
      <trkpt lat="46.72724" lon="5.78184">
        <ele>473</ele>
        <time>2022-04-04T12:03:59Z</time>
      </trkpt>
      <trkpt lat="46.72737" lon="5.78225">
        <ele>472</ele>
        <time>2022-04-04T12:04:04Z</time>
      </trkpt>
      <trkpt lat="46.72739" lon="5.78246">
        <ele>471</ele>
        <time>2022-04-04T12:04:07Z</time>
      </trkpt>
      <trkpt lat="46.72739" lon="5.78282">
        <ele>470</ele>
        <time>2022-04-04T12:04:11Z</time>
      </trkpt>
      <trkpt lat="46.72734" lon="5.78314">
        <ele>469</ele>
        <time>2022-04-04T12:04:15Z</time>
      </trkpt>
      <trkpt lat="46.72692" lon="5.78412">
        <ele>467</ele>
        <time>2022-04-04T12:04:29Z</time>
      </trkpt>
      <trkpt lat="46.7268" lon="5.7844">
        <ele>467</ele>
        <time>2022-04-04T12:04:33Z</time>
      </trkpt>
      <trkpt lat="46.72639" lon="5.78601">
        <ele>471</ele>
        <time>2022-04-04T12:04:54Z</time>
      </trkpt>
      <trkpt lat="46.72633" lon="5.78618">
        <ele>471</ele>
        <time>2022-04-04T12:04:57Z</time>
      </trkpt>
      <trkpt lat="46.72622" lon="5.78613">
        <ele>471</ele>
        <time>2022-04-04T12:04:59Z</time>
      </trkpt>
      <trkpt lat="46.72606" lon="5.78613">
        <ele>471</ele>
        <time>2022-04-04T12:05:01Z</time>
      </trkpt>
      <trkpt lat="46.72592" lon="5.78616">
        <ele>471</ele>
        <time>2022-04-04T12:05:04Z</time>
      </trkpt>
      <trkpt lat="46.72574" lon="5.78627">
        <ele>471</ele>
        <time>2022-04-04T12:05:07Z</time>
      </trkpt>
      <trkpt lat="46.72482" lon="5.78703">
        <ele>471</ele>
        <time>2022-04-04T12:05:26Z</time>
      </trkpt>
      <trkpt lat="46.72428" lon="5.78735">
        <ele>471</ele>
        <time>2022-04-04T12:05:37Z</time>
      </trkpt>
      <trkpt lat="46.72294" lon="5.7882">
        <ele>477</ele>
        <time>2022-04-04T12:06:03Z</time>
      </trkpt>
      <trkpt lat="46.72274" lon="5.78848">
        <ele>480</ele>
        <time>2022-04-04T12:06:08Z</time>
      </trkpt>
      <trkpt lat="46.72253" lon="5.78895">
        <ele>483</ele>
        <time>2022-04-04T12:06:14Z</time>
      </trkpt>
      <trkpt lat="46.72239" lon="5.78981">
        <ele>488</ele>
        <time>2022-04-04T12:06:25Z</time>
      </trkpt>
      <trkpt lat="46.72225" lon="5.79012">
        <ele>488</ele>
        <time>2022-04-04T12:06:30Z</time>
      </trkpt>
      <trkpt lat="46.72137" lon="5.79131">
        <ele>492</ele>
        <time>2022-04-04T12:06:51Z</time>
      </trkpt>
      <trkpt lat="46.72086" lon="5.79247">
        <ele>496</ele>
        <time>2022-04-04T12:07:08Z</time>
      </trkpt>
      <trkpt lat="46.72037" lon="5.79372">
        <ele>498</ele>
        <time>2022-04-04T12:07:25Z</time>
      </trkpt>
      <trkpt lat="46.71954" lon="5.79571">
        <ele>500</ele>
        <time>2022-04-04T12:07:54Z</time>
      </trkpt>
      <trkpt lat="46.7194" lon="5.79599">
        <ele>500</ele>
        <time>2022-04-04T12:07:58Z</time>
      </trkpt>
      <trkpt lat="46.71869" lon="5.79563">
        <ele>499</ele>
        <time>2022-04-04T12:08:11Z</time>
      </trkpt>
      <trkpt lat="46.71805" lon="5.79527">
        <ele>499</ele>
        <time>2022-04-04T12:08:24Z</time>
      </trkpt>
      <trkpt lat="46.71798" lon="5.79539">
        <ele>499</ele>
        <time>2022-04-04T12:08:26Z</time>
      </trkpt>
      <trkpt lat="46.71786" lon="5.79553">
        <ele>498</ele>
        <time>2022-04-04T12:08:28Z</time>
      </trkpt>
      <trkpt lat="46.71763" lon="5.79571">
        <ele>498</ele>
        <time>2022-04-04T12:08:33Z</time>
      </trkpt>
      <trkpt lat="46.71689" lon="5.79618">
        <ele>501</ele>
        <time>2022-04-04T12:08:47Z</time>
      </trkpt>
      <trkpt lat="46.71671" lon="5.79628">
        <ele>502</ele>
        <time>2022-04-04T12:08:51Z</time>
      </trkpt>
      <trkpt lat="46.71633" lon="5.7964">
        <ele>503</ele>
        <time>2022-04-04T12:08:58Z</time>
      </trkpt>
      <trkpt lat="46.71599" lon="5.79641">
        <ele>504</ele>
        <time>2022-04-04T12:09:04Z</time>
      </trkpt>
      <trkpt lat="46.7157" lon="5.79645">
        <ele>505</ele>
        <time>2022-04-04T12:09:09Z</time>
      </trkpt>
      <trkpt lat="46.71546" lon="5.79651">
        <ele>506</ele>
        <time>2022-04-04T12:09:13Z</time>
      </trkpt>
      <trkpt lat="46.71536" lon="5.79657">
        <ele>507</ele>
        <time>2022-04-04T12:09:15Z</time>
      </trkpt>
      <trkpt lat="46.71521" lon="5.79669">
        <ele>508</ele>
        <time>2022-04-04T12:09:18Z</time>
      </trkpt>
      <trkpt lat="46.71447" lon="5.79748">
        <ele>510</ele>
        <time>2022-04-04T12:09:34Z</time>
      </trkpt>
      <trkpt lat="46.71375" lon="5.79821">
        <ele>516</ele>
        <time>2022-04-04T12:09:50Z</time>
      </trkpt>
      <trkpt lat="46.71313" lon="5.79887">
        <ele>520</ele>
        <time>2022-04-04T12:10:04Z</time>
      </trkpt>
      <trkpt lat="46.71296" lon="5.79921">
        <ele>521</ele>
        <time>2022-04-04T12:10:09Z</time>
      </trkpt>
      <trkpt lat="46.71265" lon="5.79976">
        <ele>526</ele>
        <time>2022-04-04T12:10:18Z</time>
      </trkpt>
      <trkpt lat="46.71183" lon="5.8009">
        <ele>534</ele>
        <time>2022-04-04T12:10:38Z</time>
      </trkpt>
      <trkpt lat="46.71168" lon="5.80116">
        <ele>535</ele>
        <time>2022-04-04T12:10:42Z</time>
      </trkpt>
      <trkpt lat="46.71131" lon="5.80199">
        <ele>547</ele>
        <time>2022-04-04T12:10:54Z</time>
      </trkpt>
      <trkpt lat="46.71119" lon="5.80219">
        <ele>550</ele>
        <time>2022-04-04T12:10:57Z</time>
      </trkpt>
      <trkpt lat="46.71049" lon="5.80308">
        <ele>567</ele>
        <time>2022-04-04T12:11:14Z</time>
      </trkpt>
      <trkpt lat="46.71043" lon="5.80313">
        <ele>568</ele>
        <time>2022-04-04T12:11:15Z</time>
      </trkpt>
      <trkpt lat="46.71031" lon="5.80317">
        <ele>569</ele>
        <time>2022-04-04T12:11:17Z</time>
      </trkpt>
      <trkpt lat="46.71022" lon="5.80315">
        <ele>569</ele>
        <time>2022-04-04T12:11:19Z</time>
      </trkpt>
      <trkpt lat="46.71017" lon="5.80311">
        <ele>569</ele>
        <time>2022-04-04T12:11:20Z</time>
      </trkpt>
      <trkpt lat="46.71013" lon="5.80304">
        <ele>569</ele>
        <time>2022-04-04T12:11:21Z</time>
      </trkpt>
      <trkpt lat="46.71009" lon="5.80284">
        <ele>570</ele>
        <time>2022-04-04T12:11:23Z</time>
      </trkpt>
      <trkpt lat="46.7101" lon="5.80256">
        <ele>570</ele>
        <time>2022-04-04T12:11:27Z</time>
      </trkpt>
      <trkpt lat="46.71018" lon="5.80179">
        <ele>570</ele>
        <time>2022-04-04T12:11:36Z</time>
      </trkpt>
      <trkpt lat="46.71019" lon="5.80114">
        <ele>575</ele>
        <time>2022-04-04T12:11:44Z</time>
      </trkpt>
      <trkpt lat="46.71026" lon="5.80037">
        <ele>578</ele>
        <time>2022-04-04T12:11:54Z</time>
      </trkpt>
      <trkpt lat="46.71038" lon="5.7997">
        <ele>577</ele>
        <time>2022-04-04T12:12:02Z</time>
      </trkpt>
      <trkpt lat="46.71063" lon="5.79848">
        <ele>577</ele>
        <time>2022-04-04T12:12:18Z</time>
      </trkpt>
      <trkpt lat="46.71068" lon="5.79813">
        <ele>575</ele>
        <time>2022-04-04T12:12:22Z</time>
      </trkpt>
      <trkpt lat="46.71068" lon="5.79783">
        <ele>574</ele>
        <time>2022-04-04T12:12:26Z</time>
      </trkpt>
      <trkpt lat="46.71066" lon="5.7976">
        <ele>574</ele>
        <time>2022-04-04T12:12:29Z</time>
      </trkpt>
      <trkpt lat="46.71062" lon="5.79745">
        <ele>573</ele>
        <time>2022-04-04T12:12:31Z</time>
      </trkpt>
      <trkpt lat="46.71055" lon="5.79729">
        <ele>572</ele>
        <time>2022-04-04T12:12:33Z</time>
      </trkpt>
      <trkpt lat="46.71047" lon="5.79719">
        <ele>572</ele>
        <time>2022-04-04T12:12:35Z</time>
      </trkpt>
      <trkpt lat="46.71033" lon="5.79706">
        <ele>573</ele>
        <time>2022-04-04T12:12:38Z</time>
      </trkpt>
      <trkpt lat="46.7101" lon="5.79695">
        <ele>576</ele>
        <time>2022-04-04T12:12:42Z</time>
      </trkpt>
      <trkpt lat="46.70928" lon="5.7968">
        <ele>579</ele>
        <time>2022-04-04T12:12:57Z</time>
      </trkpt>
      <trkpt lat="46.7091" lon="5.7968">
        <ele>579</ele>
        <time>2022-04-04T12:13:00Z</time>
      </trkpt>
      <trkpt lat="46.70895" lon="5.79683">
        <ele>580</ele>
        <time>2022-04-04T12:13:03Z</time>
      </trkpt>
      <trkpt lat="46.70827" lon="5.79689">
        <ele>582</ele>
        <time>2022-04-04T12:13:15Z</time>
      </trkpt>
      <trkpt lat="46.70774" lon="5.79698">
        <ele>582</ele>
        <time>2022-04-04T12:13:24Z</time>
      </trkpt>
      <trkpt lat="46.70749" lon="5.79711">
        <ele>584</ele>
        <time>2022-04-04T12:13:29Z</time>
      </trkpt>
      <trkpt lat="46.70736" lon="5.79724">
        <ele>584</ele>
        <time>2022-04-04T12:13:32Z</time>
      </trkpt>
      <trkpt lat="46.7073" lon="5.79736">
        <ele>585</ele>
        <time>2022-04-04T12:13:34Z</time>
      </trkpt>
      <trkpt lat="46.70727" lon="5.79747">
        <ele>587</ele>
        <time>2022-04-04T12:13:35Z</time>
      </trkpt>
      <trkpt lat="46.70727" lon="5.79779">
        <ele>588</ele>
        <time>2022-04-04T12:13:39Z</time>
      </trkpt>
      <trkpt lat="46.70733" lon="5.79799">
        <ele>590</ele>
        <time>2022-04-04T12:13:42Z</time>
      </trkpt>
      <trkpt lat="46.70743" lon="5.79814">
        <ele>593</ele>
        <time>2022-04-04T12:13:44Z</time>
      </trkpt>
      <trkpt lat="46.7075" lon="5.7982">
        <ele>595</ele>
        <time>2022-04-04T12:13:46Z</time>
      </trkpt>
      <trkpt lat="46.70763" lon="5.79827">
        <ele>595</ele>
        <time>2022-04-04T12:13:48Z</time>
      </trkpt>
      <trkpt lat="46.70805" lon="5.79835">
        <ele>595</ele>
        <time>2022-04-04T12:13:56Z</time>
      </trkpt>
      <trkpt lat="46.70826" lon="5.79842">
        <ele>596</ele>
        <time>2022-04-04T12:13:59Z</time>
      </trkpt>
      <trkpt lat="46.70835" lon="5.79849">
        <ele>596</ele>
        <time>2022-04-04T12:14:01Z</time>
      </trkpt>
      <trkpt lat="46.70842" lon="5.79858">
        <ele>597</ele>
        <time>2022-04-04T12:14:03Z</time>
      </trkpt>
      <trkpt lat="46.70847" lon="5.79869">
        <ele>598</ele>
        <time>2022-04-04T12:14:04Z</time>
      </trkpt>
      <trkpt lat="46.70849" lon="5.79878">
        <ele>598</ele>
        <time>2022-04-04T12:14:06Z</time>
      </trkpt>
      <trkpt lat="46.7085" lon="5.79955">
        <ele>602</ele>
        <time>2022-04-04T12:14:15Z</time>
      </trkpt>
      <trkpt lat="46.70847" lon="5.8001">
        <ele>604</ele>
        <time>2022-04-04T12:14:22Z</time>
      </trkpt>
      <trkpt lat="46.70847" lon="5.80075">
        <ele>604</ele>
        <time>2022-04-04T12:14:30Z</time>
      </trkpt>
      <trkpt lat="46.70845" lon="5.80097">
        <ele>605</ele>
        <time>2022-04-04T12:14:32Z</time>
      </trkpt>
      <trkpt lat="46.70844" lon="5.80166">
        <ele>612</ele>
        <time>2022-04-04T12:14:41Z</time>
      </trkpt>
      <trkpt lat="46.70849" lon="5.80211">
        <ele>613</ele>
        <time>2022-04-04T12:14:46Z</time>
      </trkpt>
      <trkpt lat="46.70868" lon="5.80305">
        <ele>616</ele>
        <time>2022-04-04T12:14:58Z</time>
      </trkpt>
      <trkpt lat="46.70889" lon="5.8042">
        <ele>615</ele>
        <time>2022-04-04T12:15:13Z</time>
      </trkpt>
      <trkpt lat="46.70891" lon="5.80436">
        <ele>614</ele>
        <time>2022-04-04T12:15:15Z</time>
      </trkpt>
      <trkpt lat="46.70892" lon="5.80474">
        <ele>614</ele>
        <time>2022-04-04T12:15:19Z</time>
      </trkpt>
      <trkpt lat="46.70884" lon="5.80518">
        <ele>616</ele>
        <time>2022-04-04T12:15:25Z</time>
      </trkpt>
      <trkpt lat="46.7085" lon="5.80672">
        <ele>615</ele>
        <time>2022-04-04T12:15:45Z</time>
      </trkpt>
      <trkpt lat="46.70802" lon="5.80821">
        <ele>612</ele>
        <time>2022-04-04T12:16:05Z</time>
      </trkpt>
      <trkpt lat="46.70791" lon="5.80871">
        <ele>613</ele>
        <time>2022-04-04T12:16:11Z</time>
      </trkpt>
      <trkpt lat="46.70759" lon="5.81171">
        <ele>629</ele>
        <time>2022-04-04T12:16:48Z</time>
      </trkpt>
      <trkpt lat="46.70721" lon="5.81577">
        <ele>633</ele>
        <time>2022-04-04T12:17:38Z</time>
      </trkpt>
      <trkpt lat="46.7072" lon="5.81615">
        <ele>634</ele>
        <time>2022-04-04T12:17:43Z</time>
      </trkpt>
      <trkpt lat="46.70722" lon="5.81634">
        <ele>634</ele>
        <time>2022-04-04T12:17:45Z</time>
      </trkpt>
      <trkpt lat="46.70727" lon="5.81656">
        <ele>635</ele>
        <time>2022-04-04T12:17:48Z</time>
      </trkpt>
      <trkpt lat="46.70737" lon="5.81685">
        <ele>635</ele>
        <time>2022-04-04T12:17:52Z</time>
      </trkpt>
      <trkpt lat="46.71078" lon="5.82532">
        <ele>652</ele>
        <time>2022-04-04T12:19:52Z</time>
      </trkpt>
      <trkpt lat="46.71093" lon="5.82565">
        <ele>653</ele>
        <time>2022-04-04T12:19:57Z</time>
      </trkpt>
      <trkpt lat="46.71115" lon="5.8261">
        <ele>655</ele>
        <time>2022-04-04T12:20:03Z</time>
      </trkpt>
      <trkpt lat="46.71121" lon="5.82629">
        <ele>655</ele>
        <time>2022-04-04T12:20:06Z</time>
      </trkpt>
      <trkpt lat="46.71128" lon="5.82661">
        <ele>655</ele>
        <time>2022-04-04T12:20:10Z</time>
      </trkpt>
      <trkpt lat="46.71129" lon="5.82693">
        <ele>654</ele>
        <time>2022-04-04T12:20:14Z</time>
      </trkpt>
      <trkpt lat="46.71125" lon="5.82732">
        <ele>654</ele>
        <time>2022-04-04T12:20:19Z</time>
      </trkpt>
      <trkpt lat="46.71111" lon="5.82807">
        <ele>652</ele>
        <time>2022-04-04T12:20:28Z</time>
      </trkpt>
      <trkpt lat="46.71084" lon="5.82972">
        <ele>651</ele>
        <time>2022-04-04T12:20:49Z</time>
      </trkpt>
      <trkpt lat="46.7107" lon="5.83068">
        <ele>651</ele>
        <time>2022-04-04T12:21:01Z</time>
      </trkpt>
      <trkpt lat="46.71039" lon="5.83214">
        <ele>648</ele>
        <time>2022-04-04T12:21:20Z</time>
      </trkpt>
      <trkpt lat="46.71017" lon="5.83282">
        <ele>649</ele>
        <time>2022-04-04T12:21:29Z</time>
      </trkpt>
      <trkpt lat="46.70975" lon="5.83369">
        <ele>650</ele>
        <time>2022-04-04T12:21:42Z</time>
      </trkpt>
      <trkpt lat="46.70956" lon="5.83438">
        <ele>652</ele>
        <time>2022-04-04T12:21:51Z</time>
      </trkpt>
      <trkpt lat="46.70931" lon="5.83507">
        <ele>654</ele>
        <time>2022-04-04T12:22:00Z</time>
      </trkpt>
      <trkpt lat="46.70879" lon="5.83645">
        <ele>654</ele>
        <time>2022-04-04T12:22:20Z</time>
      </trkpt>
      <trkpt lat="46.70823" lon="5.83809">
        <ele>652</ele>
        <time>2022-04-04T12:22:42Z</time>
      </trkpt>
      <trkpt lat="46.70802" lon="5.83931">
        <ele>649</ele>
        <time>2022-04-04T12:22:57Z</time>
      </trkpt>
      <trkpt lat="46.7079" lon="5.83981">
        <ele>649</ele>
        <time>2022-04-04T12:23:04Z</time>
      </trkpt>
      <trkpt lat="46.70735" lon="5.84171">
        <ele>645</ele>
        <time>2022-04-04T12:23:29Z</time>
      </trkpt>
      <trkpt lat="46.70723" lon="5.84227">
        <ele>645</ele>
        <time>2022-04-04T12:23:36Z</time>
      </trkpt>
      <trkpt lat="46.70715" lon="5.84274">
        <ele>646</ele>
        <time>2022-04-04T12:23:42Z</time>
      </trkpt>
      <trkpt lat="46.70708" lon="5.84337">
        <ele>646</ele>
        <time>2022-04-04T12:23:50Z</time>
      </trkpt>
      <trkpt lat="46.70701" lon="5.84365">
        <ele>646</ele>
        <time>2022-04-04T12:23:53Z</time>
      </trkpt>
      <trkpt lat="46.70691" lon="5.84393">
        <ele>645</ele>
        <time>2022-04-04T12:23:57Z</time>
      </trkpt>
      <trkpt lat="46.70676" lon="5.84426">
        <ele>645</ele>
        <time>2022-04-04T12:24:02Z</time>
      </trkpt>
      <trkpt lat="46.70658" lon="5.84457">
        <ele>645</ele>
        <time>2022-04-04T12:24:07Z</time>
      </trkpt>
      <trkpt lat="46.70596" lon="5.84548">
        <ele>646</ele>
        <time>2022-04-04T12:24:23Z</time>
      </trkpt>
      <trkpt lat="46.7057" lon="5.84594">
        <ele>647</ele>
        <time>2022-04-04T12:24:30Z</time>
      </trkpt>
      <trkpt lat="46.70528" lon="5.84684">
        <ele>645</ele>
        <time>2022-04-04T12:24:43Z</time>
      </trkpt>
      <trkpt lat="46.7049" lon="5.84773">
        <ele>645</ele>
        <time>2022-04-04T12:24:56Z</time>
      </trkpt>
      <trkpt lat="46.70473" lon="5.84806">
        <ele>645</ele>
        <time>2022-04-04T12:25:01Z</time>
      </trkpt>
      <trkpt lat="46.70457" lon="5.8483">
        <ele>645</ele>
        <time>2022-04-04T12:25:05Z</time>
      </trkpt>
      <trkpt lat="46.70432" lon="5.84861">
        <ele>646</ele>
        <time>2022-04-04T12:25:11Z</time>
      </trkpt>
      <trkpt lat="46.70413" lon="5.8488">
        <ele>646</ele>
        <time>2022-04-04T12:25:15Z</time>
      </trkpt>
      <trkpt lat="46.70395" lon="5.84894">
        <ele>646</ele>
        <time>2022-04-04T12:25:19Z</time>
      </trkpt>
      <trkpt lat="46.70346" lon="5.84927">
        <ele>645</ele>
        <time>2022-04-04T12:25:28Z</time>
      </trkpt>
      <trkpt lat="46.70327" lon="5.84953">
        <ele>646</ele>
        <time>2022-04-04T12:25:33Z</time>
      </trkpt>
      <trkpt lat="46.70247" lon="5.85112">
        <ele>652</ele>
        <time>2022-04-04T12:25:57Z</time>
      </trkpt>
      <trkpt lat="46.70242" lon="5.85127">
        <ele>652</ele>
        <time>2022-04-04T12:25:59Z</time>
      </trkpt>
      <trkpt lat="46.70236" lon="5.85151">
        <ele>652</ele>
        <time>2022-04-04T12:26:02Z</time>
      </trkpt>
      <trkpt lat="46.70235" lon="5.85177">
        <ele>652</ele>
        <time>2022-04-04T12:26:05Z</time>
      </trkpt>
      <trkpt lat="46.70239" lon="5.85209">
        <ele>652</ele>
        <time>2022-04-04T12:26:09Z</time>
      </trkpt>
      <trkpt lat="46.70263" lon="5.85296">
        <ele>652</ele>
        <time>2022-04-04T12:26:21Z</time>
      </trkpt>
      <trkpt lat="46.70273" lon="5.85363">
        <ele>652</ele>
        <time>2022-04-04T12:26:29Z</time>
      </trkpt>
      <trkpt lat="46.70286" lon="5.85555">
        <ele>662</ele>
        <time>2022-04-04T12:26:53Z</time>
      </trkpt>
      <trkpt lat="46.70285" lon="5.85598">
        <ele>665</ele>
        <time>2022-04-04T12:26:58Z</time>
      </trkpt>
      <trkpt lat="46.70261" lon="5.85943">
        <ele>679</ele>
        <time>2022-04-04T12:27:40Z</time>
      </trkpt>
      <trkpt lat="46.7026" lon="5.85999">
        <ele>681</ele>
        <time>2022-04-04T12:27:47Z</time>
      </trkpt>
      <trkpt lat="46.70265" lon="5.86176">
        <ele>690</ele>
        <time>2022-04-04T12:28:09Z</time>
      </trkpt>
      <trkpt lat="46.70246" lon="5.8636">
        <ele>693</ele>
        <time>2022-04-04T12:28:31Z</time>
      </trkpt>
      <trkpt lat="46.70221" lon="5.86826">
        <ele>691</ele>
        <time>2022-04-04T12:29:28Z</time>
      </trkpt>
      <trkpt lat="46.70231" lon="5.86913">
        <ele>691</ele>
        <time>2022-04-04T12:29:39Z</time>
      </trkpt>
      <trkpt lat="46.70275" lon="5.87132">
        <ele>688</ele>
        <time>2022-04-04T12:30:07Z</time>
      </trkpt>
      <trkpt lat="46.70317" lon="5.87302">
        <ele>688</ele>
        <time>2022-04-04T12:30:29Z</time>
      </trkpt>
      <trkpt lat="46.70393" lon="5.87519">
        <ele>686</ele>
        <time>2022-04-04T12:30:59Z</time>
      </trkpt>
      <trkpt lat="46.70495" lon="5.87768">
        <ele>691</ele>
        <time>2022-04-04T12:31:34Z</time>
      </trkpt>
      <trkpt lat="46.70492" lon="5.87772">
        <ele>691</ele>
        <time>2022-04-04T12:31:35Z</time>
      </trkpt>
      <trkpt lat="46.70492" lon="5.87782">
        <ele>691</ele>
        <time>2022-04-04T12:31:36Z</time>
      </trkpt>
      <trkpt lat="46.70497" lon="5.87787">
        <ele>691</ele>
        <time>2022-04-04T12:31:37Z</time>
      </trkpt>
      <trkpt lat="46.70503" lon="5.87784">
        <ele>691</ele>
        <time>2022-04-04T12:31:38Z</time>
      </trkpt>
      <trkpt lat="46.70546" lon="5.87813">
        <ele>691</ele>
        <time>2022-04-04T12:31:47Z</time>
      </trkpt>
      <trkpt lat="46.70588" lon="5.87849">
        <ele>689</ele>
        <time>2022-04-04T12:31:55Z</time>
      </trkpt>
      <trkpt lat="46.70596" lon="5.87858">
        <ele>688</ele>
        <time>2022-04-04T12:31:57Z</time>
      </trkpt>
      <trkpt lat="46.70607" lon="5.87875">
        <ele>688</ele>
        <time>2022-04-04T12:32:00Z</time>
      </trkpt>
      <trkpt lat="46.70621" lon="5.87907">
        <ele>687</ele>
        <time>2022-04-04T12:32:05Z</time>
      </trkpt>
      <trkpt lat="46.7063" lon="5.87922">
        <ele>687</ele>
        <time>2022-04-04T12:32:07Z</time>
      </trkpt>
      <trkpt lat="46.70638" lon="5.87933">
        <ele>687</ele>
        <time>2022-04-04T12:32:09Z</time>
      </trkpt>
      <trkpt lat="46.70681" lon="5.87962">
        <ele>685</ele>
        <time>2022-04-04T12:32:18Z</time>
      </trkpt>
      <trkpt lat="46.70696" lon="5.87976">
        <ele>685</ele>
        <time>2022-04-04T12:32:21Z</time>
      </trkpt>
      <trkpt lat="46.70749" lon="5.88044">
        <ele>685</ele>
        <time>2022-04-04T12:32:33Z</time>
      </trkpt>
      <trkpt lat="46.70785" lon="5.88073">
        <ele>685</ele>
        <time>2022-04-04T12:32:41Z</time>
      </trkpt>
      <trkpt lat="46.70791" lon="5.88081">
        <ele>685</ele>
        <time>2022-04-04T12:32:42Z</time>
      </trkpt>
      <trkpt lat="46.70798" lon="5.88096">
        <ele>685</ele>
        <time>2022-04-04T12:32:44Z</time>
      </trkpt>
      <trkpt lat="46.7081" lon="5.88148">
        <ele>683</ele>
        <time>2022-04-04T12:32:51Z</time>
      </trkpt>
      <trkpt lat="46.70822" lon="5.88187">
        <ele>683</ele>
        <time>2022-04-04T12:32:56Z</time>
      </trkpt>
      <trkpt lat="46.70835" lon="5.88244">
        <ele>683</ele>
        <time>2022-04-04T12:33:04Z</time>
      </trkpt>
      <trkpt lat="46.70823" lon="5.88254">
        <ele>683</ele>
        <time>2022-04-04T12:33:06Z</time>
      </trkpt>
      <trkpt lat="46.70813" lon="5.88272">
        <ele>684</ele>
        <time>2022-04-04T12:33:09Z</time>
      </trkpt>
      <trkpt lat="46.70764" lon="5.8837">
        <ele>687</ele>
        <time>2022-04-04T12:33:24Z</time>
      </trkpt>
      <trkpt lat="46.70759" lon="5.88384">
        <ele>687</ele>
        <time>2022-04-04T12:33:26Z</time>
      </trkpt>
      <trkpt lat="46.70753" lon="5.88409">
        <ele>687</ele>
        <time>2022-04-04T12:33:29Z</time>
      </trkpt>
      <trkpt lat="46.70752" lon="5.88447">
        <ele>688</ele>
        <time>2022-04-04T12:33:33Z</time>
      </trkpt>
      <trkpt lat="46.70753" lon="5.88459">
        <ele>689</ele>
        <time>2022-04-04T12:33:35Z</time>
      </trkpt>
      <trkpt lat="46.70778" lon="5.88534">
        <ele>693</ele>
        <time>2022-04-04T12:33:45Z</time>
      </trkpt>
      <trkpt lat="46.70791" lon="5.88632">
        <ele>696</ele>
        <time>2022-04-04T12:33:57Z</time>
      </trkpt>
      <trkpt lat="46.70794" lon="5.88683">
        <ele>696</ele>
        <time>2022-04-04T12:34:03Z</time>
      </trkpt>
      <trkpt lat="46.70791" lon="5.8871">
        <ele>696</ele>
        <time>2022-04-04T12:34:07Z</time>
      </trkpt>
      <trkpt lat="46.70785" lon="5.8873">
        <ele>696</ele>
        <time>2022-04-04T12:34:09Z</time>
      </trkpt>
      <trkpt lat="46.70763" lon="5.88772">
        <ele>695</ele>
        <time>2022-04-04T12:34:16Z</time>
      </trkpt>
      <trkpt lat="46.70758" lon="5.88794">
        <ele>694</ele>
        <time>2022-04-04T12:34:19Z</time>
      </trkpt>
      <trkpt lat="46.70756" lon="5.88833">
        <ele>693</ele>
        <time>2022-04-04T12:34:24Z</time>
      </trkpt>
      <trkpt lat="46.70748" lon="5.88862">
        <ele>691</ele>
        <time>2022-04-04T12:34:27Z</time>
      </trkpt>
      <trkpt lat="46.70732" lon="5.88891">
        <ele>690</ele>
        <time>2022-04-04T12:34:32Z</time>
      </trkpt>
      <trkpt lat="46.70709" lon="5.88923">
        <ele>688</ele>
        <time>2022-04-04T12:34:38Z</time>
      </trkpt>
      <trkpt lat="46.70683" lon="5.88964">
        <ele>686</ele>
        <time>2022-04-04T12:34:44Z</time>
      </trkpt>
      <trkpt lat="46.70669" lon="5.88996">
        <ele>685</ele>
        <time>2022-04-04T12:34:49Z</time>
      </trkpt>
      <trkpt lat="46.70647" lon="5.89052">
        <ele>684</ele>
        <time>2022-04-04T12:34:57Z</time>
      </trkpt>
      <trkpt lat="46.70633" lon="5.89075">
        <ele>683</ele>
        <time>2022-04-04T12:35:01Z</time>
      </trkpt>
      <trkpt lat="46.7062" lon="5.89092">
        <ele>683</ele>
        <time>2022-04-04T12:35:04Z</time>
      </trkpt>
      <trkpt lat="46.70606" lon="5.89102">
        <ele>683</ele>
        <time>2022-04-04T12:35:06Z</time>
      </trkpt>
      <trkpt lat="46.70569" lon="5.89117">
        <ele>684</ele>
        <time>2022-04-04T12:35:13Z</time>
      </trkpt>
      <trkpt lat="46.70561" lon="5.89126">
        <ele>684</ele>
        <time>2022-04-04T12:35:15Z</time>
      </trkpt>
      <trkpt lat="46.70555" lon="5.89136">
        <ele>684</ele>
        <time>2022-04-04T12:35:17Z</time>
      </trkpt>
      <trkpt lat="46.70534" lon="5.8923">
        <ele>683</ele>
        <time>2022-04-04T12:35:29Z</time>
      </trkpt>
      <trkpt lat="46.70521" lon="5.89252">
        <ele>683</ele>
        <time>2022-04-04T12:35:32Z</time>
      </trkpt>
      <trkpt lat="46.70497" lon="5.89281">
        <ele>681</ele>
        <time>2022-04-04T12:35:38Z</time>
      </trkpt>
      <trkpt lat="46.70473" lon="5.89323">
        <ele>680</ele>
        <time>2022-04-04T12:35:45Z</time>
      </trkpt>
      <trkpt lat="46.70424" lon="5.89427">
        <ele>681</ele>
        <time>2022-04-04T12:36:00Z</time>
      </trkpt>
      <trkpt lat="46.7042" lon="5.89441">
        <ele>681</ele>
        <time>2022-04-04T12:36:02Z</time>
      </trkpt>
      <trkpt lat="46.70413" lon="5.89461">
        <ele>682</ele>
        <time>2022-04-04T12:36:05Z</time>
      </trkpt>
      <trkpt lat="46.70393" lon="5.89555">
        <ele>684</ele>
        <time>2022-04-04T12:36:17Z</time>
      </trkpt>
      <trkpt lat="46.70391" lon="5.8959">
        <ele>684</ele>
        <time>2022-04-04T12:36:21Z</time>
      </trkpt>
      <trkpt lat="46.70401" lon="5.89642">
        <ele>683</ele>
        <time>2022-04-04T12:36:27Z</time>
      </trkpt>
      <trkpt lat="46.70401" lon="5.89654">
        <ele>683</ele>
        <time>2022-04-04T12:36:29Z</time>
      </trkpt>
      <trkpt lat="46.70397" lon="5.8967">
        <ele>683</ele>
        <time>2022-04-04T12:36:31Z</time>
      </trkpt>
      <trkpt lat="46.70392" lon="5.89678">
        <ele>682</ele>
        <time>2022-04-04T12:36:32Z</time>
      </trkpt>
      <trkpt lat="46.70333" lon="5.89754">
        <ele>681</ele>
        <time>2022-04-04T12:36:46Z</time>
      </trkpt>
      <trkpt lat="46.70326" lon="5.89773">
        <ele>680</ele>
        <time>2022-04-04T12:36:49Z</time>
      </trkpt>
      <trkpt lat="46.70324" lon="5.89792">
        <ele>679</ele>
        <time>2022-04-04T12:36:51Z</time>
      </trkpt>
      <trkpt lat="46.70335" lon="5.90047">
        <ele>682</ele>
        <time>2022-04-04T12:37:22Z</time>
      </trkpt>
      <trkpt lat="46.70338" lon="5.90188">
        <ele>683</ele>
        <time>2022-04-04T12:37:40Z</time>
      </trkpt>
      <trkpt lat="46.7034" lon="5.90207">
        <ele>684</ele>
        <time>2022-04-04T12:37:42Z</time>
      </trkpt>
      <trkpt lat="46.70347" lon="5.90236">
        <ele>684</ele>
        <time>2022-04-04T12:37:46Z</time>
      </trkpt>
      <trkpt lat="46.70353" lon="5.90249">
        <ele>684</ele>
        <time>2022-04-04T12:37:48Z</time>
      </trkpt>
      <trkpt lat="46.70363" lon="5.90262">
        <ele>683</ele>
        <time>2022-04-04T12:37:50Z</time>
      </trkpt>
      <trkpt lat="46.70381" lon="5.90274">
        <ele>682</ele>
        <time>2022-04-04T12:37:54Z</time>
      </trkpt>
      <trkpt lat="46.70401" lon="5.90277">
        <ele>682</ele>
        <time>2022-04-04T12:37:57Z</time>
      </trkpt>
      <trkpt lat="46.70441" lon="5.9027">
        <ele>683</ele>
        <time>2022-04-04T12:38:04Z</time>
      </trkpt>
      <trkpt lat="46.70448" lon="5.90273">
        <ele>682</ele>
        <time>2022-04-04T12:38:06Z</time>
      </trkpt>
      <trkpt lat="46.70454" lon="5.90279">
        <ele>682</ele>
        <time>2022-04-04T12:38:07Z</time>
      </trkpt>
      <trkpt lat="46.70457" lon="5.90288">
        <ele>681</ele>
        <time>2022-04-04T12:38:08Z</time>
      </trkpt>
      <trkpt lat="46.70457" lon="5.90297">
        <ele>680</ele>
        <time>2022-04-04T12:38:09Z</time>
      </trkpt>
      <trkpt lat="46.70453" lon="5.90305">
        <ele>679</ele>
        <time>2022-04-04T12:38:10Z</time>
      </trkpt>
      <trkpt lat="46.70448" lon="5.90309">
        <ele>679</ele>
        <time>2022-04-04T12:38:11Z</time>
      </trkpt>
      <trkpt lat="46.70441" lon="5.90311">
        <ele>679</ele>
        <time>2022-04-04T12:38:13Z</time>
      </trkpt>
      <trkpt lat="46.70412" lon="5.9031">
        <ele>679</ele>
        <time>2022-04-04T12:38:18Z</time>
      </trkpt>
      <trkpt lat="46.70396" lon="5.90306">
        <ele>679</ele>
        <time>2022-04-04T12:38:21Z</time>
      </trkpt>
      <trkpt lat="46.70277" lon="5.90328">
        <ele>674</ele>
        <time>2022-04-04T12:38:42Z</time>
      </trkpt>
      <trkpt lat="46.70215" lon="5.90351">
        <ele>672</ele>
        <time>2022-04-04T12:38:54Z</time>
      </trkpt>
      <trkpt lat="46.70154" lon="5.90381">
        <ele>670</ele>
        <time>2022-04-04T12:39:05Z</time>
      </trkpt>
      <trkpt lat="46.70135" lon="5.90396">
        <ele>669</ele>
        <time>2022-04-04T12:39:09Z</time>
      </trkpt>
      <trkpt lat="46.7013" lon="5.90403">
        <ele>668</ele>
        <time>2022-04-04T12:39:10Z</time>
      </trkpt>
      <trkpt lat="46.70124" lon="5.90414">
        <ele>666</ele>
        <time>2022-04-04T12:39:12Z</time>
      </trkpt>
      <trkpt lat="46.70101" lon="5.90544">
        <ele>662</ele>
        <time>2022-04-04T12:39:28Z</time>
      </trkpt>
      <trkpt lat="46.70079" lon="5.90649">
        <ele>666</ele>
        <time>2022-04-04T12:39:42Z</time>
      </trkpt>
      <trkpt lat="46.70073" lon="5.90672">
        <ele>666</ele>
        <time>2022-04-04T12:39:45Z</time>
      </trkpt>
      <trkpt lat="46.70063" lon="5.90696">
        <ele>666</ele>
        <time>2022-04-04T12:39:48Z</time>
      </trkpt>
      <trkpt lat="46.70058" lon="5.907">
        <ele>666</ele>
        <time>2022-04-04T12:39:49Z</time>
      </trkpt>
      <trkpt lat="46.70036" lon="5.90709">
        <ele>666</ele>
        <time>2022-04-04T12:39:53Z</time>
      </trkpt>
      <trkpt lat="46.70034" lon="5.90707">
        <ele>666</ele>
        <time>2022-04-04T12:39:53Z</time>
      </trkpt>
      <trkpt lat="46.70026" lon="5.90706">
        <ele>666</ele>
        <time>2022-04-04T12:39:55Z</time>
      </trkpt>
      <trkpt lat="46.69988" lon="5.90708">
        <ele>666</ele>
        <time>2022-04-04T12:40:02Z</time>
      </trkpt>
      <trkpt lat="46.6995" lon="5.90714">
        <ele>666</ele>
        <time>2022-04-04T12:40:08Z</time>
      </trkpt>
      <trkpt lat="46.69878" lon="5.9073">
        <ele>667</ele>
        <time>2022-04-04T12:40:21Z</time>
      </trkpt>
      <trkpt lat="46.69826" lon="5.90726">
        <ele>668</ele>
        <time>2022-04-04T12:40:31Z</time>
      </trkpt>
      <trkpt lat="46.69743" lon="5.90708">
        <ele>675</ele>
        <time>2022-04-04T12:40:46Z</time>
      </trkpt>
      <trkpt lat="46.69602" lon="5.90732">
        <ele>682</ele>
        <time>2022-04-04T12:41:11Z</time>
      </trkpt>
      <trkpt lat="46.69506" lon="5.90761">
        <ele>684</ele>
        <time>2022-04-04T12:41:28Z</time>
      </trkpt>
      <trkpt lat="46.69447" lon="5.90775">
        <ele>689</ele>
        <time>2022-04-04T12:41:39Z</time>
      </trkpt>
      <trkpt lat="46.69422" lon="5.9079">
        <ele>688</ele>
        <time>2022-04-04T12:41:44Z</time>
      </trkpt>
      <trkpt lat="46.69394" lon="5.90824">
        <ele>684</ele>
        <time>2022-04-04T12:41:50Z</time>
      </trkpt>
      <trkpt lat="46.69344" lon="5.90851">
        <ele>686</ele>
        <time>2022-04-04T12:42:00Z</time>
      </trkpt>
      <trkpt lat="46.69318" lon="5.90853">
        <ele>690</ele>
        <time>2022-04-04T12:42:04Z</time>
      </trkpt>
      <trkpt lat="46.69287" lon="5.90836">
        <ele>699</ele>
        <time>2022-04-04T12:42:10Z</time>
      </trkpt>
      <trkpt lat="46.69251" lon="5.90826">
        <ele>709</ele>
        <time>2022-04-04T12:42:17Z</time>
      </trkpt>
      <trkpt lat="46.69223" lon="5.90837">
        <ele>710</ele>
        <time>2022-04-04T12:42:22Z</time>
      </trkpt>
      <trkpt lat="46.69204" lon="5.90851">
        <ele>711</ele>
        <time>2022-04-04T12:42:26Z</time>
      </trkpt>
      <trkpt lat="46.69195" lon="5.90865">
        <ele>710</ele>
        <time>2022-04-04T12:42:28Z</time>
      </trkpt>
      <trkpt lat="46.69175" lon="5.90917">
        <ele>703</ele>
        <time>2022-04-04T12:42:35Z</time>
      </trkpt>
      <trkpt lat="46.69162" lon="5.90946">
        <ele>702</ele>
        <time>2022-04-04T12:42:40Z</time>
      </trkpt>
      <trkpt lat="46.69149" lon="5.90962">
        <ele>701</ele>
        <time>2022-04-04T12:42:43Z</time>
      </trkpt>
      <trkpt lat="46.69107" lon="5.91">
        <ele>702</ele>
        <time>2022-04-04T12:42:51Z</time>
      </trkpt>
      <trkpt lat="46.68972" lon="5.91133">
        <ele>715</ele>
        <time>2022-04-04T12:43:20Z</time>
      </trkpt>
      <trkpt lat="46.68966" lon="5.91135">
        <ele>715</ele>
        <time>2022-04-04T12:43:21Z</time>
      </trkpt>
      <trkpt lat="46.68955" lon="5.9115">
        <ele>716</ele>
        <time>2022-04-04T12:43:24Z</time>
      </trkpt>
      <trkpt lat="46.68895" lon="5.91208">
        <ele>723</ele>
        <time>2022-04-04T12:43:37Z</time>
      </trkpt>
      <trkpt lat="46.68879" lon="5.91227">
        <ele>724</ele>
        <time>2022-04-04T12:43:41Z</time>
      </trkpt>
      <trkpt lat="46.68832" lon="5.91294">
        <ele>725</ele>
        <time>2022-04-04T12:43:52Z</time>
      </trkpt>
      <trkpt lat="46.68699" lon="5.91441">
        <ele>729</ele>
        <time>2022-04-04T12:44:22Z</time>
      </trkpt>
      <trkpt lat="46.68685" lon="5.91452">
        <ele>730</ele>
        <time>2022-04-04T12:44:25Z</time>
      </trkpt>
      <trkpt lat="46.68544" lon="5.91503">
        <ele>736</ele>
        <time>2022-04-04T12:44:51Z</time>
      </trkpt>
      <trkpt lat="46.68508" lon="5.91507">
        <ele>735</ele>
        <time>2022-04-04T12:44:57Z</time>
      </trkpt>
      <trkpt lat="46.6844" lon="5.91495">
        <ele>735</ele>
        <time>2022-04-04T12:45:09Z</time>
      </trkpt>
      <trkpt lat="46.68367" lon="5.91467">
        <ele>735</ele>
        <time>2022-04-04T12:45:23Z</time>
      </trkpt>
      <trkpt lat="46.68341" lon="5.91445">
        <ele>736</ele>
        <time>2022-04-04T12:45:28Z</time>
      </trkpt>
      <trkpt lat="46.68303" lon="5.91435">
        <ele>737</ele>
        <time>2022-04-04T12:45:35Z</time>
      </trkpt>
      <trkpt lat="46.6801" lon="5.91483">
        <ele>746</ele>
        <time>2022-04-04T12:46:27Z</time>
      </trkpt>
      <trkpt lat="46.67967" lon="5.91479">
        <ele>747</ele>
        <time>2022-04-04T12:46:35Z</time>
      </trkpt>
      <trkpt lat="46.67934" lon="5.91468">
        <ele>748</ele>
        <time>2022-04-04T12:46:41Z</time>
      </trkpt>
      <trkpt lat="46.67879" lon="5.91467">
        <ele>750</ele>
        <time>2022-04-04T12:46:51Z</time>
      </trkpt>
      <trkpt lat="46.67838" lon="5.91473">
        <ele>751</ele>
        <time>2022-04-04T12:46:58Z</time>
      </trkpt>
      <trkpt lat="46.67825" lon="5.91482">
        <ele>752</ele>
        <time>2022-04-04T12:47:01Z</time>
      </trkpt>
      <trkpt lat="46.67793" lon="5.9152">
        <ele>756</ele>
        <time>2022-04-04T12:47:08Z</time>
      </trkpt>
      <trkpt lat="46.67779" lon="5.9153">
        <ele>758</ele>
        <time>2022-04-04T12:47:11Z</time>
      </trkpt>
      <trkpt lat="46.67749" lon="5.9154">
        <ele>762</ele>
        <time>2022-04-04T12:47:16Z</time>
      </trkpt>
      <trkpt lat="46.67711" lon="5.91559">
        <ele>765</ele>
        <time>2022-04-04T12:47:24Z</time>
      </trkpt>
      <trkpt lat="46.67702" lon="5.91559">
        <ele>766</ele>
        <time>2022-04-04T12:47:25Z</time>
      </trkpt>
      <trkpt lat="46.67693" lon="5.91555">
        <ele>767</ele>
        <time>2022-04-04T12:47:27Z</time>
      </trkpt>
      <trkpt lat="46.67673" lon="5.91586">
        <ele>771</ele>
        <time>2022-04-04T12:47:32Z</time>
      </trkpt>
      <trkpt lat="46.67656" lon="5.91599">
        <ele>774</ele>
        <time>2022-04-04T12:47:35Z</time>
      </trkpt>
      <trkpt lat="46.67621" lon="5.91608">
        <ele>777</ele>
        <time>2022-04-04T12:47:42Z</time>
      </trkpt>
      <trkpt lat="46.67599" lon="5.9161">
        <ele>778</ele>
        <time>2022-04-04T12:47:46Z</time>
      </trkpt>
      <trkpt lat="46.67582" lon="5.91619">
        <ele>780</ele>
        <time>2022-04-04T12:47:49Z</time>
      </trkpt>
      <trkpt lat="46.67569" lon="5.91633">
        <ele>781</ele>
        <time>2022-04-04T12:47:52Z</time>
      </trkpt>
      <trkpt lat="46.67565" lon="5.91641">
        <ele>782</ele>
        <time>2022-04-04T12:47:53Z</time>
      </trkpt>
      <trkpt lat="46.67561" lon="5.91653">
        <ele>784</ele>
        <time>2022-04-04T12:47:55Z</time>
      </trkpt>
      <trkpt lat="46.67554" lon="5.91667">
        <ele>786</ele>
        <time>2022-04-04T12:47:57Z</time>
      </trkpt>
      <trkpt lat="46.67557" lon="5.91674">
        <ele>786</ele>
        <time>2022-04-04T12:47:58Z</time>
      </trkpt>
      <trkpt lat="46.6756" lon="5.91685">
        <ele>787</ele>
        <time>2022-04-04T12:47:59Z</time>
      </trkpt>
      <trkpt lat="46.67559" lon="5.91697">
        <ele>788</ele>
        <time>2022-04-04T12:48:01Z</time>
      </trkpt>
      <trkpt lat="46.67553" lon="5.91709">
        <ele>788</ele>
        <time>2022-04-04T12:48:02Z</time>
      </trkpt>
      <trkpt lat="46.67535" lon="5.91717">
        <ele>789</ele>
        <time>2022-04-04T12:48:06Z</time>
      </trkpt>
      <trkpt lat="46.67487" lon="5.91712">
        <ele>789</ele>
        <time>2022-04-04T12:48:14Z</time>
      </trkpt>
      <trkpt lat="46.67467" lon="5.91705">
        <ele>789</ele>
        <time>2022-04-04T12:48:18Z</time>
      </trkpt>
      <trkpt lat="46.67426" lon="5.91679">
        <ele>790</ele>
        <time>2022-04-04T12:48:26Z</time>
      </trkpt>
      <trkpt lat="46.67405" lon="5.9166">
        <ele>790</ele>
        <time>2022-04-04T12:48:30Z</time>
      </trkpt>
      <trkpt lat="46.67354" lon="5.91582">
        <ele>790</ele>
        <time>2022-04-04T12:48:44Z</time>
      </trkpt>
      <trkpt lat="46.67328" lon="5.91576">
        <ele>791</ele>
        <time>2022-04-04T12:48:48Z</time>
      </trkpt>
      <trkpt lat="46.67287" lon="5.91581">
        <ele>791</ele>
        <time>2022-04-04T12:48:56Z</time>
      </trkpt>
      <trkpt lat="46.67257" lon="5.9158">
        <ele>790</ele>
        <time>2022-04-04T12:49:01Z</time>
      </trkpt>
      <trkpt lat="46.67193" lon="5.91585">
        <ele>796</ele>
        <time>2022-04-04T12:49:12Z</time>
      </trkpt>
      <trkpt lat="46.67143" lon="5.91585">
        <ele>799</ele>
        <time>2022-04-04T12:49:21Z</time>
      </trkpt>
      <trkpt lat="46.67111" lon="5.91591">
        <ele>799</ele>
        <time>2022-04-04T12:49:27Z</time>
      </trkpt>
      <trkpt lat="46.67085" lon="5.91601">
        <ele>799</ele>
        <time>2022-04-04T12:49:32Z</time>
      </trkpt>
      <trkpt lat="46.67069" lon="5.91611">
        <ele>799</ele>
        <time>2022-04-04T12:49:35Z</time>
      </trkpt>
      <trkpt lat="46.67024" lon="5.91647">
        <ele>798</ele>
        <time>2022-04-04T12:49:44Z</time>
      </trkpt>
      <trkpt lat="46.66919" lon="5.91743">
        <ele>796</ele>
        <time>2022-04-04T12:50:06Z</time>
      </trkpt>
      <trkpt lat="46.66908" lon="5.91756">
        <ele>796</ele>
        <time>2022-04-04T12:50:09Z</time>
      </trkpt>
      <trkpt lat="46.66898" lon="5.9177">
        <ele>796</ele>
        <time>2022-04-04T12:50:11Z</time>
      </trkpt>
      <trkpt lat="46.66852" lon="5.9187">
        <ele>794</ele>
        <time>2022-04-04T12:50:26Z</time>
      </trkpt>
      <trkpt lat="46.6685" lon="5.91881">
        <ele>793</ele>
        <time>2022-04-04T12:50:27Z</time>
      </trkpt>
      <trkpt lat="46.66851" lon="5.91896">
        <ele>792</ele>
        <time>2022-04-04T12:50:29Z</time>
      </trkpt>
      <trkpt lat="46.66855" lon="5.91908">
        <ele>792</ele>
        <time>2022-04-04T12:50:31Z</time>
      </trkpt>
      <trkpt lat="46.66866" lon="5.9192">
        <ele>792</ele>
        <time>2022-04-04T12:50:33Z</time>
      </trkpt>
      <trkpt lat="46.66926" lon="5.91962">
        <ele>797</ele>
        <time>2022-04-04T12:50:45Z</time>
      </trkpt>
      <trkpt lat="46.66935" lon="5.91974">
        <ele>797</ele>
        <time>2022-04-04T12:50:47Z</time>
      </trkpt>
      <trkpt lat="46.66939" lon="5.91984">
        <ele>797</ele>
        <time>2022-04-04T12:50:48Z</time>
      </trkpt>
      <trkpt lat="46.66942" lon="5.92006">
        <ele>797</ele>
        <time>2022-04-04T12:50:51Z</time>
      </trkpt>
      <trkpt lat="46.66939" lon="5.92026">
        <ele>798</ele>
        <time>2022-04-04T12:50:54Z</time>
      </trkpt>
      <trkpt lat="46.66935" lon="5.92036">
        <ele>798</ele>
        <time>2022-04-04T12:50:55Z</time>
      </trkpt>
      <trkpt lat="46.66927" lon="5.9205">
        <ele>798</ele>
        <time>2022-04-04T12:50:57Z</time>
      </trkpt>
      <trkpt lat="46.66889" lon="5.92078">
        <ele>793</ele>
        <time>2022-04-04T12:51:05Z</time>
      </trkpt>
      <trkpt lat="46.66882" lon="5.92086">
        <ele>793</ele>
        <time>2022-04-04T12:51:06Z</time>
      </trkpt>
      <trkpt lat="46.66877" lon="5.92094">
        <ele>793</ele>
        <time>2022-04-04T12:51:08Z</time>
      </trkpt>
      <trkpt lat="46.66874" lon="5.92105">
        <ele>793</ele>
        <time>2022-04-04T12:51:09Z</time>
      </trkpt>
      <trkpt lat="46.66866" lon="5.92145">
        <ele>795</ele>
        <time>2022-04-04T12:51:14Z</time>
      </trkpt>
      <trkpt lat="46.66858" lon="5.92164">
        <ele>796</ele>
        <time>2022-04-04T12:51:17Z</time>
      </trkpt>
      <trkpt lat="46.6685" lon="5.92179">
        <ele>796</ele>
        <time>2022-04-04T12:51:19Z</time>
      </trkpt>
      <trkpt lat="46.66824" lon="5.92211">
        <ele>795</ele>
        <time>2022-04-04T12:51:25Z</time>
      </trkpt>
      <trkpt lat="46.66797" lon="5.92249">
        <ele>795</ele>
        <time>2022-04-04T12:51:32Z</time>
      </trkpt>
      <trkpt lat="46.66779" lon="5.92279">
        <ele>795</ele>
        <time>2022-04-04T12:51:37Z</time>
      </trkpt>
      <trkpt lat="46.66733" lon="5.92348">
        <ele>798</ele>
        <time>2022-04-04T12:51:49Z</time>
      </trkpt>
      <trkpt lat="46.66684" lon="5.92369">
        <ele>797</ele>
        <time>2022-04-04T12:51:58Z</time>
      </trkpt>
      <trkpt lat="46.66558" lon="5.92385">
        <ele>800</ele>
        <time>2022-04-04T12:52:20Z</time>
      </trkpt>
      <trkpt lat="46.6639" lon="5.92422">
        <ele>798</ele>
        <time>2022-04-04T12:52:51Z</time>
      </trkpt>
      <trkpt lat="46.66374" lon="5.92423">
        <ele>797</ele>
        <time>2022-04-04T12:52:53Z</time>
      </trkpt>
      <trkpt lat="46.6634" lon="5.92416">
        <ele>797</ele>
        <time>2022-04-04T12:52:59Z</time>
      </trkpt>
      <trkpt lat="46.66316" lon="5.92415">
        <ele>797</ele>
        <time>2022-04-04T12:53:04Z</time>
      </trkpt>
      <trkpt lat="46.6628" lon="5.92418">
        <ele>798</ele>
        <time>2022-04-04T12:53:10Z</time>
      </trkpt>
      <trkpt lat="46.66261" lon="5.92425">
        <ele>798</ele>
        <time>2022-04-04T12:53:14Z</time>
      </trkpt>
      <trkpt lat="46.66249" lon="5.92434">
        <ele>798</ele>
        <time>2022-04-04T12:53:16Z</time>
      </trkpt>
      <trkpt lat="46.66238" lon="5.92449">
        <ele>799</ele>
        <time>2022-04-04T12:53:19Z</time>
      </trkpt>
      <trkpt lat="46.6623" lon="5.92464">
        <ele>799</ele>
        <time>2022-04-04T12:53:21Z</time>
      </trkpt>
      <trkpt lat="46.66219" lon="5.92493">
        <ele>799</ele>
        <time>2022-04-04T12:53:25Z</time>
      </trkpt>
      <trkpt lat="46.66189" lon="5.92582">
        <ele>800</ele>
        <time>2022-04-04T12:53:37Z</time>
      </trkpt>
      <trkpt lat="46.66179" lon="5.92596">
        <ele>801</ele>
        <time>2022-04-04T12:53:40Z</time>
      </trkpt>
      <trkpt lat="46.66125" lon="5.92624">
        <ele>800</ele>
        <time>2022-04-04T12:53:50Z</time>
      </trkpt>
      <trkpt lat="46.66116" lon="5.9263">
        <ele>799</ele>
        <time>2022-04-04T12:53:52Z</time>
      </trkpt>
      <trkpt lat="46.66106" lon="5.92645">
        <ele>798</ele>
        <time>2022-04-04T12:53:54Z</time>
      </trkpt>
      <trkpt lat="46.66099" lon="5.92662">
        <ele>796</ele>
        <time>2022-04-04T12:53:57Z</time>
      </trkpt>
      <trkpt lat="46.66084" lon="5.92751">
        <ele>799</ele>
        <time>2022-04-04T12:54:08Z</time>
      </trkpt>
      <trkpt lat="46.66076" lon="5.92789">
        <ele>800</ele>
        <time>2022-04-04T12:54:13Z</time>
      </trkpt>
      <trkpt lat="46.66071" lon="5.92807">
        <ele>800</ele>
        <time>2022-04-04T12:54:15Z</time>
      </trkpt>
      <trkpt lat="46.66063" lon="5.92825">
        <ele>801</ele>
        <time>2022-04-04T12:54:18Z</time>
      </trkpt>
      <trkpt lat="46.66004" lon="5.92894">
        <ele>804</ele>
        <time>2022-04-04T12:54:31Z</time>
      </trkpt>
      <trkpt lat="46.65983" lon="5.92921">
        <ele>806</ele>
        <time>2022-04-04T12:54:36Z</time>
      </trkpt>
      <trkpt lat="46.65969" lon="5.92947">
        <ele>808</ele>
        <time>2022-04-04T12:54:40Z</time>
      </trkpt>
      <trkpt lat="46.65956" lon="5.92966">
        <ele>810</ele>
        <time>2022-04-04T12:54:43Z</time>
      </trkpt>
      <trkpt lat="46.65944" lon="5.92971">
        <ele>810</ele>
        <time>2022-04-04T12:54:46Z</time>
      </trkpt>
      <trkpt lat="46.65914" lon="5.92966">
        <ele>810</ele>
        <time>2022-04-04T12:54:51Z</time>
      </trkpt>
      <trkpt lat="46.65845" lon="5.92944">
        <ele>810</ele>
        <time>2022-04-04T12:55:04Z</time>
      </trkpt>
      <trkpt lat="46.65766" lon="5.92927">
        <ele>808</ele>
        <time>2022-04-04T12:55:18Z</time>
      </trkpt>
      <trkpt lat="46.65721" lon="5.92925">
        <ele>807</ele>
        <time>2022-04-04T12:55:26Z</time>
      </trkpt>
      <trkpt lat="46.65701" lon="5.92928">
        <ele>807</ele>
        <time>2022-04-04T12:55:29Z</time>
      </trkpt>
      <trkpt lat="46.65681" lon="5.92938">
        <ele>806</ele>
        <time>2022-04-04T12:55:33Z</time>
      </trkpt>
      <trkpt lat="46.65663" lon="5.92949">
        <ele>804</ele>
        <time>2022-04-04T12:55:37Z</time>
      </trkpt>
      <trkpt lat="46.65647" lon="5.92966">
        <ele>801</ele>
        <time>2022-04-04T12:55:40Z</time>
      </trkpt>
      <trkpt lat="46.6564" lon="5.92981">
        <ele>798</ele>
        <time>2022-04-04T12:55:42Z</time>
      </trkpt>
      <trkpt lat="46.65638" lon="5.93007">
        <ele>795</ele>
        <time>2022-04-04T12:55:46Z</time>
      </trkpt>
      <trkpt lat="46.6564" lon="5.93029">
        <ele>792</ele>
        <time>2022-04-04T12:55:48Z</time>
      </trkpt>
      <trkpt lat="46.65646" lon="5.9305">
        <ele>789</ele>
        <time>2022-04-04T12:55:51Z</time>
      </trkpt>
      <trkpt lat="46.65655" lon="5.93067">
        <ele>788</ele>
        <time>2022-04-04T12:55:54Z</time>
      </trkpt>
      <trkpt lat="46.65661" lon="5.93072">
        <ele>788</ele>
        <time>2022-04-04T12:55:55Z</time>
      </trkpt>
      <trkpt lat="46.6567" lon="5.93079">
        <ele>788</ele>
        <time>2022-04-04T12:55:57Z</time>
      </trkpt>
      <trkpt lat="46.65722" lon="5.93106">
        <ele>790</ele>
        <time>2022-04-04T12:56:07Z</time>
      </trkpt>
      <trkpt lat="46.65742" lon="5.93123">
        <ele>788</ele>
        <time>2022-04-04T12:56:11Z</time>
      </trkpt>
      <trkpt lat="46.65781" lon="5.93177">
        <ele>785</ele>
        <time>2022-04-04T12:56:20Z</time>
      </trkpt>
      <trkpt lat="46.65834" lon="5.9323">
        <ele>788</ele>
        <time>2022-04-04T12:56:32Z</time>
      </trkpt>
      <trkpt lat="46.65847" lon="5.93247">
        <ele>788</ele>
        <time>2022-04-04T12:56:35Z</time>
      </trkpt>
      <trkpt lat="46.65859" lon="5.93266">
        <ele>787</ele>
        <time>2022-04-04T12:56:38Z</time>
      </trkpt>
      <trkpt lat="46.65879" lon="5.93327">
        <ele>779</ele>
        <time>2022-04-04T12:56:46Z</time>
      </trkpt>
      <trkpt lat="46.6589" lon="5.93348">
        <ele>778</ele>
        <time>2022-04-04T12:56:49Z</time>
      </trkpt>
      <trkpt lat="46.65907" lon="5.93373">
        <ele>777</ele>
        <time>2022-04-04T12:56:54Z</time>
      </trkpt>
      <trkpt lat="46.65944" lon="5.93421">
        <ele>774</ele>
        <time>2022-04-04T12:57:03Z</time>
      </trkpt>
      <trkpt lat="46.65981" lon="5.93461">
        <ele>775</ele>
        <time>2022-04-04T12:57:11Z</time>
      </trkpt>
      <trkpt lat="46.6599" lon="5.93474">
        <ele>774</ele>
        <time>2022-04-04T12:57:13Z</time>
      </trkpt>
      <trkpt lat="46.65998" lon="5.93492">
        <ele>772</ele>
        <time>2022-04-04T12:57:16Z</time>
      </trkpt>
      <trkpt lat="46.66" lon="5.93505">
        <ele>771</ele>
        <time>2022-04-04T12:57:17Z</time>
      </trkpt>
      <trkpt lat="46.65999" lon="5.93534">
        <ele>768</ele>
        <time>2022-04-04T12:57:21Z</time>
      </trkpt>
      <trkpt lat="46.65998" lon="5.93541">
        <ele>767</ele>
        <time>2022-04-04T12:57:22Z</time>
      </trkpt>
      <trkpt lat="46.65987" lon="5.93553">
        <ele>767</ele>
        <time>2022-04-04T12:57:24Z</time>
      </trkpt>
      <trkpt lat="46.65966" lon="5.93563">
        <ele>768</ele>
        <time>2022-04-04T12:57:28Z</time>
      </trkpt>
      <trkpt lat="46.65907" lon="5.93581">
        <ele>774</ele>
        <time>2022-04-04T12:57:39Z</time>
      </trkpt>
      <trkpt lat="46.65894" lon="5.9358">
        <ele>775</ele>
        <time>2022-04-04T12:57:41Z</time>
      </trkpt>
      <trkpt lat="46.65845" lon="5.93556">
        <ele>776</ele>
        <time>2022-04-04T12:57:50Z</time>
      </trkpt>
      <trkpt lat="46.65785" lon="5.93546">
        <ele>778</ele>
        <time>2022-04-04T12:58:01Z</time>
      </trkpt>
      <trkpt lat="46.65762" lon="5.93536">
        <ele>777</ele>
        <time>2022-04-04T12:58:05Z</time>
      </trkpt>
      <trkpt lat="46.65736" lon="5.93528">
        <ele>777</ele>
        <time>2022-04-04T12:58:10Z</time>
      </trkpt>
      <trkpt lat="46.65725" lon="5.93529">
        <ele>777</ele>
        <time>2022-04-04T12:58:12Z</time>
      </trkpt>
      <trkpt lat="46.65709" lon="5.93538">
        <ele>777</ele>
        <time>2022-04-04T12:58:15Z</time>
      </trkpt>
      <trkpt lat="46.65693" lon="5.93563">
        <ele>779</ele>
        <time>2022-04-04T12:58:19Z</time>
      </trkpt>
      <trkpt lat="46.65678" lon="5.93598">
        <ele>781</ele>
        <time>2022-04-04T12:58:24Z</time>
      </trkpt>
      <trkpt lat="46.65669" lon="5.93631">
        <ele>781</ele>
        <time>2022-04-04T12:58:29Z</time>
      </trkpt>
      <trkpt lat="46.65665" lon="5.93657">
        <ele>780</ele>
        <time>2022-04-04T12:58:32Z</time>
      </trkpt>
      <trkpt lat="46.65663" lon="5.93681">
        <ele>780</ele>
        <time>2022-04-04T12:58:35Z</time>
      </trkpt>
      <trkpt lat="46.65668" lon="5.9372">
        <ele>781</ele>
        <time>2022-04-04T12:58:40Z</time>
      </trkpt>
      <trkpt lat="46.65669" lon="5.93754">
        <ele>782</ele>
        <time>2022-04-04T12:58:44Z</time>
      </trkpt>
      <trkpt lat="46.65668" lon="5.93774">
        <ele>782</ele>
        <time>2022-04-04T12:58:46Z</time>
      </trkpt>
      <trkpt lat="46.65661" lon="5.93809">
        <ele>781</ele>
        <time>2022-04-04T12:58:51Z</time>
      </trkpt>
      <trkpt lat="46.65634" lon="5.93883">
        <ele>771</ele>
        <time>2022-04-04T12:59:01Z</time>
      </trkpt>
      <trkpt lat="46.65631" lon="5.93898">
        <ele>768</ele>
        <time>2022-04-04T12:59:03Z</time>
      </trkpt>
      <trkpt lat="46.65631" lon="5.93912">
        <ele>766</ele>
        <time>2022-04-04T12:59:05Z</time>
      </trkpt>
      <trkpt lat="46.65634" lon="5.93945">
        <ele>761</ele>
        <time>2022-04-04T12:59:09Z</time>
      </trkpt>
      <trkpt lat="46.65641" lon="5.93972">
        <ele>757</ele>
        <time>2022-04-04T12:59:12Z</time>
      </trkpt>
      <trkpt lat="46.65681" lon="5.94051">
        <ele>752</ele>
        <time>2022-04-04T12:59:24Z</time>
      </trkpt>
      <trkpt lat="46.65693" lon="5.9408">
        <ele>750</ele>
        <time>2022-04-04T12:59:28Z</time>
      </trkpt>
      <trkpt lat="46.65698" lon="5.94102">
        <ele>749</ele>
        <time>2022-04-04T12:59:31Z</time>
      </trkpt>
      <trkpt lat="46.657" lon="5.94126">
        <ele>746</ele>
        <time>2022-04-04T12:59:34Z</time>
      </trkpt>
      <trkpt lat="46.657" lon="5.9414">
        <ele>745</ele>
        <time>2022-04-04T12:59:36Z</time>
      </trkpt>
      <trkpt lat="46.65696" lon="5.94165">
        <ele>741</ele>
        <time>2022-04-04T12:59:39Z</time>
      </trkpt>
      <trkpt lat="46.65691" lon="5.94182">
        <ele>739</ele>
        <time>2022-04-04T12:59:41Z</time>
      </trkpt>
      <trkpt lat="46.65684" lon="5.94199">
        <ele>736</ele>
        <time>2022-04-04T12:59:44Z</time>
      </trkpt>
      <trkpt lat="46.65675" lon="5.94209">
        <ele>734</ele>
        <time>2022-04-04T12:59:46Z</time>
      </trkpt>
      <trkpt lat="46.65663" lon="5.94215">
        <ele>732</ele>
        <time>2022-04-04T12:59:48Z</time>
      </trkpt>
      <trkpt lat="46.65673" lon="5.94272">
        <ele>729</ele>
        <time>2022-04-04T12:59:55Z</time>
      </trkpt>
      <trkpt lat="46.65648" lon="5.94265">
        <ele>726</ele>
        <time>2022-04-04T13:00:00Z</time>
      </trkpt>
      <trkpt lat="46.65644" lon="5.94265">
        <ele>725</ele>
        <time>2022-04-04T13:00:00Z</time>
      </trkpt>
      <trkpt lat="46.65626" lon="5.94274">
        <ele>722</ele>
        <time>2022-04-04T13:00:04Z</time>
      </trkpt>
      <trkpt lat="46.65614" lon="5.94272">
        <ele>720</ele>
        <time>2022-04-04T13:00:06Z</time>
      </trkpt>
      <trkpt lat="46.65605" lon="5.94261">
        <ele>719</ele>
        <time>2022-04-04T13:00:08Z</time>
      </trkpt>
      <trkpt lat="46.65563" lon="5.94194">
        <ele>717</ele>
        <time>2022-04-04T13:00:19Z</time>
      </trkpt>
      <trkpt lat="46.65554" lon="5.94189">
        <ele>717</ele>
        <time>2022-04-04T13:00:21Z</time>
      </trkpt>
      <trkpt lat="46.65548" lon="5.94192">
        <ele>716</ele>
        <time>2022-04-04T13:00:22Z</time>
      </trkpt>
      <trkpt lat="46.65576" lon="5.94262">
        <ele>715</ele>
        <time>2022-04-04T13:00:32Z</time>
      </trkpt>
      <trkpt lat="46.65592" lon="5.94291">
        <ele>716</ele>
        <time>2022-04-04T13:00:36Z</time>
      </trkpt>
      <trkpt lat="46.65607" lon="5.94309">
        <ele>717</ele>
        <time>2022-04-04T13:00:40Z</time>
      </trkpt>
      <trkpt lat="46.656" lon="5.94321">
        <ele>715</ele>
        <time>2022-04-04T13:00:42Z</time>
      </trkpt>
      <trkpt lat="46.65596" lon="5.94334">
        <ele>714</ele>
        <time>2022-04-04T13:00:43Z</time>
      </trkpt>
      <trkpt lat="46.65584" lon="5.94384">
        <ele>713</ele>
        <time>2022-04-04T13:00:50Z</time>
      </trkpt>
      <trkpt lat="46.65573" lon="5.9443">
        <ele>713</ele>
        <time>2022-04-04T13:00:56Z</time>
      </trkpt>
      <trkpt lat="46.65563" lon="5.94489">
        <ele>714</ele>
        <time>2022-04-04T13:01:03Z</time>
      </trkpt>
      <trkpt lat="46.65588" lon="5.94817">
        <ele>720</ele>
        <time>2022-04-04T13:01:43Z</time>
      </trkpt>
      <trkpt lat="46.65593" lon="5.94906">
        <ele>724</ele>
        <time>2022-04-04T13:01:54Z</time>
      </trkpt>
      <trkpt lat="46.65596" lon="5.94977">
        <ele>725</ele>
        <time>2022-04-04T13:02:03Z</time>
      </trkpt>
      <trkpt lat="46.65592" lon="5.95013">
        <ele>725</ele>
        <time>2022-04-04T13:02:08Z</time>
      </trkpt>
      <trkpt lat="46.65586" lon="5.9504">
        <ele>726</ele>
        <time>2022-04-04T13:02:11Z</time>
      </trkpt>
      <trkpt lat="46.65574" lon="5.95071">
        <ele>729</ele>
        <time>2022-04-04T13:02:15Z</time>
      </trkpt>
      <trkpt lat="46.65552" lon="5.95114">
        <ele>734</ele>
        <time>2022-04-04T13:02:22Z</time>
      </trkpt>
      <trkpt lat="46.65544" lon="5.95135">
        <ele>736</ele>
        <time>2022-04-04T13:02:25Z</time>
      </trkpt>
      <trkpt lat="46.65539" lon="5.95154">
        <ele>737</ele>
        <time>2022-04-04T13:02:27Z</time>
      </trkpt>
      <trkpt lat="46.65537" lon="5.95183">
        <ele>738</ele>
        <time>2022-04-04T13:02:31Z</time>
      </trkpt>
      <trkpt lat="46.6554" lon="5.95214">
        <ele>739</ele>
        <time>2022-04-04T13:02:35Z</time>
      </trkpt>
      <trkpt lat="46.65575" lon="5.95393">
        <ele>742</ele>
        <time>2022-04-04T13:02:57Z</time>
      </trkpt>
      <trkpt lat="46.65581" lon="5.95444">
        <ele>743</ele>
        <time>2022-04-04T13:03:04Z</time>
      </trkpt>
      <trkpt lat="46.65579" lon="5.95619">
        <ele>746</ele>
        <time>2022-04-04T13:03:25Z</time>
      </trkpt>
      <trkpt lat="46.6558" lon="5.95655">
        <ele>746</ele>
        <time>2022-04-04T13:03:30Z</time>
      </trkpt>
      <trkpt lat="46.6559" lon="5.95753">
        <ele>746</ele>
        <time>2022-04-04T13:03:42Z</time>
      </trkpt>
      <trkpt lat="46.65598" lon="5.95795">
        <ele>747</ele>
        <time>2022-04-04T13:03:47Z</time>
      </trkpt>
      <trkpt lat="46.65607" lon="5.95821">
        <ele>748</ele>
        <time>2022-04-04T13:03:50Z</time>
      </trkpt>
      <trkpt lat="46.65623" lon="5.95845">
        <ele>749</ele>
        <time>2022-04-04T13:03:55Z</time>
      </trkpt>
      <trkpt lat="46.65654" lon="5.95877">
        <ele>750</ele>
        <time>2022-04-04T13:04:01Z</time>
      </trkpt>
      <trkpt lat="46.65738" lon="5.9595">
        <ele>753</ele>
        <time>2022-04-04T13:04:19Z</time>
      </trkpt>
      <trkpt lat="46.65832" lon="5.96039">
        <ele>759</ele>
        <time>2022-04-04T13:04:39Z</time>
      </trkpt>
      <trkpt lat="46.65841" lon="5.96057">
        <ele>760</ele>
        <time>2022-04-04T13:04:41Z</time>
      </trkpt>
      <trkpt lat="46.65845" lon="5.96071">
        <ele>761</ele>
        <time>2022-04-04T13:04:43Z</time>
      </trkpt>
      <trkpt lat="46.65868" lon="5.96236">
        <ele>766</ele>
        <time>2022-04-04T13:05:04Z</time>
      </trkpt>
      <trkpt lat="46.65869" lon="5.9626">
        <ele>768</ele>
        <time>2022-04-04T13:05:07Z</time>
      </trkpt>
      <trkpt lat="46.65864" lon="5.96275">
        <ele>769</ele>
        <time>2022-04-04T13:05:09Z</time>
      </trkpt>
      <trkpt lat="46.65855" lon="5.96286">
        <ele>769</ele>
        <time>2022-04-04T13:05:11Z</time>
      </trkpt>
      <trkpt lat="46.65794" lon="5.96337">
        <ele>771</ele>
        <time>2022-04-04T13:05:23Z</time>
      </trkpt>
      <trkpt lat="46.65779" lon="5.96352">
        <ele>772</ele>
        <time>2022-04-04T13:05:27Z</time>
      </trkpt>
      <trkpt lat="46.65771" lon="5.96363">
        <ele>772</ele>
        <time>2022-04-04T13:05:29Z</time>
      </trkpt>
      <trkpt lat="46.65765" lon="5.96385">
        <ele>773</ele>
        <time>2022-04-04T13:05:31Z</time>
      </trkpt>
      <trkpt lat="46.6576" lon="5.96441">
        <ele>774</ele>
        <time>2022-04-04T13:05:38Z</time>
      </trkpt>
      <trkpt lat="46.65763" lon="5.96494">
        <ele>775</ele>
        <time>2022-04-04T13:05:45Z</time>
      </trkpt>
      <trkpt lat="46.6571" lon="5.96523">
        <ele>768</ele>
        <time>2022-04-04T13:05:55Z</time>
      </trkpt>
      <trkpt lat="46.65687" lon="5.96539">
        <ele>765</ele>
        <time>2022-04-04T13:05:59Z</time>
      </trkpt>
      <trkpt lat="46.6565" lon="5.96499">
        <ele>759</ele>
        <time>2022-04-04T13:06:08Z</time>
      </trkpt>
      <trkpt lat="46.65625" lon="5.96477">
        <ele>755</ele>
        <time>2022-04-04T13:06:13Z</time>
      </trkpt>
      <trkpt lat="46.65595" lon="5.96454">
        <ele>752</ele>
        <time>2022-04-04T13:06:19Z</time>
      </trkpt>
      <trkpt lat="46.65572" lon="5.9644">
        <ele>752</ele>
        <time>2022-04-04T13:06:23Z</time>
      </trkpt>
      <trkpt lat="46.65557" lon="5.96434">
        <ele>753</ele>
        <time>2022-04-04T13:06:26Z</time>
      </trkpt>
      <trkpt lat="46.65545" lon="5.96432">
        <ele>754</ele>
        <time>2022-04-04T13:06:28Z</time>
      </trkpt>
      <trkpt lat="46.65538" lon="5.96434">
        <ele>754</ele>
        <time>2022-04-04T13:06:30Z</time>
      </trkpt>
      <trkpt lat="46.65524" lon="5.96494">
        <ele>747</ele>
        <time>2022-04-04T13:06:37Z</time>
      </trkpt>
      <trkpt lat="46.6551" lon="5.96507">
        <ele>745</ele>
        <time>2022-04-04T13:06:40Z</time>
      </trkpt>
      <trkpt lat="46.655" lon="5.96496">
        <ele>746</ele>
        <time>2022-04-04T13:06:42Z</time>
      </trkpt>
      <trkpt lat="46.65489" lon="5.96491">
        <ele>747</ele>
        <time>2022-04-04T13:06:44Z</time>
      </trkpt>
      <trkpt lat="46.65446" lon="5.96486">
        <ele>753</ele>
        <time>2022-04-04T13:06:52Z</time>
      </trkpt>
      <trkpt lat="46.65427" lon="5.96496">
        <ele>750</ele>
        <time>2022-04-04T13:06:56Z</time>
      </trkpt>
      <trkpt lat="46.65358" lon="5.96527">
        <ele>752</ele>
        <time>2022-04-04T13:07:09Z</time>
      </trkpt>
      <trkpt lat="46.65316" lon="5.96542">
        <ele>753</ele>
        <time>2022-04-04T13:07:16Z</time>
      </trkpt>
      <trkpt lat="46.65298" lon="5.96547">
        <ele>753</ele>
        <time>2022-04-04T13:07:20Z</time>
      </trkpt>
      <trkpt lat="46.65279" lon="5.96547">
        <ele>753</ele>
        <time>2022-04-04T13:07:23Z</time>
      </trkpt>
      <trkpt lat="46.65222" lon="5.96538">
        <ele>756</ele>
        <time>2022-04-04T13:07:33Z</time>
      </trkpt>
      <trkpt lat="46.65213" lon="5.96538">
        <ele>755</ele>
        <time>2022-04-04T13:07:35Z</time>
      </trkpt>
      <trkpt lat="46.65191" lon="5.96545">
        <ele>754</ele>
        <time>2022-04-04T13:07:39Z</time>
      </trkpt>
      <trkpt lat="46.6514" lon="5.96544">
        <ele>755</ele>
        <time>2022-04-04T13:07:48Z</time>
      </trkpt>
      <trkpt lat="46.65093" lon="5.96572">
        <ele>760</ele>
        <time>2022-04-04T13:07:57Z</time>
      </trkpt>
      <trkpt lat="46.65078" lon="5.96585">
        <ele>766</ele>
        <time>2022-04-04T13:08:00Z</time>
      </trkpt>
      <trkpt lat="46.65069" lon="5.96612">
        <ele>774</ele>
        <time>2022-04-04T13:08:04Z</time>
      </trkpt>
      <trkpt lat="46.65069" lon="5.96623">
        <ele>776</ele>
        <time>2022-04-04T13:08:05Z</time>
      </trkpt>
      <trkpt lat="46.65074" lon="5.96667">
        <ele>780</ele>
        <time>2022-04-04T13:08:10Z</time>
      </trkpt>
      <trkpt lat="46.65084" lon="5.9671">
        <ele>784</ele>
        <time>2022-04-04T13:08:16Z</time>
      </trkpt>
      <trkpt lat="46.65095" lon="5.96744">
        <ele>786</ele>
        <time>2022-04-04T13:08:21Z</time>
      </trkpt>
      <trkpt lat="46.65095" lon="5.96793">
        <ele>790</ele>
        <time>2022-04-04T13:08:27Z</time>
      </trkpt>
      <trkpt lat="46.65092" lon="5.96813">
        <ele>793</ele>
        <time>2022-04-04T13:08:29Z</time>
      </trkpt>
      <trkpt lat="46.65086" lon="5.96906">
        <ele>798</ele>
        <time>2022-04-04T13:08:40Z</time>
      </trkpt>
      <trkpt lat="46.65081" lon="5.96941">
        <ele>804</ele>
        <time>2022-04-04T13:08:45Z</time>
      </trkpt>
      <trkpt lat="46.65081" lon="5.9699">
        <ele>808</ele>
        <time>2022-04-04T13:08:51Z</time>
      </trkpt>
      <trkpt lat="46.65077" lon="5.97054">
        <ele>810</ele>
        <time>2022-04-04T13:08:59Z</time>
      </trkpt>
      <trkpt lat="46.65076" lon="5.97127">
        <ele>813</ele>
        <time>2022-04-04T13:09:08Z</time>
      </trkpt>
      <trkpt lat="46.65083" lon="5.97235">
        <ele>816</ele>
        <time>2022-04-04T13:09:21Z</time>
      </trkpt>
      <trkpt lat="46.65081" lon="5.97242">
        <ele>817</ele>
        <time>2022-04-04T13:09:22Z</time>
      </trkpt>
      <trkpt lat="46.65061" lon="5.97253">
        <ele>819</ele>
        <time>2022-04-04T13:09:26Z</time>
      </trkpt>
      <trkpt lat="46.65042" lon="5.97256">
        <ele>820</ele>
        <time>2022-04-04T13:09:29Z</time>
      </trkpt>
      <trkpt lat="46.65005" lon="5.97271">
        <ele>820</ele>
        <time>2022-04-04T13:09:36Z</time>
      </trkpt>
      <trkpt lat="46.64983" lon="5.97284">
        <ele>815</ele>
        <time>2022-04-04T13:09:40Z</time>
      </trkpt>
      <trkpt lat="46.64971" lon="5.97288">
        <ele>813</ele>
        <time>2022-04-04T13:09:42Z</time>
      </trkpt>
      <trkpt lat="46.64955" lon="5.97289">
        <ele>810</ele>
        <time>2022-04-04T13:09:45Z</time>
      </trkpt>
      <trkpt lat="46.64893" lon="5.9727">
        <ele>806</ele>
        <time>2022-04-04T13:09:56Z</time>
      </trkpt>
      <trkpt lat="46.64868" lon="5.97254">
        <ele>806</ele>
        <time>2022-04-04T13:10:01Z</time>
      </trkpt>
      <trkpt lat="46.64855" lon="5.9724">
        <ele>805</ele>
        <time>2022-04-04T13:10:04Z</time>
      </trkpt>
      <trkpt lat="46.64841" lon="5.97233">
        <ele>804</ele>
        <time>2022-04-04T13:10:07Z</time>
      </trkpt>
      <trkpt lat="46.64832" lon="5.97237">
        <ele>804</ele>
        <time>2022-04-04T13:10:08Z</time>
      </trkpt>
      <trkpt lat="46.6482" lon="5.97251">
        <ele>806</ele>
        <time>2022-04-04T13:10:11Z</time>
      </trkpt>
      <trkpt lat="46.64817" lon="5.97268">
        <ele>809</ele>
        <time>2022-04-04T13:10:13Z</time>
      </trkpt>
      <trkpt lat="46.64823" lon="5.97295">
        <ele>811</ele>
        <time>2022-04-04T13:10:17Z</time>
      </trkpt>
      <trkpt lat="46.64863" lon="5.97368">
        <ele>810</ele>
        <time>2022-04-04T13:10:28Z</time>
      </trkpt>
      <trkpt lat="46.64868" lon="5.97382">
        <ele>809</ele>
        <time>2022-04-04T13:10:30Z</time>
      </trkpt>
      <trkpt lat="46.64869" lon="5.97398">
        <ele>810</ele>
        <time>2022-04-04T13:10:32Z</time>
      </trkpt>
      <trkpt lat="46.64867" lon="5.97415">
        <ele>810</ele>
        <time>2022-04-04T13:10:34Z</time>
      </trkpt>
      <trkpt lat="46.64859" lon="5.97432">
        <ele>813</ele>
        <time>2022-04-04T13:10:37Z</time>
      </trkpt>
      <trkpt lat="46.6485" lon="5.9744">
        <ele>814</ele>
        <time>2022-04-04T13:10:39Z</time>
      </trkpt>
      <trkpt lat="46.64841" lon="5.97443">
        <ele>816</ele>
        <time>2022-04-04T13:10:40Z</time>
      </trkpt>
      <trkpt lat="46.64751" lon="5.97427">
        <ele>817</ele>
        <time>2022-04-04T13:10:56Z</time>
      </trkpt>
      <trkpt lat="46.64743" lon="5.97428">
        <ele>817</ele>
        <time>2022-04-04T13:10:58Z</time>
      </trkpt>
      <trkpt lat="46.64735" lon="5.97434">
        <ele>817</ele>
        <time>2022-04-04T13:10:59Z</time>
      </trkpt>
      <trkpt lat="46.64725" lon="5.97454">
        <ele>816</ele>
        <time>2022-04-04T13:11:02Z</time>
      </trkpt>
      <trkpt lat="46.64691" lon="5.97541">
        <ele>815</ele>
        <time>2022-04-04T13:11:15Z</time>
      </trkpt>
      <trkpt lat="46.64679" lon="5.97558">
        <ele>814</ele>
        <time>2022-04-04T13:11:18Z</time>
      </trkpt>
      <trkpt lat="46.64665" lon="5.97569">
        <ele>814</ele>
        <time>2022-04-04T13:11:20Z</time>
      </trkpt>
      <trkpt lat="46.64593" lon="5.97605">
        <ele>813</ele>
        <time>2022-04-04T13:11:34Z</time>
      </trkpt>
      <trkpt lat="46.64551" lon="5.97629">
        <ele>812</ele>
        <time>2022-04-04T13:11:42Z</time>
      </trkpt>
      <trkpt lat="46.64518" lon="5.97641">
        <ele>812</ele>
        <time>2022-04-04T13:11:48Z</time>
      </trkpt>
      <trkpt lat="46.64467" lon="5.9767">
        <ele>810</ele>
        <time>2022-04-04T13:11:58Z</time>
      </trkpt>
      <trkpt lat="46.6439" lon="5.97708">
        <ele>808</ele>
        <time>2022-04-04T13:12:12Z</time>
      </trkpt>
      <trkpt lat="46.64361" lon="5.97716">
        <ele>808</ele>
        <time>2022-04-04T13:12:17Z</time>
      </trkpt>
      <trkpt lat="46.64361" lon="5.9773">
        <ele>808</ele>
        <time>2022-04-04T13:12:19Z</time>
      </trkpt>
      <trkpt lat="46.64369" lon="5.97803">
        <ele>806</ele>
        <time>2022-04-04T13:12:28Z</time>
      </trkpt>
      <trkpt lat="46.64391" lon="5.97945">
        <ele>802</ele>
        <time>2022-04-04T13:12:46Z</time>
      </trkpt>
      <trkpt lat="46.64414" lon="5.9801">
        <ele>802</ele>
        <time>2022-04-04T13:12:55Z</time>
      </trkpt>
      <trkpt lat="46.64445" lon="5.98129">
        <ele>804</ele>
        <time>2022-04-04T13:13:10Z</time>
      </trkpt>
      <trkpt lat="46.64447" lon="5.98159">
        <ele>806</ele>
        <time>2022-04-04T13:13:14Z</time>
      </trkpt>
      <trkpt lat="46.64445" lon="5.98195">
        <ele>809</ele>
        <time>2022-04-04T13:13:19Z</time>
      </trkpt>
      <trkpt lat="46.64437" lon="5.98228">
        <ele>812</ele>
        <time>2022-04-04T13:13:23Z</time>
      </trkpt>
      <trkpt lat="46.64422" lon="5.98253">
        <ele>812</ele>
        <time>2022-04-04T13:13:27Z</time>
      </trkpt>
      <trkpt lat="46.64358" lon="5.98302">
        <ele>812</ele>
        <time>2022-04-04T13:13:40Z</time>
      </trkpt>
      <trkpt lat="46.64347" lon="5.98324">
        <ele>813</ele>
        <time>2022-04-04T13:13:43Z</time>
      </trkpt>
      <trkpt lat="46.64348" lon="5.98347">
        <ele>815</ele>
        <time>2022-04-04T13:13:46Z</time>
      </trkpt>
      <trkpt lat="46.64356" lon="5.98358">
        <ele>817</ele>
        <time>2022-04-04T13:13:48Z</time>
      </trkpt>
      <trkpt lat="46.6437" lon="5.98361">
        <ele>818</ele>
        <time>2022-04-04T13:13:50Z</time>
      </trkpt>
      <trkpt lat="46.64478" lon="5.98354">
        <ele>827</ele>
        <time>2022-04-04T13:14:10Z</time>
      </trkpt>
      <trkpt lat="46.64491" lon="5.98365">
        <ele>829</ele>
        <time>2022-04-04T13:14:12Z</time>
      </trkpt>
      <trkpt lat="46.64502" lon="5.984">
        <ele>830</ele>
        <time>2022-04-04T13:14:17Z</time>
      </trkpt>
      <trkpt lat="46.64512" lon="5.98455">
        <ele>831</ele>
        <time>2022-04-04T13:14:24Z</time>
      </trkpt>
      <trkpt lat="46.64509" lon="5.985">
        <ele>831</ele>
        <time>2022-04-04T13:14:29Z</time>
      </trkpt>
      <trkpt lat="46.64486" lon="5.98557">
        <ele>830</ele>
        <time>2022-04-04T13:14:38Z</time>
      </trkpt>
      <trkpt lat="46.64353" lon="5.98872">
        <ele>823</ele>
        <time>2022-04-04T13:15:23Z</time>
      </trkpt>
      <trkpt lat="46.64348" lon="5.98897">
        <ele>823</ele>
        <time>2022-04-04T13:15:26Z</time>
      </trkpt>
      <trkpt lat="46.64347" lon="5.99031">
        <ele>824</ele>
        <time>2022-04-04T13:15:42Z</time>
      </trkpt>
      <trkpt lat="46.64347" lon="5.9909">
        <ele>824</ele>
        <time>2022-04-04T13:15:49Z</time>
      </trkpt>
      <trkpt lat="46.64356" lon="5.99157">
        <ele>829</ele>
        <time>2022-04-04T13:15:58Z</time>
      </trkpt>
      <trkpt lat="46.64362" lon="5.9919">
        <ele>830</ele>
        <time>2022-04-04T13:16:02Z</time>
      </trkpt>
      <trkpt lat="46.64404" lon="5.99326">
        <ele>829</ele>
        <time>2022-04-04T13:16:20Z</time>
      </trkpt>
      <trkpt lat="46.64424" lon="5.9941">
        <ele>828</ele>
        <time>2022-04-04T13:16:31Z</time>
      </trkpt>
      <trkpt lat="46.64426" lon="5.99452">
        <ele>829</ele>
        <time>2022-04-04T13:16:36Z</time>
      </trkpt>
      <trkpt lat="46.64429" lon="5.99498">
        <ele>829</ele>
        <time>2022-04-04T13:16:42Z</time>
      </trkpt>
      <trkpt lat="46.64441" lon="5.99537">
        <ele>830</ele>
        <time>2022-04-04T13:16:47Z</time>
      </trkpt>
      <trkpt lat="46.64455" lon="5.99573">
        <ele>831</ele>
        <time>2022-04-04T13:16:52Z</time>
      </trkpt>
      <trkpt lat="46.64479" lon="5.99621">
        <ele>830</ele>
        <time>2022-04-04T13:16:59Z</time>
      </trkpt>
      <trkpt lat="46.64498" lon="5.99692">
        <ele>826</ele>
        <time>2022-04-04T13:17:09Z</time>
      </trkpt>
      <trkpt lat="46.64512" lon="5.99712">
        <ele>826</ele>
        <time>2022-04-04T13:17:12Z</time>
      </trkpt>
      <trkpt lat="46.64544" lon="5.99734">
        <ele>824</ele>
        <time>2022-04-04T13:17:18Z</time>
      </trkpt>
      <trkpt lat="46.64586" lon="5.99759">
        <ele>821</ele>
        <time>2022-04-04T13:17:27Z</time>
      </trkpt>
      <trkpt lat="46.64595" lon="5.99766">
        <ele>820</ele>
        <time>2022-04-04T13:17:28Z</time>
      </trkpt>
      <trkpt lat="46.64615" lon="5.9979">
        <ele>817</ele>
        <time>2022-04-04T13:17:33Z</time>
      </trkpt>
      <trkpt lat="46.64659" lon="5.99858">
        <ele>812</ele>
        <time>2022-04-04T13:17:44Z</time>
      </trkpt>
      <trkpt lat="46.64668" lon="5.9987">
        <ele>812</ele>
        <time>2022-04-04T13:17:47Z</time>
      </trkpt>
      <trkpt lat="46.64683" lon="5.99881">
        <ele>811</ele>
        <time>2022-04-04T13:17:50Z</time>
      </trkpt>
      <trkpt lat="46.64699" lon="5.99884">
        <ele>809</ele>
        <time>2022-04-04T13:17:52Z</time>
      </trkpt>
      <trkpt lat="46.64711" lon="5.99884">
        <ele>809</ele>
        <time>2022-04-04T13:17:55Z</time>
      </trkpt>
      <trkpt lat="46.64842" lon="5.99854">
        <ele>797</ele>
        <time>2022-04-04T13:18:18Z</time>
      </trkpt>
      <trkpt lat="46.64932" lon="5.99837">
        <ele>794</ele>
        <time>2022-04-04T13:18:34Z</time>
      </trkpt>
      <trkpt lat="46.6495" lon="5.99841">
        <ele>795</ele>
        <time>2022-04-04T13:18:38Z</time>
      </trkpt>
      <trkpt lat="46.64965" lon="5.99861">
        <ele>796</ele>
        <time>2022-04-04T13:18:41Z</time>
      </trkpt>
      <trkpt lat="46.64971" lon="5.9989">
        <ele>796</ele>
        <time>2022-04-04T13:18:45Z</time>
      </trkpt>
      <trkpt lat="46.64998" lon="6.0009">
        <ele>785</ele>
        <time>2022-04-04T13:19:10Z</time>
      </trkpt>
      <trkpt lat="46.65013" lon="6.00176">
        <ele>774</ele>
        <time>2022-04-04T13:19:21Z</time>
      </trkpt>
      <trkpt lat="46.65027" lon="6.00279">
        <ele>769</ele>
        <time>2022-04-04T13:19:33Z</time>
      </trkpt>
      <trkpt lat="46.6503" lon="6.0032">
        <ele>767</ele>
        <time>2022-04-04T13:19:38Z</time>
      </trkpt>
      <trkpt lat="46.65021" lon="6.0038">
        <ele>765</ele>
        <time>2022-04-04T13:19:46Z</time>
      </trkpt>
      <trkpt lat="46.64995" lon="6.00456">
        <ele>761</ele>
        <time>2022-04-04T13:19:56Z</time>
      </trkpt>
      <trkpt lat="46.64966" lon="6.00514">
        <ele>756</ele>
        <time>2022-04-04T13:20:05Z</time>
      </trkpt>
      <trkpt lat="46.64915" lon="6.00603">
        <ele>748</ele>
        <time>2022-04-04T13:20:19Z</time>
      </trkpt>
      <trkpt lat="46.64892" lon="6.0064">
        <ele>742</ele>
        <time>2022-04-04T13:20:25Z</time>
      </trkpt>
      <trkpt lat="46.64875" lon="6.00662">
        <ele>739</ele>
        <time>2022-04-04T13:20:29Z</time>
      </trkpt>
      <trkpt lat="46.64821" lon="6.00715">
        <ele>737</ele>
        <time>2022-04-04T13:20:41Z</time>
      </trkpt>
      <trkpt lat="46.64812" lon="6.00732">
        <ele>736</ele>
        <time>2022-04-04T13:20:44Z</time>
      </trkpt>
      <trkpt lat="46.64813" lon="6.00741">
        <ele>735</ele>
        <time>2022-04-04T13:20:45Z</time>
      </trkpt>
      <trkpt lat="46.64698" lon="6.00852">
        <ele>746</ele>
        <time>2022-04-04T13:21:09Z</time>
      </trkpt>
      <trkpt lat="46.64681" lon="6.00881">
        <ele>750</ele>
        <time>2022-04-04T13:21:14Z</time>
      </trkpt>
      <trkpt lat="46.64684" lon="6.00882">
        <ele>749</ele>
        <time>2022-04-04T13:21:14Z</time>
      </trkpt>
      <trkpt lat="46.64681" lon="6.00881">
        <ele>750</ele>
        <time>2022-04-04T13:21:15Z</time>
      </trkpt>
      <trkpt lat="46.64675" lon="6.00897">
        <ele>751</ele>
        <time>2022-04-04T13:21:17Z</time>
      </trkpt>
      <trkpt lat="46.64672" lon="6.00914">
        <ele>753</ele>
        <time>2022-04-04T13:21:19Z</time>
      </trkpt>
      <trkpt lat="46.6467" lon="6.00932">
        <ele>757</ele>
        <time>2022-04-04T13:21:22Z</time>
      </trkpt>
      <trkpt lat="46.64671" lon="6.00954">
        <ele>761</ele>
        <time>2022-04-04T13:21:24Z</time>
      </trkpt>
      <trkpt lat="46.64678" lon="6.00988">
        <ele>765</ele>
        <time>2022-04-04T13:21:29Z</time>
      </trkpt>
      <trkpt lat="46.64686" lon="6.01009">
        <ele>766</ele>
        <time>2022-04-04T13:21:32Z</time>
      </trkpt>
      <trkpt lat="46.64695" lon="6.01024">
        <ele>766</ele>
        <time>2022-04-04T13:21:34Z</time>
      </trkpt>
      <trkpt lat="46.64718" lon="6.01057">
        <ele>762</ele>
        <time>2022-04-04T13:21:40Z</time>
      </trkpt>
      <trkpt lat="46.64726" lon="6.01072">
        <ele>760</ele>
        <time>2022-04-04T13:21:42Z</time>
      </trkpt>
      <trkpt lat="46.64734" lon="6.01095">
        <ele>760</ele>
        <time>2022-04-04T13:21:45Z</time>
      </trkpt>
      <trkpt lat="46.64751" lon="6.01159">
        <ele>764</ele>
        <time>2022-04-04T13:21:54Z</time>
      </trkpt>
      <trkpt lat="46.64757" lon="6.01191">
        <ele>766</ele>
        <time>2022-04-04T13:21:58Z</time>
      </trkpt>
      <trkpt lat="46.64761" lon="6.01222">
        <ele>768</ele>
        <time>2022-04-04T13:22:01Z</time>
      </trkpt>
      <trkpt lat="46.64762" lon="6.01254">
        <ele>771</ele>
        <time>2022-04-04T13:22:05Z</time>
      </trkpt>
      <trkpt lat="46.64761" lon="6.01313">
        <ele>775</ele>
        <time>2022-04-04T13:22:13Z</time>
      </trkpt>
      <trkpt lat="46.64763" lon="6.01337">
        <ele>776</ele>
        <time>2022-04-04T13:22:16Z</time>
      </trkpt>
      <trkpt lat="46.64792" lon="6.01479">
        <ele>780</ele>
        <time>2022-04-04T13:22:34Z</time>
      </trkpt>
      <trkpt lat="46.64796" lon="6.01517">
        <ele>783</ele>
        <time>2022-04-04T13:22:38Z</time>
      </trkpt>
      <trkpt lat="46.64797" lon="6.01664">
        <ele>788</ele>
        <time>2022-04-04T13:22:56Z</time>
      </trkpt>
      <trkpt lat="46.64793" lon="6.01695">
        <ele>790</ele>
        <time>2022-04-04T13:23:00Z</time>
      </trkpt>
      <trkpt lat="46.6475" lon="6.0188">
        <ele>805</ele>
        <time>2022-04-04T13:23:24Z</time>
      </trkpt>
      <trkpt lat="46.64742" lon="6.01904">
        <ele>805</ele>
        <time>2022-04-04T13:23:27Z</time>
      </trkpt>
      <trkpt lat="46.64711" lon="6.01977">
        <ele>807</ele>
        <time>2022-04-04T13:23:38Z</time>
      </trkpt>
      <trkpt lat="46.64703" lon="6.02001">
        <ele>806</ele>
        <time>2022-04-04T13:23:41Z</time>
      </trkpt>
      <trkpt lat="46.64696" lon="6.02041">
        <ele>807</ele>
        <time>2022-04-04T13:23:46Z</time>
      </trkpt>
      <trkpt lat="46.64686" lon="6.02132">
        <ele>804</ele>
        <time>2022-04-04T13:23:57Z</time>
      </trkpt>
      <trkpt lat="46.64682" lon="6.02151">
        <ele>803</ele>
        <time>2022-04-04T13:24:00Z</time>
      </trkpt>
      <trkpt lat="46.64678" lon="6.02162">
        <ele>803</ele>
        <time>2022-04-04T13:24:01Z</time>
      </trkpt>
      <trkpt lat="46.64675" lon="6.02168">
        <ele>803</ele>
        <time>2022-04-04T13:24:02Z</time>
      </trkpt>
      <trkpt lat="46.64666" lon="6.02176">
        <ele>803</ele>
        <time>2022-04-04T13:24:04Z</time>
      </trkpt>
      <trkpt lat="46.64643" lon="6.02184">
        <ele>803</ele>
        <time>2022-04-04T13:24:08Z</time>
      </trkpt>
      <trkpt lat="46.64612" lon="6.02188">
        <ele>806</ele>
        <time>2022-04-04T13:24:14Z</time>
      </trkpt>
      <trkpt lat="46.64575" lon="6.0219">
        <ele>812</ele>
        <time>2022-04-04T13:24:20Z</time>
      </trkpt>
      <trkpt lat="46.6451" lon="6.02215">
        <ele>817</ele>
        <time>2022-04-04T13:24:32Z</time>
      </trkpt>
      <trkpt lat="46.64497" lon="6.02225">
        <ele>816</ele>
        <time>2022-04-04T13:24:35Z</time>
      </trkpt>
      <trkpt lat="46.64435" lon="6.02299">
        <ele>823</ele>
        <time>2022-04-04T13:24:49Z</time>
      </trkpt>
      <trkpt lat="46.64427" lon="6.02312">
        <ele>826</ele>
        <time>2022-04-04T13:24:51Z</time>
      </trkpt>
      <trkpt lat="46.64424" lon="6.02325">
        <ele>828</ele>
        <time>2022-04-04T13:24:53Z</time>
      </trkpt>
      <trkpt lat="46.64422" lon="6.02349">
        <ele>830</ele>
        <time>2022-04-04T13:24:56Z</time>
      </trkpt>
      <trkpt lat="46.64434" lon="6.02512">
        <ele>824</ele>
        <time>2022-04-04T13:25:16Z</time>
      </trkpt>
      <trkpt lat="46.64433" lon="6.02525">
        <ele>823</ele>
        <time>2022-04-04T13:25:18Z</time>
      </trkpt>
      <trkpt lat="46.64429" lon="6.02538">
        <ele>822</ele>
        <time>2022-04-04T13:25:19Z</time>
      </trkpt>
      <trkpt lat="46.6442" lon="6.02549">
        <ele>821</ele>
        <time>2022-04-04T13:25:21Z</time>
      </trkpt>
      <trkpt lat="46.6441" lon="6.02557">
        <ele>821</ele>
        <time>2022-04-04T13:25:23Z</time>
      </trkpt>
      <trkpt lat="46.64388" lon="6.02564">
        <ele>822</ele>
        <time>2022-04-04T13:25:27Z</time>
      </trkpt>
      <trkpt lat="46.64338" lon="6.02571">
        <ele>826</ele>
        <time>2022-04-04T13:25:36Z</time>
      </trkpt>
      <trkpt lat="46.6432" lon="6.02576">
        <ele>825</ele>
        <time>2022-04-04T13:25:40Z</time>
      </trkpt>
      <trkpt lat="46.6429" lon="6.02592">
        <ele>821</ele>
        <time>2022-04-04T13:25:45Z</time>
      </trkpt>
      <trkpt lat="46.64246" lon="6.02622">
        <ele>812</ele>
        <time>2022-04-04T13:25:54Z</time>
      </trkpt>
      <trkpt lat="46.64228" lon="6.02629">
        <ele>810</ele>
        <time>2022-04-04T13:25:57Z</time>
      </trkpt>
      <trkpt lat="46.6418" lon="6.02636">
        <ele>808</ele>
        <time>2022-04-04T13:26:06Z</time>
      </trkpt>
      <trkpt lat="46.64113" lon="6.0265">
        <ele>806</ele>
        <time>2022-04-04T13:26:18Z</time>
      </trkpt>
      <trkpt lat="46.64086" lon="6.02659">
        <ele>805</ele>
        <time>2022-04-04T13:26:23Z</time>
      </trkpt>
      <trkpt lat="46.64042" lon="6.02679">
        <ele>806</ele>
        <time>2022-04-04T13:26:31Z</time>
      </trkpt>
      <trkpt lat="46.63974" lon="6.02721">
        <ele>804</ele>
        <time>2022-04-04T13:26:44Z</time>
      </trkpt>
      <trkpt lat="46.63965" lon="6.02728">
        <ele>804</ele>
        <time>2022-04-04T13:26:46Z</time>
      </trkpt>
      <trkpt lat="46.63946" lon="6.0275">
        <ele>803</ele>
        <time>2022-04-04T13:26:50Z</time>
      </trkpt>
      <trkpt lat="46.63868" lon="6.02852">
        <ele>803</ele>
        <time>2022-04-04T13:27:09Z</time>
      </trkpt>
      <trkpt lat="46.63866" lon="6.02843">
        <ele>804</ele>
        <time>2022-04-04T13:27:10Z</time>
      </trkpt>
      <trkpt lat="46.63869" lon="6.02828">
        <ele>805</ele>
        <time>2022-04-04T13:27:12Z</time>
      </trkpt>
      <trkpt lat="46.63894" lon="6.02731">
        <ele>810</ele>
        <time>2022-04-04T13:27:25Z</time>
      </trkpt>
      <trkpt lat="46.63906" lon="6.02706">
        <ele>811</ele>
        <time>2022-04-04T13:27:28Z</time>
      </trkpt>
      <trkpt lat="46.63914" lon="6.02697">
        <ele>811</ele>
        <time>2022-04-04T13:27:30Z</time>
      </trkpt>
      <trkpt lat="46.63937" lon="6.02678">
        <ele>812</ele>
        <time>2022-04-04T13:27:35Z</time>
      </trkpt>
      <trkpt lat="46.63951" lon="6.02661">
        <ele>814</ele>
        <time>2022-04-04T13:27:38Z</time>
      </trkpt>
      <trkpt lat="46.63953" lon="6.02652">
        <ele>814</ele>
        <time>2022-04-04T13:27:39Z</time>
      </trkpt>
      <trkpt lat="46.63955" lon="6.02637">
        <ele>815</ele>
        <time>2022-04-04T13:27:41Z</time>
      </trkpt>
      <trkpt lat="46.63954" lon="6.02624">
        <ele>816</ele>
        <time>2022-04-04T13:27:43Z</time>
      </trkpt>
      <trkpt lat="46.63942" lon="6.0257">
        <ele>819</ele>
        <time>2022-04-04T13:27:50Z</time>
      </trkpt>
      <trkpt lat="46.63936" lon="6.0256">
        <ele>820</ele>
        <time>2022-04-04T13:27:51Z</time>
      </trkpt>
      <trkpt lat="46.63924" lon="6.02552">
        <ele>820</ele>
        <time>2022-04-04T13:27:54Z</time>
      </trkpt>
      <trkpt lat="46.6389" lon="6.02548">
        <ele>819</ele>
        <time>2022-04-04T13:28:00Z</time>
      </trkpt>
      <trkpt lat="46.63874" lon="6.0254">
        <ele>819</ele>
        <time>2022-04-04T13:28:03Z</time>
      </trkpt>
      <trkpt lat="46.63864" lon="6.02524">
        <ele>819</ele>
        <time>2022-04-04T13:28:05Z</time>
      </trkpt>
      <trkpt lat="46.6386" lon="6.02481">
        <ele>820</ele>
        <time>2022-04-04T13:28:11Z</time>
      </trkpt>
      <trkpt lat="46.63855" lon="6.02367">
        <ele>827</ele>
        <time>2022-04-04T13:28:25Z</time>
      </trkpt>
      <trkpt lat="46.63853" lon="6.02343">
        <ele>829</ele>
        <time>2022-04-04T13:28:28Z</time>
      </trkpt>
      <trkpt lat="46.63847" lon="6.0232">
        <ele>831</ele>
        <time>2022-04-04T13:28:31Z</time>
      </trkpt>
      <trkpt lat="46.63843" lon="6.0231">
        <ele>832</ele>
        <time>2022-04-04T13:28:32Z</time>
      </trkpt>
      <trkpt lat="46.63837" lon="6.02301">
        <ele>833</ele>
        <time>2022-04-04T13:28:34Z</time>
      </trkpt>
      <trkpt lat="46.63801" lon="6.02266">
        <ele>842</ele>
        <time>2022-04-04T13:28:41Z</time>
      </trkpt>
      <trkpt lat="46.63774" lon="6.02242">
        <ele>848</ele>
        <time>2022-04-04T13:28:47Z</time>
      </trkpt>
      <trkpt lat="46.63758" lon="6.02237">
        <ele>851</ele>
        <time>2022-04-04T13:28:50Z</time>
      </trkpt>
      <trkpt lat="46.63748" lon="6.02239">
        <ele>852</ele>
        <time>2022-04-04T13:28:52Z</time>
      </trkpt>
      <trkpt lat="46.63737" lon="6.02245">
        <ele>852</ele>
        <time>2022-04-04T13:28:54Z</time>
      </trkpt>
      <trkpt lat="46.63664" lon="6.02335">
        <ele>851</ele>
        <time>2022-04-04T13:29:11Z</time>
      </trkpt>
      <trkpt lat="46.63636" lon="6.02362">
        <ele>845</ele>
        <time>2022-04-04T13:29:17Z</time>
      </trkpt>
      <trkpt lat="46.63618" lon="6.02372">
        <ele>844</ele>
        <time>2022-04-04T13:29:20Z</time>
      </trkpt>
      <trkpt lat="46.63598" lon="6.0237">
        <ele>845</ele>
        <time>2022-04-04T13:29:24Z</time>
      </trkpt>
      <trkpt lat="46.63583" lon="6.02361">
        <ele>847</ele>
        <time>2022-04-04T13:29:27Z</time>
      </trkpt>
      <trkpt lat="46.63567" lon="6.02331">
        <ele>850</ele>
        <time>2022-04-04T13:29:31Z</time>
      </trkpt>
      <trkpt lat="46.6356" lon="6.02322">
        <ele>851</ele>
        <time>2022-04-04T13:29:33Z</time>
      </trkpt>
      <trkpt lat="46.63547" lon="6.02315">
        <ele>850</ele>
        <time>2022-04-04T13:29:35Z</time>
      </trkpt>
      <trkpt lat="46.63516" lon="6.02311">
        <ele>848</ele>
        <time>2022-04-04T13:29:41Z</time>
      </trkpt>
      <trkpt lat="46.63509" lon="6.02307">
        <ele>848</ele>
        <time>2022-04-04T13:29:42Z</time>
      </trkpt>
      <trkpt lat="46.63496" lon="6.02293">
        <ele>850</ele>
        <time>2022-04-04T13:29:45Z</time>
      </trkpt>
      <trkpt lat="46.63462" lon="6.02236">
        <ele>858</ele>
        <time>2022-04-04T13:29:54Z</time>
      </trkpt>
      <trkpt lat="46.63458" lon="6.02231">
        <ele>859</ele>
        <time>2022-04-04T13:29:55Z</time>
      </trkpt>
      <trkpt lat="46.6345" lon="6.02226">
        <ele>859</ele>
        <time>2022-04-04T13:29:57Z</time>
      </trkpt>
      <trkpt lat="46.63422" lon="6.02219">
        <ele>859</ele>
        <time>2022-04-04T13:30:02Z</time>
      </trkpt>
      <trkpt lat="46.63409" lon="6.02218">
        <ele>861</ele>
        <time>2022-04-04T13:30:04Z</time>
      </trkpt>
      <trkpt lat="46.63398" lon="6.0222">
        <ele>862</ele>
        <time>2022-04-04T13:30:06Z</time>
      </trkpt>
      <trkpt lat="46.63366" lon="6.0224">
        <ele>865</ele>
        <time>2022-04-04T13:30:12Z</time>
      </trkpt>
      <trkpt lat="46.63344" lon="6.0225">
        <ele>868</ele>
        <time>2022-04-04T13:30:16Z</time>
      </trkpt>
      <trkpt lat="46.63334" lon="6.02252">
        <ele>870</ele>
        <time>2022-04-04T13:30:18Z</time>
      </trkpt>
      <trkpt lat="46.63325" lon="6.0225">
        <ele>869</ele>
        <time>2022-04-04T13:30:20Z</time>
      </trkpt>
      <trkpt lat="46.63318" lon="6.02246">
        <ele>868</ele>
        <time>2022-04-04T13:30:21Z</time>
      </trkpt>
      <trkpt lat="46.6331" lon="6.0224">
        <ele>868</ele>
        <time>2022-04-04T13:30:23Z</time>
      </trkpt>
      <trkpt lat="46.63303" lon="6.02231">
        <ele>868</ele>
        <time>2022-04-04T13:30:24Z</time>
      </trkpt>
      <trkpt lat="46.63296" lon="6.02218">
        <ele>868</ele>
        <time>2022-04-04T13:30:27Z</time>
      </trkpt>
      <trkpt lat="46.63277" lon="6.02168">
        <ele>870</ele>
        <time>2022-04-04T13:30:33Z</time>
      </trkpt>
      <trkpt lat="46.63258" lon="6.0213">
        <ele>871</ele>
        <time>2022-04-04T13:30:39Z</time>
      </trkpt>
      <trkpt lat="46.63228" lon="6.0209">
        <ele>873</ele>
        <time>2022-04-04T13:30:46Z</time>
      </trkpt>
      <trkpt lat="46.63217" lon="6.02072">
        <ele>874</ele>
        <time>2022-04-04T13:30:49Z</time>
      </trkpt>
      <trkpt lat="46.63204" lon="6.02008">
        <ele>880</ele>
        <time>2022-04-04T13:30:58Z</time>
      </trkpt>
      <trkpt lat="46.63201" lon="6.01995">
        <ele>880</ele>
        <time>2022-04-04T13:30:59Z</time>
      </trkpt>
      <trkpt lat="46.63195" lon="6.01985">
        <ele>881</ele>
        <time>2022-04-04T13:31:01Z</time>
      </trkpt>
      <trkpt lat="46.6319" lon="6.01979">
        <ele>881</ele>
        <time>2022-04-04T13:31:02Z</time>
      </trkpt>
      <trkpt lat="46.63182" lon="6.01975">
        <ele>881</ele>
        <time>2022-04-04T13:31:04Z</time>
      </trkpt>
      <trkpt lat="46.63174" lon="6.01975">
        <ele>880</ele>
        <time>2022-04-04T13:31:05Z</time>
      </trkpt>
      <trkpt lat="46.63163" lon="6.01977">
        <ele>880</ele>
        <time>2022-04-04T13:31:07Z</time>
      </trkpt>
      <trkpt lat="46.63129" lon="6.01994">
        <ele>881</ele>
        <time>2022-04-04T13:31:13Z</time>
      </trkpt>
      <trkpt lat="46.63119" lon="6.01996">
        <ele>881</ele>
        <time>2022-04-04T13:31:15Z</time>
      </trkpt>
      <trkpt lat="46.63088" lon="6.01993">
        <ele>882</ele>
        <time>2022-04-04T13:31:21Z</time>
      </trkpt>
      <trkpt lat="46.63007" lon="6.01972">
        <ele>884</ele>
        <time>2022-04-04T13:31:35Z</time>
      </trkpt>
      <trkpt lat="46.62997" lon="6.01964">
        <ele>885</ele>
        <time>2022-04-04T13:31:37Z</time>
      </trkpt>
      <trkpt lat="46.62988" lon="6.01954">
        <ele>886</ele>
        <time>2022-04-04T13:31:39Z</time>
      </trkpt>
      <trkpt lat="46.6298" lon="6.01941">
        <ele>886</ele>
        <time>2022-04-04T13:31:41Z</time>
      </trkpt>
      <trkpt lat="46.62972" lon="6.01924">
        <ele>887</ele>
        <time>2022-04-04T13:31:44Z</time>
      </trkpt>
      <trkpt lat="46.62945" lon="6.01843">
        <ele>890</ele>
        <time>2022-04-04T13:31:55Z</time>
      </trkpt>
      <trkpt lat="46.62931" lon="6.0181">
        <ele>890</ele>
        <time>2022-04-04T13:32:00Z</time>
      </trkpt>
      <trkpt lat="46.62923" lon="6.01796">
        <ele>890</ele>
        <time>2022-04-04T13:32:02Z</time>
      </trkpt>
      <trkpt lat="46.62882" lon="6.01756">
        <ele>890</ele>
        <time>2022-04-04T13:32:11Z</time>
      </trkpt>
      <trkpt lat="46.62863" lon="6.01733">
        <ele>890</ele>
        <time>2022-04-04T13:32:15Z</time>
      </trkpt>
      <trkpt lat="46.6283" lon="6.01687">
        <ele>890</ele>
        <time>2022-04-04T13:32:23Z</time>
      </trkpt>
      <trkpt lat="46.62824" lon="6.01675">
        <ele>891</ele>
        <time>2022-04-04T13:32:25Z</time>
      </trkpt>
      <trkpt lat="46.62819" lon="6.0166">
        <ele>892</ele>
        <time>2022-04-04T13:32:27Z</time>
      </trkpt>
      <trkpt lat="46.62812" lon="6.01626">
        <ele>893</ele>
        <time>2022-04-04T13:32:31Z</time>
      </trkpt>
      <trkpt lat="46.62802" lon="6.01534">
        <ele>895</ele>
        <time>2022-04-04T13:32:43Z</time>
      </trkpt>
      <trkpt lat="46.62774" lon="6.01373">
        <ele>892</ele>
        <time>2022-04-04T13:33:03Z</time>
      </trkpt>
      <trkpt lat="46.62723" lon="6.01159">
        <ele>887</ele>
        <time>2022-04-04T13:33:31Z</time>
      </trkpt>
      <trkpt lat="46.62712" lon="6.01102">
        <ele>889</ele>
        <time>2022-04-04T13:33:38Z</time>
      </trkpt>
      <trkpt lat="46.62706" lon="6.01023">
        <ele>893</ele>
        <time>2022-04-04T13:33:48Z</time>
      </trkpt>
      <trkpt lat="46.62706" lon="6.01005">
        <ele>894</ele>
        <time>2022-04-04T13:33:50Z</time>
      </trkpt>
      <trkpt lat="46.62708" lon="6.00989">
        <ele>895</ele>
        <time>2022-04-04T13:33:52Z</time>
      </trkpt>
      <trkpt lat="46.62717" lon="6.00957">
        <ele>895</ele>
        <time>2022-04-04T13:33:56Z</time>
      </trkpt>
      <trkpt lat="46.62762" lon="6.00854">
        <ele>897</ele>
        <time>2022-04-04T13:34:11Z</time>
      </trkpt>
      <trkpt lat="46.62771" lon="6.00824">
        <ele>898</ele>
        <time>2022-04-04T13:34:15Z</time>
      </trkpt>
      <trkpt lat="46.62773" lon="6.00792">
        <ele>899</ele>
        <time>2022-04-04T13:34:19Z</time>
      </trkpt>
      <trkpt lat="46.62768" lon="6.00716">
        <ele>901</ele>
        <time>2022-04-04T13:34:28Z</time>
      </trkpt>
      <trkpt lat="46.62768" lon="6.00699">
        <ele>901</ele>
        <time>2022-04-04T13:34:30Z</time>
      </trkpt>
      <trkpt lat="46.62784" lon="6.0059">
        <ele>901</ele>
        <time>2022-04-04T13:34:44Z</time>
      </trkpt>
      <trkpt lat="46.62786" lon="6.0059">
        <ele>901</ele>
        <time>2022-04-04T13:34:44Z</time>
      </trkpt>
      <trkpt lat="46.62784" lon="6.0059">
        <ele>901</ele>
        <time>2022-04-04T13:34:45Z</time>
      </trkpt>
      <trkpt lat="46.62787" lon="6.00563">
        <ele>901</ele>
        <time>2022-04-04T13:34:48Z</time>
      </trkpt>
      <trkpt lat="46.62787" lon="6.00548">
        <ele>901</ele>
        <time>2022-04-04T13:34:50Z</time>
      </trkpt>
      <trkpt lat="46.62785" lon="6.00536">
        <ele>900</ele>
        <time>2022-04-04T13:34:51Z</time>
      </trkpt>
      <trkpt lat="46.62779" lon="6.00519">
        <ele>900</ele>
        <time>2022-04-04T13:34:54Z</time>
      </trkpt>
      <trkpt lat="46.62741" lon="6.00455">
        <ele>900</ele>
        <time>2022-04-04T13:35:04Z</time>
      </trkpt>
      <trkpt lat="46.62712" lon="6.0042">
        <ele>898</ele>
        <time>2022-04-04T13:35:11Z</time>
      </trkpt>
      <trkpt lat="46.62681" lon="6.00391">
        <ele>895</ele>
        <time>2022-04-04T13:35:17Z</time>
      </trkpt>
      <trkpt lat="46.62643" lon="6.00361">
        <ele>893</ele>
        <time>2022-04-04T13:35:25Z</time>
      </trkpt>
      <trkpt lat="46.62538" lon="6.00292">
        <ele>890</ele>
        <time>2022-04-04T13:35:46Z</time>
      </trkpt>
      <trkpt lat="46.6253" lon="6.00281">
        <ele>889</ele>
        <time>2022-04-04T13:35:47Z</time>
      </trkpt>
      <trkpt lat="46.62526" lon="6.00274">
        <ele>889</ele>
        <time>2022-04-04T13:35:49Z</time>
      </trkpt>
      <trkpt lat="46.6252" lon="6.00247">
        <ele>889</ele>
        <time>2022-04-04T13:35:52Z</time>
      </trkpt>
      <trkpt lat="46.62515" lon="6.00203">
        <ele>889</ele>
        <time>2022-04-04T13:35:58Z</time>
      </trkpt>
      <trkpt lat="46.62506" lon="6.0016">
        <ele>888</ele>
        <time>2022-04-04T13:36:03Z</time>
      </trkpt>
      <trkpt lat="46.62489" lon="6.00103">
        <ele>887</ele>
        <time>2022-04-04T13:36:11Z</time>
      </trkpt>
      <trkpt lat="46.62454" lon="5.99995">
        <ele>887</ele>
        <time>2022-04-04T13:36:25Z</time>
      </trkpt>
      <trkpt lat="46.62424" lon="5.99891">
        <ele>885</ele>
        <time>2022-04-04T13:36:39Z</time>
      </trkpt>
      <trkpt lat="46.62415" lon="5.9987">
        <ele>884</ele>
        <time>2022-04-04T13:36:42Z</time>
      </trkpt>
      <trkpt lat="46.62379" lon="5.998">
        <ele>886</ele>
        <time>2022-04-04T13:36:53Z</time>
      </trkpt>
      <trkpt lat="46.62362" lon="5.99758">
        <ele>889</ele>
        <time>2022-04-04T13:36:59Z</time>
      </trkpt>
      <trkpt lat="46.62333" lon="5.99697">
        <ele>892</ele>
        <time>2022-04-04T13:37:08Z</time>
      </trkpt>
      <trkpt lat="46.62328" lon="5.99681">
        <ele>892</ele>
        <time>2022-04-04T13:37:10Z</time>
      </trkpt>
      <trkpt lat="46.62326" lon="5.99667">
        <ele>893</ele>
        <time>2022-04-04T13:37:12Z</time>
      </trkpt>
      <trkpt lat="46.62321" lon="5.99615">
        <ele>893</ele>
        <time>2022-04-04T13:37:18Z</time>
      </trkpt>
      <trkpt lat="46.62313" lon="5.99585">
        <ele>894</ele>
        <time>2022-04-04T13:37:22Z</time>
      </trkpt>
      <trkpt lat="46.62302" lon="5.99567">
        <ele>894</ele>
        <time>2022-04-04T13:37:25Z</time>
      </trkpt>
      <trkpt lat="46.62293" lon="5.99558">
        <ele>894</ele>
        <time>2022-04-04T13:37:27Z</time>
      </trkpt>
      <trkpt lat="46.62273" lon="5.99548">
        <ele>894</ele>
        <time>2022-04-04T13:37:31Z</time>
      </trkpt>
      <trkpt lat="46.62253" lon="5.99544">
        <ele>894</ele>
        <time>2022-04-04T13:37:34Z</time>
      </trkpt>
      <trkpt lat="46.62184" lon="5.99545">
        <ele>894</ele>
        <time>2022-04-04T13:37:46Z</time>
      </trkpt>
      <trkpt lat="46.62164" lon="5.9954">
        <ele>894</ele>
        <time>2022-04-04T13:37:50Z</time>
      </trkpt>
      <trkpt lat="46.6207" lon="5.99491">
        <ele>892</ele>
        <time>2022-04-04T13:38:08Z</time>
      </trkpt>
      <trkpt lat="46.62048" lon="5.99476">
        <ele>891</ele>
        <time>2022-04-04T13:38:12Z</time>
      </trkpt>
      <trkpt lat="46.62037" lon="5.99465">
        <ele>891</ele>
        <time>2022-04-04T13:38:15Z</time>
      </trkpt>
      <trkpt lat="46.62" lon="5.99412">
        <ele>890</ele>
        <time>2022-04-04T13:38:24Z</time>
      </trkpt>
      <trkpt lat="46.61967" lon="5.99379">
        <ele>888</ele>
        <time>2022-04-04T13:38:31Z</time>
      </trkpt>
      <trkpt lat="46.61952" lon="5.99358">
        <ele>888</ele>
        <time>2022-04-04T13:38:35Z</time>
      </trkpt>
      <trkpt lat="46.61895" lon="5.99218">
        <ele>887</ele>
        <time>2022-04-04T13:38:55Z</time>
      </trkpt>
      <trkpt lat="46.61877" lon="5.99161">
        <ele>888</ele>
        <time>2022-04-04T13:39:02Z</time>
      </trkpt>
      <trkpt lat="46.61867" lon="5.99119">
        <ele>887</ele>
        <time>2022-04-04T13:39:08Z</time>
      </trkpt>
      <trkpt lat="46.61864" lon="5.99097">
        <ele>887</ele>
        <time>2022-04-04T13:39:10Z</time>
      </trkpt>
      <trkpt lat="46.61863" lon="5.99079">
        <ele>886</ele>
        <time>2022-04-04T13:39:13Z</time>
      </trkpt>
      <trkpt lat="46.61878" lon="5.98927">
        <ele>887</ele>
        <time>2022-04-04T13:39:31Z</time>
      </trkpt>
      <trkpt lat="46.61878" lon="5.98895">
        <ele>886</ele>
        <time>2022-04-04T13:39:35Z</time>
      </trkpt>
      <trkpt lat="46.61876" lon="5.98876">
        <ele>886</ele>
        <time>2022-04-04T13:39:38Z</time>
      </trkpt>
      <trkpt lat="46.6187" lon="5.98842">
        <ele>885</ele>
        <time>2022-04-04T13:39:42Z</time>
      </trkpt>
      <trkpt lat="46.61864" lon="5.98826">
        <ele>884</ele>
        <time>2022-04-04T13:39:44Z</time>
      </trkpt>
      <trkpt lat="46.61833" lon="5.98762">
        <ele>883</ele>
        <time>2022-04-04T13:39:54Z</time>
      </trkpt>
      <trkpt lat="46.61783" lon="5.98645">
        <ele>884</ele>
        <time>2022-04-04T13:40:11Z</time>
      </trkpt>
      <trkpt lat="46.61782" lon="5.98623">
        <ele>884</ele>
        <time>2022-04-04T13:40:13Z</time>
      </trkpt>
      <trkpt lat="46.61788" lon="5.98586">
        <ele>885</ele>
        <time>2022-04-04T13:40:18Z</time>
      </trkpt>
      <trkpt lat="46.6179" lon="5.98526">
        <ele>884</ele>
        <time>2022-04-04T13:40:25Z</time>
      </trkpt>
      <trkpt lat="46.61785" lon="5.98446">
        <ele>883</ele>
        <time>2022-04-04T13:40:35Z</time>
      </trkpt>
      <trkpt lat="46.61787" lon="5.98397">
        <ele>882</ele>
        <time>2022-04-04T13:40:41Z</time>
      </trkpt>
      <trkpt lat="46.61794" lon="5.98331">
        <ele>880</ele>
        <time>2022-04-04T13:40:49Z</time>
      </trkpt>
      <trkpt lat="46.61799" lon="5.98304">
        <ele>879</ele>
        <time>2022-04-04T13:40:53Z</time>
      </trkpt>
      <trkpt lat="46.6181" lon="5.98264">
        <ele>877</ele>
        <time>2022-04-04T13:40:58Z</time>
      </trkpt>
      <trkpt lat="46.61818" lon="5.98219">
        <ele>876</ele>
        <time>2022-04-04T13:41:04Z</time>
      </trkpt>
      <trkpt lat="46.61819" lon="5.98189">
        <ele>876</ele>
        <time>2022-04-04T13:41:07Z</time>
      </trkpt>
      <trkpt lat="46.61819" lon="5.98121">
        <ele>873</ele>
        <time>2022-04-04T13:41:16Z</time>
      </trkpt>
      <trkpt lat="46.61823" lon="5.98042">
        <ele>872</ele>
        <time>2022-04-04T13:41:25Z</time>
      </trkpt>
      <trkpt lat="46.6182" lon="5.98017">
        <ele>872</ele>
        <time>2022-04-04T13:41:28Z</time>
      </trkpt>
      <trkpt lat="46.61811" lon="5.97997">
        <ele>870</ele>
        <time>2022-04-04T13:41:31Z</time>
      </trkpt>
      <trkpt lat="46.61762" lon="5.97917">
        <ele>867</ele>
        <time>2022-04-04T13:41:44Z</time>
      </trkpt>
      <trkpt lat="46.61755" lon="5.9791">
        <ele>867</ele>
        <time>2022-04-04T13:41:46Z</time>
      </trkpt>
      <trkpt lat="46.61738" lon="5.97898">
        <ele>868</ele>
        <time>2022-04-04T13:41:49Z</time>
      </trkpt>
      <trkpt lat="46.61638" lon="5.97872">
        <ele>857</ele>
        <time>2022-04-04T13:42:07Z</time>
      </trkpt>
      <trkpt lat="46.6162" lon="5.97863">
        <ele>854</ele>
        <time>2022-04-04T13:42:11Z</time>
      </trkpt>
      <trkpt lat="46.61604" lon="5.97842">
        <ele>853</ele>
        <time>2022-04-04T13:42:14Z</time>
      </trkpt>
      <trkpt lat="46.61596" lon="5.97823">
        <ele>853</ele>
        <time>2022-04-04T13:42:17Z</time>
      </trkpt>
      <trkpt lat="46.61548" lon="5.97662">
        <ele>855</ele>
        <time>2022-04-04T13:42:39Z</time>
      </trkpt>
      <trkpt lat="46.61533" lon="5.97631">
        <ele>852</ele>
        <time>2022-04-04T13:42:43Z</time>
      </trkpt>
      <trkpt lat="46.61503" lon="5.97585">
        <ele>848</ele>
        <time>2022-04-04T13:42:51Z</time>
      </trkpt>
      <trkpt lat="46.61469" lon="5.97517">
        <ele>843</ele>
        <time>2022-04-04T13:43:01Z</time>
      </trkpt>
      <trkpt lat="46.61451" lon="5.97471">
        <ele>839</ele>
        <time>2022-04-04T13:43:08Z</time>
      </trkpt>
      <trkpt lat="46.61411" lon="5.97311">
        <ele>833</ele>
        <time>2022-04-04T13:43:29Z</time>
      </trkpt>
      <trkpt lat="46.61313" lon="5.9689">
        <ele>825</ele>
        <time>2022-04-04T13:44:23Z</time>
      </trkpt>
      <trkpt lat="46.61304" lon="5.96869">
        <ele>825</ele>
        <time>2022-04-04T13:44:26Z</time>
      </trkpt>
      <trkpt lat="46.61292" lon="5.96849">
        <ele>825</ele>
        <time>2022-04-04T13:44:29Z</time>
      </trkpt>
      <trkpt lat="46.61284" lon="5.96839">
        <ele>825</ele>
        <time>2022-04-04T13:44:31Z</time>
      </trkpt>
      <trkpt lat="46.61267" lon="5.96825">
        <ele>825</ele>
        <time>2022-04-04T13:44:35Z</time>
      </trkpt>
      <trkpt lat="46.61238" lon="5.96818">
        <ele>826</ele>
        <time>2022-04-04T13:44:40Z</time>
      </trkpt>
      <trkpt lat="46.61042" lon="5.96787">
        <ele>823</ele>
        <time>2022-04-04T13:45:15Z</time>
      </trkpt>
      <trkpt lat="46.61013" lon="5.96779">
        <ele>823</ele>
        <time>2022-04-04T13:45:20Z</time>
      </trkpt>
      <trkpt lat="46.60988" lon="5.96756">
        <ele>823</ele>
        <time>2022-04-04T13:45:25Z</time>
      </trkpt>
      <trkpt lat="46.60923" lon="5.96665">
        <ele>823</ele>
        <time>2022-04-04T13:45:41Z</time>
      </trkpt>
      <trkpt lat="46.60913" lon="5.96644">
        <ele>823</ele>
        <time>2022-04-04T13:45:45Z</time>
      </trkpt>
      <trkpt lat="46.6091" lon="5.96634">
        <ele>823</ele>
        <time>2022-04-04T13:45:46Z</time>
      </trkpt>
      <trkpt lat="46.60907" lon="5.96603">
        <ele>824</ele>
        <time>2022-04-04T13:45:50Z</time>
      </trkpt>
      <trkpt lat="46.60911" lon="5.96471">
        <ele>822</ele>
        <time>2022-04-04T13:46:06Z</time>
      </trkpt>
      <trkpt lat="46.60909" lon="5.9645">
        <ele>822</ele>
        <time>2022-04-04T13:46:08Z</time>
      </trkpt>
      <trkpt lat="46.60904" lon="5.96433">
        <ele>821</ele>
        <time>2022-04-04T13:46:11Z</time>
      </trkpt>
      <trkpt lat="46.60901" lon="5.96427">
        <ele>821</ele>
        <time>2022-04-04T13:46:12Z</time>
      </trkpt>
      <trkpt lat="46.60896" lon="5.96421">
        <ele>821</ele>
        <time>2022-04-04T13:46:13Z</time>
      </trkpt>
      <trkpt lat="46.60887" lon="5.96413">
        <ele>821</ele>
        <time>2022-04-04T13:46:15Z</time>
      </trkpt>
      <trkpt lat="46.60863" lon="5.96396">
        <ele>821</ele>
        <time>2022-04-04T13:46:19Z</time>
      </trkpt>
      <trkpt lat="46.60849" lon="5.96386">
        <ele>821</ele>
        <time>2022-04-04T13:46:22Z</time>
      </trkpt>
      <trkpt lat="46.60841" lon="5.96376">
        <ele>821</ele>
        <time>2022-04-04T13:46:24Z</time>
      </trkpt>
      <trkpt lat="46.60803" lon="5.96293">
        <ele>824</ele>
        <time>2022-04-04T13:46:36Z</time>
      </trkpt>
      <trkpt lat="46.6079" lon="5.96267">
        <ele>826</ele>
        <time>2022-04-04T13:46:40Z</time>
      </trkpt>
      <trkpt lat="46.60751" lon="5.96285">
        <ele>826</ele>
        <time>2022-04-04T13:46:47Z</time>
      </trkpt>
      <trkpt lat="46.60748" lon="5.96283">
        <ele>826</ele>
        <time>2022-04-04T13:46:48Z</time>
      </trkpt>
      <trkpt lat="46.60731" lon="5.96236">
        <ele>830</ele>
        <time>2022-04-04T13:46:55Z</time>
      </trkpt>
      <trkpt lat="46.60722" lon="5.96236">
        <ele>830</ele>
        <time>2022-04-04T13:46:56Z</time>
      </trkpt>
      <trkpt lat="46.60723" lon="5.96222">
        <ele>831</ele>
        <time>2022-04-04T13:46:58Z</time>
      </trkpt>
      <trkpt lat="46.60727" lon="5.96208">
        <ele>833</ele>
        <time>2022-04-04T13:47:00Z</time>
      </trkpt>
      <trkpt lat="46.60733" lon="5.96197">
        <ele>834</ele>
        <time>2022-04-04T13:47:01Z</time>
      </trkpt>
      <trkpt lat="46.60739" lon="5.9619">
        <ele>835</ele>
        <time>2022-04-04T13:47:03Z</time>
      </trkpt>
      <trkpt lat="46.60786" lon="5.96163">
        <ele>835</ele>
        <time>2022-04-04T13:47:12Z</time>
      </trkpt>
      <trkpt lat="46.60802" lon="5.96148">
        <ele>836</ele>
        <time>2022-04-04T13:47:15Z</time>
      </trkpt>
      <trkpt lat="46.60812" lon="5.96132">
        <ele>837</ele>
        <time>2022-04-04T13:47:18Z</time>
      </trkpt>
      <trkpt lat="46.60816" lon="5.96116">
        <ele>839</ele>
        <time>2022-04-04T13:47:20Z</time>
      </trkpt>
      <trkpt lat="46.60819" lon="5.96084">
        <ele>844</ele>
        <time>2022-04-04T13:47:24Z</time>
      </trkpt>
      <trkpt lat="46.60824" lon="5.96073">
        <ele>846</ele>
        <time>2022-04-04T13:47:25Z</time>
      </trkpt>
      <trkpt lat="46.60863" lon="5.9603">
        <ele>849</ele>
        <time>2022-04-04T13:47:34Z</time>
      </trkpt>
      <trkpt lat="46.60878" lon="5.96008">
        <ele>850</ele>
        <time>2022-04-04T13:47:38Z</time>
      </trkpt>
      <trkpt lat="46.60889" lon="5.95988">
        <ele>850</ele>
        <time>2022-04-04T13:47:41Z</time>
      </trkpt>
      <trkpt lat="46.60896" lon="5.95964">
        <ele>852</ele>
        <time>2022-04-04T13:47:44Z</time>
      </trkpt>
      <trkpt lat="46.60898" lon="5.95953">
        <ele>853</ele>
        <time>2022-04-04T13:47:46Z</time>
      </trkpt>
      <trkpt lat="46.60899" lon="5.95923">
        <ele>857</ele>
        <time>2022-04-04T13:47:49Z</time>
      </trkpt>
      <trkpt lat="46.60902" lon="5.95909">
        <ele>858</ele>
        <time>2022-04-04T13:47:51Z</time>
      </trkpt>
      <trkpt lat="46.60917" lon="5.95869">
        <ele>860</ele>
        <time>2022-04-04T13:47:57Z</time>
      </trkpt>
      <trkpt lat="46.60926" lon="5.95837">
        <ele>862</ele>
        <time>2022-04-04T13:48:01Z</time>
      </trkpt>
      <trkpt lat="46.6094" lon="5.95762">
        <ele>863</ele>
        <time>2022-04-04T13:48:10Z</time>
      </trkpt>
      <trkpt lat="46.60942" lon="5.95737">
        <ele>864</ele>
        <time>2022-04-04T13:48:13Z</time>
      </trkpt>
      <trkpt lat="46.60936" lon="5.95711">
        <ele>865</ele>
        <time>2022-04-04T13:48:17Z</time>
      </trkpt>
      <trkpt lat="46.6092" lon="5.95671">
        <ele>865</ele>
        <time>2022-04-04T13:48:22Z</time>
      </trkpt>
      <trkpt lat="46.60872" lon="5.9558">
        <ele>870</ele>
        <time>2022-04-04T13:48:37Z</time>
      </trkpt>
      <trkpt lat="46.60856" lon="5.9556">
        <ele>870</ele>
        <time>2022-04-04T13:48:40Z</time>
      </trkpt>
      <trkpt lat="46.60822" lon="5.95538">
        <ele>873</ele>
        <time>2022-04-04T13:48:47Z</time>
      </trkpt>
      <trkpt lat="46.60814" lon="5.9553">
        <ele>875</ele>
        <time>2022-04-04T13:48:49Z</time>
      </trkpt>
      <trkpt lat="46.60802" lon="5.95506">
        <ele>878</ele>
        <time>2022-04-04T13:48:52Z</time>
      </trkpt>
      <trkpt lat="46.60783" lon="5.95457">
        <ele>881</ele>
        <time>2022-04-04T13:48:59Z</time>
      </trkpt>
      <trkpt lat="46.60775" lon="5.95446">
        <ele>882</ele>
        <time>2022-04-04T13:49:01Z</time>
      </trkpt>
      <trkpt lat="46.6073" lon="5.95402">
        <ele>885</ele>
        <time>2022-04-04T13:49:11Z</time>
      </trkpt>
      <trkpt lat="46.6073" lon="5.95403">
        <ele>885</ele>
        <time>2022-04-04T13:49:11Z</time>
      </trkpt>
      <trkpt lat="46.6073" lon="5.95402">
        <ele>885</ele>
        <time>2022-04-04T13:49:11Z</time>
      </trkpt>
      <trkpt lat="46.60728" lon="5.95399">
        <ele>885</ele>
        <time>2022-04-04T13:49:11Z</time>
      </trkpt>
      <trkpt lat="46.60703" lon="5.95379">
        <ele>887</ele>
        <time>2022-04-04T13:49:17Z</time>
      </trkpt>
      <trkpt lat="46.60644" lon="5.95326">
        <ele>890</ele>
        <time>2022-04-04T13:49:29Z</time>
      </trkpt>
      <trkpt lat="46.60456" lon="5.95165">
        <ele>889</ele>
        <time>2022-04-04T13:50:08Z</time>
      </trkpt>
      <trkpt lat="46.60437" lon="5.95155">
        <ele>889</ele>
        <time>2022-04-04T13:50:11Z</time>
      </trkpt>
      <trkpt lat="46.60426" lon="5.95153">
        <ele>889</ele>
        <time>2022-04-04T13:50:13Z</time>
      </trkpt>
      <trkpt lat="46.60341" lon="5.95157">
        <ele>893</ele>
        <time>2022-04-04T13:50:28Z</time>
      </trkpt>
      <trkpt lat="46.60326" lon="5.95155">
        <ele>893</ele>
        <time>2022-04-04T13:50:31Z</time>
      </trkpt>
      <trkpt lat="46.60317" lon="5.9515">
        <ele>892</ele>
        <time>2022-04-04T13:50:33Z</time>
      </trkpt>
      <trkpt lat="46.603" lon="5.95135">
        <ele>891</ele>
        <time>2022-04-04T13:50:36Z</time>
      </trkpt>
      <trkpt lat="46.60108" lon="5.94918">
        <ele>884</ele>
        <time>2022-04-04T13:51:20Z</time>
      </trkpt>
      <trkpt lat="46.60004" lon="5.94797">
        <ele>886</ele>
        <time>2022-04-04T13:51:43Z</time>
      </trkpt>
      <trkpt lat="46.59994" lon="5.94788">
        <ele>887</ele>
        <time>2022-04-04T13:51:45Z</time>
      </trkpt>
      <trkpt lat="46.59961" lon="5.94771">
        <ele>888</ele>
        <time>2022-04-04T13:51:52Z</time>
      </trkpt>
      <trkpt lat="46.59927" lon="5.94758">
        <ele>889</ele>
        <time>2022-04-04T13:51:58Z</time>
      </trkpt>
      <trkpt lat="46.59881" lon="5.94752">
        <ele>890</ele>
        <time>2022-04-04T13:52:06Z</time>
      </trkpt>
      <trkpt lat="46.5985" lon="5.9474">
        <ele>890</ele>
        <time>2022-04-04T13:52:12Z</time>
      </trkpt>
      <trkpt lat="46.59839" lon="5.94734">
        <ele>890</ele>
        <time>2022-04-04T13:52:14Z</time>
      </trkpt>
      <trkpt lat="46.59801" lon="5.94704">
        <ele>890</ele>
        <time>2022-04-04T13:52:22Z</time>
      </trkpt>
      <trkpt lat="46.59734" lon="5.94669">
        <ele>891</ele>
        <time>2022-04-04T13:52:34Z</time>
      </trkpt>
      <trkpt lat="46.59714" lon="5.94667">
        <ele>892</ele>
        <time>2022-04-04T13:52:38Z</time>
      </trkpt>
      <trkpt lat="46.59702" lon="5.94674">
        <ele>892</ele>
        <time>2022-04-04T13:52:40Z</time>
      </trkpt>
      <trkpt lat="46.59578" lon="5.94796">
        <ele>896</ele>
        <time>2022-04-04T13:53:07Z</time>
      </trkpt>
      <trkpt lat="46.59567" lon="5.94803">
        <ele>896</ele>
        <time>2022-04-04T13:53:09Z</time>
      </trkpt>
      <trkpt lat="46.59552" lon="5.94808">
        <ele>896</ele>
        <time>2022-04-04T13:53:12Z</time>
      </trkpt>
      <trkpt lat="46.5952" lon="5.94803">
        <ele>896</ele>
        <time>2022-04-04T13:53:17Z</time>
      </trkpt>
      <trkpt lat="46.59502" lon="5.94804">
        <ele>896</ele>
        <time>2022-04-04T13:53:21Z</time>
      </trkpt>
      <trkpt lat="46.59392" lon="5.94853">
        <ele>892</ele>
        <time>2022-04-04T13:53:41Z</time>
      </trkpt>
      <trkpt lat="46.59375" lon="5.94859">
        <ele>890</ele>
        <time>2022-04-04T13:53:44Z</time>
      </trkpt>
      <trkpt lat="46.59353" lon="5.94861">
        <ele>889</ele>
        <time>2022-04-04T13:53:48Z</time>
      </trkpt>
      <trkpt lat="46.59325" lon="5.94857">
        <ele>888</ele>
        <time>2022-04-04T13:53:53Z</time>
      </trkpt>
      <trkpt lat="46.59308" lon="5.94849">
        <ele>887</ele>
        <time>2022-04-04T13:53:56Z</time>
      </trkpt>
      <trkpt lat="46.5925" lon="5.94798">
        <ele>884</ele>
        <time>2022-04-04T13:54:08Z</time>
      </trkpt>
      <trkpt lat="46.59231" lon="5.94776">
        <ele>883</ele>
        <time>2022-04-04T13:54:13Z</time>
      </trkpt>
      <trkpt lat="46.59201" lon="5.94726">
        <ele>882</ele>
        <time>2022-04-04T13:54:21Z</time>
      </trkpt>
      <trkpt lat="46.59194" lon="5.94719">
        <ele>881</ele>
        <time>2022-04-04T13:54:22Z</time>
      </trkpt>
      <trkpt lat="46.59181" lon="5.94713">
        <ele>880</ele>
        <time>2022-04-04T13:54:25Z</time>
      </trkpt>
      <trkpt lat="46.59167" lon="5.94711">
        <ele>879</ele>
        <time>2022-04-04T13:54:27Z</time>
      </trkpt>
      <trkpt lat="46.59137" lon="5.94714">
        <ele>878</ele>
        <time>2022-04-04T13:54:33Z</time>
      </trkpt>
      <trkpt lat="46.59073" lon="5.94704">
        <ele>876</ele>
        <time>2022-04-04T13:54:44Z</time>
      </trkpt>
      <trkpt lat="46.59056" lon="5.9471">
        <ele>875</ele>
        <time>2022-04-04T13:54:47Z</time>
      </trkpt>
      <trkpt lat="46.5904" lon="5.9472">
        <ele>874</ele>
        <time>2022-04-04T13:54:50Z</time>
      </trkpt>
      <trkpt lat="46.59013" lon="5.9475">
        <ele>872</ele>
        <time>2022-04-04T13:54:56Z</time>
      </trkpt>
      <trkpt lat="46.59" lon="5.94756">
        <ele>871</ele>
        <time>2022-04-04T13:54:59Z</time>
      </trkpt>
      <trkpt lat="46.58988" lon="5.94757">
        <ele>870</ele>
        <time>2022-04-04T13:55:01Z</time>
      </trkpt>
      <trkpt lat="46.58975" lon="5.9475">
        <ele>870</ele>
        <time>2022-04-04T13:55:03Z</time>
      </trkpt>
      <trkpt lat="46.58948" lon="5.9472">
        <ele>868</ele>
        <time>2022-04-04T13:55:09Z</time>
      </trkpt>
      <trkpt lat="46.58941" lon="5.94714">
        <ele>868</ele>
        <time>2022-04-04T13:55:11Z</time>
      </trkpt>
      <trkpt lat="46.58927" lon="5.94708">
        <ele>867</ele>
        <time>2022-04-04T13:55:13Z</time>
      </trkpt>
      <trkpt lat="46.58916" lon="5.94706">
        <ele>866</ele>
        <time>2022-04-04T13:55:15Z</time>
      </trkpt>
      <trkpt lat="46.58902" lon="5.9471">
        <ele>867</ele>
        <time>2022-04-04T13:55:18Z</time>
      </trkpt>
      <trkpt lat="46.58843" lon="5.94544">
        <ele>872</ele>
        <time>2022-04-04T13:55:41Z</time>
      </trkpt>
      <trkpt lat="46.58807" lon="5.94455">
        <ele>877</ele>
        <time>2022-04-04T13:55:53Z</time>
      </trkpt>
      <trkpt lat="46.58778" lon="5.94377">
        <ele>879</ele>
        <time>2022-04-04T13:56:04Z</time>
      </trkpt>
      <trkpt lat="46.58773" lon="5.94352">
        <ele>880</ele>
        <time>2022-04-04T13:56:07Z</time>
      </trkpt>
      <trkpt lat="46.5877" lon="5.94286">
        <ele>883</ele>
        <time>2022-04-04T13:56:15Z</time>
      </trkpt>
      <trkpt lat="46.58766" lon="5.94258">
        <ele>884</ele>
        <time>2022-04-04T13:56:19Z</time>
      </trkpt>
      <trkpt lat="46.58758" lon="5.94232">
        <ele>885</ele>
        <time>2022-04-04T13:56:22Z</time>
      </trkpt>
      <trkpt lat="46.58731" lon="5.9417">
        <ele>886</ele>
        <time>2022-04-04T13:56:31Z</time>
      </trkpt>
      <trkpt lat="46.58721" lon="5.94159">
        <ele>886</ele>
        <time>2022-04-04T13:56:34Z</time>
      </trkpt>
      <trkpt lat="46.58699" lon="5.94144">
        <ele>885</ele>
        <time>2022-04-04T13:56:38Z</time>
      </trkpt>
      <trkpt lat="46.58688" lon="5.94129">
        <ele>884</ele>
        <time>2022-04-04T13:56:41Z</time>
      </trkpt>
      <trkpt lat="46.58643" lon="5.94046">
        <ele>886</ele>
        <time>2022-04-04T13:56:54Z</time>
      </trkpt>
      <trkpt lat="46.58624" lon="5.94022">
        <ele>888</ele>
        <time>2022-04-04T13:56:58Z</time>
      </trkpt>
      <trkpt lat="46.58567" lon="5.93964">
        <ele>889</ele>
        <time>2022-04-04T13:57:10Z</time>
      </trkpt>
      <trkpt lat="46.58555" lon="5.93947">
        <ele>889</ele>
        <time>2022-04-04T13:57:13Z</time>
      </trkpt>
      <trkpt lat="46.58542" lon="5.93918">
        <ele>890</ele>
        <time>2022-04-04T13:57:18Z</time>
      </trkpt>
      <trkpt lat="46.58527" lon="5.93861">
        <ele>891</ele>
        <time>2022-04-04T13:57:25Z</time>
      </trkpt>
      <trkpt lat="46.58519" lon="5.93839">
        <ele>892</ele>
        <time>2022-04-04T13:57:28Z</time>
      </trkpt>
      <trkpt lat="46.58511" lon="5.93824">
        <ele>894</ele>
        <time>2022-04-04T13:57:30Z</time>
      </trkpt>
      <trkpt lat="46.58505" lon="5.93815">
        <ele>895</ele>
        <time>2022-04-04T13:57:32Z</time>
      </trkpt>
      <trkpt lat="46.58497" lon="5.93806">
        <ele>896</ele>
        <time>2022-04-04T13:57:34Z</time>
      </trkpt>
      <trkpt lat="46.58464" lon="5.93776">
        <ele>898</ele>
        <time>2022-04-04T13:57:41Z</time>
      </trkpt>
      <trkpt lat="46.58403" lon="5.93733">
        <ele>899</ele>
        <time>2022-04-04T13:57:53Z</time>
      </trkpt>
      <trkpt lat="46.58384" lon="5.93717">
        <ele>898</ele>
        <time>2022-04-04T13:57:57Z</time>
      </trkpt>
      <trkpt lat="46.58377" lon="5.93709">
        <ele>898</ele>
        <time>2022-04-04T13:57:58Z</time>
      </trkpt>
      <trkpt lat="46.58356" lon="5.93682">
        <ele>897</ele>
        <time>2022-04-04T13:58:03Z</time>
      </trkpt>
      <trkpt lat="46.58346" lon="5.93663">
        <ele>897</ele>
        <time>2022-04-04T13:58:06Z</time>
      </trkpt>
      <trkpt lat="46.58338" lon="5.93643">
        <ele>897</ele>
        <time>2022-04-04T13:58:09Z</time>
      </trkpt>
      <trkpt lat="46.58322" lon="5.9357">
        <ele>897</ele>
        <time>2022-04-04T13:58:18Z</time>
      </trkpt>
      <trkpt lat="46.58311" lon="5.93534">
        <ele>898</ele>
        <time>2022-04-04T13:58:23Z</time>
      </trkpt>
      <trkpt lat="46.58275" lon="5.93449">
        <ele>900</ele>
        <time>2022-04-04T13:58:35Z</time>
      </trkpt>
      <trkpt lat="46.58267" lon="5.93434">
        <ele>900</ele>
        <time>2022-04-04T13:58:38Z</time>
      </trkpt>
      <trkpt lat="46.58184" lon="5.93314">
        <ele>899</ele>
        <time>2022-04-04T13:58:59Z</time>
      </trkpt>
      <trkpt lat="46.58162" lon="5.93273">
        <ele>899</ele>
        <time>2022-04-04T13:59:05Z</time>
      </trkpt>
      <trkpt lat="46.58145" lon="5.93229">
        <ele>900</ele>
        <time>2022-04-04T13:59:11Z</time>
      </trkpt>
      <trkpt lat="46.58123" lon="5.93177">
        <ele>901</ele>
        <time>2022-04-04T13:59:19Z</time>
      </trkpt>
      <trkpt lat="46.58091" lon="5.93088">
        <ele>901</ele>
        <time>2022-04-04T13:59:31Z</time>
      </trkpt>
      <trkpt lat="46.5808" lon="5.93049">
        <ele>902</ele>
        <time>2022-04-04T13:59:36Z</time>
      </trkpt>
      <trkpt lat="46.58071" lon="5.92989">
        <ele>903</ele>
        <time>2022-04-04T13:59:43Z</time>
      </trkpt>
      <trkpt lat="46.58065" lon="5.92973">
        <ele>903</ele>
        <time>2022-04-04T13:59:46Z</time>
      </trkpt>
      <trkpt lat="46.58052" lon="5.92955">
        <ele>904</ele>
        <time>2022-04-04T13:59:49Z</time>
      </trkpt>
      <trkpt lat="46.58028" lon="5.92933">
        <ele>904</ele>
        <time>2022-04-04T13:59:54Z</time>
      </trkpt>
      <trkpt lat="46.58015" lon="5.92919">
        <ele>904</ele>
        <time>2022-04-04T13:59:57Z</time>
      </trkpt>
      <trkpt lat="46.58009" lon="5.92913">
        <ele>904</ele>
        <time>2022-04-04T13:59:58Z</time>
      </trkpt>
      <trkpt lat="46.57998" lon="5.92896">
        <ele>904</ele>
        <time>2022-04-04T14:00:01Z</time>
      </trkpt>
      <trkpt lat="46.5799" lon="5.92886">
        <ele>903</ele>
        <time>2022-04-04T14:00:03Z</time>
      </trkpt>
      <trkpt lat="46.57973" lon="5.92874">
        <ele>903</ele>
        <time>2022-04-04T14:00:06Z</time>
      </trkpt>
      <trkpt lat="46.57956" lon="5.92868">
        <ele>902</ele>
        <time>2022-04-04T14:00:09Z</time>
      </trkpt>
      <trkpt lat="46.57916" lon="5.92862">
        <ele>901</ele>
        <time>2022-04-04T14:00:17Z</time>
      </trkpt>
      <trkpt lat="46.57905" lon="5.92858">
        <ele>901</ele>
        <time>2022-04-04T14:00:19Z</time>
      </trkpt>
      <trkpt lat="46.57872" lon="5.92836">
        <ele>902</ele>
        <time>2022-04-04T14:00:25Z</time>
      </trkpt>
      <trkpt lat="46.5785" lon="5.92827">
        <ele>903</ele>
        <time>2022-04-04T14:00:29Z</time>
      </trkpt>
      <trkpt lat="46.57759" lon="5.92807">
        <ele>906</ele>
        <time>2022-04-04T14:00:45Z</time>
      </trkpt>
      <trkpt lat="46.57701" lon="5.92804">
        <ele>907</ele>
        <time>2022-04-04T14:00:56Z</time>
      </trkpt>
      <trkpt lat="46.57687" lon="5.92798">
        <ele>908</ele>
        <time>2022-04-04T14:00:58Z</time>
      </trkpt>
      <trkpt lat="46.57656" lon="5.92767">
        <ele>908</ele>
        <time>2022-04-04T14:01:05Z</time>
      </trkpt>
      <trkpt lat="46.57626" lon="5.9273">
        <ele>906</ele>
        <time>2022-04-04T14:01:12Z</time>
      </trkpt>
      <trkpt lat="46.57611" lon="5.92716">
        <ele>905</ele>
        <time>2022-04-04T14:01:15Z</time>
      </trkpt>
      <trkpt lat="46.5758" lon="5.92693">
        <ele>904</ele>
        <time>2022-04-04T14:01:21Z</time>
      </trkpt>
      <trkpt lat="46.57547" lon="5.92665">
        <ele>904</ele>
        <time>2022-04-04T14:01:28Z</time>
      </trkpt>
      <trkpt lat="46.57474" lon="5.92625">
        <ele>901</ele>
        <time>2022-04-04T14:01:42Z</time>
      </trkpt>
      <trkpt lat="46.57455" lon="5.92611">
        <ele>899</ele>
        <time>2022-04-04T14:01:46Z</time>
      </trkpt>
      <trkpt lat="46.57446" lon="5.926">
        <ele>899</ele>
        <time>2022-04-04T14:01:48Z</time>
      </trkpt>
      <trkpt lat="46.57415" lon="5.92548">
        <ele>898</ele>
        <time>2022-04-04T14:01:56Z</time>
      </trkpt>
      <trkpt lat="46.57315" lon="5.92331">
        <ele>887</ele>
        <time>2022-04-04T14:02:28Z</time>
      </trkpt>
      <trkpt lat="46.57295" lon="5.92299">
        <ele>886</ele>
        <time>2022-04-04T14:02:34Z</time>
      </trkpt>
      <trkpt lat="46.5727" lon="5.92268">
        <ele>885</ele>
        <time>2022-04-04T14:02:39Z</time>
      </trkpt>
      <trkpt lat="46.57263" lon="5.92262">
        <ele>885</ele>
        <time>2022-04-04T14:02:41Z</time>
      </trkpt>
      <trkpt lat="46.57178" lon="5.92206">
        <ele>877</ele>
        <time>2022-04-04T14:02:58Z</time>
      </trkpt>
      <trkpt lat="46.57101" lon="5.92146">
        <ele>875</ele>
        <time>2022-04-04T14:03:13Z</time>
      </trkpt>
      <trkpt lat="46.57046" lon="5.92089">
        <ele>877</ele>
        <time>2022-04-04T14:03:25Z</time>
      </trkpt>
      <trkpt lat="46.57015" lon="5.92045">
        <ele>879</ele>
        <time>2022-04-04T14:03:33Z</time>
      </trkpt>
      <trkpt lat="46.56996" lon="5.92014">
        <ele>881</ele>
        <time>2022-04-04T14:03:38Z</time>
      </trkpt>
      <trkpt lat="46.56981" lon="5.91998">
        <ele>882</ele>
        <time>2022-04-04T14:03:41Z</time>
      </trkpt>
      <trkpt lat="46.56966" lon="5.91986">
        <ele>882</ele>
        <time>2022-04-04T14:03:44Z</time>
      </trkpt>
      <trkpt lat="46.56878" lon="5.91929">
        <ele>882</ele>
        <time>2022-04-04T14:04:01Z</time>
      </trkpt>
      <trkpt lat="46.56831" lon="5.91891">
        <ele>884</ele>
        <time>2022-04-04T14:04:11Z</time>
      </trkpt>
      <trkpt lat="46.56816" lon="5.91877">
        <ele>885</ele>
        <time>2022-04-04T14:04:14Z</time>
      </trkpt>
      <trkpt lat="46.56777" lon="5.91835">
        <ele>888</ele>
        <time>2022-04-04T14:04:23Z</time>
      </trkpt>
      <trkpt lat="46.56752" lon="5.91812">
        <ele>889</ele>
        <time>2022-04-04T14:04:28Z</time>
      </trkpt>
      <trkpt lat="46.56719" lon="5.91772">
        <ele>890</ele>
        <time>2022-04-04T14:04:36Z</time>
      </trkpt>
      <trkpt lat="46.56698" lon="5.9176">
        <ele>890</ele>
        <time>2022-04-04T14:04:40Z</time>
      </trkpt>
      <trkpt lat="46.56648" lon="5.91736">
        <ele>890</ele>
        <time>2022-04-04T14:04:49Z</time>
      </trkpt>
      <trkpt lat="46.5661" lon="5.91724">
        <ele>888</ele>
        <time>2022-04-04T14:04:56Z</time>
      </trkpt>
      <trkpt lat="46.56507" lon="5.91707">
        <ele>888</ele>
        <time>2022-04-04T14:05:14Z</time>
      </trkpt>
      <trkpt lat="46.56474" lon="5.91695">
        <ele>888</ele>
        <time>2022-04-04T14:05:20Z</time>
      </trkpt>
      <trkpt lat="46.56394" lon="5.91656">
        <ele>887</ele>
        <time>2022-04-04T14:05:35Z</time>
      </trkpt>
      <trkpt lat="46.56373" lon="5.91649">
        <ele>886</ele>
        <time>2022-04-04T14:05:39Z</time>
      </trkpt>
      <trkpt lat="46.56357" lon="5.91645">
        <ele>885</ele>
        <time>2022-04-04T14:05:42Z</time>
      </trkpt>
      <trkpt lat="46.56315" lon="5.91644">
        <ele>885</ele>
        <time>2022-04-04T14:05:50Z</time>
      </trkpt>
      <trkpt lat="46.56286" lon="5.91641">
        <ele>885</ele>
        <time>2022-04-04T14:05:55Z</time>
      </trkpt>
      <trkpt lat="46.56263" lon="5.91634">
        <ele>885</ele>
        <time>2022-04-04T14:05:59Z</time>
      </trkpt>
      <trkpt lat="46.56241" lon="5.91623">
        <ele>885</ele>
        <time>2022-04-04T14:06:03Z</time>
      </trkpt>
      <trkpt lat="46.56191" lon="5.91604">
        <ele>886</ele>
        <time>2022-04-04T14:06:12Z</time>
      </trkpt>
      <trkpt lat="46.56167" lon="5.91587">
        <ele>886</ele>
        <time>2022-04-04T14:06:17Z</time>
      </trkpt>
      <trkpt lat="46.56148" lon="5.91558">
        <ele>887</ele>
        <time>2022-04-04T14:06:22Z</time>
      </trkpt>
      <trkpt lat="46.56114" lon="5.91496">
        <ele>890</ele>
        <time>2022-04-04T14:06:32Z</time>
      </trkpt>
      <trkpt lat="46.56092" lon="5.91451">
        <ele>892</ele>
        <time>2022-04-04T14:06:38Z</time>
      </trkpt>
      <trkpt lat="46.56076" lon="5.91432">
        <ele>892</ele>
        <time>2022-04-04T14:06:42Z</time>
      </trkpt>
      <trkpt lat="46.5606" lon="5.91421">
        <ele>892</ele>
        <time>2022-04-04T14:06:45Z</time>
      </trkpt>
      <trkpt lat="46.55991" lon="5.91388">
        <ele>891</ele>
        <time>2022-04-04T14:06:58Z</time>
      </trkpt>
      <trkpt lat="46.55958" lon="5.9138">
        <ele>887</ele>
        <time>2022-04-04T14:07:04Z</time>
      </trkpt>
      <trkpt lat="46.55902" lon="5.91376">
        <ele>881</ele>
        <time>2022-04-04T14:07:14Z</time>
      </trkpt>
      <trkpt lat="46.55816" lon="5.91349">
        <ele>876</ele>
        <time>2022-04-04T14:07:30Z</time>
      </trkpt>
      <trkpt lat="46.55803" lon="5.91352">
        <ele>875</ele>
        <time>2022-04-04T14:07:32Z</time>
      </trkpt>
      <trkpt lat="46.55784" lon="5.91362">
        <ele>872</ele>
        <time>2022-04-04T14:07:36Z</time>
      </trkpt>
      <trkpt lat="46.5577" lon="5.91364">
        <ele>871</ele>
        <time>2022-04-04T14:07:38Z</time>
      </trkpt>
      <trkpt lat="46.55756" lon="5.91361">
        <ele>870</ele>
        <time>2022-04-04T14:07:41Z</time>
      </trkpt>
      <trkpt lat="46.55728" lon="5.9135">
        <ele>869</ele>
        <time>2022-04-04T14:07:46Z</time>
      </trkpt>
      <trkpt lat="46.55711" lon="5.91347">
        <ele>868</ele>
        <time>2022-04-04T14:07:49Z</time>
      </trkpt>
      <trkpt lat="46.55672" lon="5.91355">
        <ele>865</ele>
        <time>2022-04-04T14:07:56Z</time>
      </trkpt>
      <trkpt lat="46.55653" lon="5.91355">
        <ele>863</ele>
        <time>2022-04-04T14:07:59Z</time>
      </trkpt>
      <trkpt lat="46.55637" lon="5.91349">
        <ele>862</ele>
        <time>2022-04-04T14:08:02Z</time>
      </trkpt>
      <trkpt lat="46.55552" lon="5.91304">
        <ele>856</ele>
        <time>2022-04-04T14:08:18Z</time>
      </trkpt>
      <trkpt lat="46.5554" lon="5.913">
        <ele>856</ele>
        <time>2022-04-04T14:08:21Z</time>
      </trkpt>
      <trkpt lat="46.55518" lon="5.91297">
        <ele>856</ele>
        <time>2022-04-04T14:08:24Z</time>
      </trkpt>
      <trkpt lat="46.55489" lon="5.91307">
        <ele>854</ele>
        <time>2022-04-04T14:08:30Z</time>
      </trkpt>
      <trkpt lat="46.55452" lon="5.91333">
        <ele>852</ele>
        <time>2022-04-04T14:08:37Z</time>
      </trkpt>
      <trkpt lat="46.55435" lon="5.91346">
        <ele>852</ele>
        <time>2022-04-04T14:08:41Z</time>
      </trkpt>
      <trkpt lat="46.55422" lon="5.91363">
        <ele>853</ele>
        <time>2022-04-04T14:08:44Z</time>
      </trkpt>
      <trkpt lat="46.55404" lon="5.91395">
        <ele>854</ele>
        <time>2022-04-04T14:08:49Z</time>
      </trkpt>
      <trkpt lat="46.55388" lon="5.91413">
        <ele>856</ele>
        <time>2022-04-04T14:08:52Z</time>
      </trkpt>
      <trkpt lat="46.55369" lon="5.91426">
        <ele>857</ele>
        <time>2022-04-04T14:08:56Z</time>
      </trkpt>
      <trkpt lat="46.55349" lon="5.91431">
        <ele>859</ele>
        <time>2022-04-04T14:09:00Z</time>
      </trkpt>
      <trkpt lat="46.55319" lon="5.91431">
        <ele>861</ele>
        <time>2022-04-04T14:09:05Z</time>
      </trkpt>
      <trkpt lat="46.55234" lon="5.91416">
        <ele>866</ele>
        <time>2022-04-04T14:09:20Z</time>
      </trkpt>
      <trkpt lat="46.55213" lon="5.91414">
        <ele>867</ele>
        <time>2022-04-04T14:09:24Z</time>
      </trkpt>
      <trkpt lat="46.55185" lon="5.91419">
        <ele>868</ele>
        <time>2022-04-04T14:09:29Z</time>
      </trkpt>
      <trkpt lat="46.55171" lon="5.91428">
        <ele>869</ele>
        <time>2022-04-04T14:09:32Z</time>
      </trkpt>
      <trkpt lat="46.55157" lon="5.9144">
        <ele>869</ele>
        <time>2022-04-04T14:09:35Z</time>
      </trkpt>
      <trkpt lat="46.55148" lon="5.91455">
        <ele>870</ele>
        <time>2022-04-04T14:09:37Z</time>
      </trkpt>
      <trkpt lat="46.5514" lon="5.91474">
        <ele>870</ele>
        <time>2022-04-04T14:09:40Z</time>
      </trkpt>
      <trkpt lat="46.5512" lon="5.91542">
        <ele>869</ele>
        <time>2022-04-04T14:09:49Z</time>
      </trkpt>
      <trkpt lat="46.55113" lon="5.91569">
        <ele>868</ele>
        <time>2022-04-04T14:09:52Z</time>
      </trkpt>
      <trkpt lat="46.5511" lon="5.91597">
        <ele>867</ele>
        <time>2022-04-04T14:09:56Z</time>
      </trkpt>
      <trkpt lat="46.55112" lon="5.91663">
        <ele>863</ele>
        <time>2022-04-04T14:10:04Z</time>
      </trkpt>
      <trkpt lat="46.55111" lon="5.91685">
        <ele>862</ele>
        <time>2022-04-04T14:10:07Z</time>
      </trkpt>
      <trkpt lat="46.55109" lon="5.91696">
        <ele>862</ele>
        <time>2022-04-04T14:10:08Z</time>
      </trkpt>
      <trkpt lat="46.55102" lon="5.91717">
        <ele>861</ele>
        <time>2022-04-04T14:10:11Z</time>
      </trkpt>
      <trkpt lat="46.55092" lon="5.91734">
        <ele>861</ele>
        <time>2022-04-04T14:10:14Z</time>
      </trkpt>
      <trkpt lat="46.55075" lon="5.91756">
        <ele>861</ele>
        <time>2022-04-04T14:10:18Z</time>
      </trkpt>
      <trkpt lat="46.54996" lon="5.91842">
        <ele>861</ele>
        <time>2022-04-04T14:10:35Z</time>
      </trkpt>
      <trkpt lat="46.5496" lon="5.91888">
        <ele>861</ele>
        <time>2022-04-04T14:10:44Z</time>
      </trkpt>
      <trkpt lat="46.54913" lon="5.91978">
        <ele>857</ele>
        <time>2022-04-04T14:10:58Z</time>
      </trkpt>
      <trkpt lat="46.54854" lon="5.92094">
        <ele>858</ele>
        <time>2022-04-04T14:11:15Z</time>
      </trkpt>
      <trkpt lat="46.54786" lon="5.92055">
        <ele>858</ele>
        <time>2022-04-04T14:11:28Z</time>
      </trkpt>
      <trkpt lat="46.54766" lon="5.92041">
        <ele>858</ele>
        <time>2022-04-04T14:11:32Z</time>
      </trkpt>
      <trkpt lat="46.54746" lon="5.92022">
        <ele>857</ele>
        <time>2022-04-04T14:11:36Z</time>
      </trkpt>
      <trkpt lat="46.54647" lon="5.91911">
        <ele>860</ele>
        <time>2022-04-04T14:11:59Z</time>
      </trkpt>
      <trkpt lat="46.54551" lon="5.91815">
        <ele>866</ele>
        <time>2022-04-04T14:12:19Z</time>
      </trkpt>
      <trkpt lat="46.54492" lon="5.91764">
        <ele>867</ele>
        <time>2022-04-04T14:12:32Z</time>
      </trkpt>
      <trkpt lat="46.54462" lon="5.91717">
        <ele>867</ele>
        <time>2022-04-04T14:12:39Z</time>
      </trkpt>
      <trkpt lat="46.54444" lon="5.917">
        <ele>867</ele>
        <time>2022-04-04T14:12:43Z</time>
      </trkpt>
      <trkpt lat="46.54423" lon="5.91687">
        <ele>867</ele>
        <time>2022-04-04T14:12:47Z</time>
      </trkpt>
      <trkpt lat="46.54364" lon="5.91667">
        <ele>869</ele>
        <time>2022-04-04T14:12:58Z</time>
      </trkpt>
      <trkpt lat="46.54284" lon="5.9165">
        <ele>875</ele>
        <time>2022-04-04T14:13:12Z</time>
      </trkpt>
      <trkpt lat="46.54266" lon="5.91641">
        <ele>876</ele>
        <time>2022-04-04T14:13:16Z</time>
      </trkpt>
      <trkpt lat="46.54234" lon="5.91622">
        <ele>878</ele>
        <time>2022-04-04T14:13:22Z</time>
      </trkpt>
      <trkpt lat="46.54212" lon="5.91617">
        <ele>878</ele>
        <time>2022-04-04T14:13:26Z</time>
      </trkpt>
      <trkpt lat="46.54171" lon="5.91616">
        <ele>879</ele>
        <time>2022-04-04T14:13:33Z</time>
      </trkpt>
      <trkpt lat="46.54123" lon="5.91621">
        <ele>880</ele>
        <time>2022-04-04T14:13:42Z</time>
      </trkpt>
      <trkpt lat="46.54104" lon="5.9163">
        <ele>880</ele>
        <time>2022-04-04T14:13:45Z</time>
      </trkpt>
      <trkpt lat="46.541" lon="5.91608">
        <ele>880</ele>
        <time>2022-04-04T14:13:48Z</time>
      </trkpt>
      <trkpt lat="46.54099" lon="5.91598">
        <ele>880</ele>
        <time>2022-04-04T14:13:49Z</time>
      </trkpt>
      <trkpt lat="46.54102" lon="5.91579">
        <ele>880</ele>
        <time>2022-04-04T14:13:52Z</time>
      </trkpt>
      <trkpt lat="46.54134" lon="5.91488">
        <ele>885</ele>
        <time>2022-04-04T14:14:04Z</time>
      </trkpt>
      <trkpt lat="46.54141" lon="5.91461">
        <ele>886</ele>
        <time>2022-04-04T14:14:08Z</time>
      </trkpt>
      <trkpt lat="46.54144" lon="5.91436">
        <ele>887</ele>
        <time>2022-04-04T14:14:11Z</time>
      </trkpt>
      <trkpt lat="46.54143" lon="5.91412">
        <ele>888</ele>
        <time>2022-04-04T14:14:14Z</time>
      </trkpt>
      <trkpt lat="46.54139" lon="5.91385">
        <ele>889</ele>
        <time>2022-04-04T14:14:17Z</time>
      </trkpt>
      <trkpt lat="46.54135" lon="5.91372">
        <ele>889</ele>
        <time>2022-04-04T14:14:19Z</time>
      </trkpt>
      <trkpt lat="46.54119" lon="5.91339">
        <ele>891</ele>
        <time>2022-04-04T14:14:24Z</time>
      </trkpt>
      <trkpt lat="46.54099" lon="5.91305">
        <ele>892</ele>
        <time>2022-04-04T14:14:29Z</time>
      </trkpt>
      <trkpt lat="46.54078" lon="5.9128">
        <ele>892</ele>
        <time>2022-04-04T14:14:34Z</time>
      </trkpt>
      <trkpt lat="46.5404" lon="5.91242">
        <ele>893</ele>
        <time>2022-04-04T14:14:42Z</time>
      </trkpt>
      <trkpt lat="46.54018" lon="5.91212">
        <ele>893</ele>
        <time>2022-04-04T14:14:48Z</time>
      </trkpt>
      <trkpt lat="46.53911" lon="5.9109">
        <ele>892</ele>
        <time>2022-04-04T14:15:12Z</time>
      </trkpt>
      <trkpt lat="46.53901" lon="5.91075">
        <ele>891</ele>
        <time>2022-04-04T14:15:15Z</time>
      </trkpt>
      <trkpt lat="46.53873" lon="5.91026">
        <ele>891</ele>
        <time>2022-04-04T14:15:22Z</time>
      </trkpt>
      <trkpt lat="46.53863" lon="5.91011">
        <ele>890</ele>
        <time>2022-04-04T14:15:25Z</time>
      </trkpt>
      <trkpt lat="46.53814" lon="5.90948">
        <ele>892</ele>
        <time>2022-04-04T14:15:37Z</time>
      </trkpt>
      <trkpt lat="46.5374" lon="5.90844">
        <ele>889</ele>
        <time>2022-04-04T14:15:55Z</time>
      </trkpt>
      <trkpt lat="46.53726" lon="5.90821">
        <ele>889</ele>
        <time>2022-04-04T14:15:59Z</time>
      </trkpt>
      <trkpt lat="46.53714" lon="5.90797">
        <ele>890</ele>
        <time>2022-04-04T14:16:02Z</time>
      </trkpt>
      <trkpt lat="46.53673" lon="5.907">
        <ele>891</ele>
        <time>2022-04-04T14:16:16Z</time>
      </trkpt>
      <trkpt lat="46.53653" lon="5.90664">
        <ele>891</ele>
        <time>2022-04-04T14:16:22Z</time>
      </trkpt>
      <trkpt lat="46.53547" lon="5.90487">
        <ele>890</ele>
        <time>2022-04-04T14:16:51Z</time>
      </trkpt>
      <trkpt lat="46.53521" lon="5.9045">
        <ele>891</ele>
        <time>2022-04-04T14:16:57Z</time>
      </trkpt>
      <trkpt lat="46.53512" lon="5.9044">
        <ele>891</ele>
        <time>2022-04-04T14:16:59Z</time>
      </trkpt>
      <trkpt lat="46.53498" lon="5.9043">
        <ele>891</ele>
        <time>2022-04-04T14:17:02Z</time>
      </trkpt>
      <trkpt lat="46.53486" lon="5.90424">
        <ele>891</ele>
        <time>2022-04-04T14:17:04Z</time>
      </trkpt>
      <trkpt lat="46.53445" lon="5.90414">
        <ele>891</ele>
        <time>2022-04-04T14:17:11Z</time>
      </trkpt>
      <trkpt lat="46.53422" lon="5.90415">
        <ele>891</ele>
        <time>2022-04-04T14:17:16Z</time>
      </trkpt>
      <trkpt lat="46.53421" lon="5.90409">
        <ele>891</ele>
        <time>2022-04-04T14:17:16Z</time>
      </trkpt>
      <trkpt lat="46.53406" lon="5.90382">
        <ele>893</ele>
        <time>2022-04-04T14:17:21Z</time>
      </trkpt>
      <trkpt lat="46.53402" lon="5.90372">
        <ele>893</ele>
        <time>2022-04-04T14:17:22Z</time>
      </trkpt>
      <trkpt lat="46.53399" lon="5.90361">
        <ele>894</ele>
        <time>2022-04-04T14:17:23Z</time>
      </trkpt>
      <trkpt lat="46.53397" lon="5.90324">
        <ele>894</ele>
        <time>2022-04-04T14:17:28Z</time>
      </trkpt>
      <trkpt lat="46.53395" lon="5.90313">
        <ele>895</ele>
        <time>2022-04-04T14:17:29Z</time>
      </trkpt>
      <trkpt lat="46.53384" lon="5.90291">
        <ele>896</ele>
        <time>2022-04-04T14:17:33Z</time>
      </trkpt>
      <trkpt lat="46.53363" lon="5.90263">
        <ele>898</ele>
        <time>2022-04-04T14:17:38Z</time>
      </trkpt>
      <trkpt lat="46.53315" lon="5.90224">
        <ele>901</ele>
        <time>2022-04-04T14:17:48Z</time>
      </trkpt>
      <trkpt lat="46.53309" lon="5.9023">
        <ele>901</ele>
        <time>2022-04-04T14:17:49Z</time>
      </trkpt>
      <trkpt lat="46.53315" lon="5.90224">
        <ele>901</ele>
        <time>2022-04-04T14:17:50Z</time>
      </trkpt>
      <trkpt lat="46.5327" lon="5.90172">
        <ele>903</ele>
        <time>2022-04-04T14:18:00Z</time>
      </trkpt>
      <trkpt lat="46.53203" lon="5.90112">
        <ele>902</ele>
        <time>2022-04-04T14:18:14Z</time>
      </trkpt>
      <trkpt lat="46.53181" lon="5.90077">
        <ele>904</ele>
        <time>2022-04-04T14:18:20Z</time>
      </trkpt>
      <trkpt lat="46.53151" lon="5.90042">
        <ele>902</ele>
        <time>2022-04-04T14:18:27Z</time>
      </trkpt>
      <trkpt lat="46.53144" lon="5.90031">
        <ele>901</ele>
        <time>2022-04-04T14:18:29Z</time>
      </trkpt>
      <trkpt lat="46.53135" lon="5.9001">
        <ele>901</ele>
        <time>2022-04-04T14:18:32Z</time>
      </trkpt>
      <trkpt lat="46.53129" lon="5.89965">
        <ele>900</ele>
        <time>2022-04-04T14:18:38Z</time>
      </trkpt>
      <trkpt lat="46.53117" lon="5.89949">
        <ele>900</ele>
        <time>2022-04-04T14:18:40Z</time>
      </trkpt>
      <trkpt lat="46.53085" lon="5.89923">
        <ele>900</ele>
        <time>2022-04-04T14:18:47Z</time>
      </trkpt>
      <trkpt lat="46.53061" lon="5.899">
        <ele>898</ele>
        <time>2022-04-04T14:18:52Z</time>
      </trkpt>
      <trkpt lat="46.53049" lon="5.89913">
        <ele>899</ele>
        <time>2022-04-04T14:18:55Z</time>
      </trkpt>
      <trkpt lat="46.53033" lon="5.89883">
        <ele>897</ele>
        <time>2022-04-04T14:18:59Z</time>
      </trkpt>
      <trkpt lat="46.53019" lon="5.89863">
        <ele>897</ele>
        <time>2022-04-04T14:19:03Z</time>
      </trkpt>
      <trkpt lat="46.53004" lon="5.89847">
        <ele>897</ele>
        <time>2022-04-04T14:19:06Z</time>
      </trkpt>
      <trkpt lat="46.52989" lon="5.89837">
        <ele>897</ele>
        <time>2022-04-04T14:19:09Z</time>
      </trkpt>
      <trkpt lat="46.52934" lon="5.89811">
        <ele>894</ele>
        <time>2022-04-04T14:19:19Z</time>
      </trkpt>
      <trkpt lat="46.52911" lon="5.89801">
        <ele>893</ele>
        <time>2022-04-04T14:19:24Z</time>
      </trkpt>
      <trkpt lat="46.5288" lon="5.89792">
        <ele>893</ele>
        <time>2022-04-04T14:19:29Z</time>
      </trkpt>
      <trkpt lat="46.52842" lon="5.89785">
        <ele>894</ele>
        <time>2022-04-04T14:19:36Z</time>
      </trkpt>
      <trkpt lat="46.52808" lon="5.89775">
        <ele>894</ele>
        <time>2022-04-04T14:19:42Z</time>
      </trkpt>
      <trkpt lat="46.52763" lon="5.8975">
        <ele>894</ele>
        <time>2022-04-04T14:19:51Z</time>
      </trkpt>
      <trkpt lat="46.52738" lon="5.89732">
        <ele>894</ele>
        <time>2022-04-04T14:19:56Z</time>
      </trkpt>
      <trkpt lat="46.52722" lon="5.89724">
        <ele>894</ele>
        <time>2022-04-04T14:19:59Z</time>
      </trkpt>
      <trkpt lat="46.52701" lon="5.89719">
        <ele>894</ele>
        <time>2022-04-04T14:20:03Z</time>
      </trkpt>
      <trkpt lat="46.52646" lon="5.89722">
        <ele>895</ele>
        <time>2022-04-04T14:20:12Z</time>
      </trkpt>
      <trkpt lat="46.52628" lon="5.89716">
        <ele>895</ele>
        <time>2022-04-04T14:20:16Z</time>
      </trkpt>
      <trkpt lat="46.52607" lon="5.89697">
        <ele>896</ele>
        <time>2022-04-04T14:20:20Z</time>
      </trkpt>
      <trkpt lat="46.52551" lon="5.8963">
        <ele>896</ele>
        <time>2022-04-04T14:20:33Z</time>
      </trkpt>
      <trkpt lat="46.52516" lon="5.89585">
        <ele>896</ele>
        <time>2022-04-04T14:20:41Z</time>
      </trkpt>
      <trkpt lat="46.52462" lon="5.89488">
        <ele>894</ele>
        <time>2022-04-04T14:20:57Z</time>
      </trkpt>
      <trkpt lat="46.52451" lon="5.89454">
        <ele>893</ele>
        <time>2022-04-04T14:21:01Z</time>
      </trkpt>
      <trkpt lat="46.52443" lon="5.89425">
        <ele>893</ele>
        <time>2022-04-04T14:21:05Z</time>
      </trkpt>
      <trkpt lat="46.5243" lon="5.89391">
        <ele>893</ele>
        <time>2022-04-04T14:21:10Z</time>
      </trkpt>
      <trkpt lat="46.52397" lon="5.89333">
        <ele>894</ele>
        <time>2022-04-04T14:21:19Z</time>
      </trkpt>
      <trkpt lat="46.52382" lon="5.89302">
        <ele>894</ele>
        <time>2022-04-04T14:21:24Z</time>
      </trkpt>
      <trkpt lat="46.52348" lon="5.89144">
        <ele>895</ele>
        <time>2022-04-04T14:21:44Z</time>
      </trkpt>
      <trkpt lat="46.52332" lon="5.89106">
        <ele>896</ele>
        <time>2022-04-04T14:21:49Z</time>
      </trkpt>
      <trkpt lat="46.52295" lon="5.89034">
        <ele>894</ele>
        <time>2022-04-04T14:22:00Z</time>
      </trkpt>
      <trkpt lat="46.52274" lon="5.88987">
        <ele>893</ele>
        <time>2022-04-04T14:22:07Z</time>
      </trkpt>
      <trkpt lat="46.52228" lon="5.88825">
        <ele>895</ele>
        <time>2022-04-04T14:22:29Z</time>
      </trkpt>
      <trkpt lat="46.52213" lon="5.88788">
        <ele>894</ele>
        <time>2022-04-04T14:22:34Z</time>
      </trkpt>
      <trkpt lat="46.522" lon="5.88769">
        <ele>894</ele>
        <time>2022-04-04T14:22:37Z</time>
      </trkpt>
      <trkpt lat="46.52179" lon="5.8875">
        <ele>895</ele>
        <time>2022-04-04T14:22:42Z</time>
      </trkpt>
      <trkpt lat="46.52159" lon="5.88742">
        <ele>895</ele>
        <time>2022-04-04T14:22:45Z</time>
      </trkpt>
      <trkpt lat="46.52139" lon="5.8874">
        <ele>895</ele>
        <time>2022-04-04T14:22:49Z</time>
      </trkpt>
      <trkpt lat="46.52107" lon="5.88727">
        <ele>894</ele>
        <time>2022-04-04T14:22:55Z</time>
      </trkpt>
      <trkpt lat="46.52089" lon="5.88706">
        <ele>894</ele>
        <time>2022-04-04T14:22:59Z</time>
      </trkpt>
      <trkpt lat="46.52004" lon="5.88564">
        <ele>891</ele>
        <time>2022-04-04T14:23:22Z</time>
      </trkpt>
      <trkpt lat="46.51967" lon="5.88493">
        <ele>889</ele>
        <time>2022-04-04T14:23:33Z</time>
      </trkpt>
      <trkpt lat="46.51952" lon="5.88454">
        <ele>889</ele>
        <time>2022-04-04T14:23:38Z</time>
      </trkpt>
      <trkpt lat="46.51897" lon="5.88201">
        <ele>889</ele>
        <time>2022-04-04T14:24:11Z</time>
      </trkpt>
      <trkpt lat="46.51897" lon="5.88172">
        <ele>889</ele>
        <time>2022-04-04T14:24:14Z</time>
      </trkpt>
      <trkpt lat="46.519" lon="5.88146">
        <ele>889</ele>
        <time>2022-04-04T14:24:18Z</time>
      </trkpt>
      <trkpt lat="46.51909" lon="5.88111">
        <ele>888</ele>
        <time>2022-04-04T14:24:22Z</time>
      </trkpt>
      <trkpt lat="46.51911" lon="5.88073">
        <ele>887</ele>
        <time>2022-04-04T14:24:27Z</time>
      </trkpt>
      <trkpt lat="46.51907" lon="5.88045">
        <ele>885</ele>
        <time>2022-04-04T14:24:30Z</time>
      </trkpt>
      <trkpt lat="46.51899" lon="5.88024">
        <ele>883</ele>
        <time>2022-04-04T14:24:33Z</time>
      </trkpt>
      <trkpt lat="46.5189" lon="5.88008">
        <ele>882</ele>
        <time>2022-04-04T14:24:36Z</time>
      </trkpt>
      <trkpt lat="46.51881" lon="5.87997">
        <ele>882</ele>
        <time>2022-04-04T14:24:38Z</time>
      </trkpt>
      <trkpt lat="46.51871" lon="5.8799">
        <ele>881</ele>
        <time>2022-04-04T14:24:40Z</time>
      </trkpt>
      <trkpt lat="46.51813" lon="5.87971">
        <ele>878</ele>
        <time>2022-04-04T14:24:50Z</time>
      </trkpt>
      <trkpt lat="46.51783" lon="5.87954">
        <ele>875</ele>
        <time>2022-04-04T14:24:56Z</time>
      </trkpt>
      <trkpt lat="46.51764" lon="5.87941">
        <ele>874</ele>
        <time>2022-04-04T14:25:00Z</time>
      </trkpt>
      <trkpt lat="46.51751" lon="5.87928">
        <ele>874</ele>
        <time>2022-04-04T14:25:03Z</time>
      </trkpt>
      <trkpt lat="46.51721" lon="5.87889">
        <ele>875</ele>
        <time>2022-04-04T14:25:10Z</time>
      </trkpt>
      <trkpt lat="46.51659" lon="5.87788">
        <ele>879</ele>
        <time>2022-04-04T14:25:26Z</time>
      </trkpt>
      <trkpt lat="46.51602" lon="5.87653">
        <ele>876</ele>
        <time>2022-04-04T14:25:46Z</time>
      </trkpt>
      <trkpt lat="46.51561" lon="5.87566">
        <ele>876</ele>
        <time>2022-04-04T14:25:59Z</time>
      </trkpt>
      <trkpt lat="46.5155" lon="5.8755">
        <ele>875</ele>
        <time>2022-04-04T14:26:02Z</time>
      </trkpt>
      <trkpt lat="46.51531" lon="5.87525">
        <ele>874</ele>
        <time>2022-04-04T14:26:06Z</time>
      </trkpt>
      <trkpt lat="46.51452" lon="5.87453">
        <ele>872</ele>
        <time>2022-04-04T14:26:23Z</time>
      </trkpt>
      <trkpt lat="46.51403" lon="5.87404">
        <ele>870</ele>
        <time>2022-04-04T14:26:33Z</time>
      </trkpt>
      <trkpt lat="46.51392" lon="5.87386">
        <ele>870</ele>
        <time>2022-04-04T14:26:36Z</time>
      </trkpt>
      <trkpt lat="46.51369" lon="5.87357">
        <ele>870</ele>
        <time>2022-04-04T14:26:42Z</time>
      </trkpt>
      <trkpt lat="46.51378" lon="5.87344">
        <ele>871</ele>
        <time>2022-04-04T14:26:44Z</time>
      </trkpt>
      <trkpt lat="46.51392" lon="5.8732">
        <ele>871</ele>
        <time>2022-04-04T14:26:48Z</time>
      </trkpt>
      <trkpt lat="46.5143" lon="5.87283">
        <ele>869</ele>
        <time>2022-04-04T14:26:56Z</time>
      </trkpt>
      <trkpt lat="46.51454" lon="5.87258">
        <ele>868</ele>
        <time>2022-04-04T14:27:01Z</time>
      </trkpt>
      <trkpt lat="46.51471" lon="5.87234">
        <ele>867</ele>
        <time>2022-04-04T14:27:05Z</time>
      </trkpt>
      <trkpt lat="46.5152" lon="5.87153">
        <ele>868</ele>
        <time>2022-04-04T14:27:19Z</time>
      </trkpt>
      <trkpt lat="46.51577" lon="5.87065">
        <ele>867</ele>
        <time>2022-04-04T14:27:33Z</time>
      </trkpt>
      <trkpt lat="46.51599" lon="5.87042">
        <ele>867</ele>
        <time>2022-04-04T14:27:38Z</time>
      </trkpt>
      <trkpt lat="46.51608" lon="5.87036">
        <ele>868</ele>
        <time>2022-04-04T14:27:40Z</time>
      </trkpt>
      <trkpt lat="46.51623" lon="5.8703">
        <ele>869</ele>
        <time>2022-04-04T14:27:43Z</time>
      </trkpt>
      <trkpt lat="46.51672" lon="5.87025">
        <ele>871</ele>
        <time>2022-04-04T14:27:51Z</time>
      </trkpt>
      <trkpt lat="46.51763" lon="5.8701">
        <ele>880</ele>
        <time>2022-04-04T14:28:08Z</time>
      </trkpt>
      <trkpt lat="46.51787" lon="5.8701">
        <ele>881</ele>
        <time>2022-04-04T14:28:12Z</time>
      </trkpt>
      <trkpt lat="46.51861" lon="5.87014">
        <ele>883</ele>
        <time>2022-04-04T14:28:25Z</time>
      </trkpt>
      <trkpt lat="46.51881" lon="5.87013">
        <ele>884</ele>
        <time>2022-04-04T14:28:29Z</time>
      </trkpt>
      <trkpt lat="46.51895" lon="5.87008">
        <ele>884</ele>
        <time>2022-04-04T14:28:31Z</time>
      </trkpt>
      <trkpt lat="46.5195" lon="5.8697">
        <ele>888</ele>
        <time>2022-04-04T14:28:42Z</time>
      </trkpt>
      <trkpt lat="46.51966" lon="5.86955">
        <ele>889</ele>
        <time>2022-04-04T14:28:46Z</time>
      </trkpt>
      <trkpt lat="46.51977" lon="5.8694">
        <ele>890</ele>
        <time>2022-04-04T14:28:48Z</time>
      </trkpt>
      <trkpt lat="46.51986" lon="5.86923">
        <ele>891</ele>
        <time>2022-04-04T14:28:51Z</time>
      </trkpt>
      <trkpt lat="46.5201" lon="5.86857">
        <ele>894</ele>
        <time>2022-04-04T14:29:00Z</time>
      </trkpt>
      <trkpt lat="46.52039" lon="5.86792">
        <ele>898</ele>
        <time>2022-04-04T14:29:09Z</time>
      </trkpt>
      <trkpt lat="46.52046" lon="5.8677">
        <ele>899</ele>
        <time>2022-04-04T14:29:12Z</time>
      </trkpt>
      <trkpt lat="46.52049" lon="5.86752">
        <ele>900</ele>
        <time>2022-04-04T14:29:15Z</time>
      </trkpt>
      <trkpt lat="46.5205" lon="5.86728">
        <ele>901</ele>
        <time>2022-04-04T14:29:18Z</time>
      </trkpt>
      <trkpt lat="46.52047" lon="5.86705">
        <ele>902</ele>
        <time>2022-04-04T14:29:20Z</time>
      </trkpt>
      <trkpt lat="46.52033" lon="5.86654">
        <ele>902</ele>
        <time>2022-04-04T14:29:27Z</time>
      </trkpt>
      <trkpt lat="46.52028" lon="5.86626">
        <ele>900</ele>
        <time>2022-04-04T14:29:31Z</time>
      </trkpt>
      <trkpt lat="46.52027" lon="5.86592">
        <ele>899</ele>
        <time>2022-04-04T14:29:35Z</time>
      </trkpt>
      <trkpt lat="46.5203" lon="5.86575">
        <ele>899</ele>
        <time>2022-04-04T14:29:37Z</time>
      </trkpt>
      <trkpt lat="46.5204" lon="5.86538">
        <ele>899</ele>
        <time>2022-04-04T14:29:42Z</time>
      </trkpt>
      <trkpt lat="46.52044" lon="5.86519">
        <ele>899</ele>
        <time>2022-04-04T14:29:44Z</time>
      </trkpt>
      <trkpt lat="46.52045" lon="5.86497">
        <ele>898</ele>
        <time>2022-04-04T14:29:47Z</time>
      </trkpt>
      <trkpt lat="46.52044" lon="5.86467">
        <ele>898</ele>
        <time>2022-04-04T14:29:51Z</time>
      </trkpt>
      <trkpt lat="46.52037" lon="5.86419">
        <ele>897</ele>
        <time>2022-04-04T14:29:57Z</time>
      </trkpt>
      <trkpt lat="46.52037" lon="5.86411">
        <ele>897</ele>
        <time>2022-04-04T14:29:58Z</time>
      </trkpt>
      <trkpt lat="46.5204" lon="5.86391">
        <ele>896</ele>
        <time>2022-04-04T14:30:00Z</time>
      </trkpt>
      <trkpt lat="46.52049" lon="5.8635">
        <ele>895</ele>
        <time>2022-04-04T14:30:06Z</time>
      </trkpt>
      <trkpt lat="46.52055" lon="5.86247">
        <ele>895</ele>
        <time>2022-04-04T14:30:18Z</time>
      </trkpt>
      <trkpt lat="46.5206" lon="5.86203">
        <ele>896</ele>
        <time>2022-04-04T14:30:24Z</time>
      </trkpt>
      <trkpt lat="46.52066" lon="5.86179">
        <ele>897</ele>
        <time>2022-04-04T14:30:27Z</time>
      </trkpt>
      <trkpt lat="46.52073" lon="5.86159">
        <ele>895</ele>
        <time>2022-04-04T14:30:29Z</time>
      </trkpt>
      <trkpt lat="46.52087" lon="5.86135">
        <ele>892</ele>
        <time>2022-04-04T14:30:33Z</time>
      </trkpt>
      <trkpt lat="46.52109" lon="5.86114">
        <ele>892</ele>
        <time>2022-04-04T14:30:38Z</time>
      </trkpt>
      <trkpt lat="46.52129" lon="5.86101">
        <ele>891</ele>
        <time>2022-04-04T14:30:42Z</time>
      </trkpt>
      <trkpt lat="46.52143" lon="5.86095">
        <ele>891</ele>
        <time>2022-04-04T14:30:45Z</time>
      </trkpt>
      <trkpt lat="46.52211" lon="5.86088">
        <ele>895</ele>
        <time>2022-04-04T14:30:57Z</time>
      </trkpt>
      <trkpt lat="46.52278" lon="5.86068">
        <ele>894</ele>
        <time>2022-04-04T14:31:09Z</time>
      </trkpt>
      <trkpt lat="46.52299" lon="5.86059">
        <ele>893</ele>
        <time>2022-04-04T14:31:13Z</time>
      </trkpt>
      <trkpt lat="46.5232" lon="5.86041">
        <ele>891</ele>
        <time>2022-04-04T14:31:17Z</time>
      </trkpt>
      <trkpt lat="46.52332" lon="5.86029">
        <ele>890</ele>
        <time>2022-04-04T14:31:20Z</time>
      </trkpt>
      <trkpt lat="46.52374" lon="5.85974">
        <ele>886</ele>
        <time>2022-04-04T14:31:30Z</time>
      </trkpt>
      <trkpt lat="46.5239" lon="5.85959">
        <ele>885</ele>
        <time>2022-04-04T14:31:33Z</time>
      </trkpt>
      <trkpt lat="46.52404" lon="5.8595">
        <ele>885</ele>
        <time>2022-04-04T14:31:36Z</time>
      </trkpt>
      <trkpt lat="46.52423" lon="5.85941">
        <ele>886</ele>
        <time>2022-04-04T14:31:39Z</time>
      </trkpt>
      <trkpt lat="46.52439" lon="5.85938">
        <ele>886</ele>
        <time>2022-04-04T14:31:42Z</time>
      </trkpt>
      <trkpt lat="46.52455" lon="5.85939">
        <ele>886</ele>
        <time>2022-04-04T14:31:45Z</time>
      </trkpt>
      <trkpt lat="46.52503" lon="5.85947">
        <ele>887</ele>
        <time>2022-04-04T14:31:54Z</time>
      </trkpt>
      <trkpt lat="46.52516" lon="5.85947">
        <ele>886</ele>
        <time>2022-04-04T14:31:56Z</time>
      </trkpt>
      <trkpt lat="46.52534" lon="5.85939">
        <ele>886</ele>
        <time>2022-04-04T14:31:59Z</time>
      </trkpt>
      <trkpt lat="46.5255" lon="5.85923">
        <ele>884</ele>
        <time>2022-04-04T14:32:03Z</time>
      </trkpt>
      <trkpt lat="46.52559" lon="5.85901">
        <ele>884</ele>
        <time>2022-04-04T14:32:06Z</time>
      </trkpt>
      <trkpt lat="46.52595" lon="5.85786">
        <ele>884</ele>
        <time>2022-04-04T14:32:21Z</time>
      </trkpt>
      <trkpt lat="46.526" lon="5.85756">
        <ele>884</ele>
        <time>2022-04-04T14:32:25Z</time>
      </trkpt>
      <trkpt lat="46.52599" lon="5.85715">
        <ele>885</ele>
        <time>2022-04-04T14:32:30Z</time>
      </trkpt>
      <trkpt lat="46.52594" lon="5.85673">
        <ele>886</ele>
        <time>2022-04-04T14:32:35Z</time>
      </trkpt>
      <trkpt lat="46.52572" lon="5.85571">
        <ele>894</ele>
        <time>2022-04-04T14:32:49Z</time>
      </trkpt>
      <trkpt lat="46.52545" lon="5.85473">
        <ele>900</ele>
        <time>2022-04-04T14:33:01Z</time>
      </trkpt>
      <trkpt lat="46.52536" lon="5.85425">
        <ele>903</ele>
        <time>2022-04-04T14:33:08Z</time>
      </trkpt>
      <trkpt lat="46.52526" lon="5.8539">
        <ele>904</ele>
        <time>2022-04-04T14:33:12Z</time>
      </trkpt>
      <trkpt lat="46.52493" lon="5.85311">
        <ele>903</ele>
        <time>2022-04-04T14:33:23Z</time>
      </trkpt>
      <trkpt lat="46.52486" lon="5.85292">
        <ele>902</ele>
        <time>2022-04-04T14:33:26Z</time>
      </trkpt>
      <trkpt lat="46.52468" lon="5.85223">
        <ele>901</ele>
        <time>2022-04-04T14:33:35Z</time>
      </trkpt>
      <trkpt lat="46.5246" lon="5.85187">
        <ele>901</ele>
        <time>2022-04-04T14:33:40Z</time>
      </trkpt>
      <trkpt lat="46.52452" lon="5.85121">
        <ele>903</ele>
        <time>2022-04-04T14:33:48Z</time>
      </trkpt>
      <trkpt lat="46.52445" lon="5.85085">
        <ele>904</ele>
        <time>2022-04-04T14:33:53Z</time>
      </trkpt>
      <trkpt lat="46.52436" lon="5.8506">
        <ele>906</ele>
        <time>2022-04-04T14:33:56Z</time>
      </trkpt>
      <trkpt lat="46.52424" lon="5.85038">
        <ele>907</ele>
        <time>2022-04-04T14:33:59Z</time>
      </trkpt>
      <trkpt lat="46.52406" lon="5.85016">
        <ele>908</ele>
        <time>2022-04-04T14:34:04Z</time>
      </trkpt>
      <trkpt lat="46.5237" lon="5.84983">
        <ele>908</ele>
        <time>2022-04-04T14:34:11Z</time>
      </trkpt>
      <trkpt lat="46.52357" lon="5.84969">
        <ele>909</ele>
        <time>2022-04-04T14:34:14Z</time>
      </trkpt>
      <trkpt lat="46.52336" lon="5.8494">
        <ele>910</ele>
        <time>2022-04-04T14:34:19Z</time>
      </trkpt>
      <trkpt lat="46.52314" lon="5.84907">
        <ele>913</ele>
        <time>2022-04-04T14:34:25Z</time>
      </trkpt>
      <trkpt lat="46.523" lon="5.84883">
        <ele>915</ele>
        <time>2022-04-04T14:34:29Z</time>
      </trkpt>
      <trkpt lat="46.52294" lon="5.84868">
        <ele>916</ele>
        <time>2022-04-04T14:34:31Z</time>
      </trkpt>
      <trkpt lat="46.52287" lon="5.84842">
        <ele>919</ele>
        <time>2022-04-04T14:34:34Z</time>
      </trkpt>
      <trkpt lat="46.5228" lon="5.84824">
        <ele>920</ele>
        <time>2022-04-04T14:34:37Z</time>
      </trkpt>
      <trkpt lat="46.52272" lon="5.84813">
        <ele>920</ele>
        <time>2022-04-04T14:34:39Z</time>
      </trkpt>
      <trkpt lat="46.52261" lon="5.84804">
        <ele>920</ele>
        <time>2022-04-04T14:34:41Z</time>
      </trkpt>
      <trkpt lat="46.52236" lon="5.8479">
        <ele>919</ele>
        <time>2022-04-04T14:34:46Z</time>
      </trkpt>
      <trkpt lat="46.52145" lon="5.84743">
        <ele>919</ele>
        <time>2022-04-04T14:35:03Z</time>
      </trkpt>
      <trkpt lat="46.52128" lon="5.84736">
        <ele>919</ele>
        <time>2022-04-04T14:35:06Z</time>
      </trkpt>
      <trkpt lat="46.52113" lon="5.84736">
        <ele>918</ele>
        <time>2022-04-04T14:35:09Z</time>
      </trkpt>
      <trkpt lat="46.52093" lon="5.84741">
        <ele>917</ele>
        <time>2022-04-04T14:35:12Z</time>
      </trkpt>
      <trkpt lat="46.52074" lon="5.84754">
        <ele>916</ele>
        <time>2022-04-04T14:35:16Z</time>
      </trkpt>
      <trkpt lat="46.52058" lon="5.84771">
        <ele>916</ele>
        <time>2022-04-04T14:35:20Z</time>
      </trkpt>
      <trkpt lat="46.52006" lon="5.84858">
        <ele>914</ele>
        <time>2022-04-04T14:35:34Z</time>
      </trkpt>
      <trkpt lat="46.51988" lon="5.84879">
        <ele>912</ele>
        <time>2022-04-04T14:35:38Z</time>
      </trkpt>
      <trkpt lat="46.51969" lon="5.84894">
        <ele>909</ele>
        <time>2022-04-04T14:35:42Z</time>
      </trkpt>
      <trkpt lat="46.51954" lon="5.84901">
        <ele>908</ele>
        <time>2022-04-04T14:35:45Z</time>
      </trkpt>
      <trkpt lat="46.51938" lon="5.84904">
        <ele>907</ele>
        <time>2022-04-04T14:35:47Z</time>
      </trkpt>
      <trkpt lat="46.51915" lon="5.84899">
        <ele>906</ele>
        <time>2022-04-04T14:35:52Z</time>
      </trkpt>
      <trkpt lat="46.51892" lon="5.84886">
        <ele>907</ele>
        <time>2022-04-04T14:35:56Z</time>
      </trkpt>
      <trkpt lat="46.51869" lon="5.84869">
        <ele>908</ele>
        <time>2022-04-04T14:36:01Z</time>
      </trkpt>
      <trkpt lat="46.51767" lon="5.84775">
        <ele>908</ele>
        <time>2022-04-04T14:36:22Z</time>
      </trkpt>
      <trkpt lat="46.51742" lon="5.84738">
        <ele>908</ele>
        <time>2022-04-04T14:36:28Z</time>
      </trkpt>
      <trkpt lat="46.51727" lon="5.84671">
        <ele>909</ele>
        <time>2022-04-04T14:36:37Z</time>
      </trkpt>
      <trkpt lat="46.51725" lon="5.84622">
        <ele>909</ele>
        <time>2022-04-04T14:36:43Z</time>
      </trkpt>
      <trkpt lat="46.51736" lon="5.84544">
        <ele>911</ele>
        <time>2022-04-04T14:36:53Z</time>
      </trkpt>
      <trkpt lat="46.51738" lon="5.84447">
        <ele>912</ele>
        <time>2022-04-04T14:37:05Z</time>
      </trkpt>
      <trkpt lat="46.51725" lon="5.84405">
        <ele>912</ele>
        <time>2022-04-04T14:37:10Z</time>
      </trkpt>
      <trkpt lat="46.51699" lon="5.84376">
        <ele>912</ele>
        <time>2022-04-04T14:37:16Z</time>
      </trkpt>
      <trkpt lat="46.5167" lon="5.84354">
        <ele>911</ele>
        <time>2022-04-04T14:37:22Z</time>
      </trkpt>
      <trkpt lat="46.51596" lon="5.84282">
        <ele>914</ele>
        <time>2022-04-04T14:37:38Z</time>
      </trkpt>
      <trkpt lat="46.51545" lon="5.84241">
        <ele>914</ele>
        <time>2022-04-04T14:37:48Z</time>
      </trkpt>
      <trkpt lat="46.51518" lon="5.84202">
        <ele>917</ele>
        <time>2022-04-04T14:37:55Z</time>
      </trkpt>
      <trkpt lat="46.51498" lon="5.84184">
        <ele>919</ele>
        <time>2022-04-04T14:37:59Z</time>
      </trkpt>
      <trkpt lat="46.51454" lon="5.84177">
        <ele>916</ele>
        <time>2022-04-04T14:38:07Z</time>
      </trkpt>
      <trkpt lat="46.51428" lon="5.84165">
        <ele>915</ele>
        <time>2022-04-04T14:38:12Z</time>
      </trkpt>
      <trkpt lat="46.51389" lon="5.84132">
        <ele>913</ele>
        <time>2022-04-04T14:38:20Z</time>
      </trkpt>
      <trkpt lat="46.51334" lon="5.84098">
        <ele>906</ele>
        <time>2022-04-04T14:38:30Z</time>
      </trkpt>
      <trkpt lat="46.51325" lon="5.84086">
        <ele>906</ele>
        <time>2022-04-04T14:38:33Z</time>
      </trkpt>
      <trkpt lat="46.51319" lon="5.84073">
        <ele>907</ele>
        <time>2022-04-04T14:38:35Z</time>
      </trkpt>
      <trkpt lat="46.51318" lon="5.84065">
        <ele>907</ele>
        <time>2022-04-04T14:38:36Z</time>
      </trkpt>
      <trkpt lat="46.5132" lon="5.84019">
        <ele>913</ele>
        <time>2022-04-04T14:38:41Z</time>
      </trkpt>
      <trkpt lat="46.51315" lon="5.83994">
        <ele>915</ele>
        <time>2022-04-04T14:38:44Z</time>
      </trkpt>
      <trkpt lat="46.51302" lon="5.83973">
        <ele>917</ele>
        <time>2022-04-04T14:38:48Z</time>
      </trkpt>
      <trkpt lat="46.5129" lon="5.83962">
        <ele>917</ele>
        <time>2022-04-04T14:38:50Z</time>
      </trkpt>
      <trkpt lat="46.51258" lon="5.83947">
        <ele>915</ele>
        <time>2022-04-04T14:38:56Z</time>
      </trkpt>
      <trkpt lat="46.51235" lon="5.83939">
        <ele>915</ele>
        <time>2022-04-04T14:39:01Z</time>
      </trkpt>
      <trkpt lat="46.51222" lon="5.83942">
        <ele>914</ele>
        <time>2022-04-04T14:39:03Z</time>
      </trkpt>
      <trkpt lat="46.51183" lon="5.83969">
        <ele>911</ele>
        <time>2022-04-04T14:39:11Z</time>
      </trkpt>
      <trkpt lat="46.51166" lon="5.83974">
        <ele>910</ele>
        <time>2022-04-04T14:39:14Z</time>
      </trkpt>
      <trkpt lat="46.51164" lon="5.83968">
        <ele>911</ele>
        <time>2022-04-04T14:39:14Z</time>
      </trkpt>
      <trkpt lat="46.51161" lon="5.83965">
        <ele>911</ele>
        <time>2022-04-04T14:39:15Z</time>
      </trkpt>
      <trkpt lat="46.51155" lon="5.83968">
        <ele>910</ele>
        <time>2022-04-04T14:39:16Z</time>
      </trkpt>
      <trkpt lat="46.51154" lon="5.83977">
        <ele>910</ele>
        <time>2022-04-04T14:39:17Z</time>
      </trkpt>
      <trkpt lat="46.51135" lon="5.8398">
        <ele>910</ele>
        <time>2022-04-04T14:39:21Z</time>
      </trkpt>
      <trkpt lat="46.51125" lon="5.83977">
        <ele>910</ele>
        <time>2022-04-04T14:39:23Z</time>
      </trkpt>
      <trkpt lat="46.51117" lon="5.83971">
        <ele>910</ele>
        <time>2022-04-04T14:39:24Z</time>
      </trkpt>
      <trkpt lat="46.51109" lon="5.83958">
        <ele>910</ele>
        <time>2022-04-04T14:39:26Z</time>
      </trkpt>
      <trkpt lat="46.51104" lon="5.83942">
        <ele>910</ele>
        <time>2022-04-04T14:39:28Z</time>
      </trkpt>
      <trkpt lat="46.51093" lon="5.83882">
        <ele>911</ele>
        <time>2022-04-04T14:39:36Z</time>
      </trkpt>
      <trkpt lat="46.51087" lon="5.83864">
        <ele>912</ele>
        <time>2022-04-04T14:39:39Z</time>
      </trkpt>
      <trkpt lat="46.51067" lon="5.83837">
        <ele>913</ele>
        <time>2022-04-04T14:39:43Z</time>
      </trkpt>
      <trkpt lat="46.51016" lon="5.83808">
        <ele>914</ele>
        <time>2022-04-04T14:39:53Z</time>
      </trkpt>
      <trkpt lat="46.50943" lon="5.83749">
        <ele>921</ele>
        <time>2022-04-04T14:40:08Z</time>
      </trkpt>
      <trkpt lat="46.50908" lon="5.83725">
        <ele>925</ele>
        <time>2022-04-04T14:40:15Z</time>
      </trkpt>
      <trkpt lat="46.50877" lon="5.83693">
        <ele>928</ele>
        <time>2022-04-04T14:40:22Z</time>
      </trkpt>
      <trkpt lat="46.50746" lon="5.83587">
        <ele>929</ele>
        <time>2022-04-04T14:40:48Z</time>
      </trkpt>
      <trkpt lat="46.50687" lon="5.83529">
        <ele>934</ele>
        <time>2022-04-04T14:41:01Z</time>
      </trkpt>
      <trkpt lat="46.50678" lon="5.83523">
        <ele>934</ele>
        <time>2022-04-04T14:41:03Z</time>
      </trkpt>
      <trkpt lat="46.50658" lon="5.83516">
        <ele>933</ele>
        <time>2022-04-04T14:41:06Z</time>
      </trkpt>
      <trkpt lat="46.50605" lon="5.83505">
        <ele>927</ele>
        <time>2022-04-04T14:41:16Z</time>
      </trkpt>
      <trkpt lat="46.50553" lon="5.83499">
        <ele>921</ele>
        <time>2022-04-04T14:41:25Z</time>
      </trkpt>
      <trkpt lat="46.5054" lon="5.83495">
        <ele>921</ele>
        <time>2022-04-04T14:41:28Z</time>
      </trkpt>
      <trkpt lat="46.50526" lon="5.83488">
        <ele>920</ele>
        <time>2022-04-04T14:41:30Z</time>
      </trkpt>
      <trkpt lat="46.50489" lon="5.83455">
        <ele>921</ele>
        <time>2022-04-04T14:41:38Z</time>
      </trkpt>
      <trkpt lat="46.5047" lon="5.83444">
        <ele>920</ele>
        <time>2022-04-04T14:41:42Z</time>
      </trkpt>
      <trkpt lat="46.50366" lon="5.83429">
        <ele>909</ele>
        <time>2022-04-04T14:42:00Z</time>
      </trkpt>
      <trkpt lat="46.50341" lon="5.83423">
        <ele>907</ele>
        <time>2022-04-04T14:42:05Z</time>
      </trkpt>
      <trkpt lat="46.50313" lon="5.83402">
        <ele>908</ele>
        <time>2022-04-04T14:42:10Z</time>
      </trkpt>
      <trkpt lat="46.50298" lon="5.83384">
        <ele>908</ele>
        <time>2022-04-04T14:42:14Z</time>
      </trkpt>
      <trkpt lat="46.50258" lon="5.83328">
        <ele>908</ele>
        <time>2022-04-04T14:42:24Z</time>
      </trkpt>
      <trkpt lat="46.50248" lon="5.83319">
        <ele>909</ele>
        <time>2022-04-04T14:42:26Z</time>
      </trkpt>
      <trkpt lat="46.50238" lon="5.83312">
        <ele>910</ele>
        <time>2022-04-04T14:42:28Z</time>
      </trkpt>
      <trkpt lat="46.50228" lon="5.83309">
        <ele>910</ele>
        <time>2022-04-04T14:42:30Z</time>
      </trkpt>
      <trkpt lat="46.50176" lon="5.83309">
        <ele>910</ele>
        <time>2022-04-04T14:42:39Z</time>
      </trkpt>
      <trkpt lat="46.50167" lon="5.83307">
        <ele>910</ele>
        <time>2022-04-04T14:42:40Z</time>
      </trkpt>
      <trkpt lat="46.50108" lon="5.83264">
        <ele>912</ele>
        <time>2022-04-04T14:42:52Z</time>
      </trkpt>
      <trkpt lat="46.50051" lon="5.83237">
        <ele>912</ele>
        <time>2022-04-04T14:43:03Z</time>
      </trkpt>
      <trkpt lat="46.49859" lon="5.83173">
        <ele>913</ele>
        <time>2022-04-04T14:43:38Z</time>
      </trkpt>
      <trkpt lat="46.49792" lon="5.83146">
        <ele>914</ele>
        <time>2022-04-04T14:43:50Z</time>
      </trkpt>
      <trkpt lat="46.49725" lon="5.83108">
        <ele>917</ele>
        <time>2022-04-04T14:44:03Z</time>
      </trkpt>
      <trkpt lat="46.49701" lon="5.83089">
        <ele>918</ele>
        <time>2022-04-04T14:44:08Z</time>
      </trkpt>
      <trkpt lat="46.4969" lon="5.83075">
        <ele>919</ele>
        <time>2022-04-04T14:44:11Z</time>
      </trkpt>
      <trkpt lat="46.49677" lon="5.83051">
        <ele>919</ele>
        <time>2022-04-04T14:44:14Z</time>
      </trkpt>
      <trkpt lat="46.49667" lon="5.83028">
        <ele>919</ele>
        <time>2022-04-04T14:44:18Z</time>
      </trkpt>
      <trkpt lat="46.49664" lon="5.83011">
        <ele>919</ele>
        <time>2022-04-04T14:44:20Z</time>
      </trkpt>
      <trkpt lat="46.49661" lon="5.82938">
        <ele>923</ele>
        <time>2022-04-04T14:44:29Z</time>
      </trkpt>
      <trkpt lat="46.49657" lon="5.82895">
        <ele>926</ele>
        <time>2022-04-04T14:44:34Z</time>
      </trkpt>
      <trkpt lat="46.49653" lon="5.82885">
        <ele>926</ele>
        <time>2022-04-04T14:44:35Z</time>
      </trkpt>
      <trkpt lat="46.49644" lon="5.82874">
        <ele>926</ele>
        <time>2022-04-04T14:44:38Z</time>
      </trkpt>
      <trkpt lat="46.49625" lon="5.82867">
        <ele>926</ele>
        <time>2022-04-04T14:44:41Z</time>
      </trkpt>
      <trkpt lat="46.49587" lon="5.82862">
        <ele>924</ele>
        <time>2022-04-04T14:44:48Z</time>
      </trkpt>
      <trkpt lat="46.4957" lon="5.82855">
        <ele>924</ele>
        <time>2022-04-04T14:44:51Z</time>
      </trkpt>
      <trkpt lat="46.49531" lon="5.82826">
        <ele>924</ele>
        <time>2022-04-04T14:44:59Z</time>
      </trkpt>
      <trkpt lat="46.49523" lon="5.82822">
        <ele>925</ele>
        <time>2022-04-04T14:45:00Z</time>
      </trkpt>
      <trkpt lat="46.49513" lon="5.82819">
        <ele>924</ele>
        <time>2022-04-04T14:45:02Z</time>
      </trkpt>
      <trkpt lat="46.4946" lon="5.82827">
        <ele>921</ele>
        <time>2022-04-04T14:45:12Z</time>
      </trkpt>
      <trkpt lat="46.49431" lon="5.82841">
        <ele>919</ele>
        <time>2022-04-04T14:45:17Z</time>
      </trkpt>
      <trkpt lat="46.49403" lon="5.82872">
        <ele>916</ele>
        <time>2022-04-04T14:45:23Z</time>
      </trkpt>
      <trkpt lat="46.49398" lon="5.82876">
        <ele>915</ele>
        <time>2022-04-04T14:45:24Z</time>
      </trkpt>
      <trkpt lat="46.49361" lon="5.82871">
        <ele>914</ele>
        <time>2022-04-04T14:45:31Z</time>
      </trkpt>
      <trkpt lat="46.49359" lon="5.82863">
        <ele>915</ele>
        <time>2022-04-04T14:45:32Z</time>
      </trkpt>
      <trkpt lat="46.49337" lon="5.82842">
        <ele>916</ele>
        <time>2022-04-04T14:45:37Z</time>
      </trkpt>
      <trkpt lat="46.49287" lon="5.8281">
        <ele>920</ele>
        <time>2022-04-04T14:45:46Z</time>
      </trkpt>
      <trkpt lat="46.49118" lon="5.82751">
        <ele>917</ele>
        <time>2022-04-04T14:46:17Z</time>
      </trkpt>
      <trkpt lat="46.49063" lon="5.82731">
        <ele>919</ele>
        <time>2022-04-04T14:46:27Z</time>
      </trkpt>
      <trkpt lat="46.49051" lon="5.82724">
        <ele>920</ele>
        <time>2022-04-04T14:46:30Z</time>
      </trkpt>
      <trkpt lat="46.49032" lon="5.82712">
        <ele>920</ele>
        <time>2022-04-04T14:46:33Z</time>
      </trkpt>
      <trkpt lat="46.49023" lon="5.82705">
        <ele>921</ele>
        <time>2022-04-04T14:46:35Z</time>
      </trkpt>
      <trkpt lat="46.49011" lon="5.82688">
        <ele>922</ele>
        <time>2022-04-04T14:46:38Z</time>
      </trkpt>
      <trkpt lat="46.48973" lon="5.82661">
        <ele>924</ele>
        <time>2022-04-04T14:46:46Z</time>
      </trkpt>
      <trkpt lat="46.48914" lon="5.82628">
        <ele>929</ele>
        <time>2022-04-04T14:46:57Z</time>
      </trkpt>
      <trkpt lat="46.48895" lon="5.82614">
        <ele>929</ele>
        <time>2022-04-04T14:47:01Z</time>
      </trkpt>
      <trkpt lat="46.48862" lon="5.82586">
        <ele>931</ele>
        <time>2022-04-04T14:47:07Z</time>
      </trkpt>
      <trkpt lat="46.48798" lon="5.82538">
        <ele>936</ele>
        <time>2022-04-04T14:47:20Z</time>
      </trkpt>
      <trkpt lat="46.48743" lon="5.8251">
        <ele>940</ele>
        <time>2022-04-04T14:47:31Z</time>
      </trkpt>
      <trkpt lat="46.48626" lon="5.82459">
        <ele>947</ele>
        <time>2022-04-04T14:47:52Z</time>
      </trkpt>
      <trkpt lat="46.48479" lon="5.82413">
        <ele>951</ele>
        <time>2022-04-04T14:48:19Z</time>
      </trkpt>
      <trkpt lat="46.48346" lon="5.8239">
        <ele>954</ele>
        <time>2022-04-04T14:48:43Z</time>
      </trkpt>
      <trkpt lat="46.48175" lon="5.82384">
        <ele>949</ele>
        <time>2022-04-04T14:49:13Z</time>
      </trkpt>
      <trkpt lat="46.48147" lon="5.82374">
        <ele>949</ele>
        <time>2022-04-04T14:49:19Z</time>
      </trkpt>
      <trkpt lat="46.48104" lon="5.82351">
        <ele>949</ele>
        <time>2022-04-04T14:49:27Z</time>
      </trkpt>
      <trkpt lat="46.48077" lon="5.82344">
        <ele>948</ele>
        <time>2022-04-04T14:49:32Z</time>
      </trkpt>
      <trkpt lat="46.47876" lon="5.82318">
        <ele>954</ele>
        <time>2022-04-04T14:50:08Z</time>
      </trkpt>
      <trkpt lat="46.47788" lon="5.82304">
        <ele>957</ele>
        <time>2022-04-04T14:50:23Z</time>
      </trkpt>
      <trkpt lat="46.47723" lon="5.82298">
        <ele>962</ele>
        <time>2022-04-04T14:50:35Z</time>
      </trkpt>
      <trkpt lat="46.47703" lon="5.82292">
        <ele>965</ele>
        <time>2022-04-04T14:50:38Z</time>
      </trkpt>
      <trkpt lat="46.47688" lon="5.82283">
        <ele>968</ele>
        <time>2022-04-04T14:50:41Z</time>
      </trkpt>
      <trkpt lat="46.47662" lon="5.82259">
        <ele>971</ele>
        <time>2022-04-04T14:50:47Z</time>
      </trkpt>
      <trkpt lat="46.4763" lon="5.82234">
        <ele>970</ele>
        <time>2022-04-04T14:50:53Z</time>
      </trkpt>
      <trkpt lat="46.47607" lon="5.82208">
        <ele>969</ele>
        <time>2022-04-04T14:50:58Z</time>
      </trkpt>
      <trkpt lat="46.47505" lon="5.82039">
        <ele>968</ele>
        <time>2022-04-04T14:51:26Z</time>
      </trkpt>
      <trkpt lat="46.47478" lon="5.81996">
        <ele>972</ele>
        <time>2022-04-04T14:51:33Z</time>
      </trkpt>
      <trkpt lat="46.47461" lon="5.81977">
        <ele>975</ele>
        <time>2022-04-04T14:51:37Z</time>
      </trkpt>
      <trkpt lat="46.47444" lon="5.81967">
        <ele>977</ele>
        <time>2022-04-04T14:51:40Z</time>
      </trkpt>
      <trkpt lat="46.47389" lon="5.81949">
        <ele>975</ele>
        <time>2022-04-04T14:51:50Z</time>
      </trkpt>
      <trkpt lat="46.47371" lon="5.81939">
        <ele>975</ele>
        <time>2022-04-04T14:51:54Z</time>
      </trkpt>
      <trkpt lat="46.47282" lon="5.8188">
        <ele>973</ele>
        <time>2022-04-04T14:52:11Z</time>
      </trkpt>
      <trkpt lat="46.4719" lon="5.81816">
        <ele>969</ele>
        <time>2022-04-04T14:52:29Z</time>
      </trkpt>
      <trkpt lat="46.47125" lon="5.81764">
        <ele>966</ele>
        <time>2022-04-04T14:52:42Z</time>
      </trkpt>
      <trkpt lat="46.47085" lon="5.81719">
        <ele>963</ele>
        <time>2022-04-04T14:52:51Z</time>
      </trkpt>
      <trkpt lat="46.47064" lon="5.81686">
        <ele>964</ele>
        <time>2022-04-04T14:52:57Z</time>
      </trkpt>
      <trkpt lat="46.4704" lon="5.81661">
        <ele>961</ele>
        <time>2022-04-04T14:53:02Z</time>
      </trkpt>
      <trkpt lat="46.46998" lon="5.81625">
        <ele>958</ele>
        <time>2022-04-04T14:53:11Z</time>
      </trkpt>
      <trkpt lat="46.46921" lon="5.81548">
        <ele>950</ele>
        <time>2022-04-04T14:53:28Z</time>
      </trkpt>
      <trkpt lat="46.46861" lon="5.81498">
        <ele>946</ele>
        <time>2022-04-04T14:53:40Z</time>
      </trkpt>
      <trkpt lat="46.46806" lon="5.8144">
        <ele>943</ele>
        <time>2022-04-04T14:53:52Z</time>
      </trkpt>
      <trkpt lat="46.46771" lon="5.81384">
        <ele>944</ele>
        <time>2022-04-04T14:54:01Z</time>
      </trkpt>
      <trkpt lat="46.46754" lon="5.8137">
        <ele>944</ele>
        <time>2022-04-04T14:54:05Z</time>
      </trkpt>
      <trkpt lat="46.46727" lon="5.8136">
        <ele>944</ele>
        <time>2022-04-04T14:54:10Z</time>
      </trkpt>
      <trkpt lat="46.46715" lon="5.81359">
        <ele>944</ele>
        <time>2022-04-04T14:54:12Z</time>
      </trkpt>
      <trkpt lat="46.46702" lon="5.81362">
        <ele>943</ele>
        <time>2022-04-04T14:54:14Z</time>
      </trkpt>
      <trkpt lat="46.46666" lon="5.81379">
        <ele>937</ele>
        <time>2022-04-04T14:54:21Z</time>
      </trkpt>
      <trkpt lat="46.46648" lon="5.8138">
        <ele>935</ele>
        <time>2022-04-04T14:54:24Z</time>
      </trkpt>
      <trkpt lat="46.4657" lon="5.81367">
        <ele>932</ele>
        <time>2022-04-04T14:54:38Z</time>
      </trkpt>
      <trkpt lat="46.46549" lon="5.81358">
        <ele>933</ele>
        <time>2022-04-04T14:54:42Z</time>
      </trkpt>
      <trkpt lat="46.46516" lon="5.81329">
        <ele>939</ele>
        <time>2022-04-04T14:54:49Z</time>
      </trkpt>
      <trkpt lat="46.46506" lon="5.81324">
        <ele>940</ele>
        <time>2022-04-04T14:54:51Z</time>
      </trkpt>
      <trkpt lat="46.46449" lon="5.81328">
        <ele>937</ele>
        <time>2022-04-04T14:55:01Z</time>
      </trkpt>
      <trkpt lat="46.46429" lon="5.81332">
        <ele>936</ele>
        <time>2022-04-04T14:55:04Z</time>
      </trkpt>
      <trkpt lat="46.46388" lon="5.81353">
        <ele>927</ele>
        <time>2022-04-04T14:55:12Z</time>
      </trkpt>
      <trkpt lat="46.46369" lon="5.81359">
        <ele>924</ele>
        <time>2022-04-04T14:55:16Z</time>
      </trkpt>
      <trkpt lat="46.46356" lon="5.81358">
        <ele>924</ele>
        <time>2022-04-04T14:55:18Z</time>
      </trkpt>
      <trkpt lat="46.46317" lon="5.81343">
        <ele>926</ele>
        <time>2022-04-04T14:55:25Z</time>
      </trkpt>
      <trkpt lat="46.46288" lon="5.81339">
        <ele>921</ele>
        <time>2022-04-04T14:55:30Z</time>
      </trkpt>
      <trkpt lat="46.4627" lon="5.81331">
        <ele>919</ele>
        <time>2022-04-04T14:55:34Z</time>
      </trkpt>
      <trkpt lat="46.46236" lon="5.81306">
        <ele>920</ele>
        <time>2022-04-04T14:55:40Z</time>
      </trkpt>
      <trkpt lat="46.46209" lon="5.81276">
        <ele>921</ele>
        <time>2022-04-04T14:55:46Z</time>
      </trkpt>
      <trkpt lat="46.46165" lon="5.81247">
        <ele>913</ele>
        <time>2022-04-04T14:55:55Z</time>
      </trkpt>
      <trkpt lat="46.46113" lon="5.81198">
        <ele>912</ele>
        <time>2022-04-04T14:56:06Z</time>
      </trkpt>
      <trkpt lat="46.4607" lon="5.81166">
        <ele>907</ele>
        <time>2022-04-04T14:56:15Z</time>
      </trkpt>
      <trkpt lat="46.46041" lon="5.81123">
        <ele>905</ele>
        <time>2022-04-04T14:56:22Z</time>
      </trkpt>
      <trkpt lat="46.46034" lon="5.81102">
        <ele>906</ele>
        <time>2022-04-04T14:56:25Z</time>
      </trkpt>
      <trkpt lat="46.46027" lon="5.81064">
        <ele>909</ele>
        <time>2022-04-04T14:56:30Z</time>
      </trkpt>
      <trkpt lat="46.46021" lon="5.81047">
        <ele>908</ele>
        <time>2022-04-04T14:56:32Z</time>
      </trkpt>
      <trkpt lat="46.45992" lon="5.81">
        <ele>906</ele>
        <time>2022-04-04T14:56:40Z</time>
      </trkpt>
      <trkpt lat="46.45969" lon="5.80938">
        <ele>906</ele>
        <time>2022-04-04T14:56:48Z</time>
      </trkpt>
      <trkpt lat="46.45961" lon="5.80926">
        <ele>906</ele>
        <time>2022-04-04T14:56:51Z</time>
      </trkpt>
      <trkpt lat="46.45903" lon="5.80866">
        <ele>901</ele>
        <time>2022-04-04T14:57:03Z</time>
      </trkpt>
      <trkpt lat="46.45897" lon="5.80853">
        <ele>901</ele>
        <time>2022-04-04T14:57:05Z</time>
      </trkpt>
      <trkpt lat="46.45896" lon="5.80845">
        <ele>902</ele>
        <time>2022-04-04T14:57:06Z</time>
      </trkpt>
      <trkpt lat="46.45895" lon="5.8082">
        <ele>903</ele>
        <time>2022-04-04T14:57:09Z</time>
      </trkpt>
      <trkpt lat="46.45909" lon="5.8073">
        <ele>905</ele>
        <time>2022-04-04T14:57:20Z</time>
      </trkpt>
      <trkpt lat="46.45932" lon="5.80594">
        <ele>906</ele>
        <time>2022-04-04T14:57:38Z</time>
      </trkpt>
      <trkpt lat="46.45934" lon="5.80564">
        <ele>904</ele>
        <time>2022-04-04T14:57:41Z</time>
      </trkpt>
      <trkpt lat="46.45936" lon="5.80519">
        <ele>900</ele>
        <time>2022-04-04T14:57:47Z</time>
      </trkpt>
      <trkpt lat="46.45937" lon="5.80511">
        <ele>899</ele>
        <time>2022-04-04T14:57:48Z</time>
      </trkpt>
      <trkpt lat="46.45941" lon="5.80499">
        <ele>898</ele>
        <time>2022-04-04T14:57:50Z</time>
      </trkpt>
      <trkpt lat="46.45948" lon="5.8049">
        <ele>898</ele>
        <time>2022-04-04T14:57:51Z</time>
      </trkpt>
      <trkpt lat="46.45953" lon="5.80487">
        <ele>899</ele>
        <time>2022-04-04T14:57:52Z</time>
      </trkpt>
      <trkpt lat="46.45974" lon="5.80489">
        <ele>901</ele>
        <time>2022-04-04T14:57:56Z</time>
      </trkpt>
      <trkpt lat="46.45992" lon="5.80486">
        <ele>903</ele>
        <time>2022-04-04T14:57:59Z</time>
      </trkpt>
      <trkpt lat="46.46005" lon="5.80474">
        <ele>903</ele>
        <time>2022-04-04T14:58:02Z</time>
      </trkpt>
      <trkpt lat="46.4601" lon="5.8046">
        <ele>902</ele>
        <time>2022-04-04T14:58:04Z</time>
      </trkpt>
      <trkpt lat="46.46013" lon="5.80448">
        <ele>900</ele>
        <time>2022-04-04T14:58:05Z</time>
      </trkpt>
      <trkpt lat="46.46016" lon="5.80412">
        <ele>894</ele>
        <time>2022-04-04T14:58:10Z</time>
      </trkpt>
      <trkpt lat="46.46019" lon="5.804">
        <ele>891</ele>
        <time>2022-04-04T14:58:11Z</time>
      </trkpt>
      <trkpt lat="46.46023" lon="5.80387">
        <ele>888</ele>
        <time>2022-04-04T14:58:13Z</time>
      </trkpt>
      <trkpt lat="46.46027" lon="5.80382">
        <ele>887</ele>
        <time>2022-04-04T14:58:14Z</time>
      </trkpt>
      <trkpt lat="46.46041" lon="5.80376">
        <ele>887</ele>
        <time>2022-04-04T14:58:17Z</time>
      </trkpt>
      <trkpt lat="46.46051" lon="5.80376">
        <ele>888</ele>
        <time>2022-04-04T14:58:18Z</time>
      </trkpt>
      <trkpt lat="46.46065" lon="5.80379">
        <ele>890</ele>
        <time>2022-04-04T14:58:21Z</time>
      </trkpt>
      <trkpt lat="46.46077" lon="5.80386">
        <ele>893</ele>
        <time>2022-04-04T14:58:23Z</time>
      </trkpt>
      <trkpt lat="46.46089" lon="5.80389">
        <ele>895</ele>
        <time>2022-04-04T14:58:25Z</time>
      </trkpt>
      <trkpt lat="46.46119" lon="5.80388">
        <ele>897</ele>
        <time>2022-04-04T14:58:31Z</time>
      </trkpt>
      <trkpt lat="46.46138" lon="5.8038">
        <ele>896</ele>
        <time>2022-04-04T14:58:34Z</time>
      </trkpt>
      <trkpt lat="46.46167" lon="5.80354">
        <ele>891</ele>
        <time>2022-04-04T14:58:40Z</time>
      </trkpt>
      <trkpt lat="46.46184" lon="5.80342">
        <ele>886</ele>
        <time>2022-04-04T14:58:44Z</time>
      </trkpt>
      <trkpt lat="46.46198" lon="5.80342">
        <ele>885</ele>
        <time>2022-04-04T14:58:46Z</time>
      </trkpt>
      <trkpt lat="46.46208" lon="5.80345">
        <ele>885</ele>
        <time>2022-04-04T14:58:48Z</time>
      </trkpt>
      <trkpt lat="46.46231" lon="5.80364">
        <ele>889</ele>
        <time>2022-04-04T14:58:53Z</time>
      </trkpt>
      <trkpt lat="46.46242" lon="5.80365">
        <ele>889</ele>
        <time>2022-04-04T14:58:55Z</time>
      </trkpt>
      <trkpt lat="46.46252" lon="5.80359">
        <ele>887</ele>
        <time>2022-04-04T14:58:57Z</time>
      </trkpt>
      <trkpt lat="46.46261" lon="5.80347">
        <ele>884</ele>
        <time>2022-04-04T14:58:59Z</time>
      </trkpt>
      <trkpt lat="46.46286" lon="5.80302">
        <ele>879</ele>
        <time>2022-04-04T14:59:06Z</time>
      </trkpt>
      <trkpt lat="46.46296" lon="5.80287">
        <ele>878</ele>
        <time>2022-04-04T14:59:08Z</time>
      </trkpt>
      <trkpt lat="46.46362" lon="5.80225">
        <ele>874</ele>
        <time>2022-04-04T14:59:22Z</time>
      </trkpt>
      <trkpt lat="46.46377" lon="5.80206">
        <ele>873</ele>
        <time>2022-04-04T14:59:26Z</time>
      </trkpt>
      <trkpt lat="46.46387" lon="5.80188">
        <ele>871</ele>
        <time>2022-04-04T14:59:29Z</time>
      </trkpt>
      <trkpt lat="46.46391" lon="5.80176">
        <ele>870</ele>
        <time>2022-04-04T14:59:30Z</time>
      </trkpt>
      <trkpt lat="46.46395" lon="5.80154">
        <ele>869</ele>
        <time>2022-04-04T14:59:33Z</time>
      </trkpt>
      <trkpt lat="46.46396" lon="5.80129">
        <ele>869</ele>
        <time>2022-04-04T14:59:36Z</time>
      </trkpt>
      <trkpt lat="46.46393" lon="5.80109">
        <ele>869</ele>
        <time>2022-04-04T14:59:39Z</time>
      </trkpt>
      <trkpt lat="46.46395" lon="5.80084">
        <ele>869</ele>
        <time>2022-04-04T14:59:42Z</time>
      </trkpt>
      <trkpt lat="46.46395" lon="5.80062">
        <ele>869</ele>
        <time>2022-04-04T14:59:45Z</time>
      </trkpt>
      <trkpt lat="46.46388" lon="5.80006">
        <ele>870</ele>
        <time>2022-04-04T14:59:52Z</time>
      </trkpt>
      <trkpt lat="46.46351" lon="5.80001">
        <ele>868</ele>
        <time>2022-04-04T14:59:58Z</time>
      </trkpt>
      <trkpt lat="46.46336" lon="5.79988">
        <ele>866</ele>
        <time>2022-04-04T15:00:01Z</time>
      </trkpt>
      <trkpt lat="46.46326" lon="5.79951">
        <ele>862</ele>
        <time>2022-04-04T15:00:06Z</time>
      </trkpt>
      <trkpt lat="46.46315" lon="5.79929">
        <ele>861</ele>
        <time>2022-04-04T15:00:09Z</time>
      </trkpt>
      <trkpt lat="46.46307" lon="5.79919">
        <ele>860</ele>
        <time>2022-04-04T15:00:11Z</time>
      </trkpt>
      <trkpt lat="46.46264" lon="5.79885">
        <ele>857</ele>
        <time>2022-04-04T15:00:20Z</time>
      </trkpt>
      <trkpt lat="46.46207" lon="5.79851">
        <ele>851</ele>
        <time>2022-04-04T15:00:31Z</time>
      </trkpt>
      <trkpt lat="46.46191" lon="5.79831">
        <ele>846</ele>
        <time>2022-04-04T15:00:35Z</time>
      </trkpt>
      <trkpt lat="46.46209" lon="5.79734">
        <ele>842</ele>
        <time>2022-04-04T15:00:47Z</time>
      </trkpt>
      <trkpt lat="46.46212" lon="5.79629">
        <ele>839</ele>
        <time>2022-04-04T15:01:00Z</time>
      </trkpt>
      <trkpt lat="46.46209" lon="5.79608">
        <ele>838</ele>
        <time>2022-04-04T15:01:03Z</time>
      </trkpt>
      <trkpt lat="46.46202" lon="5.7959">
        <ele>837</ele>
        <time>2022-04-04T15:01:05Z</time>
      </trkpt>
      <trkpt lat="46.46176" lon="5.79549">
        <ele>836</ele>
        <time>2022-04-04T15:01:12Z</time>
      </trkpt>
      <trkpt lat="46.46169" lon="5.79533">
        <ele>834</ele>
        <time>2022-04-04T15:01:14Z</time>
      </trkpt>
      <trkpt lat="46.46167" lon="5.79525">
        <ele>834</ele>
        <time>2022-04-04T15:01:15Z</time>
      </trkpt>
      <trkpt lat="46.46162" lon="5.7949">
        <ele>831</ele>
        <time>2022-04-04T15:01:20Z</time>
      </trkpt>
      <trkpt lat="46.46157" lon="5.79478">
        <ele>831</ele>
        <time>2022-04-04T15:01:21Z</time>
      </trkpt>
      <trkpt lat="46.46107" lon="5.79433">
        <ele>831</ele>
        <time>2022-04-04T15:01:32Z</time>
      </trkpt>
      <trkpt lat="46.46101" lon="5.7942">
        <ele>831</ele>
        <time>2022-04-04T15:01:34Z</time>
      </trkpt>
      <trkpt lat="46.46099" lon="5.79405">
        <ele>833</ele>
        <time>2022-04-04T15:01:36Z</time>
      </trkpt>
      <trkpt lat="46.461" lon="5.79395">
        <ele>834</ele>
        <time>2022-04-04T15:01:37Z</time>
      </trkpt>
      <trkpt lat="46.46104" lon="5.79388">
        <ele>835</ele>
        <time>2022-04-04T15:01:38Z</time>
      </trkpt>
      <trkpt lat="46.46122" lon="5.79379">
        <ele>836</ele>
        <time>2022-04-04T15:01:41Z</time>
      </trkpt>
      <trkpt lat="46.46137" lon="5.79365">
        <ele>838</ele>
        <time>2022-04-04T15:01:45Z</time>
      </trkpt>
      <trkpt lat="46.46142" lon="5.79356">
        <ele>838</ele>
        <time>2022-04-04T15:01:46Z</time>
      </trkpt>
      <trkpt lat="46.46153" lon="5.79318">
        <ele>842</ele>
        <time>2022-04-04T15:01:51Z</time>
      </trkpt>
      <trkpt lat="46.46146" lon="5.79308">
        <ele>844</ele>
        <time>2022-04-04T15:01:53Z</time>
      </trkpt>
      <trkpt lat="46.46144" lon="5.79299">
        <ele>845</ele>
        <time>2022-04-04T15:01:54Z</time>
      </trkpt>
      <trkpt lat="46.46145" lon="5.79266">
        <ele>849</ele>
        <time>2022-04-04T15:01:58Z</time>
      </trkpt>
      <trkpt lat="46.46157" lon="5.79215">
        <ele>854</ele>
        <time>2022-04-04T15:02:05Z</time>
      </trkpt>
      <trkpt lat="46.46156" lon="5.79212">
        <ele>854</ele>
        <time>2022-04-04T15:02:05Z</time>
      </trkpt>
      <trkpt lat="46.46221" lon="5.79012">
        <ele>874</ele>
        <time>2022-04-04T15:02:32Z</time>
      </trkpt>
      <trkpt lat="46.46223" lon="5.78994">
        <ele>876</ele>
        <time>2022-04-04T15:02:34Z</time>
      </trkpt>
      <trkpt lat="46.46223" lon="5.78973">
        <ele>878</ele>
        <time>2022-04-04T15:02:37Z</time>
      </trkpt>
      <trkpt lat="46.46215" lon="5.7893">
        <ele>884</ele>
        <time>2022-04-04T15:02:42Z</time>
      </trkpt>
      <trkpt lat="46.46214" lon="5.7892">
        <ele>885</ele>
        <time>2022-04-04T15:02:44Z</time>
      </trkpt>
      <trkpt lat="46.46216" lon="5.78901">
        <ele>885</ele>
        <time>2022-04-04T15:02:46Z</time>
      </trkpt>
      <trkpt lat="46.46222" lon="5.78879">
        <ele>885</ele>
        <time>2022-04-04T15:02:49Z</time>
      </trkpt>
      <trkpt lat="46.46239" lon="5.78836">
        <ele>884</ele>
        <time>2022-04-04T15:02:55Z</time>
      </trkpt>
      <trkpt lat="46.4625" lon="5.78792">
        <ele>882</ele>
        <time>2022-04-04T15:03:01Z</time>
      </trkpt>
      <trkpt lat="46.46257" lon="5.78749">
        <ele>881</ele>
        <time>2022-04-04T15:03:06Z</time>
      </trkpt>
      <trkpt lat="46.46257" lon="5.78732">
        <ele>881</ele>
        <time>2022-04-04T15:03:08Z</time>
      </trkpt>
      <trkpt lat="46.46253" lon="5.78683">
        <ele>880</ele>
        <time>2022-04-04T15:03:14Z</time>
      </trkpt>
      <trkpt lat="46.46241" lon="5.786">
        <ele>876</ele>
        <time>2022-04-04T15:03:25Z</time>
      </trkpt>
      <trkpt lat="46.46242" lon="5.78579">
        <ele>875</ele>
        <time>2022-04-04T15:03:27Z</time>
      </trkpt>
      <trkpt lat="46.46248" lon="5.78557">
        <ele>875</ele>
        <time>2022-04-04T15:03:30Z</time>
      </trkpt>
      <trkpt lat="46.46258" lon="5.78539">
        <ele>875</ele>
        <time>2022-04-04T15:03:33Z</time>
      </trkpt>
      <trkpt lat="46.463" lon="5.78488">
        <ele>875</ele>
        <time>2022-04-04T15:03:43Z</time>
      </trkpt>
      <trkpt lat="46.46317" lon="5.78459">
        <ele>875</ele>
        <time>2022-04-04T15:03:47Z</time>
      </trkpt>
      <trkpt lat="46.46338" lon="5.78392">
        <ele>874</ele>
        <time>2022-04-04T15:03:56Z</time>
      </trkpt>
      <trkpt lat="46.46352" lon="5.78364">
        <ele>874</ele>
        <time>2022-04-04T15:04:01Z</time>
      </trkpt>
      <trkpt lat="46.46396" lon="5.78296">
        <ele>873</ele>
        <time>2022-04-04T15:04:12Z</time>
      </trkpt>
      <trkpt lat="46.46403" lon="5.78281">
        <ele>873</ele>
        <time>2022-04-04T15:04:14Z</time>
      </trkpt>
      <trkpt lat="46.46409" lon="5.78266">
        <ele>873</ele>
        <time>2022-04-04T15:04:16Z</time>
      </trkpt>
      <trkpt lat="46.46434" lon="5.78184">
        <ele>874</ele>
        <time>2022-04-04T15:04:27Z</time>
      </trkpt>
      <trkpt lat="46.46443" lon="5.78165">
        <ele>874</ele>
        <time>2022-04-04T15:04:30Z</time>
      </trkpt>
      <trkpt lat="46.46453" lon="5.78149">
        <ele>873</ele>
        <time>2022-04-04T15:04:33Z</time>
      </trkpt>
      <trkpt lat="46.46491" lon="5.78096">
        <ele>868</ele>
        <time>2022-04-04T15:04:42Z</time>
      </trkpt>
      <trkpt lat="46.46509" lon="5.78063">
        <ele>867</ele>
        <time>2022-04-04T15:04:47Z</time>
      </trkpt>
      <trkpt lat="46.46516" lon="5.78041">
        <ele>867</ele>
        <time>2022-04-04T15:04:50Z</time>
      </trkpt>
      <trkpt lat="46.46522" lon="5.78002">
        <ele>869</ele>
        <time>2022-04-04T15:04:55Z</time>
      </trkpt>
      <trkpt lat="46.46528" lon="5.77983">
        <ele>868</ele>
        <time>2022-04-04T15:04:58Z</time>
      </trkpt>
      <trkpt lat="46.46576" lon="5.77883">
        <ele>861</ele>
        <time>2022-04-04T15:05:13Z</time>
      </trkpt>
      <trkpt lat="46.46599" lon="5.77823">
        <ele>860</ele>
        <time>2022-04-04T15:05:21Z</time>
      </trkpt>
      <trkpt lat="46.46617" lon="5.77789">
        <ele>857</ele>
        <time>2022-04-04T15:05:26Z</time>
      </trkpt>
      <trkpt lat="46.46635" lon="5.77747">
        <ele>855</ele>
        <time>2022-04-04T15:05:33Z</time>
      </trkpt>
      <trkpt lat="46.4664" lon="5.77729">
        <ele>854</ele>
        <time>2022-04-04T15:05:35Z</time>
      </trkpt>
      <trkpt lat="46.46642" lon="5.77711">
        <ele>853</ele>
        <time>2022-04-04T15:05:37Z</time>
      </trkpt>
      <trkpt lat="46.46643" lon="5.77694">
        <ele>852</ele>
        <time>2022-04-04T15:05:39Z</time>
      </trkpt>
      <trkpt lat="46.4664" lon="5.77678">
        <ele>852</ele>
        <time>2022-04-04T15:05:41Z</time>
      </trkpt>
      <trkpt lat="46.46635" lon="5.77649">
        <ele>851</ele>
        <time>2022-04-04T15:05:45Z</time>
      </trkpt>
      <trkpt lat="46.46615" lon="5.77566">
        <ele>846</ele>
        <time>2022-04-04T15:05:56Z</time>
      </trkpt>
      <trkpt lat="46.46595" lon="5.77507">
        <ele>842</ele>
        <time>2022-04-04T15:06:04Z</time>
      </trkpt>
      <trkpt lat="46.46582" lon="5.77476">
        <ele>840</ele>
        <time>2022-04-04T15:06:08Z</time>
      </trkpt>
      <trkpt lat="46.46533" lon="5.77382">
        <ele>840</ele>
        <time>2022-04-04T15:06:23Z</time>
      </trkpt>
      <trkpt lat="46.46505" lon="5.77337">
        <ele>841</ele>
        <time>2022-04-04T15:06:30Z</time>
      </trkpt>
      <trkpt lat="46.46489" lon="5.77322">
        <ele>842</ele>
        <time>2022-04-04T15:06:33Z</time>
      </trkpt>
      <trkpt lat="46.46476" lon="5.77312">
        <ele>843</ele>
        <time>2022-04-04T15:06:36Z</time>
      </trkpt>
      <trkpt lat="46.46261" lon="5.77202">
        <ele>850</ele>
        <time>2022-04-04T15:07:17Z</time>
      </trkpt>
      <trkpt lat="46.46238" lon="5.77184">
        <ele>851</ele>
        <time>2022-04-04T15:07:21Z</time>
      </trkpt>
      <trkpt lat="46.46225" lon="5.77168">
        <ele>852</ele>
        <time>2022-04-04T15:07:24Z</time>
      </trkpt>
      <trkpt lat="46.46217" lon="5.77151">
        <ele>853</ele>
        <time>2022-04-04T15:07:27Z</time>
      </trkpt>
      <trkpt lat="46.46196" lon="5.77091">
        <ele>854</ele>
        <time>2022-04-04T15:07:35Z</time>
      </trkpt>
      <trkpt lat="46.46186" lon="5.77074">
        <ele>854</ele>
        <time>2022-04-04T15:07:38Z</time>
      </trkpt>
      <trkpt lat="46.46165" lon="5.7705">
        <ele>855</ele>
        <time>2022-04-04T15:07:43Z</time>
      </trkpt>
      <trkpt lat="46.46137" lon="5.77036">
        <ele>855</ele>
        <time>2022-04-04T15:07:48Z</time>
      </trkpt>
      <trkpt lat="46.46095" lon="5.77021">
        <ele>853</ele>
        <time>2022-04-04T15:07:56Z</time>
      </trkpt>
      <trkpt lat="46.46079" lon="5.77019">
        <ele>853</ele>
        <time>2022-04-04T15:07:58Z</time>
      </trkpt>
      <trkpt lat="46.46049" lon="5.77023">
        <ele>852</ele>
        <time>2022-04-04T15:08:04Z</time>
      </trkpt>
      <trkpt lat="46.46031" lon="5.77017">
        <ele>851</ele>
        <time>2022-04-04T15:08:07Z</time>
      </trkpt>
      <trkpt lat="46.46018" lon="5.77006">
        <ele>851</ele>
        <time>2022-04-04T15:08:10Z</time>
      </trkpt>
      <trkpt lat="46.45978" lon="5.76944">
        <ele>848</ele>
        <time>2022-04-04T15:08:20Z</time>
      </trkpt>
      <trkpt lat="46.4597" lon="5.76927">
        <ele>847</ele>
        <time>2022-04-04T15:08:23Z</time>
      </trkpt>
      <trkpt lat="46.45964" lon="5.76906">
        <ele>847</ele>
        <time>2022-04-04T15:08:25Z</time>
      </trkpt>
      <trkpt lat="46.45958" lon="5.76878">
        <ele>846</ele>
        <time>2022-04-04T15:08:29Z</time>
      </trkpt>
      <trkpt lat="46.45957" lon="5.76856">
        <ele>845</ele>
        <time>2022-04-04T15:08:32Z</time>
      </trkpt>
      <trkpt lat="46.45965" lon="5.76791">
        <ele>843</ele>
        <time>2022-04-04T15:08:40Z</time>
      </trkpt>
      <trkpt lat="46.45966" lon="5.76768">
        <ele>841</ele>
        <time>2022-04-04T15:08:43Z</time>
      </trkpt>
      <trkpt lat="46.45964" lon="5.7673">
        <ele>839</ele>
        <time>2022-04-04T15:08:47Z</time>
      </trkpt>
      <trkpt lat="46.45959" lon="5.76707">
        <ele>837</ele>
        <time>2022-04-04T15:08:50Z</time>
      </trkpt>
      <trkpt lat="46.45954" lon="5.76696">
        <ele>836</ele>
        <time>2022-04-04T15:08:52Z</time>
      </trkpt>
      <trkpt lat="46.45947" lon="5.76689">
        <ele>836</ele>
        <time>2022-04-04T15:08:53Z</time>
      </trkpt>
      <trkpt lat="46.45933" lon="5.76682">
        <ele>836</ele>
        <time>2022-04-04T15:08:56Z</time>
      </trkpt>
      <trkpt lat="46.45898" lon="5.7668">
        <ele>835</ele>
        <time>2022-04-04T15:09:02Z</time>
      </trkpt>
      <trkpt lat="46.45857" lon="5.76714">
        <ele>835</ele>
        <time>2022-04-04T15:09:11Z</time>
      </trkpt>
      <trkpt lat="46.45823" lon="5.76729">
        <ele>835</ele>
        <time>2022-04-04T15:09:17Z</time>
      </trkpt>
      <trkpt lat="46.45812" lon="5.76731">
        <ele>835</ele>
        <time>2022-04-04T15:09:19Z</time>
      </trkpt>
      <trkpt lat="46.45787" lon="5.76725">
        <ele>835</ele>
        <time>2022-04-04T15:09:23Z</time>
      </trkpt>
      <trkpt lat="46.45765" lon="5.76711">
        <ele>833</ele>
        <time>2022-04-04T15:09:28Z</time>
      </trkpt>
      <trkpt lat="46.45708" lon="5.76654">
        <ele>831</ele>
        <time>2022-04-04T15:09:40Z</time>
      </trkpt>
      <trkpt lat="46.45696" lon="5.76636">
        <ele>831</ele>
        <time>2022-04-04T15:09:43Z</time>
      </trkpt>
      <trkpt lat="46.45685" lon="5.76612">
        <ele>830</ele>
        <time>2022-04-04T15:09:47Z</time>
      </trkpt>
      <trkpt lat="46.45681" lon="5.76601">
        <ele>829</ele>
        <time>2022-04-04T15:09:48Z</time>
      </trkpt>
      <trkpt lat="46.45681" lon="5.76575">
        <ele>827</ele>
        <time>2022-04-04T15:09:51Z</time>
      </trkpt>
      <trkpt lat="46.45693" lon="5.76493">
        <ele>819</ele>
        <time>2022-04-04T15:10:02Z</time>
      </trkpt>
      <trkpt lat="46.45702" lon="5.76365">
        <ele>810</ele>
        <time>2022-04-04T15:10:17Z</time>
      </trkpt>
      <trkpt lat="46.45702" lon="5.76336">
        <ele>808</ele>
        <time>2022-04-04T15:10:21Z</time>
      </trkpt>
      <trkpt lat="46.457" lon="5.76327">
        <ele>808</ele>
        <time>2022-04-04T15:10:22Z</time>
      </trkpt>
      <trkpt lat="46.45693" lon="5.76314">
        <ele>808</ele>
        <time>2022-04-04T15:10:24Z</time>
      </trkpt>
      <trkpt lat="46.45681" lon="5.76299">
        <ele>808</ele>
        <time>2022-04-04T15:10:27Z</time>
      </trkpt>
      <trkpt lat="46.45595" lon="5.76211">
        <ele>809</ele>
        <time>2022-04-04T15:10:46Z</time>
      </trkpt>
      <trkpt lat="46.45522" lon="5.76161">
        <ele>805</ele>
        <time>2022-04-04T15:11:00Z</time>
      </trkpt>
      <trkpt lat="46.45503" lon="5.76145">
        <ele>803</ele>
        <time>2022-04-04T15:11:04Z</time>
      </trkpt>
      <trkpt lat="46.45495" lon="5.76129">
        <ele>803</ele>
        <time>2022-04-04T15:11:06Z</time>
      </trkpt>
      <trkpt lat="46.45493" lon="5.76119">
        <ele>803</ele>
        <time>2022-04-04T15:11:08Z</time>
      </trkpt>
      <trkpt lat="46.45489" lon="5.76097">
        <ele>804</ele>
        <time>2022-04-04T15:11:10Z</time>
      </trkpt>
      <trkpt lat="46.45484" lon="5.76047">
        <ele>803</ele>
        <time>2022-04-04T15:11:17Z</time>
      </trkpt>
      <trkpt lat="46.4548" lon="5.76029">
        <ele>802</ele>
        <time>2022-04-04T15:11:19Z</time>
      </trkpt>
      <trkpt lat="46.45472" lon="5.76007">
        <ele>803</ele>
        <time>2022-04-04T15:11:22Z</time>
      </trkpt>
      <trkpt lat="46.45437" lon="5.75959">
        <ele>805</ele>
        <time>2022-04-04T15:11:31Z</time>
      </trkpt>
      <trkpt lat="46.45415" lon="5.7593">
        <ele>804</ele>
        <time>2022-04-04T15:11:36Z</time>
      </trkpt>
      <trkpt lat="46.45402" lon="5.75915">
        <ele>804</ele>
        <time>2022-04-04T15:11:39Z</time>
      </trkpt>
      <trkpt lat="46.45389" lon="5.75905">
        <ele>804</ele>
        <time>2022-04-04T15:11:41Z</time>
      </trkpt>
      <trkpt lat="46.45366" lon="5.75891">
        <ele>804</ele>
        <time>2022-04-04T15:11:46Z</time>
      </trkpt>
      <trkpt lat="46.45286" lon="5.75849">
        <ele>801</ele>
        <time>2022-04-04T15:12:01Z</time>
      </trkpt>
      <trkpt lat="46.45259" lon="5.75842">
        <ele>802</ele>
        <time>2022-04-04T15:12:06Z</time>
      </trkpt>
      <trkpt lat="46.45207" lon="5.75833">
        <ele>806</ele>
        <time>2022-04-04T15:12:15Z</time>
      </trkpt>
      <trkpt lat="46.45194" lon="5.75829">
        <ele>807</ele>
        <time>2022-04-04T15:12:18Z</time>
      </trkpt>
      <trkpt lat="46.45148" lon="5.75806">
        <ele>806</ele>
        <time>2022-04-04T15:12:26Z</time>
      </trkpt>
      <trkpt lat="46.45099" lon="5.75774">
        <ele>803</ele>
        <time>2022-04-04T15:12:36Z</time>
      </trkpt>
      <trkpt lat="46.45042" lon="5.7573">
        <ele>802</ele>
        <time>2022-04-04T15:12:47Z</time>
      </trkpt>
      <trkpt lat="46.44997" lon="5.75688">
        <ele>800</ele>
        <time>2022-04-04T15:12:57Z</time>
      </trkpt>
      <trkpt lat="46.4488" lon="5.75563">
        <ele>798</ele>
        <time>2022-04-04T15:13:23Z</time>
      </trkpt>
      <trkpt lat="46.44706" lon="5.7534">
        <ele>797</ele>
        <time>2022-04-04T15:14:04Z</time>
      </trkpt>
      <trkpt lat="46.44523" lon="5.75139">
        <ele>786</ele>
        <time>2022-04-04T15:14:45Z</time>
      </trkpt>
      <trkpt lat="46.44431" lon="5.75021">
        <ele>782</ele>
        <time>2022-04-04T15:15:07Z</time>
      </trkpt>
      <trkpt lat="46.44391" lon="5.74962">
        <ele>778</ele>
        <time>2022-04-04T15:15:17Z</time>
      </trkpt>
      <trkpt lat="46.44271" lon="5.74856">
        <ele>775</ele>
        <time>2022-04-04T15:15:42Z</time>
      </trkpt>
      <trkpt lat="46.44166" lon="5.74729">
        <ele>768</ele>
        <time>2022-04-04T15:16:06Z</time>
      </trkpt>
      <trkpt lat="46.44133" lon="5.74687">
        <ele>770</ele>
        <time>2022-04-04T15:16:14Z</time>
      </trkpt>
      <trkpt lat="46.44109" lon="5.74661">
        <ele>770</ele>
        <time>2022-04-04T15:16:19Z</time>
      </trkpt>
      <trkpt lat="46.44046" lon="5.74572">
        <ele>768</ele>
        <time>2022-04-04T15:16:35Z</time>
      </trkpt>
      <trkpt lat="46.44024" lon="5.74529">
        <ele>767</ele>
        <time>2022-04-04T15:16:41Z</time>
      </trkpt>
      <trkpt lat="46.44014" lon="5.74503">
        <ele>765</ele>
        <time>2022-04-04T15:16:45Z</time>
      </trkpt>
      <trkpt lat="46.43967" lon="5.74299">
        <ele>751</ele>
        <time>2022-04-04T15:17:11Z</time>
      </trkpt>
      <trkpt lat="46.43941" lon="5.74253">
        <ele>750</ele>
        <time>2022-04-04T15:17:19Z</time>
      </trkpt>
      <trkpt lat="46.43887" lon="5.74199">
        <ele>748</ele>
        <time>2022-04-04T15:17:30Z</time>
      </trkpt>
      <trkpt lat="46.43789" lon="5.7416">
        <ele>750</ele>
        <time>2022-04-04T15:17:49Z</time>
      </trkpt>
      <trkpt lat="46.43724" lon="5.74111">
        <ele>741</ele>
        <time>2022-04-04T15:18:02Z</time>
      </trkpt>
      <trkpt lat="46.43695" lon="5.74084">
        <ele>735</ele>
        <time>2022-04-04T15:18:08Z</time>
      </trkpt>
      <trkpt lat="46.43653" lon="5.74058">
        <ele>731</ele>
        <time>2022-04-04T15:18:16Z</time>
      </trkpt>
      <trkpt lat="46.43558" lon="5.74016">
        <ele>731</ele>
        <time>2022-04-04T15:18:33Z</time>
      </trkpt>
      <trkpt lat="46.43514" lon="5.73986">
        <ele>727</ele>
        <time>2022-04-04T15:18:42Z</time>
      </trkpt>
      <trkpt lat="46.43379" lon="5.73862">
        <ele>715</ele>
        <time>2022-04-04T15:19:11Z</time>
      </trkpt>
      <trkpt lat="46.43345" lon="5.73836">
        <ele>713</ele>
        <time>2022-04-04T15:19:17Z</time>
      </trkpt>
      <trkpt lat="46.43217" lon="5.7376">
        <ele>707</ele>
        <time>2022-04-04T15:19:42Z</time>
      </trkpt>
      <trkpt lat="46.43146" lon="5.737">
        <ele>704</ele>
        <time>2022-04-04T15:19:57Z</time>
      </trkpt>
      <trkpt lat="46.4311" lon="5.73647">
        <ele>698</ele>
        <time>2022-04-04T15:20:06Z</time>
      </trkpt>
      <trkpt lat="46.4295" lon="5.73374">
        <ele>680</ele>
        <time>2022-04-04T15:20:50Z</time>
      </trkpt>
      <trkpt lat="46.42864" lon="5.73239">
        <ele>671</ele>
        <time>2022-04-04T15:21:12Z</time>
      </trkpt>
      <trkpt lat="46.42715" lon="5.73071">
        <ele>667</ele>
        <time>2022-04-04T15:21:46Z</time>
      </trkpt>
      <trkpt lat="46.42684" lon="5.72999">
        <ele>656</ele>
        <time>2022-04-04T15:21:56Z</time>
      </trkpt>
      <trkpt lat="46.42654" lon="5.72972">
        <ele>653</ele>
        <time>2022-04-04T15:22:03Z</time>
      </trkpt>
      <trkpt lat="46.42572" lon="5.72914">
        <ele>646</ele>
        <time>2022-04-04T15:22:19Z</time>
      </trkpt>
      <trkpt lat="46.42518" lon="5.7287">
        <ele>646</ele>
        <time>2022-04-04T15:22:30Z</time>
      </trkpt>
      <trkpt lat="46.42502" lon="5.72844">
        <ele>641</ele>
        <time>2022-04-04T15:22:34Z</time>
      </trkpt>
      <trkpt lat="46.42492" lon="5.72789">
        <ele>635</ele>
        <time>2022-04-04T15:22:41Z</time>
      </trkpt>
      <trkpt lat="46.42506" lon="5.72611">
        <ele>629</ele>
        <time>2022-04-04T15:23:03Z</time>
      </trkpt>
      <trkpt lat="46.4251" lon="5.72601">
        <ele>628</ele>
        <time>2022-04-04T15:23:04Z</time>
      </trkpt>
      <trkpt lat="46.42509" lon="5.72588">
        <ele>628</ele>
        <time>2022-04-04T15:23:06Z</time>
      </trkpt>
      <trkpt lat="46.42494" lon="5.72534">
        <ele>628</ele>
        <time>2022-04-04T15:23:13Z</time>
      </trkpt>
      <trkpt lat="46.42495" lon="5.72526">
        <ele>628</ele>
        <time>2022-04-04T15:23:14Z</time>
      </trkpt>
      <trkpt lat="46.42497" lon="5.72527">
        <ele>628</ele>
        <time>2022-04-04T15:23:15Z</time>
      </trkpt>
      <trkpt lat="46.42495" lon="5.72526">
        <ele>628</ele>
        <time>2022-04-04T15:23:15Z</time>
      </trkpt>
      <trkpt lat="46.42091" lon="5.72437">
        <ele>636</ele>
        <time>2022-04-04T15:24:28Z</time>
      </trkpt>
      <trkpt lat="46.41896" lon="5.72377">
        <ele>637</ele>
        <time>2022-04-04T15:25:03Z</time>
      </trkpt>
      <trkpt lat="46.41578" lon="5.72302">
        <ele>645</ele>
        <time>2022-04-04T15:26:00Z</time>
      </trkpt>
      <trkpt lat="46.41547" lon="5.72303">
        <ele>647</ele>
        <time>2022-04-04T15:26:06Z</time>
      </trkpt>
      <trkpt lat="46.41527" lon="5.72306">
        <ele>649</ele>
        <time>2022-04-04T15:26:10Z</time>
      </trkpt>
      <trkpt lat="46.41477" lon="5.7233">
        <ele>653</ele>
        <time>2022-04-04T15:26:19Z</time>
      </trkpt>
      <trkpt lat="46.41435" lon="5.72346">
        <ele>655</ele>
        <time>2022-04-04T15:26:27Z</time>
      </trkpt>
      <trkpt lat="46.41419" lon="5.72349">
        <ele>655</ele>
        <time>2022-04-04T15:26:29Z</time>
      </trkpt>
      <trkpt lat="46.41393" lon="5.72348">
        <ele>653</ele>
        <time>2022-04-04T15:26:34Z</time>
      </trkpt>
      <trkpt lat="46.4138" lon="5.72345">
        <ele>653</ele>
        <time>2022-04-04T15:26:36Z</time>
      </trkpt>
      <trkpt lat="46.41367" lon="5.72337">
        <ele>651</ele>
        <time>2022-04-04T15:26:39Z</time>
      </trkpt>
      <trkpt lat="46.4136" lon="5.7232">
        <ele>651</ele>
        <time>2022-04-04T15:26:41Z</time>
      </trkpt>
      <trkpt lat="46.41353" lon="5.72311">
        <ele>650</ele>
        <time>2022-04-04T15:26:43Z</time>
      </trkpt>
      <trkpt lat="46.41343" lon="5.72305">
        <ele>650</ele>
        <time>2022-04-04T15:26:45Z</time>
      </trkpt>
      <trkpt lat="46.41333" lon="5.72304">
        <ele>650</ele>
        <time>2022-04-04T15:26:47Z</time>
      </trkpt>
      <trkpt lat="46.4132" lon="5.7231">
        <ele>650</ele>
        <time>2022-04-04T15:26:49Z</time>
      </trkpt>
      <trkpt lat="46.41308" lon="5.72308">
        <ele>651</ele>
        <time>2022-04-04T15:26:51Z</time>
      </trkpt>
      <trkpt lat="46.41301" lon="5.72303">
        <ele>651</ele>
        <time>2022-04-04T15:26:53Z</time>
      </trkpt>
      <trkpt lat="46.41292" lon="5.72292">
        <ele>651</ele>
        <time>2022-04-04T15:26:55Z</time>
      </trkpt>
      <trkpt lat="46.41287" lon="5.72274">
        <ele>652</ele>
        <time>2022-04-04T15:26:57Z</time>
      </trkpt>
      <trkpt lat="46.41287" lon="5.72262">
        <ele>651</ele>
        <time>2022-04-04T15:26:59Z</time>
      </trkpt>
      <trkpt lat="46.41289" lon="5.72249">
        <ele>651</ele>
        <time>2022-04-04T15:27:00Z</time>
      </trkpt>
      <trkpt lat="46.41303" lon="5.72198">
        <ele>653</ele>
        <time>2022-04-04T15:27:07Z</time>
      </trkpt>
      <trkpt lat="46.41327" lon="5.72054">
        <ele>666</ele>
        <time>2022-04-04T15:27:25Z</time>
      </trkpt>
      <trkpt lat="46.41333" lon="5.72025">
        <ele>669</ele>
        <time>2022-04-04T15:27:29Z</time>
      </trkpt>
      <trkpt lat="46.41374" lon="5.71904">
        <ele>670</ele>
        <time>2022-04-04T15:27:45Z</time>
      </trkpt>
      <trkpt lat="46.41376" lon="5.71886">
        <ele>669</ele>
        <time>2022-04-04T15:27:48Z</time>
      </trkpt>
      <trkpt lat="46.41374" lon="5.71866">
        <ele>669</ele>
        <time>2022-04-04T15:27:50Z</time>
      </trkpt>
      <trkpt lat="46.41361" lon="5.71819">
        <ele>670</ele>
        <time>2022-04-04T15:27:56Z</time>
      </trkpt>
      <trkpt lat="46.41351" lon="5.71788">
        <ele>669</ele>
        <time>2022-04-04T15:28:01Z</time>
      </trkpt>
      <trkpt lat="46.4134" lon="5.71772">
        <ele>669</ele>
        <time>2022-04-04T15:28:03Z</time>
      </trkpt>
      <trkpt lat="46.41278" lon="5.71708">
        <ele>680</ele>
        <time>2022-04-04T15:28:17Z</time>
      </trkpt>
      <trkpt lat="46.41269" lon="5.71693">
        <ele>681</ele>
        <time>2022-04-04T15:28:19Z</time>
      </trkpt>
      <trkpt lat="46.41265" lon="5.71683">
        <ele>681</ele>
        <time>2022-04-04T15:28:21Z</time>
      </trkpt>
      <trkpt lat="46.41263" lon="5.71674">
        <ele>681</ele>
        <time>2022-04-04T15:28:22Z</time>
      </trkpt>
      <trkpt lat="46.41262" lon="5.71655">
        <ele>679</ele>
        <time>2022-04-04T15:28:24Z</time>
      </trkpt>
      <trkpt lat="46.41265" lon="5.716">
        <ele>673</ele>
        <time>2022-04-04T15:28:31Z</time>
      </trkpt>
      <trkpt lat="46.41262" lon="5.7157">
        <ele>671</ele>
        <time>2022-04-04T15:28:35Z</time>
      </trkpt>
      <trkpt lat="46.41222" lon="5.71413">
        <ele>674</ele>
        <time>2022-04-04T15:28:55Z</time>
      </trkpt>
      <trkpt lat="46.41214" lon="5.71394">
        <ele>677</ele>
        <time>2022-04-04T15:28:58Z</time>
      </trkpt>
      <trkpt lat="46.41207" lon="5.7138">
        <ele>679</ele>
        <time>2022-04-04T15:29:00Z</time>
      </trkpt>
      <trkpt lat="46.41197" lon="5.71372">
        <ele>680</ele>
        <time>2022-04-04T15:29:02Z</time>
      </trkpt>
      <trkpt lat="46.41183" lon="5.71366">
        <ele>682</ele>
        <time>2022-04-04T15:29:05Z</time>
      </trkpt>
      <trkpt lat="46.4115" lon="5.71366">
        <ele>684</ele>
        <time>2022-04-04T15:29:11Z</time>
      </trkpt>
      <trkpt lat="46.41125" lon="5.71362">
        <ele>685</ele>
        <time>2022-04-04T15:29:15Z</time>
      </trkpt>
      <trkpt lat="46.4108" lon="5.71348">
        <ele>687</ele>
        <time>2022-04-04T15:29:23Z</time>
      </trkpt>
      <trkpt lat="46.40945" lon="5.71298">
        <ele>700</ele>
        <time>2022-04-04T15:29:48Z</time>
      </trkpt>
      <trkpt lat="46.40923" lon="5.71295">
        <ele>701</ele>
        <time>2022-04-04T15:29:52Z</time>
      </trkpt>
      <trkpt lat="46.40887" lon="5.71298">
        <ele>702</ele>
        <time>2022-04-04T15:29:58Z</time>
      </trkpt>
      <trkpt lat="46.4088" lon="5.71294">
        <ele>703</ele>
        <time>2022-04-04T15:30:00Z</time>
      </trkpt>
      <trkpt lat="46.40872" lon="5.71284">
        <ele>704</ele>
        <time>2022-04-04T15:30:02Z</time>
      </trkpt>
      <trkpt lat="46.40869" lon="5.71276">
        <ele>705</ele>
        <time>2022-04-04T15:30:03Z</time>
      </trkpt>
      <trkpt lat="46.40869" lon="5.71268">
        <ele>705</ele>
        <time>2022-04-04T15:30:04Z</time>
      </trkpt>
      <trkpt lat="46.40818" lon="5.71263">
        <ele>706</ele>
        <time>2022-04-04T15:30:13Z</time>
      </trkpt>
      <trkpt lat="46.40808" lon="5.71266">
        <ele>706</ele>
        <time>2022-04-04T15:30:15Z</time>
      </trkpt>
      <trkpt lat="46.40759" lon="5.71291">
        <ele>707</ele>
        <time>2022-04-04T15:30:24Z</time>
      </trkpt>
      <trkpt lat="46.40708" lon="5.71296">
        <ele>705</ele>
        <time>2022-04-04T15:30:33Z</time>
      </trkpt>
      <trkpt lat="46.40686" lon="5.71292">
        <ele>705</ele>
        <time>2022-04-04T15:30:37Z</time>
      </trkpt>
      <trkpt lat="46.4067" lon="5.71287">
        <ele>704</ele>
        <time>2022-04-04T15:30:40Z</time>
      </trkpt>
      <trkpt lat="46.40648" lon="5.71271">
        <ele>704</ele>
        <time>2022-04-04T15:30:44Z</time>
      </trkpt>
      <trkpt lat="46.40625" lon="5.71251">
        <ele>704</ele>
        <time>2022-04-04T15:30:49Z</time>
      </trkpt>
      <trkpt lat="46.40543" lon="5.71162">
        <ele>701</ele>
        <time>2022-04-04T15:31:07Z</time>
      </trkpt>
      <trkpt lat="46.40463" lon="5.71084">
        <ele>707</ele>
        <time>2022-04-04T15:31:24Z</time>
      </trkpt>
      <trkpt lat="46.40424" lon="5.71039">
        <ele>706</ele>
        <time>2022-04-04T15:31:33Z</time>
      </trkpt>
      <trkpt lat="46.40406" lon="5.71022">
        <ele>705</ele>
        <time>2022-04-04T15:31:37Z</time>
      </trkpt>
      <trkpt lat="46.40343" lon="5.70982">
        <ele>701</ele>
        <time>2022-04-04T15:31:49Z</time>
      </trkpt>
      <trkpt lat="46.40304" lon="5.70959">
        <ele>700</ele>
        <time>2022-04-04T15:31:57Z</time>
      </trkpt>
      <trkpt lat="46.40285" lon="5.70945">
        <ele>699</ele>
        <time>2022-04-04T15:32:01Z</time>
      </trkpt>
      <trkpt lat="46.40252" lon="5.70917">
        <ele>695</ele>
        <time>2022-04-04T15:32:07Z</time>
      </trkpt>
      <trkpt lat="46.40227" lon="5.70889">
        <ele>694</ele>
        <time>2022-04-04T15:32:13Z</time>
      </trkpt>
      <trkpt lat="46.40214" lon="5.70868">
        <ele>692</ele>
        <time>2022-04-04T15:32:16Z</time>
      </trkpt>
      <trkpt lat="46.40173" lon="5.70783">
        <ele>682</ele>
        <time>2022-04-04T15:32:29Z</time>
      </trkpt>
      <trkpt lat="46.40161" lon="5.70765">
        <ele>681</ele>
        <time>2022-04-04T15:32:32Z</time>
      </trkpt>
      <trkpt lat="46.40138" lon="5.70741">
        <ele>680</ele>
        <time>2022-04-04T15:32:37Z</time>
      </trkpt>
      <trkpt lat="46.40087" lon="5.70698">
        <ele>680</ele>
        <time>2022-04-04T15:32:48Z</time>
      </trkpt>
      <trkpt lat="46.39903" lon="5.70602">
        <ele>680</ele>
        <time>2022-04-04T15:33:23Z</time>
      </trkpt>
      <trkpt lat="46.39883" lon="5.70596">
        <ele>680</ele>
        <time>2022-04-04T15:33:26Z</time>
      </trkpt>
      <trkpt lat="46.39861" lon="5.70595">
        <ele>680</ele>
        <time>2022-04-04T15:33:30Z</time>
      </trkpt>
      <trkpt lat="46.39805" lon="5.70598">
        <ele>679</ele>
        <time>2022-04-04T15:33:40Z</time>
      </trkpt>
      <trkpt lat="46.39755" lon="5.70613">
        <ele>679</ele>
        <time>2022-04-04T15:33:49Z</time>
      </trkpt>
      <trkpt lat="46.39744" lon="5.70612">
        <ele>679</ele>
        <time>2022-04-04T15:33:51Z</time>
      </trkpt>
      <trkpt lat="46.39636" lon="5.7055">
        <ele>677</ele>
        <time>2022-04-04T15:34:12Z</time>
      </trkpt>
      <trkpt lat="46.39603" lon="5.70527">
        <ele>675</ele>
        <time>2022-04-04T15:34:18Z</time>
      </trkpt>
      <trkpt lat="46.3958" lon="5.70508">
        <ele>673</ele>
        <time>2022-04-04T15:34:23Z</time>
      </trkpt>
      <trkpt lat="46.39558" lon="5.70486">
        <ele>672</ele>
        <time>2022-04-04T15:34:28Z</time>
      </trkpt>
      <trkpt lat="46.39522" lon="5.70439">
        <ele>674</ele>
        <time>2022-04-04T15:34:36Z</time>
      </trkpt>
      <trkpt lat="46.3951" lon="5.70426">
        <ele>674</ele>
        <time>2022-04-04T15:34:39Z</time>
      </trkpt>
      <trkpt lat="46.39494" lon="5.70415">
        <ele>674</ele>
        <time>2022-04-04T15:34:42Z</time>
      </trkpt>
      <trkpt lat="46.39469" lon="5.704">
        <ele>674</ele>
        <time>2022-04-04T15:34:47Z</time>
      </trkpt>
      <trkpt lat="46.39425" lon="5.70382">
        <ele>674</ele>
        <time>2022-04-04T15:34:55Z</time>
      </trkpt>
      <trkpt lat="46.39409" lon="5.70377">
        <ele>675</ele>
        <time>2022-04-04T15:34:58Z</time>
      </trkpt>
      <trkpt lat="46.39325" lon="5.70368">
        <ele>677</ele>
        <time>2022-04-04T15:35:13Z</time>
      </trkpt>
      <trkpt lat="46.39292" lon="5.7036">
        <ele>677</ele>
        <time>2022-04-04T15:35:19Z</time>
      </trkpt>
      <trkpt lat="46.39275" lon="5.70352">
        <ele>678</ele>
        <time>2022-04-04T15:35:22Z</time>
      </trkpt>
      <trkpt lat="46.39258" lon="5.70337">
        <ele>679</ele>
        <time>2022-04-04T15:35:26Z</time>
      </trkpt>
      <trkpt lat="46.39242" lon="5.70318">
        <ele>678</ele>
        <time>2022-04-04T15:35:29Z</time>
      </trkpt>
      <trkpt lat="46.3921" lon="5.70264">
        <ele>673</ele>
        <time>2022-04-04T15:35:38Z</time>
      </trkpt>
      <trkpt lat="46.39131" lon="5.70116">
        <ele>670</ele>
        <time>2022-04-04T15:36:01Z</time>
      </trkpt>
      <trkpt lat="46.39119" lon="5.70089">
        <ele>670</ele>
        <time>2022-04-04T15:36:05Z</time>
      </trkpt>
      <trkpt lat="46.391" lon="5.70032">
        <ele>670</ele>
        <time>2022-04-04T15:36:13Z</time>
      </trkpt>
      <trkpt lat="46.39066" lon="5.6997">
        <ele>668</ele>
        <time>2022-04-04T15:36:23Z</time>
      </trkpt>
      <trkpt lat="46.39046" lon="5.69946">
        <ele>668</ele>
        <time>2022-04-04T15:36:27Z</time>
      </trkpt>
      <trkpt lat="46.39029" lon="5.69929">
        <ele>667</ele>
        <time>2022-04-04T15:36:31Z</time>
      </trkpt>
      <trkpt lat="46.39013" lon="5.69919">
        <ele>665</ele>
        <time>2022-04-04T15:36:34Z</time>
      </trkpt>
      <trkpt lat="46.38991" lon="5.69911">
        <ele>664</ele>
        <time>2022-04-04T15:36:38Z</time>
      </trkpt>
      <trkpt lat="46.38971" lon="5.69906">
        <ele>666</ele>
        <time>2022-04-04T15:36:42Z</time>
      </trkpt>
      <trkpt lat="46.38957" lon="5.69906">
        <ele>666</ele>
        <time>2022-04-04T15:36:44Z</time>
      </trkpt>
      <trkpt lat="46.38934" lon="5.69913">
        <ele>665</ele>
        <time>2022-04-04T15:36:48Z</time>
      </trkpt>
      <trkpt lat="46.38867" lon="5.69924">
        <ele>662</ele>
        <time>2022-04-04T15:37:00Z</time>
      </trkpt>
      <trkpt lat="46.38826" lon="5.69928">
        <ele>661</ele>
        <time>2022-04-04T15:37:08Z</time>
      </trkpt>
      <trkpt lat="46.38805" lon="5.69908">
        <ele>662</ele>
        <time>2022-04-04T15:37:12Z</time>
      </trkpt>
      <trkpt lat="46.38746" lon="5.69864">
        <ele>660</ele>
        <time>2022-04-04T15:37:24Z</time>
      </trkpt>
      <trkpt lat="46.38725" lon="5.69847">
        <ele>658</ele>
        <time>2022-04-04T15:37:28Z</time>
      </trkpt>
      <trkpt lat="46.38704" lon="5.69819">
        <ele>657</ele>
        <time>2022-04-04T15:37:33Z</time>
      </trkpt>
      <trkpt lat="46.38682" lon="5.69799">
        <ele>656</ele>
        <time>2022-04-04T15:37:38Z</time>
      </trkpt>
      <trkpt lat="46.38667" lon="5.69791">
        <ele>655</ele>
        <time>2022-04-04T15:37:41Z</time>
      </trkpt>
      <trkpt lat="46.38632" lon="5.69783">
        <ele>650</ele>
        <time>2022-04-04T15:37:47Z</time>
      </trkpt>
      <trkpt lat="46.38602" lon="5.69784">
        <ele>645</ele>
        <time>2022-04-04T15:37:52Z</time>
      </trkpt>
      <trkpt lat="46.38573" lon="5.69788">
        <ele>641</ele>
        <time>2022-04-04T15:37:58Z</time>
      </trkpt>
      <trkpt lat="46.38552" lon="5.69788">
        <ele>638</ele>
        <time>2022-04-04T15:38:01Z</time>
      </trkpt>
      <trkpt lat="46.3853" lon="5.69782">
        <ele>636</ele>
        <time>2022-04-04T15:38:05Z</time>
      </trkpt>
      <trkpt lat="46.38515" lon="5.69774">
        <ele>635</ele>
        <time>2022-04-04T15:38:08Z</time>
      </trkpt>
      <trkpt lat="46.38448" lon="5.69716">
        <ele>629</ele>
        <time>2022-04-04T15:38:22Z</time>
      </trkpt>
      <trkpt lat="46.38407" lon="5.69676">
        <ele>624</ele>
        <time>2022-04-04T15:38:31Z</time>
      </trkpt>
      <trkpt lat="46.38391" lon="5.69655">
        <ele>622</ele>
        <time>2022-04-04T15:38:35Z</time>
      </trkpt>
      <trkpt lat="46.38374" lon="5.69626">
        <ele>619</ele>
        <time>2022-04-04T15:38:39Z</time>
      </trkpt>
      <trkpt lat="46.38361" lon="5.69599">
        <ele>617</ele>
        <time>2022-04-04T15:38:43Z</time>
      </trkpt>
      <trkpt lat="46.38339" lon="5.69531">
        <ele>618</ele>
        <time>2022-04-04T15:38:53Z</time>
      </trkpt>
      <trkpt lat="46.38329" lon="5.69509">
        <ele>617</ele>
        <time>2022-04-04T15:38:56Z</time>
      </trkpt>
      <trkpt lat="46.38315" lon="5.69484">
        <ele>618</ele>
        <time>2022-04-04T15:39:00Z</time>
      </trkpt>
      <trkpt lat="46.38301" lon="5.69468">
        <ele>618</ele>
        <time>2022-04-04T15:39:03Z</time>
      </trkpt>
      <trkpt lat="46.38289" lon="5.69458">
        <ele>616</ele>
        <time>2022-04-04T15:39:05Z</time>
      </trkpt>
      <trkpt lat="46.38269" lon="5.69447">
        <ele>613</ele>
        <time>2022-04-04T15:39:09Z</time>
      </trkpt>
      <trkpt lat="46.38246" lon="5.6944">
        <ele>609</ele>
        <time>2022-04-04T15:39:13Z</time>
      </trkpt>
      <trkpt lat="46.38234" lon="5.6944">
        <ele>607</ele>
        <time>2022-04-04T15:39:16Z</time>
      </trkpt>
      <trkpt lat="46.38225" lon="5.69445">
        <ele>606</ele>
        <time>2022-04-04T15:39:17Z</time>
      </trkpt>
      <trkpt lat="46.38201" lon="5.69483">
        <ele>599</ele>
        <time>2022-04-04T15:39:24Z</time>
      </trkpt>
      <trkpt lat="46.38183" lon="5.69496">
        <ele>597</ele>
        <time>2022-04-04T15:39:27Z</time>
      </trkpt>
      <trkpt lat="46.38168" lon="5.69499">
        <ele>595</ele>
        <time>2022-04-04T15:39:30Z</time>
      </trkpt>
      <trkpt lat="46.38093" lon="5.695">
        <ele>596</ele>
        <time>2022-04-04T15:39:43Z</time>
      </trkpt>
      <trkpt lat="46.38079" lon="5.69505">
        <ele>597</ele>
        <time>2022-04-04T15:39:46Z</time>
      </trkpt>
      <trkpt lat="46.38066" lon="5.69512">
        <ele>600</ele>
        <time>2022-04-04T15:39:48Z</time>
      </trkpt>
      <trkpt lat="46.38055" lon="5.69523">
        <ele>603</ele>
        <time>2022-04-04T15:39:51Z</time>
      </trkpt>
      <trkpt lat="46.38042" lon="5.69542">
        <ele>604</ele>
        <time>2022-04-04T15:39:54Z</time>
      </trkpt>
      <trkpt lat="46.38025" lon="5.69582">
        <ele>605</ele>
        <time>2022-04-04T15:40:00Z</time>
      </trkpt>
      <trkpt lat="46.38017" lon="5.69595">
        <ele>605</ele>
        <time>2022-04-04T15:40:02Z</time>
      </trkpt>
      <trkpt lat="46.3797" lon="5.69634">
        <ele>608</ele>
        <time>2022-04-04T15:40:11Z</time>
      </trkpt>
      <trkpt lat="46.37954" lon="5.69644">
        <ele>609</ele>
        <time>2022-04-04T15:40:15Z</time>
      </trkpt>
      <trkpt lat="46.37907" lon="5.69654">
        <ele>613</ele>
        <time>2022-04-04T15:40:23Z</time>
      </trkpt>
      <trkpt lat="46.37876" lon="5.69664">
        <ele>611</ele>
        <time>2022-04-04T15:40:29Z</time>
      </trkpt>
      <trkpt lat="46.3786" lon="5.69666">
        <ele>611</ele>
        <time>2022-04-04T15:40:31Z</time>
      </trkpt>
      <trkpt lat="46.37847" lon="5.69663">
        <ele>611</ele>
        <time>2022-04-04T15:40:34Z</time>
      </trkpt>
      <trkpt lat="46.37825" lon="5.69649">
        <ele>612</ele>
        <time>2022-04-04T15:40:38Z</time>
      </trkpt>
      <trkpt lat="46.37804" lon="5.6964">
        <ele>612</ele>
        <time>2022-04-04T15:40:42Z</time>
      </trkpt>
      <trkpt lat="46.37761" lon="5.69626">
        <ele>611</ele>
        <time>2022-04-04T15:40:50Z</time>
      </trkpt>
      <trkpt lat="46.37739" lon="5.69616">
        <ele>611</ele>
        <time>2022-04-04T15:40:54Z</time>
      </trkpt>
      <trkpt lat="46.37717" lon="5.69601">
        <ele>610</ele>
        <time>2022-04-04T15:40:58Z</time>
      </trkpt>
      <trkpt lat="46.37691" lon="5.69579">
        <ele>610</ele>
        <time>2022-04-04T15:41:04Z</time>
      </trkpt>
      <trkpt lat="46.37667" lon="5.69563">
        <ele>612</ele>
        <time>2022-04-04T15:41:08Z</time>
      </trkpt>
      <trkpt lat="46.37651" lon="5.69546">
        <ele>612</ele>
        <time>2022-04-04T15:41:12Z</time>
      </trkpt>
      <trkpt lat="46.37637" lon="5.69526">
        <ele>613</ele>
        <time>2022-04-04T15:41:15Z</time>
      </trkpt>
      <trkpt lat="46.37619" lon="5.69488">
        <ele>615</ele>
        <time>2022-04-04T15:41:21Z</time>
      </trkpt>
      <trkpt lat="46.37604" lon="5.6945">
        <ele>617</ele>
        <time>2022-04-04T15:41:26Z</time>
      </trkpt>
      <trkpt lat="46.37589" lon="5.69383">
        <ele>621</ele>
        <time>2022-04-04T15:41:35Z</time>
      </trkpt>
      <trkpt lat="46.3758" lon="5.6933">
        <ele>624</ele>
        <time>2022-04-04T15:41:42Z</time>
      </trkpt>
      <trkpt lat="46.37574" lon="5.69264">
        <ele>631</ele>
        <time>2022-04-04T15:41:50Z</time>
      </trkpt>
      <trkpt lat="46.37564" lon="5.69209">
        <ele>633</ele>
        <time>2022-04-04T15:41:57Z</time>
      </trkpt>
      <trkpt lat="46.37555" lon="5.69152">
        <ele>636</ele>
        <time>2022-04-04T15:42:04Z</time>
      </trkpt>
      <trkpt lat="46.37552" lon="5.69106">
        <ele>639</ele>
        <time>2022-04-04T15:42:10Z</time>
      </trkpt>
      <trkpt lat="46.37549" lon="5.69086">
        <ele>640</ele>
        <time>2022-04-04T15:42:12Z</time>
      </trkpt>
      <trkpt lat="46.37545" lon="5.69075">
        <ele>641</ele>
        <time>2022-04-04T15:42:14Z</time>
      </trkpt>
      <trkpt lat="46.37539" lon="5.69065">
        <ele>642</ele>
        <time>2022-04-04T15:42:15Z</time>
      </trkpt>
      <trkpt lat="46.3752" lon="5.69046">
        <ele>642</ele>
        <time>2022-04-04T15:42:19Z</time>
      </trkpt>
      <trkpt lat="46.3745" lon="5.69001">
        <ele>644</ele>
        <time>2022-04-04T15:42:33Z</time>
      </trkpt>
      <trkpt lat="46.37366" lon="5.68969">
        <ele>648</ele>
        <time>2022-04-04T15:42:49Z</time>
      </trkpt>
      <trkpt lat="46.37309" lon="5.68962">
        <ele>648</ele>
        <time>2022-04-04T15:42:59Z</time>
      </trkpt>
      <trkpt lat="46.37286" lon="5.68955">
        <ele>649</ele>
        <time>2022-04-04T15:43:03Z</time>
      </trkpt>
      <trkpt lat="46.37216" lon="5.68913">
        <ele>654</ele>
        <time>2022-04-04T15:43:16Z</time>
      </trkpt>
      <trkpt lat="46.37199" lon="5.689">
        <ele>655</ele>
        <time>2022-04-04T15:43:20Z</time>
      </trkpt>
      <trkpt lat="46.37175" lon="5.68877">
        <ele>658</ele>
        <time>2022-04-04T15:43:25Z</time>
      </trkpt>
      <trkpt lat="46.37111" lon="5.68802">
        <ele>667</ele>
        <time>2022-04-04T15:43:40Z</time>
      </trkpt>
      <trkpt lat="46.37026" lon="5.68719">
        <ele>671</ele>
        <time>2022-04-04T15:43:58Z</time>
      </trkpt>
      <trkpt lat="46.37011" lon="5.687">
        <ele>674</ele>
        <time>2022-04-04T15:44:01Z</time>
      </trkpt>
      <trkpt lat="46.37003" lon="5.68684">
        <ele>677</ele>
        <time>2022-04-04T15:44:04Z</time>
      </trkpt>
      <trkpt lat="46.37" lon="5.68667">
        <ele>681</ele>
        <time>2022-04-04T15:44:06Z</time>
      </trkpt>
      <trkpt lat="46.36992" lon="5.68595">
        <ele>681</ele>
        <time>2022-04-04T15:44:15Z</time>
      </trkpt>
      <trkpt lat="46.36987" lon="5.68574">
        <ele>681</ele>
        <time>2022-04-04T15:44:18Z</time>
      </trkpt>
      <trkpt lat="46.3698" lon="5.68558">
        <ele>681</ele>
        <time>2022-04-04T15:44:20Z</time>
      </trkpt>
      <trkpt lat="46.36971" lon="5.68546">
        <ele>680</ele>
        <time>2022-04-04T15:44:22Z</time>
      </trkpt>
      <trkpt lat="46.36957" lon="5.68532">
        <ele>680</ele>
        <time>2022-04-04T15:44:25Z</time>
      </trkpt>
      <trkpt lat="46.3687" lon="5.68462">
        <ele>678</ele>
        <time>2022-04-04T15:44:43Z</time>
      </trkpt>
      <trkpt lat="46.36845" lon="5.68432">
        <ele>676</ele>
        <time>2022-04-04T15:44:49Z</time>
      </trkpt>
      <trkpt lat="46.36825" lon="5.68396">
        <ele>675</ele>
        <time>2022-04-04T15:44:54Z</time>
      </trkpt>
      <trkpt lat="46.36799" lon="5.6836">
        <ele>675</ele>
        <time>2022-04-04T15:45:01Z</time>
      </trkpt>
      <trkpt lat="46.36789" lon="5.68324">
        <ele>676</ele>
        <time>2022-04-04T15:45:05Z</time>
      </trkpt>
      <trkpt lat="46.36776" lon="5.68307">
        <ele>677</ele>
        <time>2022-04-04T15:45:09Z</time>
      </trkpt>
      <trkpt lat="46.36745" lon="5.68279">
        <ele>678</ele>
        <time>2022-04-04T15:45:15Z</time>
      </trkpt>
      <trkpt lat="46.36697" lon="5.68263">
        <ele>675</ele>
        <time>2022-04-04T15:45:24Z</time>
      </trkpt>
      <trkpt lat="46.36637" lon="5.68234">
        <ele>677</ele>
        <time>2022-04-04T15:45:35Z</time>
      </trkpt>
      <trkpt lat="46.366" lon="5.68201">
        <ele>682</ele>
        <time>2022-04-04T15:45:43Z</time>
      </trkpt>
      <trkpt lat="46.36571" lon="5.68169">
        <ele>685</ele>
        <time>2022-04-04T15:45:49Z</time>
      </trkpt>
      <trkpt lat="46.36534" lon="5.68156">
        <ele>686</ele>
        <time>2022-04-04T15:45:56Z</time>
      </trkpt>
      <trkpt lat="46.36453" lon="5.68115">
        <ele>685</ele>
        <time>2022-04-04T15:46:11Z</time>
      </trkpt>
      <trkpt lat="46.36421" lon="5.68074">
        <ele>680</ele>
        <time>2022-04-04T15:46:19Z</time>
      </trkpt>
      <trkpt lat="46.36395" lon="5.68034">
        <ele>679</ele>
        <time>2022-04-04T15:46:26Z</time>
      </trkpt>
      <trkpt lat="46.36372" lon="5.67985">
        <ele>678</ele>
        <time>2022-04-04T15:46:33Z</time>
      </trkpt>
      <trkpt lat="46.36332" lon="5.67928">
        <ele>672</ele>
        <time>2022-04-04T15:46:43Z</time>
      </trkpt>
      <trkpt lat="46.36312" lon="5.67868">
        <ele>671</ele>
        <time>2022-04-04T15:46:51Z</time>
      </trkpt>
      <trkpt lat="46.36254" lon="5.67733">
        <ele>664</ele>
        <time>2022-04-04T15:47:11Z</time>
      </trkpt>
      <trkpt lat="46.36226" lon="5.67678">
        <ele>665</ele>
        <time>2022-04-04T15:47:19Z</time>
      </trkpt>
      <trkpt lat="46.36144" lon="5.67591">
        <ele>662</ele>
        <time>2022-04-04T15:47:37Z</time>
      </trkpt>
      <trkpt lat="46.36115" lon="5.67555">
        <ele>662</ele>
        <time>2022-04-04T15:47:44Z</time>
      </trkpt>
      <trkpt lat="46.36088" lon="5.67471">
        <ele>662</ele>
        <time>2022-04-04T15:47:55Z</time>
      </trkpt>
      <trkpt lat="46.3604" lon="5.6735">
        <ele>668</ele>
        <time>2022-04-04T15:48:12Z</time>
      </trkpt>
      <trkpt lat="46.36015" lon="5.67295">
        <ele>668</ele>
        <time>2022-04-04T15:48:21Z</time>
      </trkpt>
      <trkpt lat="46.35982" lon="5.6723">
        <ele>670</ele>
        <time>2022-04-04T15:48:30Z</time>
      </trkpt>
      <trkpt lat="46.35972" lon="5.67195">
        <ele>672</ele>
        <time>2022-04-04T15:48:35Z</time>
      </trkpt>
      <trkpt lat="46.35954" lon="5.67087">
        <ele>676</ele>
        <time>2022-04-04T15:48:49Z</time>
      </trkpt>
      <trkpt lat="46.35941" lon="5.67036">
        <ele>677</ele>
        <time>2022-04-04T15:48:55Z</time>
      </trkpt>
      <trkpt lat="46.35926" lon="5.66998">
        <ele>677</ele>
        <time>2022-04-04T15:49:01Z</time>
      </trkpt>
      <trkpt lat="46.359" lon="5.66959">
        <ele>678</ele>
        <time>2022-04-04T15:49:07Z</time>
      </trkpt>
      <trkpt lat="46.35892" lon="5.66938">
        <ele>679</ele>
        <time>2022-04-04T15:49:10Z</time>
      </trkpt>
      <trkpt lat="46.35895" lon="5.66884">
        <ele>677</ele>
        <time>2022-04-04T15:49:17Z</time>
      </trkpt>
      <trkpt lat="46.35904" lon="5.6681">
        <ele>676</ele>
        <time>2022-04-04T15:49:26Z</time>
      </trkpt>
      <trkpt lat="46.35904" lon="5.66762">
        <ele>676</ele>
        <time>2022-04-04T15:49:32Z</time>
      </trkpt>
      <trkpt lat="46.35901" lon="5.66712">
        <ele>678</ele>
        <time>2022-04-04T15:49:38Z</time>
      </trkpt>
      <trkpt lat="46.35881" lon="5.66679">
        <ele>680</ele>
        <time>2022-04-04T15:49:44Z</time>
      </trkpt>
      <trkpt lat="46.35836" lon="5.66648">
        <ele>683</ele>
        <time>2022-04-04T15:49:53Z</time>
      </trkpt>
      <trkpt lat="46.35768" lon="5.66619">
        <ele>682</ele>
        <time>2022-04-04T15:50:05Z</time>
      </trkpt>
      <trkpt lat="46.35733" lon="5.66598">
        <ele>680</ele>
        <time>2022-04-04T15:50:12Z</time>
      </trkpt>
      <trkpt lat="46.35708" lon="5.66569">
        <ele>677</ele>
        <time>2022-04-04T15:50:18Z</time>
      </trkpt>
      <trkpt lat="46.35643" lon="5.66434">
        <ele>662</ele>
        <time>2022-04-04T15:50:38Z</time>
      </trkpt>
      <trkpt lat="46.35612" lon="5.66363">
        <ele>658</ele>
        <time>2022-04-04T15:50:48Z</time>
      </trkpt>
      <trkpt lat="46.35554" lon="5.66281">
        <ele>652</ele>
        <time>2022-04-04T15:51:03Z</time>
      </trkpt>
      <trkpt lat="46.35496" lon="5.66213">
        <ele>646</ele>
        <time>2022-04-04T15:51:16Z</time>
      </trkpt>
      <trkpt lat="46.3546" lon="5.66174">
        <ele>645</ele>
        <time>2022-04-04T15:51:24Z</time>
      </trkpt>
      <trkpt lat="46.35425" lon="5.66125">
        <ele>642</ele>
        <time>2022-04-04T15:51:33Z</time>
      </trkpt>
      <trkpt lat="46.35286" lon="5.66003">
        <ele>626</ele>
        <time>2022-04-04T15:52:01Z</time>
      </trkpt>
      <trkpt lat="46.35266" lon="5.6598">
        <ele>623</ele>
        <time>2022-04-04T15:52:06Z</time>
      </trkpt>
      <trkpt lat="46.3524" lon="5.65931">
        <ele>617</ele>
        <time>2022-04-04T15:52:14Z</time>
      </trkpt>
      <trkpt lat="46.35224" lon="5.65909">
        <ele>617</ele>
        <time>2022-04-04T15:52:18Z</time>
      </trkpt>
      <trkpt lat="46.35187" lon="5.65873">
        <ele>618</ele>
        <time>2022-04-04T15:52:25Z</time>
      </trkpt>
      <trkpt lat="46.35152" lon="5.65844">
        <ele>616</ele>
        <time>2022-04-04T15:52:33Z</time>
      </trkpt>
      <trkpt lat="46.35142" lon="5.6584">
        <ele>616</ele>
        <time>2022-04-04T15:52:34Z</time>
      </trkpt>
      <trkpt lat="46.35124" lon="5.65838">
        <ele>616</ele>
        <time>2022-04-04T15:52:38Z</time>
      </trkpt>
      <trkpt lat="46.35113" lon="5.65834">
        <ele>616</ele>
        <time>2022-04-04T15:52:40Z</time>
      </trkpt>
      <trkpt lat="46.35086" lon="5.65821">
        <ele>616</ele>
        <time>2022-04-04T15:52:45Z</time>
      </trkpt>
      <trkpt lat="46.35081" lon="5.65821">
        <ele>616</ele>
        <time>2022-04-04T15:52:46Z</time>
      </trkpt>
      <trkpt lat="46.35077" lon="5.65824">
        <ele>616</ele>
        <time>2022-04-04T15:52:46Z</time>
      </trkpt>
      <trkpt lat="46.35053" lon="5.65854">
        <ele>617</ele>
        <time>2022-04-04T15:52:52Z</time>
      </trkpt>
      <trkpt lat="46.35043" lon="5.65866">
        <ele>617</ele>
        <time>2022-04-04T15:52:54Z</time>
      </trkpt>
      <trkpt lat="46.35036" lon="5.65869">
        <ele>617</ele>
        <time>2022-04-04T15:52:56Z</time>
      </trkpt>
      <trkpt lat="46.35026" lon="5.6587">
        <ele>617</ele>
        <time>2022-04-04T15:52:57Z</time>
      </trkpt>
      <trkpt lat="46.35012" lon="5.65864">
        <ele>615</ele>
        <time>2022-04-04T15:53:00Z</time>
      </trkpt>
      <trkpt lat="46.34983" lon="5.65837">
        <ele>612</ele>
        <time>2022-04-04T15:53:06Z</time>
      </trkpt>
      <trkpt lat="46.34974" lon="5.65835">
        <ele>611</ele>
        <time>2022-04-04T15:53:08Z</time>
      </trkpt>
      <trkpt lat="46.34941" lon="5.65843">
        <ele>613</ele>
        <time>2022-04-04T15:53:14Z</time>
      </trkpt>
      <trkpt lat="46.34924" lon="5.65838">
        <ele>612</ele>
        <time>2022-04-04T15:53:17Z</time>
      </trkpt>
      <trkpt lat="46.34914" lon="5.65824">
        <ele>610</ele>
        <time>2022-04-04T15:53:19Z</time>
      </trkpt>
      <trkpt lat="46.34871" lon="5.65748">
        <ele>603</ele>
        <time>2022-04-04T15:53:31Z</time>
      </trkpt>
      <trkpt lat="46.34851" lon="5.65728">
        <ele>602</ele>
        <time>2022-04-04T15:53:36Z</time>
      </trkpt>
      <trkpt lat="46.34814" lon="5.65727">
        <ele>603</ele>
        <time>2022-04-04T15:53:42Z</time>
      </trkpt>
      <trkpt lat="46.34794" lon="5.65708">
        <ele>600</ele>
        <time>2022-04-04T15:53:47Z</time>
      </trkpt>
      <trkpt lat="46.34766" lon="5.6567">
        <ele>593</ele>
        <time>2022-04-04T15:53:53Z</time>
      </trkpt>
      <trkpt lat="46.34758" lon="5.65653">
        <ele>592</ele>
        <time>2022-04-04T15:53:56Z</time>
      </trkpt>
      <trkpt lat="46.34759" lon="5.65627">
        <ele>590</ele>
        <time>2022-04-04T15:53:59Z</time>
      </trkpt>
      <trkpt lat="46.34771" lon="5.65599">
        <ele>587</ele>
        <time>2022-04-04T15:54:03Z</time>
      </trkpt>
      <trkpt lat="46.34773" lon="5.65575">
        <ele>587</ele>
        <time>2022-04-04T15:54:06Z</time>
      </trkpt>
      <trkpt lat="46.34755" lon="5.65552">
        <ele>587</ele>
        <time>2022-04-04T15:54:10Z</time>
      </trkpt>
      <trkpt lat="46.34726" lon="5.65527">
        <ele>585</ele>
        <time>2022-04-04T15:54:16Z</time>
      </trkpt>
      <trkpt lat="46.34691" lon="5.65508">
        <ele>581</ele>
        <time>2022-04-04T15:54:23Z</time>
      </trkpt>
      <trkpt lat="46.34669" lon="5.65503">
        <ele>579</ele>
        <time>2022-04-04T15:54:27Z</time>
      </trkpt>
      <trkpt lat="46.34621" lon="5.65477">
        <ele>577</ele>
        <time>2022-04-04T15:54:36Z</time>
      </trkpt>
      <trkpt lat="46.34601" lon="5.65455">
        <ele>573</ele>
        <time>2022-04-04T15:54:41Z</time>
      </trkpt>
      <trkpt lat="46.34577" lon="5.65417">
        <ele>566</ele>
        <time>2022-04-04T15:54:47Z</time>
      </trkpt>
      <trkpt lat="46.34547" lon="5.65348">
        <ele>563</ele>
        <time>2022-04-04T15:54:57Z</time>
      </trkpt>
      <trkpt lat="46.34523" lon="5.65317">
        <ele>560</ele>
        <time>2022-04-04T15:55:03Z</time>
      </trkpt>
      <trkpt lat="46.34488" lon="5.65278">
        <ele>545</ele>
        <time>2022-04-04T15:55:11Z</time>
      </trkpt>
      <trkpt lat="46.34471" lon="5.65266">
        <ele>535</ele>
        <time>2022-04-04T15:55:14Z</time>
      </trkpt>
      <trkpt lat="46.34461" lon="5.65266">
        <ele>532</ele>
        <time>2022-04-04T15:55:16Z</time>
      </trkpt>
      <trkpt lat="46.34411" lon="5.653">
        <ele>534</ele>
        <time>2022-04-04T15:55:26Z</time>
      </trkpt>
      <trkpt lat="46.34331" lon="5.65363">
        <ele>531</ele>
        <time>2022-04-04T15:55:42Z</time>
      </trkpt>
      <trkpt lat="46.34299" lon="5.65394">
        <ele>537</ele>
        <time>2022-04-04T15:55:49Z</time>
      </trkpt>
      <trkpt lat="46.34272" lon="5.65401">
        <ele>529</ele>
        <time>2022-04-04T15:55:53Z</time>
      </trkpt>
      <trkpt lat="46.34242" lon="5.65402">
        <ele>515</ele>
        <time>2022-04-04T15:55:59Z</time>
      </trkpt>
      <trkpt lat="46.34204" lon="5.65398">
        <ele>497</ele>
        <time>2022-04-04T15:56:06Z</time>
      </trkpt>
      <trkpt lat="46.34186" lon="5.65406">
        <ele>494</ele>
        <time>2022-04-04T15:56:09Z</time>
      </trkpt>
      <trkpt lat="46.34171" lon="5.65428">
        <ele>499</ele>
        <time>2022-04-04T15:56:13Z</time>
      </trkpt>
      <trkpt lat="46.34152" lon="5.65437">
        <ele>496</ele>
        <time>2022-04-04T15:56:16Z</time>
      </trkpt>
      <trkpt lat="46.34142" lon="5.65447">
        <ele>497</ele>
        <time>2022-04-04T15:56:18Z</time>
      </trkpt>
      <trkpt lat="46.34133" lon="5.65468">
        <ele>504</ele>
        <time>2022-04-04T15:56:21Z</time>
      </trkpt>
      <trkpt lat="46.3411" lon="5.65491">
        <ele>507</ele>
        <time>2022-04-04T15:56:26Z</time>
      </trkpt>
      <trkpt lat="46.34085" lon="5.65498">
        <ele>500</ele>
        <time>2022-04-04T15:56:31Z</time>
      </trkpt>
      <trkpt lat="46.3394" lon="5.6555">
        <ele>485</ele>
        <time>2022-04-04T15:56:58Z</time>
      </trkpt>
      <trkpt lat="46.33903" lon="5.65554">
        <ele>480</ele>
        <time>2022-04-04T15:57:04Z</time>
      </trkpt>
      <trkpt lat="46.33859" lon="5.65555">
        <ele>473</ele>
        <time>2022-04-04T15:57:12Z</time>
      </trkpt>
      <trkpt lat="46.33821" lon="5.6557">
        <ele>476</ele>
        <time>2022-04-04T15:57:19Z</time>
      </trkpt>
      <trkpt lat="46.33778" lon="5.6557">
        <ele>470</ele>
        <time>2022-04-04T15:57:27Z</time>
      </trkpt>
      <trkpt lat="46.33772" lon="5.65565">
        <ele>467</ele>
        <time>2022-04-04T15:57:28Z</time>
      </trkpt>
      <trkpt lat="46.33771" lon="5.65555">
        <ele>462</ele>
        <time>2022-04-04T15:57:29Z</time>
      </trkpt>
      <trkpt lat="46.33777" lon="5.65549">
        <ele>460</ele>
        <time>2022-04-04T15:57:30Z</time>
      </trkpt>
      <trkpt lat="46.33806" lon="5.65553">
        <ele>465</ele>
        <time>2022-04-04T15:57:36Z</time>
      </trkpt>
      <trkpt lat="46.33834" lon="5.65528">
        <ele>453</ele>
        <time>2022-04-04T15:57:41Z</time>
      </trkpt>
      <trkpt lat="46.33921" lon="5.6548">
        <ele>445</ele>
        <time>2022-04-04T15:57:58Z</time>
      </trkpt>
      <trkpt lat="46.33963" lon="5.65453">
        <ele>441</ele>
        <time>2022-04-04T15:58:06Z</time>
      </trkpt>
      <trkpt lat="46.34024" lon="5.654">
        <ele>429</ele>
        <time>2022-04-04T15:58:19Z</time>
      </trkpt>
      <trkpt lat="46.34072" lon="5.65365">
        <ele>425</ele>
        <time>2022-04-04T15:58:28Z</time>
      </trkpt>
      <trkpt lat="46.34176" lon="5.65256">
        <ele>405</ele>
        <time>2022-04-04T15:58:51Z</time>
      </trkpt>
      <trkpt lat="46.34235" lon="5.65212">
        <ele>400</ele>
        <time>2022-04-04T15:59:03Z</time>
      </trkpt>
      <trkpt lat="46.34292" lon="5.65177">
        <ele>398</ele>
        <time>2022-04-04T15:59:14Z</time>
      </trkpt>
      <trkpt lat="46.34318" lon="5.65173">
        <ele>404</ele>
        <time>2022-04-04T15:59:19Z</time>
      </trkpt>
      <trkpt lat="46.34331" lon="5.65167">
        <ele>404</ele>
        <time>2022-04-04T15:59:21Z</time>
      </trkpt>
      <trkpt lat="46.34349" lon="5.65154">
        <ele>413</ele>
        <time>2022-04-04T15:59:25Z</time>
      </trkpt>
      <trkpt lat="46.34358" lon="5.65145">
        <ele>417</ele>
        <time>2022-04-04T15:59:27Z</time>
      </trkpt>
      <trkpt lat="46.34363" lon="5.65138">
        <ele>418</ele>
        <time>2022-04-04T15:59:28Z</time>
      </trkpt>
      <trkpt lat="46.34365" lon="5.65128">
        <ele>415</ele>
        <time>2022-04-04T15:59:29Z</time>
      </trkpt>
      <trkpt lat="46.34363" lon="5.65101">
        <ele>401</ele>
        <time>2022-04-04T15:59:33Z</time>
      </trkpt>
      <trkpt lat="46.34368" lon="5.65066">
        <ele>391</ele>
        <time>2022-04-04T15:59:37Z</time>
      </trkpt>
      <trkpt lat="46.34375" lon="5.65028">
        <ele>383</ele>
        <time>2022-04-04T15:59:42Z</time>
      </trkpt>
      <trkpt lat="46.34388" lon="5.64976">
        <ele>373</ele>
        <time>2022-04-04T15:59:49Z</time>
      </trkpt>
      <trkpt lat="46.34411" lon="5.64923">
        <ele>367</ele>
        <time>2022-04-04T15:59:56Z</time>
      </trkpt>
      <trkpt lat="46.34423" lon="5.64877">
        <ele>359</ele>
        <time>2022-04-04T16:00:02Z</time>
      </trkpt>
      <trkpt lat="46.34448" lon="5.64816">
        <ele>354</ele>
        <time>2022-04-04T16:00:11Z</time>
      </trkpt>
      <trkpt lat="46.34463" lon="5.64773">
        <ele>348</ele>
        <time>2022-04-04T16:00:17Z</time>
      </trkpt>
      <trkpt lat="46.34513" lon="5.64648">
        <ele>336</ele>
        <time>2022-04-04T16:00:35Z</time>
      </trkpt>
      <trkpt lat="46.34544" lon="5.64583">
        <ele>334</ele>
        <time>2022-04-04T16:00:44Z</time>
      </trkpt>
      <trkpt lat="46.34549" lon="5.64561">
        <ele>333</ele>
        <time>2022-04-04T16:00:47Z</time>
      </trkpt>
      <trkpt lat="46.34549" lon="5.64537">
        <ele>331</ele>
        <time>2022-04-04T16:00:50Z</time>
      </trkpt>
      <trkpt lat="46.34555" lon="5.64526">
        <ele>331</ele>
        <time>2022-04-04T16:00:52Z</time>
      </trkpt>
      <trkpt lat="46.34568" lon="5.64475">
        <ele>329</ele>
        <time>2022-04-04T16:00:59Z</time>
      </trkpt>
      <trkpt lat="46.3459" lon="5.64413">
        <ele>329</ele>
        <time>2022-04-04T16:01:07Z</time>
      </trkpt>
      <trkpt lat="46.34607" lon="5.64379">
        <ele>331</ele>
        <time>2022-04-04T16:01:12Z</time>
      </trkpt>
      <trkpt lat="46.34635" lon="5.6434">
        <ele>334</ele>
        <time>2022-04-04T16:01:19Z</time>
      </trkpt>
      <trkpt lat="46.34642" lon="5.64319">
        <ele>333</ele>
        <time>2022-04-04T16:01:22Z</time>
      </trkpt>
      <trkpt lat="46.34651" lon="5.64282">
        <ele>333</ele>
        <time>2022-04-04T16:01:27Z</time>
      </trkpt>
      <trkpt lat="46.34659" lon="5.64233">
        <ele>332</ele>
        <time>2022-04-04T16:01:33Z</time>
      </trkpt>
      <trkpt lat="46.34663" lon="5.64202">
        <ele>332</ele>
        <time>2022-04-04T16:01:37Z</time>
      </trkpt>
      <trkpt lat="46.34655" lon="5.64197">
        <ele>330</ele>
        <time>2022-04-04T16:01:38Z</time>
      </trkpt>
      <trkpt lat="46.34649" lon="5.64188">
        <ele>329</ele>
        <time>2022-04-04T16:01:40Z</time>
      </trkpt>
      <trkpt lat="46.34645" lon="5.64177">
        <ele>328</ele>
        <time>2022-04-04T16:01:42Z</time>
      </trkpt>
      <trkpt lat="46.34644" lon="5.64153">
        <ele>328</ele>
        <time>2022-04-04T16:01:44Z</time>
      </trkpt>
      <trkpt lat="46.34638" lon="5.64147">
        <ele>328</ele>
        <time>2022-04-04T16:01:46Z</time>
      </trkpt>
      <trkpt lat="46.34644" lon="5.64081">
        <ele>331</ele>
        <time>2022-04-04T16:01:54Z</time>
      </trkpt>
      <trkpt lat="46.34643" lon="5.64065">
        <ele>334</ele>
        <time>2022-04-04T16:01:56Z</time>
      </trkpt>
      <trkpt lat="46.34641" lon="5.64057">
        <ele>336</ele>
        <time>2022-04-04T16:01:57Z</time>
      </trkpt>
      <trkpt lat="46.34635" lon="5.64052">
        <ele>337</ele>
        <time>2022-04-04T16:01:58Z</time>
      </trkpt>
      <trkpt lat="46.34626" lon="5.64048">
        <ele>338</ele>
        <time>2022-04-04T16:02:00Z</time>
      </trkpt>
      <trkpt lat="46.34591" lon="5.64052">
        <ele>336</ele>
        <time>2022-04-04T16:02:06Z</time>
      </trkpt>
      <trkpt lat="46.34562" lon="5.6405">
        <ele>337</ele>
        <time>2022-04-04T16:02:11Z</time>
      </trkpt>
      <trkpt lat="46.34492" lon="5.64052">
        <ele>335</ele>
        <time>2022-04-04T16:02:24Z</time>
      </trkpt>
      <trkpt lat="46.34475" lon="5.64045">
        <ele>333</ele>
        <time>2022-04-04T16:02:27Z</time>
      </trkpt>
      <trkpt lat="46.34458" lon="5.64032">
        <ele>332</ele>
        <time>2022-04-04T16:02:30Z</time>
      </trkpt>
      <trkpt lat="46.34408" lon="5.6397">
        <ele>328</ele>
        <time>2022-04-04T16:02:42Z</time>
      </trkpt>
      <trkpt lat="46.34386" lon="5.63939">
        <ele>325</ele>
        <time>2022-04-04T16:02:47Z</time>
      </trkpt>
      <trkpt lat="46.34371" lon="5.63908">
        <ele>323</ele>
        <time>2022-04-04T16:02:52Z</time>
      </trkpt>
      <trkpt lat="46.34358" lon="5.63868">
        <ele>324</ele>
        <time>2022-04-04T16:02:58Z</time>
      </trkpt>
      <trkpt lat="46.3435" lon="5.63836">
        <ele>323</ele>
        <time>2022-04-04T16:03:02Z</time>
      </trkpt>
      <trkpt lat="46.34349" lon="5.63805">
        <ele>325</ele>
        <time>2022-04-04T16:03:06Z</time>
      </trkpt>
      <trkpt lat="46.3435" lon="5.63736">
        <ele>329</ele>
        <time>2022-04-04T16:03:14Z</time>
      </trkpt>
      <trkpt lat="46.34345" lon="5.63681">
        <ele>322</ele>
        <time>2022-04-04T16:03:21Z</time>
      </trkpt>
      <trkpt lat="46.34346" lon="5.6367">
        <ele>322</ele>
        <time>2022-04-04T16:03:22Z</time>
      </trkpt>
      <trkpt lat="46.34357" lon="5.63626">
        <ele>326</ele>
        <time>2022-04-04T16:03:28Z</time>
      </trkpt>
      <trkpt lat="46.3436" lon="5.63567">
        <ele>322</ele>
        <time>2022-04-04T16:03:35Z</time>
      </trkpt>
      <trkpt lat="46.34364" lon="5.63546">
        <ele>322</ele>
        <time>2022-04-04T16:03:38Z</time>
      </trkpt>
      <trkpt lat="46.34377" lon="5.63495">
        <ele>320</ele>
        <time>2022-04-04T16:03:45Z</time>
      </trkpt>
      <trkpt lat="46.34387" lon="5.63439">
        <ele>319</ele>
        <time>2022-04-04T16:03:52Z</time>
      </trkpt>
      <trkpt lat="46.34397" lon="5.634">
        <ele>318</ele>
        <time>2022-04-04T16:03:57Z</time>
      </trkpt>
      <trkpt lat="46.34422" lon="5.63352">
        <ele>318</ele>
        <time>2022-04-04T16:04:04Z</time>
      </trkpt>
      <trkpt lat="46.34459" lon="5.63298">
        <ele>315</ele>
        <time>2022-04-04T16:04:14Z</time>
      </trkpt>
      <trkpt lat="46.3447" lon="5.63288">
        <ele>315</ele>
        <time>2022-04-04T16:04:16Z</time>
      </trkpt>
      <trkpt lat="46.34482" lon="5.6328">
        <ele>314</ele>
        <time>2022-04-04T16:04:18Z</time>
      </trkpt>
      <trkpt lat="46.34495" lon="5.63275">
        <ele>314</ele>
        <time>2022-04-04T16:04:21Z</time>
      </trkpt>
      <trkpt lat="46.34539" lon="5.6327">
        <ele>314</ele>
        <time>2022-04-04T16:04:28Z</time>
      </trkpt>
      <trkpt lat="46.3463" lon="5.63268">
        <ele>316</ele>
        <time>2022-04-04T16:04:45Z</time>
      </trkpt>
      <trkpt lat="46.3467" lon="5.63271">
        <ele>318</ele>
        <time>2022-04-04T16:04:52Z</time>
      </trkpt>
      <trkpt lat="46.34812" lon="5.63301">
        <ele>320</ele>
        <time>2022-04-04T16:05:17Z</time>
      </trkpt>
      <trkpt lat="46.34834" lon="5.63302">
        <ele>319</ele>
        <time>2022-04-04T16:05:21Z</time>
      </trkpt>
      <trkpt lat="46.34844" lon="5.633">
        <ele>319</ele>
        <time>2022-04-04T16:05:23Z</time>
      </trkpt>
      <trkpt lat="46.34852" lon="5.63295">
        <ele>318</ele>
        <time>2022-04-04T16:05:25Z</time>
      </trkpt>
      <trkpt lat="46.34858" lon="5.63289">
        <ele>316</ele>
        <time>2022-04-04T16:05:26Z</time>
      </trkpt>
      <trkpt lat="46.34867" lon="5.63275">
        <ele>313</ele>
        <time>2022-04-04T16:05:28Z</time>
      </trkpt>
      <trkpt lat="46.34921" lon="5.63196">
        <ele>306</ele>
        <time>2022-04-04T16:05:42Z</time>
      </trkpt>
      <trkpt lat="46.34933" lon="5.63177">
        <ele>308</ele>
        <time>2022-04-04T16:05:45Z</time>
      </trkpt>
      <trkpt lat="46.34933" lon="5.6316">
        <ele>310</ele>
        <time>2022-04-04T16:05:47Z</time>
      </trkpt>
      <trkpt lat="46.34931" lon="5.63141">
        <ele>313</ele>
        <time>2022-04-04T16:05:49Z</time>
      </trkpt>
      <trkpt lat="46.34928" lon="5.63133">
        <ele>314</ele>
        <time>2022-04-04T16:05:51Z</time>
      </trkpt>
      <trkpt lat="46.34918" lon="5.63116">
        <ele>317</ele>
        <time>2022-04-04T16:05:53Z</time>
      </trkpt>
      <trkpt lat="46.34852" lon="5.6309">
        <ele>318</ele>
        <time>2022-04-04T16:06:05Z</time>
      </trkpt>
      <trkpt lat="46.34802" lon="5.63076">
        <ele>321</ele>
        <time>2022-04-04T16:06:15Z</time>
      </trkpt>
      <trkpt lat="46.34774" lon="5.63072">
        <ele>323</ele>
        <time>2022-04-04T16:06:20Z</time>
      </trkpt>
      <trkpt lat="46.34708" lon="5.63059">
        <ele>329</ele>
        <time>2022-04-04T16:06:31Z</time>
      </trkpt>
      <trkpt lat="46.34639" lon="5.63048">
        <ele>327</ele>
        <time>2022-04-04T16:06:44Z</time>
      </trkpt>
      <trkpt lat="46.34627" lon="5.63044">
        <ele>327</ele>
        <time>2022-04-04T16:06:46Z</time>
      </trkpt>
      <trkpt lat="46.34616" lon="5.63038">
        <ele>327</ele>
        <time>2022-04-04T16:06:48Z</time>
      </trkpt>
      <trkpt lat="46.34589" lon="5.63016">
        <ele>329</ele>
        <time>2022-04-04T16:06:54Z</time>
      </trkpt>
      <trkpt lat="46.34568" lon="5.6299">
        <ele>334</ele>
        <time>2022-04-04T16:06:58Z</time>
      </trkpt>
      <trkpt lat="46.34536" lon="5.62937">
        <ele>343</ele>
        <time>2022-04-04T16:07:07Z</time>
      </trkpt>
      <trkpt lat="46.34507" lon="5.62893">
        <ele>343</ele>
        <time>2022-04-04T16:07:15Z</time>
      </trkpt>
      <trkpt lat="46.34477" lon="5.62844">
        <ele>345</ele>
        <time>2022-04-04T16:07:23Z</time>
      </trkpt>
      <trkpt lat="46.34459" lon="5.62822">
        <ele>344</ele>
        <time>2022-04-04T16:07:27Z</time>
      </trkpt>
      <trkpt lat="46.34448" lon="5.62805">
        <ele>344</ele>
        <time>2022-04-04T16:07:30Z</time>
      </trkpt>
      <trkpt lat="46.34459" lon="5.62804">
        <ele>349</ele>
        <time>2022-04-04T16:07:32Z</time>
      </trkpt>
      <trkpt lat="46.34466" lon="5.62807">
        <ele>351</ele>
        <time>2022-04-04T16:07:33Z</time>
      </trkpt>
      <trkpt lat="46.34527" lon="5.62898">
        <ele>353</ele>
        <time>2022-04-04T16:07:49Z</time>
      </trkpt>
      <trkpt lat="46.34571" lon="5.62955">
        <ele>352</ele>
        <time>2022-04-04T16:07:59Z</time>
      </trkpt>
      <trkpt lat="46.34601" lon="5.62981">
        <ele>349</ele>
        <time>2022-04-04T16:08:05Z</time>
      </trkpt>
      <trkpt lat="46.34639" lon="5.63005">
        <ele>342</ele>
        <time>2022-04-04T16:08:13Z</time>
      </trkpt>
      <trkpt lat="46.34693" lon="5.63007">
        <ele>352</ele>
        <time>2022-04-04T16:08:22Z</time>
      </trkpt>
      <trkpt lat="46.34721" lon="5.63013">
        <ele>354</ele>
        <time>2022-04-04T16:08:27Z</time>
      </trkpt>
      <trkpt lat="46.34747" lon="5.63016">
        <ele>357</ele>
        <time>2022-04-04T16:08:32Z</time>
      </trkpt>
      <trkpt lat="46.34772" lon="5.63012">
        <ele>360</ele>
        <time>2022-04-04T16:08:36Z</time>
      </trkpt>
      <trkpt lat="46.348" lon="5.63004">
        <ele>366</ele>
        <time>2022-04-04T16:08:41Z</time>
      </trkpt>
      <trkpt lat="46.3481" lon="5.63003">
        <ele>366</ele>
        <time>2022-04-04T16:08:43Z</time>
      </trkpt>
      <trkpt lat="46.34844" lon="5.63006">
        <ele>367</ele>
        <time>2022-04-04T16:08:49Z</time>
      </trkpt>
      <trkpt lat="46.34885" lon="5.63002">
        <ele>379</ele>
        <time>2022-04-04T16:08:57Z</time>
      </trkpt>
      <trkpt lat="46.34903" lon="5.63003">
        <ele>382</ele>
        <time>2022-04-04T16:09:00Z</time>
      </trkpt>
      <trkpt lat="46.34999" lon="5.63027">
        <ele>382</ele>
        <time>2022-04-04T16:09:17Z</time>
      </trkpt>
      <trkpt lat="46.3513" lon="5.63076">
        <ele>374</ele>
        <time>2022-04-04T16:09:41Z</time>
      </trkpt>
      <trkpt lat="46.352" lon="5.63107">
        <ele>368</ele>
        <time>2022-04-04T16:09:54Z</time>
      </trkpt>
      <trkpt lat="46.35219" lon="5.6311">
        <ele>366</ele>
        <time>2022-04-04T16:09:58Z</time>
      </trkpt>
      <trkpt lat="46.35237" lon="5.63106">
        <ele>366</ele>
        <time>2022-04-04T16:10:01Z</time>
      </trkpt>
      <trkpt lat="46.35244" lon="5.63102">
        <ele>367</ele>
        <time>2022-04-04T16:10:02Z</time>
      </trkpt>
      <trkpt lat="46.35255" lon="5.63088">
        <ele>371</ele>
        <time>2022-04-04T16:10:05Z</time>
      </trkpt>
      <trkpt lat="46.3526" lon="5.63078">
        <ele>374</ele>
        <time>2022-04-04T16:10:06Z</time>
      </trkpt>
      <trkpt lat="46.35266" lon="5.63043">
        <ele>383</ele>
        <time>2022-04-04T16:10:11Z</time>
      </trkpt>
      <trkpt lat="46.35268" lon="5.63011">
        <ele>391</ele>
        <time>2022-04-04T16:10:15Z</time>
      </trkpt>
      <trkpt lat="46.35279" lon="5.62929">
        <ele>400</ele>
        <time>2022-04-04T16:10:25Z</time>
      </trkpt>
      <trkpt lat="46.3528" lon="5.62904">
        <ele>402</ele>
        <time>2022-04-04T16:10:28Z</time>
      </trkpt>
      <trkpt lat="46.35278" lon="5.62841">
        <ele>405</ele>
        <time>2022-04-04T16:10:36Z</time>
      </trkpt>
      <trkpt lat="46.35273" lon="5.6279">
        <ele>410</ele>
        <time>2022-04-04T16:10:42Z</time>
      </trkpt>
      <trkpt lat="46.35277" lon="5.62712">
        <ele>416</ele>
        <time>2022-04-04T16:10:52Z</time>
      </trkpt>
      <trkpt lat="46.35284" lon="5.62668">
        <ele>419</ele>
        <time>2022-04-04T16:10:57Z</time>
      </trkpt>
      <trkpt lat="46.35284" lon="5.62653">
        <ele>421</ele>
        <time>2022-04-04T16:10:59Z</time>
      </trkpt>
      <trkpt lat="46.35278" lon="5.62649">
        <ele>424</ele>
        <time>2022-04-04T16:11:00Z</time>
      </trkpt>
      <trkpt lat="46.35274" lon="5.62653">
        <ele>425</ele>
        <time>2022-04-04T16:11:01Z</time>
      </trkpt>
      <trkpt lat="46.35269" lon="5.62692">
        <ele>422</ele>
        <time>2022-04-04T16:11:06Z</time>
      </trkpt>
      <trkpt lat="46.35252" lon="5.62767">
        <ele>420</ele>
        <time>2022-04-04T16:11:16Z</time>
      </trkpt>
      <trkpt lat="46.35246" lon="5.62822">
        <ele>418</ele>
        <time>2022-04-04T16:11:23Z</time>
      </trkpt>
      <trkpt lat="46.35243" lon="5.62908">
        <ele>415</ele>
        <time>2022-04-04T16:11:33Z</time>
      </trkpt>
      <trkpt lat="46.35233" lon="5.62945">
        <ele>413</ele>
        <time>2022-04-04T16:11:38Z</time>
      </trkpt>
      <trkpt lat="46.35228" lon="5.62955">
        <ele>412</ele>
        <time>2022-04-04T16:11:40Z</time>
      </trkpt>
      <trkpt lat="46.35222" lon="5.62962">
        <ele>412</ele>
        <time>2022-04-04T16:11:41Z</time>
      </trkpt>
      <trkpt lat="46.35195" lon="5.62979">
        <ele>415</ele>
        <time>2022-04-04T16:11:46Z</time>
      </trkpt>
      <trkpt lat="46.35188" lon="5.62979">
        <ele>416</ele>
        <time>2022-04-04T16:11:47Z</time>
      </trkpt>
      <trkpt lat="46.35184" lon="5.62975">
        <ele>418</ele>
        <time>2022-04-04T16:11:48Z</time>
      </trkpt>
      <trkpt lat="46.35183" lon="5.62968">
        <ele>420</ele>
        <time>2022-04-04T16:11:49Z</time>
      </trkpt>
      <trkpt lat="46.35209" lon="5.62929">
        <ele>422</ele>
        <time>2022-04-04T16:11:56Z</time>
      </trkpt>
      <trkpt lat="46.3522" lon="5.62905">
        <ele>422</ele>
        <time>2022-04-04T16:11:59Z</time>
      </trkpt>
      <trkpt lat="46.35223" lon="5.62891">
        <ele>422</ele>
        <time>2022-04-04T16:12:01Z</time>
      </trkpt>
      <trkpt lat="46.35221" lon="5.62883">
        <ele>424</ele>
        <time>2022-04-04T16:12:02Z</time>
      </trkpt>
      <trkpt lat="46.35215" lon="5.62876">
        <ele>426</ele>
        <time>2022-04-04T16:12:04Z</time>
      </trkpt>
      <trkpt lat="46.35211" lon="5.62876">
        <ele>428</ele>
        <time>2022-04-04T16:12:04Z</time>
      </trkpt>
      <trkpt lat="46.35152" lon="5.62888">
        <ele>443</ele>
        <time>2022-04-04T16:12:15Z</time>
      </trkpt>
      <trkpt lat="46.35121" lon="5.62917">
        <ele>442</ele>
        <time>2022-04-04T16:12:21Z</time>
      </trkpt>
      <trkpt lat="46.35109" lon="5.62925">
        <ele>441</ele>
        <time>2022-04-04T16:12:24Z</time>
      </trkpt>
      <trkpt lat="46.35101" lon="5.62928">
        <ele>441</ele>
        <time>2022-04-04T16:12:25Z</time>
      </trkpt>
      <trkpt lat="46.35088" lon="5.62928">
        <ele>442</ele>
        <time>2022-04-04T16:12:28Z</time>
      </trkpt>
      <trkpt lat="46.35083" lon="5.62925">
        <ele>444</ele>
        <time>2022-04-04T16:12:29Z</time>
      </trkpt>
      <trkpt lat="46.35078" lon="5.6292">
        <ele>446</ele>
        <time>2022-04-04T16:12:30Z</time>
      </trkpt>
      <trkpt lat="46.35077" lon="5.62916">
        <ele>448</ele>
        <time>2022-04-04T16:12:30Z</time>
      </trkpt>
      <trkpt lat="46.35077" lon="5.62905">
        <ele>449</ele>
        <time>2022-04-04T16:12:31Z</time>
      </trkpt>
      <trkpt lat="46.35079" lon="5.62898">
        <ele>450</ele>
        <time>2022-04-04T16:12:32Z</time>
      </trkpt>
      <trkpt lat="46.35098" lon="5.62873">
        <ele>451</ele>
        <time>2022-04-04T16:12:37Z</time>
      </trkpt>
      <trkpt lat="46.35135" lon="5.62783">
        <ele>458</ele>
        <time>2022-04-04T16:12:50Z</time>
      </trkpt>
      <trkpt lat="46.35145" lon="5.62762">
        <ele>459</ele>
        <time>2022-04-04T16:12:53Z</time>
      </trkpt>
      <trkpt lat="46.35159" lon="5.62739">
        <ele>460</ele>
        <time>2022-04-04T16:12:57Z</time>
      </trkpt>
      <trkpt lat="46.35164" lon="5.62725">
        <ele>460</ele>
        <time>2022-04-04T16:12:59Z</time>
      </trkpt>
      <trkpt lat="46.35162" lon="5.62714">
        <ele>462</ele>
        <time>2022-04-04T16:13:00Z</time>
      </trkpt>
      <trkpt lat="46.35154" lon="5.62709">
        <ele>463</ele>
        <time>2022-04-04T16:13:02Z</time>
      </trkpt>
      <trkpt lat="46.35122" lon="5.62724">
        <ele>466</ele>
        <time>2022-04-04T16:13:08Z</time>
      </trkpt>
      <trkpt lat="46.35111" lon="5.62725">
        <ele>467</ele>
        <time>2022-04-04T16:13:10Z</time>
      </trkpt>
      <trkpt lat="46.35105" lon="5.6272">
        <ele>469</ele>
        <time>2022-04-04T16:13:11Z</time>
      </trkpt>
      <trkpt lat="46.35103" lon="5.62711">
        <ele>470</ele>
        <time>2022-04-04T16:13:12Z</time>
      </trkpt>
      <trkpt lat="46.35104" lon="5.62706">
        <ele>470</ele>
        <time>2022-04-04T16:13:13Z</time>
      </trkpt>
      <trkpt lat="46.35127" lon="5.62673">
        <ele>470</ele>
        <time>2022-04-04T16:13:18Z</time>
      </trkpt>
      <trkpt lat="46.35198" lon="5.6256">
        <ele>469</ele>
        <time>2022-04-04T16:13:37Z</time>
      </trkpt>
      <trkpt lat="46.35203" lon="5.6255">
        <ele>469</ele>
        <time>2022-04-04T16:13:39Z</time>
      </trkpt>
      <trkpt lat="46.35207" lon="5.62538">
        <ele>469</ele>
        <time>2022-04-04T16:13:40Z</time>
      </trkpt>
      <trkpt lat="46.35209" lon="5.62516">
        <ele>471</ele>
        <time>2022-04-04T16:13:43Z</time>
      </trkpt>
      <trkpt lat="46.352" lon="5.62416">
        <ele>482</ele>
        <time>2022-04-04T16:13:55Z</time>
      </trkpt>
      <trkpt lat="46.3519" lon="5.62375">
        <ele>489</ele>
        <time>2022-04-04T16:14:01Z</time>
      </trkpt>
      <trkpt lat="46.35187" lon="5.62353">
        <ele>492</ele>
        <time>2022-04-04T16:14:03Z</time>
      </trkpt>
      <trkpt lat="46.35186" lon="5.62325">
        <ele>494</ele>
        <time>2022-04-04T16:14:07Z</time>
      </trkpt>
      <trkpt lat="46.35189" lon="5.62295">
        <ele>492</ele>
        <time>2022-04-04T16:14:11Z</time>
      </trkpt>
      <trkpt lat="46.35179" lon="5.62212">
        <ele>503</ele>
        <time>2022-04-04T16:14:21Z</time>
      </trkpt>
      <trkpt lat="46.3518" lon="5.622">
        <ele>503</ele>
        <time>2022-04-04T16:14:22Z</time>
      </trkpt>
      <trkpt lat="46.35189" lon="5.62161">
        <ele>500</ele>
        <time>2022-04-04T16:14:28Z</time>
      </trkpt>
      <trkpt lat="46.3519" lon="5.62145">
        <ele>499</ele>
        <time>2022-04-04T16:14:30Z</time>
      </trkpt>
      <trkpt lat="46.35191" lon="5.62087">
        <ele>499</ele>
        <time>2022-04-04T16:14:37Z</time>
      </trkpt>
      <trkpt lat="46.35189" lon="5.62075">
        <ele>499</ele>
        <time>2022-04-04T16:14:38Z</time>
      </trkpt>
      <trkpt lat="46.35186" lon="5.62064">
        <ele>501</ele>
        <time>2022-04-04T16:14:40Z</time>
      </trkpt>
      <trkpt lat="46.35177" lon="5.6205">
        <ele>505</ele>
        <time>2022-04-04T16:14:42Z</time>
      </trkpt>
      <trkpt lat="46.35118" lon="5.61973">
        <ele>517</ele>
        <time>2022-04-04T16:14:56Z</time>
      </trkpt>
      <trkpt lat="46.3511" lon="5.6196">
        <ele>518</ele>
        <time>2022-04-04T16:14:58Z</time>
      </trkpt>
      <trkpt lat="46.35104" lon="5.61946">
        <ele>519</ele>
        <time>2022-04-04T16:15:00Z</time>
      </trkpt>
      <trkpt lat="46.35099" lon="5.61923">
        <ele>519</ele>
        <time>2022-04-04T16:15:03Z</time>
      </trkpt>
      <trkpt lat="46.35102" lon="5.61894">
        <ele>519</ele>
        <time>2022-04-04T16:15:07Z</time>
      </trkpt>
      <trkpt lat="46.35111" lon="5.61862">
        <ele>520</ele>
        <time>2022-04-04T16:15:11Z</time>
      </trkpt>
      <trkpt lat="46.35129" lon="5.61778">
        <ele>521</ele>
        <time>2022-04-04T16:15:22Z</time>
      </trkpt>
      <trkpt lat="46.35144" lon="5.61697">
        <ele>521</ele>
        <time>2022-04-04T16:15:32Z</time>
      </trkpt>
      <trkpt lat="46.35149" lon="5.61678">
        <ele>522</ele>
        <time>2022-04-04T16:15:35Z</time>
      </trkpt>
      <trkpt lat="46.35164" lon="5.61647">
        <ele>522</ele>
        <time>2022-04-04T16:15:39Z</time>
      </trkpt>
      <trkpt lat="46.35204" lon="5.61587">
        <ele>524</ele>
        <time>2022-04-04T16:15:50Z</time>
      </trkpt>
      <trkpt lat="46.35224" lon="5.61533">
        <ele>526</ele>
        <time>2022-04-04T16:15:57Z</time>
      </trkpt>
      <trkpt lat="46.35242" lon="5.61496">
        <ele>526</ele>
        <time>2022-04-04T16:16:03Z</time>
      </trkpt>
      <trkpt lat="46.35252" lon="5.61468">
        <ele>527</ele>
        <time>2022-04-04T16:16:07Z</time>
      </trkpt>
      <trkpt lat="46.35271" lon="5.6139">
        <ele>530</ele>
        <time>2022-04-04T16:16:17Z</time>
      </trkpt>
      <trkpt lat="46.35284" lon="5.61345">
        <ele>532</ele>
        <time>2022-04-04T16:16:23Z</time>
      </trkpt>
      <trkpt lat="46.35292" lon="5.61327">
        <ele>533</ele>
        <time>2022-04-04T16:16:25Z</time>
      </trkpt>
      <trkpt lat="46.3531" lon="5.61306">
        <ele>534</ele>
        <time>2022-04-04T16:16:29Z</time>
      </trkpt>
      <trkpt lat="46.3532" lon="5.61303">
        <ele>535</ele>
        <time>2022-04-04T16:16:31Z</time>
      </trkpt>
      <trkpt lat="46.35362" lon="5.61298">
        <ele>536</ele>
        <time>2022-04-04T16:16:39Z</time>
      </trkpt>
      <trkpt lat="46.35384" lon="5.61292">
        <ele>537</ele>
        <time>2022-04-04T16:16:43Z</time>
      </trkpt>
      <trkpt lat="46.35409" lon="5.61279">
        <ele>538</ele>
        <time>2022-04-04T16:16:47Z</time>
      </trkpt>
      <trkpt lat="46.35423" lon="5.61269">
        <ele>538</ele>
        <time>2022-04-04T16:16:50Z</time>
      </trkpt>
      <trkpt lat="46.35442" lon="5.61262">
        <ele>539</ele>
        <time>2022-04-04T16:16:54Z</time>
      </trkpt>
      <trkpt lat="46.35451" lon="5.61262">
        <ele>540</ele>
        <time>2022-04-04T16:16:55Z</time>
      </trkpt>
      <trkpt lat="46.35514" lon="5.61276">
        <ele>540</ele>
        <time>2022-04-04T16:17:07Z</time>
      </trkpt>
      <trkpt lat="46.35669" lon="5.61329">
        <ele>537</ele>
        <time>2022-04-04T16:17:35Z</time>
      </trkpt>
      <trkpt lat="46.35716" lon="5.6134">
        <ele>539</ele>
        <time>2022-04-04T16:17:43Z</time>
      </trkpt>
      <trkpt lat="46.35745" lon="5.61344">
        <ele>540</ele>
        <time>2022-04-04T16:17:49Z</time>
      </trkpt>
      <trkpt lat="46.35751" lon="5.61346">
        <ele>540</ele>
        <time>2022-04-04T16:17:50Z</time>
      </trkpt>
      <trkpt lat="46.35772" lon="5.61361">
        <ele>540</ele>
        <time>2022-04-04T16:17:54Z</time>
      </trkpt>
      <trkpt lat="46.35788" lon="5.61378">
        <ele>541</ele>
        <time>2022-04-04T16:17:57Z</time>
      </trkpt>
      <trkpt lat="46.358" lon="5.61385">
        <ele>541</ele>
        <time>2022-04-04T16:18:00Z</time>
      </trkpt>
      <trkpt lat="46.35863" lon="5.61409">
        <ele>544</ele>
        <time>2022-04-04T16:18:11Z</time>
      </trkpt>
      <trkpt lat="46.35894" lon="5.61414">
        <ele>544</ele>
        <time>2022-04-04T16:18:17Z</time>
      </trkpt>
      <trkpt lat="46.35917" lon="5.61411">
        <ele>545</ele>
        <time>2022-04-04T16:18:21Z</time>
      </trkpt>
      <trkpt lat="46.35941" lon="5.61396">
        <ele>544</ele>
        <time>2022-04-04T16:18:26Z</time>
      </trkpt>
      <trkpt lat="46.35958" lon="5.61381">
        <ele>544</ele>
        <time>2022-04-04T16:18:29Z</time>
      </trkpt>
      <trkpt lat="46.35995" lon="5.61371">
        <ele>544</ele>
        <time>2022-04-04T16:18:36Z</time>
      </trkpt>
      <trkpt lat="46.36001" lon="5.61366">
        <ele>544</ele>
        <time>2022-04-04T16:18:37Z</time>
      </trkpt>
      <trkpt lat="46.36004" lon="5.6136">
        <ele>545</ele>
        <time>2022-04-04T16:18:38Z</time>
      </trkpt>
      <trkpt lat="46.36024" lon="5.61288">
        <ele>549</ele>
        <time>2022-04-04T16:18:48Z</time>
      </trkpt>
      <trkpt lat="46.36037" lon="5.61232">
        <ele>551</ele>
        <time>2022-04-04T16:18:55Z</time>
      </trkpt>
      <trkpt lat="46.36057" lon="5.61191">
        <ele>554</ele>
        <time>2022-04-04T16:19:01Z</time>
      </trkpt>
      <trkpt lat="46.3608" lon="5.61156">
        <ele>555</ele>
        <time>2022-04-04T16:19:07Z</time>
      </trkpt>
      <trkpt lat="46.361" lon="5.61144">
        <ele>557</ele>
        <time>2022-04-04T16:19:11Z</time>
      </trkpt>
      <trkpt lat="46.36115" lon="5.61138">
        <ele>558</ele>
        <time>2022-04-04T16:19:13Z</time>
      </trkpt>
      <trkpt lat="46.36138" lon="5.61136">
        <ele>559</ele>
        <time>2022-04-04T16:19:18Z</time>
      </trkpt>
      <trkpt lat="46.36177" lon="5.6114">
        <ele>561</ele>
        <time>2022-04-04T16:19:25Z</time>
      </trkpt>
      <trkpt lat="46.36192" lon="5.61144">
        <ele>562</ele>
        <time>2022-04-04T16:19:27Z</time>
      </trkpt>
      <trkpt lat="46.36208" lon="5.61144">
        <ele>563</ele>
        <time>2022-04-04T16:19:30Z</time>
      </trkpt>
      <trkpt lat="46.36224" lon="5.61139">
        <ele>564</ele>
        <time>2022-04-04T16:19:33Z</time>
      </trkpt>
      <trkpt lat="46.36293" lon="5.61108">
        <ele>569</ele>
        <time>2022-04-04T16:19:46Z</time>
      </trkpt>
      <trkpt lat="46.36309" lon="5.61093">
        <ele>571</ele>
        <time>2022-04-04T16:19:49Z</time>
      </trkpt>
      <trkpt lat="46.36322" lon="5.61075">
        <ele>572</ele>
        <time>2022-04-04T16:19:52Z</time>
      </trkpt>
      <trkpt lat="46.36346" lon="5.61028">
        <ele>575</ele>
        <time>2022-04-04T16:20:00Z</time>
      </trkpt>
      <trkpt lat="46.36355" lon="5.61019">
        <ele>576</ele>
        <time>2022-04-04T16:20:02Z</time>
      </trkpt>
      <trkpt lat="46.36366" lon="5.61013">
        <ele>576</ele>
        <time>2022-04-04T16:20:04Z</time>
      </trkpt>
      <trkpt lat="46.36378" lon="5.61012">
        <ele>577</ele>
        <time>2022-04-04T16:20:06Z</time>
      </trkpt>
      <trkpt lat="46.36472" lon="5.61016">
        <ele>578</ele>
        <time>2022-04-04T16:20:23Z</time>
      </trkpt>
      <trkpt lat="46.36559" lon="5.61017">
        <ele>578</ele>
        <time>2022-04-04T16:20:38Z</time>
      </trkpt>
      <trkpt lat="46.36647" lon="5.61016">
        <ele>579</ele>
        <time>2022-04-04T16:20:54Z</time>
      </trkpt>
      <trkpt lat="46.36662" lon="5.61021">
        <ele>579</ele>
        <time>2022-04-04T16:20:56Z</time>
      </trkpt>
      <trkpt lat="46.36693" lon="5.61037">
        <ele>578</ele>
        <time>2022-04-04T16:21:02Z</time>
      </trkpt>
      <trkpt lat="46.36721" lon="5.61048">
        <ele>577</ele>
        <time>2022-04-04T16:21:07Z</time>
      </trkpt>
      <trkpt lat="46.36746" lon="5.61054">
        <ele>577</ele>
        <time>2022-04-04T16:21:12Z</time>
      </trkpt>
      <trkpt lat="46.36768" lon="5.61057">
        <ele>577</ele>
        <time>2022-04-04T16:21:16Z</time>
      </trkpt>
      <trkpt lat="46.36863" lon="5.61063">
        <ele>578</ele>
        <time>2022-04-04T16:21:33Z</time>
      </trkpt>
      <trkpt lat="46.36881" lon="5.61066">
        <ele>578</ele>
        <time>2022-04-04T16:21:36Z</time>
      </trkpt>
      <trkpt lat="46.36926" lon="5.61081">
        <ele>579</ele>
        <time>2022-04-04T16:21:44Z</time>
      </trkpt>
      <trkpt lat="46.36949" lon="5.61084">
        <ele>579</ele>
        <time>2022-04-04T16:21:48Z</time>
      </trkpt>
      <trkpt lat="46.37011" lon="5.61095">
        <ele>580</ele>
        <time>2022-04-04T16:21:59Z</time>
      </trkpt>
      <trkpt lat="46.3711" lon="5.61123">
        <ele>581</ele>
        <time>2022-04-04T16:22:17Z</time>
      </trkpt>
      <trkpt lat="46.37151" lon="5.61139">
        <ele>581</ele>
        <time>2022-04-04T16:22:25Z</time>
      </trkpt>
      <trkpt lat="46.37179" lon="5.61159">
        <ele>582</ele>
        <time>2022-04-04T16:22:31Z</time>
      </trkpt>
      <trkpt lat="46.37237" lon="5.61188">
        <ele>584</ele>
        <time>2022-04-04T16:22:41Z</time>
      </trkpt>
      <trkpt lat="46.37273" lon="5.61209">
        <ele>586</ele>
        <time>2022-04-04T16:22:48Z</time>
      </trkpt>
      <trkpt lat="46.37399" lon="5.61265">
        <ele>594</ele>
        <time>2022-04-04T16:23:12Z</time>
      </trkpt>
      <trkpt lat="46.37411" lon="5.61274">
        <ele>595</ele>
        <time>2022-04-04T16:23:14Z</time>
      </trkpt>
      <trkpt lat="46.3749" lon="5.6135">
        <ele>596</ele>
        <time>2022-04-04T16:23:31Z</time>
      </trkpt>
      <trkpt lat="46.37503" lon="5.61358">
        <ele>597</ele>
        <time>2022-04-04T16:23:34Z</time>
      </trkpt>
      <trkpt lat="46.37517" lon="5.61363">
        <ele>598</ele>
        <time>2022-04-04T16:23:36Z</time>
      </trkpt>
      <trkpt lat="46.37592" lon="5.61374">
        <ele>603</ele>
        <time>2022-04-04T16:23:50Z</time>
      </trkpt>
      <trkpt lat="46.37625" lon="5.6138">
        <ele>605</ele>
        <time>2022-04-04T16:23:55Z</time>
      </trkpt>
      <trkpt lat="46.37686" lon="5.61409">
        <ele>608</ele>
        <time>2022-04-04T16:24:07Z</time>
      </trkpt>
      <trkpt lat="46.37715" lon="5.61426">
        <ele>609</ele>
        <time>2022-04-04T16:24:12Z</time>
      </trkpt>
      <trkpt lat="46.3774" lon="5.61434">
        <ele>609</ele>
        <time>2022-04-04T16:24:17Z</time>
      </trkpt>
      <trkpt lat="46.37761" lon="5.61434">
        <ele>611</ele>
        <time>2022-04-04T16:24:21Z</time>
      </trkpt>
      <trkpt lat="46.37777" lon="5.61426">
        <ele>612</ele>
        <time>2022-04-04T16:24:24Z</time>
      </trkpt>
      <trkpt lat="46.37829" lon="5.61375">
        <ele>615</ele>
        <time>2022-04-04T16:24:35Z</time>
      </trkpt>
      <trkpt lat="46.37849" lon="5.6136">
        <ele>618</ele>
        <time>2022-04-04T16:24:39Z</time>
      </trkpt>
      <trkpt lat="46.37858" lon="5.61355">
        <ele>619</ele>
        <time>2022-04-04T16:24:41Z</time>
      </trkpt>
      <trkpt lat="46.37872" lon="5.61344">
        <ele>620</ele>
        <time>2022-04-04T16:24:44Z</time>
      </trkpt>
      <trkpt lat="46.37886" lon="5.61329">
        <ele>621</ele>
        <time>2022-04-04T16:24:47Z</time>
      </trkpt>
      <trkpt lat="46.37901" lon="5.61308">
        <ele>622</ele>
        <time>2022-04-04T16:24:50Z</time>
      </trkpt>
      <trkpt lat="46.37931" lon="5.61251">
        <ele>624</ele>
        <time>2022-04-04T16:24:59Z</time>
      </trkpt>
      <trkpt lat="46.37931" lon="5.61257">
        <ele>624</ele>
        <time>2022-04-04T16:25:00Z</time>
      </trkpt>
      <trkpt lat="46.37927" lon="5.61268">
        <ele>624</ele>
        <time>2022-04-04T16:25:01Z</time>
      </trkpt>
      <trkpt lat="46.37931" lon="5.61257">
        <ele>624</ele>
        <time>2022-04-04T16:25:03Z</time>
      </trkpt>
      <trkpt lat="46.37931" lon="5.61251">
        <ele>624</ele>
        <time>2022-04-04T16:25:04Z</time>
      </trkpt>
      <trkpt lat="46.37969" lon="5.61184">
        <ele>629</ele>
        <time>2022-04-04T16:25:14Z</time>
      </trkpt>
      <trkpt lat="46.37982" lon="5.61148">
        <ele>627</ele>
        <time>2022-04-04T16:25:19Z</time>
      </trkpt>
      <trkpt lat="46.37988" lon="5.61126">
        <ele>626</ele>
        <time>2022-04-04T16:25:22Z</time>
      </trkpt>
      <trkpt lat="46.37999" lon="5.61106">
        <ele>623</ele>
        <time>2022-04-04T16:25:25Z</time>
      </trkpt>
      <trkpt lat="46.38013" lon="5.61085">
        <ele>622</ele>
        <time>2022-04-04T16:25:29Z</time>
      </trkpt>
      <trkpt lat="46.38033" lon="5.61064">
        <ele>623</ele>
        <time>2022-04-04T16:25:33Z</time>
      </trkpt>
      <trkpt lat="46.38053" lon="5.61046">
        <ele>623</ele>
        <time>2022-04-04T16:25:37Z</time>
      </trkpt>
      <trkpt lat="46.38073" lon="5.61031">
        <ele>621</ele>
        <time>2022-04-04T16:25:41Z</time>
      </trkpt>
      <trkpt lat="46.3814" lon="5.61007">
        <ele>623</ele>
        <time>2022-04-04T16:25:54Z</time>
      </trkpt>
      <trkpt lat="46.38223" lon="5.61007">
        <ele>627</ele>
        <time>2022-04-04T16:26:09Z</time>
      </trkpt>
      <trkpt lat="46.38244" lon="5.61003">
        <ele>628</ele>
        <time>2022-04-04T16:26:12Z</time>
      </trkpt>
      <trkpt lat="46.38276" lon="5.60985">
        <ele>628</ele>
        <time>2022-04-04T16:26:18Z</time>
      </trkpt>
      <trkpt lat="46.38292" lon="5.60977">
        <ele>628</ele>
        <time>2022-04-04T16:26:21Z</time>
      </trkpt>
      <trkpt lat="46.38309" lon="5.60973">
        <ele>628</ele>
        <time>2022-04-04T16:26:24Z</time>
      </trkpt>
      <trkpt lat="46.38379" lon="5.60987">
        <ele>631</ele>
        <time>2022-04-04T16:26:37Z</time>
      </trkpt>
      <trkpt lat="46.38437" lon="5.60983">
        <ele>631</ele>
        <time>2022-04-04T16:26:47Z</time>
      </trkpt>
      <trkpt lat="46.38457" lon="5.60986">
        <ele>631</ele>
        <time>2022-04-04T16:26:51Z</time>
      </trkpt>
      <trkpt lat="46.38483" lon="5.60998">
        <ele>632</ele>
        <time>2022-04-04T16:26:56Z</time>
      </trkpt>
      <trkpt lat="46.38507" lon="5.61012">
        <ele>633</ele>
        <time>2022-04-04T16:27:00Z</time>
      </trkpt>
      <trkpt lat="46.38549" lon="5.6105">
        <ele>635</ele>
        <time>2022-04-04T16:27:09Z</time>
      </trkpt>
      <trkpt lat="46.38588" lon="5.61063">
        <ele>636</ele>
        <time>2022-04-04T16:27:16Z</time>
      </trkpt>
      <trkpt lat="46.38615" lon="5.61078">
        <ele>636</ele>
        <time>2022-04-04T16:27:22Z</time>
      </trkpt>
      <trkpt lat="46.38655" lon="5.61107">
        <ele>637</ele>
        <time>2022-04-04T16:27:29Z</time>
      </trkpt>
      <trkpt lat="46.38691" lon="5.61124">
        <ele>637</ele>
        <time>2022-04-04T16:27:36Z</time>
      </trkpt>
      <trkpt lat="46.38707" lon="5.61128">
        <ele>637</ele>
        <time>2022-04-04T16:27:39Z</time>
      </trkpt>
      <trkpt lat="46.38728" lon="5.61138">
        <ele>636</ele>
        <time>2022-04-04T16:27:43Z</time>
      </trkpt>
      <trkpt lat="46.38778" lon="5.61177">
        <ele>638</ele>
        <time>2022-04-04T16:27:53Z</time>
      </trkpt>
      <trkpt lat="46.38815" lon="5.6121">
        <ele>644</ele>
        <time>2022-04-04T16:28:01Z</time>
      </trkpt>
      <trkpt lat="46.38835" lon="5.61225">
        <ele>646</ele>
        <time>2022-04-04T16:28:05Z</time>
      </trkpt>
      <trkpt lat="46.38887" lon="5.61255">
        <ele>649</ele>
        <time>2022-04-04T16:28:15Z</time>
      </trkpt>
      <trkpt lat="46.38916" lon="5.61276">
        <ele>650</ele>
        <time>2022-04-04T16:28:21Z</time>
      </trkpt>
      <trkpt lat="46.3894" lon="5.61303">
        <ele>654</ele>
        <time>2022-04-04T16:28:26Z</time>
      </trkpt>
      <trkpt lat="46.39079" lon="5.61488">
        <ele>661</ele>
        <time>2022-04-04T16:29:00Z</time>
      </trkpt>
      <trkpt lat="46.39122" lon="5.61536">
        <ele>663</ele>
        <time>2022-04-04T16:29:09Z</time>
      </trkpt>
      <trkpt lat="46.39219" lon="5.61629">
        <ele>668</ele>
        <time>2022-04-04T16:29:30Z</time>
      </trkpt>
      <trkpt lat="46.39469" lon="5.6183">
        <ele>676</ele>
        <time>2022-04-04T16:30:21Z</time>
      </trkpt>
      <trkpt lat="46.39509" lon="5.61872">
        <ele>678</ele>
        <time>2022-04-04T16:30:30Z</time>
      </trkpt>
      <trkpt lat="46.39533" lon="5.61888">
        <ele>680</ele>
        <time>2022-04-04T16:30:34Z</time>
      </trkpt>
      <trkpt lat="46.39561" lon="5.61902">
        <ele>681</ele>
        <time>2022-04-04T16:30:40Z</time>
      </trkpt>
      <trkpt lat="46.39584" lon="5.61906">
        <ele>683</ele>
        <time>2022-04-04T16:30:44Z</time>
      </trkpt>
      <trkpt lat="46.39599" lon="5.61912">
        <ele>684</ele>
        <time>2022-04-04T16:30:46Z</time>
      </trkpt>
      <trkpt lat="46.39642" lon="5.61942">
        <ele>685</ele>
        <time>2022-04-04T16:30:55Z</time>
      </trkpt>
      <trkpt lat="46.3966" lon="5.61948">
        <ele>686</ele>
        <time>2022-04-04T16:30:58Z</time>
      </trkpt>
      <trkpt lat="46.39706" lon="5.61948">
        <ele>690</ele>
        <time>2022-04-04T16:31:06Z</time>
      </trkpt>
      <trkpt lat="46.39723" lon="5.61953">
        <ele>691</ele>
        <time>2022-04-04T16:31:09Z</time>
      </trkpt>
      <trkpt lat="46.39774" lon="5.61987">
        <ele>691</ele>
        <time>2022-04-04T16:31:19Z</time>
      </trkpt>
      <trkpt lat="46.39788" lon="5.61994">
        <ele>691</ele>
        <time>2022-04-04T16:31:22Z</time>
      </trkpt>
      <trkpt lat="46.39808" lon="5.61999">
        <ele>691</ele>
        <time>2022-04-04T16:31:26Z</time>
      </trkpt>
      <trkpt lat="46.39932" lon="5.62003">
        <ele>697</ele>
        <time>2022-04-04T16:31:48Z</time>
      </trkpt>
      <trkpt lat="46.39946" lon="5.62005">
        <ele>699</ele>
        <time>2022-04-04T16:31:50Z</time>
      </trkpt>
      <trkpt lat="46.39972" lon="5.62019">
        <ele>700</ele>
        <time>2022-04-04T16:31:55Z</time>
      </trkpt>
      <trkpt lat="46.3999" lon="5.62033">
        <ele>701</ele>
        <time>2022-04-04T16:31:59Z</time>
      </trkpt>
      <trkpt lat="46.40041" lon="5.62056">
        <ele>705</ele>
        <time>2022-04-04T16:32:08Z</time>
      </trkpt>
      <trkpt lat="46.40052" lon="5.62067">
        <ele>705</ele>
        <time>2022-04-04T16:32:11Z</time>
      </trkpt>
      <trkpt lat="46.40054" lon="5.62067">
        <ele>705</ele>
        <time>2022-04-04T16:32:11Z</time>
      </trkpt>
      <trkpt lat="46.40063" lon="5.6211">
        <ele>704</ele>
        <time>2022-04-04T16:32:17Z</time>
      </trkpt>
      <trkpt lat="46.40069" lon="5.6213">
        <ele>703</ele>
        <time>2022-04-04T16:32:19Z</time>
      </trkpt>
      <trkpt lat="46.40077" lon="5.62145">
        <ele>702</ele>
        <time>2022-04-04T16:32:22Z</time>
      </trkpt>
      <trkpt lat="46.40131" lon="5.62227">
        <ele>703</ele>
        <time>2022-04-04T16:32:36Z</time>
      </trkpt>
      <trkpt lat="46.40146" lon="5.62261">
        <ele>703</ele>
        <time>2022-04-04T16:32:40Z</time>
      </trkpt>
      <trkpt lat="46.40179" lon="5.6232">
        <ele>704</ele>
        <time>2022-04-04T16:32:50Z</time>
      </trkpt>
      <trkpt lat="46.40198" lon="5.62343">
        <ele>706</ele>
        <time>2022-04-04T16:32:54Z</time>
      </trkpt>
      <trkpt lat="46.40218" lon="5.62361">
        <ele>708</ele>
        <time>2022-04-04T16:32:58Z</time>
      </trkpt>
      <trkpt lat="46.40238" lon="5.62391">
        <ele>706</ele>
        <time>2022-04-04T16:33:03Z</time>
      </trkpt>
      <trkpt lat="46.40262" lon="5.62418">
        <ele>705</ele>
        <time>2022-04-04T16:33:09Z</time>
      </trkpt>
      <trkpt lat="46.40288" lon="5.62439">
        <ele>707</ele>
        <time>2022-04-04T16:33:14Z</time>
      </trkpt>
      <trkpt lat="46.40359" lon="5.62491">
        <ele>711</ele>
        <time>2022-04-04T16:33:28Z</time>
      </trkpt>
      <trkpt lat="46.40407" lon="5.62529">
        <ele>713</ele>
        <time>2022-04-04T16:33:38Z</time>
      </trkpt>
      <trkpt lat="46.40423" lon="5.62547">
        <ele>713</ele>
        <time>2022-04-04T16:33:42Z</time>
      </trkpt>
      <trkpt lat="46.40434" lon="5.6256">
        <ele>712</ele>
        <time>2022-04-04T16:33:44Z</time>
      </trkpt>
      <trkpt lat="46.40443" lon="5.62584">
        <ele>712</ele>
        <time>2022-04-04T16:33:48Z</time>
      </trkpt>
      <trkpt lat="46.40447" lon="5.6262">
        <ele>710</ele>
        <time>2022-04-04T16:33:52Z</time>
      </trkpt>
      <trkpt lat="46.40452" lon="5.62639">
        <ele>709</ele>
        <time>2022-04-04T16:33:55Z</time>
      </trkpt>
      <trkpt lat="46.4046" lon="5.62654">
        <ele>708</ele>
        <time>2022-04-04T16:33:57Z</time>
      </trkpt>
      <trkpt lat="46.40485" lon="5.62687">
        <ele>706</ele>
        <time>2022-04-04T16:34:03Z</time>
      </trkpt>
      <trkpt lat="46.40516" lon="5.62718">
        <ele>706</ele>
        <time>2022-04-04T16:34:10Z</time>
      </trkpt>
      <trkpt lat="46.40542" lon="5.62732">
        <ele>707</ele>
        <time>2022-04-04T16:34:14Z</time>
      </trkpt>
      <trkpt lat="46.40616" lon="5.62764">
        <ele>711</ele>
        <time>2022-04-04T16:34:28Z</time>
      </trkpt>
      <trkpt lat="46.40652" lon="5.62795">
        <ele>712</ele>
        <time>2022-04-04T16:34:36Z</time>
      </trkpt>
      <trkpt lat="46.40665" lon="5.62812">
        <ele>713</ele>
        <time>2022-04-04T16:34:39Z</time>
      </trkpt>
      <trkpt lat="46.4069" lon="5.62869">
        <ele>713</ele>
        <time>2022-04-04T16:34:47Z</time>
      </trkpt>
      <trkpt lat="46.40704" lon="5.62887">
        <ele>713</ele>
        <time>2022-04-04T16:34:50Z</time>
      </trkpt>
      <trkpt lat="46.4072" lon="5.62901">
        <ele>712</ele>
        <time>2022-04-04T16:34:54Z</time>
      </trkpt>
      <trkpt lat="46.4074" lon="5.6291">
        <ele>711</ele>
        <time>2022-04-04T16:34:57Z</time>
      </trkpt>
      <trkpt lat="46.40839" lon="5.62923">
        <ele>706</ele>
        <time>2022-04-04T16:35:15Z</time>
      </trkpt>
      <trkpt lat="46.40855" lon="5.62928">
        <ele>708</ele>
        <time>2022-04-04T16:35:18Z</time>
      </trkpt>
      <trkpt lat="46.40903" lon="5.62967">
        <ele>707</ele>
        <time>2022-04-04T16:35:28Z</time>
      </trkpt>
      <trkpt lat="46.40921" lon="5.62978">
        <ele>706</ele>
        <time>2022-04-04T16:35:31Z</time>
      </trkpt>
      <trkpt lat="46.40954" lon="5.62995">
        <ele>706</ele>
        <time>2022-04-04T16:35:38Z</time>
      </trkpt>
      <trkpt lat="46.40995" lon="5.63029">
        <ele>704</ele>
        <time>2022-04-04T16:35:46Z</time>
      </trkpt>
      <trkpt lat="46.41011" lon="5.63046">
        <ele>703</ele>
        <time>2022-04-04T16:35:49Z</time>
      </trkpt>
      <trkpt lat="46.41024" lon="5.63065">
        <ele>701</ele>
        <time>2022-04-04T16:35:53Z</time>
      </trkpt>
      <trkpt lat="46.41045" lon="5.63108">
        <ele>699</ele>
        <time>2022-04-04T16:35:59Z</time>
      </trkpt>
      <trkpt lat="46.41058" lon="5.63124">
        <ele>699</ele>
        <time>2022-04-04T16:36:02Z</time>
      </trkpt>
      <trkpt lat="46.41075" lon="5.63136">
        <ele>699</ele>
        <time>2022-04-04T16:36:06Z</time>
      </trkpt>
      <trkpt lat="46.41482" lon="5.63354">
        <ele>698</ele>
        <time>2022-04-04T16:37:23Z</time>
      </trkpt>
      <trkpt lat="46.41543" lon="5.63378">
        <ele>698</ele>
        <time>2022-04-04T16:37:34Z</time>
      </trkpt>
      <trkpt lat="46.4165" lon="5.63433">
        <ele>697</ele>
        <time>2022-04-04T16:37:54Z</time>
      </trkpt>
      <trkpt lat="46.41662" lon="5.63451">
        <ele>697</ele>
        <time>2022-04-04T16:37:57Z</time>
      </trkpt>
      <trkpt lat="46.41682" lon="5.63455">
        <ele>697</ele>
        <time>2022-04-04T16:38:01Z</time>
      </trkpt>
      <trkpt lat="46.41817" lon="5.6346">
        <ele>701</ele>
        <time>2022-04-04T16:38:25Z</time>
      </trkpt>
      <trkpt lat="46.41865" lon="5.63463">
        <ele>701</ele>
        <time>2022-04-04T16:38:34Z</time>
      </trkpt>
      <trkpt lat="46.42034" lon="5.63493">
        <ele>706</ele>
        <time>2022-04-04T16:39:04Z</time>
      </trkpt>
      <trkpt lat="46.42097" lon="5.63501">
        <ele>708</ele>
        <time>2022-04-04T16:39:15Z</time>
      </trkpt>
      <trkpt lat="46.42146" lon="5.63506">
        <ele>709</ele>
        <time>2022-04-04T16:39:24Z</time>
      </trkpt>
      <trkpt lat="46.42168" lon="5.63514">
        <ele>709</ele>
        <time>2022-04-04T16:39:28Z</time>
      </trkpt>
      <trkpt lat="46.42219" lon="5.63549">
        <ele>707</ele>
        <time>2022-04-04T16:39:38Z</time>
      </trkpt>
      <trkpt lat="46.4227" lon="5.63576">
        <ele>707</ele>
        <time>2022-04-04T16:39:48Z</time>
      </trkpt>
      <trkpt lat="46.42306" lon="5.63577">
        <ele>710</ele>
        <time>2022-04-04T16:39:54Z</time>
      </trkpt>
      <trkpt lat="46.42322" lon="5.6358">
        <ele>711</ele>
        <time>2022-04-04T16:39:57Z</time>
      </trkpt>
      <trkpt lat="46.42407" lon="5.63603">
        <ele>710</ele>
        <time>2022-04-04T16:40:12Z</time>
      </trkpt>
      <trkpt lat="46.42445" lon="5.63593">
        <ele>714</ele>
        <time>2022-04-04T16:40:19Z</time>
      </trkpt>
      <trkpt lat="46.42462" lon="5.63591">
        <ele>715</ele>
        <time>2022-04-04T16:40:22Z</time>
      </trkpt>
      <trkpt lat="46.42485" lon="5.63591">
        <ele>717</ele>
        <time>2022-04-04T16:40:26Z</time>
      </trkpt>
      <trkpt lat="46.42527" lon="5.63601">
        <ele>717</ele>
        <time>2022-04-04T16:40:34Z</time>
      </trkpt>
      <trkpt lat="46.42558" lon="5.63611">
        <ele>718</ele>
        <time>2022-04-04T16:40:39Z</time>
      </trkpt>
      <trkpt lat="46.4257" lon="5.63618">
        <ele>717</ele>
        <time>2022-04-04T16:40:42Z</time>
      </trkpt>
      <trkpt lat="46.42618" lon="5.6365">
        <ele>716</ele>
        <time>2022-04-04T16:40:51Z</time>
      </trkpt>
      <trkpt lat="46.42633" lon="5.63657">
        <ele>716</ele>
        <time>2022-04-04T16:40:54Z</time>
      </trkpt>
      <trkpt lat="46.42675" lon="5.63666">
        <ele>718</ele>
        <time>2022-04-04T16:41:01Z</time>
      </trkpt>
      <trkpt lat="46.42699" lon="5.6366">
        <ele>720</ele>
        <time>2022-04-04T16:41:06Z</time>
      </trkpt>
      <trkpt lat="46.42718" lon="5.63645">
        <ele>725</ele>
        <time>2022-04-04T16:41:10Z</time>
      </trkpt>
      <trkpt lat="46.42744" lon="5.63629">
        <ele>730</ele>
        <time>2022-04-04T16:41:15Z</time>
      </trkpt>
      <trkpt lat="46.42782" lon="5.63617">
        <ele>733</ele>
        <time>2022-04-04T16:41:22Z</time>
      </trkpt>
      <trkpt lat="46.42833" lon="5.63606">
        <ele>734</ele>
        <time>2022-04-04T16:41:31Z</time>
      </trkpt>
      <trkpt lat="46.42886" lon="5.6359">
        <ele>736</ele>
        <time>2022-04-04T16:41:40Z</time>
      </trkpt>
      <trkpt lat="46.42898" lon="5.63583">
        <ele>736</ele>
        <time>2022-04-04T16:41:43Z</time>
      </trkpt>
      <trkpt lat="46.42931" lon="5.63553">
        <ele>736</ele>
        <time>2022-04-04T16:41:50Z</time>
      </trkpt>
      <trkpt lat="46.42965" lon="5.63502">
        <ele>730</ele>
        <time>2022-04-04T16:41:58Z</time>
      </trkpt>
      <trkpt lat="46.42982" lon="5.63484">
        <ele>725</ele>
        <time>2022-04-04T16:42:02Z</time>
      </trkpt>
      <trkpt lat="46.42995" lon="5.63474">
        <ele>721</ele>
        <time>2022-04-04T16:42:05Z</time>
      </trkpt>
      <trkpt lat="46.43002" lon="5.63473">
        <ele>720</ele>
        <time>2022-04-04T16:42:06Z</time>
      </trkpt>
      <trkpt lat="46.43013" lon="5.63475">
        <ele>720</ele>
        <time>2022-04-04T16:42:08Z</time>
      </trkpt>
      <trkpt lat="46.43022" lon="5.63482">
        <ele>721</ele>
        <time>2022-04-04T16:42:10Z</time>
      </trkpt>
      <trkpt lat="46.43048" lon="5.63511">
        <ele>725</ele>
        <time>2022-04-04T16:42:16Z</time>
      </trkpt>
      <trkpt lat="46.43061" lon="5.63521">
        <ele>726</ele>
        <time>2022-04-04T16:42:18Z</time>
      </trkpt>
      <trkpt lat="46.43091" lon="5.6353">
        <ele>726</ele>
        <time>2022-04-04T16:42:24Z</time>
      </trkpt>
      <trkpt lat="46.431" lon="5.63535">
        <ele>727</ele>
        <time>2022-04-04T16:42:25Z</time>
      </trkpt>
      <trkpt lat="46.43134" lon="5.63567">
        <ele>728</ele>
        <time>2022-04-04T16:42:33Z</time>
      </trkpt>
      <trkpt lat="46.4315" lon="5.63571">
        <ele>727</ele>
        <time>2022-04-04T16:42:35Z</time>
      </trkpt>
      <trkpt lat="46.43157" lon="5.63568">
        <ele>725</ele>
        <time>2022-04-04T16:42:37Z</time>
      </trkpt>
      <trkpt lat="46.43165" lon="5.6356">
        <ele>724</ele>
        <time>2022-04-04T16:42:39Z</time>
      </trkpt>
      <trkpt lat="46.43169" lon="5.63547">
        <ele>723</ele>
        <time>2022-04-04T16:42:40Z</time>
      </trkpt>
      <trkpt lat="46.43169" lon="5.63536">
        <ele>723</ele>
        <time>2022-04-04T16:42:42Z</time>
      </trkpt>
      <trkpt lat="46.43166" lon="5.63523">
        <ele>722</ele>
        <time>2022-04-04T16:42:43Z</time>
      </trkpt>
      <trkpt lat="46.43153" lon="5.63495">
        <ele>721</ele>
        <time>2022-04-04T16:42:47Z</time>
      </trkpt>
      <trkpt lat="46.43138" lon="5.63473">
        <ele>720</ele>
        <time>2022-04-04T16:42:51Z</time>
      </trkpt>
      <trkpt lat="46.43119" lon="5.63449">
        <ele>716</ele>
        <time>2022-04-04T16:42:56Z</time>
      </trkpt>
      <trkpt lat="46.43112" lon="5.63434">
        <ele>714</ele>
        <time>2022-04-04T16:42:58Z</time>
      </trkpt>
      <trkpt lat="46.4311" lon="5.63415">
        <ele>712</ele>
        <time>2022-04-04T16:43:00Z</time>
      </trkpt>
      <trkpt lat="46.4311" lon="5.63389">
        <ele>710</ele>
        <time>2022-04-04T16:43:03Z</time>
      </trkpt>
      <trkpt lat="46.43113" lon="5.63375">
        <ele>709</ele>
        <time>2022-04-04T16:43:05Z</time>
      </trkpt>
      <trkpt lat="46.43122" lon="5.63354">
        <ele>709</ele>
        <time>2022-04-04T16:43:08Z</time>
      </trkpt>
      <trkpt lat="46.43141" lon="5.63325">
        <ele>709</ele>
        <time>2022-04-04T16:43:13Z</time>
      </trkpt>
      <trkpt lat="46.43153" lon="5.63312">
        <ele>710</ele>
        <time>2022-04-04T16:43:16Z</time>
      </trkpt>
      <trkpt lat="46.43194" lon="5.63275">
        <ele>710</ele>
        <time>2022-04-04T16:43:24Z</time>
      </trkpt>
      <trkpt lat="46.43247" lon="5.63233">
        <ele>711</ele>
        <time>2022-04-04T16:43:35Z</time>
      </trkpt>
      <trkpt lat="46.43311" lon="5.6319">
        <ele>715</ele>
        <time>2022-04-04T16:43:48Z</time>
      </trkpt>
      <trkpt lat="46.43338" lon="5.63179">
        <ele>716</ele>
        <time>2022-04-04T16:43:53Z</time>
      </trkpt>
      <trkpt lat="46.4336" lon="5.63177">
        <ele>717</ele>
        <time>2022-04-04T16:43:57Z</time>
      </trkpt>
      <trkpt lat="46.43373" lon="5.63179">
        <ele>718</ele>
        <time>2022-04-04T16:43:59Z</time>
      </trkpt>
      <trkpt lat="46.43474" lon="5.63204">
        <ele>721</ele>
        <time>2022-04-04T16:44:17Z</time>
      </trkpt>
      <trkpt lat="46.43523" lon="5.63212">
        <ele>722</ele>
        <time>2022-04-04T16:44:26Z</time>
      </trkpt>
      <trkpt lat="46.43561" lon="5.63227">
        <ele>724</ele>
        <time>2022-04-04T16:44:33Z</time>
      </trkpt>
      <trkpt lat="46.4361" lon="5.63241">
        <ele>726</ele>
        <time>2022-04-04T16:44:42Z</time>
      </trkpt>
      <trkpt lat="46.43681" lon="5.6327">
        <ele>731</ele>
        <time>2022-04-04T16:44:55Z</time>
      </trkpt>
      <trkpt lat="46.43703" lon="5.63282">
        <ele>734</ele>
        <time>2022-04-04T16:44:59Z</time>
      </trkpt>
      <trkpt lat="46.43714" lon="5.63292">
        <ele>735</ele>
        <time>2022-04-04T16:45:02Z</time>
      </trkpt>
      <trkpt lat="46.43728" lon="5.6331">
        <ele>736</ele>
        <time>2022-04-04T16:45:05Z</time>
      </trkpt>
      <trkpt lat="46.43747" lon="5.63329">
        <ele>736</ele>
        <time>2022-04-04T16:45:09Z</time>
      </trkpt>
      <trkpt lat="46.43767" lon="5.63353">
        <ele>738</ele>
        <time>2022-04-04T16:45:14Z</time>
      </trkpt>
      <trkpt lat="46.43781" lon="5.63364">
        <ele>739</ele>
        <time>2022-04-04T16:45:16Z</time>
      </trkpt>
      <trkpt lat="46.4382" lon="5.6338">
        <ele>739</ele>
        <time>2022-04-04T16:45:24Z</time>
      </trkpt>
      <trkpt lat="46.43849" lon="5.63382">
        <ele>737</ele>
        <time>2022-04-04T16:45:29Z</time>
      </trkpt>
      <trkpt lat="46.43891" lon="5.63372">
        <ele>733</ele>
        <time>2022-04-04T16:45:36Z</time>
      </trkpt>
      <trkpt lat="46.43936" lon="5.63367">
        <ele>729</ele>
        <time>2022-04-04T16:45:44Z</time>
      </trkpt>
      <trkpt lat="46.43947" lon="5.63362">
        <ele>728</ele>
        <time>2022-04-04T16:45:46Z</time>
      </trkpt>
      <trkpt lat="46.43958" lon="5.63353">
        <ele>726</ele>
        <time>2022-04-04T16:45:49Z</time>
      </trkpt>
      <trkpt lat="46.43985" lon="5.63316">
        <ele>724</ele>
        <time>2022-04-04T16:45:55Z</time>
      </trkpt>
      <trkpt lat="46.43994" lon="5.6331">
        <ele>724</ele>
        <time>2022-04-04T16:45:57Z</time>
      </trkpt>
      <trkpt lat="46.44023" lon="5.63307">
        <ele>723</ele>
        <time>2022-04-04T16:46:02Z</time>
      </trkpt>
      <trkpt lat="46.44034" lon="5.63303">
        <ele>722</ele>
        <time>2022-04-04T16:46:04Z</time>
      </trkpt>
      <trkpt lat="46.44047" lon="5.63296">
        <ele>722</ele>
        <time>2022-04-04T16:46:07Z</time>
      </trkpt>
      <trkpt lat="46.44057" lon="5.63285">
        <ele>722</ele>
        <time>2022-04-04T16:46:09Z</time>
      </trkpt>
      <trkpt lat="46.44068" lon="5.63269">
        <ele>721</ele>
        <time>2022-04-04T16:46:12Z</time>
      </trkpt>
      <trkpt lat="46.44081" lon="5.63241">
        <ele>720</ele>
        <time>2022-04-04T16:46:16Z</time>
      </trkpt>
      <trkpt lat="46.44088" lon="5.63244">
        <ele>720</ele>
        <time>2022-04-04T16:46:17Z</time>
      </trkpt>
      <trkpt lat="46.44095" lon="5.63242">
        <ele>720</ele>
        <time>2022-04-04T16:46:18Z</time>
      </trkpt>
      <trkpt lat="46.44111" lon="5.63231">
        <ele>719</ele>
        <time>2022-04-04T16:46:22Z</time>
      </trkpt>
      <trkpt lat="46.44151" lon="5.63189">
        <ele>714</ele>
        <time>2022-04-04T16:46:30Z</time>
      </trkpt>
      <trkpt lat="46.44166" lon="5.63181">
        <ele>711</ele>
        <time>2022-04-04T16:46:33Z</time>
      </trkpt>
      <trkpt lat="46.44179" lon="5.63179">
        <ele>710</ele>
        <time>2022-04-04T16:46:36Z</time>
      </trkpt>
      <trkpt lat="46.44193" lon="5.63187">
        <ele>711</ele>
        <time>2022-04-04T16:46:38Z</time>
      </trkpt>
      <trkpt lat="46.44231" lon="5.63212">
        <ele>712</ele>
        <time>2022-04-04T16:46:46Z</time>
      </trkpt>
      <trkpt lat="46.44278" lon="5.63238">
        <ele>711</ele>
        <time>2022-04-04T16:46:55Z</time>
      </trkpt>
      <trkpt lat="46.44314" lon="5.6325">
        <ele>709</ele>
        <time>2022-04-04T16:47:01Z</time>
      </trkpt>
      <trkpt lat="46.44341" lon="5.63257">
        <ele>708</ele>
        <time>2022-04-04T16:47:06Z</time>
      </trkpt>
      <trkpt lat="46.444" lon="5.63265">
        <ele>707</ele>
        <time>2022-04-04T16:47:17Z</time>
      </trkpt>
      <trkpt lat="46.44413" lon="5.63271">
        <ele>707</ele>
        <time>2022-04-04T16:47:19Z</time>
      </trkpt>
      <trkpt lat="46.44442" lon="5.63298">
        <ele>709</ele>
        <time>2022-04-04T16:47:25Z</time>
      </trkpt>
      <trkpt lat="46.44533" lon="5.63369">
        <ele>716</ele>
        <time>2022-04-04T16:47:43Z</time>
      </trkpt>
      <trkpt lat="46.44542" lon="5.63381">
        <ele>716</ele>
        <time>2022-04-04T16:47:46Z</time>
      </trkpt>
      <trkpt lat="46.44546" lon="5.63393">
        <ele>716</ele>
        <time>2022-04-04T16:47:47Z</time>
      </trkpt>
      <trkpt lat="46.44549" lon="5.63413">
        <ele>715</ele>
        <time>2022-04-04T16:47:50Z</time>
      </trkpt>
      <trkpt lat="46.44555" lon="5.6343">
        <ele>714</ele>
        <time>2022-04-04T16:47:52Z</time>
      </trkpt>
      <trkpt lat="46.44562" lon="5.63436">
        <ele>714</ele>
        <time>2022-04-04T16:47:54Z</time>
      </trkpt>
      <trkpt lat="46.44573" lon="5.6344">
        <ele>713</ele>
        <time>2022-04-04T16:47:56Z</time>
      </trkpt>
      <trkpt lat="46.44587" lon="5.63439">
        <ele>712</ele>
        <time>2022-04-04T16:47:58Z</time>
      </trkpt>
      <trkpt lat="46.44606" lon="5.63434">
        <ele>710</ele>
        <time>2022-04-04T16:48:02Z</time>
      </trkpt>
      <trkpt lat="46.44621" lon="5.63435">
        <ele>708</ele>
        <time>2022-04-04T16:48:04Z</time>
      </trkpt>
      <trkpt lat="46.44634" lon="5.63438">
        <ele>707</ele>
        <time>2022-04-04T16:48:07Z</time>
      </trkpt>
      <trkpt lat="46.44675" lon="5.63463">
        <ele>701</ele>
        <time>2022-04-04T16:48:14Z</time>
      </trkpt>
      <trkpt lat="46.4469" lon="5.63469">
        <ele>700</ele>
        <time>2022-04-04T16:48:17Z</time>
      </trkpt>
      <trkpt lat="46.44713" lon="5.63471">
        <ele>699</ele>
        <time>2022-04-04T16:48:21Z</time>
      </trkpt>
      <trkpt lat="46.44716" lon="5.63476">
        <ele>699</ele>
        <time>2022-04-04T16:48:22Z</time>
      </trkpt>
      <trkpt lat="46.44716" lon="5.63483">
        <ele>698</ele>
        <time>2022-04-04T16:48:23Z</time>
      </trkpt>
      <trkpt lat="46.44714" lon="5.63488">
        <ele>698</ele>
        <time>2022-04-04T16:48:24Z</time>
      </trkpt>
      <trkpt lat="46.44707" lon="5.63493">
        <ele>698</ele>
        <time>2022-04-04T16:48:25Z</time>
      </trkpt>
      <trkpt lat="46.44669" lon="5.63507">
        <ele>698</ele>
        <time>2022-04-04T16:48:32Z</time>
      </trkpt>
      <trkpt lat="46.44658" lon="5.63513">
        <ele>698</ele>
        <time>2022-04-04T16:48:34Z</time>
      </trkpt>
      <trkpt lat="46.44645" lon="5.63525">
        <ele>698</ele>
        <time>2022-04-04T16:48:37Z</time>
      </trkpt>
      <trkpt lat="46.44639" lon="5.6354">
        <ele>697</ele>
        <time>2022-04-04T16:48:39Z</time>
      </trkpt>
      <trkpt lat="46.44615" lon="5.63632">
        <ele>689</ele>
        <time>2022-04-04T16:48:51Z</time>
      </trkpt>
      <trkpt lat="46.44601" lon="5.63667">
        <ele>688</ele>
        <time>2022-04-04T16:48:56Z</time>
      </trkpt>
      <trkpt lat="46.44593" lon="5.63689">
        <ele>687</ele>
        <time>2022-04-04T16:48:59Z</time>
      </trkpt>
      <trkpt lat="46.44592" lon="5.63701">
        <ele>687</ele>
        <time>2022-04-04T16:49:01Z</time>
      </trkpt>
      <trkpt lat="46.44594" lon="5.63725">
        <ele>685</ele>
        <time>2022-04-04T16:49:04Z</time>
      </trkpt>
      <trkpt lat="46.44607" lon="5.63799">
        <ele>683</ele>
        <time>2022-04-04T16:49:13Z</time>
      </trkpt>
      <trkpt lat="46.44612" lon="5.63817">
        <ele>682</ele>
        <time>2022-04-04T16:49:15Z</time>
      </trkpt>
      <trkpt lat="46.4462" lon="5.63837">
        <ele>681</ele>
        <time>2022-04-04T16:49:18Z</time>
      </trkpt>
      <trkpt lat="46.44636" lon="5.63869">
        <ele>680</ele>
        <time>2022-04-04T16:49:23Z</time>
      </trkpt>
      <trkpt lat="46.44647" lon="5.63885">
        <ele>679</ele>
        <time>2022-04-04T16:49:26Z</time>
      </trkpt>
      <trkpt lat="46.44657" lon="5.63894">
        <ele>678</ele>
        <time>2022-04-04T16:49:28Z</time>
      </trkpt>
      <trkpt lat="46.44687" lon="5.63911">
        <ele>675</ele>
        <time>2022-04-04T16:49:34Z</time>
      </trkpt>
      <trkpt lat="46.4476" lon="5.63973">
        <ele>665</ele>
        <time>2022-04-04T16:49:49Z</time>
      </trkpt>
      <trkpt lat="46.44776" lon="5.63991">
        <ele>663</ele>
        <time>2022-04-04T16:49:52Z</time>
      </trkpt>
      <trkpt lat="46.44839" lon="5.64091">
        <ele>656</ele>
        <time>2022-04-04T16:50:09Z</time>
      </trkpt>
      <trkpt lat="46.44869" lon="5.64125">
        <ele>654</ele>
        <time>2022-04-04T16:50:16Z</time>
      </trkpt>
      <trkpt lat="46.45005" lon="5.64293">
        <ele>651</ele>
        <time>2022-04-04T16:50:47Z</time>
      </trkpt>
      <trkpt lat="46.45014" lon="5.64307">
        <ele>652</ele>
        <time>2022-04-04T16:50:50Z</time>
      </trkpt>
      <trkpt lat="46.45053" lon="5.64383">
        <ele>651</ele>
        <time>2022-04-04T16:51:01Z</time>
      </trkpt>
      <trkpt lat="46.45064" lon="5.64402">
        <ele>650</ele>
        <time>2022-04-04T16:51:04Z</time>
      </trkpt>
      <trkpt lat="46.45071" lon="5.6441">
        <ele>649</ele>
        <time>2022-04-04T16:51:06Z</time>
      </trkpt>
      <trkpt lat="46.45099" lon="5.64429">
        <ele>647</ele>
        <time>2022-04-04T16:51:11Z</time>
      </trkpt>
      <trkpt lat="46.45198" lon="5.64451">
        <ele>644</ele>
        <time>2022-04-04T16:51:29Z</time>
      </trkpt>
      <trkpt lat="46.45232" lon="5.64454">
        <ele>641</ele>
        <time>2022-04-04T16:51:35Z</time>
      </trkpt>
      <trkpt lat="46.45304" lon="5.64457">
        <ele>635</ele>
        <time>2022-04-04T16:51:48Z</time>
      </trkpt>
      <trkpt lat="46.45536" lon="5.64442">
        <ele>621</ele>
        <time>2022-04-04T16:52:30Z</time>
      </trkpt>
      <trkpt lat="46.45547" lon="5.64446">
        <ele>622</ele>
        <time>2022-04-04T16:52:32Z</time>
      </trkpt>
      <trkpt lat="46.45562" lon="5.64455">
        <ele>622</ele>
        <time>2022-04-04T16:52:34Z</time>
      </trkpt>
      <trkpt lat="46.45587" lon="5.64477">
        <ele>622</ele>
        <time>2022-04-04T16:52:40Z</time>
      </trkpt>
      <trkpt lat="46.45603" lon="5.64496">
        <ele>623</ele>
        <time>2022-04-04T16:52:43Z</time>
      </trkpt>
      <trkpt lat="46.45611" lon="5.64513">
        <ele>622</ele>
        <time>2022-04-04T16:52:46Z</time>
      </trkpt>
      <trkpt lat="46.45613" lon="5.64528">
        <ele>621</ele>
        <time>2022-04-04T16:52:48Z</time>
      </trkpt>
      <trkpt lat="46.45607" lon="5.64595">
        <ele>614</ele>
        <time>2022-04-04T16:52:56Z</time>
      </trkpt>
      <trkpt lat="46.45611" lon="5.64611">
        <ele>615</ele>
        <time>2022-04-04T16:52:58Z</time>
      </trkpt>
      <trkpt lat="46.45616" lon="5.64628">
        <ele>615</ele>
        <time>2022-04-04T16:53:00Z</time>
      </trkpt>
      <trkpt lat="46.45629" lon="5.64654">
        <ele>615</ele>
        <time>2022-04-04T16:53:04Z</time>
      </trkpt>
      <trkpt lat="46.4564" lon="5.64666">
        <ele>614</ele>
        <time>2022-04-04T16:53:07Z</time>
      </trkpt>
      <trkpt lat="46.45654" lon="5.64678">
        <ele>614</ele>
        <time>2022-04-04T16:53:10Z</time>
      </trkpt>
      <trkpt lat="46.45657" lon="5.64687">
        <ele>614</ele>
        <time>2022-04-04T16:53:11Z</time>
      </trkpt>
      <trkpt lat="46.45655" lon="5.64697">
        <ele>614</ele>
        <time>2022-04-04T16:53:12Z</time>
      </trkpt>
      <trkpt lat="46.4564" lon="5.64718">
        <ele>613</ele>
        <time>2022-04-04T16:53:16Z</time>
      </trkpt>
      <trkpt lat="46.45635" lon="5.64733">
        <ele>613</ele>
        <time>2022-04-04T16:53:18Z</time>
      </trkpt>
      <trkpt lat="46.45631" lon="5.6476">
        <ele>612</ele>
        <time>2022-04-04T16:53:21Z</time>
      </trkpt>
      <trkpt lat="46.45627" lon="5.64774">
        <ele>611</ele>
        <time>2022-04-04T16:53:23Z</time>
      </trkpt>
      <trkpt lat="46.45616" lon="5.64801">
        <ele>610</ele>
        <time>2022-04-04T16:53:27Z</time>
      </trkpt>
      <trkpt lat="46.45606" lon="5.64854">
        <ele>606</ele>
        <time>2022-04-04T16:53:34Z</time>
      </trkpt>
      <trkpt lat="46.45596" lon="5.64887">
        <ele>601</ele>
        <time>2022-04-04T16:53:38Z</time>
      </trkpt>
      <trkpt lat="46.45595" lon="5.6491">
        <ele>598</ele>
        <time>2022-04-04T16:53:41Z</time>
      </trkpt>
      <trkpt lat="46.45601" lon="5.6492">
        <ele>597</ele>
        <time>2022-04-04T16:53:43Z</time>
      </trkpt>
      <trkpt lat="46.4561" lon="5.64928">
        <ele>597</ele>
        <time>2022-04-04T16:53:44Z</time>
      </trkpt>
      <trkpt lat="46.45647" lon="5.64947">
        <ele>596</ele>
        <time>2022-04-04T16:53:51Z</time>
      </trkpt>
      <trkpt lat="46.45655" lon="5.64953">
        <ele>595</ele>
        <time>2022-04-04T16:53:53Z</time>
      </trkpt>
      <trkpt lat="46.45663" lon="5.64969">
        <ele>592</ele>
        <time>2022-04-04T16:53:55Z</time>
      </trkpt>
      <trkpt lat="46.45674" lon="5.64995">
        <ele>587</ele>
        <time>2022-04-04T16:53:59Z</time>
      </trkpt>
      <trkpt lat="46.45678" lon="5.65013">
        <ele>585</ele>
        <time>2022-04-04T16:54:01Z</time>
      </trkpt>
      <trkpt lat="46.45677" lon="5.65032">
        <ele>584</ele>
        <time>2022-04-04T16:54:04Z</time>
      </trkpt>
      <trkpt lat="46.45674" lon="5.65047">
        <ele>584</ele>
        <time>2022-04-04T16:54:06Z</time>
      </trkpt>
      <trkpt lat="46.45668" lon="5.65059">
        <ele>583</ele>
        <time>2022-04-04T16:54:08Z</time>
      </trkpt>
      <trkpt lat="46.45635" lon="5.65102">
        <ele>581</ele>
        <time>2022-04-04T16:54:15Z</time>
      </trkpt>
      <trkpt lat="46.45627" lon="5.65114">
        <ele>581</ele>
        <time>2022-04-04T16:54:17Z</time>
      </trkpt>
      <trkpt lat="46.45621" lon="5.65128">
        <ele>582</ele>
        <time>2022-04-04T16:54:20Z</time>
      </trkpt>
      <trkpt lat="46.45619" lon="5.65139">
        <ele>582</ele>
        <time>2022-04-04T16:54:21Z</time>
      </trkpt>
      <trkpt lat="46.45622" lon="5.65229">
        <ele>589</ele>
        <time>2022-04-04T16:54:32Z</time>
      </trkpt>
      <trkpt lat="46.4562" lon="5.65253">
        <ele>591</ele>
        <time>2022-04-04T16:54:35Z</time>
      </trkpt>
      <trkpt lat="46.45616" lon="5.65271">
        <ele>590</ele>
        <time>2022-04-04T16:54:37Z</time>
      </trkpt>
      <trkpt lat="46.45653" lon="5.65276">
        <ele>590</ele>
        <time>2022-04-04T16:54:44Z</time>
      </trkpt>
      <trkpt lat="46.45672" lon="5.65275">
        <ele>589</ele>
        <time>2022-04-04T16:54:47Z</time>
      </trkpt>
      <trkpt lat="46.45669" lon="5.65374">
        <ele>585</ele>
        <time>2022-04-04T16:54:59Z</time>
      </trkpt>
      <trkpt lat="46.45707" lon="5.65377">
        <ele>583</ele>
        <time>2022-04-04T16:55:06Z</time>
      </trkpt>
      <trkpt lat="46.45847" lon="5.65382">
        <ele>577</ele>
        <time>2022-04-04T16:55:31Z</time>
      </trkpt>
      <trkpt lat="46.45863" lon="5.65385">
        <ele>577</ele>
        <time>2022-04-04T16:55:34Z</time>
      </trkpt>
      <trkpt lat="46.45908" lon="5.65397">
        <ele>576</ele>
        <time>2022-04-04T16:55:42Z</time>
      </trkpt>
      <trkpt lat="46.45927" lon="5.65404">
        <ele>576</ele>
        <time>2022-04-04T16:55:46Z</time>
      </trkpt>
      <trkpt lat="46.45942" lon="5.65413">
        <ele>576</ele>
        <time>2022-04-04T16:55:48Z</time>
      </trkpt>
      <trkpt lat="46.45975" lon="5.65437">
        <ele>575</ele>
        <time>2022-04-04T16:55:55Z</time>
      </trkpt>
      <trkpt lat="46.46004" lon="5.6545">
        <ele>574</ele>
        <time>2022-04-04T16:56:00Z</time>
      </trkpt>
      <trkpt lat="46.46023" lon="5.65453">
        <ele>573</ele>
        <time>2022-04-04T16:56:04Z</time>
      </trkpt>
      <trkpt lat="46.46121" lon="5.6546">
        <ele>571</ele>
        <time>2022-04-04T16:56:21Z</time>
      </trkpt>
      <trkpt lat="46.46184" lon="5.65471">
        <ele>570</ele>
        <time>2022-04-04T16:56:33Z</time>
      </trkpt>
      <trkpt lat="46.46256" lon="5.65478">
        <ele>569</ele>
        <time>2022-04-04T16:56:45Z</time>
      </trkpt>
      <trkpt lat="46.4627" lon="5.65482">
        <ele>569</ele>
        <time>2022-04-04T16:56:48Z</time>
      </trkpt>
      <trkpt lat="46.46282" lon="5.65488">
        <ele>569</ele>
        <time>2022-04-04T16:56:50Z</time>
      </trkpt>
      <trkpt lat="46.46294" lon="5.65497">
        <ele>569</ele>
        <time>2022-04-04T16:56:53Z</time>
      </trkpt>
      <trkpt lat="46.46303" lon="5.6551">
        <ele>569</ele>
        <time>2022-04-04T16:56:55Z</time>
      </trkpt>
      <trkpt lat="46.46326" lon="5.65559">
        <ele>570</ele>
        <time>2022-04-04T16:57:02Z</time>
      </trkpt>
      <trkpt lat="46.46334" lon="5.65572">
        <ele>571</ele>
        <time>2022-04-04T16:57:04Z</time>
      </trkpt>
      <trkpt lat="46.46344" lon="5.6558">
        <ele>571</ele>
        <time>2022-04-04T16:57:06Z</time>
      </trkpt>
      <trkpt lat="46.46354" lon="5.65586">
        <ele>572</ele>
        <time>2022-04-04T16:57:08Z</time>
      </trkpt>
      <trkpt lat="46.4639" lon="5.65597">
        <ele>574</ele>
        <time>2022-04-04T16:57:15Z</time>
      </trkpt>
      <trkpt lat="46.46441" lon="5.65602">
        <ele>574</ele>
        <time>2022-04-04T16:57:24Z</time>
      </trkpt>
      <trkpt lat="46.46453" lon="5.65607">
        <ele>574</ele>
        <time>2022-04-04T16:57:26Z</time>
      </trkpt>
      <trkpt lat="46.46491" lon="5.65638">
        <ele>575</ele>
        <time>2022-04-04T16:57:34Z</time>
      </trkpt>
      <trkpt lat="46.46514" lon="5.65645">
        <ele>575</ele>
        <time>2022-04-04T16:57:38Z</time>
      </trkpt>
      <trkpt lat="46.46538" lon="5.65647">
        <ele>575</ele>
        <time>2022-04-04T16:57:42Z</time>
      </trkpt>
      <trkpt lat="46.46605" lon="5.65638">
        <ele>574</ele>
        <time>2022-04-04T16:57:54Z</time>
      </trkpt>
      <trkpt lat="46.46664" lon="5.65636">
        <ele>574</ele>
        <time>2022-04-04T16:58:05Z</time>
      </trkpt>
      <trkpt lat="46.46736" lon="5.65625">
        <ele>574</ele>
        <time>2022-04-04T16:58:18Z</time>
      </trkpt>
      <trkpt lat="46.46805" lon="5.65606">
        <ele>573</ele>
        <time>2022-04-04T16:58:30Z</time>
      </trkpt>
      <trkpt lat="46.46909" lon="5.65597">
        <ele>576</ele>
        <time>2022-04-04T16:58:49Z</time>
      </trkpt>
      <trkpt lat="46.4695" lon="5.6559">
        <ele>575</ele>
        <time>2022-04-04T16:58:56Z</time>
      </trkpt>
      <trkpt lat="46.47004" lon="5.65585">
        <ele>576</ele>
        <time>2022-04-04T16:59:06Z</time>
      </trkpt>
      <trkpt lat="46.47027" lon="5.65586">
        <ele>576</ele>
        <time>2022-04-04T16:59:10Z</time>
      </trkpt>
      <trkpt lat="46.47064" lon="5.65594">
        <ele>576</ele>
        <time>2022-04-04T16:59:16Z</time>
      </trkpt>
      <trkpt lat="46.47131" lon="5.65597">
        <ele>573</ele>
        <time>2022-04-04T16:59:28Z</time>
      </trkpt>
      <trkpt lat="46.47224" lon="5.65607">
        <ele>570</ele>
        <time>2022-04-04T16:59:45Z</time>
      </trkpt>
      <trkpt lat="46.47235" lon="5.65612">
        <ele>570</ele>
        <time>2022-04-04T16:59:47Z</time>
      </trkpt>
      <trkpt lat="46.47248" lon="5.65621">
        <ele>570</ele>
        <time>2022-04-04T16:59:50Z</time>
      </trkpt>
      <trkpt lat="46.4727" lon="5.65643">
        <ele>571</ele>
        <time>2022-04-04T16:59:54Z</time>
      </trkpt>
      <trkpt lat="46.47282" lon="5.65652">
        <ele>572</ele>
        <time>2022-04-04T16:59:57Z</time>
      </trkpt>
      <trkpt lat="46.47296" lon="5.65657">
        <ele>572</ele>
        <time>2022-04-04T16:59:59Z</time>
      </trkpt>
      <trkpt lat="46.47311" lon="5.65658">
        <ele>571</ele>
        <time>2022-04-04T17:00:02Z</time>
      </trkpt>
      <trkpt lat="46.47329" lon="5.65652">
        <ele>570</ele>
        <time>2022-04-04T17:00:05Z</time>
      </trkpt>
      <trkpt lat="46.47333" lon="5.65657">
        <ele>571</ele>
        <time>2022-04-04T17:00:06Z</time>
      </trkpt>
      <trkpt lat="46.47352" lon="5.65661">
        <ele>572</ele>
        <time>2022-04-04T17:00:10Z</time>
      </trkpt>
      <trkpt lat="46.47333" lon="5.65657">
        <ele>571</ele>
        <time>2022-04-04T17:00:13Z</time>
      </trkpt>
      <trkpt lat="46.47329" lon="5.65652">
        <ele>570</ele>
        <time>2022-04-04T17:00:14Z</time>
      </trkpt>
      <trkpt lat="46.47341" lon="5.65643">
        <ele>570</ele>
        <time>2022-04-04T17:00:16Z</time>
      </trkpt>
      <trkpt lat="46.47351" lon="5.65629">
        <ele>571</ele>
        <time>2022-04-04T17:00:19Z</time>
      </trkpt>
      <trkpt lat="46.47375" lon="5.65585">
        <ele>571</ele>
        <time>2022-04-04T17:00:26Z</time>
      </trkpt>
      <trkpt lat="46.47389" lon="5.65564">
        <ele>571</ele>
        <time>2022-04-04T17:00:29Z</time>
      </trkpt>
      <trkpt lat="46.47402" lon="5.6555">
        <ele>571</ele>
        <time>2022-04-04T17:00:32Z</time>
      </trkpt>
      <trkpt lat="46.4742" lon="5.65536">
        <ele>571</ele>
        <time>2022-04-04T17:00:36Z</time>
      </trkpt>
      <trkpt lat="46.47445" lon="5.65522">
        <ele>569</ele>
        <time>2022-04-04T17:00:41Z</time>
      </trkpt>
      <trkpt lat="46.47461" lon="5.65517">
        <ele>569</ele>
        <time>2022-04-04T17:00:43Z</time>
      </trkpt>
      <trkpt lat="46.47494" lon="5.65514">
        <ele>569</ele>
        <time>2022-04-04T17:00:49Z</time>
      </trkpt>
      <trkpt lat="46.47519" lon="5.65521">
        <ele>570</ele>
        <time>2022-04-04T17:00:54Z</time>
      </trkpt>
      <trkpt lat="46.47551" lon="5.65543">
        <ele>574</ele>
        <time>2022-04-04T17:01:00Z</time>
      </trkpt>
      <trkpt lat="46.47566" lon="5.65548">
        <ele>575</ele>
        <time>2022-04-04T17:01:03Z</time>
      </trkpt>
      <trkpt lat="46.47576" lon="5.65549">
        <ele>576</ele>
        <time>2022-04-04T17:01:05Z</time>
      </trkpt>
      <trkpt lat="46.47587" lon="5.65546">
        <ele>575</ele>
        <time>2022-04-04T17:01:07Z</time>
      </trkpt>
      <trkpt lat="46.47604" lon="5.65537">
        <ele>576</ele>
        <time>2022-04-04T17:01:10Z</time>
      </trkpt>
      <trkpt lat="46.47673" lon="5.65487">
        <ele>575</ele>
        <time>2022-04-04T17:01:24Z</time>
      </trkpt>
      <trkpt lat="46.47721" lon="5.65437">
        <ele>573</ele>
        <time>2022-04-04T17:01:34Z</time>
      </trkpt>
      <trkpt lat="46.47741" lon="5.6542">
        <ele>572</ele>
        <time>2022-04-04T17:01:38Z</time>
      </trkpt>
      <trkpt lat="46.47774" lon="5.65403">
        <ele>571</ele>
        <time>2022-04-04T17:01:44Z</time>
      </trkpt>
      <trkpt lat="46.47787" lon="5.65393">
        <ele>571</ele>
        <time>2022-04-04T17:01:47Z</time>
      </trkpt>
      <trkpt lat="46.47825" lon="5.65342">
        <ele>572</ele>
        <time>2022-04-04T17:01:56Z</time>
      </trkpt>
      <trkpt lat="46.47837" lon="5.65333">
        <ele>573</ele>
        <time>2022-04-04T17:01:59Z</time>
      </trkpt>
      <trkpt lat="46.47858" lon="5.6533">
        <ele>574</ele>
        <time>2022-04-04T17:02:02Z</time>
      </trkpt>
      <trkpt lat="46.47891" lon="5.65341">
        <ele>575</ele>
        <time>2022-04-04T17:02:09Z</time>
      </trkpt>
      <trkpt lat="46.47912" lon="5.65353">
        <ele>576</ele>
        <time>2022-04-04T17:02:13Z</time>
      </trkpt>
      <trkpt lat="46.47937" lon="5.65375">
        <ele>577</ele>
        <time>2022-04-04T17:02:18Z</time>
      </trkpt>
      <trkpt lat="46.47952" lon="5.65385">
        <ele>578</ele>
        <time>2022-04-04T17:02:21Z</time>
      </trkpt>
      <trkpt lat="46.47964" lon="5.65389">
        <ele>579</ele>
        <time>2022-04-04T17:02:23Z</time>
      </trkpt>
      <trkpt lat="46.47988" lon="5.65395">
        <ele>581</ele>
        <time>2022-04-04T17:02:27Z</time>
      </trkpt>
      <trkpt lat="46.48019" lon="5.65399">
        <ele>582</ele>
        <time>2022-04-04T17:02:33Z</time>
      </trkpt>
      <trkpt lat="46.48224" lon="5.6544">
        <ele>578</ele>
        <time>2022-04-04T17:03:10Z</time>
      </trkpt>
      <trkpt lat="46.48296" lon="5.6547">
        <ele>570</ele>
        <time>2022-04-04T17:03:23Z</time>
      </trkpt>
      <trkpt lat="46.48311" lon="5.65478">
        <ele>568</ele>
        <time>2022-04-04T17:03:26Z</time>
      </trkpt>
      <trkpt lat="46.48324" lon="5.65492">
        <ele>566</ele>
        <time>2022-04-04T17:03:29Z</time>
      </trkpt>
      <trkpt lat="46.48329" lon="5.65508">
        <ele>566</ele>
        <time>2022-04-04T17:03:31Z</time>
      </trkpt>
      <trkpt lat="46.48333" lon="5.65543">
        <ele>566</ele>
        <time>2022-04-04T17:03:35Z</time>
      </trkpt>
      <trkpt lat="46.48338" lon="5.65556">
        <ele>566</ele>
        <time>2022-04-04T17:03:37Z</time>
      </trkpt>
      <trkpt lat="46.48345" lon="5.65567">
        <ele>566</ele>
        <time>2022-04-04T17:03:39Z</time>
      </trkpt>
      <trkpt lat="46.48351" lon="5.65573">
        <ele>566</ele>
        <time>2022-04-04T17:03:40Z</time>
      </trkpt>
      <trkpt lat="46.48363" lon="5.65578">
        <ele>566</ele>
        <time>2022-04-04T17:03:42Z</time>
      </trkpt>
      <trkpt lat="46.48373" lon="5.65577">
        <ele>566</ele>
        <time>2022-04-04T17:03:44Z</time>
      </trkpt>
      <trkpt lat="46.48382" lon="5.65572">
        <ele>565</ele>
        <time>2022-04-04T17:03:46Z</time>
      </trkpt>
      <trkpt lat="46.48408" lon="5.65554">
        <ele>563</ele>
        <time>2022-04-04T17:03:51Z</time>
      </trkpt>
      <trkpt lat="46.4842" lon="5.65551">
        <ele>563</ele>
        <time>2022-04-04T17:03:53Z</time>
      </trkpt>
      <trkpt lat="46.48468" lon="5.65557">
        <ele>562</ele>
        <time>2022-04-04T17:04:02Z</time>
      </trkpt>
      <trkpt lat="46.48483" lon="5.65551">
        <ele>561</ele>
        <time>2022-04-04T17:04:04Z</time>
      </trkpt>
      <trkpt lat="46.48522" lon="5.65528">
        <ele>555</ele>
        <time>2022-04-04T17:04:12Z</time>
      </trkpt>
      <trkpt lat="46.48544" lon="5.65521">
        <ele>552</ele>
        <time>2022-04-04T17:04:16Z</time>
      </trkpt>
      <trkpt lat="46.4856" lon="5.65521">
        <ele>551</ele>
        <time>2022-04-04T17:04:19Z</time>
      </trkpt>
      <trkpt lat="46.48571" lon="5.65525">
        <ele>551</ele>
        <time>2022-04-04T17:04:21Z</time>
      </trkpt>
      <trkpt lat="46.48639" lon="5.65587">
        <ele>552</ele>
        <time>2022-04-04T17:04:35Z</time>
      </trkpt>
      <trkpt lat="46.48655" lon="5.65595">
        <ele>550</ele>
        <time>2022-04-04T17:04:38Z</time>
      </trkpt>
      <trkpt lat="46.4869" lon="5.65606">
        <ele>545</ele>
        <time>2022-04-04T17:04:44Z</time>
      </trkpt>
      <trkpt lat="46.48713" lon="5.65606">
        <ele>542</ele>
        <time>2022-04-04T17:04:49Z</time>
      </trkpt>
      <trkpt lat="46.48751" lon="5.65602">
        <ele>536</ele>
        <time>2022-04-04T17:04:55Z</time>
      </trkpt>
      <trkpt lat="46.48768" lon="5.65605">
        <ele>536</ele>
        <time>2022-04-04T17:04:58Z</time>
      </trkpt>
      <trkpt lat="46.48806" lon="5.6563">
        <ele>537</ele>
        <time>2022-04-04T17:05:06Z</time>
      </trkpt>
      <trkpt lat="46.48821" lon="5.65636">
        <ele>537</ele>
        <time>2022-04-04T17:05:09Z</time>
      </trkpt>
      <trkpt lat="46.48884" lon="5.6565">
        <ele>535</ele>
        <time>2022-04-04T17:05:20Z</time>
      </trkpt>
      <trkpt lat="46.48953" lon="5.65683">
        <ele>534</ele>
        <time>2022-04-04T17:05:33Z</time>
      </trkpt>
      <trkpt lat="46.48962" lon="5.65684">
        <ele>534</ele>
        <time>2022-04-04T17:05:34Z</time>
      </trkpt>
      <trkpt lat="46.49008" lon="5.6568">
        <ele>529</ele>
        <time>2022-04-04T17:05:43Z</time>
      </trkpt>
      <trkpt lat="46.49068" lon="5.65667">
        <ele>525</ele>
        <time>2022-04-04T17:05:53Z</time>
      </trkpt>
      <trkpt lat="46.49108" lon="5.65668">
        <ele>524</ele>
        <time>2022-04-04T17:06:01Z</time>
      </trkpt>
      <trkpt lat="46.49146" lon="5.65689">
        <ele>526</ele>
        <time>2022-04-04T17:06:08Z</time>
      </trkpt>
      <trkpt lat="46.49162" lon="5.65701">
        <ele>527</ele>
        <time>2022-04-04T17:06:11Z</time>
      </trkpt>
      <trkpt lat="46.49177" lon="5.65701">
        <ele>528</ele>
        <time>2022-04-04T17:06:14Z</time>
      </trkpt>
      <trkpt lat="46.49195" lon="5.65696">
        <ele>529</ele>
        <time>2022-04-04T17:06:17Z</time>
      </trkpt>
      <trkpt lat="46.4921" lon="5.65685">
        <ele>528</ele>
        <time>2022-04-04T17:06:20Z</time>
      </trkpt>
      <trkpt lat="46.49226" lon="5.65669">
        <ele>527</ele>
        <time>2022-04-04T17:06:23Z</time>
      </trkpt>
      <trkpt lat="46.49279" lon="5.65631">
        <ele>526</ele>
        <time>2022-04-04T17:06:34Z</time>
      </trkpt>
      <trkpt lat="46.49314" lon="5.65591">
        <ele>523</ele>
        <time>2022-04-04T17:06:42Z</time>
      </trkpt>
      <trkpt lat="46.49325" lon="5.65581">
        <ele>523</ele>
        <time>2022-04-04T17:06:44Z</time>
      </trkpt>
      <trkpt lat="46.49359" lon="5.65558">
        <ele>525</ele>
        <time>2022-04-04T17:06:51Z</time>
      </trkpt>
      <trkpt lat="46.49377" lon="5.65543">
        <ele>525</ele>
        <time>2022-04-04T17:06:54Z</time>
      </trkpt>
      <trkpt lat="46.49426" lon="5.65477">
        <ele>517</ele>
        <time>2022-04-04T17:07:06Z</time>
      </trkpt>
      <trkpt lat="46.49446" lon="5.65445">
        <ele>511</ele>
        <time>2022-04-04T17:07:12Z</time>
      </trkpt>
      <trkpt lat="46.49471" lon="5.65437">
        <ele>511</ele>
        <time>2022-04-04T17:07:16Z</time>
      </trkpt>
      <trkpt lat="46.49535" lon="5.65438">
        <ele>514</ele>
        <time>2022-04-04T17:07:28Z</time>
      </trkpt>
      <trkpt lat="46.49567" lon="5.65427">
        <ele>510</ele>
        <time>2022-04-04T17:07:33Z</time>
      </trkpt>
      <trkpt lat="46.49624" lon="5.65418">
        <ele>507</ele>
        <time>2022-04-04T17:07:44Z</time>
      </trkpt>
      <trkpt lat="46.49681" lon="5.65423">
        <ele>507</ele>
        <time>2022-04-04T17:07:54Z</time>
      </trkpt>
      <trkpt lat="46.497" lon="5.65421">
        <ele>506</ele>
        <time>2022-04-04T17:07:57Z</time>
      </trkpt>
      <trkpt lat="46.49725" lon="5.65405">
        <ele>501</ele>
        <time>2022-04-04T17:08:02Z</time>
      </trkpt>
      <trkpt lat="46.49777" lon="5.65401">
        <ele>500</ele>
        <time>2022-04-04T17:08:11Z</time>
      </trkpt>
      <trkpt lat="46.49794" lon="5.65393">
        <ele>498</ele>
        <time>2022-04-04T17:08:14Z</time>
      </trkpt>
      <trkpt lat="46.49816" lon="5.65375">
        <ele>494</ele>
        <time>2022-04-04T17:08:19Z</time>
      </trkpt>
      <trkpt lat="46.49829" lon="5.65372">
        <ele>493</ele>
        <time>2022-04-04T17:08:21Z</time>
      </trkpt>
      <trkpt lat="46.49837" lon="5.65372">
        <ele>493</ele>
        <time>2022-04-04T17:08:23Z</time>
      </trkpt>
      <trkpt lat="46.49855" lon="5.6538">
        <ele>493</ele>
        <time>2022-04-04T17:08:26Z</time>
      </trkpt>
      <trkpt lat="46.49863" lon="5.65385">
        <ele>494</ele>
        <time>2022-04-04T17:08:28Z</time>
      </trkpt>
      <trkpt lat="46.49871" lon="5.65388">
        <ele>494</ele>
        <time>2022-04-04T17:08:29Z</time>
      </trkpt>
      <trkpt lat="46.49906" lon="5.65385">
        <ele>489</ele>
        <time>2022-04-04T17:08:35Z</time>
      </trkpt>
      <trkpt lat="46.49975" lon="5.65404">
        <ele>483</ele>
        <time>2022-04-04T17:08:48Z</time>
      </trkpt>
      <trkpt lat="46.50008" lon="5.65423">
        <ele>483</ele>
        <time>2022-04-04T17:08:54Z</time>
      </trkpt>
      <trkpt lat="46.5003" lon="5.65446">
        <ele>487</ele>
        <time>2022-04-04T17:08:59Z</time>
      </trkpt>
      <trkpt lat="46.50044" lon="5.65456">
        <ele>488</ele>
        <time>2022-04-04T17:09:02Z</time>
      </trkpt>
      <trkpt lat="46.50076" lon="5.6547">
        <ele>485</ele>
        <time>2022-04-04T17:09:08Z</time>
      </trkpt>
      <trkpt lat="46.50093" lon="5.65479">
        <ele>484</ele>
        <time>2022-04-04T17:09:11Z</time>
      </trkpt>
      <trkpt lat="46.50144" lon="5.65511">
        <ele>480</ele>
        <time>2022-04-04T17:09:21Z</time>
      </trkpt>
      <trkpt lat="46.5017" lon="5.65529">
        <ele>479</ele>
        <time>2022-04-04T17:09:26Z</time>
      </trkpt>
      <trkpt lat="46.50191" lon="5.65546">
        <ele>480</ele>
        <time>2022-04-04T17:09:30Z</time>
      </trkpt>
      <trkpt lat="46.50203" lon="5.65552">
        <ele>480</ele>
        <time>2022-04-04T17:09:32Z</time>
      </trkpt>
      <trkpt lat="46.50213" lon="5.65553">
        <ele>478</ele>
        <time>2022-04-04T17:09:34Z</time>
      </trkpt>
      <trkpt lat="46.50241" lon="5.65549">
        <ele>473</ele>
        <time>2022-04-04T17:09:39Z</time>
      </trkpt>
      <trkpt lat="46.50257" lon="5.65555">
        <ele>472</ele>
        <time>2022-04-04T17:09:42Z</time>
      </trkpt>
      <trkpt lat="46.50268" lon="5.65564">
        <ele>472</ele>
        <time>2022-04-04T17:09:44Z</time>
      </trkpt>
      <trkpt lat="46.50296" lon="5.65596">
        <ele>472</ele>
        <time>2022-04-04T17:09:51Z</time>
      </trkpt>
      <trkpt lat="46.50308" lon="5.65607">
        <ele>473</ele>
        <time>2022-04-04T17:09:53Z</time>
      </trkpt>
      <trkpt lat="46.5035" lon="5.65636">
        <ele>469</ele>
        <time>2022-04-04T17:10:02Z</time>
      </trkpt>
      <trkpt lat="46.50368" lon="5.65643">
        <ele>467</ele>
        <time>2022-04-04T17:10:05Z</time>
      </trkpt>
      <trkpt lat="46.50385" lon="5.65641">
        <ele>464</ele>
        <time>2022-04-04T17:10:08Z</time>
      </trkpt>
      <trkpt lat="46.50395" lon="5.65635">
        <ele>461</ele>
        <time>2022-04-04T17:10:10Z</time>
      </trkpt>
      <trkpt lat="46.50405" lon="5.65627">
        <ele>459</ele>
        <time>2022-04-04T17:10:12Z</time>
      </trkpt>
      <trkpt lat="46.50441" lon="5.65579">
        <ele>453</ele>
        <time>2022-04-04T17:10:21Z</time>
      </trkpt>
      <trkpt lat="46.5045" lon="5.65586">
        <ele>453</ele>
        <time>2022-04-04T17:10:22Z</time>
      </trkpt>
      <trkpt lat="46.50612" lon="5.656">
        <ele>448</ele>
        <time>2022-04-04T17:10:51Z</time>
      </trkpt>
      <trkpt lat="46.50636" lon="5.65604">
        <ele>447</ele>
        <time>2022-04-04T17:10:56Z</time>
      </trkpt>
      <trkpt lat="46.50673" lon="5.65615">
        <ele>446</ele>
        <time>2022-04-04T17:11:02Z</time>
      </trkpt>
      <trkpt lat="46.50767" lon="5.65654">
        <ele>446</ele>
        <time>2022-04-04T17:11:20Z</time>
      </trkpt>
      <trkpt lat="46.50783" lon="5.65664">
        <ele>446</ele>
        <time>2022-04-04T17:11:23Z</time>
      </trkpt>
      <trkpt lat="46.50815" lon="5.65697">
        <ele>446</ele>
        <time>2022-04-04T17:11:30Z</time>
      </trkpt>
      <trkpt lat="46.50823" lon="5.65702">
        <ele>447</ele>
        <time>2022-04-04T17:11:31Z</time>
      </trkpt>
      <trkpt lat="46.50843" lon="5.65712">
        <ele>447</ele>
        <time>2022-04-04T17:11:35Z</time>
      </trkpt>
      <trkpt lat="46.50875" lon="5.65733">
        <ele>449</ele>
        <time>2022-04-04T17:11:41Z</time>
      </trkpt>
      <trkpt lat="46.50898" lon="5.65744">
        <ele>451</ele>
        <time>2022-04-04T17:11:46Z</time>
      </trkpt>
      <trkpt lat="46.50914" lon="5.65748">
        <ele>452</ele>
        <time>2022-04-04T17:11:49Z</time>
      </trkpt>
      <trkpt lat="46.50976" lon="5.65755">
        <ele>451</ele>
        <time>2022-04-04T17:12:00Z</time>
      </trkpt>
      <trkpt lat="46.51021" lon="5.65768">
        <ele>452</ele>
        <time>2022-04-04T17:12:08Z</time>
      </trkpt>
      <trkpt lat="46.51079" lon="5.65781">
        <ele>451</ele>
        <time>2022-04-04T17:12:18Z</time>
      </trkpt>
      <trkpt lat="46.51165" lon="5.65791">
        <ele>454</ele>
        <time>2022-04-04T17:12:34Z</time>
      </trkpt>
      <trkpt lat="46.51176" lon="5.65794">
        <ele>454</ele>
        <time>2022-04-04T17:12:36Z</time>
      </trkpt>
      <trkpt lat="46.51191" lon="5.65801">
        <ele>454</ele>
        <time>2022-04-04T17:12:38Z</time>
      </trkpt>
      <trkpt lat="46.51211" lon="5.65818">
        <ele>454</ele>
        <time>2022-04-04T17:12:42Z</time>
      </trkpt>
      <trkpt lat="46.51275" lon="5.6589">
        <ele>456</ele>
        <time>2022-04-04T17:12:57Z</time>
      </trkpt>
      <trkpt lat="46.5134" lon="5.65943">
        <ele>458</ele>
        <time>2022-04-04T17:13:10Z</time>
      </trkpt>
      <trkpt lat="46.5141" lon="5.65977">
        <ele>459</ele>
        <time>2022-04-04T17:13:23Z</time>
      </trkpt>
      <trkpt lat="46.51463" lon="5.65996">
        <ele>457</ele>
        <time>2022-04-04T17:13:33Z</time>
      </trkpt>
      <trkpt lat="46.51531" lon="5.66038">
        <ele>460</ele>
        <time>2022-04-04T17:13:46Z</time>
      </trkpt>
      <trkpt lat="46.51617" lon="5.66115">
        <ele>461</ele>
        <time>2022-04-04T17:14:04Z</time>
      </trkpt>
      <trkpt lat="46.51666" lon="5.6617">
        <ele>455</ele>
        <time>2022-04-04T17:14:15Z</time>
      </trkpt>
      <trkpt lat="46.51686" lon="5.66197">
        <ele>456</ele>
        <time>2022-04-04T17:14:20Z</time>
      </trkpt>
      <trkpt lat="46.51699" lon="5.6621">
        <ele>456</ele>
        <time>2022-04-04T17:14:23Z</time>
      </trkpt>
      <trkpt lat="46.51779" lon="5.6627">
        <ele>455</ele>
        <time>2022-04-04T17:14:39Z</time>
      </trkpt>
      <trkpt lat="46.51844" lon="5.66305">
        <ele>457</ele>
        <time>2022-04-04T17:14:51Z</time>
      </trkpt>
      <trkpt lat="46.51863" lon="5.66318">
        <ele>458</ele>
        <time>2022-04-04T17:14:55Z</time>
      </trkpt>
      <trkpt lat="46.51992" lon="5.66427">
        <ele>459</ele>
        <time>2022-04-04T17:15:21Z</time>
      </trkpt>
      <trkpt lat="46.52009" lon="5.6644">
        <ele>458</ele>
        <time>2022-04-04T17:15:25Z</time>
      </trkpt>
      <trkpt lat="46.52065" lon="5.66472">
        <ele>455</ele>
        <time>2022-04-04T17:15:36Z</time>
      </trkpt>
      <trkpt lat="46.52094" lon="5.66484">
        <ele>454</ele>
        <time>2022-04-04T17:15:41Z</time>
      </trkpt>
      <trkpt lat="46.52125" lon="5.66488">
        <ele>454</ele>
        <time>2022-04-04T17:15:46Z</time>
      </trkpt>
      <trkpt lat="46.52232" lon="5.66484">
        <ele>460</ele>
        <time>2022-04-04T17:16:05Z</time>
      </trkpt>
      <trkpt lat="46.52244" lon="5.66491">
        <ele>462</ele>
        <time>2022-04-04T17:16:08Z</time>
      </trkpt>
      <trkpt lat="46.52264" lon="5.66523">
        <ele>470</ele>
        <time>2022-04-04T17:16:13Z</time>
      </trkpt>
      <trkpt lat="46.52344" lon="5.66413">
        <ele>474</ele>
        <time>2022-04-04T17:16:33Z</time>
      </trkpt>
      <trkpt lat="46.52369" lon="5.66373">
        <ele>475</ele>
        <time>2022-04-04T17:16:39Z</time>
      </trkpt>
      <trkpt lat="46.52384" lon="5.66366">
        <ele>476</ele>
        <time>2022-04-04T17:16:42Z</time>
      </trkpt>
      <trkpt lat="46.52397" lon="5.66366">
        <ele>477</ele>
        <time>2022-04-04T17:16:44Z</time>
      </trkpt>
      <trkpt lat="46.52414" lon="5.66373">
        <ele>480</ele>
        <time>2022-04-04T17:16:48Z</time>
      </trkpt>
      <trkpt lat="46.52468" lon="5.6638">
        <ele>482</ele>
        <time>2022-04-04T17:16:57Z</time>
      </trkpt>
      <trkpt lat="46.52489" lon="5.66385">
        <ele>483</ele>
        <time>2022-04-04T17:17:01Z</time>
      </trkpt>
      <trkpt lat="46.52579" lon="5.66395">
        <ele>483</ele>
        <time>2022-04-04T17:17:17Z</time>
      </trkpt>
      <trkpt lat="46.52588" lon="5.66399">
        <ele>484</ele>
        <time>2022-04-04T17:17:19Z</time>
      </trkpt>
      <trkpt lat="46.52589" lon="5.66403">
        <ele>484</ele>
        <time>2022-04-04T17:17:19Z</time>
      </trkpt>
      <trkpt lat="46.52593" lon="5.66406">
        <ele>485</ele>
        <time>2022-04-04T17:17:20Z</time>
      </trkpt>
      <trkpt lat="46.52595" lon="5.66404">
        <ele>484</ele>
        <time>2022-04-04T17:17:20Z</time>
      </trkpt>
      <trkpt lat="46.52597" lon="5.664">
        <ele>484</ele>
        <time>2022-04-04T17:17:21Z</time>
      </trkpt>
      <trkpt lat="46.52596" lon="5.66396">
        <ele>484</ele>
        <time>2022-04-04T17:17:22Z</time>
      </trkpt>
      <trkpt lat="46.52593" lon="5.66393">
        <ele>483</ele>
        <time>2022-04-04T17:17:22Z</time>
      </trkpt>
      <trkpt lat="46.52596" lon="5.66376">
        <ele>482</ele>
        <time>2022-04-04T17:17:24Z</time>
      </trkpt>
      <trkpt lat="46.52605" lon="5.66308">
        <ele>477</ele>
        <time>2022-04-04T17:17:33Z</time>
      </trkpt>
      <trkpt lat="46.52619" lon="5.66245">
        <ele>473</ele>
        <time>2022-04-04T17:17:41Z</time>
      </trkpt>
      <trkpt lat="46.52635" lon="5.66202">
        <ele>473</ele>
        <time>2022-04-04T17:17:47Z</time>
      </trkpt>
      <trkpt lat="46.52667" lon="5.66127">
        <ele>474</ele>
        <time>2022-04-04T17:17:58Z</time>
      </trkpt>
      <trkpt lat="46.52673" lon="5.66124">
        <ele>474</ele>
        <time>2022-04-04T17:17:59Z</time>
      </trkpt>
      <trkpt lat="46.52667" lon="5.66127">
        <ele>474</ele>
        <time>2022-04-04T17:18:00Z</time>
      </trkpt>
      <trkpt lat="46.5267" lon="5.66085">
        <ele>476</ele>
        <time>2022-04-04T17:18:05Z</time>
      </trkpt>
      <trkpt lat="46.52672" lon="5.65869">
        <ele>482</ele>
        <time>2022-04-04T17:18:32Z</time>
      </trkpt>
      <trkpt lat="46.52674" lon="5.65801">
        <ele>484</ele>
        <time>2022-04-04T17:18:40Z</time>
      </trkpt>
      <trkpt lat="46.52673" lon="5.65791">
        <ele>484</ele>
        <time>2022-04-04T17:18:41Z</time>
      </trkpt>
      <trkpt lat="46.52666" lon="5.65787">
        <ele>484</ele>
        <time>2022-04-04T17:18:43Z</time>
      </trkpt>
      <trkpt lat="46.5265" lon="5.65768">
        <ele>484</ele>
        <time>2022-04-04T17:18:46Z</time>
      </trkpt>
      <trkpt lat="46.52643" lon="5.65771">
        <ele>484</ele>
        <time>2022-04-04T17:18:48Z</time>
      </trkpt>
      <trkpt lat="46.52659" lon="5.65723">
        <ele>484</ele>
        <time>2022-04-04T17:18:54Z</time>
      </trkpt>
      <trkpt lat="46.52675" lon="5.65643">
        <ele>485</ele>
        <time>2022-04-04T17:19:04Z</time>
      </trkpt>
      <trkpt lat="46.52682" lon="5.65596">
        <ele>486</ele>
        <time>2022-04-04T17:19:10Z</time>
      </trkpt>
      <trkpt lat="46.52693" lon="5.65478">
        <ele>490</ele>
        <time>2022-04-04T17:19:25Z</time>
      </trkpt>
      <trkpt lat="46.52779" lon="5.64373">
        <ele>520</ele>
        <time>2022-04-04T17:21:41Z</time>
      </trkpt>
      <trkpt lat="46.52787" lon="5.64247">
        <ele>522</ele>
        <time>2022-04-04T17:21:56Z</time>
      </trkpt>
      <trkpt lat="46.52787" lon="5.64205">
        <ele>523</ele>
        <time>2022-04-04T17:22:01Z</time>
      </trkpt>
      <trkpt lat="46.52783" lon="5.6416">
        <ele>523</ele>
        <time>2022-04-04T17:22:07Z</time>
      </trkpt>
      <trkpt lat="46.52779" lon="5.64136">
        <ele>524</ele>
        <time>2022-04-04T17:22:10Z</time>
      </trkpt>
      <trkpt lat="46.52767" lon="5.64094">
        <ele>524</ele>
        <time>2022-04-04T17:22:16Z</time>
      </trkpt>
      <trkpt lat="46.52753" lon="5.64055">
        <ele>524</ele>
        <time>2022-04-04T17:22:21Z</time>
      </trkpt>
      <trkpt lat="46.52742" lon="5.64034">
        <ele>523</ele>
        <time>2022-04-04T17:22:24Z</time>
      </trkpt>
      <trkpt lat="46.5273" lon="5.64012">
        <ele>522</ele>
        <time>2022-04-04T17:22:28Z</time>
      </trkpt>
      <trkpt lat="46.52686" lon="5.63947">
        <ele>528</ele>
        <time>2022-04-04T17:22:39Z</time>
      </trkpt>
      <trkpt lat="46.52675" lon="5.63927">
        <ele>530</ele>
        <time>2022-04-04T17:22:42Z</time>
      </trkpt>
      <trkpt lat="46.52661" lon="5.63891">
        <ele>535</ele>
        <time>2022-04-04T17:22:47Z</time>
      </trkpt>
      <trkpt lat="46.52655" lon="5.63871">
        <ele>539</ele>
        <time>2022-04-04T17:22:50Z</time>
      </trkpt>
      <trkpt lat="46.52647" lon="5.63829">
        <ele>544</ele>
        <time>2022-04-04T17:22:55Z</time>
      </trkpt>
      <trkpt lat="46.52645" lon="5.63812">
        <ele>543</ele>
        <time>2022-04-04T17:22:57Z</time>
      </trkpt>
      <trkpt lat="46.52644" lon="5.63774">
        <ele>540</ele>
        <time>2022-04-04T17:23:02Z</time>
      </trkpt>
      <trkpt lat="46.52645" lon="5.63754">
        <ele>538</ele>
        <time>2022-04-04T17:23:04Z</time>
      </trkpt>
      <trkpt lat="46.52649" lon="5.63725">
        <ele>534</ele>
        <time>2022-04-04T17:23:08Z</time>
      </trkpt>
      <trkpt lat="46.52673" lon="5.63627">
        <ele>522</ele>
        <time>2022-04-04T17:23:21Z</time>
      </trkpt>
      <trkpt lat="46.52681" lon="5.63583">
        <ele>520</ele>
        <time>2022-04-04T17:23:26Z</time>
      </trkpt>
      <trkpt lat="46.52686" lon="5.6353">
        <ele>518</ele>
        <time>2022-04-04T17:23:33Z</time>
      </trkpt>
      <trkpt lat="46.52688" lon="5.63473">
        <ele>515</ele>
        <time>2022-04-04T17:23:40Z</time>
      </trkpt>
      <trkpt lat="46.52679" lon="5.63395">
        <ele>512</ele>
        <time>2022-04-04T17:23:49Z</time>
      </trkpt>
      <trkpt lat="46.52666" lon="5.63306">
        <ele>511</ele>
        <time>2022-04-04T17:24:01Z</time>
      </trkpt>
      <trkpt lat="46.52664" lon="5.63251">
        <ele>512</ele>
        <time>2022-04-04T17:24:07Z</time>
      </trkpt>
      <trkpt lat="46.52667" lon="5.63245">
        <ele>512</ele>
        <time>2022-04-04T17:24:08Z</time>
      </trkpt>
      <trkpt lat="46.52677" lon="5.63239">
        <ele>512</ele>
        <time>2022-04-04T17:24:10Z</time>
      </trkpt>
      <trkpt lat="46.52665" lon="5.63235">
        <ele>512</ele>
        <time>2022-04-04T17:24:12Z</time>
      </trkpt>
      <trkpt lat="46.52659" lon="5.63229">
        <ele>512</ele>
        <time>2022-04-04T17:24:14Z</time>
      </trkpt>
      <trkpt lat="46.52646" lon="5.63179">
        <ele>513</ele>
        <time>2022-04-04T17:24:20Z</time>
      </trkpt>
      <trkpt lat="46.52627" lon="5.63119">
        <ele>513</ele>
        <time>2022-04-04T17:24:28Z</time>
      </trkpt>
      <trkpt lat="46.52576" lon="5.62914">
        <ele>511</ele>
        <time>2022-04-04T17:24:55Z</time>
      </trkpt>
      <trkpt lat="46.52556" lon="5.62841">
        <ele>510</ele>
        <time>2022-04-04T17:25:05Z</time>
      </trkpt>
      <trkpt lat="46.52492" lon="5.62629">
        <ele>503</ele>
        <time>2022-04-04T17:25:33Z</time>
      </trkpt>
      <trkpt lat="46.52479" lon="5.62591">
        <ele>502</ele>
        <time>2022-04-04T17:25:38Z</time>
      </trkpt>
      <trkpt lat="46.52465" lon="5.62562">
        <ele>499</ele>
        <time>2022-04-04T17:25:42Z</time>
      </trkpt>
      <trkpt lat="46.52411" lon="5.62478">
        <ele>493</ele>
        <time>2022-04-04T17:25:56Z</time>
      </trkpt>
      <trkpt lat="46.52401" lon="5.62459">
        <ele>493</ele>
        <time>2022-04-04T17:25:59Z</time>
      </trkpt>
      <trkpt lat="46.52387" lon="5.62421">
        <ele>492</ele>
        <time>2022-04-04T17:26:05Z</time>
      </trkpt>
      <trkpt lat="46.52378" lon="5.62391">
        <ele>491</ele>
        <time>2022-04-04T17:26:09Z</time>
      </trkpt>
      <trkpt lat="46.52373" lon="5.62365">
        <ele>490</ele>
        <time>2022-04-04T17:26:12Z</time>
      </trkpt>
      <trkpt lat="46.52369" lon="5.62322">
        <ele>488</ele>
        <time>2022-04-04T17:26:17Z</time>
      </trkpt>
      <trkpt lat="46.52376" lon="5.62187">
        <ele>486</ele>
        <time>2022-04-04T17:26:34Z</time>
      </trkpt>
      <trkpt lat="46.52393" lon="5.61912">
        <ele>486</ele>
        <time>2022-04-04T17:27:08Z</time>
      </trkpt>
      <trkpt lat="46.52394" lon="5.61869">
        <ele>487</ele>
        <time>2022-04-04T17:27:13Z</time>
      </trkpt>
      <trkpt lat="46.52392" lon="5.61845">
        <ele>488</ele>
        <time>2022-04-04T17:27:16Z</time>
      </trkpt>
      <trkpt lat="46.5236" lon="5.61682">
        <ele>496</ele>
        <time>2022-04-04T17:27:37Z</time>
      </trkpt>
      <trkpt lat="46.52351" lon="5.61648">
        <ele>499</ele>
        <time>2022-04-04T17:27:41Z</time>
      </trkpt>
      <trkpt lat="46.52344" lon="5.61636">
        <ele>500</ele>
        <time>2022-04-04T17:27:43Z</time>
      </trkpt>
      <trkpt lat="46.52328" lon="5.6162">
        <ele>501</ele>
        <time>2022-04-04T17:27:47Z</time>
      </trkpt>
      <trkpt lat="46.5228" lon="5.61582">
        <ele>500</ele>
        <time>2022-04-04T17:27:56Z</time>
      </trkpt>
      <trkpt lat="46.52217" lon="5.61516">
        <ele>501</ele>
        <time>2022-04-04T17:28:10Z</time>
      </trkpt>
      <trkpt lat="46.52131" lon="5.6142">
        <ele>499</ele>
        <time>2022-04-04T17:28:29Z</time>
      </trkpt>
      <trkpt lat="46.52124" lon="5.61411">
        <ele>499</ele>
        <time>2022-04-04T17:28:31Z</time>
      </trkpt>
      <trkpt lat="46.52113" lon="5.6139">
        <ele>499</ele>
        <time>2022-04-04T17:28:34Z</time>
      </trkpt>
      <trkpt lat="46.52107" lon="5.61358">
        <ele>500</ele>
        <time>2022-04-04T17:28:38Z</time>
      </trkpt>
      <trkpt lat="46.52096" lon="5.61287">
        <ele>503</ele>
        <time>2022-04-04T17:28:47Z</time>
      </trkpt>
      <trkpt lat="46.52099" lon="5.61215">
        <ele>507</ele>
        <time>2022-04-04T17:28:56Z</time>
      </trkpt>
      <trkpt lat="46.52098" lon="5.61192">
        <ele>508</ele>
        <time>2022-04-04T17:28:59Z</time>
      </trkpt>
      <trkpt lat="46.52092" lon="5.61124">
        <ele>508</ele>
        <time>2022-04-04T17:29:07Z</time>
      </trkpt>
      <trkpt lat="46.521" lon="5.61077">
        <ele>508</ele>
        <time>2022-04-04T17:29:13Z</time>
      </trkpt>
      <trkpt lat="46.52103" lon="5.6107">
        <ele>508</ele>
        <time>2022-04-04T17:29:14Z</time>
      </trkpt>
      <trkpt lat="46.52104" lon="5.61064">
        <ele>508</ele>
        <time>2022-04-04T17:29:15Z</time>
      </trkpt>
      <trkpt lat="46.52102" lon="5.61053">
        <ele>507</ele>
        <time>2022-04-04T17:29:16Z</time>
      </trkpt>
      <trkpt lat="46.52099" lon="5.61049">
        <ele>507</ele>
        <time>2022-04-04T17:29:17Z</time>
      </trkpt>
      <trkpt lat="46.52098" lon="5.61036">
        <ele>507</ele>
        <time>2022-04-04T17:29:19Z</time>
      </trkpt>
      <trkpt lat="46.52102" lon="5.61022">
        <ele>507</ele>
        <time>2022-04-04T17:29:21Z</time>
      </trkpt>
      <trkpt lat="46.52126" lon="5.60993">
        <ele>507</ele>
        <time>2022-04-04T17:29:26Z</time>
      </trkpt>
      <trkpt lat="46.52134" lon="5.60979">
        <ele>508</ele>
        <time>2022-04-04T17:29:28Z</time>
      </trkpt>
      <trkpt lat="46.52142" lon="5.60945">
        <ele>508</ele>
        <time>2022-04-04T17:29:33Z</time>
      </trkpt>
      <trkpt lat="46.5215" lon="5.60867">
        <ele>510</ele>
        <time>2022-04-04T17:29:42Z</time>
      </trkpt>
      <trkpt lat="46.52159" lon="5.60817">
        <ele>511</ele>
        <time>2022-04-04T17:29:49Z</time>
      </trkpt>
      <trkpt lat="46.5216" lon="5.60801">
        <ele>511</ele>
        <time>2022-04-04T17:29:51Z</time>
      </trkpt>
      <trkpt lat="46.52156" lon="5.60761">
        <ele>510</ele>
        <time>2022-04-04T17:29:56Z</time>
      </trkpt>
      <trkpt lat="46.52157" lon="5.60745">
        <ele>509</ele>
        <time>2022-04-04T17:29:58Z</time>
      </trkpt>
      <trkpt lat="46.52162" lon="5.60729">
        <ele>509</ele>
        <time>2022-04-04T17:30:00Z</time>
      </trkpt>
      <trkpt lat="46.52169" lon="5.60722">
        <ele>508</ele>
        <time>2022-04-04T17:30:01Z</time>
      </trkpt>
      <trkpt lat="46.52185" lon="5.60715">
        <ele>508</ele>
        <time>2022-04-04T17:30:04Z</time>
      </trkpt>
      <trkpt lat="46.52232" lon="5.60704">
        <ele>508</ele>
        <time>2022-04-04T17:30:13Z</time>
      </trkpt>
      <trkpt lat="46.52241" lon="5.60697">
        <ele>507</ele>
        <time>2022-04-04T17:30:14Z</time>
      </trkpt>
      <trkpt lat="46.52253" lon="5.60683">
        <ele>506</ele>
        <time>2022-04-04T17:30:17Z</time>
      </trkpt>
      <trkpt lat="46.5226" lon="5.60668">
        <ele>505</ele>
        <time>2022-04-04T17:30:19Z</time>
      </trkpt>
      <trkpt lat="46.52262" lon="5.60658">
        <ele>504</ele>
        <time>2022-04-04T17:30:21Z</time>
      </trkpt>
      <trkpt lat="46.52294" lon="5.60256">
        <ele>497</ele>
        <time>2022-04-04T17:31:10Z</time>
      </trkpt>
      <trkpt lat="46.52611" lon="5.56115">
        <ele>482</ele>
        <time>2022-04-04T17:39:40Z</time>
      </trkpt>
      <trkpt lat="46.52711" lon="5.54835">
        <ele>490</ele>
        <time>2022-04-04T17:42:18Z</time>
      </trkpt>
      <trkpt lat="46.52724" lon="5.54651">
        <ele>494</ele>
        <time>2022-04-04T17:42:41Z</time>
      </trkpt>
      <trkpt lat="46.52726" lon="5.54635">
        <ele>495</ele>
        <time>2022-04-04T17:42:43Z</time>
      </trkpt>
      <trkpt lat="46.52731" lon="5.54618">
        <ele>497</ele>
        <time>2022-04-04T17:42:45Z</time>
      </trkpt>
      <trkpt lat="46.52737" lon="5.5461">
        <ele>498</ele>
        <time>2022-04-04T17:42:46Z</time>
      </trkpt>
      <trkpt lat="46.52731" lon="5.54618">
        <ele>497</ele>
        <time>2022-04-04T17:42:48Z</time>
      </trkpt>
      <trkpt lat="46.52724" lon="5.54599">
        <ele>498</ele>
        <time>2022-04-04T17:42:50Z</time>
      </trkpt>
      <trkpt lat="46.52714" lon="5.54581">
        <ele>499</ele>
        <time>2022-04-04T17:42:53Z</time>
      </trkpt>
      <trkpt lat="46.52657" lon="5.54508">
        <ele>508</ele>
        <time>2022-04-04T17:43:07Z</time>
      </trkpt>
      <trkpt lat="46.52638" lon="5.5449">
        <ele>512</ele>
        <time>2022-04-04T17:43:11Z</time>
      </trkpt>
      <trkpt lat="46.52622" lon="5.54482">
        <ele>513</ele>
        <time>2022-04-04T17:43:14Z</time>
      </trkpt>
      <trkpt lat="46.52591" lon="5.54478">
        <ele>513</ele>
        <time>2022-04-04T17:43:19Z</time>
      </trkpt>
      <trkpt lat="46.52571" lon="5.54473">
        <ele>513</ele>
        <time>2022-04-04T17:43:23Z</time>
      </trkpt>
      <trkpt lat="46.52551" lon="5.54461">
        <ele>515</ele>
        <time>2022-04-04T17:43:27Z</time>
      </trkpt>
      <trkpt lat="46.52493" lon="5.54417">
        <ele>521</ele>
        <time>2022-04-04T17:43:39Z</time>
      </trkpt>
      <trkpt lat="46.52457" lon="5.54379">
        <ele>526</ele>
        <time>2022-04-04T17:43:46Z</time>
      </trkpt>
      <trkpt lat="46.52439" lon="5.54369">
        <ele>527</ele>
        <time>2022-04-04T17:43:50Z</time>
      </trkpt>
      <trkpt lat="46.52393" lon="5.54358">
        <ele>526</ele>
        <time>2022-04-04T17:43:58Z</time>
      </trkpt>
      <trkpt lat="46.52367" lon="5.54349">
        <ele>526</ele>
        <time>2022-04-04T17:44:03Z</time>
      </trkpt>
      <trkpt lat="46.52329" lon="5.54332">
        <ele>528</ele>
        <time>2022-04-04T17:44:10Z</time>
      </trkpt>
      <trkpt lat="46.52282" lon="5.54301">
        <ele>530</ele>
        <time>2022-04-04T17:44:19Z</time>
      </trkpt>
      <trkpt lat="46.52222" lon="5.54278">
        <ele>530</ele>
        <time>2022-04-04T17:44:30Z</time>
      </trkpt>
      <trkpt lat="46.52187" lon="5.54255">
        <ele>533</ele>
        <time>2022-04-04T17:44:37Z</time>
      </trkpt>
      <trkpt lat="46.52168" lon="5.54237">
        <ele>534</ele>
        <time>2022-04-04T17:44:41Z</time>
      </trkpt>
      <trkpt lat="46.52147" lon="5.54224">
        <ele>535</ele>
        <time>2022-04-04T17:44:45Z</time>
      </trkpt>
      <trkpt lat="46.52119" lon="5.54216">
        <ele>535</ele>
        <time>2022-04-04T17:44:50Z</time>
      </trkpt>
      <trkpt lat="46.52097" lon="5.54208">
        <ele>535</ele>
        <time>2022-04-04T17:44:54Z</time>
      </trkpt>
      <trkpt lat="46.5203" lon="5.54168">
        <ele>538</ele>
        <time>2022-04-04T17:45:07Z</time>
      </trkpt>
      <trkpt lat="46.51943" lon="5.54121">
        <ele>546</ele>
        <time>2022-04-04T17:45:24Z</time>
      </trkpt>
      <trkpt lat="46.51917" lon="5.54105">
        <ele>548</ele>
        <time>2022-04-04T17:45:29Z</time>
      </trkpt>
      <trkpt lat="46.51899" lon="5.54087">
        <ele>550</ele>
        <time>2022-04-04T17:45:33Z</time>
      </trkpt>
      <trkpt lat="46.51879" lon="5.5406">
        <ele>552</ele>
        <time>2022-04-04T17:45:37Z</time>
      </trkpt>
      <trkpt lat="46.51872" lon="5.54042">
        <ele>553</ele>
        <time>2022-04-04T17:45:40Z</time>
      </trkpt>
      <trkpt lat="46.51867" lon="5.54021">
        <ele>554</ele>
        <time>2022-04-04T17:45:43Z</time>
      </trkpt>
      <trkpt lat="46.51859" lon="5.53981">
        <ele>556</ele>
        <time>2022-04-04T17:45:48Z</time>
      </trkpt>
      <trkpt lat="46.51856" lon="5.53923">
        <ele>559</ele>
        <time>2022-04-04T17:45:55Z</time>
      </trkpt>
      <trkpt lat="46.51858" lon="5.53865">
        <ele>558</ele>
        <time>2022-04-04T17:46:02Z</time>
      </trkpt>
      <trkpt lat="46.51862" lon="5.53834">
        <ele>557</ele>
        <time>2022-04-04T17:46:06Z</time>
      </trkpt>
      <trkpt lat="46.51877" lon="5.53765">
        <ele>549</ele>
        <time>2022-04-04T17:46:15Z</time>
      </trkpt>
      <trkpt lat="46.51879" lon="5.53746">
        <ele>546</ele>
        <time>2022-04-04T17:46:17Z</time>
      </trkpt>
      <trkpt lat="46.51878" lon="5.53725">
        <ele>543</ele>
        <time>2022-04-04T17:46:20Z</time>
      </trkpt>
      <trkpt lat="46.51871" lon="5.53701">
        <ele>539</ele>
        <time>2022-04-04T17:46:23Z</time>
      </trkpt>
      <trkpt lat="46.51866" lon="5.53689">
        <ele>537</ele>
        <time>2022-04-04T17:46:25Z</time>
      </trkpt>
      <trkpt lat="46.51859" lon="5.53679">
        <ele>535</ele>
        <time>2022-04-04T17:46:26Z</time>
      </trkpt>
      <trkpt lat="46.51842" lon="5.53665">
        <ele>532</ele>
        <time>2022-04-04T17:46:30Z</time>
      </trkpt>
      <trkpt lat="46.51819" lon="5.53652">
        <ele>529</ele>
        <time>2022-04-04T17:46:34Z</time>
      </trkpt>
      <trkpt lat="46.51786" lon="5.53643">
        <ele>527</ele>
        <time>2022-04-04T17:46:40Z</time>
      </trkpt>
      <trkpt lat="46.51729" lon="5.53633">
        <ele>524</ele>
        <time>2022-04-04T17:46:50Z</time>
      </trkpt>
      <trkpt lat="46.51546" lon="5.53607">
        <ele>516</ele>
        <time>2022-04-04T17:47:23Z</time>
      </trkpt>
      <trkpt lat="46.51452" lon="5.53602">
        <ele>510</ele>
        <time>2022-04-04T17:47:40Z</time>
      </trkpt>
      <trkpt lat="46.51384" lon="5.53609">
        <ele>506</ele>
        <time>2022-04-04T17:47:52Z</time>
      </trkpt>
      <trkpt lat="46.51291" lon="5.53636">
        <ele>505</ele>
        <time>2022-04-04T17:48:09Z</time>
      </trkpt>
      <trkpt lat="46.51242" lon="5.53642">
        <ele>503</ele>
        <time>2022-04-04T17:48:18Z</time>
      </trkpt>
      <trkpt lat="46.51148" lon="5.53641">
        <ele>499</ele>
        <time>2022-04-04T17:48:34Z</time>
      </trkpt>
      <trkpt lat="46.51097" lon="5.53632">
        <ele>497</ele>
        <time>2022-04-04T17:48:43Z</time>
      </trkpt>
      <trkpt lat="46.51017" lon="5.53609">
        <ele>495</ele>
        <time>2022-04-04T17:48:58Z</time>
      </trkpt>
      <trkpt lat="46.50968" lon="5.53588">
        <ele>489</ele>
        <time>2022-04-04T17:49:07Z</time>
      </trkpt>
      <trkpt lat="46.50916" lon="5.53556">
        <ele>482</ele>
        <time>2022-04-04T17:49:17Z</time>
      </trkpt>
      <trkpt lat="46.5089" lon="5.53538">
        <ele>478</ele>
        <time>2022-04-04T17:49:22Z</time>
      </trkpt>
      <trkpt lat="46.50879" lon="5.53524">
        <ele>475</ele>
        <time>2022-04-04T17:49:25Z</time>
      </trkpt>
      <trkpt lat="46.50869" lon="5.53504">
        <ele>471</ele>
        <time>2022-04-04T17:49:28Z</time>
      </trkpt>
      <trkpt lat="46.50865" lon="5.53488">
        <ele>470</ele>
        <time>2022-04-04T17:49:30Z</time>
      </trkpt>
      <trkpt lat="46.50889" lon="5.53375">
        <ele>467</ele>
        <time>2022-04-04T17:49:44Z</time>
      </trkpt>
      <trkpt lat="46.50956" lon="5.53088">
        <ele>466</ele>
        <time>2022-04-04T17:50:22Z</time>
      </trkpt>
      <trkpt lat="46.50957" lon="5.53071">
        <ele>468</ele>
        <time>2022-04-04T17:50:24Z</time>
      </trkpt>
      <trkpt lat="46.50956" lon="5.53058">
        <ele>470</ele>
        <time>2022-04-04T17:50:25Z</time>
      </trkpt>
      <trkpt lat="46.50948" lon="5.53043">
        <ele>472</ele>
        <time>2022-04-04T17:50:28Z</time>
      </trkpt>
      <trkpt lat="46.50939" lon="5.53032">
        <ele>473</ele>
        <time>2022-04-04T17:50:30Z</time>
      </trkpt>
      <trkpt lat="46.50916" lon="5.53017">
        <ele>475</ele>
        <time>2022-04-04T17:50:34Z</time>
      </trkpt>
      <trkpt lat="46.50888" lon="5.53003">
        <ele>476</ele>
        <time>2022-04-04T17:50:39Z</time>
      </trkpt>
      <trkpt lat="46.50826" lon="5.52982">
        <ele>479</ele>
        <time>2022-04-04T17:50:51Z</time>
      </trkpt>
      <trkpt lat="46.50815" lon="5.52976">
        <ele>480</ele>
        <time>2022-04-04T17:50:53Z</time>
      </trkpt>
      <trkpt lat="46.50791" lon="5.52959">
        <ele>483</ele>
        <time>2022-04-04T17:50:58Z</time>
      </trkpt>
      <trkpt lat="46.50764" lon="5.52934">
        <ele>488</ele>
        <time>2022-04-04T17:51:03Z</time>
      </trkpt>
      <trkpt lat="46.5075" lon="5.52926">
        <ele>490</ele>
        <time>2022-04-04T17:51:06Z</time>
      </trkpt>
      <trkpt lat="46.50729" lon="5.52924">
        <ele>490</ele>
        <time>2022-04-04T17:51:10Z</time>
      </trkpt>
      <trkpt lat="46.50711" lon="5.52926">
        <ele>489</ele>
        <time>2022-04-04T17:51:13Z</time>
      </trkpt>
      <trkpt lat="46.50689" lon="5.52925">
        <ele>489</ele>
        <time>2022-04-04T17:51:17Z</time>
      </trkpt>
      <trkpt lat="46.5067" lon="5.52919">
        <ele>490</ele>
        <time>2022-04-04T17:51:20Z</time>
      </trkpt>
      <trkpt lat="46.50625" lon="5.52894">
        <ele>492</ele>
        <time>2022-04-04T17:51:29Z</time>
      </trkpt>
      <trkpt lat="46.50505" lon="5.52824">
        <ele>501</ele>
        <time>2022-04-04T17:51:52Z</time>
      </trkpt>
      <trkpt lat="46.50484" lon="5.5281">
        <ele>502</ele>
        <time>2022-04-04T17:51:56Z</time>
      </trkpt>
      <trkpt lat="46.50459" lon="5.52781">
        <ele>505</ele>
        <time>2022-04-04T17:52:02Z</time>
      </trkpt>
      <trkpt lat="46.50451" lon="5.52769">
        <ele>506</ele>
        <time>2022-04-04T17:52:04Z</time>
      </trkpt>
      <trkpt lat="46.50449" lon="5.52757">
        <ele>508</ele>
        <time>2022-04-04T17:52:05Z</time>
      </trkpt>
      <trkpt lat="46.50452" lon="5.52745">
        <ele>509</ele>
        <time>2022-04-04T17:52:07Z</time>
      </trkpt>
      <trkpt lat="46.50457" lon="5.52739">
        <ele>510</ele>
        <time>2022-04-04T17:52:08Z</time>
      </trkpt>
      <trkpt lat="46.50492" lon="5.52727">
        <ele>511</ele>
        <time>2022-04-04T17:52:14Z</time>
      </trkpt>
      <trkpt lat="46.50518" lon="5.52711">
        <ele>512</ele>
        <time>2022-04-04T17:52:19Z</time>
      </trkpt>
      <trkpt lat="46.5053" lon="5.52696">
        <ele>513</ele>
        <time>2022-04-04T17:52:22Z</time>
      </trkpt>
      <trkpt lat="46.50543" lon="5.52675">
        <ele>514</ele>
        <time>2022-04-04T17:52:26Z</time>
      </trkpt>
      <trkpt lat="46.50558" lon="5.52644">
        <ele>516</ele>
        <time>2022-04-04T17:52:30Z</time>
      </trkpt>
      <trkpt lat="46.50572" lon="5.52605">
        <ele>517</ele>
        <time>2022-04-04T17:52:36Z</time>
      </trkpt>
      <trkpt lat="46.50646" lon="5.52348">
        <ele>521</ele>
        <time>2022-04-04T17:53:10Z</time>
      </trkpt>
      <trkpt lat="46.50654" lon="5.52309">
        <ele>519</ele>
        <time>2022-04-04T17:53:15Z</time>
      </trkpt>
      <trkpt lat="46.50655" lon="5.52292">
        <ele>518</ele>
        <time>2022-04-04T17:53:17Z</time>
      </trkpt>
      <trkpt lat="46.50648" lon="5.5227">
        <ele>518</ele>
        <time>2022-04-04T17:53:20Z</time>
      </trkpt>
      <trkpt lat="46.50623" lon="5.52209">
        <ele>516</ele>
        <time>2022-04-04T17:53:29Z</time>
      </trkpt>
      <trkpt lat="46.50542" lon="5.51979">
        <ele>515</ele>
        <time>2022-04-04T17:54:00Z</time>
      </trkpt>
      <trkpt lat="46.50519" lon="5.51943">
        <ele>518</ele>
        <time>2022-04-04T17:54:06Z</time>
      </trkpt>
      <trkpt lat="46.50501" lon="5.51929">
        <ele>519</ele>
        <time>2022-04-04T17:54:10Z</time>
      </trkpt>
      <trkpt lat="46.50463" lon="5.51906">
        <ele>520</ele>
        <time>2022-04-04T17:54:17Z</time>
      </trkpt>
      <trkpt lat="46.5039" lon="5.51854">
        <ele>525</ele>
        <time>2022-04-04T17:54:32Z</time>
      </trkpt>
      <trkpt lat="46.50188" lon="5.51682">
        <ele>535</ele>
        <time>2022-04-04T17:55:13Z</time>
      </trkpt>
      <trkpt lat="46.50141" lon="5.51638">
        <ele>539</ele>
        <time>2022-04-04T17:55:23Z</time>
      </trkpt>
      <trkpt lat="46.50115" lon="5.51602">
        <ele>543</ele>
        <time>2022-04-04T17:55:30Z</time>
      </trkpt>
      <trkpt lat="46.49959" lon="5.51349">
        <ele>552</ele>
        <time>2022-04-04T17:56:11Z</time>
      </trkpt>
      <trkpt lat="46.49924" lon="5.51294">
        <ele>553</ele>
        <time>2022-04-04T17:56:20Z</time>
      </trkpt>
      <trkpt lat="46.49895" lon="5.51243">
        <ele>555</ele>
        <time>2022-04-04T17:56:28Z</time>
      </trkpt>
      <trkpt lat="46.49888" lon="5.51224">
        <ele>556</ele>
        <time>2022-04-04T17:56:31Z</time>
      </trkpt>
      <trkpt lat="46.49883" lon="5.5119">
        <ele>558</ele>
        <time>2022-04-04T17:56:35Z</time>
      </trkpt>
      <trkpt lat="46.49881" lon="5.51142">
        <ele>560</ele>
        <time>2022-04-04T17:56:41Z</time>
      </trkpt>
      <trkpt lat="46.49875" lon="5.51092">
        <ele>562</ele>
        <time>2022-04-04T17:56:47Z</time>
      </trkpt>
      <trkpt lat="46.49869" lon="5.51065">
        <ele>563</ele>
        <time>2022-04-04T17:56:51Z</time>
      </trkpt>
      <trkpt lat="46.49861" lon="5.51046">
        <ele>562</ele>
        <time>2022-04-04T17:56:54Z</time>
      </trkpt>
      <trkpt lat="46.49849" lon="5.51028">
        <ele>562</ele>
        <time>2022-04-04T17:56:57Z</time>
      </trkpt>
      <trkpt lat="46.49816" lon="5.51005">
        <ele>562</ele>
        <time>2022-04-04T17:57:03Z</time>
      </trkpt>
      <trkpt lat="46.49813" lon="5.50994">
        <ele>561</ele>
        <time>2022-04-04T17:57:05Z</time>
      </trkpt>
      <trkpt lat="46.49817" lon="5.50977">
        <ele>559</ele>
        <time>2022-04-04T17:57:07Z</time>
      </trkpt>
      <trkpt lat="46.49826" lon="5.50967">
        <ele>557</ele>
        <time>2022-04-04T17:57:09Z</time>
      </trkpt>
      <trkpt lat="46.49845" lon="5.50953">
        <ele>556</ele>
        <time>2022-04-04T17:57:13Z</time>
      </trkpt>
      <trkpt lat="46.49893" lon="5.5093">
        <ele>557</ele>
        <time>2022-04-04T17:57:22Z</time>
      </trkpt>
      <trkpt lat="46.49907" lon="5.50914">
        <ele>557</ele>
        <time>2022-04-04T17:57:25Z</time>
      </trkpt>
      <trkpt lat="46.49918" lon="5.50893">
        <ele>554</ele>
        <time>2022-04-04T17:57:28Z</time>
      </trkpt>
      <trkpt lat="46.49923" lon="5.50879">
        <ele>552</ele>
        <time>2022-04-04T17:57:30Z</time>
      </trkpt>
      <trkpt lat="46.49931" lon="5.50832">
        <ele>545</ele>
        <time>2022-04-04T17:57:36Z</time>
      </trkpt>
      <trkpt lat="46.49932" lon="5.50793">
        <ele>540</ele>
        <time>2022-04-04T17:57:41Z</time>
      </trkpt>
      <trkpt lat="46.49936" lon="5.50777">
        <ele>538</ele>
        <time>2022-04-04T17:57:43Z</time>
      </trkpt>
      <trkpt lat="46.49943" lon="5.50764">
        <ele>538</ele>
        <time>2022-04-04T17:57:45Z</time>
      </trkpt>
      <trkpt lat="46.4995" lon="5.50758">
        <ele>538</ele>
        <time>2022-04-04T17:57:46Z</time>
      </trkpt>
      <trkpt lat="46.49978" lon="5.50744">
        <ele>540</ele>
        <time>2022-04-04T17:57:52Z</time>
      </trkpt>
      <trkpt lat="46.50064" lon="5.50724">
        <ele>538</ele>
        <time>2022-04-04T17:58:07Z</time>
      </trkpt>
      <trkpt lat="46.50102" lon="5.50725">
        <ele>537</ele>
        <time>2022-04-04T17:58:14Z</time>
      </trkpt>
      <trkpt lat="46.50134" lon="5.50739">
        <ele>538</ele>
        <time>2022-04-04T17:58:20Z</time>
      </trkpt>
      <trkpt lat="46.50145" lon="5.5074">
        <ele>538</ele>
        <time>2022-04-04T17:58:22Z</time>
      </trkpt>
      <trkpt lat="46.50161" lon="5.50737">
        <ele>536</ele>
        <time>2022-04-04T17:58:25Z</time>
      </trkpt>
      <trkpt lat="46.50189" lon="5.50723">
        <ele>532</ele>
        <time>2022-04-04T17:58:30Z</time>
      </trkpt>
      <trkpt lat="46.50224" lon="5.50715">
        <ele>529</ele>
        <time>2022-04-04T17:58:36Z</time>
      </trkpt>
      <trkpt lat="46.5027" lon="5.50719">
        <ele>529</ele>
        <time>2022-04-04T17:58:44Z</time>
      </trkpt>
      <trkpt lat="46.5029" lon="5.50723">
        <ele>529</ele>
        <time>2022-04-04T17:58:48Z</time>
      </trkpt>
      <trkpt lat="46.50322" lon="5.50722">
        <ele>527</ele>
        <time>2022-04-04T17:58:54Z</time>
      </trkpt>
      <trkpt lat="46.50341" lon="5.50718">
        <ele>525</ele>
        <time>2022-04-04T17:58:57Z</time>
      </trkpt>
      <trkpt lat="46.50414" lon="5.50695">
        <ele>516</ele>
        <time>2022-04-04T17:59:10Z</time>
      </trkpt>
      <trkpt lat="46.50487" lon="5.50685">
        <ele>513</ele>
        <time>2022-04-04T17:59:23Z</time>
      </trkpt>
      <trkpt lat="46.50499" lon="5.50679">
        <ele>512</ele>
        <time>2022-04-04T17:59:26Z</time>
      </trkpt>
      <trkpt lat="46.50506" lon="5.50666">
        <ele>510</ele>
        <time>2022-04-04T17:59:28Z</time>
      </trkpt>
      <trkpt lat="46.50508" lon="5.50649">
        <ele>510</ele>
        <time>2022-04-04T17:59:30Z</time>
      </trkpt>
      <trkpt lat="46.50507" lon="5.50634">
        <ele>511</ele>
        <time>2022-04-04T17:59:32Z</time>
      </trkpt>
      <trkpt lat="46.50504" lon="5.50617">
        <ele>511</ele>
        <time>2022-04-04T17:59:34Z</time>
      </trkpt>
      <trkpt lat="46.50498" lon="5.506">
        <ele>511</ele>
        <time>2022-04-04T17:59:36Z</time>
      </trkpt>
      <trkpt lat="46.50485" lon="5.50543">
        <ele>511</ele>
        <time>2022-04-04T17:59:43Z</time>
      </trkpt>
      <trkpt lat="46.50461" lon="5.50478">
        <ele>511</ele>
        <time>2022-04-04T17:59:53Z</time>
      </trkpt>
      <trkpt lat="46.50448" lon="5.50458">
        <ele>510</ele>
        <time>2022-04-04T17:59:56Z</time>
      </trkpt>
      <trkpt lat="46.5042" lon="5.50443">
        <ele>509</ele>
        <time>2022-04-04T18:00:01Z</time>
      </trkpt>
      <trkpt lat="46.50352" lon="5.50422">
        <ele>506</ele>
        <time>2022-04-04T18:00:14Z</time>
      </trkpt>
      <trkpt lat="46.50332" lon="5.5042">
        <ele>505</ele>
        <time>2022-04-04T18:00:17Z</time>
      </trkpt>
      <trkpt lat="46.50307" lon="5.50428">
        <ele>504</ele>
        <time>2022-04-04T18:00:22Z</time>
      </trkpt>
      <trkpt lat="46.5026" lon="5.50467">
        <ele>501</ele>
        <time>2022-04-04T18:00:31Z</time>
      </trkpt>
      <trkpt lat="46.50244" lon="5.5047">
        <ele>501</ele>
        <time>2022-04-04T18:00:34Z</time>
      </trkpt>
      <trkpt lat="46.50233" lon="5.50465">
        <ele>501</ele>
        <time>2022-04-04T18:00:36Z</time>
      </trkpt>
      <trkpt lat="46.50219" lon="5.50455">
        <ele>501</ele>
        <time>2022-04-04T18:00:39Z</time>
      </trkpt>
      <trkpt lat="46.5019" lon="5.50431">
        <ele>501</ele>
        <time>2022-04-04T18:00:45Z</time>
      </trkpt>
      <trkpt lat="46.50131" lon="5.50404">
        <ele>500</ele>
        <time>2022-04-04T18:00:56Z</time>
      </trkpt>
      <trkpt lat="46.50108" lon="5.50406">
        <ele>499</ele>
        <time>2022-04-04T18:01:00Z</time>
      </trkpt>
      <trkpt lat="46.5009" lon="5.50414">
        <ele>499</ele>
        <time>2022-04-04T18:01:03Z</time>
      </trkpt>
      <trkpt lat="46.50076" lon="5.50427">
        <ele>499</ele>
        <time>2022-04-04T18:01:06Z</time>
      </trkpt>
      <trkpt lat="46.50049" lon="5.5047">
        <ele>500</ele>
        <time>2022-04-04T18:01:13Z</time>
      </trkpt>
      <trkpt lat="46.50038" lon="5.50483">
        <ele>500</ele>
        <time>2022-04-04T18:01:16Z</time>
      </trkpt>
      <trkpt lat="46.50022" lon="5.50497">
        <ele>501</ele>
        <time>2022-04-04T18:01:19Z</time>
      </trkpt>
      <trkpt lat="46.49968" lon="5.5053">
        <ele>503</ele>
        <time>2022-04-04T18:01:30Z</time>
      </trkpt>
      <trkpt lat="46.49953" lon="5.50533">
        <ele>503</ele>
        <time>2022-04-04T18:01:32Z</time>
      </trkpt>
      <trkpt lat="46.4994" lon="5.50531">
        <ele>503</ele>
        <time>2022-04-04T18:01:35Z</time>
      </trkpt>
      <trkpt lat="46.49918" lon="5.50522">
        <ele>502</ele>
        <time>2022-04-04T18:01:39Z</time>
      </trkpt>
      <trkpt lat="46.49895" lon="5.50508">
        <ele>501</ele>
        <time>2022-04-04T18:01:43Z</time>
      </trkpt>
      <trkpt lat="46.49871" lon="5.50486">
        <ele>501</ele>
        <time>2022-04-04T18:01:48Z</time>
      </trkpt>
      <trkpt lat="46.49849" lon="5.50473">
        <ele>501</ele>
        <time>2022-04-04T18:01:53Z</time>
      </trkpt>
      <trkpt lat="46.49775" lon="5.50453">
        <ele>501</ele>
        <time>2022-04-04T18:02:06Z</time>
      </trkpt>
      <trkpt lat="46.49762" lon="5.50448">
        <ele>501</ele>
        <time>2022-04-04T18:02:08Z</time>
      </trkpt>
      <trkpt lat="46.49747" lon="5.50438">
        <ele>502</ele>
        <time>2022-04-04T18:02:11Z</time>
      </trkpt>
      <trkpt lat="46.49732" lon="5.50417">
        <ele>504</ele>
        <time>2022-04-04T18:02:15Z</time>
      </trkpt>
      <trkpt lat="46.49714" lon="5.50387">
        <ele>504</ele>
        <time>2022-04-04T18:02:20Z</time>
      </trkpt>
      <trkpt lat="46.49675" lon="5.50343">
        <ele>507</ele>
        <time>2022-04-04T18:02:29Z</time>
      </trkpt>
      <trkpt lat="46.49658" lon="5.50315">
        <ele>507</ele>
        <time>2022-04-04T18:02:33Z</time>
      </trkpt>
      <trkpt lat="46.49628" lon="5.5026">
        <ele>503</ele>
        <time>2022-04-04T18:02:42Z</time>
      </trkpt>
      <trkpt lat="46.49575" lon="5.5017">
        <ele>498</ele>
        <time>2022-04-04T18:02:56Z</time>
      </trkpt>
      <trkpt lat="46.49553" lon="5.50125">
        <ele>497</ele>
        <time>2022-04-04T18:03:03Z</time>
      </trkpt>
      <trkpt lat="46.49545" lon="5.501">
        <ele>496</ele>
        <time>2022-04-04T18:03:06Z</time>
      </trkpt>
      <trkpt lat="46.49535" lon="5.50049">
        <ele>495</ele>
        <time>2022-04-04T18:03:13Z</time>
      </trkpt>
      <trkpt lat="46.49527" lon="5.50029">
        <ele>495</ele>
        <time>2022-04-04T18:03:16Z</time>
      </trkpt>
      <trkpt lat="46.49448" lon="5.49866">
        <ele>492</ele>
        <time>2022-04-04T18:03:40Z</time>
      </trkpt>
      <trkpt lat="46.4941" lon="5.49794">
        <ele>493</ele>
        <time>2022-04-04T18:03:51Z</time>
      </trkpt>
      <trkpt lat="46.49399" lon="5.49769">
        <ele>495</ele>
        <time>2022-04-04T18:03:55Z</time>
      </trkpt>
      <trkpt lat="46.49379" lon="5.49698">
        <ele>496</ele>
        <time>2022-04-04T18:04:04Z</time>
      </trkpt>
      <trkpt lat="46.49372" lon="5.49682">
        <ele>496</ele>
        <time>2022-04-04T18:04:07Z</time>
      </trkpt>
      <trkpt lat="46.49363" lon="5.49672">
        <ele>497</ele>
        <time>2022-04-04T18:04:09Z</time>
      </trkpt>
      <trkpt lat="46.49295" lon="5.49638">
        <ele>499</ele>
        <time>2022-04-04T18:04:21Z</time>
      </trkpt>
      <trkpt lat="46.49282" lon="5.49628">
        <ele>499</ele>
        <time>2022-04-04T18:04:24Z</time>
      </trkpt>
      <trkpt lat="46.49253" lon="5.49589">
        <ele>498</ele>
        <time>2022-04-04T18:04:31Z</time>
      </trkpt>
      <trkpt lat="46.49242" lon="5.4957">
        <ele>497</ele>
        <time>2022-04-04T18:04:34Z</time>
      </trkpt>
      <trkpt lat="46.49238" lon="5.49554">
        <ele>497</ele>
        <time>2022-04-04T18:04:36Z</time>
      </trkpt>
      <trkpt lat="46.49237" lon="5.49539">
        <ele>496</ele>
        <time>2022-04-04T18:04:38Z</time>
      </trkpt>
      <trkpt lat="46.49239" lon="5.49527">
        <ele>496</ele>
        <time>2022-04-04T18:04:40Z</time>
      </trkpt>
      <trkpt lat="46.4927" lon="5.49443">
        <ele>494</ele>
        <time>2022-04-04T18:04:51Z</time>
      </trkpt>
      <trkpt lat="46.49279" lon="5.49407">
        <ele>494</ele>
        <time>2022-04-04T18:04:56Z</time>
      </trkpt>
      <trkpt lat="46.49291" lon="5.49332">
        <ele>491</ele>
        <time>2022-04-04T18:05:05Z</time>
      </trkpt>
      <trkpt lat="46.49295" lon="5.493">
        <ele>489</ele>
        <time>2022-04-04T18:05:09Z</time>
      </trkpt>
      <trkpt lat="46.49295" lon="5.49277">
        <ele>488</ele>
        <time>2022-04-04T18:05:12Z</time>
      </trkpt>
      <trkpt lat="46.49291" lon="5.49253">
        <ele>488</ele>
        <time>2022-04-04T18:05:15Z</time>
      </trkpt>
      <trkpt lat="46.49264" lon="5.49161">
        <ele>485</ele>
        <time>2022-04-04T18:05:28Z</time>
      </trkpt>
      <trkpt lat="46.49229" lon="5.49044">
        <ele>482</ele>
        <time>2022-04-04T18:05:43Z</time>
      </trkpt>
      <trkpt lat="46.49185" lon="5.48912">
        <ele>482</ele>
        <time>2022-04-04T18:06:01Z</time>
      </trkpt>
      <trkpt lat="46.49148" lon="5.48817">
        <ele>483</ele>
        <time>2022-04-04T18:06:14Z</time>
      </trkpt>
      <trkpt lat="46.49111" lon="5.48739">
        <ele>482</ele>
        <time>2022-04-04T18:06:26Z</time>
      </trkpt>
      <trkpt lat="46.49101" lon="5.48726">
        <ele>483</ele>
        <time>2022-04-04T18:06:28Z</time>
      </trkpt>
      <trkpt lat="46.49091" lon="5.48716">
        <ele>484</ele>
        <time>2022-04-04T18:06:31Z</time>
      </trkpt>
      <trkpt lat="46.49062" lon="5.48694">
        <ele>487</ele>
        <time>2022-04-04T18:06:36Z</time>
      </trkpt>
      <trkpt lat="46.49043" lon="5.48669">
        <ele>488</ele>
        <time>2022-04-04T18:06:41Z</time>
      </trkpt>
      <trkpt lat="46.49001" lon="5.4861">
        <ele>488</ele>
        <time>2022-04-04T18:06:51Z</time>
      </trkpt>
      <trkpt lat="46.48988" lon="5.48585">
        <ele>487</ele>
        <time>2022-04-04T18:06:55Z</time>
      </trkpt>
      <trkpt lat="46.48967" lon="5.48537">
        <ele>484</ele>
        <time>2022-04-04T18:07:02Z</time>
      </trkpt>
      <trkpt lat="46.48957" lon="5.48524">
        <ele>484</ele>
        <time>2022-04-04T18:07:05Z</time>
      </trkpt>
      <trkpt lat="46.48929" lon="5.48498">
        <ele>484</ele>
        <time>2022-04-04T18:07:10Z</time>
      </trkpt>
      <trkpt lat="46.48872" lon="5.4844">
        <ele>479</ele>
        <time>2022-04-04T18:07:23Z</time>
      </trkpt>
      <trkpt lat="46.48789" lon="5.48369">
        <ele>477</ele>
        <time>2022-04-04T18:07:40Z</time>
      </trkpt>
      <trkpt lat="46.48725" lon="5.48297">
        <ele>476</ele>
        <time>2022-04-04T18:07:54Z</time>
      </trkpt>
      <trkpt lat="46.48692" lon="5.48268">
        <ele>474</ele>
        <time>2022-04-04T18:08:01Z</time>
      </trkpt>
      <trkpt lat="46.48588" lon="5.48186">
        <ele>464</ele>
        <time>2022-04-04T18:08:22Z</time>
      </trkpt>
      <trkpt lat="46.48548" lon="5.48151">
        <ele>458</ele>
        <time>2022-04-04T18:08:31Z</time>
      </trkpt>
      <trkpt lat="46.48517" lon="5.4812">
        <ele>452</ele>
        <time>2022-04-04T18:08:37Z</time>
      </trkpt>
      <trkpt lat="46.4847" lon="5.48083">
        <ele>442</ele>
        <time>2022-04-04T18:08:47Z</time>
      </trkpt>
      <trkpt lat="46.48422" lon="5.48055">
        <ele>438</ele>
        <time>2022-04-04T18:08:56Z</time>
      </trkpt>
      <trkpt lat="46.4825" lon="5.47982">
        <ele>424</ele>
        <time>2022-04-04T18:09:28Z</time>
      </trkpt>
      <trkpt lat="46.48191" lon="5.47949">
        <ele>421</ele>
        <time>2022-04-04T18:09:39Z</time>
      </trkpt>
      <trkpt lat="46.48162" lon="5.47929">
        <ele>419</ele>
        <time>2022-04-04T18:09:45Z</time>
      </trkpt>
      <trkpt lat="46.48146" lon="5.47915">
        <ele>421</ele>
        <time>2022-04-04T18:09:48Z</time>
      </trkpt>
      <trkpt lat="46.48128" lon="5.47893">
        <ele>423</ele>
        <time>2022-04-04T18:09:52Z</time>
      </trkpt>
      <trkpt lat="46.48099" lon="5.47834">
        <ele>420</ele>
        <time>2022-04-04T18:10:01Z</time>
      </trkpt>
      <trkpt lat="46.48078" lon="5.47774">
        <ele>416</ele>
        <time>2022-04-04T18:10:10Z</time>
      </trkpt>
      <trkpt lat="46.48072" lon="5.47734">
        <ele>413</ele>
        <time>2022-04-04T18:10:15Z</time>
      </trkpt>
      <trkpt lat="46.4807" lon="5.47692">
        <ele>412</ele>
        <time>2022-04-04T18:10:20Z</time>
      </trkpt>
      <trkpt lat="46.48072" lon="5.47664">
        <ele>409</ele>
        <time>2022-04-04T18:10:23Z</time>
      </trkpt>
      <trkpt lat="46.4809" lon="5.47588">
        <ele>406</ele>
        <time>2022-04-04T18:10:33Z</time>
      </trkpt>
      <trkpt lat="46.48098" lon="5.47541">
        <ele>407</ele>
        <time>2022-04-04T18:10:39Z</time>
      </trkpt>
      <trkpt lat="46.48102" lon="5.475">
        <ele>407</ele>
        <time>2022-04-04T18:10:44Z</time>
      </trkpt>
      <trkpt lat="46.48103" lon="5.47441">
        <ele>405</ele>
        <time>2022-04-04T18:10:51Z</time>
      </trkpt>
      <trkpt lat="46.48099" lon="5.47392">
        <ele>402</ele>
        <time>2022-04-04T18:10:57Z</time>
      </trkpt>
      <trkpt lat="46.48078" lon="5.4731">
        <ele>395</ele>
        <time>2022-04-04T18:11:08Z</time>
      </trkpt>
      <trkpt lat="46.48076" lon="5.47291">
        <ele>394</ele>
        <time>2022-04-04T18:11:10Z</time>
      </trkpt>
      <trkpt lat="46.48077" lon="5.47274">
        <ele>394</ele>
        <time>2022-04-04T18:11:12Z</time>
      </trkpt>
      <trkpt lat="46.48103" lon="5.47152">
        <ele>392</ele>
        <time>2022-04-04T18:11:28Z</time>
      </trkpt>
      <trkpt lat="46.48113" lon="5.47113">
        <ele>390</ele>
        <time>2022-04-04T18:11:33Z</time>
      </trkpt>
      <trkpt lat="46.48125" lon="5.47077">
        <ele>389</ele>
        <time>2022-04-04T18:11:38Z</time>
      </trkpt>
      <trkpt lat="46.4814" lon="5.47044">
        <ele>387</ele>
        <time>2022-04-04T18:11:43Z</time>
      </trkpt>
      <trkpt lat="46.48204" lon="5.46946">
        <ele>381</ele>
        <time>2022-04-04T18:12:00Z</time>
      </trkpt>
      <trkpt lat="46.48216" lon="5.46921">
        <ele>380</ele>
        <time>2022-04-04T18:12:03Z</time>
      </trkpt>
      <trkpt lat="46.48343" lon="5.46603">
        <ele>377</ele>
        <time>2022-04-04T18:12:48Z</time>
      </trkpt>
      <trkpt lat="46.48334" lon="5.466">
        <ele>377</ele>
        <time>2022-04-04T18:12:50Z</time>
      </trkpt>
      <trkpt lat="46.48343" lon="5.46603">
        <ele>377</ele>
        <time>2022-04-04T18:12:52Z</time>
      </trkpt>
      <trkpt lat="46.48376" lon="5.46519">
        <ele>377</ele>
        <time>2022-04-04T18:13:03Z</time>
      </trkpt>
      <trkpt lat="46.48383" lon="5.46502">
        <ele>378</ele>
        <time>2022-04-04T18:13:06Z</time>
      </trkpt>
      <trkpt lat="46.48388" lon="5.46484">
        <ele>378</ele>
        <time>2022-04-04T18:13:08Z</time>
      </trkpt>
      <trkpt lat="46.48388" lon="5.46427">
        <ele>378</ele>
        <time>2022-04-04T18:13:15Z</time>
      </trkpt>
      <trkpt lat="46.48391" lon="5.46404">
        <ele>378</ele>
        <time>2022-04-04T18:13:18Z</time>
      </trkpt>
      <trkpt lat="46.48406" lon="5.46362">
        <ele>378</ele>
        <time>2022-04-04T18:13:24Z</time>
      </trkpt>
      <trkpt lat="46.4844" lon="5.4629">
        <ele>381</ele>
        <time>2022-04-04T18:13:35Z</time>
      </trkpt>
      <trkpt lat="46.48444" lon="5.46279">
        <ele>381</ele>
        <time>2022-04-04T18:13:36Z</time>
      </trkpt>
      <trkpt lat="46.48444" lon="5.46269">
        <ele>382</ele>
        <time>2022-04-04T18:13:37Z</time>
      </trkpt>
      <trkpt lat="46.48434" lon="5.46249">
        <ele>383</ele>
        <time>2022-04-04T18:13:40Z</time>
      </trkpt>
      <trkpt lat="46.4843" lon="5.46235">
        <ele>383</ele>
        <time>2022-04-04T18:13:42Z</time>
      </trkpt>
      <trkpt lat="46.48419" lon="5.46178">
        <ele>385</ele>
        <time>2022-04-04T18:13:49Z</time>
      </trkpt>
      <trkpt lat="46.48403" lon="5.46142">
        <ele>385</ele>
        <time>2022-04-04T18:13:55Z</time>
      </trkpt>
      <trkpt lat="46.48378" lon="5.4609">
        <ele>385</ele>
        <time>2022-04-04T18:14:02Z</time>
      </trkpt>
      <trkpt lat="46.48308" lon="5.45966">
        <ele>383</ele>
        <time>2022-04-04T18:14:22Z</time>
      </trkpt>
      <trkpt lat="46.48294" lon="5.45947">
        <ele>383</ele>
        <time>2022-04-04T18:14:26Z</time>
      </trkpt>
      <trkpt lat="46.48252" lon="5.45882">
        <ele>382</ele>
        <time>2022-04-04T18:14:36Z</time>
      </trkpt>
      <trkpt lat="46.48114" lon="5.45708">
        <ele>377</ele>
        <time>2022-04-04T18:15:09Z</time>
      </trkpt>
      <trkpt lat="46.48092" lon="5.45684">
        <ele>377</ele>
        <time>2022-04-04T18:15:14Z</time>
      </trkpt>
      <trkpt lat="46.48067" lon="5.45663">
        <ele>376</ele>
        <time>2022-04-04T18:15:19Z</time>
      </trkpt>
      <trkpt lat="46.48047" lon="5.4565">
        <ele>376</ele>
        <time>2022-04-04T18:15:23Z</time>
      </trkpt>
      <trkpt lat="46.48026" lon="5.4564">
        <ele>375</ele>
        <time>2022-04-04T18:15:27Z</time>
      </trkpt>
      <trkpt lat="46.47846" lon="5.45567">
        <ele>381</ele>
        <time>2022-04-04T18:16:00Z</time>
      </trkpt>
      <trkpt lat="46.47765" lon="5.45547">
        <ele>381</ele>
        <time>2022-04-04T18:16:15Z</time>
      </trkpt>
      <trkpt lat="46.47747" lon="5.45537">
        <ele>381</ele>
        <time>2022-04-04T18:16:18Z</time>
      </trkpt>
      <trkpt lat="46.47704" lon="5.45496">
        <ele>380</ele>
        <time>2022-04-04T18:16:27Z</time>
      </trkpt>
      <trkpt lat="46.47713" lon="5.45468">
        <ele>382</ele>
        <time>2022-04-04T18:16:31Z</time>
      </trkpt>
      <trkpt lat="46.47715" lon="5.45446">
        <ele>383</ele>
        <time>2022-04-04T18:16:34Z</time>
      </trkpt>
      <trkpt lat="46.47715" lon="5.45431">
        <ele>383</ele>
        <time>2022-04-04T18:16:36Z</time>
      </trkpt>
      <trkpt lat="46.47757" lon="5.45404">
        <ele>384</ele>
        <time>2022-04-04T18:16:44Z</time>
      </trkpt>
      <trkpt lat="46.47775" lon="5.45394">
        <ele>384</ele>
        <time>2022-04-04T18:16:47Z</time>
      </trkpt>
      <trkpt lat="46.47794" lon="5.45391">
        <ele>385</ele>
        <time>2022-04-04T18:16:51Z</time>
      </trkpt>
      <trkpt lat="46.47808" lon="5.45381">
        <ele>385</ele>
        <time>2022-04-04T18:16:53Z</time>
      </trkpt>
      <trkpt lat="46.47982" lon="5.45163">
        <ele>392</ele>
        <time>2022-04-04T18:17:34Z</time>
      </trkpt>
      <trkpt lat="46.4801" lon="5.45126">
        <ele>396</ele>
        <time>2022-04-04T18:17:41Z</time>
      </trkpt>
      <trkpt lat="46.48018" lon="5.45103">
        <ele>399</ele>
        <time>2022-04-04T18:17:44Z</time>
      </trkpt>
      <trkpt lat="46.48022" lon="5.45075">
        <ele>403</ele>
        <time>2022-04-04T18:17:48Z</time>
      </trkpt>
      <trkpt lat="46.48022" lon="5.45056">
        <ele>406</ele>
        <time>2022-04-04T18:17:50Z</time>
      </trkpt>
      <trkpt lat="46.4802" lon="5.45031">
        <ele>409</ele>
        <time>2022-04-04T18:17:53Z</time>
      </trkpt>
      <trkpt lat="46.48015" lon="5.45">
        <ele>412</ele>
        <time>2022-04-04T18:17:57Z</time>
      </trkpt>
      <trkpt lat="46.48002" lon="5.44963">
        <ele>418</ele>
        <time>2022-04-04T18:18:02Z</time>
      </trkpt>
      <trkpt lat="46.47993" lon="5.44946">
        <ele>421</ele>
        <time>2022-04-04T18:18:05Z</time>
      </trkpt>
      <trkpt lat="46.47984" lon="5.44933">
        <ele>423</ele>
        <time>2022-04-04T18:18:07Z</time>
      </trkpt>
      <trkpt lat="46.47931" lon="5.44893">
        <ele>424</ele>
        <time>2022-04-04T18:18:18Z</time>
      </trkpt>
      <trkpt lat="46.47827" lon="5.44794">
        <ele>430</ele>
        <time>2022-04-04T18:18:40Z</time>
      </trkpt>
      <trkpt lat="46.47797" lon="5.4476">
        <ele>432</ele>
        <time>2022-04-04T18:18:46Z</time>
      </trkpt>
      <trkpt lat="46.47753" lon="5.44716">
        <ele>435</ele>
        <time>2022-04-04T18:18:56Z</time>
      </trkpt>
      <trkpt lat="46.47679" lon="5.44634">
        <ele>441</ele>
        <time>2022-04-04T18:19:13Z</time>
      </trkpt>
      <trkpt lat="46.47656" lon="5.44604">
        <ele>444</ele>
        <time>2022-04-04T18:19:18Z</time>
      </trkpt>
      <trkpt lat="46.47621" lon="5.44563">
        <ele>447</ele>
        <time>2022-04-04T18:19:26Z</time>
      </trkpt>
      <trkpt lat="46.47503" lon="5.44431">
        <ele>451</ele>
        <time>2022-04-04T18:19:53Z</time>
      </trkpt>
      <trkpt lat="46.47475" lon="5.44413">
        <ele>450</ele>
        <time>2022-04-04T18:19:58Z</time>
      </trkpt>
      <trkpt lat="46.47469" lon="5.44402">
        <ele>451</ele>
        <time>2022-04-04T18:20:00Z</time>
      </trkpt>
      <trkpt lat="46.47471" lon="5.44393">
        <ele>455</ele>
        <time>2022-04-04T18:20:01Z</time>
      </trkpt>
      <trkpt lat="46.47473" lon="5.44391">
        <ele>456</ele>
        <time>2022-04-04T18:20:01Z</time>
      </trkpt>
      <trkpt lat="46.47481" lon="5.44392">
        <ele>457</ele>
        <time>2022-04-04T18:20:03Z</time>
      </trkpt>
      <trkpt lat="46.47497" lon="5.44411">
        <ele>456</ele>
        <time>2022-04-04T18:20:06Z</time>
      </trkpt>
      <trkpt lat="46.47511" lon="5.44423">
        <ele>456</ele>
        <time>2022-04-04T18:20:09Z</time>
      </trkpt>
      <trkpt lat="46.47543" lon="5.44446">
        <ele>458</ele>
        <time>2022-04-04T18:20:16Z</time>
      </trkpt>
      <trkpt lat="46.47606" lon="5.44487">
        <ele>465</ele>
        <time>2022-04-04T18:20:28Z</time>
      </trkpt>
      <trkpt lat="46.47629" lon="5.44505">
        <ele>466</ele>
        <time>2022-04-04T18:20:33Z</time>
      </trkpt>
      <trkpt lat="46.47729" lon="5.44573">
        <ele>472</ele>
        <time>2022-04-04T18:20:52Z</time>
      </trkpt>
      <trkpt lat="46.47804" lon="5.44629">
        <ele>474</ele>
        <time>2022-04-04T18:21:07Z</time>
      </trkpt>
      <trkpt lat="46.47842" lon="5.44653">
        <ele>476</ele>
        <time>2022-04-04T18:21:15Z</time>
      </trkpt>
      <trkpt lat="46.47925" lon="5.44692">
        <ele>481</ele>
        <time>2022-04-04T18:21:30Z</time>
      </trkpt>
      <trkpt lat="46.47981" lon="5.44707">
        <ele>486</ele>
        <time>2022-04-04T18:21:40Z</time>
      </trkpt>
      <trkpt lat="46.48006" lon="5.44709">
        <ele>490</ele>
        <time>2022-04-04T18:21:45Z</time>
      </trkpt>
      <trkpt lat="46.48018" lon="5.44703">
        <ele>492</ele>
        <time>2022-04-04T18:21:47Z</time>
      </trkpt>
      <trkpt lat="46.48031" lon="5.44688">
        <ele>496</ele>
        <time>2022-04-04T18:21:50Z</time>
      </trkpt>
      <trkpt lat="46.48038" lon="5.44668">
        <ele>499</ele>
        <time>2022-04-04T18:21:53Z</time>
      </trkpt>
      <trkpt lat="46.48055" lon="5.44608">
        <ele>503</ele>
        <time>2022-04-04T18:22:01Z</time>
      </trkpt>
      <trkpt lat="46.48058" lon="5.44586">
        <ele>503</ele>
        <time>2022-04-04T18:22:03Z</time>
      </trkpt>
      <trkpt lat="46.48056" lon="5.44571">
        <ele>503</ele>
        <time>2022-04-04T18:22:05Z</time>
      </trkpt>
      <trkpt lat="46.48035" lon="5.44494">
        <ele>501</ele>
        <time>2022-04-04T18:22:15Z</time>
      </trkpt>
      <trkpt lat="46.48012" lon="5.44386">
        <ele>498</ele>
        <time>2022-04-04T18:22:29Z</time>
      </trkpt>
      <trkpt lat="46.47974" lon="5.44277">
        <ele>498</ele>
        <time>2022-04-04T18:22:44Z</time>
      </trkpt>
      <trkpt lat="46.47939" lon="5.44158">
        <ele>495</ele>
        <time>2022-04-04T18:23:00Z</time>
      </trkpt>
      <trkpt lat="46.47935" lon="5.44134">
        <ele>493</ele>
        <time>2022-04-04T18:23:03Z</time>
      </trkpt>
      <trkpt lat="46.47936" lon="5.44021">
        <ele>485</ele>
        <time>2022-04-04T18:23:17Z</time>
      </trkpt>
      <trkpt lat="46.47939" lon="5.43915">
        <ele>484</ele>
        <time>2022-04-04T18:23:30Z</time>
      </trkpt>
      <trkpt lat="46.47938" lon="5.43712">
        <ele>490</ele>
        <time>2022-04-04T18:23:55Z</time>
      </trkpt>
      <trkpt lat="46.47935" lon="5.43644">
        <ele>495</ele>
        <time>2022-04-04T18:24:03Z</time>
      </trkpt>
      <trkpt lat="46.47928" lon="5.43582">
        <ele>500</ele>
        <time>2022-04-04T18:24:11Z</time>
      </trkpt>
      <trkpt lat="46.47928" lon="5.4355">
        <ele>501</ele>
        <time>2022-04-04T18:24:15Z</time>
      </trkpt>
      <trkpt lat="46.47932" lon="5.43386">
        <ele>503</ele>
        <time>2022-04-04T18:24:35Z</time>
      </trkpt>
      <trkpt lat="46.47929" lon="5.4336">
        <ele>503</ele>
        <time>2022-04-04T18:24:38Z</time>
      </trkpt>
      <trkpt lat="46.47924" lon="5.43346">
        <ele>502</ele>
        <time>2022-04-04T18:24:40Z</time>
      </trkpt>
      <trkpt lat="46.47915" lon="5.43331">
        <ele>501</ele>
        <time>2022-04-04T18:24:43Z</time>
      </trkpt>
      <trkpt lat="46.47889" lon="5.43298">
        <ele>502</ele>
        <time>2022-04-04T18:24:49Z</time>
      </trkpt>
      <trkpt lat="46.47882" lon="5.43285">
        <ele>503</ele>
        <time>2022-04-04T18:24:51Z</time>
      </trkpt>
      <trkpt lat="46.47875" lon="5.43266">
        <ele>504</ele>
        <time>2022-04-04T18:24:53Z</time>
      </trkpt>
      <trkpt lat="46.47864" lon="5.43217">
        <ele>508</ele>
        <time>2022-04-04T18:25:00Z</time>
      </trkpt>
      <trkpt lat="46.4785" lon="5.4318">
        <ele>510</ele>
        <time>2022-04-04T18:25:05Z</time>
      </trkpt>
      <trkpt lat="46.47836" lon="5.43154">
        <ele>512</ele>
        <time>2022-04-04T18:25:09Z</time>
      </trkpt>
      <trkpt lat="46.47821" lon="5.4313">
        <ele>515</ele>
        <time>2022-04-04T18:25:13Z</time>
      </trkpt>
      <trkpt lat="46.47803" lon="5.4311">
        <ele>517</ele>
        <time>2022-04-04T18:25:17Z</time>
      </trkpt>
      <trkpt lat="46.47775" lon="5.43084">
        <ele>519</ele>
        <time>2022-04-04T18:25:23Z</time>
      </trkpt>
      <trkpt lat="46.47767" lon="5.43069">
        <ele>520</ele>
        <time>2022-04-04T18:25:25Z</time>
      </trkpt>
      <trkpt lat="46.47764" lon="5.43052">
        <ele>521</ele>
        <time>2022-04-04T18:25:27Z</time>
      </trkpt>
      <trkpt lat="46.47765" lon="5.4304">
        <ele>522</ele>
        <time>2022-04-04T18:25:29Z</time>
      </trkpt>
      <trkpt lat="46.47769" lon="5.43013">
        <ele>524</ele>
        <time>2022-04-04T18:25:32Z</time>
      </trkpt>
      <trkpt lat="46.4777" lon="5.42996">
        <ele>526</ele>
        <time>2022-04-04T18:25:34Z</time>
      </trkpt>
      <trkpt lat="46.47767" lon="5.4298">
        <ele>527</ele>
        <time>2022-04-04T18:25:36Z</time>
      </trkpt>
      <trkpt lat="46.47762" lon="5.42964">
        <ele>528</ele>
        <time>2022-04-04T18:25:38Z</time>
      </trkpt>
      <trkpt lat="46.4775" lon="5.4294">
        <ele>529</ele>
        <time>2022-04-04T18:25:42Z</time>
      </trkpt>
      <trkpt lat="46.47742" lon="5.42928">
        <ele>530</ele>
        <time>2022-04-04T18:25:44Z</time>
      </trkpt>
      <trkpt lat="46.47734" lon="5.42921">
        <ele>531</ele>
        <time>2022-04-04T18:25:46Z</time>
      </trkpt>
      <trkpt lat="46.47726" lon="5.42917">
        <ele>532</ele>
        <time>2022-04-04T18:25:47Z</time>
      </trkpt>
      <trkpt lat="46.47631" lon="5.42912">
        <ele>539</ele>
        <time>2022-04-04T18:26:04Z</time>
      </trkpt>
      <trkpt lat="46.47623" lon="5.42908">
        <ele>541</ele>
        <time>2022-04-04T18:26:06Z</time>
      </trkpt>
      <trkpt lat="46.47617" lon="5.42902">
        <ele>543</ele>
        <time>2022-04-04T18:26:07Z</time>
      </trkpt>
      <trkpt lat="46.47614" lon="5.42891">
        <ele>545</ele>
        <time>2022-04-04T18:26:08Z</time>
      </trkpt>
      <trkpt lat="46.47613" lon="5.42882">
        <ele>546</ele>
        <time>2022-04-04T18:26:10Z</time>
      </trkpt>
      <trkpt lat="46.47615" lon="5.42872">
        <ele>547</ele>
        <time>2022-04-04T18:26:11Z</time>
      </trkpt>
      <trkpt lat="46.4762" lon="5.42861">
        <ele>547</ele>
        <time>2022-04-04T18:26:12Z</time>
      </trkpt>
      <trkpt lat="46.47654" lon="5.42817">
        <ele>544</ele>
        <time>2022-04-04T18:26:21Z</time>
      </trkpt>
      <trkpt lat="46.47677" lon="5.42795">
        <ele>543</ele>
        <time>2022-04-04T18:26:25Z</time>
      </trkpt>
      <trkpt lat="46.47686" lon="5.42789">
        <ele>543</ele>
        <time>2022-04-04T18:26:27Z</time>
      </trkpt>
      <trkpt lat="46.47697" lon="5.42785">
        <ele>542</ele>
        <time>2022-04-04T18:26:29Z</time>
      </trkpt>
      <trkpt lat="46.47728" lon="5.42785">
        <ele>540</ele>
        <time>2022-04-04T18:26:35Z</time>
      </trkpt>
      <trkpt lat="46.47749" lon="5.42783">
        <ele>539</ele>
        <time>2022-04-04T18:26:38Z</time>
      </trkpt>
      <trkpt lat="46.47765" lon="5.42778">
        <ele>540</ele>
        <time>2022-04-04T18:26:41Z</time>
      </trkpt>
      <trkpt lat="46.47775" lon="5.42773">
        <ele>540</ele>
        <time>2022-04-04T18:26:43Z</time>
      </trkpt>
      <trkpt lat="46.47787" lon="5.42759">
        <ele>541</ele>
        <time>2022-04-04T18:26:46Z</time>
      </trkpt>
      <trkpt lat="46.47792" lon="5.4275">
        <ele>541</ele>
        <time>2022-04-04T18:26:47Z</time>
      </trkpt>
      <trkpt lat="46.47804" lon="5.4271">
        <ele>539</ele>
        <time>2022-04-04T18:26:53Z</time>
      </trkpt>
      <trkpt lat="46.4781" lon="5.42669">
        <ele>536</ele>
        <time>2022-04-04T18:26:58Z</time>
      </trkpt>
      <trkpt lat="46.47805" lon="5.42544">
        <ele>527</ele>
        <time>2022-04-04T18:27:13Z</time>
      </trkpt>
      <trkpt lat="46.47802" lon="5.42508">
        <ele>524</ele>
        <time>2022-04-04T18:27:18Z</time>
      </trkpt>
      <trkpt lat="46.47796" lon="5.42463">
        <ele>521</ele>
        <time>2022-04-04T18:27:23Z</time>
      </trkpt>
      <trkpt lat="46.47787" lon="5.42415">
        <ele>518</ele>
        <time>2022-04-04T18:27:29Z</time>
      </trkpt>
      <trkpt lat="46.47769" lon="5.42337">
        <ele>513</ele>
        <time>2022-04-04T18:27:39Z</time>
      </trkpt>
      <trkpt lat="46.47815" lon="5.42239">
        <ele>507</ele>
        <time>2022-04-04T18:27:54Z</time>
      </trkpt>
      <trkpt lat="46.47835" lon="5.422">
        <ele>506</ele>
        <time>2022-04-04T18:28:00Z</time>
      </trkpt>
      <trkpt lat="46.47847" lon="5.42182">
        <ele>506</ele>
        <time>2022-04-04T18:28:03Z</time>
      </trkpt>
      <trkpt lat="46.4792" lon="5.42106">
        <ele>505</ele>
        <time>2022-04-04T18:28:19Z</time>
      </trkpt>
      <trkpt lat="46.47988" lon="5.4204">
        <ele>504</ele>
        <time>2022-04-04T18:28:34Z</time>
      </trkpt>
      <trkpt lat="46.48037" lon="5.41999">
        <ele>504</ele>
        <time>2022-04-04T18:28:44Z</time>
      </trkpt>
      <trkpt lat="46.48096" lon="5.41989">
        <ele>505</ele>
        <time>2022-04-04T18:28:54Z</time>
      </trkpt>
      <trkpt lat="46.48105" lon="5.41989">
        <ele>504</ele>
        <time>2022-04-04T18:28:56Z</time>
      </trkpt>
      <trkpt lat="46.48115" lon="5.41994">
        <ele>504</ele>
        <time>2022-04-04T18:28:58Z</time>
      </trkpt>
      <trkpt lat="46.4814" lon="5.42019">
        <ele>502</ele>
        <time>2022-04-04T18:29:03Z</time>
      </trkpt>
      <trkpt lat="46.48186" lon="5.42052">
        <ele>500</ele>
        <time>2022-04-04T18:29:12Z</time>
      </trkpt>
      <trkpt lat="46.48216" lon="5.42071">
        <ele>498</ele>
        <time>2022-04-04T18:29:18Z</time>
      </trkpt>
      <trkpt lat="46.48276" lon="5.42102">
        <ele>496</ele>
        <time>2022-04-04T18:29:29Z</time>
      </trkpt>
      <trkpt lat="46.48304" lon="5.4212">
        <ele>496</ele>
        <time>2022-04-04T18:29:35Z</time>
      </trkpt>
      <trkpt lat="46.48394" lon="5.4217">
        <ele>493</ele>
        <time>2022-04-04T18:29:52Z</time>
      </trkpt>
      <trkpt lat="46.48429" lon="5.42192">
        <ele>493</ele>
        <time>2022-04-04T18:29:59Z</time>
      </trkpt>
      <trkpt lat="46.48555" lon="5.42297">
        <ele>491</ele>
        <time>2022-04-04T18:30:25Z</time>
      </trkpt>
      <trkpt lat="46.48566" lon="5.42302">
        <ele>490</ele>
        <time>2022-04-04T18:30:27Z</time>
      </trkpt>
      <trkpt lat="46.48597" lon="5.42281">
        <ele>487</ele>
        <time>2022-04-04T18:30:33Z</time>
      </trkpt>
      <trkpt lat="46.48632" lon="5.42252">
        <ele>485</ele>
        <time>2022-04-04T18:30:40Z</time>
      </trkpt>
      <trkpt lat="46.48649" lon="5.42249">
        <ele>484</ele>
        <time>2022-04-04T18:30:43Z</time>
      </trkpt>
      <trkpt lat="46.48712" lon="5.42264">
        <ele>483</ele>
        <time>2022-04-04T18:30:54Z</time>
      </trkpt>
      <trkpt lat="46.48743" lon="5.42276">
        <ele>483</ele>
        <time>2022-04-04T18:31:00Z</time>
      </trkpt>
      <trkpt lat="46.48824" lon="5.42316">
        <ele>483</ele>
        <time>2022-04-04T18:31:15Z</time>
      </trkpt>
      <trkpt lat="46.4884" lon="5.4232">
        <ele>483</ele>
        <time>2022-04-04T18:31:18Z</time>
      </trkpt>
      <trkpt lat="46.48849" lon="5.42254">
        <ele>482</ele>
        <time>2022-04-04T18:31:26Z</time>
      </trkpt>
      <trkpt lat="46.48851" lon="5.42246">
        <ele>482</ele>
        <time>2022-04-04T18:31:27Z</time>
      </trkpt>
      <trkpt lat="46.48855" lon="5.42238">
        <ele>483</ele>
        <time>2022-04-04T18:31:29Z</time>
      </trkpt>
      <trkpt lat="46.4886" lon="5.42232">
        <ele>483</ele>
        <time>2022-04-04T18:31:30Z</time>
      </trkpt>
      <trkpt lat="46.48866" lon="5.42228">
        <ele>484</ele>
        <time>2022-04-04T18:31:31Z</time>
      </trkpt>
      <trkpt lat="46.48872" lon="5.42226">
        <ele>484</ele>
        <time>2022-04-04T18:31:32Z</time>
      </trkpt>
      <trkpt lat="46.48881" lon="5.42226">
        <ele>484</ele>
        <time>2022-04-04T18:31:34Z</time>
      </trkpt>
      <trkpt lat="46.48945" lon="5.42237">
        <ele>486</ele>
        <time>2022-04-04T18:31:45Z</time>
      </trkpt>
      <trkpt lat="46.48976" lon="5.42235">
        <ele>487</ele>
        <time>2022-04-04T18:31:51Z</time>
      </trkpt>
      <trkpt lat="46.49043" lon="5.42225">
        <ele>492</ele>
        <time>2022-04-04T18:32:03Z</time>
      </trkpt>
      <trkpt lat="46.49085" lon="5.42223">
        <ele>495</ele>
        <time>2022-04-04T18:32:10Z</time>
      </trkpt>
      <trkpt lat="46.49111" lon="5.42224">
        <ele>498</ele>
        <time>2022-04-04T18:32:15Z</time>
      </trkpt>
      <trkpt lat="46.49204" lon="5.42239">
        <ele>508</ele>
        <time>2022-04-04T18:32:31Z</time>
      </trkpt>
      <trkpt lat="46.49275" lon="5.4228">
        <ele>512</ele>
        <time>2022-04-04T18:32:45Z</time>
      </trkpt>
      <trkpt lat="46.49314" lon="5.42308">
        <ele>515</ele>
        <time>2022-04-04T18:32:53Z</time>
      </trkpt>
      <trkpt lat="46.49412" lon="5.42372">
        <ele>525</ele>
        <time>2022-04-04T18:33:12Z</time>
      </trkpt>
      <trkpt lat="46.49454" lon="5.42405">
        <ele>527</ele>
        <time>2022-04-04T18:33:20Z</time>
      </trkpt>
      <trkpt lat="46.49486" lon="5.42438">
        <ele>527</ele>
        <time>2022-04-04T18:33:27Z</time>
      </trkpt>
      <trkpt lat="46.49513" lon="5.42457">
        <ele>528</ele>
        <time>2022-04-04T18:33:33Z</time>
      </trkpt>
      <trkpt lat="46.49584" lon="5.42492">
        <ele>534</ele>
        <time>2022-04-04T18:33:46Z</time>
      </trkpt>
      <trkpt lat="46.49623" lon="5.42505">
        <ele>536</ele>
        <time>2022-04-04T18:33:53Z</time>
      </trkpt>
      <trkpt lat="46.49632" lon="5.42502">
        <ele>537</ele>
        <time>2022-04-04T18:33:55Z</time>
      </trkpt>
      <trkpt lat="46.49649" lon="5.42492">
        <ele>541</ele>
        <time>2022-04-04T18:33:58Z</time>
      </trkpt>
      <trkpt lat="46.49664" lon="5.42486">
        <ele>544</ele>
        <time>2022-04-04T18:34:01Z</time>
      </trkpt>
      <trkpt lat="46.49672" lon="5.42485">
        <ele>545</ele>
        <time>2022-04-04T18:34:02Z</time>
      </trkpt>
      <trkpt lat="46.49678" lon="5.42487">
        <ele>545</ele>
        <time>2022-04-04T18:34:03Z</time>
      </trkpt>
      <trkpt lat="46.49684" lon="5.42493">
        <ele>545</ele>
        <time>2022-04-04T18:34:05Z</time>
      </trkpt>
      <trkpt lat="46.49689" lon="5.42505">
        <ele>543</ele>
        <time>2022-04-04T18:34:06Z</time>
      </trkpt>
      <trkpt lat="46.49699" lon="5.42515">
        <ele>543</ele>
        <time>2022-04-04T18:34:08Z</time>
      </trkpt>
      <trkpt lat="46.4971" lon="5.42523">
        <ele>543</ele>
        <time>2022-04-04T18:34:11Z</time>
      </trkpt>
      <trkpt lat="46.49728" lon="5.42531">
        <ele>545</ele>
        <time>2022-04-04T18:34:14Z</time>
      </trkpt>
      <trkpt lat="46.49792" lon="5.42551">
        <ele>550</ele>
        <time>2022-04-04T18:34:26Z</time>
      </trkpt>
      <trkpt lat="46.49825" lon="5.42552">
        <ele>555</ele>
        <time>2022-04-04T18:34:32Z</time>
      </trkpt>
      <trkpt lat="46.49868" lon="5.42562">
        <ele>558</ele>
        <time>2022-04-04T18:34:39Z</time>
      </trkpt>
      <trkpt lat="46.49961" lon="5.42597">
        <ele>557</ele>
        <time>2022-04-04T18:34:56Z</time>
      </trkpt>
      <trkpt lat="46.50046" lon="5.42619">
        <ele>558</ele>
        <time>2022-04-04T18:35:12Z</time>
      </trkpt>
      <trkpt lat="46.50077" lon="5.42623">
        <ele>560</ele>
        <time>2022-04-04T18:35:17Z</time>
      </trkpt>
      <trkpt lat="46.50144" lon="5.42626">
        <ele>559</ele>
        <time>2022-04-04T18:35:29Z</time>
      </trkpt>
      <trkpt lat="46.50169" lon="5.42624">
        <ele>560</ele>
        <time>2022-04-04T18:35:34Z</time>
      </trkpt>
      <trkpt lat="46.50196" lon="5.42618">
        <ele>559</ele>
        <time>2022-04-04T18:35:39Z</time>
      </trkpt>
      <trkpt lat="46.50225" lon="5.42601">
        <ele>561</ele>
        <time>2022-04-04T18:35:44Z</time>
      </trkpt>
      <trkpt lat="46.50269" lon="5.42565">
        <ele>569</ele>
        <time>2022-04-04T18:35:53Z</time>
      </trkpt>
      <trkpt lat="46.50278" lon="5.4256">
        <ele>570</ele>
        <time>2022-04-04T18:35:55Z</time>
      </trkpt>
      <trkpt lat="46.50293" lon="5.42557">
        <ele>570</ele>
        <time>2022-04-04T18:35:57Z</time>
      </trkpt>
      <trkpt lat="46.50325" lon="5.42557">
        <ele>567</ele>
        <time>2022-04-04T18:36:03Z</time>
      </trkpt>
      <trkpt lat="46.50357" lon="5.4255">
        <ele>567</ele>
        <time>2022-04-04T18:36:09Z</time>
      </trkpt>
      <trkpt lat="46.50391" lon="5.42525">
        <ele>573</ele>
        <time>2022-04-04T18:36:16Z</time>
      </trkpt>
      <trkpt lat="46.50396" lon="5.42524">
        <ele>573</ele>
        <time>2022-04-04T18:36:17Z</time>
      </trkpt>
      <trkpt lat="46.50405" lon="5.42523">
        <ele>572</ele>
        <time>2022-04-04T18:36:18Z</time>
      </trkpt>
      <trkpt lat="46.50429" lon="5.42529">
        <ele>569</ele>
        <time>2022-04-04T18:36:23Z</time>
      </trkpt>
      <trkpt lat="46.50452" lon="5.42525">
        <ele>568</ele>
        <time>2022-04-04T18:36:27Z</time>
      </trkpt>
      <trkpt lat="46.5054" lon="5.42491">
        <ele>569</ele>
        <time>2022-04-04T18:36:43Z</time>
      </trkpt>
      <trkpt lat="46.50574" lon="5.42483">
        <ele>567</ele>
        <time>2022-04-04T18:36:49Z</time>
      </trkpt>
      <trkpt lat="46.506" lon="5.42472">
        <ele>566</ele>
        <time>2022-04-04T18:36:54Z</time>
      </trkpt>
      <trkpt lat="46.50622" lon="5.42453">
        <ele>567</ele>
        <time>2022-04-04T18:36:58Z</time>
      </trkpt>
      <trkpt lat="46.50629" lon="5.42442">
        <ele>568</ele>
        <time>2022-04-04T18:37:00Z</time>
      </trkpt>
      <trkpt lat="46.50646" lon="5.424">
        <ele>573</ele>
        <time>2022-04-04T18:37:06Z</time>
      </trkpt>
      <trkpt lat="46.50651" lon="5.42393">
        <ele>572</ele>
        <time>2022-04-04T18:37:07Z</time>
      </trkpt>
      <trkpt lat="46.50677" lon="5.42369">
        <ele>570</ele>
        <time>2022-04-04T18:37:13Z</time>
      </trkpt>
      <trkpt lat="46.50686" lon="5.42358">
        <ele>569</ele>
        <time>2022-04-04T18:37:15Z</time>
      </trkpt>
      <trkpt lat="46.50695" lon="5.42337">
        <ele>570</ele>
        <time>2022-04-04T18:37:18Z</time>
      </trkpt>
      <trkpt lat="46.50697" lon="5.42321">
        <ele>571</ele>
        <time>2022-04-04T18:37:20Z</time>
      </trkpt>
      <trkpt lat="46.507" lon="5.42269">
        <ele>574</ele>
        <time>2022-04-04T18:37:26Z</time>
      </trkpt>
      <trkpt lat="46.50702" lon="5.42256">
        <ele>574</ele>
        <time>2022-04-04T18:37:28Z</time>
      </trkpt>
      <trkpt lat="46.50706" lon="5.42244">
        <ele>573</ele>
        <time>2022-04-04T18:37:30Z</time>
      </trkpt>
      <trkpt lat="46.50722" lon="5.42212">
        <ele>570</ele>
        <time>2022-04-04T18:37:34Z</time>
      </trkpt>
      <trkpt lat="46.50727" lon="5.42196">
        <ele>569</ele>
        <time>2022-04-04T18:37:37Z</time>
      </trkpt>
      <trkpt lat="46.50725" lon="5.42178">
        <ele>570</ele>
        <time>2022-04-04T18:37:39Z</time>
      </trkpt>
      <trkpt lat="46.50718" lon="5.42162">
        <ele>571</ele>
        <time>2022-04-04T18:37:41Z</time>
      </trkpt>
      <trkpt lat="46.50709" lon="5.42154">
        <ele>572</ele>
        <time>2022-04-04T18:37:43Z</time>
      </trkpt>
      <trkpt lat="46.50684" lon="5.42141">
        <ele>576</ele>
        <time>2022-04-04T18:37:48Z</time>
      </trkpt>
      <trkpt lat="46.50676" lon="5.42132">
        <ele>578</ele>
        <time>2022-04-04T18:37:50Z</time>
      </trkpt>
      <trkpt lat="46.50671" lon="5.42121">
        <ele>579</ele>
        <time>2022-04-04T18:37:51Z</time>
      </trkpt>
      <trkpt lat="46.50668" lon="5.42109">
        <ele>579</ele>
        <time>2022-04-04T18:37:53Z</time>
      </trkpt>
      <trkpt lat="46.50664" lon="5.42056">
        <ele>579</ele>
        <time>2022-04-04T18:37:59Z</time>
      </trkpt>
      <trkpt lat="46.5066" lon="5.42028">
        <ele>579</ele>
        <time>2022-04-04T18:38:03Z</time>
      </trkpt>
      <trkpt lat="46.50648" lon="5.41978">
        <ele>581</ele>
        <time>2022-04-04T18:38:09Z</time>
      </trkpt>
      <trkpt lat="46.50641" lon="5.4194">
        <ele>579</ele>
        <time>2022-04-04T18:38:14Z</time>
      </trkpt>
      <trkpt lat="46.50631" lon="5.41908">
        <ele>579</ele>
        <time>2022-04-04T18:38:18Z</time>
      </trkpt>
      <trkpt lat="46.50624" lon="5.41897">
        <ele>580</ele>
        <time>2022-04-04T18:38:20Z</time>
      </trkpt>
      <trkpt lat="46.50564" lon="5.41816">
        <ele>586</ele>
        <time>2022-04-04T18:38:35Z</time>
      </trkpt>
      <trkpt lat="46.50512" lon="5.41765">
        <ele>595</ele>
        <time>2022-04-04T18:38:46Z</time>
      </trkpt>
      <trkpt lat="46.50495" lon="5.41734">
        <ele>596</ele>
        <time>2022-04-04T18:38:51Z</time>
      </trkpt>
      <trkpt lat="46.50488" lon="5.41713">
        <ele>596</ele>
        <time>2022-04-04T18:38:54Z</time>
      </trkpt>
      <trkpt lat="46.50481" lon="5.41698">
        <ele>596</ele>
        <time>2022-04-04T18:38:56Z</time>
      </trkpt>
      <trkpt lat="46.50465" lon="5.41676">
        <ele>597</ele>
        <time>2022-04-04T18:39:00Z</time>
      </trkpt>
      <trkpt lat="46.5045" lon="5.41659">
        <ele>598</ele>
        <time>2022-04-04T18:39:03Z</time>
      </trkpt>
      <trkpt lat="46.50433" lon="5.41645">
        <ele>599</ele>
        <time>2022-04-04T18:39:07Z</time>
      </trkpt>
      <trkpt lat="46.50418" lon="5.41637">
        <ele>600</ele>
        <time>2022-04-04T18:39:10Z</time>
      </trkpt>
      <trkpt lat="46.50404" lon="5.41622">
        <ele>599</ele>
        <time>2022-04-04T18:39:13Z</time>
      </trkpt>
      <trkpt lat="46.50399" lon="5.41604">
        <ele>598</ele>
        <time>2022-04-04T18:39:15Z</time>
      </trkpt>
      <trkpt lat="46.50399" lon="5.41595">
        <ele>597</ele>
        <time>2022-04-04T18:39:16Z</time>
      </trkpt>
      <trkpt lat="46.50401" lon="5.41586">
        <ele>597</ele>
        <time>2022-04-04T18:39:17Z</time>
      </trkpt>
      <trkpt lat="46.50406" lon="5.41575">
        <ele>596</ele>
        <time>2022-04-04T18:39:19Z</time>
      </trkpt>
      <trkpt lat="46.50413" lon="5.41568">
        <ele>596</ele>
        <time>2022-04-04T18:39:20Z</time>
      </trkpt>
      <trkpt lat="46.50421" lon="5.41565">
        <ele>595</ele>
        <time>2022-04-04T18:39:22Z</time>
      </trkpt>
      <trkpt lat="46.5044" lon="5.41567">
        <ele>595</ele>
        <time>2022-04-04T18:39:25Z</time>
      </trkpt>
      <trkpt lat="46.50471" lon="5.41579">
        <ele>595</ele>
        <time>2022-04-04T18:39:31Z</time>
      </trkpt>
      <trkpt lat="46.5048" lon="5.4158">
        <ele>595</ele>
        <time>2022-04-04T18:39:33Z</time>
      </trkpt>
      <trkpt lat="46.50487" lon="5.41579">
        <ele>595</ele>
        <time>2022-04-04T18:39:34Z</time>
      </trkpt>
      <trkpt lat="46.50494" lon="5.41574">
        <ele>595</ele>
        <time>2022-04-04T18:39:35Z</time>
      </trkpt>
      <trkpt lat="46.50502" lon="5.41557">
        <ele>595</ele>
        <time>2022-04-04T18:39:38Z</time>
      </trkpt>
      <trkpt lat="46.50505" lon="5.41544">
        <ele>595</ele>
        <time>2022-04-04T18:39:39Z</time>
      </trkpt>
      <trkpt lat="46.50504" lon="5.41535">
        <ele>594</ele>
        <time>2022-04-04T18:39:41Z</time>
      </trkpt>
      <trkpt lat="46.50498" lon="5.41518">
        <ele>594</ele>
        <time>2022-04-04T18:39:43Z</time>
      </trkpt>
      <trkpt lat="46.50491" lon="5.41511">
        <ele>594</ele>
        <time>2022-04-04T18:39:44Z</time>
      </trkpt>
      <trkpt lat="46.50447" lon="5.41488">
        <ele>593</ele>
        <time>2022-04-04T18:39:53Z</time>
      </trkpt>
      <trkpt lat="46.50387" lon="5.41449">
        <ele>590</ele>
        <time>2022-04-04T18:40:04Z</time>
      </trkpt>
      <trkpt lat="46.50333" lon="5.41419">
        <ele>583</ele>
        <time>2022-04-04T18:40:15Z</time>
      </trkpt>
      <trkpt lat="46.50317" lon="5.41407">
        <ele>582</ele>
        <time>2022-04-04T18:40:18Z</time>
      </trkpt>
      <trkpt lat="46.50288" lon="5.41368">
        <ele>581</ele>
        <time>2022-04-04T18:40:25Z</time>
      </trkpt>
      <trkpt lat="46.50272" lon="5.4135">
        <ele>580</ele>
        <time>2022-04-04T18:40:29Z</time>
      </trkpt>
      <trkpt lat="46.50259" lon="5.41338">
        <ele>579</ele>
        <time>2022-04-04T18:40:31Z</time>
      </trkpt>
      <trkpt lat="46.50233" lon="5.4132">
        <ele>576</ele>
        <time>2022-04-04T18:40:36Z</time>
      </trkpt>
      <trkpt lat="46.50215" lon="5.41306">
        <ele>573</ele>
        <time>2022-04-04T18:40:40Z</time>
      </trkpt>
      <trkpt lat="46.50205" lon="5.41294">
        <ele>572</ele>
        <time>2022-04-04T18:40:42Z</time>
      </trkpt>
      <trkpt lat="46.50172" lon="5.41245">
        <ele>568</ele>
        <time>2022-04-04T18:40:51Z</time>
      </trkpt>
      <trkpt lat="46.50164" lon="5.41237">
        <ele>567</ele>
        <time>2022-04-04T18:40:52Z</time>
      </trkpt>
      <trkpt lat="46.50139" lon="5.41221">
        <ele>565</ele>
        <time>2022-04-04T18:40:57Z</time>
      </trkpt>
      <trkpt lat="46.50113" lon="5.41208">
        <ele>563</ele>
        <time>2022-04-04T18:41:02Z</time>
      </trkpt>
      <trkpt lat="46.50062" lon="5.41187">
        <ele>559</ele>
        <time>2022-04-04T18:41:12Z</time>
      </trkpt>
      <trkpt lat="46.5005" lon="5.41178">
        <ele>557</ele>
        <time>2022-04-04T18:41:14Z</time>
      </trkpt>
      <trkpt lat="46.50034" lon="5.41161">
        <ele>555</ele>
        <time>2022-04-04T18:41:18Z</time>
      </trkpt>
      <trkpt lat="46.50021" lon="5.41143">
        <ele>553</ele>
        <time>2022-04-04T18:41:21Z</time>
      </trkpt>
      <trkpt lat="46.50013" lon="5.41127">
        <ele>551</ele>
        <time>2022-04-04T18:41:23Z</time>
      </trkpt>
      <trkpt lat="46.49994" lon="5.41074">
        <ele>549</ele>
        <time>2022-04-04T18:41:30Z</time>
      </trkpt>
      <trkpt lat="46.49988" lon="5.41063">
        <ele>548</ele>
        <time>2022-04-04T18:41:32Z</time>
      </trkpt>
      <trkpt lat="46.49966" lon="5.40999">
        <ele>544</ele>
        <time>2022-04-04T18:41:41Z</time>
      </trkpt>
      <trkpt lat="46.4996" lon="5.40968">
        <ele>543</ele>
        <time>2022-04-04T18:41:45Z</time>
      </trkpt>
      <trkpt lat="46.49962" lon="5.4092">
        <ele>542</ele>
        <time>2022-04-04T18:41:51Z</time>
      </trkpt>
      <trkpt lat="46.49973" lon="5.40814">
        <ele>537</ele>
        <time>2022-04-04T18:42:04Z</time>
      </trkpt>
      <trkpt lat="46.49974" lon="5.40781">
        <ele>536</ele>
        <time>2022-04-04T18:42:08Z</time>
      </trkpt>
      <trkpt lat="46.49971" lon="5.40748">
        <ele>535</ele>
        <time>2022-04-04T18:42:12Z</time>
      </trkpt>
      <trkpt lat="46.49973" lon="5.40659">
        <ele>531</ele>
        <time>2022-04-04T18:42:23Z</time>
      </trkpt>
      <trkpt lat="46.49975" lon="5.4064">
        <ele>530</ele>
        <time>2022-04-04T18:42:25Z</time>
      </trkpt>
      <trkpt lat="46.49979" lon="5.40626">
        <ele>529</ele>
        <time>2022-04-04T18:42:27Z</time>
      </trkpt>
      <trkpt lat="46.49984" lon="5.40619">
        <ele>528</ele>
        <time>2022-04-04T18:42:28Z</time>
      </trkpt>
      <trkpt lat="46.49993" lon="5.40611">
        <ele>528</ele>
        <time>2022-04-04T18:42:30Z</time>
      </trkpt>
      <trkpt lat="46.5" lon="5.4061">
        <ele>527</ele>
        <time>2022-04-04T18:42:32Z</time>
      </trkpt>
      <trkpt lat="46.50011" lon="5.40613">
        <ele>525</ele>
        <time>2022-04-04T18:42:34Z</time>
      </trkpt>
      <trkpt lat="46.50019" lon="5.40624">
        <ele>523</ele>
        <time>2022-04-04T18:42:35Z</time>
      </trkpt>
      <trkpt lat="46.50076" lon="5.40756">
        <ele>524</ele>
        <time>2022-04-04T18:42:55Z</time>
      </trkpt>
      <trkpt lat="46.50094" lon="5.40804">
        <ele>526</ele>
        <time>2022-04-04T18:43:01Z</time>
      </trkpt>
      <trkpt lat="46.50103" lon="5.40823">
        <ele>527</ele>
        <time>2022-04-04T18:43:04Z</time>
      </trkpt>
      <trkpt lat="46.50121" lon="5.40839">
        <ele>528</ele>
        <time>2022-04-04T18:43:08Z</time>
      </trkpt>
      <trkpt lat="46.50137" lon="5.40843">
        <ele>528</ele>
        <time>2022-04-04T18:43:11Z</time>
      </trkpt>
      <trkpt lat="46.5015" lon="5.4084">
        <ele>527</ele>
        <time>2022-04-04T18:43:13Z</time>
      </trkpt>
      <trkpt lat="46.50196" lon="5.40822">
        <ele>519</ele>
        <time>2022-04-04T18:43:22Z</time>
      </trkpt>
      <trkpt lat="46.50216" lon="5.40821">
        <ele>517</ele>
        <time>2022-04-04T18:43:25Z</time>
      </trkpt>
      <trkpt lat="46.50275" lon="5.40853">
        <ele>524</ele>
        <time>2022-04-04T18:43:36Z</time>
      </trkpt>
      <trkpt lat="46.50293" lon="5.40853">
        <ele>522</ele>
        <time>2022-04-04T18:43:40Z</time>
      </trkpt>
      <trkpt lat="46.50322" lon="5.40847">
        <ele>516</ele>
        <time>2022-04-04T18:43:45Z</time>
      </trkpt>
      <trkpt lat="46.5034" lon="5.4085">
        <ele>515</ele>
        <time>2022-04-04T18:43:48Z</time>
      </trkpt>
      <trkpt lat="46.50408" lon="5.40896">
        <ele>522</ele>
        <time>2022-04-04T18:44:01Z</time>
      </trkpt>
      <trkpt lat="46.50477" lon="5.40926">
        <ele>516</ele>
        <time>2022-04-04T18:44:14Z</time>
      </trkpt>
      <trkpt lat="46.50509" lon="5.40942">
        <ele>515</ele>
        <time>2022-04-04T18:44:20Z</time>
      </trkpt>
      <trkpt lat="46.50612" lon="5.40975">
        <ele>513</ele>
        <time>2022-04-04T18:44:39Z</time>
      </trkpt>
      <trkpt lat="46.5064" lon="5.40991">
        <ele>515</ele>
        <time>2022-04-04T18:44:44Z</time>
      </trkpt>
      <trkpt lat="46.50658" lon="5.40996">
        <ele>514</ele>
        <time>2022-04-04T18:44:48Z</time>
      </trkpt>
      <trkpt lat="46.50675" lon="5.40992">
        <ele>512</ele>
        <time>2022-04-04T18:44:51Z</time>
      </trkpt>
      <trkpt lat="46.50702" lon="5.40977">
        <ele>508</ele>
        <time>2022-04-04T18:44:56Z</time>
      </trkpt>
      <trkpt lat="46.50738" lon="5.40946">
        <ele>499</ele>
        <time>2022-04-04T18:45:03Z</time>
      </trkpt>
      <trkpt lat="46.50747" lon="5.4094">
        <ele>498</ele>
        <time>2022-04-04T18:45:05Z</time>
      </trkpt>
      <trkpt lat="46.50795" lon="5.40927">
        <ele>492</ele>
        <time>2022-04-04T18:45:14Z</time>
      </trkpt>
      <trkpt lat="46.50837" lon="5.40907">
        <ele>486</ele>
        <time>2022-04-04T18:45:21Z</time>
      </trkpt>
      <trkpt lat="46.50858" lon="5.40903">
        <ele>486</ele>
        <time>2022-04-04T18:45:25Z</time>
      </trkpt>
      <trkpt lat="46.50868" lon="5.40899">
        <ele>486</ele>
        <time>2022-04-04T18:45:27Z</time>
      </trkpt>
      <trkpt lat="46.50871" lon="5.40895">
        <ele>485</ele>
        <time>2022-04-04T18:45:28Z</time>
      </trkpt>
      <trkpt lat="46.50875" lon="5.40883">
        <ele>483</ele>
        <time>2022-04-04T18:45:29Z</time>
      </trkpt>
      <trkpt lat="46.50874" lon="5.40876">
        <ele>481</ele>
        <time>2022-04-04T18:45:30Z</time>
      </trkpt>
      <trkpt lat="46.50871" lon="5.4087">
        <ele>480</ele>
        <time>2022-04-04T18:45:31Z</time>
      </trkpt>
      <trkpt lat="46.50867" lon="5.40866">
        <ele>479</ele>
        <time>2022-04-04T18:45:32Z</time>
      </trkpt>
      <trkpt lat="46.50862" lon="5.40865">
        <ele>479</ele>
        <time>2022-04-04T18:45:33Z</time>
      </trkpt>
      <trkpt lat="46.50855" lon="5.40867">
        <ele>479</ele>
        <time>2022-04-04T18:45:34Z</time>
      </trkpt>
      <trkpt lat="46.5083" lon="5.40885">
        <ele>482</ele>
        <time>2022-04-04T18:45:39Z</time>
      </trkpt>
      <trkpt lat="46.50823" lon="5.40888">
        <ele>483</ele>
        <time>2022-04-04T18:45:41Z</time>
      </trkpt>
      <trkpt lat="46.50813" lon="5.40889">
        <ele>483</ele>
        <time>2022-04-04T18:45:42Z</time>
      </trkpt>
      <trkpt lat="46.50792" lon="5.40886">
        <ele>482</ele>
        <time>2022-04-04T18:45:46Z</time>
      </trkpt>
      <trkpt lat="46.50783" lon="5.40879">
        <ele>480</ele>
        <time>2022-04-04T18:45:48Z</time>
      </trkpt>
      <trkpt lat="46.50779" lon="5.40872">
        <ele>479</ele>
        <time>2022-04-04T18:45:49Z</time>
      </trkpt>
      <trkpt lat="46.50778" lon="5.40864">
        <ele>477</ele>
        <time>2022-04-04T18:45:50Z</time>
      </trkpt>
      <trkpt lat="46.50779" lon="5.40855">
        <ele>475</ele>
        <time>2022-04-04T18:45:51Z</time>
      </trkpt>
      <trkpt lat="46.50783" lon="5.40847">
        <ele>473</ele>
        <time>2022-04-04T18:45:52Z</time>
      </trkpt>
      <trkpt lat="46.50791" lon="5.40841">
        <ele>472</ele>
        <time>2022-04-04T18:45:54Z</time>
      </trkpt>
      <trkpt lat="46.50826" lon="5.40837">
        <ele>473</ele>
        <time>2022-04-04T18:46:00Z</time>
      </trkpt>
      <trkpt lat="46.50836" lon="5.40833">
        <ele>473</ele>
        <time>2022-04-04T18:46:02Z</time>
      </trkpt>
      <trkpt lat="46.50861" lon="5.40818">
        <ele>469</ele>
        <time>2022-04-04T18:46:07Z</time>
      </trkpt>
      <trkpt lat="46.50874" lon="5.40813">
        <ele>468</ele>
        <time>2022-04-04T18:46:09Z</time>
      </trkpt>
      <trkpt lat="46.50882" lon="5.40812">
        <ele>468</ele>
        <time>2022-04-04T18:46:11Z</time>
      </trkpt>
      <trkpt lat="46.50921" lon="5.4082">
        <ele>468</ele>
        <time>2022-04-04T18:46:18Z</time>
      </trkpt>
      <trkpt lat="46.50949" lon="5.40819">
        <ele>466</ele>
        <time>2022-04-04T18:46:23Z</time>
      </trkpt>
      <trkpt lat="46.50962" lon="5.40821">
        <ele>465</ele>
        <time>2022-04-04T18:46:25Z</time>
      </trkpt>
      <trkpt lat="46.51008" lon="5.40841">
        <ele>465</ele>
        <time>2022-04-04T18:46:34Z</time>
      </trkpt>
      <trkpt lat="46.51018" lon="5.40838">
        <ele>462</ele>
        <time>2022-04-04T18:46:35Z</time>
      </trkpt>
      <trkpt lat="46.51021" lon="5.40833">
        <ele>460</ele>
        <time>2022-04-04T18:46:36Z</time>
      </trkpt>
      <trkpt lat="46.51023" lon="5.40818">
        <ele>457</ele>
        <time>2022-04-04T18:46:38Z</time>
      </trkpt>
      <trkpt lat="46.51022" lon="5.40811">
        <ele>456</ele>
        <time>2022-04-04T18:46:39Z</time>
      </trkpt>
      <trkpt lat="46.51016" lon="5.40803">
        <ele>455</ele>
        <time>2022-04-04T18:46:40Z</time>
      </trkpt>
      <trkpt lat="46.50969" lon="5.40795">
        <ele>459</ele>
        <time>2022-04-04T18:46:49Z</time>
      </trkpt>
      <trkpt lat="46.50947" lon="5.40781">
        <ele>457</ele>
        <time>2022-04-04T18:46:53Z</time>
      </trkpt>
      <trkpt lat="46.50923" lon="5.40762">
        <ele>455</ele>
        <time>2022-04-04T18:46:58Z</time>
      </trkpt>
      <trkpt lat="46.50912" lon="5.40751">
        <ele>453</ele>
        <time>2022-04-04T18:47:00Z</time>
      </trkpt>
      <trkpt lat="46.50866" lon="5.40687">
        <ele>447</ele>
        <time>2022-04-04T18:47:12Z</time>
      </trkpt>
      <trkpt lat="46.50849" lon="5.40673">
        <ele>446</ele>
        <time>2022-04-04T18:47:15Z</time>
      </trkpt>
      <trkpt lat="46.50875" lon="5.40617">
        <ele>439</ele>
        <time>2022-04-04T18:47:23Z</time>
      </trkpt>
      <trkpt lat="46.50896" lon="5.40559">
        <ele>435</ele>
        <time>2022-04-04T18:47:31Z</time>
      </trkpt>
      <trkpt lat="46.50903" lon="5.40545">
        <ele>434</ele>
        <time>2022-04-04T18:47:34Z</time>
      </trkpt>
      <trkpt lat="46.50906" lon="5.40533">
        <ele>434</ele>
        <time>2022-04-04T18:47:35Z</time>
      </trkpt>
      <trkpt lat="46.50908" lon="5.40506">
        <ele>433</ele>
        <time>2022-04-04T18:47:38Z</time>
      </trkpt>
      <trkpt lat="46.50916" lon="5.40486">
        <ele>435</ele>
        <time>2022-04-04T18:47:41Z</time>
      </trkpt>
      <trkpt lat="46.50906" lon="5.40428">
        <ele>436</ele>
        <time>2022-04-04T18:47:49Z</time>
      </trkpt>
      <trkpt lat="46.50906" lon="5.40354">
        <ele>441</ele>
        <time>2022-04-04T18:47:58Z</time>
      </trkpt>
      <trkpt lat="46.50909" lon="5.40325">
        <ele>444</ele>
        <time>2022-04-04T18:48:01Z</time>
      </trkpt>
      <trkpt lat="46.50923" lon="5.40282">
        <ele>446</ele>
        <time>2022-04-04T18:48:07Z</time>
      </trkpt>
      <trkpt lat="46.50955" lon="5.40309">
        <ele>450</ele>
        <time>2022-04-04T18:48:14Z</time>
      </trkpt>
      <trkpt lat="46.50968" lon="5.40312">
        <ele>452</ele>
        <time>2022-04-04T18:48:16Z</time>
      </trkpt>
      <trkpt lat="46.5098" lon="5.40339">
        <ele>454</ele>
        <time>2022-04-04T18:48:20Z</time>
      </trkpt>
      <trkpt lat="46.50985" lon="5.40346">
        <ele>454</ele>
        <time>2022-04-04T18:48:21Z</time>
      </trkpt>
      <trkpt lat="46.51002" lon="5.40361">
        <ele>455</ele>
        <time>2022-04-04T18:48:25Z</time>
      </trkpt>
      <trkpt lat="46.51022" lon="5.4037">
        <ele>454</ele>
        <time>2022-04-04T18:48:28Z</time>
      </trkpt>
      <trkpt lat="46.51038" lon="5.4037">
        <ele>453</ele>
        <time>2022-04-04T18:48:31Z</time>
      </trkpt>
      <trkpt lat="46.51044" lon="5.40363">
        <ele>454</ele>
        <time>2022-04-04T18:48:33Z</time>
      </trkpt>
      <trkpt lat="46.51045" lon="5.40358">
        <ele>454</ele>
        <time>2022-04-04T18:48:33Z</time>
      </trkpt>
      <trkpt lat="46.51044" lon="5.40363">
        <ele>454</ele>
        <time>2022-04-04T18:48:34Z</time>
      </trkpt>
      <trkpt lat="46.51038" lon="5.4037">
        <ele>453</ele>
        <time>2022-04-04T18:48:35Z</time>
      </trkpt>
      <trkpt lat="46.51022" lon="5.4037">
        <ele>454</ele>
        <time>2022-04-04T18:48:38Z</time>
      </trkpt>
      <trkpt lat="46.51002" lon="5.40361">
        <ele>455</ele>
        <time>2022-04-04T18:48:42Z</time>
      </trkpt>
      <trkpt lat="46.50985" lon="5.40346">
        <ele>454</ele>
        <time>2022-04-04T18:48:45Z</time>
      </trkpt>
      <trkpt lat="46.5098" lon="5.40339">
        <ele>454</ele>
        <time>2022-04-04T18:48:47Z</time>
      </trkpt>
      <trkpt lat="46.50968" lon="5.40312">
        <ele>452</ele>
        <time>2022-04-04T18:48:51Z</time>
      </trkpt>
      <trkpt lat="46.50955" lon="5.40309">
        <ele>450</ele>
        <time>2022-04-04T18:48:53Z</time>
      </trkpt>
      <trkpt lat="46.50923" lon="5.40282">
        <ele>446</ele>
        <time>2022-04-04T18:48:59Z</time>
      </trkpt>
      <trkpt lat="46.50909" lon="5.40325">
        <ele>444</ele>
        <time>2022-04-04T18:49:05Z</time>
      </trkpt>
      <trkpt lat="46.50906" lon="5.40354">
        <ele>441</ele>
        <time>2022-04-04T18:49:09Z</time>
      </trkpt>
      <trkpt lat="46.50906" lon="5.40428">
        <ele>436</ele>
        <time>2022-04-04T18:49:18Z</time>
      </trkpt>
      <trkpt lat="46.50916" lon="5.40486">
        <ele>435</ele>
        <time>2022-04-04T18:49:25Z</time>
      </trkpt>
      <trkpt lat="46.50925" lon="5.40485">
        <ele>435</ele>
        <time>2022-04-04T18:49:27Z</time>
      </trkpt>
      <trkpt lat="46.51009" lon="5.40527">
        <ele>434</ele>
        <time>2022-04-04T18:49:43Z</time>
      </trkpt>
      <trkpt lat="46.51037" lon="5.40533">
        <ele>428</ele>
        <time>2022-04-04T18:49:48Z</time>
      </trkpt>
      <trkpt lat="46.5104" lon="5.40536">
        <ele>428</ele>
        <time>2022-04-04T18:49:48Z</time>
      </trkpt>
      <trkpt lat="46.51041" lon="5.40565">
        <ele>425</ele>
        <time>2022-04-04T18:49:52Z</time>
      </trkpt>
      <trkpt lat="46.5107" lon="5.40676">
        <ele>425</ele>
        <time>2022-04-04T18:50:06Z</time>
      </trkpt>
      <trkpt lat="46.51076" lon="5.40691">
        <ele>426</ele>
        <time>2022-04-04T18:50:09Z</time>
      </trkpt>
      <trkpt lat="46.51119" lon="5.40757">
        <ele>428</ele>
        <time>2022-04-04T18:50:20Z</time>
      </trkpt>
      <trkpt lat="46.51143" lon="5.40787">
        <ele>429</ele>
        <time>2022-04-04T18:50:25Z</time>
      </trkpt>
      <trkpt lat="46.51152" lon="5.40801">
        <ele>430</ele>
        <time>2022-04-04T18:50:28Z</time>
      </trkpt>
      <trkpt lat="46.51169" lon="5.40834">
        <ele>435</ele>
        <time>2022-04-04T18:50:33Z</time>
      </trkpt>
      <trkpt lat="46.51173" lon="5.40838">
        <ele>435</ele>
        <time>2022-04-04T18:50:34Z</time>
      </trkpt>
      <trkpt lat="46.51181" lon="5.40841">
        <ele>435</ele>
        <time>2022-04-04T18:50:35Z</time>
      </trkpt>
      <trkpt lat="46.51237" lon="5.40831">
        <ele>425</ele>
        <time>2022-04-04T18:50:45Z</time>
      </trkpt>
      <trkpt lat="46.51309" lon="5.40844">
        <ele>420</ele>
        <time>2022-04-04T18:50:58Z</time>
      </trkpt>
      <trkpt lat="46.51319" lon="5.40847">
        <ele>420</ele>
        <time>2022-04-04T18:51:00Z</time>
      </trkpt>
      <trkpt lat="46.5134" lon="5.40861">
        <ele>422</ele>
        <time>2022-04-04T18:51:04Z</time>
      </trkpt>
      <trkpt lat="46.51351" lon="5.40865">
        <ele>422</ele>
        <time>2022-04-04T18:51:06Z</time>
      </trkpt>
      <trkpt lat="46.51411" lon="5.40879">
        <ele>424</ele>
        <time>2022-04-04T18:51:17Z</time>
      </trkpt>
      <trkpt lat="46.51424" lon="5.4088">
        <ele>424</ele>
        <time>2022-04-04T18:51:19Z</time>
      </trkpt>
      <trkpt lat="46.51479" lon="5.40871">
        <ele>419</ele>
        <time>2022-04-04T18:51:29Z</time>
      </trkpt>
      <trkpt lat="46.51502" lon="5.4087">
        <ele>417</ele>
        <time>2022-04-04T18:51:33Z</time>
      </trkpt>
      <trkpt lat="46.5156" lon="5.40881">
        <ele>418</ele>
        <time>2022-04-04T18:51:43Z</time>
      </trkpt>
      <trkpt lat="46.51596" lon="5.40885">
        <ele>418</ele>
        <time>2022-04-04T18:51:50Z</time>
      </trkpt>
      <trkpt lat="46.51643" lon="5.40882">
        <ele>421</ele>
        <time>2022-04-04T18:51:58Z</time>
      </trkpt>
      <trkpt lat="46.5166" lon="5.40873">
        <ele>420</ele>
        <time>2022-04-04T18:52:01Z</time>
      </trkpt>
      <trkpt lat="46.51668" lon="5.40865">
        <ele>419</ele>
        <time>2022-04-04T18:52:03Z</time>
      </trkpt>
      <trkpt lat="46.51675" lon="5.40856">
        <ele>420</ele>
        <time>2022-04-04T18:52:05Z</time>
      </trkpt>
      <trkpt lat="46.51682" lon="5.40843">
        <ele>421</ele>
        <time>2022-04-04T18:52:07Z</time>
      </trkpt>
      <trkpt lat="46.51689" lon="5.40824">
        <ele>419</ele>
        <time>2022-04-04T18:52:10Z</time>
      </trkpt>
      <trkpt lat="46.51725" lon="5.4071">
        <ele>404</ele>
        <time>2022-04-04T18:52:25Z</time>
      </trkpt>
      <trkpt lat="46.51732" lon="5.40697">
        <ele>403</ele>
        <time>2022-04-04T18:52:27Z</time>
      </trkpt>
      <trkpt lat="46.51741" lon="5.40686">
        <ele>403</ele>
        <time>2022-04-04T18:52:29Z</time>
      </trkpt>
      <trkpt lat="46.51787" lon="5.40643">
        <ele>400</ele>
        <time>2022-04-04T18:52:39Z</time>
      </trkpt>
      <trkpt lat="46.5179" lon="5.40631">
        <ele>397</ele>
        <time>2022-04-04T18:52:40Z</time>
      </trkpt>
      <trkpt lat="46.51803" lon="5.40623">
        <ele>398</ele>
        <time>2022-04-04T18:52:43Z</time>
      </trkpt>
      <trkpt lat="46.51829" lon="5.40614">
        <ele>400</ele>
        <time>2022-04-04T18:52:48Z</time>
      </trkpt>
      <trkpt lat="46.5185" lon="5.40599">
        <ele>398</ele>
        <time>2022-04-04T18:52:52Z</time>
      </trkpt>
      <trkpt lat="46.5187" lon="5.40579">
        <ele>394</ele>
        <time>2022-04-04T18:52:56Z</time>
      </trkpt>
      <trkpt lat="46.51889" lon="5.40565">
        <ele>393</ele>
        <time>2022-04-04T18:53:00Z</time>
      </trkpt>
      <trkpt lat="46.51919" lon="5.40549">
        <ele>390</ele>
        <time>2022-04-04T18:53:05Z</time>
      </trkpt>
      <trkpt lat="46.51954" lon="5.40525">
        <ele>388</ele>
        <time>2022-04-04T18:53:12Z</time>
      </trkpt>
      <trkpt lat="46.51985" lon="5.40512">
        <ele>389</ele>
        <time>2022-04-04T18:53:18Z</time>
      </trkpt>
      <trkpt lat="46.51992" lon="5.40507">
        <ele>388</ele>
        <time>2022-04-04T18:53:20Z</time>
      </trkpt>
      <trkpt lat="46.51998" lon="5.405">
        <ele>388</ele>
        <time>2022-04-04T18:53:21Z</time>
      </trkpt>
      <trkpt lat="46.5201" lon="5.40477">
        <ele>387</ele>
        <time>2022-04-04T18:53:24Z</time>
      </trkpt>
      <trkpt lat="46.52051" lon="5.40384">
        <ele>380</ele>
        <time>2022-04-04T18:53:38Z</time>
      </trkpt>
      <trkpt lat="46.52068" lon="5.40366">
        <ele>378</ele>
        <time>2022-04-04T18:53:42Z</time>
      </trkpt>
      <trkpt lat="46.52083" lon="5.40356">
        <ele>378</ele>
        <time>2022-04-04T18:53:45Z</time>
      </trkpt>
      <trkpt lat="46.52112" lon="5.40343">
        <ele>374</ele>
        <time>2022-04-04T18:53:50Z</time>
      </trkpt>
      <trkpt lat="46.52141" lon="5.40333">
        <ele>370</ele>
        <time>2022-04-04T18:53:55Z</time>
      </trkpt>
      <trkpt lat="46.52183" lon="5.40336">
        <ele>369</ele>
        <time>2022-04-04T18:54:03Z</time>
      </trkpt>
      <trkpt lat="46.52203" lon="5.4034">
        <ele>367</ele>
        <time>2022-04-04T18:54:06Z</time>
      </trkpt>
      <trkpt lat="46.52218" lon="5.40348">
        <ele>367</ele>
        <time>2022-04-04T18:54:09Z</time>
      </trkpt>
      <trkpt lat="46.52266" lon="5.40381">
        <ele>365</ele>
        <time>2022-04-04T18:54:19Z</time>
      </trkpt>
      <trkpt lat="46.52285" lon="5.40398">
        <ele>362</ele>
        <time>2022-04-04T18:54:23Z</time>
      </trkpt>
      <trkpt lat="46.52309" lon="5.40425">
        <ele>359</ele>
        <time>2022-04-04T18:54:28Z</time>
      </trkpt>
      <trkpt lat="46.52325" lon="5.40447">
        <ele>356</ele>
        <time>2022-04-04T18:54:32Z</time>
      </trkpt>
      <trkpt lat="46.52338" lon="5.40472">
        <ele>354</ele>
        <time>2022-04-04T18:54:36Z</time>
      </trkpt>
      <trkpt lat="46.52353" lon="5.40522">
        <ele>355</ele>
        <time>2022-04-04T18:54:42Z</time>
      </trkpt>
      <trkpt lat="46.52357" lon="5.40543">
        <ele>355</ele>
        <time>2022-04-04T18:54:45Z</time>
      </trkpt>
      <trkpt lat="46.52362" lon="5.40582">
        <ele>356</ele>
        <time>2022-04-04T18:54:50Z</time>
      </trkpt>
      <trkpt lat="46.52365" lon="5.40593">
        <ele>355</ele>
        <time>2022-04-04T18:54:51Z</time>
      </trkpt>
      <trkpt lat="46.52369" lon="5.40598">
        <ele>353</ele>
        <time>2022-04-04T18:54:52Z</time>
      </trkpt>
      <trkpt lat="46.52372" lon="5.40598">
        <ele>352</ele>
        <time>2022-04-04T18:54:53Z</time>
      </trkpt>
      <trkpt lat="46.52375" lon="5.40593">
        <ele>351</ele>
        <time>2022-04-04T18:54:54Z</time>
      </trkpt>
      <trkpt lat="46.52378" lon="5.40583">
        <ele>350</ele>
        <time>2022-04-04T18:54:55Z</time>
      </trkpt>
      <trkpt lat="46.52371" lon="5.40501">
        <ele>347</ele>
        <time>2022-04-04T18:55:05Z</time>
      </trkpt>
      <trkpt lat="46.52366" lon="5.40469">
        <ele>345</ele>
        <time>2022-04-04T18:55:09Z</time>
      </trkpt>
      <trkpt lat="46.52362" lon="5.40455">
        <ele>344</ele>
        <time>2022-04-04T18:55:11Z</time>
      </trkpt>
      <trkpt lat="46.5231" lon="5.40325">
        <ele>341</ele>
        <time>2022-04-04T18:55:29Z</time>
      </trkpt>
      <trkpt lat="46.52283" lon="5.40263">
        <ele>340</ele>
        <time>2022-04-04T18:55:38Z</time>
      </trkpt>
      <trkpt lat="46.52279" lon="5.40246">
        <ele>339</ele>
        <time>2022-04-04T18:55:41Z</time>
      </trkpt>
      <trkpt lat="46.52281" lon="5.40228">
        <ele>337</ele>
        <time>2022-04-04T18:55:43Z</time>
      </trkpt>
      <trkpt lat="46.52287" lon="5.40216">
        <ele>335</ele>
        <time>2022-04-04T18:55:45Z</time>
      </trkpt>
      <trkpt lat="46.52302" lon="5.40195">
        <ele>331</ele>
        <time>2022-04-04T18:55:48Z</time>
      </trkpt>
      <trkpt lat="46.52339" lon="5.40127">
        <ele>326</ele>
        <time>2022-04-04T18:55:59Z</time>
      </trkpt>
      <trkpt lat="46.52352" lon="5.40143">
        <ele>326</ele>
        <time>2022-04-04T18:56:02Z</time>
      </trkpt>
      <trkpt lat="46.5237" lon="5.40172">
        <ele>326</ele>
        <time>2022-04-04T18:56:07Z</time>
      </trkpt>
      <trkpt lat="46.52391" lon="5.40211">
        <ele>324</ele>
        <time>2022-04-04T18:56:13Z</time>
      </trkpt>
      <trkpt lat="46.52433" lon="5.40312">
        <ele>316</ele>
        <time>2022-04-04T18:56:27Z</time>
      </trkpt>
      <trkpt lat="46.5245" lon="5.40343">
        <ele>314</ele>
        <time>2022-04-04T18:56:32Z</time>
      </trkpt>
      <trkpt lat="46.52474" lon="5.4038">
        <ele>310</ele>
        <time>2022-04-04T18:56:38Z</time>
      </trkpt>
      <trkpt lat="46.52483" lon="5.40385">
        <ele>308</ele>
        <time>2022-04-04T18:56:40Z</time>
      </trkpt>
      <trkpt lat="46.52508" lon="5.40386">
        <ele>304</ele>
        <time>2022-04-04T18:56:45Z</time>
      </trkpt>
      <trkpt lat="46.52535" lon="5.40392">
        <ele>301</ele>
        <time>2022-04-04T18:56:49Z</time>
      </trkpt>
      <trkpt lat="46.52558" lon="5.40403">
        <ele>297</ele>
        <time>2022-04-04T18:56:54Z</time>
      </trkpt>
      <trkpt lat="46.52572" lon="5.40419">
        <ele>293</ele>
        <time>2022-04-04T18:56:57Z</time>
      </trkpt>
      <trkpt lat="46.52628" lon="5.40498">
        <ele>279</ele>
        <time>2022-04-04T18:57:11Z</time>
      </trkpt>
      <trkpt lat="46.52634" lon="5.40512">
        <ele>278</ele>
        <time>2022-04-04T18:57:13Z</time>
      </trkpt>
      <trkpt lat="46.52633" lon="5.4053">
        <ele>277</ele>
        <time>2022-04-04T18:57:15Z</time>
      </trkpt>
      <trkpt lat="46.52624" lon="5.40588">
        <ele>273</ele>
        <time>2022-04-04T18:57:22Z</time>
      </trkpt>
      <trkpt lat="46.52601" lon="5.40668">
        <ele>271</ele>
        <time>2022-04-04T18:57:33Z</time>
      </trkpt>
      <trkpt lat="46.52598" lon="5.4069">
        <ele>272</ele>
        <time>2022-04-04T18:57:36Z</time>
      </trkpt>
      <trkpt lat="46.526" lon="5.40711">
        <ele>271</ele>
        <time>2022-04-04T18:57:38Z</time>
      </trkpt>
      <trkpt lat="46.52608" lon="5.40728">
        <ele>269</ele>
        <time>2022-04-04T18:57:41Z</time>
      </trkpt>
      <trkpt lat="46.52626" lon="5.40755">
        <ele>266</ele>
        <time>2022-04-04T18:57:45Z</time>
      </trkpt>
      <trkpt lat="46.52634" lon="5.40776">
        <ele>264</ele>
        <time>2022-04-04T18:57:48Z</time>
      </trkpt>
      <trkpt lat="46.52639" lon="5.40801">
        <ele>262</ele>
        <time>2022-04-04T18:57:52Z</time>
      </trkpt>
      <trkpt lat="46.52647" lon="5.4083">
        <ele>261</ele>
        <time>2022-04-04T18:57:55Z</time>
      </trkpt>
      <trkpt lat="46.52679" lon="5.40891">
        <ele>255</ele>
        <time>2022-04-04T18:58:05Z</time>
      </trkpt>
      <trkpt lat="46.52688" lon="5.40924">
        <ele>252</ele>
        <time>2022-04-04T18:58:09Z</time>
      </trkpt>
      <trkpt lat="46.52693" lon="5.40963">
        <ele>251</ele>
        <time>2022-04-04T18:58:14Z</time>
      </trkpt>
      <trkpt lat="46.52695" lon="5.41001">
        <ele>250</ele>
        <time>2022-04-04T18:58:19Z</time>
      </trkpt>
      <trkpt lat="46.52695" lon="5.41019">
        <ele>249</ele>
        <time>2022-04-04T18:58:21Z</time>
      </trkpt>
      <trkpt lat="46.52691" lon="5.41043">
        <ele>249</ele>
        <time>2022-04-04T18:58:24Z</time>
      </trkpt>
      <trkpt lat="46.52678" lon="5.41079">
        <ele>250</ele>
        <time>2022-04-04T18:58:29Z</time>
      </trkpt>
      <trkpt lat="46.52677" lon="5.41101">
        <ele>250</ele>
        <time>2022-04-04T18:58:32Z</time>
      </trkpt>
      <trkpt lat="46.52679" lon="5.41108">
        <ele>249</ele>
        <time>2022-04-04T18:58:32Z</time>
      </trkpt>
      <trkpt lat="46.5273" lon="5.41139">
        <ele>241</ele>
        <time>2022-04-04T18:58:42Z</time>
      </trkpt>
      <trkpt lat="46.52753" lon="5.41148">
        <ele>238</ele>
        <time>2022-04-04T18:58:47Z</time>
      </trkpt>
      <trkpt lat="46.52774" lon="5.41153">
        <ele>239</ele>
        <time>2022-04-04T18:58:50Z</time>
      </trkpt>
      <trkpt lat="46.52778" lon="5.41172">
        <ele>239</ele>
        <time>2022-04-04T18:58:53Z</time>
      </trkpt>
      <trkpt lat="46.52779" lon="5.412">
        <ele>239</ele>
        <time>2022-04-04T18:58:56Z</time>
      </trkpt>
      <trkpt lat="46.52776" lon="5.41301">
        <ele>237</ele>
        <time>2022-04-04T18:59:09Z</time>
      </trkpt>
      <trkpt lat="46.52772" lon="5.41324">
        <ele>237</ele>
        <time>2022-04-04T18:59:11Z</time>
      </trkpt>
      <trkpt lat="46.52764" lon="5.41351">
        <ele>237</ele>
        <time>2022-04-04T18:59:15Z</time>
      </trkpt>
      <trkpt lat="46.5276" lon="5.41369">
        <ele>236</ele>
        <time>2022-04-04T18:59:17Z</time>
      </trkpt>
      <trkpt lat="46.52763" lon="5.41444">
        <ele>236</ele>
        <time>2022-04-04T18:59:27Z</time>
      </trkpt>
      <trkpt lat="46.5277" lon="5.41547">
        <ele>241</ele>
        <time>2022-04-04T18:59:39Z</time>
      </trkpt>
      <trkpt lat="46.5278" lon="5.4162">
        <ele>243</ele>
        <time>2022-04-04T18:59:48Z</time>
      </trkpt>
      <trkpt lat="46.5278" lon="5.41648">
        <ele>243</ele>
        <time>2022-04-04T18:59:52Z</time>
      </trkpt>
      <trkpt lat="46.52771" lon="5.41684">
        <ele>244</ele>
        <time>2022-04-04T18:59:56Z</time>
      </trkpt>
      <trkpt lat="46.52767" lon="5.41712">
        <ele>244</ele>
        <time>2022-04-04T19:00:00Z</time>
      </trkpt>
      <trkpt lat="46.52767" lon="5.41731">
        <ele>244</ele>
        <time>2022-04-04T19:00:02Z</time>
      </trkpt>
      <trkpt lat="46.52764" lon="5.41743">
        <ele>244</ele>
        <time>2022-04-04T19:00:04Z</time>
      </trkpt>
      <trkpt lat="46.52759" lon="5.41752">
        <ele>244</ele>
        <time>2022-04-04T19:00:05Z</time>
      </trkpt>
      <trkpt lat="46.52734" lon="5.41769">
        <ele>248</ele>
        <time>2022-04-04T19:00:10Z</time>
      </trkpt>
      <trkpt lat="46.52724" lon="5.41783">
        <ele>251</ele>
        <time>2022-04-04T19:00:13Z</time>
      </trkpt>
      <trkpt lat="46.5272" lon="5.41797">
        <ele>253</ele>
        <time>2022-04-04T19:00:15Z</time>
      </trkpt>
      <trkpt lat="46.5272" lon="5.41818">
        <ele>253</ele>
        <time>2022-04-04T19:00:17Z</time>
      </trkpt>
      <trkpt lat="46.52726" lon="5.41846">
        <ele>253</ele>
        <time>2022-04-04T19:00:21Z</time>
      </trkpt>
      <trkpt lat="46.52728" lon="5.41867">
        <ele>253</ele>
        <time>2022-04-04T19:00:23Z</time>
      </trkpt>
      <trkpt lat="46.52728" lon="5.41934">
        <ele>256</ele>
        <time>2022-04-04T19:00:31Z</time>
      </trkpt>
      <trkpt lat="46.52723" lon="5.41979">
        <ele>259</ele>
        <time>2022-04-04T19:00:37Z</time>
      </trkpt>
      <trkpt lat="46.52723" lon="5.41995">
        <ele>260</ele>
        <time>2022-04-04T19:00:39Z</time>
      </trkpt>
      <trkpt lat="46.52727" lon="5.42015">
        <ele>260</ele>
        <time>2022-04-04T19:00:42Z</time>
      </trkpt>
      <trkpt lat="46.52733" lon="5.42034">
        <ele>259</ele>
        <time>2022-04-04T19:00:44Z</time>
      </trkpt>
      <trkpt lat="46.52772" lon="5.42103">
        <ele>255</ele>
        <time>2022-04-04T19:00:55Z</time>
      </trkpt>
      <trkpt lat="46.52793" lon="5.42122">
        <ele>254</ele>
        <time>2022-04-04T19:00:59Z</time>
      </trkpt>
      <trkpt lat="46.52807" lon="5.42131">
        <ele>253</ele>
        <time>2022-04-04T19:01:02Z</time>
      </trkpt>
      <trkpt lat="46.52813" lon="5.42135">
        <ele>253</ele>
        <time>2022-04-04T19:01:03Z</time>
      </trkpt>
      <trkpt lat="46.52815" lon="5.42137">
        <ele>253</ele>
        <time>2022-04-04T19:01:04Z</time>
      </trkpt>
      <trkpt lat="46.52842" lon="5.42058">
        <ele>254</ele>
        <time>2022-04-04T19:01:15Z</time>
      </trkpt>
      <trkpt lat="46.52841" lon="5.42039">
        <ele>255</ele>
        <time>2022-04-04T19:01:17Z</time>
      </trkpt>
      <trkpt lat="46.52832" lon="5.41986">
        <ele>254</ele>
        <time>2022-04-04T19:01:24Z</time>
      </trkpt>
      <trkpt lat="46.52831" lon="5.41964">
        <ele>255</ele>
        <time>2022-04-04T19:01:26Z</time>
      </trkpt>
      <trkpt lat="46.52837" lon="5.41912">
        <ele>257</ele>
        <time>2022-04-04T19:01:33Z</time>
      </trkpt>
      <trkpt lat="46.52846" lon="5.41789">
        <ele>256</ele>
        <time>2022-04-04T19:01:48Z</time>
      </trkpt>
      <trkpt lat="46.52852" lon="5.41755">
        <ele>257</ele>
        <time>2022-04-04T19:01:52Z</time>
      </trkpt>
      <trkpt lat="46.52914" lon="5.41592">
        <ele>263</ele>
        <time>2022-04-04T19:02:15Z</time>
      </trkpt>
      <trkpt lat="46.52926" lon="5.41565">
        <ele>263</ele>
        <time>2022-04-04T19:02:19Z</time>
      </trkpt>
      <trkpt lat="46.52939" lon="5.41548">
        <ele>263</ele>
        <time>2022-04-04T19:02:22Z</time>
      </trkpt>
      <trkpt lat="46.52954" lon="5.4153">
        <ele>264</ele>
        <time>2022-04-04T19:02:25Z</time>
      </trkpt>
      <trkpt lat="46.52978" lon="5.4151">
        <ele>265</ele>
        <time>2022-04-04T19:02:30Z</time>
      </trkpt>
      <trkpt lat="46.53026" lon="5.41473">
        <ele>268</ele>
        <time>2022-04-04T19:02:40Z</time>
      </trkpt>
      <trkpt lat="46.53042" lon="5.41465">
        <ele>270</ele>
        <time>2022-04-04T19:02:43Z</time>
      </trkpt>
      <trkpt lat="46.53068" lon="5.41462">
        <ele>273</ele>
        <time>2022-04-04T19:02:48Z</time>
      </trkpt>
      <trkpt lat="46.53084" lon="5.41455">
        <ele>275</ele>
        <time>2022-04-04T19:02:51Z</time>
      </trkpt>
      <trkpt lat="46.53107" lon="5.41433">
        <ele>275</ele>
        <time>2022-04-04T19:02:56Z</time>
      </trkpt>
      <trkpt lat="46.53126" lon="5.41407">
        <ele>275</ele>
        <time>2022-04-04T19:03:00Z</time>
      </trkpt>
      <trkpt lat="46.53132" lon="5.41396">
        <ele>275</ele>
        <time>2022-04-04T19:03:02Z</time>
      </trkpt>
      <trkpt lat="46.53135" lon="5.41383">
        <ele>275</ele>
        <time>2022-04-04T19:03:04Z</time>
      </trkpt>
      <trkpt lat="46.53135" lon="5.41372">
        <ele>275</ele>
        <time>2022-04-04T19:03:05Z</time>
      </trkpt>
      <trkpt lat="46.53125" lon="5.41323">
        <ele>271</ele>
        <time>2022-04-04T19:03:11Z</time>
      </trkpt>
      <trkpt lat="46.53126" lon="5.41314">
        <ele>271</ele>
        <time>2022-04-04T19:03:12Z</time>
      </trkpt>
      <trkpt lat="46.53129" lon="5.41303">
        <ele>271</ele>
        <time>2022-04-04T19:03:14Z</time>
      </trkpt>
      <trkpt lat="46.53137" lon="5.41292">
        <ele>272</ele>
        <time>2022-04-04T19:03:16Z</time>
      </trkpt>
      <trkpt lat="46.53165" lon="5.41266">
        <ele>276</ele>
        <time>2022-04-04T19:03:22Z</time>
      </trkpt>
      <trkpt lat="46.5318" lon="5.41255">
        <ele>278</ele>
        <time>2022-04-04T19:03:25Z</time>
      </trkpt>
      <trkpt lat="46.5319" lon="5.41239">
        <ele>280</ele>
        <time>2022-04-04T19:03:27Z</time>
      </trkpt>
      <trkpt lat="46.53191" lon="5.41223">
        <ele>282</ele>
        <time>2022-04-04T19:03:29Z</time>
      </trkpt>
      <trkpt lat="46.53188" lon="5.41215">
        <ele>282</ele>
        <time>2022-04-04T19:03:30Z</time>
      </trkpt>
      <trkpt lat="46.53182" lon="5.41206">
        <ele>282</ele>
        <time>2022-04-04T19:03:32Z</time>
      </trkpt>
      <trkpt lat="46.53136" lon="5.41172">
        <ele>282</ele>
        <time>2022-04-04T19:03:41Z</time>
      </trkpt>
      <trkpt lat="46.53118" lon="5.41164">
        <ele>282</ele>
        <time>2022-04-04T19:03:44Z</time>
      </trkpt>
      <trkpt lat="46.53071" lon="5.41152">
        <ele>281</ele>
        <time>2022-04-04T19:03:53Z</time>
      </trkpt>
      <trkpt lat="46.53059" lon="5.41145">
        <ele>281</ele>
        <time>2022-04-04T19:03:55Z</time>
      </trkpt>
      <trkpt lat="46.53053" lon="5.41136">
        <ele>281</ele>
        <time>2022-04-04T19:03:57Z</time>
      </trkpt>
      <trkpt lat="46.53052" lon="5.41127">
        <ele>282</ele>
        <time>2022-04-04T19:03:58Z</time>
      </trkpt>
      <trkpt lat="46.53053" lon="5.41118">
        <ele>283</ele>
        <time>2022-04-04T19:03:59Z</time>
      </trkpt>
      <trkpt lat="46.53058" lon="5.4111">
        <ele>283</ele>
        <time>2022-04-04T19:04:00Z</time>
      </trkpt>
      <trkpt lat="46.53072" lon="5.41108">
        <ele>284</ele>
        <time>2022-04-04T19:04:03Z</time>
      </trkpt>
      <trkpt lat="46.53147" lon="5.41141">
        <ele>284</ele>
        <time>2022-04-04T19:04:17Z</time>
      </trkpt>
      <trkpt lat="46.53159" lon="5.41142">
        <ele>284</ele>
        <time>2022-04-04T19:04:19Z</time>
      </trkpt>
      <trkpt lat="46.53172" lon="5.4114">
        <ele>285</ele>
        <time>2022-04-04T19:04:21Z</time>
      </trkpt>
      <trkpt lat="46.53214" lon="5.41128">
        <ele>288</ele>
        <time>2022-04-04T19:04:29Z</time>
      </trkpt>
      <trkpt lat="46.53232" lon="5.41131">
        <ele>289</ele>
        <time>2022-04-04T19:04:32Z</time>
      </trkpt>
      <trkpt lat="46.53262" lon="5.41144">
        <ele>292</ele>
        <time>2022-04-04T19:04:38Z</time>
      </trkpt>
      <trkpt lat="46.53269" lon="5.41158">
        <ele>294</ele>
        <time>2022-04-04T19:04:40Z</time>
      </trkpt>
      <trkpt lat="46.53272" lon="5.41173">
        <ele>294</ele>
        <time>2022-04-04T19:04:42Z</time>
      </trkpt>
      <trkpt lat="46.53275" lon="5.41201">
        <ele>295</ele>
        <time>2022-04-04T19:04:45Z</time>
      </trkpt>
      <trkpt lat="46.53281" lon="5.4141">
        <ele>304</ele>
        <time>2022-04-04T19:05:11Z</time>
      </trkpt>
      <trkpt lat="46.5328" lon="5.41428">
        <ele>305</ele>
        <time>2022-04-04T19:05:13Z</time>
      </trkpt>
      <trkpt lat="46.53278" lon="5.41441">
        <ele>306</ele>
        <time>2022-04-04T19:05:15Z</time>
      </trkpt>
      <trkpt lat="46.53271" lon="5.41462">
        <ele>306</ele>
        <time>2022-04-04T19:05:17Z</time>
      </trkpt>
      <trkpt lat="46.53242" lon="5.41518">
        <ele>309</ele>
        <time>2022-04-04T19:05:26Z</time>
      </trkpt>
      <trkpt lat="46.5323" lon="5.41534">
        <ele>311</ele>
        <time>2022-04-04T19:05:29Z</time>
      </trkpt>
      <trkpt lat="46.53219" lon="5.41545">
        <ele>313</ele>
        <time>2022-04-04T19:05:31Z</time>
      </trkpt>
      <trkpt lat="46.53062" lon="5.41642">
        <ele>313</ele>
        <time>2022-04-04T19:06:02Z</time>
      </trkpt>
      <trkpt lat="46.53033" lon="5.41662">
        <ele>313</ele>
        <time>2022-04-04T19:06:07Z</time>
      </trkpt>
      <trkpt lat="46.53018" lon="5.41684">
        <ele>312</ele>
        <time>2022-04-04T19:06:11Z</time>
      </trkpt>
      <trkpt lat="46.53008" lon="5.41708">
        <ele>312</ele>
        <time>2022-04-04T19:06:15Z</time>
      </trkpt>
      <trkpt lat="46.52999" lon="5.41739">
        <ele>313</ele>
        <time>2022-04-04T19:06:19Z</time>
      </trkpt>
      <trkpt lat="46.52998" lon="5.41759">
        <ele>314</ele>
        <time>2022-04-04T19:06:21Z</time>
      </trkpt>
      <trkpt lat="46.52999" lon="5.41771">
        <ele>315</ele>
        <time>2022-04-04T19:06:23Z</time>
      </trkpt>
      <trkpt lat="46.53016" lon="5.41842">
        <ele>323</ele>
        <time>2022-04-04T19:06:32Z</time>
      </trkpt>
      <trkpt lat="46.5302" lon="5.41866">
        <ele>325</ele>
        <time>2022-04-04T19:06:35Z</time>
      </trkpt>
      <trkpt lat="46.53019" lon="5.41901">
        <ele>325</ele>
        <time>2022-04-04T19:06:39Z</time>
      </trkpt>
      <trkpt lat="46.53014" lon="5.41948">
        <ele>323</ele>
        <time>2022-04-04T19:06:45Z</time>
      </trkpt>
      <trkpt lat="46.5301" lon="5.42004">
        <ele>320</ele>
        <time>2022-04-04T19:06:52Z</time>
      </trkpt>
      <trkpt lat="46.53011" lon="5.42014">
        <ele>319</ele>
        <time>2022-04-04T19:06:53Z</time>
      </trkpt>
      <trkpt lat="46.53013" lon="5.42019">
        <ele>320</ele>
        <time>2022-04-04T19:06:54Z</time>
      </trkpt>
      <trkpt lat="46.5302" lon="5.42027">
        <ele>321</ele>
        <time>2022-04-04T19:06:55Z</time>
      </trkpt>
      <trkpt lat="46.53028" lon="5.42027">
        <ele>324</ele>
        <time>2022-04-04T19:06:57Z</time>
      </trkpt>
      <trkpt lat="46.53048" lon="5.42022">
        <ele>329</ele>
        <time>2022-04-04T19:07:00Z</time>
      </trkpt>
      <trkpt lat="46.53065" lon="5.42024">
        <ele>334</ele>
        <time>2022-04-04T19:07:03Z</time>
      </trkpt>
      <trkpt lat="46.53079" lon="5.42034">
        <ele>337</ele>
        <time>2022-04-04T19:07:06Z</time>
      </trkpt>
      <trkpt lat="46.53084" lon="5.42041">
        <ele>338</ele>
        <time>2022-04-04T19:07:07Z</time>
      </trkpt>
      <trkpt lat="46.53086" lon="5.42048">
        <ele>339</ele>
        <time>2022-04-04T19:07:08Z</time>
      </trkpt>
      <trkpt lat="46.53088" lon="5.42058">
        <ele>339</ele>
        <time>2022-04-04T19:07:10Z</time>
      </trkpt>
      <trkpt lat="46.53086" lon="5.42072">
        <ele>338</ele>
        <time>2022-04-04T19:07:11Z</time>
      </trkpt>
      <trkpt lat="46.5308" lon="5.42094">
        <ele>335</ele>
        <time>2022-04-04T19:07:14Z</time>
      </trkpt>
      <trkpt lat="46.53079" lon="5.42113">
        <ele>333</ele>
        <time>2022-04-04T19:07:17Z</time>
      </trkpt>
      <trkpt lat="46.53081" lon="5.42122">
        <ele>333</ele>
        <time>2022-04-04T19:07:18Z</time>
      </trkpt>
      <trkpt lat="46.53085" lon="5.4213">
        <ele>334</ele>
        <time>2022-04-04T19:07:19Z</time>
      </trkpt>
      <trkpt lat="46.53097" lon="5.42146">
        <ele>338</ele>
        <time>2022-04-04T19:07:22Z</time>
      </trkpt>
      <trkpt lat="46.531" lon="5.42154">
        <ele>339</ele>
        <time>2022-04-04T19:07:23Z</time>
      </trkpt>
      <trkpt lat="46.53103" lon="5.42167">
        <ele>339</ele>
        <time>2022-04-04T19:07:25Z</time>
      </trkpt>
      <trkpt lat="46.53105" lon="5.42196">
        <ele>339</ele>
        <time>2022-04-04T19:07:28Z</time>
      </trkpt>
      <trkpt lat="46.53107" lon="5.42299">
        <ele>337</ele>
        <time>2022-04-04T19:07:41Z</time>
      </trkpt>
      <trkpt lat="46.53109" lon="5.42317">
        <ele>337</ele>
        <time>2022-04-04T19:07:43Z</time>
      </trkpt>
      <trkpt lat="46.5312" lon="5.42345">
        <ele>340</ele>
        <time>2022-04-04T19:07:47Z</time>
      </trkpt>
      <trkpt lat="46.53131" lon="5.42364">
        <ele>341</ele>
        <time>2022-04-04T19:07:50Z</time>
      </trkpt>
      <trkpt lat="46.53147" lon="5.42382">
        <ele>344</ele>
        <time>2022-04-04T19:07:54Z</time>
      </trkpt>
      <trkpt lat="46.53162" lon="5.42391">
        <ele>347</ele>
        <time>2022-04-04T19:07:57Z</time>
      </trkpt>
      <trkpt lat="46.53189" lon="5.42401">
        <ele>354</ele>
        <time>2022-04-04T19:08:02Z</time>
      </trkpt>
      <trkpt lat="46.53203" lon="5.42409">
        <ele>357</ele>
        <time>2022-04-04T19:08:04Z</time>
      </trkpt>
      <trkpt lat="46.5322" lon="5.42421">
        <ele>361</ele>
        <time>2022-04-04T19:08:08Z</time>
      </trkpt>
      <trkpt lat="46.53227" lon="5.4243">
        <ele>363</ele>
        <time>2022-04-04T19:08:09Z</time>
      </trkpt>
      <trkpt lat="46.53236" lon="5.42446">
        <ele>365</ele>
        <time>2022-04-04T19:08:12Z</time>
      </trkpt>
      <trkpt lat="46.53239" lon="5.42457">
        <ele>365</ele>
        <time>2022-04-04T19:08:13Z</time>
      </trkpt>
      <trkpt lat="46.53243" lon="5.42482">
        <ele>364</ele>
        <time>2022-04-04T19:08:16Z</time>
      </trkpt>
      <trkpt lat="46.53247" lon="5.42491">
        <ele>364</ele>
        <time>2022-04-04T19:08:18Z</time>
      </trkpt>
      <trkpt lat="46.53251" lon="5.42493">
        <ele>365</ele>
        <time>2022-04-04T19:08:18Z</time>
      </trkpt>
      <trkpt lat="46.53256" lon="5.42492">
        <ele>367</ele>
        <time>2022-04-04T19:08:19Z</time>
      </trkpt>
      <trkpt lat="46.53259" lon="5.42488">
        <ele>369</ele>
        <time>2022-04-04T19:08:20Z</time>
      </trkpt>
      <trkpt lat="46.53261" lon="5.42483">
        <ele>370</ele>
        <time>2022-04-04T19:08:21Z</time>
      </trkpt>
      <trkpt lat="46.5326" lon="5.42471">
        <ele>371</ele>
        <time>2022-04-04T19:08:22Z</time>
      </trkpt>
      <trkpt lat="46.53238" lon="5.42423">
        <ele>367</ele>
        <time>2022-04-04T19:08:29Z</time>
      </trkpt>
      <trkpt lat="46.53224" lon="5.42409">
        <ele>364</ele>
        <time>2022-04-04T19:08:32Z</time>
      </trkpt>
      <trkpt lat="46.53168" lon="5.42361">
        <ele>354</ele>
        <time>2022-04-04T19:08:44Z</time>
      </trkpt>
      <trkpt lat="46.53158" lon="5.42348">
        <ele>353</ele>
        <time>2022-04-04T19:08:46Z</time>
      </trkpt>
      <trkpt lat="46.53151" lon="5.42334">
        <ele>353</ele>
        <time>2022-04-04T19:08:48Z</time>
      </trkpt>
      <trkpt lat="46.53146" lon="5.42313">
        <ele>353</ele>
        <time>2022-04-04T19:08:51Z</time>
      </trkpt>
      <trkpt lat="46.53143" lon="5.42279">
        <ele>354</ele>
        <time>2022-04-04T19:08:55Z</time>
      </trkpt>
      <trkpt lat="46.53142" lon="5.42248">
        <ele>355</ele>
        <time>2022-04-04T19:08:59Z</time>
      </trkpt>
      <trkpt lat="46.53152" lon="5.42161">
        <ele>362</ele>
        <time>2022-04-04T19:09:10Z</time>
      </trkpt>
      <trkpt lat="46.53152" lon="5.42144">
        <ele>363</ele>
        <time>2022-04-04T19:09:12Z</time>
      </trkpt>
      <trkpt lat="46.53142" lon="5.4208">
        <ele>362</ele>
        <time>2022-04-04T19:09:20Z</time>
      </trkpt>
      <trkpt lat="46.53141" lon="5.42067">
        <ele>361</ele>
        <time>2022-04-04T19:09:22Z</time>
      </trkpt>
      <trkpt lat="46.53143" lon="5.42057">
        <ele>361</ele>
        <time>2022-04-04T19:09:23Z</time>
      </trkpt>
      <trkpt lat="46.53147" lon="5.42048">
        <ele>362</ele>
        <time>2022-04-04T19:09:24Z</time>
      </trkpt>
      <trkpt lat="46.53164" lon="5.42023">
        <ele>366</ele>
        <time>2022-04-04T19:09:29Z</time>
      </trkpt>
      <trkpt lat="46.53184" lon="5.41987">
        <ele>371</ele>
        <time>2022-04-04T19:09:34Z</time>
      </trkpt>
      <trkpt lat="46.53193" lon="5.41969">
        <ele>373</ele>
        <time>2022-04-04T19:09:37Z</time>
      </trkpt>
      <trkpt lat="46.53201" lon="5.41947">
        <ele>374</ele>
        <time>2022-04-04T19:09:40Z</time>
      </trkpt>
      <trkpt lat="46.53216" lon="5.41893">
        <ele>375</ele>
        <time>2022-04-04T19:09:47Z</time>
      </trkpt>
      <trkpt lat="46.53215" lon="5.41874">
        <ele>373</ele>
        <time>2022-04-04T19:09:49Z</time>
      </trkpt>
      <trkpt lat="46.53208" lon="5.41855">
        <ele>370</ele>
        <time>2022-04-04T19:09:52Z</time>
      </trkpt>
      <trkpt lat="46.53194" lon="5.41824">
        <ele>364</ele>
        <time>2022-04-04T19:09:57Z</time>
      </trkpt>
      <trkpt lat="46.53192" lon="5.41814">
        <ele>363</ele>
        <time>2022-04-04T19:09:58Z</time>
      </trkpt>
      <trkpt lat="46.53192" lon="5.41804">
        <ele>362</ele>
        <time>2022-04-04T19:09:59Z</time>
      </trkpt>
      <trkpt lat="46.53194" lon="5.41796">
        <ele>362</ele>
        <time>2022-04-04T19:10:00Z</time>
      </trkpt>
      <trkpt lat="46.53203" lon="5.4178">
        <ele>363</ele>
        <time>2022-04-04T19:10:03Z</time>
      </trkpt>
      <trkpt lat="46.53208" lon="5.41775">
        <ele>363</ele>
        <time>2022-04-04T19:10:04Z</time>
      </trkpt>
      <trkpt lat="46.53219" lon="5.41773">
        <ele>365</ele>
        <time>2022-04-04T19:10:06Z</time>
      </trkpt>
      <trkpt lat="46.53226" lon="5.41779">
        <ele>367</ele>
        <time>2022-04-04T19:10:07Z</time>
      </trkpt>
      <trkpt lat="46.53232" lon="5.41789">
        <ele>369</ele>
        <time>2022-04-04T19:10:09Z</time>
      </trkpt>
      <trkpt lat="46.53241" lon="5.41844">
        <ele>377</ele>
        <time>2022-04-04T19:10:16Z</time>
      </trkpt>
      <trkpt lat="46.53241" lon="5.41872">
        <ele>382</ele>
        <time>2022-04-04T19:10:19Z</time>
      </trkpt>
      <trkpt lat="46.53234" lon="5.41913">
        <ele>385</ele>
        <time>2022-04-04T19:10:24Z</time>
      </trkpt>
      <trkpt lat="46.53199" lon="5.4203">
        <ele>380</ele>
        <time>2022-04-04T19:10:40Z</time>
      </trkpt>
      <trkpt lat="46.53197" lon="5.4205">
        <ele>381</ele>
        <time>2022-04-04T19:10:42Z</time>
      </trkpt>
      <trkpt lat="46.53199" lon="5.42057">
        <ele>382</ele>
        <time>2022-04-04T19:10:43Z</time>
      </trkpt>
      <trkpt lat="46.53203" lon="5.42061">
        <ele>384</ele>
        <time>2022-04-04T19:10:44Z</time>
      </trkpt>
      <trkpt lat="46.53207" lon="5.42084">
        <ele>387</ele>
        <time>2022-04-04T19:10:47Z</time>
      </trkpt>
      <trkpt lat="46.53225" lon="5.42134">
        <ele>392</ele>
        <time>2022-04-04T19:10:54Z</time>
      </trkpt>
      <trkpt lat="46.5323" lon="5.42188">
        <ele>392</ele>
        <time>2022-04-04T19:11:01Z</time>
      </trkpt>
      <trkpt lat="46.53234" lon="5.42198">
        <ele>393</ele>
        <time>2022-04-04T19:11:02Z</time>
      </trkpt>
      <trkpt lat="46.53256" lon="5.42232">
        <ele>400</ele>
        <time>2022-04-04T19:11:08Z</time>
      </trkpt>
      <trkpt lat="46.53266" lon="5.42255">
        <ele>401</ele>
        <time>2022-04-04T19:11:11Z</time>
      </trkpt>
      <trkpt lat="46.53276" lon="5.42308">
        <ele>398</ele>
        <time>2022-04-04T19:11:18Z</time>
      </trkpt>
      <trkpt lat="46.53287" lon="5.42349">
        <ele>397</ele>
        <time>2022-04-04T19:11:23Z</time>
      </trkpt>
      <trkpt lat="46.53309" lon="5.42404">
        <ele>399</ele>
        <time>2022-04-04T19:11:31Z</time>
      </trkpt>
      <trkpt lat="46.53338" lon="5.42492">
        <ele>400</ele>
        <time>2022-04-04T19:11:43Z</time>
      </trkpt>
      <trkpt lat="46.53348" lon="5.42519">
        <ele>401</ele>
        <time>2022-04-04T19:11:47Z</time>
      </trkpt>
      <trkpt lat="46.53365" lon="5.42555">
        <ele>403</ele>
        <time>2022-04-04T19:11:52Z</time>
      </trkpt>
      <trkpt lat="46.53414" lon="5.42635">
        <ele>410</ele>
        <time>2022-04-04T19:12:05Z</time>
      </trkpt>
      <trkpt lat="46.53426" lon="5.42662">
        <ele>411</ele>
        <time>2022-04-04T19:12:09Z</time>
      </trkpt>
      <trkpt lat="46.53434" lon="5.42692">
        <ele>412</ele>
        <time>2022-04-04T19:12:13Z</time>
      </trkpt>
      <trkpt lat="46.5344" lon="5.42747">
        <ele>412</ele>
        <time>2022-04-04T19:12:20Z</time>
      </trkpt>
      <trkpt lat="46.53438" lon="5.42747">
        <ele>412</ele>
        <time>2022-04-04T19:12:20Z</time>
      </trkpt>
      <trkpt lat="46.5344" lon="5.42747">
        <ele>412</ele>
        <time>2022-04-04T19:12:21Z</time>
      </trkpt>
      <trkpt lat="46.53465" lon="5.42752">
        <ele>413</ele>
        <time>2022-04-04T19:12:25Z</time>
      </trkpt>
      <trkpt lat="46.53491" lon="5.4277">
        <ele>414</ele>
        <time>2022-04-04T19:12:30Z</time>
      </trkpt>
      <trkpt lat="46.53509" lon="5.42786">
        <ele>414</ele>
        <time>2022-04-04T19:12:34Z</time>
      </trkpt>
      <trkpt lat="46.53564" lon="5.42872">
        <ele>410</ele>
        <time>2022-04-04T19:12:48Z</time>
      </trkpt>
      <trkpt lat="46.53628" lon="5.43004">
        <ele>408</ele>
        <time>2022-04-04T19:13:08Z</time>
      </trkpt>
      <trkpt lat="46.53652" lon="5.43045">
        <ele>408</ele>
        <time>2022-04-04T19:13:15Z</time>
      </trkpt>
      <trkpt lat="46.53679" lon="5.43102">
        <ele>407</ele>
        <time>2022-04-04T19:13:23Z</time>
      </trkpt>
      <trkpt lat="46.53714" lon="5.43165">
        <ele>406</ele>
        <time>2022-04-04T19:13:33Z</time>
      </trkpt>
      <trkpt lat="46.53718" lon="5.43176">
        <ele>406</ele>
        <time>2022-04-04T19:13:35Z</time>
      </trkpt>
      <trkpt lat="46.5372" lon="5.43191">
        <ele>405</ele>
        <time>2022-04-04T19:13:36Z</time>
      </trkpt>
      <trkpt lat="46.53716" lon="5.43227">
        <ele>403</ele>
        <time>2022-04-04T19:13:41Z</time>
      </trkpt>
      <trkpt lat="46.53716" lon="5.43239">
        <ele>402</ele>
        <time>2022-04-04T19:13:42Z</time>
      </trkpt>
      <trkpt lat="46.53719" lon="5.4325">
        <ele>401</ele>
        <time>2022-04-04T19:13:44Z</time>
      </trkpt>
      <trkpt lat="46.53765" lon="5.43327">
        <ele>400</ele>
        <time>2022-04-04T19:13:56Z</time>
      </trkpt>
      <trkpt lat="46.53811" lon="5.43408">
        <ele>398</ele>
        <time>2022-04-04T19:14:09Z</time>
      </trkpt>
      <trkpt lat="46.53815" lon="5.4342">
        <ele>398</ele>
        <time>2022-04-04T19:14:11Z</time>
      </trkpt>
      <trkpt lat="46.53829" lon="5.4347">
        <ele>397</ele>
        <time>2022-04-04T19:14:17Z</time>
      </trkpt>
      <trkpt lat="46.53848" lon="5.43528">
        <ele>395</ele>
        <time>2022-04-04T19:14:25Z</time>
      </trkpt>
      <trkpt lat="46.53858" lon="5.43548">
        <ele>394</ele>
        <time>2022-04-04T19:14:28Z</time>
      </trkpt>
      <trkpt lat="46.53884" lon="5.43595">
        <ele>393</ele>
        <time>2022-04-04T19:14:36Z</time>
      </trkpt>
      <trkpt lat="46.53926" lon="5.43665">
        <ele>394</ele>
        <time>2022-04-04T19:14:47Z</time>
      </trkpt>
      <trkpt lat="46.53971" lon="5.43724">
        <ele>396</ele>
        <time>2022-04-04T19:14:58Z</time>
      </trkpt>
      <trkpt lat="46.54007" lon="5.43791">
        <ele>396</ele>
        <time>2022-04-04T19:15:08Z</time>
      </trkpt>
      <trkpt lat="46.54067" lon="5.43887">
        <ele>397</ele>
        <time>2022-04-04T19:15:24Z</time>
      </trkpt>
      <trkpt lat="46.54094" lon="5.43939">
        <ele>397</ele>
        <time>2022-04-04T19:15:32Z</time>
      </trkpt>
      <trkpt lat="46.54113" lon="5.4397">
        <ele>397</ele>
        <time>2022-04-04T19:15:37Z</time>
      </trkpt>
      <trkpt lat="46.54197" lon="5.44091">
        <ele>398</ele>
        <time>2022-04-04T19:15:58Z</time>
      </trkpt>
      <trkpt lat="46.54226" lon="5.44149">
        <ele>398</ele>
        <time>2022-04-04T19:16:07Z</time>
      </trkpt>
      <trkpt lat="46.54233" lon="5.44179">
        <ele>397</ele>
        <time>2022-04-04T19:16:11Z</time>
      </trkpt>
      <trkpt lat="46.54235" lon="5.44201">
        <ele>397</ele>
        <time>2022-04-04T19:16:14Z</time>
      </trkpt>
      <trkpt lat="46.54246" lon="5.44236">
        <ele>397</ele>
        <time>2022-04-04T19:16:18Z</time>
      </trkpt>
      <trkpt lat="46.54261" lon="5.44269">
        <ele>398</ele>
        <time>2022-04-04T19:16:23Z</time>
      </trkpt>
      <trkpt lat="46.54305" lon="5.44347">
        <ele>401</ele>
        <time>2022-04-04T19:16:35Z</time>
      </trkpt>
      <trkpt lat="46.54338" lon="5.44391">
        <ele>402</ele>
        <time>2022-04-04T19:16:43Z</time>
      </trkpt>
      <trkpt lat="46.54349" lon="5.44408">
        <ele>403</ele>
        <time>2022-04-04T19:16:46Z</time>
      </trkpt>
      <trkpt lat="46.54358" lon="5.4443">
        <ele>403</ele>
        <time>2022-04-04T19:16:49Z</time>
      </trkpt>
      <trkpt lat="46.5437" lon="5.4448">
        <ele>403</ele>
        <time>2022-04-04T19:16:56Z</time>
      </trkpt>
      <trkpt lat="46.5438" lon="5.44501">
        <ele>403</ele>
        <time>2022-04-04T19:16:59Z</time>
      </trkpt>
      <trkpt lat="46.54401" lon="5.44532">
        <ele>404</ele>
        <time>2022-04-04T19:17:04Z</time>
      </trkpt>
      <trkpt lat="46.54424" lon="5.44575">
        <ele>405</ele>
        <time>2022-04-04T19:17:11Z</time>
      </trkpt>
      <trkpt lat="46.54451" lon="5.44642">
        <ele>403</ele>
        <time>2022-04-04T19:17:21Z</time>
      </trkpt>
      <trkpt lat="46.54464" lon="5.44683">
        <ele>403</ele>
        <time>2022-04-04T19:17:26Z</time>
      </trkpt>
      <trkpt lat="46.54481" lon="5.44745">
        <ele>404</ele>
        <time>2022-04-04T19:17:34Z</time>
      </trkpt>
      <trkpt lat="46.54488" lon="5.44764">
        <ele>404</ele>
        <time>2022-04-04T19:17:37Z</time>
      </trkpt>
      <trkpt lat="46.54498" lon="5.44781">
        <ele>405</ele>
        <time>2022-04-04T19:17:40Z</time>
      </trkpt>
      <trkpt lat="46.54524" lon="5.44817">
        <ele>407</ele>
        <time>2022-04-04T19:17:46Z</time>
      </trkpt>
      <trkpt lat="46.54552" lon="5.44874">
        <ele>407</ele>
        <time>2022-04-04T19:17:55Z</time>
      </trkpt>
      <trkpt lat="46.54584" lon="5.44932">
        <ele>406</ele>
        <time>2022-04-04T19:18:04Z</time>
      </trkpt>
      <trkpt lat="46.54617" lon="5.44979">
        <ele>409</ele>
        <time>2022-04-04T19:18:12Z</time>
      </trkpt>
      <trkpt lat="46.54661" lon="5.45039">
        <ele>411</ele>
        <time>2022-04-04T19:18:23Z</time>
      </trkpt>
      <trkpt lat="46.54691" lon="5.45083">
        <ele>412</ele>
        <time>2022-04-04T19:18:30Z</time>
      </trkpt>
      <trkpt lat="46.54724" lon="5.45116">
        <ele>412</ele>
        <time>2022-04-04T19:18:37Z</time>
      </trkpt>
      <trkpt lat="46.54784" lon="5.45172">
        <ele>415</ele>
        <time>2022-04-04T19:18:50Z</time>
      </trkpt>
      <trkpt lat="46.54854" lon="5.45241">
        <ele>413</ele>
        <time>2022-04-04T19:19:05Z</time>
      </trkpt>
      <trkpt lat="46.54868" lon="5.45249">
        <ele>413</ele>
        <time>2022-04-04T19:19:08Z</time>
      </trkpt>
      <trkpt lat="46.54898" lon="5.4526">
        <ele>414</ele>
        <time>2022-04-04T19:19:13Z</time>
      </trkpt>
      <trkpt lat="46.54907" lon="5.45267">
        <ele>414</ele>
        <time>2022-04-04T19:19:15Z</time>
      </trkpt>
      <trkpt lat="46.54952" lon="5.45323">
        <ele>414</ele>
        <time>2022-04-04T19:19:26Z</time>
      </trkpt>
      <trkpt lat="46.54987" lon="5.45362">
        <ele>415</ele>
        <time>2022-04-04T19:19:33Z</time>
      </trkpt>
      <trkpt lat="46.54998" lon="5.45378">
        <ele>416</ele>
        <time>2022-04-04T19:19:36Z</time>
      </trkpt>
      <trkpt lat="46.55033" lon="5.45441">
        <ele>418</ele>
        <time>2022-04-04T19:19:46Z</time>
      </trkpt>
      <trkpt lat="46.55039" lon="5.45453">
        <ele>418</ele>
        <time>2022-04-04T19:19:48Z</time>
      </trkpt>
      <trkpt lat="46.55046" lon="5.45487">
        <ele>418</ele>
        <time>2022-04-04T19:19:52Z</time>
      </trkpt>
      <trkpt lat="46.55069" lon="5.45565">
        <ele>417</ele>
        <time>2022-04-04T19:20:03Z</time>
      </trkpt>
      <trkpt lat="46.55079" lon="5.45588">
        <ele>417</ele>
        <time>2022-04-04T19:20:06Z</time>
      </trkpt>
      <trkpt lat="46.55098" lon="5.45616">
        <ele>417</ele>
        <time>2022-04-04T19:20:11Z</time>
      </trkpt>
      <trkpt lat="46.55115" lon="5.45651">
        <ele>417</ele>
        <time>2022-04-04T19:20:16Z</time>
      </trkpt>
      <trkpt lat="46.55133" lon="5.45712">
        <ele>420</ele>
        <time>2022-04-04T19:20:24Z</time>
      </trkpt>
      <trkpt lat="46.55138" lon="5.45769">
        <ele>425</ele>
        <time>2022-04-04T19:20:31Z</time>
      </trkpt>
      <trkpt lat="46.55155" lon="5.45828">
        <ele>430</ele>
        <time>2022-04-04T19:20:39Z</time>
      </trkpt>
      <trkpt lat="46.55165" lon="5.4584">
        <ele>430</ele>
        <time>2022-04-04T19:20:41Z</time>
      </trkpt>
      <trkpt lat="46.55184" lon="5.45854">
        <ele>430</ele>
        <time>2022-04-04T19:20:45Z</time>
      </trkpt>
      <trkpt lat="46.55188" lon="5.45859">
        <ele>430</ele>
        <time>2022-04-04T19:20:46Z</time>
      </trkpt>
      <trkpt lat="46.55189" lon="5.45867">
        <ele>431</ele>
        <time>2022-04-04T19:20:47Z</time>
      </trkpt>
      <trkpt lat="46.55187" lon="5.45874">
        <ele>432</ele>
        <time>2022-04-04T19:20:48Z</time>
      </trkpt>
      <trkpt lat="46.55162" lon="5.45872">
        <ele>432</ele>
        <time>2022-04-04T19:20:52Z</time>
      </trkpt>
      <trkpt lat="46.55155" lon="5.45879">
        <ele>433</ele>
        <time>2022-04-04T19:20:54Z</time>
      </trkpt>
      <trkpt lat="46.55121" lon="5.45951">
        <ele>441</ele>
        <time>2022-04-04T19:21:05Z</time>
      </trkpt>
      <trkpt lat="46.55097" lon="5.45987">
        <ele>443</ele>
        <time>2022-04-04T19:21:11Z</time>
      </trkpt>
      <trkpt lat="46.5508" lon="5.45996">
        <ele>444</ele>
        <time>2022-04-04T19:21:14Z</time>
      </trkpt>
      <trkpt lat="46.55072" lon="5.46003">
        <ele>445</ele>
        <time>2022-04-04T19:21:16Z</time>
      </trkpt>
      <trkpt lat="46.55062" lon="5.46024">
        <ele>446</ele>
        <time>2022-04-04T19:21:19Z</time>
      </trkpt>
      <trkpt lat="46.55058" lon="5.46079">
        <ele>449</ele>
        <time>2022-04-04T19:21:26Z</time>
      </trkpt>
      <trkpt lat="46.55047" lon="5.46111">
        <ele>449</ele>
        <time>2022-04-04T19:21:30Z</time>
      </trkpt>
      <trkpt lat="46.55034" lon="5.46135">
        <ele>448</ele>
        <time>2022-04-04T19:21:34Z</time>
      </trkpt>
      <trkpt lat="46.55002" lon="5.46181">
        <ele>445</ele>
        <time>2022-04-04T19:21:42Z</time>
      </trkpt>
      <trkpt lat="46.54992" lon="5.46198">
        <ele>445</ele>
        <time>2022-04-04T19:21:44Z</time>
      </trkpt>
      <trkpt lat="46.5498" lon="5.46235">
        <ele>445</ele>
        <time>2022-04-04T19:21:49Z</time>
      </trkpt>
      <trkpt lat="46.54997" lon="5.46247">
        <ele>446</ele>
        <time>2022-04-04T19:21:53Z</time>
      </trkpt>
      <trkpt lat="46.5505" lon="5.46275">
        <ele>450</ele>
        <time>2022-04-04T19:22:03Z</time>
      </trkpt>
      <trkpt lat="46.55111" lon="5.46316">
        <ele>454</ele>
        <time>2022-04-04T19:22:15Z</time>
      </trkpt>
      <trkpt lat="46.55125" lon="5.46322">
        <ele>456</ele>
        <time>2022-04-04T19:22:17Z</time>
      </trkpt>
      <trkpt lat="46.55151" lon="5.46325">
        <ele>458</ele>
        <time>2022-04-04T19:22:22Z</time>
      </trkpt>
      <trkpt lat="46.55164" lon="5.46331">
        <ele>459</ele>
        <time>2022-04-04T19:22:24Z</time>
      </trkpt>
      <trkpt lat="46.55197" lon="5.46356">
        <ele>460</ele>
        <time>2022-04-04T19:22:31Z</time>
      </trkpt>
      <trkpt lat="46.55303" lon="5.46457">
        <ele>464</ele>
        <time>2022-04-04T19:22:54Z</time>
      </trkpt>
      <trkpt lat="46.55314" lon="5.46473">
        <ele>464</ele>
        <time>2022-04-04T19:22:56Z</time>
      </trkpt>
      <trkpt lat="46.55323" lon="5.46493">
        <ele>463</ele>
        <time>2022-04-04T19:22:59Z</time>
      </trkpt>
      <trkpt lat="46.55337" lon="5.46537">
        <ele>464</ele>
        <time>2022-04-04T19:23:05Z</time>
      </trkpt>
      <trkpt lat="46.55343" lon="5.46553">
        <ele>465</ele>
        <time>2022-04-04T19:23:07Z</time>
      </trkpt>
      <trkpt lat="46.5538" lon="5.46614">
        <ele>469</ele>
        <time>2022-04-04T19:23:17Z</time>
      </trkpt>
      <trkpt lat="46.5539" lon="5.46626">
        <ele>470</ele>
        <time>2022-04-04T19:23:20Z</time>
      </trkpt>
      <trkpt lat="46.55423" lon="5.46651">
        <ele>473</ele>
        <time>2022-04-04T19:23:26Z</time>
      </trkpt>
      <trkpt lat="46.55472" lon="5.46698">
        <ele>475</ele>
        <time>2022-04-04T19:23:37Z</time>
      </trkpt>
      <trkpt lat="46.55484" lon="5.4672">
        <ele>475</ele>
        <time>2022-04-04T19:23:40Z</time>
      </trkpt>
      <trkpt lat="46.55484" lon="5.46735">
        <ele>476</ele>
        <time>2022-04-04T19:23:42Z</time>
      </trkpt>
      <trkpt lat="46.55479" lon="5.46769">
        <ele>477</ele>
        <time>2022-04-04T19:23:46Z</time>
      </trkpt>
      <trkpt lat="46.55479" lon="5.46786">
        <ele>478</ele>
        <time>2022-04-04T19:23:48Z</time>
      </trkpt>
      <trkpt lat="46.55482" lon="5.46799">
        <ele>478</ele>
        <time>2022-04-04T19:23:50Z</time>
      </trkpt>
      <trkpt lat="46.55498" lon="5.4683">
        <ele>479</ele>
        <time>2022-04-04T19:23:55Z</time>
      </trkpt>
      <trkpt lat="46.55536" lon="5.46876">
        <ele>481</ele>
        <time>2022-04-04T19:24:04Z</time>
      </trkpt>
      <trkpt lat="46.55547" lon="5.46883">
        <ele>481</ele>
        <time>2022-04-04T19:24:06Z</time>
      </trkpt>
      <trkpt lat="46.55612" lon="5.4691">
        <ele>480</ele>
        <time>2022-04-04T19:24:18Z</time>
      </trkpt>
      <trkpt lat="46.55623" lon="5.46923">
        <ele>481</ele>
        <time>2022-04-04T19:24:20Z</time>
      </trkpt>
      <trkpt lat="46.55635" lon="5.46947">
        <ele>483</ele>
        <time>2022-04-04T19:24:24Z</time>
      </trkpt>
      <trkpt lat="46.55663" lon="5.47025">
        <ele>490</ele>
        <time>2022-04-04T19:24:35Z</time>
      </trkpt>
      <trkpt lat="46.55675" lon="5.47051">
        <ele>494</ele>
        <time>2022-04-04T19:24:39Z</time>
      </trkpt>
      <trkpt lat="46.55687" lon="5.47068">
        <ele>496</ele>
        <time>2022-04-04T19:24:42Z</time>
      </trkpt>
      <trkpt lat="46.55703" lon="5.47084">
        <ele>496</ele>
        <time>2022-04-04T19:24:45Z</time>
      </trkpt>
      <trkpt lat="46.55757" lon="5.47122">
        <ele>497</ele>
        <time>2022-04-04T19:24:56Z</time>
      </trkpt>
      <trkpt lat="46.55772" lon="5.47129">
        <ele>498</ele>
        <time>2022-04-04T19:24:58Z</time>
      </trkpt>
      <trkpt lat="46.55822" lon="5.47143">
        <ele>500</ele>
        <time>2022-04-04T19:25:08Z</time>
      </trkpt>
      <trkpt lat="46.55855" lon="5.47158">
        <ele>502</ele>
        <time>2022-04-04T19:25:14Z</time>
      </trkpt>
      <trkpt lat="46.55915" lon="5.4719">
        <ele>508</ele>
        <time>2022-04-04T19:25:25Z</time>
      </trkpt>
      <trkpt lat="46.55929" lon="5.47195">
        <ele>508</ele>
        <time>2022-04-04T19:25:28Z</time>
      </trkpt>
      <trkpt lat="46.55959" lon="5.47196">
        <ele>507</ele>
        <time>2022-04-04T19:25:33Z</time>
      </trkpt>
      <trkpt lat="46.55983" lon="5.47201">
        <ele>507</ele>
        <time>2022-04-04T19:25:37Z</time>
      </trkpt>
      <trkpt lat="46.5619" lon="5.47272">
        <ele>523</ele>
        <time>2022-04-04T19:26:15Z</time>
      </trkpt>
      <trkpt lat="46.56206" lon="5.47276">
        <ele>524</ele>
        <time>2022-04-04T19:26:18Z</time>
      </trkpt>
      <trkpt lat="46.5622" lon="5.47276">
        <ele>525</ele>
        <time>2022-04-04T19:26:20Z</time>
      </trkpt>
      <trkpt lat="46.56274" lon="5.47262">
        <ele>529</ele>
        <time>2022-04-04T19:26:30Z</time>
      </trkpt>
      <trkpt lat="46.56286" lon="5.47261">
        <ele>531</ele>
        <time>2022-04-04T19:26:32Z</time>
      </trkpt>
      <trkpt lat="46.56295" lon="5.47265">
        <ele>532</ele>
        <time>2022-04-04T19:26:34Z</time>
      </trkpt>
      <trkpt lat="46.56307" lon="5.47274">
        <ele>533</ele>
        <time>2022-04-04T19:26:36Z</time>
      </trkpt>
      <trkpt lat="46.56326" lon="5.47295">
        <ele>532</ele>
        <time>2022-04-04T19:26:41Z</time>
      </trkpt>
      <trkpt lat="46.56343" lon="5.4732">
        <ele>530</ele>
        <time>2022-04-04T19:26:45Z</time>
      </trkpt>
      <trkpt lat="46.56393" lon="5.47368">
        <ele>526</ele>
        <time>2022-04-04T19:26:56Z</time>
      </trkpt>
      <trkpt lat="46.56488" lon="5.47466">
        <ele>514</ele>
        <time>2022-04-04T19:27:16Z</time>
      </trkpt>
      <trkpt lat="46.56549" lon="5.47515">
        <ele>512</ele>
        <time>2022-04-04T19:27:29Z</time>
      </trkpt>
      <trkpt lat="46.56564" lon="5.47532">
        <ele>511</ele>
        <time>2022-04-04T19:27:32Z</time>
      </trkpt>
      <trkpt lat="46.56596" lon="5.47577">
        <ele>502</ele>
        <time>2022-04-04T19:27:40Z</time>
      </trkpt>
      <trkpt lat="46.56616" lon="5.47594">
        <ele>502</ele>
        <time>2022-04-04T19:27:44Z</time>
      </trkpt>
      <trkpt lat="46.56679" lon="5.47636">
        <ele>501</ele>
        <time>2022-04-04T19:27:57Z</time>
      </trkpt>
      <trkpt lat="46.56748" lon="5.47678">
        <ele>497</ele>
        <time>2022-04-04T19:28:10Z</time>
      </trkpt>
      <trkpt lat="46.56792" lon="5.47701">
        <ele>499</ele>
        <time>2022-04-04T19:28:18Z</time>
      </trkpt>
      <trkpt lat="46.56812" lon="5.47715">
        <ele>498</ele>
        <time>2022-04-04T19:28:22Z</time>
      </trkpt>
      <trkpt lat="46.56854" lon="5.47753">
        <ele>492</ele>
        <time>2022-04-04T19:28:31Z</time>
      </trkpt>
      <trkpt lat="46.56894" lon="5.47783">
        <ele>491</ele>
        <time>2022-04-04T19:28:39Z</time>
      </trkpt>
      <trkpt lat="46.56912" lon="5.47792">
        <ele>489</ele>
        <time>2022-04-04T19:28:42Z</time>
      </trkpt>
      <trkpt lat="46.56967" lon="5.47803">
        <ele>484</ele>
        <time>2022-04-04T19:28:52Z</time>
      </trkpt>
      <trkpt lat="46.56982" lon="5.47803">
        <ele>483</ele>
        <time>2022-04-04T19:28:55Z</time>
      </trkpt>
      <trkpt lat="46.57005" lon="5.47799">
        <ele>481</ele>
        <time>2022-04-04T19:28:59Z</time>
      </trkpt>
      <trkpt lat="46.57019" lon="5.47799">
        <ele>481</ele>
        <time>2022-04-04T19:29:01Z</time>
      </trkpt>
      <trkpt lat="46.57031" lon="5.47802">
        <ele>481</ele>
        <time>2022-04-04T19:29:04Z</time>
      </trkpt>
      <trkpt lat="46.57052" lon="5.47811">
        <ele>481</ele>
        <time>2022-04-04T19:29:08Z</time>
      </trkpt>
      <trkpt lat="46.57091" lon="5.47835">
        <ele>477</ele>
        <time>2022-04-04T19:29:15Z</time>
      </trkpt>
      <trkpt lat="46.57125" lon="5.47858">
        <ele>478</ele>
        <time>2022-04-04T19:29:22Z</time>
      </trkpt>
      <trkpt lat="46.57169" lon="5.479">
        <ele>471</ele>
        <time>2022-04-04T19:29:31Z</time>
      </trkpt>
      <trkpt lat="46.57185" lon="5.47906">
        <ele>470</ele>
        <time>2022-04-04T19:29:34Z</time>
      </trkpt>
      <trkpt lat="46.57199" lon="5.47908">
        <ele>469</ele>
        <time>2022-04-04T19:29:37Z</time>
      </trkpt>
      <trkpt lat="46.57224" lon="5.47907">
        <ele>468</ele>
        <time>2022-04-04T19:29:41Z</time>
      </trkpt>
      <trkpt lat="46.5733" lon="5.47891">
        <ele>468</ele>
        <time>2022-04-04T19:30:00Z</time>
      </trkpt>
      <trkpt lat="46.57337" lon="5.47889">
        <ele>468</ele>
        <time>2022-04-04T19:30:01Z</time>
      </trkpt>
      <trkpt lat="46.57384" lon="5.4785">
        <ele>466</ele>
        <time>2022-04-04T19:30:11Z</time>
      </trkpt>
      <trkpt lat="46.57413" lon="5.47822">
        <ele>466</ele>
        <time>2022-04-04T19:30:17Z</time>
      </trkpt>
      <trkpt lat="46.57437" lon="5.47806">
        <ele>466</ele>
        <time>2022-04-04T19:30:22Z</time>
      </trkpt>
      <trkpt lat="46.57458" lon="5.47799">
        <ele>467</ele>
        <time>2022-04-04T19:30:26Z</time>
      </trkpt>
      <trkpt lat="46.57524" lon="5.47795">
        <ele>466</ele>
        <time>2022-04-04T19:30:37Z</time>
      </trkpt>
      <trkpt lat="46.5755" lon="5.47797">
        <ele>465</ele>
        <time>2022-04-04T19:30:42Z</time>
      </trkpt>
      <trkpt lat="46.57579" lon="5.47802">
        <ele>464</ele>
        <time>2022-04-04T19:30:47Z</time>
      </trkpt>
      <trkpt lat="46.57638" lon="5.47825">
        <ele>462</ele>
        <time>2022-04-04T19:30:58Z</time>
      </trkpt>
      <trkpt lat="46.57671" lon="5.47845">
        <ele>462</ele>
        <time>2022-04-04T19:31:04Z</time>
      </trkpt>
      <trkpt lat="46.57756" lon="5.47903">
        <ele>463</ele>
        <time>2022-04-04T19:31:21Z</time>
      </trkpt>
      <trkpt lat="46.57765" lon="5.47905">
        <ele>463</ele>
        <time>2022-04-04T19:31:23Z</time>
      </trkpt>
      <trkpt lat="46.57796" lon="5.479">
        <ele>461</ele>
        <time>2022-04-04T19:31:28Z</time>
      </trkpt>
      <trkpt lat="46.57828" lon="5.47897">
        <ele>460</ele>
        <time>2022-04-04T19:31:34Z</time>
      </trkpt>
      <trkpt lat="46.57838" lon="5.47894">
        <ele>459</ele>
        <time>2022-04-04T19:31:36Z</time>
      </trkpt>
      <trkpt lat="46.57884" lon="5.47893">
        <ele>454</ele>
        <time>2022-04-04T19:31:44Z</time>
      </trkpt>
      <trkpt lat="46.57898" lon="5.47896">
        <ele>454</ele>
        <time>2022-04-04T19:31:46Z</time>
      </trkpt>
      <trkpt lat="46.57918" lon="5.47913">
        <ele>455</ele>
        <time>2022-04-04T19:31:51Z</time>
      </trkpt>
      <trkpt lat="46.5793" lon="5.47933">
        <ele>455</ele>
        <time>2022-04-04T19:31:54Z</time>
      </trkpt>
      <trkpt lat="46.57956" lon="5.47989">
        <ele>459</ele>
        <time>2022-04-04T19:32:02Z</time>
      </trkpt>
      <trkpt lat="46.57963" lon="5.48">
        <ele>460</ele>
        <time>2022-04-04T19:32:04Z</time>
      </trkpt>
      <trkpt lat="46.57972" lon="5.48005">
        <ele>458</ele>
        <time>2022-04-04T19:32:06Z</time>
      </trkpt>
      <trkpt lat="46.58004" lon="5.48015">
        <ele>452</ele>
        <time>2022-04-04T19:32:11Z</time>
      </trkpt>
      <trkpt lat="46.5802" lon="5.48016">
        <ele>449</ele>
        <time>2022-04-04T19:32:14Z</time>
      </trkpt>
      <trkpt lat="46.58026" lon="5.48019">
        <ele>448</ele>
        <time>2022-04-04T19:32:15Z</time>
      </trkpt>
      <trkpt lat="46.58038" lon="5.48023">
        <ele>446</ele>
        <time>2022-04-04T19:32:18Z</time>
      </trkpt>
      <trkpt lat="46.58052" lon="5.48032">
        <ele>445</ele>
        <time>2022-04-04T19:32:20Z</time>
      </trkpt>
      <trkpt lat="46.58086" lon="5.48063">
        <ele>444</ele>
        <time>2022-04-04T19:32:28Z</time>
      </trkpt>
      <trkpt lat="46.58095" lon="5.48076">
        <ele>443</ele>
        <time>2022-04-04T19:32:30Z</time>
      </trkpt>
      <trkpt lat="46.58098" lon="5.48087">
        <ele>444</ele>
        <time>2022-04-04T19:32:31Z</time>
      </trkpt>
      <trkpt lat="46.58106" lon="5.4814">
        <ele>449</ele>
        <time>2022-04-04T19:32:38Z</time>
      </trkpt>
      <trkpt lat="46.58109" lon="5.48154">
        <ele>450</ele>
        <time>2022-04-04T19:32:40Z</time>
      </trkpt>
      <trkpt lat="46.58114" lon="5.48161">
        <ele>450</ele>
        <time>2022-04-04T19:32:41Z</time>
      </trkpt>
      <trkpt lat="46.58262" lon="5.48221">
        <ele>446</ele>
        <time>2022-04-04T19:33:08Z</time>
      </trkpt>
      <trkpt lat="46.58344" lon="5.48244">
        <ele>440</ele>
        <time>2022-04-04T19:33:23Z</time>
      </trkpt>
      <trkpt lat="46.58365" lon="5.48246">
        <ele>439</ele>
        <time>2022-04-04T19:33:27Z</time>
      </trkpt>
      <trkpt lat="46.58402" lon="5.48241">
        <ele>434</ele>
        <time>2022-04-04T19:33:33Z</time>
      </trkpt>
      <trkpt lat="46.58414" lon="5.4824">
        <ele>433</ele>
        <time>2022-04-04T19:33:36Z</time>
      </trkpt>
      <trkpt lat="46.58423" lon="5.48243">
        <ele>433</ele>
        <time>2022-04-04T19:33:37Z</time>
      </trkpt>
      <trkpt lat="46.58434" lon="5.4825">
        <ele>434</ele>
        <time>2022-04-04T19:33:39Z</time>
      </trkpt>
      <trkpt lat="46.5846" lon="5.48275">
        <ele>432</ele>
        <time>2022-04-04T19:33:45Z</time>
      </trkpt>
      <trkpt lat="46.585" lon="5.48304">
        <ele>425</ele>
        <time>2022-04-04T19:33:53Z</time>
      </trkpt>
      <trkpt lat="46.58522" lon="5.48314">
        <ele>423</ele>
        <time>2022-04-04T19:33:57Z</time>
      </trkpt>
      <trkpt lat="46.58544" lon="5.48321">
        <ele>420</ele>
        <time>2022-04-04T19:34:01Z</time>
      </trkpt>
      <trkpt lat="46.58594" lon="5.48324">
        <ele>416</ele>
        <time>2022-04-04T19:34:10Z</time>
      </trkpt>
      <trkpt lat="46.58617" lon="5.48321">
        <ele>414</ele>
        <time>2022-04-04T19:34:14Z</time>
      </trkpt>
      <trkpt lat="46.58642" lon="5.48315">
        <ele>412</ele>
        <time>2022-04-04T19:34:18Z</time>
      </trkpt>
      <trkpt lat="46.58659" lon="5.48308">
        <ele>411</ele>
        <time>2022-04-04T19:34:22Z</time>
      </trkpt>
      <trkpt lat="46.58666" lon="5.48302">
        <ele>410</ele>
        <time>2022-04-04T19:34:23Z</time>
      </trkpt>
      <trkpt lat="46.5867" lon="5.48293">
        <ele>410</ele>
        <time>2022-04-04T19:34:24Z</time>
      </trkpt>
      <trkpt lat="46.5867" lon="5.48277">
        <ele>411</ele>
        <time>2022-04-04T19:34:26Z</time>
      </trkpt>
      <trkpt lat="46.58652" lon="5.48186">
        <ele>408</ele>
        <time>2022-04-04T19:34:38Z</time>
      </trkpt>
      <trkpt lat="46.58637" lon="5.48132">
        <ele>406</ele>
        <time>2022-04-04T19:34:45Z</time>
      </trkpt>
      <trkpt lat="46.58628" lon="5.48111">
        <ele>406</ele>
        <time>2022-04-04T19:34:48Z</time>
      </trkpt>
      <trkpt lat="46.58608" lon="5.48049">
        <ele>404</ele>
        <time>2022-04-04T19:34:56Z</time>
      </trkpt>
      <trkpt lat="46.58601" lon="5.4802">
        <ele>403</ele>
        <time>2022-04-04T19:35:00Z</time>
      </trkpt>
      <trkpt lat="46.58595" lon="5.47974">
        <ele>400</ele>
        <time>2022-04-04T19:35:06Z</time>
      </trkpt>
      <trkpt lat="46.58586" lon="5.47921">
        <ele>399</ele>
        <time>2022-04-04T19:35:13Z</time>
      </trkpt>
      <trkpt lat="46.5858" lon="5.47904">
        <ele>398</ele>
        <time>2022-04-04T19:35:15Z</time>
      </trkpt>
      <trkpt lat="46.58569" lon="5.47888">
        <ele>396</ele>
        <time>2022-04-04T19:35:18Z</time>
      </trkpt>
      <trkpt lat="46.58553" lon="5.47873">
        <ele>395</ele>
        <time>2022-04-04T19:35:21Z</time>
      </trkpt>
      <trkpt lat="46.58532" lon="5.47868">
        <ele>394</ele>
        <time>2022-04-04T19:35:25Z</time>
      </trkpt>
      <trkpt lat="46.58498" lon="5.47871">
        <ele>394</ele>
        <time>2022-04-04T19:35:31Z</time>
      </trkpt>
      <trkpt lat="46.58473" lon="5.47883">
        <ele>391</ele>
        <time>2022-04-04T19:35:36Z</time>
      </trkpt>
      <trkpt lat="46.58466" lon="5.47881">
        <ele>390</ele>
        <time>2022-04-04T19:35:37Z</time>
      </trkpt>
      <trkpt lat="46.58461" lon="5.47876">
        <ele>388</ele>
        <time>2022-04-04T19:35:38Z</time>
      </trkpt>
      <trkpt lat="46.5846" lon="5.47862">
        <ele>386</ele>
        <time>2022-04-04T19:35:40Z</time>
      </trkpt>
      <trkpt lat="46.58463" lon="5.47856">
        <ele>386</ele>
        <time>2022-04-04T19:35:41Z</time>
      </trkpt>
      <trkpt lat="46.58513" lon="5.47812">
        <ele>387</ele>
        <time>2022-04-04T19:35:51Z</time>
      </trkpt>
      <trkpt lat="46.58558" lon="5.47778">
        <ele>383</ele>
        <time>2022-04-04T19:36:00Z</time>
      </trkpt>
      <trkpt lat="46.58577" lon="5.47768">
        <ele>382</ele>
        <time>2022-04-04T19:36:04Z</time>
      </trkpt>
      <trkpt lat="46.58589" lon="5.47766">
        <ele>380</ele>
        <time>2022-04-04T19:36:06Z</time>
      </trkpt>
      <trkpt lat="46.586" lon="5.47767">
        <ele>378</ele>
        <time>2022-04-04T19:36:08Z</time>
      </trkpt>
      <trkpt lat="46.58626" lon="5.47777">
        <ele>374</ele>
        <time>2022-04-04T19:36:13Z</time>
      </trkpt>
      <trkpt lat="46.58649" lon="5.47789">
        <ele>372</ele>
        <time>2022-04-04T19:36:17Z</time>
      </trkpt>
      <trkpt lat="46.5867" lon="5.47806">
        <ele>370</ele>
        <time>2022-04-04T19:36:21Z</time>
      </trkpt>
      <trkpt lat="46.58681" lon="5.47823">
        <ele>368</ele>
        <time>2022-04-04T19:36:24Z</time>
      </trkpt>
      <trkpt lat="46.58687" lon="5.4784">
        <ele>367</ele>
        <time>2022-04-04T19:36:26Z</time>
      </trkpt>
      <trkpt lat="46.5869" lon="5.47888">
        <ele>369</ele>
        <time>2022-04-04T19:36:32Z</time>
      </trkpt>
      <trkpt lat="46.58688" lon="5.47983">
        <ele>375</ele>
        <time>2022-04-04T19:36:44Z</time>
      </trkpt>
      <trkpt lat="46.58691" lon="5.48032">
        <ele>379</ele>
        <time>2022-04-04T19:36:50Z</time>
      </trkpt>
      <trkpt lat="46.58699" lon="5.4806">
        <ele>379</ele>
        <time>2022-04-04T19:36:54Z</time>
      </trkpt>
      <trkpt lat="46.58712" lon="5.48079">
        <ele>377</ele>
        <time>2022-04-04T19:36:57Z</time>
      </trkpt>
      <trkpt lat="46.58728" lon="5.48094">
        <ele>374</ele>
        <time>2022-04-04T19:37:00Z</time>
      </trkpt>
      <trkpt lat="46.58749" lon="5.4813">
        <ele>375</ele>
        <time>2022-04-04T19:37:06Z</time>
      </trkpt>
      <trkpt lat="46.5876" lon="5.48138">
        <ele>375</ele>
        <time>2022-04-04T19:37:08Z</time>
      </trkpt>
      <trkpt lat="46.58787" lon="5.48145">
        <ele>371</ele>
        <time>2022-04-04T19:37:13Z</time>
      </trkpt>
      <trkpt lat="46.58818" lon="5.4815">
        <ele>367</ele>
        <time>2022-04-04T19:37:19Z</time>
      </trkpt>
      <trkpt lat="46.58854" lon="5.4815">
        <ele>361</ele>
        <time>2022-04-04T19:37:25Z</time>
      </trkpt>
      <trkpt lat="46.58874" lon="5.48156">
        <ele>358</ele>
        <time>2022-04-04T19:37:29Z</time>
      </trkpt>
      <trkpt lat="46.58914" lon="5.48174">
        <ele>354</ele>
        <time>2022-04-04T19:37:36Z</time>
      </trkpt>
      <trkpt lat="46.58941" lon="5.48192">
        <ele>351</ele>
        <time>2022-04-04T19:37:41Z</time>
      </trkpt>
      <trkpt lat="46.58959" lon="5.48212">
        <ele>350</ele>
        <time>2022-04-04T19:37:45Z</time>
      </trkpt>
      <trkpt lat="46.58975" lon="5.48237">
        <ele>348</ele>
        <time>2022-04-04T19:37:50Z</time>
      </trkpt>
      <trkpt lat="46.58995" lon="5.48282">
        <ele>344</ele>
        <time>2022-04-04T19:37:56Z</time>
      </trkpt>
      <trkpt lat="46.59013" lon="5.48313">
        <ele>341</ele>
        <time>2022-04-04T19:38:01Z</time>
      </trkpt>
      <trkpt lat="46.59051" lon="5.48365">
        <ele>337</ele>
        <time>2022-04-04T19:38:10Z</time>
      </trkpt>
      <trkpt lat="46.59062" lon="5.48377">
        <ele>337</ele>
        <time>2022-04-04T19:38:13Z</time>
      </trkpt>
      <trkpt lat="46.5907" lon="5.48381">
        <ele>337</ele>
        <time>2022-04-04T19:38:14Z</time>
      </trkpt>
      <trkpt lat="46.59078" lon="5.48381">
        <ele>337</ele>
        <time>2022-04-04T19:38:16Z</time>
      </trkpt>
      <trkpt lat="46.59086" lon="5.48379">
        <ele>337</ele>
        <time>2022-04-04T19:38:17Z</time>
      </trkpt>
      <trkpt lat="46.59094" lon="5.48372">
        <ele>336</ele>
        <time>2022-04-04T19:38:19Z</time>
      </trkpt>
      <trkpt lat="46.59095" lon="5.48368">
        <ele>336</ele>
        <time>2022-04-04T19:38:19Z</time>
      </trkpt>
      <trkpt lat="46.59096" lon="5.48361">
        <ele>335</ele>
        <time>2022-04-04T19:38:20Z</time>
      </trkpt>
      <trkpt lat="46.59093" lon="5.48353">
        <ele>335</ele>
        <time>2022-04-04T19:38:21Z</time>
      </trkpt>
      <trkpt lat="46.59066" lon="5.48326">
        <ele>335</ele>
        <time>2022-04-04T19:38:27Z</time>
      </trkpt>
      <trkpt lat="46.59049" lon="5.48298">
        <ele>333</ele>
        <time>2022-04-04T19:38:32Z</time>
      </trkpt>
      <trkpt lat="46.59032" lon="5.48264">
        <ele>333</ele>
        <time>2022-04-04T19:38:37Z</time>
      </trkpt>
      <trkpt lat="46.59023" lon="5.48233">
        <ele>332</ele>
        <time>2022-04-04T19:38:41Z</time>
      </trkpt>
      <trkpt lat="46.59019" lon="5.48207">
        <ele>331</ele>
        <time>2022-04-04T19:38:44Z</time>
      </trkpt>
      <trkpt lat="46.59012" lon="5.4818">
        <ele>330</ele>
        <time>2022-04-04T19:38:48Z</time>
      </trkpt>
      <trkpt lat="46.5899" lon="5.48123">
        <ele>329</ele>
        <time>2022-04-04T19:38:56Z</time>
      </trkpt>
      <trkpt lat="46.58978" lon="5.48067">
        <ele>325</ele>
        <time>2022-04-04T19:39:03Z</time>
      </trkpt>
      <trkpt lat="46.58975" lon="5.48028">
        <ele>324</ele>
        <time>2022-04-04T19:39:08Z</time>
      </trkpt>
      <trkpt lat="46.58977" lon="5.48016">
        <ele>324</ele>
        <time>2022-04-04T19:39:09Z</time>
      </trkpt>
      <trkpt lat="46.58983" lon="5.48007">
        <ele>323</ele>
        <time>2022-04-04T19:39:11Z</time>
      </trkpt>
      <trkpt lat="46.59014" lon="5.47984">
        <ele>319</ele>
        <time>2022-04-04T19:39:17Z</time>
      </trkpt>
      <trkpt lat="46.59021" lon="5.47977">
        <ele>318</ele>
        <time>2022-04-04T19:39:19Z</time>
      </trkpt>
      <trkpt lat="46.59027" lon="5.47957">
        <ele>316</ele>
        <time>2022-04-04T19:39:21Z</time>
      </trkpt>
      <trkpt lat="46.59027" lon="5.47942">
        <ele>315</ele>
        <time>2022-04-04T19:39:23Z</time>
      </trkpt>
      <trkpt lat="46.59022" lon="5.47927">
        <ele>315</ele>
        <time>2022-04-04T19:39:25Z</time>
      </trkpt>
      <trkpt lat="46.59012" lon="5.47913">
        <ele>314</ele>
        <time>2022-04-04T19:39:28Z</time>
      </trkpt>
      <trkpt lat="46.58939" lon="5.47861">
        <ele>312</ele>
        <time>2022-04-04T19:39:42Z</time>
      </trkpt>
      <trkpt lat="46.58911" lon="5.47847">
        <ele>312</ele>
        <time>2022-04-04T19:39:47Z</time>
      </trkpt>
      <trkpt lat="46.58897" lon="5.47836">
        <ele>311</ele>
        <time>2022-04-04T19:39:50Z</time>
      </trkpt>
      <trkpt lat="46.58886" lon="5.47819">
        <ele>310</ele>
        <time>2022-04-04T19:39:53Z</time>
      </trkpt>
      <trkpt lat="46.58877" lon="5.47795">
        <ele>309</ele>
        <time>2022-04-04T19:39:56Z</time>
      </trkpt>
      <trkpt lat="46.58876" lon="5.47753">
        <ele>307</ele>
        <time>2022-04-04T19:40:01Z</time>
      </trkpt>
      <trkpt lat="46.58877" lon="5.47719">
        <ele>307</ele>
        <time>2022-04-04T19:40:06Z</time>
      </trkpt>
      <trkpt lat="46.58879" lon="5.4772">
        <ele>307</ele>
        <time>2022-04-04T19:40:06Z</time>
      </trkpt>
      <trkpt lat="46.58877" lon="5.47719">
        <ele>307</ele>
        <time>2022-04-04T19:40:06Z</time>
      </trkpt>
      <trkpt lat="46.58883" lon="5.47711">
        <ele>306</ele>
        <time>2022-04-04T19:40:08Z</time>
      </trkpt>
      <trkpt lat="46.58918" lon="5.47682">
        <ele>304</ele>
        <time>2022-04-04T19:40:15Z</time>
      </trkpt>
      <trkpt lat="46.58946" lon="5.47671">
        <ele>303</ele>
        <time>2022-04-04T19:40:20Z</time>
      </trkpt>
      <trkpt lat="46.58957" lon="5.47669">
        <ele>303</ele>
        <time>2022-04-04T19:40:22Z</time>
      </trkpt>
      <trkpt lat="46.59004" lon="5.47681">
        <ele>302</ele>
        <time>2022-04-04T19:40:31Z</time>
      </trkpt>
      <trkpt lat="46.59018" lon="5.47679">
        <ele>300</ele>
        <time>2022-04-04T19:40:33Z</time>
      </trkpt>
      <trkpt lat="46.5903" lon="5.47669">
        <ele>299</ele>
        <time>2022-04-04T19:40:36Z</time>
      </trkpt>
      <trkpt lat="46.5905" lon="5.47647">
        <ele>297</ele>
        <time>2022-04-04T19:40:40Z</time>
      </trkpt>
      <trkpt lat="46.59081" lon="5.47603">
        <ele>294</ele>
        <time>2022-04-04T19:40:48Z</time>
      </trkpt>
      <trkpt lat="46.59107" lon="5.4756">
        <ele>291</ele>
        <time>2022-04-04T19:40:55Z</time>
      </trkpt>
      <trkpt lat="46.59185" lon="5.47398">
        <ele>282</ele>
        <time>2022-04-04T19:41:19Z</time>
      </trkpt>
      <trkpt lat="46.59194" lon="5.47384">
        <ele>282</ele>
        <time>2022-04-04T19:41:21Z</time>
      </trkpt>
      <trkpt lat="46.59226" lon="5.47348">
        <ele>277</ele>
        <time>2022-04-04T19:41:28Z</time>
      </trkpt>
      <trkpt lat="46.59228" lon="5.4734">
        <ele>277</ele>
        <time>2022-04-04T19:41:29Z</time>
      </trkpt>
      <trkpt lat="46.59229" lon="5.47331">
        <ele>276</ele>
        <time>2022-04-04T19:41:31Z</time>
      </trkpt>
      <trkpt lat="46.59223" lon="5.47311">
        <ele>276</ele>
        <time>2022-04-04T19:41:33Z</time>
      </trkpt>
      <trkpt lat="46.59207" lon="5.4727">
        <ele>276</ele>
        <time>2022-04-04T19:41:39Z</time>
      </trkpt>
      <trkpt lat="46.59203" lon="5.47256">
        <ele>276</ele>
        <time>2022-04-04T19:41:41Z</time>
      </trkpt>
      <trkpt lat="46.59203" lon="5.4724">
        <ele>276</ele>
        <time>2022-04-04T19:41:43Z</time>
      </trkpt>
      <trkpt lat="46.59206" lon="5.47223">
        <ele>276</ele>
        <time>2022-04-04T19:41:45Z</time>
      </trkpt>
      <trkpt lat="46.59214" lon="5.47199">
        <ele>275</ele>
        <time>2022-04-04T19:41:48Z</time>
      </trkpt>
      <trkpt lat="46.59228" lon="5.47172">
        <ele>273</ele>
        <time>2022-04-04T19:41:52Z</time>
      </trkpt>
      <trkpt lat="46.59239" lon="5.47158">
        <ele>272</ele>
        <time>2022-04-04T19:41:55Z</time>
      </trkpt>
      <trkpt lat="46.59252" lon="5.47148">
        <ele>270</ele>
        <time>2022-04-04T19:41:58Z</time>
      </trkpt>
      <trkpt lat="46.59274" lon="5.47135">
        <ele>267</ele>
        <time>2022-04-04T19:42:02Z</time>
      </trkpt>
      <trkpt lat="46.59285" lon="5.47125">
        <ele>266</ele>
        <time>2022-04-04T19:42:04Z</time>
      </trkpt>
      <trkpt lat="46.59296" lon="5.47104">
        <ele>265</ele>
        <time>2022-04-04T19:42:07Z</time>
      </trkpt>
      <trkpt lat="46.59299" lon="5.47093">
        <ele>265</ele>
        <time>2022-04-04T19:42:09Z</time>
      </trkpt>
      <trkpt lat="46.59299" lon="5.47081">
        <ele>266</ele>
        <time>2022-04-04T19:42:10Z</time>
      </trkpt>
      <trkpt lat="46.59296" lon="5.47068">
        <ele>266</ele>
        <time>2022-04-04T19:42:12Z</time>
      </trkpt>
      <trkpt lat="46.59284" lon="5.47036">
        <ele>266</ele>
        <time>2022-04-04T19:42:16Z</time>
      </trkpt>
      <trkpt lat="46.5928" lon="5.47015">
        <ele>265</ele>
        <time>2022-04-04T19:42:19Z</time>
      </trkpt>
      <trkpt lat="46.5928" lon="5.47002">
        <ele>265</ele>
        <time>2022-04-04T19:42:21Z</time>
      </trkpt>
      <trkpt lat="46.59285" lon="5.46977">
        <ele>263</ele>
        <time>2022-04-04T19:42:24Z</time>
      </trkpt>
      <trkpt lat="46.59301" lon="5.46932">
        <ele>260</ele>
        <time>2022-04-04T19:42:30Z</time>
      </trkpt>
      <trkpt lat="46.59306" lon="5.46914">
        <ele>258</ele>
        <time>2022-04-04T19:42:32Z</time>
      </trkpt>
      <trkpt lat="46.5932" lon="5.46914">
        <ele>256</ele>
        <time>2022-04-04T19:42:35Z</time>
      </trkpt>
      <trkpt lat="46.59325" lon="5.46917">
        <ele>255</ele>
        <time>2022-04-04T19:42:36Z</time>
      </trkpt>
      <trkpt lat="46.5933" lon="5.46925">
        <ele>255</ele>
        <time>2022-04-04T19:42:37Z</time>
      </trkpt>
      <trkpt lat="46.59345" lon="5.46975">
        <ele>255</ele>
        <time>2022-04-04T19:42:44Z</time>
      </trkpt>
      <trkpt lat="46.59353" lon="5.46991">
        <ele>255</ele>
        <time>2022-04-04T19:42:46Z</time>
      </trkpt>
      <trkpt lat="46.59363" lon="5.47001">
        <ele>255</ele>
        <time>2022-04-04T19:42:48Z</time>
      </trkpt>
      <trkpt lat="46.59438" lon="5.4704">
        <ele>248</ele>
        <time>2022-04-04T19:43:03Z</time>
      </trkpt>
      <trkpt lat="46.59447" lon="5.47047">
        <ele>247</ele>
        <time>2022-04-04T19:43:04Z</time>
      </trkpt>
      <trkpt lat="46.59453" lon="5.47058">
        <ele>246</ele>
        <time>2022-04-04T19:43:06Z</time>
      </trkpt>
      <trkpt lat="46.59455" lon="5.47068">
        <ele>246</ele>
        <time>2022-04-04T19:43:07Z</time>
      </trkpt>
      <trkpt lat="46.59455" lon="5.47078">
        <ele>246</ele>
        <time>2022-04-04T19:43:09Z</time>
      </trkpt>
      <trkpt lat="46.59451" lon="5.47091">
        <ele>246</ele>
        <time>2022-04-04T19:43:10Z</time>
      </trkpt>
      <trkpt lat="46.59429" lon="5.47129">
        <ele>246</ele>
        <time>2022-04-04T19:43:16Z</time>
      </trkpt>
      <trkpt lat="46.59425" lon="5.47141">
        <ele>245</ele>
        <time>2022-04-04T19:43:18Z</time>
      </trkpt>
      <trkpt lat="46.59425" lon="5.47152">
        <ele>244</ele>
        <time>2022-04-04T19:43:19Z</time>
      </trkpt>
      <trkpt lat="46.59426" lon="5.47162">
        <ele>244</ele>
        <time>2022-04-04T19:43:21Z</time>
      </trkpt>
      <trkpt lat="46.59431" lon="5.47175">
        <ele>243</ele>
        <time>2022-04-04T19:43:22Z</time>
      </trkpt>
      <trkpt lat="46.59439" lon="5.47185">
        <ele>243</ele>
        <time>2022-04-04T19:43:24Z</time>
      </trkpt>
      <trkpt lat="46.59495" lon="5.47238">
        <ele>239</ele>
        <time>2022-04-04T19:43:36Z</time>
      </trkpt>
      <trkpt lat="46.5951" lon="5.47248">
        <ele>239</ele>
        <time>2022-04-04T19:43:39Z</time>
      </trkpt>
      <trkpt lat="46.59522" lon="5.47251">
        <ele>238</ele>
        <time>2022-04-04T19:43:41Z</time>
      </trkpt>
      <trkpt lat="46.5957" lon="5.47251">
        <ele>237</ele>
        <time>2022-04-04T19:43:50Z</time>
      </trkpt>
      <trkpt lat="46.59573" lon="5.4729">
        <ele>236</ele>
        <time>2022-04-04T19:43:55Z</time>
      </trkpt>
      <trkpt lat="46.59572" lon="5.47331">
        <ele>234</ele>
        <time>2022-04-04T19:44:00Z</time>
      </trkpt>
      <trkpt lat="46.59575" lon="5.47339">
        <ele>234</ele>
        <time>2022-04-04T19:44:01Z</time>
      </trkpt>
      <trkpt lat="46.59594" lon="5.47366">
        <ele>232</ele>
        <time>2022-04-04T19:44:06Z</time>
      </trkpt>
      <trkpt lat="46.59616" lon="5.47403">
        <ele>229</ele>
        <time>2022-04-04T19:44:12Z</time>
      </trkpt>
      <trkpt lat="46.5962" lon="5.4742">
        <ele>229</ele>
        <time>2022-04-04T19:44:14Z</time>
      </trkpt>
      <trkpt lat="46.59623" lon="5.47445">
        <ele>228</ele>
        <time>2022-04-04T19:44:17Z</time>
      </trkpt>
      <trkpt lat="46.59622" lon="5.47471">
        <ele>227</ele>
        <time>2022-04-04T19:44:20Z</time>
      </trkpt>
      <trkpt lat="46.59617" lon="5.47508">
        <ele>226</ele>
        <time>2022-04-04T19:44:25Z</time>
      </trkpt>
      <trkpt lat="46.59617" lon="5.47522">
        <ele>226</ele>
        <time>2022-04-04T19:44:26Z</time>
      </trkpt>
      <trkpt lat="46.59618" lon="5.47535">
        <ele>225</ele>
        <time>2022-04-04T19:44:28Z</time>
      </trkpt>
      <trkpt lat="46.59622" lon="5.47546">
        <ele>225</ele>
        <time>2022-04-04T19:44:29Z</time>
      </trkpt>
      <trkpt lat="46.59649" lon="5.47582">
        <ele>222</ele>
        <time>2022-04-04T19:44:36Z</time>
      </trkpt>
      <trkpt lat="46.59656" lon="5.47594">
        <ele>221</ele>
        <time>2022-04-04T19:44:38Z</time>
      </trkpt>
      <trkpt lat="46.59662" lon="5.47619">
        <ele>220</ele>
        <time>2022-04-04T19:44:41Z</time>
      </trkpt>
      <trkpt lat="46.59663" lon="5.47634">
        <ele>219</ele>
        <time>2022-04-04T19:44:43Z</time>
      </trkpt>
      <trkpt lat="46.59658" lon="5.47672">
        <ele>218</ele>
        <time>2022-04-04T19:44:48Z</time>
      </trkpt>
      <trkpt lat="46.59659" lon="5.47682">
        <ele>219</ele>
        <time>2022-04-04T19:44:49Z</time>
      </trkpt>
      <trkpt lat="46.597" lon="5.47753">
        <ele>219</ele>
        <time>2022-04-04T19:45:00Z</time>
      </trkpt>
      <trkpt lat="46.59705" lon="5.47774">
        <ele>219</ele>
        <time>2022-04-04T19:45:03Z</time>
      </trkpt>
      <trkpt lat="46.59712" lon="5.47843">
        <ele>218</ele>
        <time>2022-04-04T19:45:12Z</time>
      </trkpt>
      <trkpt lat="46.59741" lon="5.47986">
        <ele>220</ele>
        <time>2022-04-04T19:45:30Z</time>
      </trkpt>
      <trkpt lat="46.59746" lon="5.48002">
        <ele>220</ele>
        <time>2022-04-04T19:45:32Z</time>
      </trkpt>
      <trkpt lat="46.59753" lon="5.48016">
        <ele>220</ele>
        <time>2022-04-04T19:45:34Z</time>
      </trkpt>
      <trkpt lat="46.59744" lon="5.4803">
        <ele>220</ele>
        <time>2022-04-04T19:45:36Z</time>
      </trkpt>
      <trkpt lat="46.59737" lon="5.48052">
        <ele>220</ele>
        <time>2022-04-04T19:45:39Z</time>
      </trkpt>
      <trkpt lat="46.59732" lon="5.48073">
        <ele>221</ele>
        <time>2022-04-04T19:45:42Z</time>
      </trkpt>
      <trkpt lat="46.59723" lon="5.48162">
        <ele>223</ele>
        <time>2022-04-04T19:45:53Z</time>
      </trkpt>
      <trkpt lat="46.59727" lon="5.48206">
        <ele>223</ele>
        <time>2022-04-04T19:45:58Z</time>
      </trkpt>
      <trkpt lat="46.59731" lon="5.48286">
        <ele>223</ele>
        <time>2022-04-04T19:46:08Z</time>
      </trkpt>
      <trkpt lat="46.59736" lon="5.48326">
        <ele>223</ele>
        <time>2022-04-04T19:46:13Z</time>
      </trkpt>
      <trkpt lat="46.59745" lon="5.48368">
        <ele>223</ele>
        <time>2022-04-04T19:46:19Z</time>
      </trkpt>
      <trkpt lat="46.59762" lon="5.48434">
        <ele>222</ele>
        <time>2022-04-04T19:46:27Z</time>
      </trkpt>
      <trkpt lat="46.59772" lon="5.48492">
        <ele>222</ele>
        <time>2022-04-04T19:46:35Z</time>
      </trkpt>
      <trkpt lat="46.59775" lon="5.4852">
        <ele>223</ele>
        <time>2022-04-04T19:46:38Z</time>
      </trkpt>
      <trkpt lat="46.59775" lon="5.48576">
        <ele>225</ele>
        <time>2022-04-04T19:46:45Z</time>
      </trkpt>
      <trkpt lat="46.59796" lon="5.48653">
        <ele>227</ele>
        <time>2022-04-04T19:46:55Z</time>
      </trkpt>
      <trkpt lat="46.59801" lon="5.48663">
        <ele>227</ele>
        <time>2022-04-04T19:46:57Z</time>
      </trkpt>
      <trkpt lat="46.59808" lon="5.48667">
        <ele>226</ele>
        <time>2022-04-04T19:46:58Z</time>
      </trkpt>
      <trkpt lat="46.59824" lon="5.48653">
        <ele>224</ele>
        <time>2022-04-04T19:47:01Z</time>
      </trkpt>
      <trkpt lat="46.59835" lon="5.48648">
        <ele>223</ele>
        <time>2022-04-04T19:47:03Z</time>
      </trkpt>
      <trkpt lat="46.59863" lon="5.48639">
        <ele>222</ele>
        <time>2022-04-04T19:47:08Z</time>
      </trkpt>
      <trkpt lat="46.59927" lon="5.4865">
        <ele>224</ele>
        <time>2022-04-04T19:47:20Z</time>
      </trkpt>
      <trkpt lat="46.59929" lon="5.48676">
        <ele>224</ele>
        <time>2022-04-04T19:47:23Z</time>
      </trkpt>
      <trkpt lat="46.59924" lon="5.48721">
        <ele>224</ele>
        <time>2022-04-04T19:47:29Z</time>
      </trkpt>
      <trkpt lat="46.59923" lon="5.48765">
        <ele>225</ele>
        <time>2022-04-04T19:47:34Z</time>
      </trkpt>
      <trkpt lat="46.59921" lon="5.48781">
        <ele>227</ele>
        <time>2022-04-04T19:47:36Z</time>
      </trkpt>
      <trkpt lat="46.59887" lon="5.48893">
        <ele>238</ele>
        <time>2022-04-04T19:47:51Z</time>
      </trkpt>
      <trkpt lat="46.5987" lon="5.4899">
        <ele>242</ele>
        <time>2022-04-04T19:48:03Z</time>
      </trkpt>
      <trkpt lat="46.59868" lon="5.49026">
        <ele>242</ele>
        <time>2022-04-04T19:48:08Z</time>
      </trkpt>
      <trkpt lat="46.59871" lon="5.49065">
        <ele>242</ele>
        <time>2022-04-04T19:48:12Z</time>
      </trkpt>
      <trkpt lat="46.59883" lon="5.4914">
        <ele>242</ele>
        <time>2022-04-04T19:48:22Z</time>
      </trkpt>
      <trkpt lat="46.59885" lon="5.49159">
        <ele>242</ele>
        <time>2022-04-04T19:48:24Z</time>
      </trkpt>
      <trkpt lat="46.59889" lon="5.49182">
        <ele>241</ele>
        <time>2022-04-04T19:48:27Z</time>
      </trkpt>
      <trkpt lat="46.59899" lon="5.49221">
        <ele>240</ele>
        <time>2022-04-04T19:48:32Z</time>
      </trkpt>
      <trkpt lat="46.59901" lon="5.49238">
        <ele>240</ele>
        <time>2022-04-04T19:48:34Z</time>
      </trkpt>
      <trkpt lat="46.59898" lon="5.49289">
        <ele>239</ele>
        <time>2022-04-04T19:48:40Z</time>
      </trkpt>
      <trkpt lat="46.59897" lon="5.49309">
        <ele>239</ele>
        <time>2022-04-04T19:48:43Z</time>
      </trkpt>
      <trkpt lat="46.59899" lon="5.49322">
        <ele>239</ele>
        <time>2022-04-04T19:48:45Z</time>
      </trkpt>
      <trkpt lat="46.59913" lon="5.49372">
        <ele>235</ele>
        <time>2022-04-04T19:48:51Z</time>
      </trkpt>
      <trkpt lat="46.59923" lon="5.4942">
        <ele>233</ele>
        <time>2022-04-04T19:48:57Z</time>
      </trkpt>
      <trkpt lat="46.59921" lon="5.49474">
        <ele>232</ele>
        <time>2022-04-04T19:49:04Z</time>
      </trkpt>
      <trkpt lat="46.59922" lon="5.49495">
        <ele>232</ele>
        <time>2022-04-04T19:49:06Z</time>
      </trkpt>
      <trkpt lat="46.5993" lon="5.49534">
        <ele>234</ele>
        <time>2022-04-04T19:49:11Z</time>
      </trkpt>
      <trkpt lat="46.59939" lon="5.4956">
        <ele>234</ele>
        <time>2022-04-04T19:49:15Z</time>
      </trkpt>
      <trkpt lat="46.59942" lon="5.49574">
        <ele>235</ele>
        <time>2022-04-04T19:49:17Z</time>
      </trkpt>
      <trkpt lat="46.59947" lon="5.49638">
        <ele>234</ele>
        <time>2022-04-04T19:49:25Z</time>
      </trkpt>
      <trkpt lat="46.59947" lon="5.49681">
        <ele>234</ele>
        <time>2022-04-04T19:49:30Z</time>
      </trkpt>
      <trkpt lat="46.59944" lon="5.49756">
        <ele>236</ele>
        <time>2022-04-04T19:49:39Z</time>
      </trkpt>
      <trkpt lat="46.59938" lon="5.49796">
        <ele>237</ele>
        <time>2022-04-04T19:49:44Z</time>
      </trkpt>
      <trkpt lat="46.59927" lon="5.49855">
        <ele>237</ele>
        <time>2022-04-04T19:49:52Z</time>
      </trkpt>
      <trkpt lat="46.59922" lon="5.49888">
        <ele>238</ele>
        <time>2022-04-04T19:49:56Z</time>
      </trkpt>
      <trkpt lat="46.59919" lon="5.49927">
        <ele>239</ele>
        <time>2022-04-04T19:50:01Z</time>
      </trkpt>
      <trkpt lat="46.59918" lon="5.49964">
        <ele>239</ele>
        <time>2022-04-04T19:50:05Z</time>
      </trkpt>
      <trkpt lat="46.5992" lon="5.49977">
        <ele>240</ele>
        <time>2022-04-04T19:50:07Z</time>
      </trkpt>
      <trkpt lat="46.59921" lon="5.49975">
        <ele>240</ele>
        <time>2022-04-04T19:50:07Z</time>
      </trkpt>
      <trkpt lat="46.5992" lon="5.49977">
        <ele>240</ele>
        <time>2022-04-04T19:50:07Z</time>
      </trkpt>
      <trkpt lat="46.59916" lon="5.50004">
        <ele>240</ele>
        <time>2022-04-04T19:50:11Z</time>
      </trkpt>
      <trkpt lat="46.59912" lon="5.50014">
        <ele>241</ele>
        <time>2022-04-04T19:50:12Z</time>
      </trkpt>
      <trkpt lat="46.59891" lon="5.50054">
        <ele>242</ele>
        <time>2022-04-04T19:50:18Z</time>
      </trkpt>
      <trkpt lat="46.59866" lon="5.50108">
        <ele>246</ele>
        <time>2022-04-04T19:50:26Z</time>
      </trkpt>
      <trkpt lat="46.59855" lon="5.50124">
        <ele>248</ele>
        <time>2022-04-04T19:50:29Z</time>
      </trkpt>
      <trkpt lat="46.59839" lon="5.50141">
        <ele>249</ele>
        <time>2022-04-04T19:50:32Z</time>
      </trkpt>
      <trkpt lat="46.59826" lon="5.5016">
        <ele>250</ele>
        <time>2022-04-04T19:50:36Z</time>
      </trkpt>
      <trkpt lat="46.59784" lon="5.50204">
        <ele>254</ele>
        <time>2022-04-04T19:50:45Z</time>
      </trkpt>
      <trkpt lat="46.59771" lon="5.50211">
        <ele>254</ele>
        <time>2022-04-04T19:50:47Z</time>
      </trkpt>
      <trkpt lat="46.59751" lon="5.50216">
        <ele>252</ele>
        <time>2022-04-04T19:50:51Z</time>
      </trkpt>
      <trkpt lat="46.59729" lon="5.50224">
        <ele>251</ele>
        <time>2022-04-04T19:50:55Z</time>
      </trkpt>
      <trkpt lat="46.59688" lon="5.50246">
        <ele>251</ele>
        <time>2022-04-04T19:51:03Z</time>
      </trkpt>
      <trkpt lat="46.59683" lon="5.50252">
        <ele>251</ele>
        <time>2022-04-04T19:51:04Z</time>
      </trkpt>
      <trkpt lat="46.59681" lon="5.50262">
        <ele>252</ele>
        <time>2022-04-04T19:51:05Z</time>
      </trkpt>
      <trkpt lat="46.59682" lon="5.50276">
        <ele>253</ele>
        <time>2022-04-04T19:51:07Z</time>
      </trkpt>
      <trkpt lat="46.59687" lon="5.50291">
        <ele>255</ele>
        <time>2022-04-04T19:51:09Z</time>
      </trkpt>
      <trkpt lat="46.59692" lon="5.50297">
        <ele>257</ele>
        <time>2022-04-04T19:51:10Z</time>
      </trkpt>
      <trkpt lat="46.59696" lon="5.50299">
        <ele>257</ele>
        <time>2022-04-04T19:51:11Z</time>
      </trkpt>
      <trkpt lat="46.59706" lon="5.50298">
        <ele>258</ele>
        <time>2022-04-04T19:51:13Z</time>
      </trkpt>
      <trkpt lat="46.59728" lon="5.50285">
        <ele>259</ele>
        <time>2022-04-04T19:51:17Z</time>
      </trkpt>
      <trkpt lat="46.59796" lon="5.50237">
        <ele>262</ele>
        <time>2022-04-04T19:51:30Z</time>
      </trkpt>
      <trkpt lat="46.59845" lon="5.50206">
        <ele>263</ele>
        <time>2022-04-04T19:51:40Z</time>
      </trkpt>
      <trkpt lat="46.5987" lon="5.50196">
        <ele>264</ele>
        <time>2022-04-04T19:51:45Z</time>
      </trkpt>
      <trkpt lat="46.59905" lon="5.50188">
        <ele>267</ele>
        <time>2022-04-04T19:51:51Z</time>
      </trkpt>
      <trkpt lat="46.59951" lon="5.50185">
        <ele>266</ele>
        <time>2022-04-04T19:51:59Z</time>
      </trkpt>
      <trkpt lat="46.59959" lon="5.50188">
        <ele>266</ele>
        <time>2022-04-04T19:52:00Z</time>
      </trkpt>
      <trkpt lat="46.59966" lon="5.50194">
        <ele>267</ele>
        <time>2022-04-04T19:52:02Z</time>
      </trkpt>
      <trkpt lat="46.59971" lon="5.50207">
        <ele>270</ele>
        <time>2022-04-04T19:52:04Z</time>
      </trkpt>
      <trkpt lat="46.59979" lon="5.50233">
        <ele>275</ele>
        <time>2022-04-04T19:52:07Z</time>
      </trkpt>
      <trkpt lat="46.59984" lon="5.50246">
        <ele>277</ele>
        <time>2022-04-04T19:52:09Z</time>
      </trkpt>
      <trkpt lat="46.59998" lon="5.50262">
        <ele>281</ele>
        <time>2022-04-04T19:52:12Z</time>
      </trkpt>
      <trkpt lat="46.60021" lon="5.5028">
        <ele>286</ele>
        <time>2022-04-04T19:52:17Z</time>
      </trkpt>
      <trkpt lat="46.60045" lon="5.50288">
        <ele>287</ele>
        <time>2022-04-04T19:52:21Z</time>
      </trkpt>
      <trkpt lat="46.60086" lon="5.50289">
        <ele>282</ele>
        <time>2022-04-04T19:52:29Z</time>
      </trkpt>
      <trkpt lat="46.60097" lon="5.50292">
        <ele>283</ele>
        <time>2022-04-04T19:52:31Z</time>
      </trkpt>
      <trkpt lat="46.6011" lon="5.50298">
        <ele>284</ele>
        <time>2022-04-04T19:52:33Z</time>
      </trkpt>
      <trkpt lat="46.60194" lon="5.50352">
        <ele>295</ele>
        <time>2022-04-04T19:52:49Z</time>
      </trkpt>
      <trkpt lat="46.60208" lon="5.50357">
        <ele>296</ele>
        <time>2022-04-04T19:52:52Z</time>
      </trkpt>
      <trkpt lat="46.60267" lon="5.50361">
        <ele>295</ele>
        <time>2022-04-04T19:53:02Z</time>
      </trkpt>
      <trkpt lat="46.60287" lon="5.50375">
        <ele>297</ele>
        <time>2022-04-04T19:53:06Z</time>
      </trkpt>
      <trkpt lat="46.6034" lon="5.50434">
        <ele>300</ele>
        <time>2022-04-04T19:53:18Z</time>
      </trkpt>
      <trkpt lat="46.60346" lon="5.50444">
        <ele>301</ele>
        <time>2022-04-04T19:53:20Z</time>
      </trkpt>
      <trkpt lat="46.60358" lon="5.50483">
        <ele>305</ele>
        <time>2022-04-04T19:53:25Z</time>
      </trkpt>
      <trkpt lat="46.60367" lon="5.50507">
        <ele>306</ele>
        <time>2022-04-04T19:53:28Z</time>
      </trkpt>
      <trkpt lat="46.60378" lon="5.50528">
        <ele>308</ele>
        <time>2022-04-04T19:53:32Z</time>
      </trkpt>
      <trkpt lat="46.60392" lon="5.50549">
        <ele>309</ele>
        <time>2022-04-04T19:53:35Z</time>
      </trkpt>
      <trkpt lat="46.60405" lon="5.50565">
        <ele>309</ele>
        <time>2022-04-04T19:53:38Z</time>
      </trkpt>
      <trkpt lat="46.60435" lon="5.50593">
        <ele>310</ele>
        <time>2022-04-04T19:53:45Z</time>
      </trkpt>
      <trkpt lat="46.60491" lon="5.50634">
        <ele>314</ele>
        <time>2022-04-04T19:53:56Z</time>
      </trkpt>
      <trkpt lat="46.60508" lon="5.50642">
        <ele>315</ele>
        <time>2022-04-04T19:53:59Z</time>
      </trkpt>
      <trkpt lat="46.60552" lon="5.50653">
        <ele>318</ele>
        <time>2022-04-04T19:54:07Z</time>
      </trkpt>
      <trkpt lat="46.60563" lon="5.50652">
        <ele>318</ele>
        <time>2022-04-04T19:54:09Z</time>
      </trkpt>
      <trkpt lat="46.60587" lon="5.50643">
        <ele>318</ele>
        <time>2022-04-04T19:54:13Z</time>
      </trkpt>
      <trkpt lat="46.60611" lon="5.50638">
        <ele>319</ele>
        <time>2022-04-04T19:54:18Z</time>
      </trkpt>
      <trkpt lat="46.60626" lon="5.50639">
        <ele>320</ele>
        <time>2022-04-04T19:54:20Z</time>
      </trkpt>
      <trkpt lat="46.60707" lon="5.5065">
        <ele>325</ele>
        <time>2022-04-04T19:54:35Z</time>
      </trkpt>
      <trkpt lat="46.60754" lon="5.50643">
        <ele>325</ele>
        <time>2022-04-04T19:54:43Z</time>
      </trkpt>
      <trkpt lat="46.60769" lon="5.50645">
        <ele>325</ele>
        <time>2022-04-04T19:54:46Z</time>
      </trkpt>
      <trkpt lat="46.60781" lon="5.50651">
        <ele>326</ele>
        <time>2022-04-04T19:54:48Z</time>
      </trkpt>
      <trkpt lat="46.60804" lon="5.5067">
        <ele>327</ele>
        <time>2022-04-04T19:54:53Z</time>
      </trkpt>
      <trkpt lat="46.60817" lon="5.50684">
        <ele>329</ele>
        <time>2022-04-04T19:54:56Z</time>
      </trkpt>
      <trkpt lat="46.60821" lon="5.50693">
        <ele>331</ele>
        <time>2022-04-04T19:54:57Z</time>
      </trkpt>
      <trkpt lat="46.60821" lon="5.50703">
        <ele>332</ele>
        <time>2022-04-04T19:54:58Z</time>
      </trkpt>
      <trkpt lat="46.60818" lon="5.50712">
        <ele>333</ele>
        <time>2022-04-04T19:54:59Z</time>
      </trkpt>
      <trkpt lat="46.60815" lon="5.50716">
        <ele>334</ele>
        <time>2022-04-04T19:55:00Z</time>
      </trkpt>
      <trkpt lat="46.60804" lon="5.50717">
        <ele>334</ele>
        <time>2022-04-04T19:55:02Z</time>
      </trkpt>
      <trkpt lat="46.60738" lon="5.50714">
        <ele>334</ele>
        <time>2022-04-04T19:55:14Z</time>
      </trkpt>
      <trkpt lat="46.60727" lon="5.50717">
        <ele>335</ele>
        <time>2022-04-04T19:55:16Z</time>
      </trkpt>
      <trkpt lat="46.60664" lon="5.50752">
        <ele>339</ele>
        <time>2022-04-04T19:55:28Z</time>
      </trkpt>
      <trkpt lat="46.60643" lon="5.50762">
        <ele>341</ele>
        <time>2022-04-04T19:55:32Z</time>
      </trkpt>
      <trkpt lat="46.60628" lon="5.50766">
        <ele>342</ele>
        <time>2022-04-04T19:55:34Z</time>
      </trkpt>
      <trkpt lat="46.60529" lon="5.50774">
        <ele>346</ele>
        <time>2022-04-04T19:55:52Z</time>
      </trkpt>
      <trkpt lat="46.60492" lon="5.50772">
        <ele>347</ele>
        <time>2022-04-04T19:55:59Z</time>
      </trkpt>
      <trkpt lat="46.60419" lon="5.50758">
        <ele>348</ele>
        <time>2022-04-04T19:56:12Z</time>
      </trkpt>
      <trkpt lat="46.60359" lon="5.50735">
        <ele>351</ele>
        <time>2022-04-04T19:56:23Z</time>
      </trkpt>
      <trkpt lat="46.60338" lon="5.50729">
        <ele>353</ele>
        <time>2022-04-04T19:56:27Z</time>
      </trkpt>
      <trkpt lat="46.60316" lon="5.50725">
        <ele>355</ele>
        <time>2022-04-04T19:56:31Z</time>
      </trkpt>
      <trkpt lat="46.60245" lon="5.50728">
        <ele>366</ele>
        <time>2022-04-04T19:56:43Z</time>
      </trkpt>
      <trkpt lat="46.60225" lon="5.50726">
        <ele>369</ele>
        <time>2022-04-04T19:56:47Z</time>
      </trkpt>
      <trkpt lat="46.60145" lon="5.50686">
        <ele>376</ele>
        <time>2022-04-04T19:57:02Z</time>
      </trkpt>
      <trkpt lat="46.60116" lon="5.50668">
        <ele>377</ele>
        <time>2022-04-04T19:57:07Z</time>
      </trkpt>
      <trkpt lat="46.60066" lon="5.50622">
        <ele>375</ele>
        <time>2022-04-04T19:57:18Z</time>
      </trkpt>
      <trkpt lat="46.60011" lon="5.50566">
        <ele>373</ele>
        <time>2022-04-04T19:57:30Z</time>
      </trkpt>
      <trkpt lat="46.59997" lon="5.50553">
        <ele>371</ele>
        <time>2022-04-04T19:57:33Z</time>
      </trkpt>
      <trkpt lat="46.59975" lon="5.50544">
        <ele>367</ele>
        <time>2022-04-04T19:57:37Z</time>
      </trkpt>
      <trkpt lat="46.59953" lon="5.50539">
        <ele>364</ele>
        <time>2022-04-04T19:57:41Z</time>
      </trkpt>
      <trkpt lat="46.59942" lon="5.50543">
        <ele>363</ele>
        <time>2022-04-04T19:57:43Z</time>
      </trkpt>
      <trkpt lat="46.59935" lon="5.50553">
        <ele>364</ele>
        <time>2022-04-04T19:57:45Z</time>
      </trkpt>
      <trkpt lat="46.59931" lon="5.50564">
        <ele>365</ele>
        <time>2022-04-04T19:57:46Z</time>
      </trkpt>
      <trkpt lat="46.59931" lon="5.50574">
        <ele>367</ele>
        <time>2022-04-04T19:57:47Z</time>
      </trkpt>
      <trkpt lat="46.59933" lon="5.50584">
        <ele>368</ele>
        <time>2022-04-04T19:57:49Z</time>
      </trkpt>
      <trkpt lat="46.59937" lon="5.50589">
        <ele>370</ele>
        <time>2022-04-04T19:57:50Z</time>
      </trkpt>
      <trkpt lat="46.59945" lon="5.5059">
        <ele>371</ele>
        <time>2022-04-04T19:57:51Z</time>
      </trkpt>
      <trkpt lat="46.59967" lon="5.50578">
        <ele>372</ele>
        <time>2022-04-04T19:57:55Z</time>
      </trkpt>
      <trkpt lat="46.59983" lon="5.50577">
        <ele>374</ele>
        <time>2022-04-04T19:57:58Z</time>
      </trkpt>
      <trkpt lat="46.59988" lon="5.5058">
        <ele>376</ele>
        <time>2022-04-04T19:57:59Z</time>
      </trkpt>
      <trkpt lat="46.60012" lon="5.50606">
        <ele>381</ele>
        <time>2022-04-04T19:58:04Z</time>
      </trkpt>
      <trkpt lat="46.60031" lon="5.50623">
        <ele>381</ele>
        <time>2022-04-04T19:58:08Z</time>
      </trkpt>
      <trkpt lat="46.60035" lon="5.50632">
        <ele>383</ele>
        <time>2022-04-04T19:58:10Z</time>
      </trkpt>
      <trkpt lat="46.60036" lon="5.50643">
        <ele>385</ele>
        <time>2022-04-04T19:58:11Z</time>
      </trkpt>
      <trkpt lat="46.60033" lon="5.50649">
        <ele>387</ele>
        <time>2022-04-04T19:58:12Z</time>
      </trkpt>
      <trkpt lat="46.60028" lon="5.50652">
        <ele>388</ele>
        <time>2022-04-04T19:58:13Z</time>
      </trkpt>
      <trkpt lat="46.60022" lon="5.50652">
        <ele>389</ele>
        <time>2022-04-04T19:58:14Z</time>
      </trkpt>
      <trkpt lat="46.60016" lon="5.50647">
        <ele>389</ele>
        <time>2022-04-04T19:58:15Z</time>
      </trkpt>
      <trkpt lat="46.59994" lon="5.50616">
        <ele>384</ele>
        <time>2022-04-04T19:58:21Z</time>
      </trkpt>
      <trkpt lat="46.59985" lon="5.50609">
        <ele>381</ele>
        <time>2022-04-04T19:58:22Z</time>
      </trkpt>
      <trkpt lat="46.59973" lon="5.50605">
        <ele>378</ele>
        <time>2022-04-04T19:58:25Z</time>
      </trkpt>
      <trkpt lat="46.59966" lon="5.50605">
        <ele>377</ele>
        <time>2022-04-04T19:58:26Z</time>
      </trkpt>
      <trkpt lat="46.59958" lon="5.50611">
        <ele>376</ele>
        <time>2022-04-04T19:58:27Z</time>
      </trkpt>
      <trkpt lat="46.59952" lon="5.50624">
        <ele>377</ele>
        <time>2022-04-04T19:58:29Z</time>
      </trkpt>
      <trkpt lat="46.59942" lon="5.50687">
        <ele>386</ele>
        <time>2022-04-04T19:58:37Z</time>
      </trkpt>
      <trkpt lat="46.59937" lon="5.50709">
        <ele>390</ele>
        <time>2022-04-04T19:58:40Z</time>
      </trkpt>
      <trkpt lat="46.59919" lon="5.50749">
        <ele>394</ele>
        <time>2022-04-04T19:58:46Z</time>
      </trkpt>
      <trkpt lat="46.59888" lon="5.50813">
        <ele>392</ele>
        <time>2022-04-04T19:58:55Z</time>
      </trkpt>
      <trkpt lat="46.59882" lon="5.50833">
        <ele>393</ele>
        <time>2022-04-04T19:58:58Z</time>
      </trkpt>
      <trkpt lat="46.5988" lon="5.50861">
        <ele>395</ele>
        <time>2022-04-04T19:59:02Z</time>
      </trkpt>
      <trkpt lat="46.59882" lon="5.50872">
        <ele>396</ele>
        <time>2022-04-04T19:59:03Z</time>
      </trkpt>
      <trkpt lat="46.59888" lon="5.50884">
        <ele>400</ele>
        <time>2022-04-04T19:59:05Z</time>
      </trkpt>
      <trkpt lat="46.5991" lon="5.50906">
        <ele>409</ele>
        <time>2022-04-04T19:59:10Z</time>
      </trkpt>
      <trkpt lat="46.59917" lon="5.5092">
        <ele>412</ele>
        <time>2022-04-04T19:59:12Z</time>
      </trkpt>
      <trkpt lat="46.59921" lon="5.50938">
        <ele>415</ele>
        <time>2022-04-04T19:59:14Z</time>
      </trkpt>
      <trkpt lat="46.59921" lon="5.50953">
        <ele>416</ele>
        <time>2022-04-04T19:59:16Z</time>
      </trkpt>
      <trkpt lat="46.59917" lon="5.50977">
        <ele>416</ele>
        <time>2022-04-04T19:59:19Z</time>
      </trkpt>
      <trkpt lat="46.59905" lon="5.51012">
        <ele>419</ele>
        <time>2022-04-04T19:59:24Z</time>
      </trkpt>
      <trkpt lat="46.5989" lon="5.51031">
        <ele>423</ele>
        <time>2022-04-04T19:59:27Z</time>
      </trkpt>
      <trkpt lat="46.59858" lon="5.51046">
        <ele>423</ele>
        <time>2022-04-04T19:59:33Z</time>
      </trkpt>
      <trkpt lat="46.59792" lon="5.51066">
        <ele>432</ele>
        <time>2022-04-04T19:59:45Z</time>
      </trkpt>
      <trkpt lat="46.59767" lon="5.51065">
        <ele>434</ele>
        <time>2022-04-04T19:59:50Z</time>
      </trkpt>
      <trkpt lat="46.59712" lon="5.51036">
        <ele>430</ele>
        <time>2022-04-04T20:00:00Z</time>
      </trkpt>
      <trkpt lat="46.59649" lon="5.51018">
        <ele>433</ele>
        <time>2022-04-04T20:00:11Z</time>
      </trkpt>
      <trkpt lat="46.59592" lon="5.50997">
        <ele>435</ele>
        <time>2022-04-04T20:00:22Z</time>
      </trkpt>
      <trkpt lat="46.59568" lon="5.50991">
        <ele>435</ele>
        <time>2022-04-04T20:00:26Z</time>
      </trkpt>
      <trkpt lat="46.5951" lon="5.50988">
        <ele>436</ele>
        <time>2022-04-04T20:00:37Z</time>
      </trkpt>
      <trkpt lat="46.5949" lon="5.50991">
        <ele>436</ele>
        <time>2022-04-04T20:00:40Z</time>
      </trkpt>
      <trkpt lat="46.59474" lon="5.50996">
        <ele>434</ele>
        <time>2022-04-04T20:00:43Z</time>
      </trkpt>
      <trkpt lat="46.59456" lon="5.51009">
        <ele>433</ele>
        <time>2022-04-04T20:00:47Z</time>
      </trkpt>
      <trkpt lat="46.59446" lon="5.51018">
        <ele>433</ele>
        <time>2022-04-04T20:00:49Z</time>
      </trkpt>
      <trkpt lat="46.59436" lon="5.51033">
        <ele>434</ele>
        <time>2022-04-04T20:00:51Z</time>
      </trkpt>
      <trkpt lat="46.5943" lon="5.5105">
        <ele>436</ele>
        <time>2022-04-04T20:00:54Z</time>
      </trkpt>
      <trkpt lat="46.59418" lon="5.51116">
        <ele>442</ele>
        <time>2022-04-04T20:01:02Z</time>
      </trkpt>
      <trkpt lat="46.59417" lon="5.51133">
        <ele>443</ele>
        <time>2022-04-04T20:01:04Z</time>
      </trkpt>
      <trkpt lat="46.59429" lon="5.51193">
        <ele>448</ele>
        <time>2022-04-04T20:01:12Z</time>
      </trkpt>
      <trkpt lat="46.59427" lon="5.5122">
        <ele>448</ele>
        <time>2022-04-04T20:01:15Z</time>
      </trkpt>
      <trkpt lat="46.59422" lon="5.51246">
        <ele>448</ele>
        <time>2022-04-04T20:01:18Z</time>
      </trkpt>
      <trkpt lat="46.59421" lon="5.51258">
        <ele>449</ele>
        <time>2022-04-04T20:01:20Z</time>
      </trkpt>
      <trkpt lat="46.59423" lon="5.51268">
        <ele>449</ele>
        <time>2022-04-04T20:01:21Z</time>
      </trkpt>
      <trkpt lat="46.59431" lon="5.51282">
        <ele>450</ele>
        <time>2022-04-04T20:01:23Z</time>
      </trkpt>
      <trkpt lat="46.59456" lon="5.51315">
        <ele>451</ele>
        <time>2022-04-04T20:01:29Z</time>
      </trkpt>
      <trkpt lat="46.59475" lon="5.51347">
        <ele>452</ele>
        <time>2022-04-04T20:01:34Z</time>
      </trkpt>
      <trkpt lat="46.59489" lon="5.51363">
        <ele>453</ele>
        <time>2022-04-04T20:01:38Z</time>
      </trkpt>
      <trkpt lat="46.59515" lon="5.5138">
        <ele>453</ele>
        <time>2022-04-04T20:01:43Z</time>
      </trkpt>
      <trkpt lat="46.5955" lon="5.51391">
        <ele>453</ele>
        <time>2022-04-04T20:01:49Z</time>
      </trkpt>
      <trkpt lat="46.59592" lon="5.51395">
        <ele>452</ele>
        <time>2022-04-04T20:01:57Z</time>
      </trkpt>
      <trkpt lat="46.59607" lon="5.51402">
        <ele>453</ele>
        <time>2022-04-04T20:01:59Z</time>
      </trkpt>
      <trkpt lat="46.5964" lon="5.5143">
        <ele>454</ele>
        <time>2022-04-04T20:02:06Z</time>
      </trkpt>
      <trkpt lat="46.59677" lon="5.51453">
        <ele>455</ele>
        <time>2022-04-04T20:02:13Z</time>
      </trkpt>
      <trkpt lat="46.59745" lon="5.51484">
        <ele>457</ele>
        <time>2022-04-04T20:02:26Z</time>
      </trkpt>
      <trkpt lat="46.59764" lon="5.51486">
        <ele>457</ele>
        <time>2022-04-04T20:02:29Z</time>
      </trkpt>
      <trkpt lat="46.59765" lon="5.51507">
        <ele>457</ele>
        <time>2022-04-04T20:02:32Z</time>
      </trkpt>
      <trkpt lat="46.59775" lon="5.51544">
        <ele>458</ele>
        <time>2022-04-04T20:02:37Z</time>
      </trkpt>
      <trkpt lat="46.59784" lon="5.51559">
        <ele>458</ele>
        <time>2022-04-04T20:02:39Z</time>
      </trkpt>
      <trkpt lat="46.5979" lon="5.51566">
        <ele>459</ele>
        <time>2022-04-04T20:02:41Z</time>
      </trkpt>
      <trkpt lat="46.59801" lon="5.51568">
        <ele>459</ele>
        <time>2022-04-04T20:02:43Z</time>
      </trkpt>
      <trkpt lat="46.5981" lon="5.51567">
        <ele>459</ele>
        <time>2022-04-04T20:02:44Z</time>
      </trkpt>
      <trkpt lat="46.59836" lon="5.51557">
        <ele>458</ele>
        <time>2022-04-04T20:02:49Z</time>
      </trkpt>
      <trkpt lat="46.59851" lon="5.51556">
        <ele>458</ele>
        <time>2022-04-04T20:02:52Z</time>
      </trkpt>
      <trkpt lat="46.59873" lon="5.51558">
        <ele>458</ele>
        <time>2022-04-04T20:02:56Z</time>
      </trkpt>
      <trkpt lat="46.59879" lon="5.5156">
        <ele>458</ele>
        <time>2022-04-04T20:02:57Z</time>
      </trkpt>
      <trkpt lat="46.59884" lon="5.51566">
        <ele>458</ele>
        <time>2022-04-04T20:02:58Z</time>
      </trkpt>
      <trkpt lat="46.59896" lon="5.51585">
        <ele>459</ele>
        <time>2022-04-04T20:03:01Z</time>
      </trkpt>
      <trkpt lat="46.59904" lon="5.51606">
        <ele>461</ele>
        <time>2022-04-04T20:03:04Z</time>
      </trkpt>
      <trkpt lat="46.59911" lon="5.51614">
        <ele>461</ele>
        <time>2022-04-04T20:03:05Z</time>
      </trkpt>
      <trkpt lat="46.59938" lon="5.51633">
        <ele>463</ele>
        <time>2022-04-04T20:03:11Z</time>
      </trkpt>
      <trkpt lat="46.59946" lon="5.51636">
        <ele>464</ele>
        <time>2022-04-04T20:03:12Z</time>
      </trkpt>
      <trkpt lat="46.59954" lon="5.51643">
        <ele>464</ele>
        <time>2022-04-04T20:03:14Z</time>
      </trkpt>
      <trkpt lat="46.59928" lon="5.51685">
        <ele>466</ele>
        <time>2022-04-04T20:03:21Z</time>
      </trkpt>
      <trkpt lat="46.5992" lon="5.51703">
        <ele>466</ele>
        <time>2022-04-04T20:03:23Z</time>
      </trkpt>
      <trkpt lat="46.59907" lon="5.51763">
        <ele>470</ele>
        <time>2022-04-04T20:03:31Z</time>
      </trkpt>
      <trkpt lat="46.59897" lon="5.51791">
        <ele>472</ele>
        <time>2022-04-04T20:03:35Z</time>
      </trkpt>
      <trkpt lat="46.59893" lon="5.51811">
        <ele>473</ele>
        <time>2022-04-04T20:03:38Z</time>
      </trkpt>
      <trkpt lat="46.59881" lon="5.51841">
        <ele>475</ele>
        <time>2022-04-04T20:03:42Z</time>
      </trkpt>
      <trkpt lat="46.59864" lon="5.51902">
        <ele>481</ele>
        <time>2022-04-04T20:03:50Z</time>
      </trkpt>
      <trkpt lat="46.59863" lon="5.51914">
        <ele>483</ele>
        <time>2022-04-04T20:03:51Z</time>
      </trkpt>
      <trkpt lat="46.59866" lon="5.51922">
        <ele>484</ele>
        <time>2022-04-04T20:03:52Z</time>
      </trkpt>
      <trkpt lat="46.59872" lon="5.51928">
        <ele>484</ele>
        <time>2022-04-04T20:03:54Z</time>
      </trkpt>
      <trkpt lat="46.59879" lon="5.51932">
        <ele>485</ele>
        <time>2022-04-04T20:03:55Z</time>
      </trkpt>
      <trkpt lat="46.59886" lon="5.51933">
        <ele>485</ele>
        <time>2022-04-04T20:03:56Z</time>
      </trkpt>
      <trkpt lat="46.59902" lon="5.51928">
        <ele>486</ele>
        <time>2022-04-04T20:03:59Z</time>
      </trkpt>
      <trkpt lat="46.59908" lon="5.51929">
        <ele>486</ele>
        <time>2022-04-04T20:04:00Z</time>
      </trkpt>
      <trkpt lat="46.59916" lon="5.51934">
        <ele>487</ele>
        <time>2022-04-04T20:04:02Z</time>
      </trkpt>
      <trkpt lat="46.59917" lon="5.5194">
        <ele>487</ele>
        <time>2022-04-04T20:04:03Z</time>
      </trkpt>
      <trkpt lat="46.59916" lon="5.51956">
        <ele>487</ele>
        <time>2022-04-04T20:04:05Z</time>
      </trkpt>
      <trkpt lat="46.59954" lon="5.51964">
        <ele>487</ele>
        <time>2022-04-04T20:04:11Z</time>
      </trkpt>
      <trkpt lat="46.60067" lon="5.51997">
        <ele>488</ele>
        <time>2022-04-04T20:04:32Z</time>
      </trkpt>
      <trkpt lat="46.60157" lon="5.52012">
        <ele>484</ele>
        <time>2022-04-04T20:04:48Z</time>
      </trkpt>
      <trkpt lat="46.60202" lon="5.5201">
        <ele>483</ele>
        <time>2022-04-04T20:04:56Z</time>
      </trkpt>
      <trkpt lat="46.60225" lon="5.52013">
        <ele>483</ele>
        <time>2022-04-04T20:05:00Z</time>
      </trkpt>
      <trkpt lat="46.60251" lon="5.5202">
        <ele>482</ele>
        <time>2022-04-04T20:05:05Z</time>
      </trkpt>
      <trkpt lat="46.60291" lon="5.52036">
        <ele>480</ele>
        <time>2022-04-04T20:05:12Z</time>
      </trkpt>
      <trkpt lat="46.60396" lon="5.52093">
        <ele>477</ele>
        <time>2022-04-04T20:05:32Z</time>
      </trkpt>
      <trkpt lat="46.60424" lon="5.5211">
        <ele>476</ele>
        <time>2022-04-04T20:05:38Z</time>
      </trkpt>
      <trkpt lat="46.6044" lon="5.52123">
        <ele>475</ele>
        <time>2022-04-04T20:05:41Z</time>
      </trkpt>
      <trkpt lat="46.60454" lon="5.52138">
        <ele>474</ele>
        <time>2022-04-04T20:05:44Z</time>
      </trkpt>
      <trkpt lat="46.60486" lon="5.5218">
        <ele>472</ele>
        <time>2022-04-04T20:05:52Z</time>
      </trkpt>
      <trkpt lat="46.605" lon="5.52195">
        <ele>472</ele>
        <time>2022-04-04T20:05:55Z</time>
      </trkpt>
      <trkpt lat="46.60527" lon="5.52216">
        <ele>470</ele>
        <time>2022-04-04T20:06:00Z</time>
      </trkpt>
      <trkpt lat="46.60551" lon="5.52231">
        <ele>468</ele>
        <time>2022-04-04T20:06:05Z</time>
      </trkpt>
      <trkpt lat="46.60572" lon="5.5224">
        <ele>467</ele>
        <time>2022-04-04T20:06:09Z</time>
      </trkpt>
      <trkpt lat="46.6059" lon="5.52243">
        <ele>467</ele>
        <time>2022-04-04T20:06:12Z</time>
      </trkpt>
      <trkpt lat="46.60638" lon="5.52244">
        <ele>464</ele>
        <time>2022-04-04T20:06:20Z</time>
      </trkpt>
      <trkpt lat="46.60655" lon="5.52247">
        <ele>463</ele>
        <time>2022-04-04T20:06:24Z</time>
      </trkpt>
      <trkpt lat="46.60675" lon="5.52254">
        <ele>462</ele>
        <time>2022-04-04T20:06:27Z</time>
      </trkpt>
      <trkpt lat="46.60698" lon="5.52266">
        <ele>462</ele>
        <time>2022-04-04T20:06:32Z</time>
      </trkpt>
      <trkpt lat="46.60715" lon="5.52281">
        <ele>462</ele>
        <time>2022-04-04T20:06:35Z</time>
      </trkpt>
      <trkpt lat="46.60799" lon="5.52371">
        <ele>458</ele>
        <time>2022-04-04T20:06:54Z</time>
      </trkpt>
      <trkpt lat="46.60829" lon="5.52399">
        <ele>457</ele>
        <time>2022-04-04T20:07:00Z</time>
      </trkpt>
      <trkpt lat="46.60852" lon="5.52417">
        <ele>457</ele>
        <time>2022-04-04T20:07:05Z</time>
      </trkpt>
      <trkpt lat="46.60927" lon="5.52468">
        <ele>454</ele>
        <time>2022-04-04T20:07:19Z</time>
      </trkpt>
      <trkpt lat="46.60973" lon="5.52496">
        <ele>452</ele>
        <time>2022-04-04T20:07:28Z</time>
      </trkpt>
      <trkpt lat="46.61194" lon="5.52608">
        <ele>451</ele>
        <time>2022-04-04T20:08:10Z</time>
      </trkpt>
      <trkpt lat="46.6124" lon="5.52648">
        <ele>449</ele>
        <time>2022-04-04T20:08:19Z</time>
      </trkpt>
      <trkpt lat="46.61327" lon="5.52731">
        <ele>445</ele>
        <time>2022-04-04T20:08:38Z</time>
      </trkpt>
      <trkpt lat="46.61377" lon="5.52772">
        <ele>444</ele>
        <time>2022-04-04T20:08:48Z</time>
      </trkpt>
      <trkpt lat="46.61396" lon="5.52784">
        <ele>444</ele>
        <time>2022-04-04T20:08:52Z</time>
      </trkpt>
      <trkpt lat="46.6142" lon="5.52794">
        <ele>444</ele>
        <time>2022-04-04T20:08:56Z</time>
      </trkpt>
      <trkpt lat="46.61527" lon="5.52827">
        <ele>444</ele>
        <time>2022-04-04T20:09:16Z</time>
      </trkpt>
      <trkpt lat="46.61573" lon="5.52835">
        <ele>444</ele>
        <time>2022-04-04T20:09:24Z</time>
      </trkpt>
      <trkpt lat="46.6169" lon="5.52848">
        <ele>443</ele>
        <time>2022-04-04T20:09:45Z</time>
      </trkpt>
      <trkpt lat="46.61717" lon="5.52848">
        <ele>444</ele>
        <time>2022-04-04T20:09:50Z</time>
      </trkpt>
      <trkpt lat="46.61911" lon="5.52814">
        <ele>442</ele>
        <time>2022-04-04T20:10:24Z</time>
      </trkpt>
      <trkpt lat="46.61952" lon="5.5281">
        <ele>442</ele>
        <time>2022-04-04T20:10:32Z</time>
      </trkpt>
      <trkpt lat="46.62165" lon="5.52804">
        <ele>438</ele>
        <time>2022-04-04T20:11:10Z</time>
      </trkpt>
      <trkpt lat="46.62213" lon="5.52804">
        <ele>437</ele>
        <time>2022-04-04T20:11:18Z</time>
      </trkpt>
      <trkpt lat="46.62246" lon="5.52807">
        <ele>437</ele>
        <time>2022-04-04T20:11:24Z</time>
      </trkpt>
      <trkpt lat="46.62283" lon="5.52818">
        <ele>436</ele>
        <time>2022-04-04T20:11:31Z</time>
      </trkpt>
      <trkpt lat="46.62319" lon="5.52832">
        <ele>436</ele>
        <time>2022-04-04T20:11:37Z</time>
      </trkpt>
      <trkpt lat="46.62366" lon="5.52856">
        <ele>434</ele>
        <time>2022-04-04T20:11:46Z</time>
      </trkpt>
      <trkpt lat="46.62459" lon="5.52912">
        <ele>436</ele>
        <time>2022-04-04T20:12:04Z</time>
      </trkpt>
      <trkpt lat="46.62488" lon="5.52926">
        <ele>437</ele>
        <time>2022-04-04T20:12:10Z</time>
      </trkpt>
      <trkpt lat="46.6259" lon="5.5296">
        <ele>443</ele>
        <time>2022-04-04T20:12:28Z</time>
      </trkpt>
      <trkpt lat="46.62708" lon="5.52994">
        <ele>440</ele>
        <time>2022-04-04T20:12:50Z</time>
      </trkpt>
      <trkpt lat="46.62753" lon="5.5301">
        <ele>436</ele>
        <time>2022-04-04T20:12:58Z</time>
      </trkpt>
      <trkpt lat="46.62779" lon="5.53025">
        <ele>436</ele>
        <time>2022-04-04T20:13:03Z</time>
      </trkpt>
      <trkpt lat="46.62787" lon="5.53034">
        <ele>435</ele>
        <time>2022-04-04T20:13:05Z</time>
      </trkpt>
      <trkpt lat="46.62803" lon="5.53055">
        <ele>435</ele>
        <time>2022-04-04T20:13:08Z</time>
      </trkpt>
      <trkpt lat="46.62816" lon="5.53082">
        <ele>433</ele>
        <time>2022-04-04T20:13:12Z</time>
      </trkpt>
      <trkpt lat="46.62845" lon="5.53164">
        <ele>430</ele>
        <time>2022-04-04T20:13:24Z</time>
      </trkpt>
      <trkpt lat="46.62893" lon="5.53342">
        <ele>431</ele>
        <time>2022-04-04T20:13:47Z</time>
      </trkpt>
      <trkpt lat="46.62904" lon="5.53374">
        <ele>430</ele>
        <time>2022-04-04T20:13:51Z</time>
      </trkpt>
      <trkpt lat="46.62919" lon="5.53404">
        <ele>430</ele>
        <time>2022-04-04T20:13:56Z</time>
      </trkpt>
      <trkpt lat="46.62936" lon="5.53431">
        <ele>430</ele>
        <time>2022-04-04T20:14:00Z</time>
      </trkpt>
      <trkpt lat="46.62949" lon="5.53445">
        <ele>430</ele>
        <time>2022-04-04T20:14:03Z</time>
      </trkpt>
      <trkpt lat="46.62963" lon="5.53454">
        <ele>430</ele>
        <time>2022-04-04T20:14:06Z</time>
      </trkpt>
      <trkpt lat="46.63058" lon="5.53498">
        <ele>426</ele>
        <time>2022-04-04T20:14:24Z</time>
      </trkpt>
      <trkpt lat="46.63081" lon="5.53506">
        <ele>424</ele>
        <time>2022-04-04T20:14:28Z</time>
      </trkpt>
      <trkpt lat="46.63102" lon="5.5351">
        <ele>424</ele>
        <time>2022-04-04T20:14:32Z</time>
      </trkpt>
      <trkpt lat="46.63151" lon="5.53511">
        <ele>424</ele>
        <time>2022-04-04T20:14:41Z</time>
      </trkpt>
      <trkpt lat="46.6317" lon="5.53514">
        <ele>423</ele>
        <time>2022-04-04T20:14:44Z</time>
      </trkpt>
      <trkpt lat="46.63192" lon="5.53523">
        <ele>423</ele>
        <time>2022-04-04T20:14:48Z</time>
      </trkpt>
      <trkpt lat="46.6322" lon="5.53547">
        <ele>421</ele>
        <time>2022-04-04T20:14:54Z</time>
      </trkpt>
      <trkpt lat="46.63319" lon="5.5365">
        <ele>410</ele>
        <time>2022-04-04T20:15:15Z</time>
      </trkpt>
      <trkpt lat="46.63416" lon="5.53739">
        <ele>402</ele>
        <time>2022-04-04T20:15:36Z</time>
      </trkpt>
      <trkpt lat="46.63434" lon="5.53753">
        <ele>401</ele>
        <time>2022-04-04T20:15:39Z</time>
      </trkpt>
      <trkpt lat="46.63474" lon="5.53779">
        <ele>399</ele>
        <time>2022-04-04T20:15:47Z</time>
      </trkpt>
      <trkpt lat="46.6352" lon="5.53803">
        <ele>396</ele>
        <time>2022-04-04T20:15:56Z</time>
      </trkpt>
      <trkpt lat="46.63535" lon="5.53815">
        <ele>394</ele>
        <time>2022-04-04T20:15:59Z</time>
      </trkpt>
      <trkpt lat="46.63548" lon="5.53829">
        <ele>392</ele>
        <time>2022-04-04T20:16:02Z</time>
      </trkpt>
      <trkpt lat="46.63637" lon="5.53956">
        <ele>387</ele>
        <time>2022-04-04T20:16:24Z</time>
      </trkpt>
      <trkpt lat="46.63659" lon="5.5399">
        <ele>386</ele>
        <time>2022-04-04T20:16:30Z</time>
      </trkpt>
      <trkpt lat="46.63663" lon="5.54001">
        <ele>385</ele>
        <time>2022-04-04T20:16:31Z</time>
      </trkpt>
      <trkpt lat="46.63665" lon="5.5401">
        <ele>383</ele>
        <time>2022-04-04T20:16:32Z</time>
      </trkpt>
      <trkpt lat="46.63661" lon="5.54026">
        <ele>380</ele>
        <time>2022-04-04T20:16:34Z</time>
      </trkpt>
      <trkpt lat="46.63659" lon="5.5403">
        <ele>379</ele>
        <time>2022-04-04T20:16:35Z</time>
      </trkpt>
      <trkpt lat="46.6365" lon="5.54038">
        <ele>378</ele>
        <time>2022-04-04T20:16:37Z</time>
      </trkpt>
      <trkpt lat="46.63599" lon="5.5406">
        <ele>381</ele>
        <time>2022-04-04T20:16:46Z</time>
      </trkpt>
      <trkpt lat="46.63497" lon="5.54112">
        <ele>385</ele>
        <time>2022-04-04T20:17:06Z</time>
      </trkpt>
      <trkpt lat="46.6346" lon="5.54136">
        <ele>382</ele>
        <time>2022-04-04T20:17:13Z</time>
      </trkpt>
      <trkpt lat="46.63397" lon="5.54184">
        <ele>372</ele>
        <time>2022-04-04T20:17:26Z</time>
      </trkpt>
      <trkpt lat="46.6338" lon="5.54193">
        <ele>370</ele>
        <time>2022-04-04T20:17:29Z</time>
      </trkpt>
      <trkpt lat="46.6336" lon="5.542">
        <ele>370</ele>
        <time>2022-04-04T20:17:32Z</time>
      </trkpt>
      <trkpt lat="46.63339" lon="5.54204">
        <ele>370</ele>
        <time>2022-04-04T20:17:36Z</time>
      </trkpt>
      <trkpt lat="46.63254" lon="5.54206">
        <ele>373</ele>
        <time>2022-04-04T20:17:51Z</time>
      </trkpt>
      <trkpt lat="46.63246" lon="5.54208">
        <ele>372</ele>
        <time>2022-04-04T20:17:53Z</time>
      </trkpt>
      <trkpt lat="46.63238" lon="5.54213">
        <ele>370</ele>
        <time>2022-04-04T20:17:54Z</time>
      </trkpt>
      <trkpt lat="46.63234" lon="5.5422">
        <ele>368</ele>
        <time>2022-04-04T20:17:55Z</time>
      </trkpt>
      <trkpt lat="46.63233" lon="5.54228">
        <ele>366</ele>
        <time>2022-04-04T20:17:56Z</time>
      </trkpt>
      <trkpt lat="46.63234" lon="5.54237">
        <ele>364</ele>
        <time>2022-04-04T20:17:58Z</time>
      </trkpt>
      <trkpt lat="46.63239" lon="5.54244">
        <ele>362</ele>
        <time>2022-04-04T20:17:59Z</time>
      </trkpt>
      <trkpt lat="46.63245" lon="5.54247">
        <ele>361</ele>
        <time>2022-04-04T20:18:00Z</time>
      </trkpt>
      <trkpt lat="46.63254" lon="5.54247">
        <ele>361</ele>
        <time>2022-04-04T20:18:01Z</time>
      </trkpt>
      <trkpt lat="46.63279" lon="5.5424">
        <ele>362</ele>
        <time>2022-04-04T20:18:06Z</time>
      </trkpt>
      <trkpt lat="46.63301" lon="5.54237">
        <ele>362</ele>
        <time>2022-04-04T20:18:10Z</time>
      </trkpt>
      <trkpt lat="46.63397" lon="5.54239">
        <ele>354</ele>
        <time>2022-04-04T20:18:27Z</time>
      </trkpt>
      <trkpt lat="46.63415" lon="5.54235">
        <ele>353</ele>
        <time>2022-04-04T20:18:30Z</time>
      </trkpt>
      <trkpt lat="46.63511" lon="5.5419">
        <ele>355</ele>
        <time>2022-04-04T20:18:48Z</time>
      </trkpt>
      <trkpt lat="46.63562" lon="5.54181">
        <ele>348</ele>
        <time>2022-04-04T20:18:57Z</time>
      </trkpt>
      <trkpt lat="46.63579" lon="5.54177">
        <ele>345</ele>
        <time>2022-04-04T20:19:00Z</time>
      </trkpt>
      <trkpt lat="46.6359" lon="5.54171">
        <ele>345</ele>
        <time>2022-04-04T20:19:02Z</time>
      </trkpt>
      <trkpt lat="46.63622" lon="5.54145">
        <ele>347</ele>
        <time>2022-04-04T20:19:09Z</time>
      </trkpt>
      <trkpt lat="46.63631" lon="5.54143">
        <ele>346</ele>
        <time>2022-04-04T20:19:11Z</time>
      </trkpt>
      <trkpt lat="46.6365" lon="5.54142">
        <ele>342</ele>
        <time>2022-04-04T20:19:14Z</time>
      </trkpt>
      <trkpt lat="46.63691" lon="5.54152">
        <ele>330</ele>
        <time>2022-04-04T20:19:21Z</time>
      </trkpt>
      <trkpt lat="46.63708" lon="5.5415">
        <ele>328</ele>
        <time>2022-04-04T20:19:24Z</time>
      </trkpt>
      <trkpt lat="46.6372" lon="5.54146">
        <ele>328</ele>
        <time>2022-04-04T20:19:27Z</time>
      </trkpt>
      <trkpt lat="46.63768" lon="5.54109">
        <ele>334</ele>
        <time>2022-04-04T20:19:36Z</time>
      </trkpt>
      <trkpt lat="46.63796" lon="5.54092">
        <ele>334</ele>
        <time>2022-04-04T20:19:42Z</time>
      </trkpt>
      <trkpt lat="46.63833" lon="5.54077">
        <ele>330</ele>
        <time>2022-04-04T20:19:49Z</time>
      </trkpt>
      <trkpt lat="46.63904" lon="5.54053">
        <ele>324</ele>
        <time>2022-04-04T20:20:02Z</time>
      </trkpt>
      <trkpt lat="46.63922" lon="5.54049">
        <ele>322</ele>
        <time>2022-04-04T20:20:05Z</time>
      </trkpt>
      <trkpt lat="46.64035" lon="5.54044">
        <ele>304</ele>
        <time>2022-04-04T20:20:25Z</time>
      </trkpt>
      <trkpt lat="46.64092" lon="5.5403">
        <ele>297</ele>
        <time>2022-04-04T20:20:35Z</time>
      </trkpt>
      <trkpt lat="46.64126" lon="5.54015">
        <ele>294</ele>
        <time>2022-04-04T20:20:41Z</time>
      </trkpt>
      <trkpt lat="46.64175" lon="5.53978">
        <ele>293</ele>
        <time>2022-04-04T20:20:51Z</time>
      </trkpt>
      <trkpt lat="46.64206" lon="5.53966">
        <ele>291</ele>
        <time>2022-04-04T20:20:57Z</time>
      </trkpt>
      <trkpt lat="46.64224" lon="5.53963">
        <ele>289</ele>
        <time>2022-04-04T20:21:00Z</time>
      </trkpt>
      <trkpt lat="46.64285" lon="5.53965">
        <ele>284</ele>
        <time>2022-04-04T20:21:11Z</time>
      </trkpt>
      <trkpt lat="46.64327" lon="5.53962">
        <ele>282</ele>
        <time>2022-04-04T20:21:19Z</time>
      </trkpt>
      <trkpt lat="46.64369" lon="5.53963">
        <ele>280</ele>
        <time>2022-04-04T20:21:26Z</time>
      </trkpt>
      <trkpt lat="46.64392" lon="5.53967">
        <ele>278</ele>
        <time>2022-04-04T20:21:30Z</time>
      </trkpt>
      <trkpt lat="46.64404" lon="5.53977">
        <ele>277</ele>
        <time>2022-04-04T20:21:33Z</time>
      </trkpt>
      <trkpt lat="46.64407" lon="5.53983">
        <ele>276</ele>
        <time>2022-04-04T20:21:34Z</time>
      </trkpt>
      <trkpt lat="46.64419" lon="5.54032">
        <ele>275</ele>
        <time>2022-04-04T20:21:40Z</time>
      </trkpt>
      <trkpt lat="46.64431" lon="5.54023">
        <ele>274</ele>
        <time>2022-04-04T20:21:42Z</time>
      </trkpt>
      <trkpt lat="46.64449" lon="5.54003">
        <ele>273</ele>
        <time>2022-04-04T20:21:46Z</time>
      </trkpt>
      <trkpt lat="46.64462" lon="5.53998">
        <ele>273</ele>
        <time>2022-04-04T20:21:49Z</time>
      </trkpt>
      <trkpt lat="46.64505" lon="5.53993">
        <ele>271</ele>
        <time>2022-04-04T20:21:56Z</time>
      </trkpt>
      <trkpt lat="46.64522" lon="5.53984">
        <ele>271</ele>
        <time>2022-04-04T20:22:00Z</time>
      </trkpt>
      <trkpt lat="46.64569" lon="5.53949">
        <ele>270</ele>
        <time>2022-04-04T20:22:09Z</time>
      </trkpt>
      <trkpt lat="46.64631" lon="5.53907">
        <ele>268</ele>
        <time>2022-04-04T20:22:21Z</time>
      </trkpt>
      <trkpt lat="46.64663" lon="5.53896">
        <ele>267</ele>
        <time>2022-04-04T20:22:27Z</time>
      </trkpt>
      <trkpt lat="46.64664" lon="5.539">
        <ele>267</ele>
        <time>2022-04-04T20:22:28Z</time>
      </trkpt>
      <trkpt lat="46.64669" lon="5.53905">
        <ele>267</ele>
        <time>2022-04-04T20:22:29Z</time>
      </trkpt>
      <trkpt lat="46.64675" lon="5.53904">
        <ele>267</ele>
        <time>2022-04-04T20:22:30Z</time>
      </trkpt>
      <trkpt lat="46.6468" lon="5.53896">
        <ele>267</ele>
        <time>2022-04-04T20:22:31Z</time>
      </trkpt>
      <trkpt lat="46.6468" lon="5.53885">
        <ele>267</ele>
        <time>2022-04-04T20:22:32Z</time>
      </trkpt>
      <trkpt lat="46.64712" lon="5.53876">
        <ele>267</ele>
        <time>2022-04-04T20:22:38Z</time>
      </trkpt>
      <trkpt lat="46.64737" lon="5.53862">
        <ele>267</ele>
        <time>2022-04-04T20:22:43Z</time>
      </trkpt>
      <trkpt lat="46.64755" lon="5.53845">
        <ele>267</ele>
        <time>2022-04-04T20:22:47Z</time>
      </trkpt>
      <trkpt lat="46.64774" lon="5.53812">
        <ele>267</ele>
        <time>2022-04-04T20:22:52Z</time>
      </trkpt>
      <trkpt lat="46.64786" lon="5.53785">
        <ele>267</ele>
        <time>2022-04-04T20:22:56Z</time>
      </trkpt>
      <trkpt lat="46.64841" lon="5.53634">
        <ele>264</ele>
        <time>2022-04-04T20:23:17Z</time>
      </trkpt>
      <trkpt lat="46.64903" lon="5.53473">
        <ele>263</ele>
        <time>2022-04-04T20:23:39Z</time>
      </trkpt>
      <trkpt lat="46.64968" lon="5.53328">
        <ele>261</ele>
        <time>2022-04-04T20:24:00Z</time>
      </trkpt>
      <trkpt lat="46.65005" lon="5.53254">
        <ele>259</ele>
        <time>2022-04-04T20:24:12Z</time>
      </trkpt>
      <trkpt lat="46.65044" lon="5.53156">
        <ele>259</ele>
        <time>2022-04-04T20:24:26Z</time>
      </trkpt>
      <trkpt lat="46.65081" lon="5.53091">
        <ele>258</ele>
        <time>2022-04-04T20:24:36Z</time>
      </trkpt>
      <trkpt lat="46.6514" lon="5.52957">
        <ele>260</ele>
        <time>2022-04-04T20:24:55Z</time>
      </trkpt>
      <trkpt lat="46.65174" lon="5.52894">
        <ele>259</ele>
        <time>2022-04-04T20:25:05Z</time>
      </trkpt>
      <trkpt lat="46.65186" lon="5.5287">
        <ele>259</ele>
        <time>2022-04-04T20:25:09Z</time>
      </trkpt>
      <trkpt lat="46.65192" lon="5.52852">
        <ele>259</ele>
        <time>2022-04-04T20:25:11Z</time>
      </trkpt>
      <trkpt lat="46.65195" lon="5.52819">
        <ele>259</ele>
        <time>2022-04-04T20:25:15Z</time>
      </trkpt>
      <trkpt lat="46.65201" lon="5.52795">
        <ele>259</ele>
        <time>2022-04-04T20:25:18Z</time>
      </trkpt>
      <trkpt lat="46.65206" lon="5.52789">
        <ele>259</ele>
        <time>2022-04-04T20:25:19Z</time>
      </trkpt>
      <trkpt lat="46.65222" lon="5.52785">
        <ele>258</ele>
        <time>2022-04-04T20:25:22Z</time>
      </trkpt>
      <trkpt lat="46.65242" lon="5.52786">
        <ele>257</ele>
        <time>2022-04-04T20:25:26Z</time>
      </trkpt>
      <trkpt lat="46.65279" lon="5.52847">
        <ele>255</ele>
        <time>2022-04-04T20:25:36Z</time>
      </trkpt>
      <trkpt lat="46.65301" lon="5.52888">
        <ele>254</ele>
        <time>2022-04-04T20:25:42Z</time>
      </trkpt>
      <trkpt lat="46.65313" lon="5.5293">
        <ele>253</ele>
        <time>2022-04-04T20:25:48Z</time>
      </trkpt>
      <trkpt lat="46.65321" lon="5.52944">
        <ele>253</ele>
        <time>2022-04-04T20:25:50Z</time>
      </trkpt>
      <trkpt lat="46.65332" lon="5.5297">
        <ele>253</ele>
        <time>2022-04-04T20:25:54Z</time>
      </trkpt>
      <trkpt lat="46.65389" lon="5.52962">
        <ele>253</ele>
        <time>2022-04-04T20:26:04Z</time>
      </trkpt>
      <trkpt lat="46.65448" lon="5.52898">
        <ele>251</ele>
        <time>2022-04-04T20:26:17Z</time>
      </trkpt>
      <trkpt lat="46.65499" lon="5.52849">
        <ele>250</ele>
        <time>2022-04-04T20:26:28Z</time>
      </trkpt>
      <trkpt lat="46.65528" lon="5.52825">
        <ele>249</ele>
        <time>2022-04-04T20:26:34Z</time>
      </trkpt>
      <trkpt lat="46.65544" lon="5.52818">
        <ele>250</ele>
        <time>2022-04-04T20:26:37Z</time>
      </trkpt>
      <trkpt lat="46.65577" lon="5.52823">
        <ele>250</ele>
        <time>2022-04-04T20:26:43Z</time>
      </trkpt>
      <trkpt lat="46.65589" lon="5.52822">
        <ele>250</ele>
        <time>2022-04-04T20:26:45Z</time>
      </trkpt>
      <trkpt lat="46.65608" lon="5.52815">
        <ele>250</ele>
        <time>2022-04-04T20:26:48Z</time>
      </trkpt>
      <trkpt lat="46.65654" lon="5.52785">
        <ele>250</ele>
        <time>2022-04-04T20:26:57Z</time>
      </trkpt>
      <trkpt lat="46.65668" lon="5.52779">
        <ele>250</ele>
        <time>2022-04-04T20:27:00Z</time>
      </trkpt>
      <trkpt lat="46.65689" lon="5.52782">
        <ele>250</ele>
        <time>2022-04-04T20:27:04Z</time>
      </trkpt>
      <trkpt lat="46.65728" lon="5.52799">
        <ele>250</ele>
        <time>2022-04-04T20:27:11Z</time>
      </trkpt>
      <trkpt lat="46.6574" lon="5.528">
        <ele>251</ele>
        <time>2022-04-04T20:27:13Z</time>
      </trkpt>
      <trkpt lat="46.65752" lon="5.52796">
        <ele>251</ele>
        <time>2022-04-04T20:27:15Z</time>
      </trkpt>
      <trkpt lat="46.65798" lon="5.52762">
        <ele>250</ele>
        <time>2022-04-04T20:27:24Z</time>
      </trkpt>
      <trkpt lat="46.65838" lon="5.52743">
        <ele>249</ele>
        <time>2022-04-04T20:27:32Z</time>
      </trkpt>
      <trkpt lat="46.65909" lon="5.52716">
        <ele>252</ele>
        <time>2022-04-04T20:27:45Z</time>
      </trkpt>
      <trkpt lat="46.65979" lon="5.52678">
        <ele>254</ele>
        <time>2022-04-04T20:27:58Z</time>
      </trkpt>
      <trkpt lat="46.66004" lon="5.52667">
        <ele>255</ele>
        <time>2022-04-04T20:28:03Z</time>
      </trkpt>
      <trkpt lat="46.66029" lon="5.5266">
        <ele>257</ele>
        <time>2022-04-04T20:28:07Z</time>
      </trkpt>
      <trkpt lat="46.66046" lon="5.52657">
        <ele>258</ele>
        <time>2022-04-04T20:28:10Z</time>
      </trkpt>
      <trkpt lat="46.66095" lon="5.52655">
        <ele>262</ele>
        <time>2022-04-04T20:28:19Z</time>
      </trkpt>
      <trkpt lat="46.66118" lon="5.52651">
        <ele>263</ele>
        <time>2022-04-04T20:28:23Z</time>
      </trkpt>
      <trkpt lat="46.66193" lon="5.52628">
        <ele>265</ele>
        <time>2022-04-04T20:28:37Z</time>
      </trkpt>
      <trkpt lat="46.66229" lon="5.5262">
        <ele>266</ele>
        <time>2022-04-04T20:28:43Z</time>
      </trkpt>
      <trkpt lat="46.66292" lon="5.52616">
        <ele>267</ele>
        <time>2022-04-04T20:28:55Z</time>
      </trkpt>
      <trkpt lat="46.66319" lon="5.52617">
        <ele>268</ele>
        <time>2022-04-04T20:28:59Z</time>
      </trkpt>
      <trkpt lat="46.66381" lon="5.52633">
        <ele>269</ele>
        <time>2022-04-04T20:29:11Z</time>
      </trkpt>
      <trkpt lat="46.66409" lon="5.52643">
        <ele>270</ele>
        <time>2022-04-04T20:29:16Z</time>
      </trkpt>
      <trkpt lat="46.66486" lon="5.52671">
        <ele>269</ele>
        <time>2022-04-04T20:29:30Z</time>
      </trkpt>
      <trkpt lat="46.66568" lon="5.52704">
        <ele>269</ele>
        <time>2022-04-04T20:29:45Z</time>
      </trkpt>
      <trkpt lat="46.66602" lon="5.52707">
        <ele>268</ele>
        <time>2022-04-04T20:29:51Z</time>
      </trkpt>
      <trkpt lat="46.66655" lon="5.52704">
        <ele>267</ele>
        <time>2022-04-04T20:30:00Z</time>
      </trkpt>
      <trkpt lat="46.66669" lon="5.52706">
        <ele>267</ele>
        <time>2022-04-04T20:30:03Z</time>
      </trkpt>
      <trkpt lat="46.66713" lon="5.52718">
        <ele>268</ele>
        <time>2022-04-04T20:30:11Z</time>
      </trkpt>
      <trkpt lat="46.66753" lon="5.52732">
        <ele>269</ele>
        <time>2022-04-04T20:30:18Z</time>
      </trkpt>
      <trkpt lat="46.66915" lon="5.52908">
        <ele>282</ele>
        <time>2022-04-04T20:30:54Z</time>
      </trkpt>
      <trkpt lat="46.66978" lon="5.5298">
        <ele>288</ele>
        <time>2022-04-04T20:31:08Z</time>
      </trkpt>
      <trkpt lat="46.67" lon="5.53008">
        <ele>291</ele>
        <time>2022-04-04T20:31:14Z</time>
      </trkpt>
      <trkpt lat="46.67021" lon="5.53047">
        <ele>293</ele>
        <time>2022-04-04T20:31:20Z</time>
      </trkpt>
      <trkpt lat="46.67048" lon="5.53114">
        <ele>297</ele>
        <time>2022-04-04T20:31:29Z</time>
      </trkpt>
      <trkpt lat="46.67068" lon="5.53169">
        <ele>299</ele>
        <time>2022-04-04T20:31:37Z</time>
      </trkpt>
      <trkpt lat="46.6709" lon="5.5325">
        <ele>302</ele>
        <time>2022-04-04T20:31:47Z</time>
      </trkpt>
      <trkpt lat="46.67101" lon="5.53313">
        <ele>300</ele>
        <time>2022-04-04T20:31:55Z</time>
      </trkpt>
      <trkpt lat="46.67125" lon="5.53509">
        <ele>300</ele>
        <time>2022-04-04T20:32:20Z</time>
      </trkpt>
      <trkpt lat="46.67129" lon="5.53566">
        <ele>298</ele>
        <time>2022-04-04T20:32:27Z</time>
      </trkpt>
      <trkpt lat="46.67128" lon="5.53619">
        <ele>295</ele>
        <time>2022-04-04T20:32:33Z</time>
      </trkpt>
      <trkpt lat="46.67132" lon="5.53694">
        <ele>284</ele>
        <time>2022-04-04T20:32:42Z</time>
      </trkpt>
      <trkpt lat="46.67141" lon="5.53764">
        <ele>276</ele>
        <time>2022-04-04T20:32:51Z</time>
      </trkpt>
      <trkpt lat="46.67157" lon="5.53865">
        <ele>270</ele>
        <time>2022-04-04T20:33:04Z</time>
      </trkpt>
      <trkpt lat="46.67164" lon="5.53894">
        <ele>267</ele>
        <time>2022-04-04T20:33:07Z</time>
      </trkpt>
      <trkpt lat="46.67174" lon="5.53955">
        <ele>264</ele>
        <time>2022-04-04T20:33:15Z</time>
      </trkpt>
      <trkpt lat="46.67191" lon="5.54096">
        <ele>258</ele>
        <time>2022-04-04T20:33:33Z</time>
      </trkpt>
      <trkpt lat="46.67198" lon="5.54127">
        <ele>258</ele>
        <time>2022-04-04T20:33:37Z</time>
      </trkpt>
      <trkpt lat="46.67233" lon="5.54242">
        <ele>255</ele>
        <time>2022-04-04T20:33:52Z</time>
      </trkpt>
      <trkpt lat="46.67251" lon="5.54281">
        <ele>253</ele>
        <time>2022-04-04T20:33:58Z</time>
      </trkpt>
      <trkpt lat="46.67263" lon="5.54262">
        <ele>253</ele>
        <time>2022-04-04T20:34:01Z</time>
      </trkpt>
      <trkpt lat="46.67273" lon="5.5427">
        <ele>252</ele>
        <time>2022-04-04T20:34:03Z</time>
      </trkpt>
      <trkpt lat="46.67314" lon="5.54276">
        <ele>251</ele>
        <time>2022-04-04T20:34:10Z</time>
      </trkpt>
      <trkpt lat="46.67423" lon="5.54295">
        <ele>247</ele>
        <time>2022-04-04T20:34:30Z</time>
      </trkpt>
      <trkpt lat="46.67536" lon="5.54317">
        <ele>247</ele>
        <time>2022-04-04T20:34:50Z</time>
      </trkpt>
      <trkpt lat="46.67536" lon="5.54328">
        <ele>247</ele>
        <time>2022-04-04T20:34:51Z</time>
      </trkpt>
      <trkpt lat="46.6754" lon="5.54336">
        <ele>247</ele>
        <time>2022-04-04T20:34:53Z</time>
      </trkpt>
      <trkpt lat="46.6753" lon="5.54348">
        <ele>247</ele>
        <time>2022-04-04T20:34:55Z</time>
      </trkpt>
      <trkpt lat="46.67519" lon="5.54365">
        <ele>247</ele>
        <time>2022-04-04T20:34:58Z</time>
      </trkpt>
      <trkpt lat="46.67522" lon="5.54329">
        <ele>247</ele>
        <time>2022-04-04T20:35:02Z</time>
      </trkpt>
      <trkpt lat="46.67519" lon="5.54365">
        <ele>247</ele>
        <time>2022-04-04T20:35:07Z</time>
      </trkpt>
      <trkpt lat="46.6753" lon="5.54348">
        <ele>247</ele>
        <time>2022-04-04T20:35:09Z</time>
      </trkpt>
      <trkpt lat="46.6754" lon="5.54336">
        <ele>247</ele>
        <time>2022-04-04T20:35:12Z</time>
      </trkpt>
      <trkpt lat="46.67548" lon="5.54343">
        <ele>247</ele>
        <time>2022-04-04T20:35:13Z</time>
      </trkpt>
      <trkpt lat="46.67558" lon="5.54342">
        <ele>247</ele>
        <time>2022-04-04T20:35:15Z</time>
      </trkpt>
      <trkpt lat="46.67566" lon="5.54332">
        <ele>247</ele>
        <time>2022-04-04T20:35:17Z</time>
      </trkpt>
      <trkpt lat="46.67568" lon="5.54317">
        <ele>247</ele>
        <time>2022-04-04T20:35:19Z</time>
      </trkpt>
      <trkpt lat="46.67567" lon="5.54312">
        <ele>247</ele>
        <time>2022-04-04T20:35:20Z</time>
      </trkpt>
      <trkpt lat="46.67559" lon="5.543">
        <ele>247</ele>
        <time>2022-04-04T20:35:22Z</time>
      </trkpt>
      <trkpt lat="46.67552" lon="5.54297">
        <ele>247</ele>
        <time>2022-04-04T20:35:23Z</time>
      </trkpt>
      <trkpt lat="46.6755" lon="5.54281">
        <ele>246</ele>
        <time>2022-04-04T20:35:25Z</time>
      </trkpt>
      <trkpt lat="46.67549" lon="5.54243">
        <ele>246</ele>
        <time>2022-04-04T20:35:30Z</time>
      </trkpt>
      <trkpt lat="46.67566" lon="5.54171">
        <ele>245</ele>
        <time>2022-04-04T20:35:39Z</time>
      </trkpt>
      <trkpt lat="46.67572" lon="5.54151">
        <ele>245</ele>
        <time>2022-04-04T20:35:41Z</time>
      </trkpt>
      <trkpt lat="46.67571" lon="5.54135">
        <ele>245</ele>
        <time>2022-04-04T20:35:43Z</time>
      </trkpt>
      <trkpt lat="46.6758" lon="5.54133">
        <ele>245</ele>
        <time>2022-04-04T20:35:45Z</time>
      </trkpt>
      <trkpt lat="46.67588" lon="5.54121">
        <ele>244</ele>
        <time>2022-04-04T20:35:47Z</time>
      </trkpt>
      <trkpt lat="46.67622" lon="5.54046">
        <ele>243</ele>
        <time>2022-04-04T20:35:58Z</time>
      </trkpt>
      <trkpt lat="46.67631" lon="5.54019">
        <ele>243</ele>
        <time>2022-04-04T20:36:02Z</time>
      </trkpt>
      <trkpt lat="46.67638" lon="5.53989">
        <ele>243</ele>
        <time>2022-04-04T20:36:06Z</time>
      </trkpt>
      <trkpt lat="46.67659" lon="5.53841">
        <ele>242</ele>
        <time>2022-04-04T20:36:24Z</time>
      </trkpt>
      <trkpt lat="46.67665" lon="5.53819">
        <ele>242</ele>
        <time>2022-04-04T20:36:27Z</time>
      </trkpt>
      <trkpt lat="46.67671" lon="5.53804">
        <ele>242</ele>
        <time>2022-04-04T20:36:29Z</time>
      </trkpt>
      <trkpt lat="46.67682" lon="5.53788">
        <ele>242</ele>
        <time>2022-04-04T20:36:32Z</time>
      </trkpt>
      <trkpt lat="46.67686" lon="5.53791">
        <ele>242</ele>
        <time>2022-04-04T20:36:33Z</time>
      </trkpt>
      <trkpt lat="46.67691" lon="5.53787">
        <ele>242</ele>
        <time>2022-04-04T20:36:34Z</time>
      </trkpt>
      <trkpt lat="46.67692" lon="5.53781">
        <ele>242</ele>
        <time>2022-04-04T20:36:34Z</time>
      </trkpt>
      <trkpt lat="46.67689" lon="5.53775">
        <ele>242</ele>
        <time>2022-04-04T20:36:35Z</time>
      </trkpt>
      <trkpt lat="46.67697" lon="5.53757">
        <ele>242</ele>
        <time>2022-04-04T20:36:38Z</time>
      </trkpt>
      <trkpt lat="46.67742" lon="5.53668">
        <ele>242</ele>
        <time>2022-04-04T20:36:51Z</time>
      </trkpt>
      <trkpt lat="46.67757" lon="5.53629">
        <ele>242</ele>
        <time>2022-04-04T20:36:57Z</time>
      </trkpt>
      <trkpt lat="46.6777" lon="5.53585">
        <ele>243</ele>
        <time>2022-04-04T20:37:03Z</time>
      </trkpt>
      <trkpt lat="46.678" lon="5.53468">
        <ele>244</ele>
        <time>2022-04-04T20:37:18Z</time>
      </trkpt>
      <trkpt lat="46.67833" lon="5.53366">
        <ele>242</ele>
        <time>2022-04-04T20:37:32Z</time>
      </trkpt>
    </trkseg>
  </trk>
</gpx>